<?xml version="1.0" encoding="UTF-8" standalone="no" ?>
<gpx xmlns="http://www.topografix.com/GPX/1/1" xmlns:xsi="http://www.w3.org/2001/XMLSchema-instance" xsi:schemaLocation="http://www.topografix.com/GPX/1/1 http://www.topografix.com/GPX/1/1/gpx.xsd" version="1.1" creator="VisuGPX - https://www.visugpx.com">
  <metadata>
    <name>Parcours VTT FFC Saillans</name>
  </metadata>
  <trk>
    <name><![CDATA[VTT N°1 vert - col des Beaux - 6 km - Déniv 170 m]]></name>
    <extensions>
      <line xmlns="http://www.topografix.com/GPX/gpx_style/0/2">
        <color>36ed12</color>
        <width>4</width>
      </line>
    </extensions>
    <trkseg>
      <trkpt lat="44.69759" lon="5.19737">
        <ele>271</ele>
        <time>2022-12-01T10:44:04Z</time>
      </trkpt>
      <trkpt lat="44.69763" lon="5.19713">
        <ele>271</ele>
        <time>2022-12-01T10:44:04Z</time>
      </trkpt>
      <trkpt lat="44.69762" lon="5.19702">
        <ele>271</ele>
        <time>2022-12-01T10:44:04Z</time>
      </trkpt>
      <trkpt lat="44.69745" lon="5.19644">
        <ele>265</ele>
        <time>2022-12-01T10:44:04Z</time>
      </trkpt>
      <trkpt lat="44.6974" lon="5.19634">
        <ele>264</ele>
        <time>2022-12-01T10:44:04Z</time>
      </trkpt>
      <trkpt lat="44.69741" lon="5.19623">
        <ele>264</ele>
        <time>2022-12-01T10:44:04Z</time>
      </trkpt>
      <trkpt lat="44.69734" lon="5.19613">
        <ele>264</ele>
        <time>2022-12-01T10:44:04Z</time>
      </trkpt>
      <trkpt lat="44.69727" lon="5.19607">
        <ele>264</ele>
        <time>2022-12-01T10:44:04Z</time>
      </trkpt>
      <trkpt lat="44.6971" lon="5.196">
        <ele>263</ele>
        <time>2022-12-01T10:44:04Z</time>
      </trkpt>
      <trkpt lat="44.69664" lon="5.1955">
        <ele>264</ele>
        <time>2022-12-01T10:44:04Z</time>
      </trkpt>
      <trkpt lat="44.69673" lon="5.19453">
        <ele>265</ele>
        <time>2022-12-01T10:44:04Z</time>
      </trkpt>
      <trkpt lat="44.69678" lon="5.19445">
        <ele>265</ele>
        <time>2022-12-01T10:44:04Z</time>
      </trkpt>
      <trkpt lat="44.69805" lon="5.19388">
        <ele>274</ele>
        <time>2022-12-01T10:44:04Z</time>
      </trkpt>
      <trkpt lat="44.69859" lon="5.19333">
        <ele>282</ele>
        <time>2022-12-01T10:44:04Z</time>
      </trkpt>
      <trkpt lat="44.69891" lon="5.19325">
        <ele>287</ele>
        <time>2022-12-01T10:44:04Z</time>
      </trkpt>
      <trkpt lat="44.69914" lon="5.19322">
        <ele>291</ele>
        <time>2022-12-01T10:44:04Z</time>
      </trkpt>
      <trkpt lat="44.69928" lon="5.19314">
        <ele>294</ele>
        <time>2022-12-01T10:44:04Z</time>
      </trkpt>
      <trkpt lat="44.69935" lon="5.19307">
        <ele>296</ele>
        <time>2022-12-01T10:44:04Z</time>
      </trkpt>
      <trkpt lat="44.69933" lon="5.19297">
        <ele>297</ele>
        <time>2022-12-01T10:44:04Z</time>
      </trkpt>
      <trkpt lat="44.69926" lon="5.19289">
        <ele>298</ele>
        <time>2022-12-01T10:44:04Z</time>
      </trkpt>
      <trkpt lat="44.69919" lon="5.19284">
        <ele>299</ele>
        <time>2022-12-01T10:44:04Z</time>
      </trkpt>
      <trkpt lat="44.69908" lon="5.1927">
        <ele>302</ele>
        <time>2022-12-01T10:44:04Z</time>
      </trkpt>
      <trkpt lat="44.6991" lon="5.1926">
        <ele>303</ele>
        <time>2022-12-01T10:44:04Z</time>
      </trkpt>
      <trkpt lat="44.69917" lon="5.19262">
        <ele>304</ele>
        <time>2022-12-01T10:44:04Z</time>
      </trkpt>
      <trkpt lat="44.69922" lon="5.19269">
        <ele>305</ele>
        <time>2022-12-01T10:44:04Z</time>
      </trkpt>
      <trkpt lat="44.6993" lon="5.19271">
        <ele>305</ele>
        <time>2022-12-01T10:44:04Z</time>
      </trkpt>
      <trkpt lat="44.69962" lon="5.1926">
        <ele>309</ele>
        <time>2022-12-01T10:44:04Z</time>
      </trkpt>
      <trkpt lat="44.69977" lon="5.19262">
        <ele>311</ele>
        <time>2022-12-01T10:44:04Z</time>
      </trkpt>
      <trkpt lat="44.69984" lon="5.19265">
        <ele>311</ele>
        <time>2022-12-01T10:44:04Z</time>
      </trkpt>
      <trkpt lat="44.69995" lon="5.19282">
        <ele>314</ele>
        <time>2022-12-01T10:44:04Z</time>
      </trkpt>
      <trkpt lat="44.70004" lon="5.19284">
        <ele>314</ele>
        <time>2022-12-01T10:44:04Z</time>
      </trkpt>
      <trkpt lat="44.70012" lon="5.19281">
        <ele>315</ele>
        <time>2022-12-01T10:44:04Z</time>
      </trkpt>
      <trkpt lat="44.7002" lon="5.19276">
        <ele>316</ele>
        <time>2022-12-01T10:44:04Z</time>
      </trkpt>
      <trkpt lat="44.70092" lon="5.19248">
        <ele>321</ele>
        <time>2022-12-01T10:44:04Z</time>
      </trkpt>
      <trkpt lat="44.70225" lon="5.19161">
        <ele>335</ele>
        <time>2022-12-01T10:44:04Z</time>
      </trkpt>
      <trkpt lat="44.70231" lon="5.19155">
        <ele>336</ele>
        <time>2022-12-01T10:44:04Z</time>
      </trkpt>
      <trkpt lat="44.70247" lon="5.19146">
        <ele>338</ele>
        <time>2022-12-01T10:44:05Z</time>
      </trkpt>
      <trkpt lat="44.70286" lon="5.19134">
        <ele>341</ele>
        <time>2022-12-01T10:44:05Z</time>
      </trkpt>
      <trkpt lat="44.70299" lon="5.19125">
        <ele>342</ele>
        <time>2022-12-01T10:44:05Z</time>
      </trkpt>
      <trkpt lat="44.70424" lon="5.18995">
        <ele>358</ele>
        <time>2022-12-01T10:44:05Z</time>
      </trkpt>
      <trkpt lat="44.70453" lon="5.18977">
        <ele>361</ele>
        <time>2022-12-01T10:44:05Z</time>
      </trkpt>
      <trkpt lat="44.70546" lon="5.18873">
        <ele>370</ele>
        <time>2022-12-01T10:44:05Z</time>
      </trkpt>
      <trkpt lat="44.7069" lon="5.18783">
        <ele>383</ele>
        <time>2022-12-01T10:44:05Z</time>
      </trkpt>
      <trkpt lat="44.707" lon="5.1878">
        <ele>384</ele>
        <time>2022-12-01T10:44:05Z</time>
      </trkpt>
      <trkpt lat="44.70812" lon="5.18793">
        <ele>395</ele>
        <time>2022-12-01T10:44:05Z</time>
      </trkpt>
      <trkpt lat="44.70841" lon="5.18812">
        <ele>398</ele>
        <time>2022-12-01T10:44:05Z</time>
      </trkpt>
      <trkpt lat="44.70857" lon="5.18816">
        <ele>399</ele>
        <time>2022-12-01T10:44:05Z</time>
      </trkpt>
      <trkpt lat="44.70866" lon="5.18813">
        <ele>399</ele>
        <time>2022-12-01T10:44:05Z</time>
      </trkpt>
      <trkpt lat="44.70969" lon="5.18715">
        <ele>398</ele>
        <time>2022-12-01T10:44:05Z</time>
      </trkpt>
      <trkpt lat="44.71063" lon="5.1861">
        <ele>396</ele>
        <time>2022-12-01T10:44:05Z</time>
      </trkpt>
      <trkpt lat="44.7107" lon="5.18604">
        <ele>396</ele>
        <time>2022-12-01T10:44:05Z</time>
      </trkpt>
      <trkpt lat="44.71078" lon="5.18602">
        <ele>397</ele>
        <time>2022-12-01T10:44:05Z</time>
      </trkpt>
      <trkpt lat="44.71083" lon="5.18614">
        <ele>397</ele>
        <time>2022-12-01T10:44:05Z</time>
      </trkpt>
      <trkpt lat="44.71088" lon="5.18621">
        <ele>397</ele>
        <time>2022-12-01T10:44:05Z</time>
      </trkpt>
      <trkpt lat="44.7112" lon="5.18635">
        <ele>397</ele>
        <time>2022-12-01T10:44:05Z</time>
      </trkpt>
      <trkpt lat="44.71145" lon="5.18671">
        <ele>398</ele>
        <time>2022-12-01T10:44:05Z</time>
      </trkpt>
      <trkpt lat="44.71149" lon="5.18685">
        <ele>398</ele>
        <time>2022-12-01T10:44:05Z</time>
      </trkpt>
      <trkpt lat="44.71168" lon="5.1871">
        <ele>399</ele>
        <time>2022-12-01T10:44:05Z</time>
      </trkpt>
      <trkpt lat="44.71176" lon="5.18712">
        <ele>398</ele>
        <time>2022-12-01T10:44:05Z</time>
      </trkpt>
      <trkpt lat="44.712" lon="5.18691">
        <ele>400</ele>
        <time>2022-12-01T10:44:05Z</time>
      </trkpt>
      <trkpt lat="44.71211" lon="5.18677">
        <ele>402</ele>
        <time>2022-12-01T10:44:05Z</time>
      </trkpt>
      <trkpt lat="44.71256" lon="5.18589">
        <ele>407</ele>
        <time>2022-12-01T10:44:05Z</time>
      </trkpt>
      <trkpt lat="44.71267" lon="5.18572">
        <ele>411</ele>
        <time>2022-12-01T10:44:05Z</time>
      </trkpt>
      <trkpt lat="44.71288" lon="5.18551">
        <ele>414</ele>
        <time>2022-12-01T10:44:05Z</time>
      </trkpt>
      <trkpt lat="44.71296" lon="5.1855">
        <ele>415</ele>
        <time>2022-12-01T10:44:05Z</time>
      </trkpt>
      <trkpt lat="44.71312" lon="5.18553">
        <ele>412</ele>
        <time>2022-12-01T10:44:05Z</time>
      </trkpt>
      <trkpt lat="44.71357" lon="5.18538">
        <ele>411</ele>
        <time>2022-12-01T10:44:05Z</time>
      </trkpt>
      <trkpt lat="44.71375" lon="5.1854">
        <ele>409</ele>
        <time>2022-12-01T10:44:05Z</time>
      </trkpt>
      <trkpt lat="44.71412" lon="5.18532">
        <ele>404</ele>
        <time>2022-12-01T10:44:05Z</time>
      </trkpt>
      <trkpt lat="44.71421" lon="5.18535">
        <ele>402</ele>
        <time>2022-12-01T10:44:05Z</time>
      </trkpt>
      <trkpt lat="44.71431" lon="5.18541">
        <ele>400</ele>
        <time>2022-12-01T10:44:05Z</time>
      </trkpt>
      <trkpt lat="44.71449" lon="5.18552">
        <ele>396</ele>
        <time>2022-12-01T10:44:05Z</time>
      </trkpt>
      <trkpt lat="44.71465" lon="5.18554">
        <ele>394</ele>
        <time>2022-12-01T10:44:05Z</time>
      </trkpt>
      <trkpt lat="44.71472" lon="5.1855">
        <ele>393</ele>
        <time>2022-12-01T10:44:05Z</time>
      </trkpt>
      <trkpt lat="44.71478" lon="5.18544">
        <ele>392</ele>
        <time>2022-12-01T10:44:05Z</time>
      </trkpt>
      <trkpt lat="44.71519" lon="5.18416">
        <ele>388</ele>
        <time>2022-12-01T10:44:05Z</time>
      </trkpt>
      <trkpt lat="44.71525" lon="5.18409">
        <ele>388</ele>
        <time>2022-12-01T10:44:05Z</time>
      </trkpt>
      <trkpt lat="44.7153" lon="5.18378">
        <ele>389</ele>
        <time>2022-12-01T10:44:05Z</time>
      </trkpt>
      <trkpt lat="44.71537" lon="5.18376">
        <ele>388</ele>
        <time>2022-12-01T10:44:05Z</time>
      </trkpt>
      <trkpt lat="44.71546" lon="5.18397">
        <ele>384</ele>
        <time>2022-12-01T10:44:05Z</time>
      </trkpt>
      <trkpt lat="44.71552" lon="5.18402">
        <ele>383</ele>
        <time>2022-12-01T10:44:05Z</time>
      </trkpt>
      <trkpt lat="44.7156" lon="5.18398">
        <ele>383</ele>
        <time>2022-12-01T10:44:05Z</time>
      </trkpt>
      <trkpt lat="44.7159" lon="5.18377">
        <ele>385</ele>
        <time>2022-12-01T10:44:05Z</time>
      </trkpt>
      <trkpt lat="44.71597" lon="5.18375">
        <ele>385</ele>
        <time>2022-12-01T10:44:05Z</time>
      </trkpt>
      <trkpt lat="44.71589" lon="5.18407">
        <ele>380</ele>
        <time>2022-12-01T10:44:05Z</time>
      </trkpt>
      <trkpt lat="44.71585" lon="5.18416">
        <ele>379</ele>
        <time>2022-12-01T10:44:05Z</time>
      </trkpt>
      <trkpt lat="44.71573" lon="5.18428">
        <ele>378</ele>
        <time>2022-12-01T10:44:05Z</time>
      </trkpt>
      <trkpt lat="44.71564" lon="5.18446">
        <ele>377</ele>
        <time>2022-12-01T10:44:05Z</time>
      </trkpt>
      <trkpt lat="44.71563" lon="5.18457">
        <ele>377</ele>
        <time>2022-12-01T10:44:05Z</time>
      </trkpt>
      <trkpt lat="44.71573" lon="5.1849">
        <ele>378</ele>
        <time>2022-12-01T10:44:05Z</time>
      </trkpt>
      <trkpt lat="44.71627" lon="5.18573">
        <ele>377</ele>
        <time>2022-12-01T10:44:05Z</time>
      </trkpt>
      <trkpt lat="44.71634" lon="5.18576">
        <ele>378</ele>
        <time>2022-12-01T10:44:05Z</time>
      </trkpt>
      <trkpt lat="44.71642" lon="5.18576">
        <ele>378</ele>
        <time>2022-12-01T10:44:05Z</time>
      </trkpt>
      <trkpt lat="44.71646" lon="5.18595">
        <ele>376</ele>
        <time>2022-12-01T10:44:05Z</time>
      </trkpt>
      <trkpt lat="44.71649" lon="5.18607">
        <ele>373</ele>
        <time>2022-12-01T10:44:05Z</time>
      </trkpt>
      <trkpt lat="44.71653" lon="5.18616">
        <ele>372</ele>
        <time>2022-12-01T10:44:05Z</time>
      </trkpt>
      <trkpt lat="44.71656" lon="5.18626">
        <ele>371</ele>
        <time>2022-12-01T10:44:05Z</time>
      </trkpt>
      <trkpt lat="44.7166" lon="5.18637">
        <ele>369</ele>
        <time>2022-12-01T10:44:05Z</time>
      </trkpt>
      <trkpt lat="44.71683" lon="5.18664">
        <ele>364</ele>
        <time>2022-12-01T10:44:05Z</time>
      </trkpt>
      <trkpt lat="44.71697" lon="5.18677">
        <ele>361</ele>
        <time>2022-12-01T10:44:05Z</time>
      </trkpt>
      <trkpt lat="44.71707" lon="5.18694">
        <ele>358</ele>
        <time>2022-12-01T10:44:05Z</time>
      </trkpt>
      <trkpt lat="44.71715" lon="5.18761">
        <ele>353</ele>
        <time>2022-12-01T10:44:05Z</time>
      </trkpt>
      <trkpt lat="44.71712" lon="5.18782">
        <ele>353</ele>
        <time>2022-12-01T10:44:05Z</time>
      </trkpt>
      <trkpt lat="44.71713" lon="5.18792">
        <ele>353</ele>
        <time>2022-12-01T10:44:05Z</time>
      </trkpt>
      <trkpt lat="44.71711" lon="5.18803">
        <ele>353</ele>
        <time>2022-12-01T10:44:05Z</time>
      </trkpt>
      <trkpt lat="44.71704" lon="5.18807">
        <ele>353</ele>
        <time>2022-12-01T10:44:05Z</time>
      </trkpt>
      <trkpt lat="44.71697" lon="5.18816">
        <ele>353</ele>
        <time>2022-12-01T10:44:05Z</time>
      </trkpt>
      <trkpt lat="44.71675" lon="5.18863">
        <ele>353</ele>
        <time>2022-12-01T10:44:05Z</time>
      </trkpt>
      <trkpt lat="44.7166" lon="5.1888">
        <ele>352</ele>
        <time>2022-12-01T10:44:05Z</time>
      </trkpt>
      <trkpt lat="44.71627" lon="5.18894">
        <ele>351</ele>
        <time>2022-12-01T10:44:05Z</time>
      </trkpt>
      <trkpt lat="44.716" lon="5.1892">
        <ele>349</ele>
        <time>2022-12-01T10:44:05Z</time>
      </trkpt>
      <trkpt lat="44.71576" lon="5.18956">
        <ele>349</ele>
        <time>2022-12-01T10:44:05Z</time>
      </trkpt>
      <trkpt lat="44.71571" lon="5.18969">
        <ele>349</ele>
        <time>2022-12-01T10:44:05Z</time>
      </trkpt>
      <trkpt lat="44.7156" lon="5.18985">
        <ele>349</ele>
        <time>2022-12-01T10:44:05Z</time>
      </trkpt>
      <trkpt lat="44.71553" lon="5.1899">
        <ele>349</ele>
        <time>2022-12-01T10:44:05Z</time>
      </trkpt>
      <trkpt lat="44.71529" lon="5.19019">
        <ele>349</ele>
        <time>2022-12-01T10:44:05Z</time>
      </trkpt>
      <trkpt lat="44.71524" lon="5.19029">
        <ele>349</ele>
        <time>2022-12-01T10:44:05Z</time>
      </trkpt>
      <trkpt lat="44.71522" lon="5.1904">
        <ele>349</ele>
        <time>2022-12-01T10:44:05Z</time>
      </trkpt>
      <trkpt lat="44.71521" lon="5.19051">
        <ele>349</ele>
        <time>2022-12-01T10:44:05Z</time>
      </trkpt>
      <trkpt lat="44.71516" lon="5.19063">
        <ele>349</ele>
        <time>2022-12-01T10:44:05Z</time>
      </trkpt>
      <trkpt lat="44.71509" lon="5.19067">
        <ele>348</ele>
        <time>2022-12-01T10:44:05Z</time>
      </trkpt>
      <trkpt lat="44.71507" lon="5.19078">
        <ele>348</ele>
        <time>2022-12-01T10:44:05Z</time>
      </trkpt>
      <trkpt lat="44.71485" lon="5.19082">
        <ele>346</ele>
        <time>2022-12-01T10:44:05Z</time>
      </trkpt>
      <trkpt lat="44.71478" lon="5.1908">
        <ele>345</ele>
        <time>2022-12-01T10:44:05Z</time>
      </trkpt>
      <trkpt lat="44.7141" lon="5.19103">
        <ele>339</ele>
        <time>2022-12-01T10:44:05Z</time>
      </trkpt>
      <trkpt lat="44.7137" lon="5.19126">
        <ele>338</ele>
        <time>2022-12-01T10:44:05Z</time>
      </trkpt>
      <trkpt lat="44.71365" lon="5.19134">
        <ele>339</ele>
        <time>2022-12-01T10:44:05Z</time>
      </trkpt>
      <trkpt lat="44.71358" lon="5.19155">
        <ele>340</ele>
        <time>2022-12-01T10:44:05Z</time>
      </trkpt>
      <trkpt lat="44.71343" lon="5.1916">
        <ele>340</ele>
        <time>2022-12-01T10:44:05Z</time>
      </trkpt>
      <trkpt lat="44.71329" lon="5.19149">
        <ele>338</ele>
        <time>2022-12-01T10:44:05Z</time>
      </trkpt>
      <trkpt lat="44.71221" lon="5.19178">
        <ele>333</ele>
        <time>2022-12-01T10:44:05Z</time>
      </trkpt>
      <trkpt lat="44.71163" lon="5.19211">
        <ele>333</ele>
        <time>2022-12-01T10:44:05Z</time>
      </trkpt>
      <trkpt lat="44.71147" lon="5.19206">
        <ele>332</ele>
        <time>2022-12-01T10:44:05Z</time>
      </trkpt>
      <trkpt lat="44.71122" lon="5.1921">
        <ele>330</ele>
        <time>2022-12-01T10:44:05Z</time>
      </trkpt>
      <trkpt lat="44.71091" lon="5.19229">
        <ele>329</ele>
        <time>2022-12-01T10:44:05Z</time>
      </trkpt>
      <trkpt lat="44.71052" lon="5.19268">
        <ele>328</ele>
        <time>2022-12-01T10:44:05Z</time>
      </trkpt>
      <trkpt lat="44.7102" lon="5.19327">
        <ele>327</ele>
        <time>2022-12-01T10:44:05Z</time>
      </trkpt>
      <trkpt lat="44.70991" lon="5.1943">
        <ele>326</ele>
        <time>2022-12-01T10:44:05Z</time>
      </trkpt>
      <trkpt lat="44.70945" lon="5.19541">
        <ele>323</ele>
        <time>2022-12-01T10:44:05Z</time>
      </trkpt>
      <trkpt lat="44.7094" lon="5.19564">
        <ele>321</ele>
        <time>2022-12-01T10:44:05Z</time>
      </trkpt>
      <trkpt lat="44.70942" lon="5.19577">
        <ele>320</ele>
        <time>2022-12-01T10:44:05Z</time>
      </trkpt>
      <trkpt lat="44.70953" lon="5.19595">
        <ele>319</ele>
        <time>2022-12-01T10:44:05Z</time>
      </trkpt>
      <trkpt lat="44.70957" lon="5.19608">
        <ele>318</ele>
        <time>2022-12-01T10:44:05Z</time>
      </trkpt>
      <trkpt lat="44.70953" lon="5.19621">
        <ele>319</ele>
        <time>2022-12-01T10:44:05Z</time>
      </trkpt>
      <trkpt lat="44.70945" lon="5.19629">
        <ele>319</ele>
        <time>2022-12-01T10:44:05Z</time>
      </trkpt>
      <trkpt lat="44.70938" lon="5.19633">
        <ele>320</ele>
        <time>2022-12-01T10:44:05Z</time>
      </trkpt>
      <trkpt lat="44.70923" lon="5.19647">
        <ele>321</ele>
        <time>2022-12-01T10:44:05Z</time>
      </trkpt>
      <trkpt lat="44.70907" lon="5.19674">
        <ele>323</ele>
        <time>2022-12-01T10:44:05Z</time>
      </trkpt>
      <trkpt lat="44.70893" lon="5.19687">
        <ele>325</ele>
        <time>2022-12-01T10:44:05Z</time>
      </trkpt>
      <trkpt lat="44.70886" lon="5.1969">
        <ele>326</ele>
        <time>2022-12-01T10:44:05Z</time>
      </trkpt>
      <trkpt lat="44.70871" lon="5.19692">
        <ele>327</ele>
        <time>2022-12-01T10:44:05Z</time>
      </trkpt>
      <trkpt lat="44.70815" lon="5.19718">
        <ele>332</ele>
        <time>2022-12-01T10:44:05Z</time>
      </trkpt>
      <trkpt lat="44.708" lon="5.19718">
        <ele>333</ele>
        <time>2022-12-01T10:44:05Z</time>
      </trkpt>
      <trkpt lat="44.70793" lon="5.1972">
        <ele>334</ele>
        <time>2022-12-01T10:44:05Z</time>
      </trkpt>
      <trkpt lat="44.70761" lon="5.19715">
        <ele>336</ele>
        <time>2022-12-01T10:44:05Z</time>
      </trkpt>
      <trkpt lat="44.70696" lon="5.19674">
        <ele>339</ele>
        <time>2022-12-01T10:44:05Z</time>
      </trkpt>
      <trkpt lat="44.70687" lon="5.19676">
        <ele>339</ele>
        <time>2022-12-01T10:44:05Z</time>
      </trkpt>
      <trkpt lat="44.70621" lon="5.19657">
        <ele>332</ele>
        <time>2022-12-01T10:44:05Z</time>
      </trkpt>
      <trkpt lat="44.70585" lon="5.19659">
        <ele>327</ele>
        <time>2022-12-01T10:44:05Z</time>
      </trkpt>
      <trkpt lat="44.70567" lon="5.19668">
        <ele>325</ele>
        <time>2022-12-01T10:44:05Z</time>
      </trkpt>
      <trkpt lat="44.70552" lon="5.19687">
        <ele>322</ele>
        <time>2022-12-01T10:44:05Z</time>
      </trkpt>
      <trkpt lat="44.70529" lon="5.1973">
        <ele>318</ele>
        <time>2022-12-01T10:44:05Z</time>
      </trkpt>
      <trkpt lat="44.70451" lon="5.19811">
        <ele>308</ele>
        <time>2022-12-01T10:44:05Z</time>
      </trkpt>
      <trkpt lat="44.70443" lon="5.19815">
        <ele>308</ele>
        <time>2022-12-01T10:44:05Z</time>
      </trkpt>
      <trkpt lat="44.70423" lon="5.19814">
        <ele>306</ele>
        <time>2022-12-01T10:44:05Z</time>
      </trkpt>
      <trkpt lat="44.70256" lon="5.19782">
        <ele>296</ele>
        <time>2022-12-01T10:44:05Z</time>
      </trkpt>
      <trkpt lat="44.70202" lon="5.19795">
        <ele>295</ele>
        <time>2022-12-01T10:44:05Z</time>
      </trkpt>
      <trkpt lat="44.70116" lon="5.19773">
        <ele>293</ele>
        <time>2022-12-01T10:44:05Z</time>
      </trkpt>
      <trkpt lat="44.70038" lon="5.19789">
        <ele>292</ele>
        <time>2022-12-01T10:44:05Z</time>
      </trkpt>
      <trkpt lat="44.69973" lon="5.19783">
        <ele>289</ele>
        <time>2022-12-01T10:44:05Z</time>
      </trkpt>
      <trkpt lat="44.69921" lon="5.19802">
        <ele>291</ele>
        <time>2022-12-01T10:44:05Z</time>
      </trkpt>
      <trkpt lat="44.69905" lon="5.19814">
        <ele>291</ele>
        <time>2022-12-01T10:44:05Z</time>
      </trkpt>
      <trkpt lat="44.69842" lon="5.19899">
        <ele>290</ele>
        <time>2022-12-01T10:44:05Z</time>
        <extensions>
          <visugpx:TrkExtension xmlns:visugpx="https://www.visugpx.com/editgpx/">
            <visugpx:node>1</visugpx:node>
            </visugpx:TrkExtension>
        </extensions>
      </trkpt>
    </trkseg>
  </trk>
  <trk>
    <name><![CDATA[VTT N°2 bleu - Les trois cols - 16 km - Déniv 430 m]]></name>
    <extensions>
      <line xmlns="http://www.topografix.com/GPX/gpx_style/0/2">
        <color>001eff</color>
        <width>4</width>
      </line>
    </extensions>
    <trkseg>
      <trkpt lat="44.69704" lon="5.19979">
        <ele>268</ele>
        <time>2022-11-17T10:03:27Z</time>
      </trkpt>
      <trkpt lat="44.69734" lon="5.2">
        <ele>270</ele>
        <time>2022-11-17T10:03:27Z</time>
      </trkpt>
      <trkpt lat="44.69737" lon="5.20009">
        <ele>271</ele>
        <time>2022-11-17T10:03:27Z</time>
      </trkpt>
      <trkpt lat="44.69746" lon="5.20012">
        <ele>272</ele>
        <time>2022-11-17T10:03:27Z</time>
      </trkpt>
      <trkpt lat="44.69781" lon="5.19965">
        <ele>274</ele>
        <time>2022-11-17T10:03:27Z</time>
      </trkpt>
      <trkpt lat="44.69839" lon="5.19904">
        <ele>277</ele>
        <time>2022-11-17T10:03:27Z</time>
      </trkpt>
      <trkpt lat="44.6991" lon="5.19807">
        <ele>279</ele>
        <time>2022-11-17T10:03:27Z</time>
      </trkpt>
      <trkpt lat="44.69971" lon="5.19785">
        <ele>282</ele>
        <time>2022-11-17T10:03:27Z</time>
      </trkpt>
      <trkpt lat="44.70046" lon="5.19789">
        <ele>285</ele>
        <time>2022-11-17T10:03:27Z</time>
      </trkpt>
      <trkpt lat="44.70137" lon="5.19778">
        <ele>286</ele>
        <time>2022-11-17T10:03:27Z</time>
      </trkpt>
      <trkpt lat="44.70213" lon="5.19799">
        <ele>288</ele>
        <time>2022-11-17T10:03:27Z</time>
      </trkpt>
      <trkpt lat="44.70238" lon="5.1979">
        <ele>288</ele>
        <time>2022-11-17T10:03:27Z</time>
      </trkpt>
      <trkpt lat="44.70339" lon="5.19803">
        <ele>290</ele>
      </trkpt>
      <trkpt lat="44.7044" lon="5.19816">
        <ele>295</ele>
        <time>2022-11-17T10:03:27Z</time>
      </trkpt>
      <trkpt lat="44.70451" lon="5.1981">
        <ele>297</ele>
        <time>2022-11-17T10:03:27Z</time>
      </trkpt>
      <trkpt lat="44.70532" lon="5.1973">
        <ele>302</ele>
        <time>2022-11-17T10:03:27Z</time>
      </trkpt>
      <trkpt lat="44.70559" lon="5.19674">
        <ele>304</ele>
        <time>2022-11-17T10:03:27Z</time>
      </trkpt>
      <trkpt lat="44.70582" lon="5.19659">
        <ele>306</ele>
        <time>2022-11-17T10:03:27Z</time>
      </trkpt>
      <trkpt lat="44.70628" lon="5.1966">
        <ele>310</ele>
        <time>2022-11-17T10:03:27Z</time>
      </trkpt>
      <trkpt lat="44.7071" lon="5.19691">
        <ele>314</ele>
      </trkpt>
      <trkpt lat="44.70791" lon="5.19721">
        <ele>320</ele>
        <time>2022-11-17T10:03:27Z</time>
      </trkpt>
      <trkpt lat="44.70835" lon="5.19713">
        <ele>322</ele>
        <time>2022-11-17T10:03:27Z</time>
      </trkpt>
      <trkpt lat="44.70865" lon="5.19696">
        <ele>321</ele>
        <time>2022-11-17T10:03:27Z</time>
      </trkpt>
      <trkpt lat="44.70888" lon="5.19692">
        <ele>321</ele>
        <time>2022-11-17T10:03:27Z</time>
      </trkpt>
      <trkpt lat="44.70901" lon="5.19684">
        <ele>321</ele>
        <time>2022-11-17T10:03:27Z</time>
      </trkpt>
      <trkpt lat="44.70938" lon="5.19646">
        <ele>319</ele>
        <time>2022-11-17T10:03:27Z</time>
      </trkpt>
      <trkpt lat="44.7095" lon="5.19643">
        <ele>318</ele>
        <time>2022-11-17T10:03:27Z</time>
      </trkpt>
      <trkpt lat="44.70959" lon="5.19637">
        <ele>317</ele>
        <time>2022-11-17T10:03:27Z</time>
      </trkpt>
      <trkpt lat="44.70963" lon="5.19619">
        <ele>316</ele>
        <time>2022-11-17T10:03:27Z</time>
      </trkpt>
      <trkpt lat="44.70963" lon="5.19609">
        <ele>316</ele>
        <time>2022-11-17T10:03:27Z</time>
      </trkpt>
      <trkpt lat="44.70944" lon="5.19588">
        <ele>315</ele>
        <time>2022-11-17T10:03:27Z</time>
      </trkpt>
      <trkpt lat="44.70941" lon="5.19574">
        <ele>315</ele>
        <time>2022-11-17T10:03:27Z</time>
      </trkpt>
      <trkpt lat="44.70953" lon="5.19536">
        <ele>315</ele>
        <time>2022-11-17T10:03:27Z</time>
      </trkpt>
      <trkpt lat="44.7102" lon="5.19446">
        <ele>319</ele>
        <time>2022-11-17T10:03:27Z</time>
      </trkpt>
      <trkpt lat="44.71025" lon="5.19428">
        <ele>322</ele>
        <time>2022-11-17T10:03:27Z</time>
      </trkpt>
      <trkpt lat="44.71024" lon="5.19417">
        <ele>323</ele>
        <time>2022-11-17T10:03:27Z</time>
      </trkpt>
      <trkpt lat="44.71028" lon="5.19398">
        <ele>325</ele>
        <time>2022-11-17T10:03:27Z</time>
      </trkpt>
      <trkpt lat="44.71068" lon="5.19304">
        <ele>327</ele>
        <time>2022-11-17T10:03:27Z</time>
      </trkpt>
      <trkpt lat="44.71085" lon="5.19283">
        <ele>329</ele>
        <time>2022-11-17T10:03:27Z</time>
      </trkpt>
      <trkpt lat="44.71128" lon="5.19261">
        <ele>331</ele>
        <time>2022-11-17T10:03:27Z</time>
      </trkpt>
      <trkpt lat="44.71253" lon="5.19218">
        <ele>335</ele>
      </trkpt>
      <trkpt lat="44.71316" lon="5.19197">
        <ele>337</ele>
      </trkpt>
      <trkpt lat="44.71378" lon="5.19175">
        <ele>339</ele>
        <time>2022-11-17T10:03:27Z</time>
      </trkpt>
      <trkpt lat="44.71477" lon="5.19111">
        <ele>340</ele>
        <time>2022-11-17T10:03:27Z</time>
      </trkpt>
      <trkpt lat="44.71493" lon="5.1911">
        <ele>341</ele>
        <time>2022-11-17T10:03:27Z</time>
      </trkpt>
      <trkpt lat="44.71571" lon="5.19135">
        <ele>345</ele>
      </trkpt>
      <trkpt lat="44.71648" lon="5.1916">
        <ele>351</ele>
        <time>2022-11-17T10:03:27Z</time>
      </trkpt>
      <trkpt lat="44.7168" lon="5.19194">
        <ele>355</ele>
        <time>2022-11-17T10:03:27Z</time>
      </trkpt>
      <trkpt lat="44.71691" lon="5.19196">
        <ele>359</ele>
        <time>2022-11-17T10:03:27Z</time>
      </trkpt>
      <trkpt lat="44.71697" lon="5.1919">
        <ele>361</ele>
        <time>2022-11-17T10:03:27Z</time>
      </trkpt>
      <trkpt lat="44.71704" lon="5.19202">
        <ele>363</ele>
        <time>2022-11-17T10:03:27Z</time>
      </trkpt>
      <trkpt lat="44.717" lon="5.19213">
        <ele>365</ele>
        <time>2022-11-17T10:03:27Z</time>
      </trkpt>
      <trkpt lat="44.71686" lon="5.19215">
        <ele>366</ele>
        <time>2022-11-17T10:03:27Z</time>
      </trkpt>
      <trkpt lat="44.71622" lon="5.19198">
        <ele>366</ele>
        <time>2022-11-17T10:03:27Z</time>
      </trkpt>
      <trkpt lat="44.71576" lon="5.19226">
        <ele>367</ele>
        <time>2022-11-17T10:03:27Z</time>
      </trkpt>
      <trkpt lat="44.71567" lon="5.19244">
        <ele>376</ele>
        <time>2022-11-17T10:03:27Z</time>
      </trkpt>
      <trkpt lat="44.71558" lon="5.19254">
        <ele>377</ele>
        <time>2022-11-17T10:03:27Z</time>
      </trkpt>
      <trkpt lat="44.71551" lon="5.19256">
        <ele>377</ele>
        <time>2022-11-17T10:03:27Z</time>
      </trkpt>
      <trkpt lat="44.71492" lon="5.19247">
        <ele>377</ele>
        <time>2022-11-17T10:03:27Z</time>
      </trkpt>
      <trkpt lat="44.71476" lon="5.19256">
        <ele>377</ele>
        <time>2022-11-17T10:03:27Z</time>
      </trkpt>
      <trkpt lat="44.71429" lon="5.19306">
        <ele>381</ele>
        <time>2022-11-17T10:03:27Z</time>
      </trkpt>
      <trkpt lat="44.7142" lon="5.19312">
        <ele>384</ele>
        <time>2022-11-17T10:03:27Z</time>
      </trkpt>
      <trkpt lat="44.71391" lon="5.19312">
        <ele>387</ele>
        <time>2022-11-17T10:03:27Z</time>
      </trkpt>
      <trkpt lat="44.71185" lon="5.19413">
        <ele>396</ele>
        <time>2022-11-17T10:03:27Z</time>
      </trkpt>
      <trkpt lat="44.71178" lon="5.19421">
        <ele>399</ele>
        <time>2022-11-17T10:03:27Z</time>
      </trkpt>
      <trkpt lat="44.71173" lon="5.19438">
        <ele>401</ele>
        <time>2022-11-17T10:03:27Z</time>
      </trkpt>
      <trkpt lat="44.71174" lon="5.19449">
        <ele>403</ele>
        <time>2022-11-17T10:03:27Z</time>
      </trkpt>
      <trkpt lat="44.71221" lon="5.19581">
        <ele>405</ele>
        <time>2022-11-17T10:03:27Z</time>
      </trkpt>
      <trkpt lat="44.71234" lon="5.19587">
        <ele>407</ele>
        <time>2022-11-17T10:03:27Z</time>
      </trkpt>
      <trkpt lat="44.71288" lon="5.19586">
        <ele>411</ele>
        <time>2022-11-17T10:03:27Z</time>
      </trkpt>
      <trkpt lat="44.71308" lon="5.19593">
        <ele>414</ele>
        <time>2022-11-17T10:03:27Z</time>
      </trkpt>
      <trkpt lat="44.71333" lon="5.19613">
        <ele>417</ele>
        <time>2022-11-17T10:03:27Z</time>
      </trkpt>
      <trkpt lat="44.71352" lon="5.19662">
        <ele>418</ele>
        <time>2022-11-17T10:03:27Z</time>
      </trkpt>
      <trkpt lat="44.71376" lon="5.1969">
        <ele>419</ele>
        <time>2022-11-17T10:03:27Z</time>
      </trkpt>
      <trkpt lat="44.71401" lon="5.19701">
        <ele>419</ele>
        <time>2022-11-17T10:03:27Z</time>
      </trkpt>
      <trkpt lat="44.71458" lon="5.19711">
        <ele>420</ele>
        <time>2022-11-17T10:03:27Z</time>
      </trkpt>
      <trkpt lat="44.71466" lon="5.19707">
        <ele>420</ele>
        <time>2022-11-17T10:03:27Z</time>
      </trkpt>
      <trkpt lat="44.71529" lon="5.1966">
        <ele>421</ele>
        <time>2022-11-17T10:03:27Z</time>
      </trkpt>
      <trkpt lat="44.71582" lon="5.19644">
        <ele>423</ele>
        <time>2022-11-17T10:03:27Z</time>
      </trkpt>
      <trkpt lat="44.71627" lon="5.19649">
        <ele>424</ele>
        <time>2022-11-17T10:03:27Z</time>
      </trkpt>
      <trkpt lat="44.7174" lon="5.1959">
        <ele>423</ele>
        <time>2022-11-17T10:03:27Z</time>
      </trkpt>
      <trkpt lat="44.7191" lon="5.19538">
        <ele>415</ele>
        <time>2022-11-17T10:03:27Z</time>
      </trkpt>
      <trkpt lat="44.71943" lon="5.19565">
        <ele>410</ele>
        <time>2022-11-17T10:03:27Z</time>
      </trkpt>
      <trkpt lat="44.71956" lon="5.19568">
        <ele>406</ele>
        <time>2022-11-17T10:03:27Z</time>
      </trkpt>
      <trkpt lat="44.71966" lon="5.19567">
        <ele>404</ele>
        <time>2022-11-17T10:03:27Z</time>
      </trkpt>
      <trkpt lat="44.72012" lon="5.19527">
        <ele>401</ele>
        <time>2022-11-17T10:03:27Z</time>
      </trkpt>
      <trkpt lat="44.72142" lon="5.19511">
        <ele>395</ele>
        <time>2022-11-17T10:03:27Z</time>
      </trkpt>
      <trkpt lat="44.72149" lon="5.19526">
        <ele>392</ele>
        <time>2022-11-17T10:03:27Z</time>
      </trkpt>
      <trkpt lat="44.72157" lon="5.19528">
        <ele>390</ele>
        <time>2022-11-17T10:03:27Z</time>
      </trkpt>
      <trkpt lat="44.72332" lon="5.19445">
        <ele>393</ele>
        <time>2022-11-17T10:03:27Z</time>
      </trkpt>
      <trkpt lat="44.72388" lon="5.19401">
        <ele>395</ele>
        <time>2022-11-17T10:03:27Z</time>
      </trkpt>
      <trkpt lat="44.72384" lon="5.19296">
        <ele>393</ele>
        <time>2022-11-17T10:03:27Z</time>
      </trkpt>
      <trkpt lat="44.72387" lon="5.19283">
        <ele>392</ele>
        <time>2022-11-17T10:03:27Z</time>
      </trkpt>
      <trkpt lat="44.72387" lon="5.19271">
        <ele>393</ele>
        <time>2022-11-17T10:03:27Z</time>
      </trkpt>
      <trkpt lat="44.72383" lon="5.19257">
        <ele>393</ele>
        <time>2022-11-17T10:03:27Z</time>
      </trkpt>
      <trkpt lat="44.72384" lon="5.19239">
        <ele>393</ele>
        <time>2022-11-17T10:03:27Z</time>
      </trkpt>
      <trkpt lat="44.72389" lon="5.19228">
        <ele>394</ele>
        <time>2022-11-17T10:03:27Z</time>
      </trkpt>
      <trkpt lat="44.72388" lon="5.19205">
        <ele>394</ele>
        <time>2022-11-17T10:03:27Z</time>
      </trkpt>
      <trkpt lat="44.7239" lon="5.19193">
        <ele>395</ele>
        <time>2022-11-17T10:03:27Z</time>
      </trkpt>
      <trkpt lat="44.72389" lon="5.19164">
        <ele>397</ele>
        <time>2022-11-17T10:03:27Z</time>
      </trkpt>
      <trkpt lat="44.72394" lon="5.19142">
        <ele>398</ele>
        <time>2022-11-17T10:03:27Z</time>
      </trkpt>
      <trkpt lat="44.72402" lon="5.19135">
        <ele>400</ele>
        <time>2022-11-17T10:03:27Z</time>
      </trkpt>
      <trkpt lat="44.7241" lon="5.1912">
        <ele>402</ele>
        <time>2022-11-17T10:03:27Z</time>
      </trkpt>
      <trkpt lat="44.72416" lon="5.19084">
        <ele>405</ele>
        <time>2022-11-17T10:03:27Z</time>
      </trkpt>
      <trkpt lat="44.72376" lon="5.18984">
        <ele>408</ele>
        <time>2022-11-17T10:03:27Z</time>
      </trkpt>
      <trkpt lat="44.72376" lon="5.18972">
        <ele>418</ele>
        <time>2022-11-17T10:03:27Z</time>
      </trkpt>
      <trkpt lat="44.72384" lon="5.18937">
        <ele>419</ele>
        <time>2022-11-17T10:03:27Z</time>
      </trkpt>
      <trkpt lat="44.7238" lon="5.18918">
        <ele>419</ele>
        <time>2022-11-17T10:03:27Z</time>
      </trkpt>
      <trkpt lat="44.72367" lon="5.18915">
        <ele>420</ele>
        <time>2022-11-17T10:03:27Z</time>
      </trkpt>
      <trkpt lat="44.72338" lon="5.18942">
        <ele>421</ele>
        <time>2022-11-17T10:03:27Z</time>
      </trkpt>
      <trkpt lat="44.72302" lon="5.19086">
        <ele>425</ele>
        <time>2022-11-17T10:03:27Z</time>
      </trkpt>
      <trkpt lat="44.72295" lon="5.19087">
        <ele>427</ele>
        <time>2022-11-17T10:03:27Z</time>
      </trkpt>
      <trkpt lat="44.72293" lon="5.19075">
        <ele>429</ele>
        <time>2022-11-17T10:03:27Z</time>
      </trkpt>
      <trkpt lat="44.72308" lon="5.18972">
        <ele>431</ele>
        <time>2022-11-17T10:03:27Z</time>
      </trkpt>
      <trkpt lat="44.72307" lon="5.18935">
        <ele>433</ele>
        <time>2022-11-17T10:03:27Z</time>
      </trkpt>
      <trkpt lat="44.72312" lon="5.1891">
        <ele>434</ele>
        <time>2022-11-17T10:03:27Z</time>
      </trkpt>
      <trkpt lat="44.72318" lon="5.18896">
        <ele>435</ele>
        <time>2022-11-17T10:03:27Z</time>
      </trkpt>
      <trkpt lat="44.72425" lon="5.18752">
        <ele>436</ele>
        <time>2022-11-17T10:03:27Z</time>
      </trkpt>
      <trkpt lat="44.7243" lon="5.18738">
        <ele>437</ele>
        <time>2022-11-17T10:03:27Z</time>
      </trkpt>
      <trkpt lat="44.7243" lon="5.18714">
        <ele>438</ele>
        <time>2022-11-17T10:03:27Z</time>
      </trkpt>
      <trkpt lat="44.725" lon="5.18579">
        <ele>443</ele>
        <time>2022-11-17T10:03:27Z</time>
      </trkpt>
      <trkpt lat="44.72508" lon="5.18573">
        <ele>447</ele>
        <time>2022-11-17T10:03:27Z</time>
      </trkpt>
      <trkpt lat="44.72527" lon="5.18572">
        <ele>450</ele>
        <time>2022-11-17T10:03:27Z</time>
      </trkpt>
      <trkpt lat="44.72548" lon="5.1858">
        <ele>453</ele>
        <time>2022-11-17T10:03:27Z</time>
      </trkpt>
      <trkpt lat="44.72572" lon="5.18565">
        <ele>456</ele>
        <time>2022-11-17T10:03:27Z</time>
      </trkpt>
      <trkpt lat="44.72594" lon="5.18565">
        <ele>459</ele>
        <time>2022-11-17T10:03:27Z</time>
      </trkpt>
      <trkpt lat="44.72608" lon="5.18557">
        <ele>461</ele>
        <time>2022-11-17T10:03:27Z</time>
      </trkpt>
      <trkpt lat="44.72612" lon="5.18534">
        <ele>463</ele>
        <time>2022-11-17T10:03:27Z</time>
      </trkpt>
      <trkpt lat="44.72612" lon="5.18518">
        <ele>464</ele>
        <time>2022-11-17T10:03:27Z</time>
      </trkpt>
      <trkpt lat="44.72624" lon="5.18468">
        <ele>466</ele>
        <time>2022-11-17T10:03:27Z</time>
      </trkpt>
      <trkpt lat="44.72657" lon="5.18398">
        <ele>470</ele>
        <time>2022-11-17T10:03:27Z</time>
      </trkpt>
      <trkpt lat="44.7268" lon="5.18374">
        <ele>474</ele>
        <time>2022-11-17T10:03:27Z</time>
      </trkpt>
      <trkpt lat="44.72733" lon="5.18344">
        <ele>477</ele>
        <time>2022-11-17T10:03:27Z</time>
      </trkpt>
      <trkpt lat="44.72756" lon="5.18303">
        <ele>482</ele>
        <time>2022-11-17T10:03:27Z</time>
      </trkpt>
      <trkpt lat="44.72817" lon="5.18233">
        <ele>488</ele>
        <time>2022-11-17T10:03:27Z</time>
      </trkpt>
      <trkpt lat="44.72832" lon="5.18208">
        <ele>494</ele>
        <time>2022-11-17T10:03:27Z</time>
      </trkpt>
      <trkpt lat="44.72839" lon="5.18204">
        <ele>497</ele>
        <time>2022-11-17T10:03:27Z</time>
      </trkpt>
      <trkpt lat="44.72848" lon="5.18204">
        <ele>500</ele>
        <time>2022-11-17T10:03:27Z</time>
      </trkpt>
      <trkpt lat="44.72857" lon="5.18212">
        <ele>502</ele>
        <time>2022-11-17T10:03:27Z</time>
      </trkpt>
      <trkpt lat="44.72865" lon="5.18224">
        <ele>503</ele>
        <time>2022-11-17T10:03:27Z</time>
      </trkpt>
      <trkpt lat="44.72877" lon="5.18257">
        <ele>505</ele>
        <time>2022-11-17T10:03:27Z</time>
      </trkpt>
      <trkpt lat="44.72885" lon="5.18263">
        <ele>506</ele>
        <time>2022-11-17T10:03:27Z</time>
      </trkpt>
      <trkpt lat="44.72892" lon="5.18263">
        <ele>506</ele>
        <time>2022-11-17T10:03:27Z</time>
      </trkpt>
      <trkpt lat="44.72974" lon="5.18149">
        <ele>506</ele>
        <time>2022-11-17T10:03:27Z</time>
      </trkpt>
      <trkpt lat="44.72987" lon="5.18144">
        <ele>505</ele>
        <time>2022-11-17T10:03:27Z</time>
      </trkpt>
      <trkpt lat="44.72996" lon="5.18146">
        <ele>504</ele>
        <time>2022-11-17T10:03:27Z</time>
      </trkpt>
      <trkpt lat="44.73003" lon="5.18153">
        <ele>503</ele>
        <time>2022-11-17T10:03:27Z</time>
      </trkpt>
      <trkpt lat="44.73008" lon="5.18162">
        <ele>503</ele>
        <time>2022-11-17T10:03:27Z</time>
      </trkpt>
      <trkpt lat="44.73028" lon="5.18235">
        <ele>505</ele>
        <time>2022-11-17T10:03:27Z</time>
      </trkpt>
      <trkpt lat="44.73029" lon="5.18352">
        <ele>508</ele>
        <time>2022-11-17T10:03:27Z</time>
      </trkpt>
      <trkpt lat="44.73026" lon="5.1843">
        <ele>509</ele>
        <time>2022-11-17T10:03:27Z</time>
      </trkpt>
      <trkpt lat="44.73029" lon="5.18442">
        <ele>510</ele>
        <time>2022-11-17T10:03:27Z</time>
      </trkpt>
      <trkpt lat="44.73034" lon="5.18451">
        <ele>510</ele>
        <time>2022-11-17T10:03:27Z</time>
      </trkpt>
      <trkpt lat="44.73042" lon="5.18457">
        <ele>511</ele>
        <time>2022-11-17T10:03:27Z</time>
      </trkpt>
      <trkpt lat="44.7306" lon="5.18459">
        <ele>511</ele>
        <time>2022-11-17T10:03:27Z</time>
      </trkpt>
      <trkpt lat="44.73069" lon="5.18463">
        <ele>515</ele>
        <time>2022-11-17T10:03:27Z</time>
      </trkpt>
      <trkpt lat="44.73083" lon="5.18479">
        <ele>515</ele>
        <time>2022-11-17T10:03:27Z</time>
      </trkpt>
      <trkpt lat="44.73104" lon="5.18518">
        <ele>515</ele>
        <time>2022-11-17T10:03:27Z</time>
      </trkpt>
      <trkpt lat="44.73111" lon="5.18524">
        <ele>515</ele>
        <time>2022-11-17T10:03:27Z</time>
      </trkpt>
      <trkpt lat="44.7312" lon="5.18523">
        <ele>515</ele>
        <time>2022-11-17T10:03:27Z</time>
      </trkpt>
      <trkpt lat="44.73127" lon="5.18516">
        <ele>514</ele>
        <time>2022-11-17T10:03:27Z</time>
      </trkpt>
      <trkpt lat="44.73131" lon="5.18481">
        <ele>514</ele>
        <time>2022-11-17T10:03:27Z</time>
      </trkpt>
      <trkpt lat="44.73127" lon="5.18431">
        <ele>515</ele>
        <time>2022-11-17T10:03:27Z</time>
      </trkpt>
      <trkpt lat="44.7313" lon="5.18418">
        <ele>516</ele>
        <time>2022-11-17T10:03:27Z</time>
      </trkpt>
      <trkpt lat="44.73166" lon="5.18352">
        <ele>519</ele>
        <time>2022-11-17T10:03:27Z</time>
      </trkpt>
      <trkpt lat="44.73184" lon="5.1834">
        <ele>521</ele>
        <time>2022-11-17T10:03:27Z</time>
      </trkpt>
      <trkpt lat="44.73219" lon="5.18343">
        <ele>521</ele>
        <time>2022-11-17T10:03:27Z</time>
      </trkpt>
      <trkpt lat="44.73228" lon="5.1834">
        <ele>521</ele>
        <time>2022-11-17T10:03:27Z</time>
      </trkpt>
      <trkpt lat="44.73234" lon="5.18331">
        <ele>521</ele>
        <time>2022-11-17T10:03:27Z</time>
      </trkpt>
      <trkpt lat="44.73261" lon="5.18136">
        <ele>522</ele>
        <time>2022-11-17T10:03:27Z</time>
      </trkpt>
      <trkpt lat="44.7326" lon="5.18109">
        <ele>523</ele>
        <time>2022-11-17T10:03:27Z</time>
      </trkpt>
      <trkpt lat="44.73256" lon="5.18096">
        <ele>524</ele>
        <time>2022-11-17T10:03:27Z</time>
      </trkpt>
      <trkpt lat="44.73254" lon="5.18085">
        <ele>525</ele>
        <time>2022-11-17T10:03:27Z</time>
      </trkpt>
      <trkpt lat="44.73256" lon="5.18071">
        <ele>526</ele>
        <time>2022-11-17T10:03:27Z</time>
      </trkpt>
      <trkpt lat="44.73266" lon="5.1806">
        <ele>526</ele>
        <time>2022-11-17T10:03:27Z</time>
      </trkpt>
      <trkpt lat="44.73277" lon="5.18056">
        <ele>526</ele>
        <time>2022-11-17T10:03:27Z</time>
      </trkpt>
      <trkpt lat="44.73285" lon="5.18051">
        <ele>526</ele>
        <time>2022-11-17T10:03:27Z</time>
      </trkpt>
      <trkpt lat="44.73291" lon="5.1804">
        <ele>526</ele>
        <time>2022-11-17T10:03:27Z</time>
      </trkpt>
      <trkpt lat="44.73303" lon="5.17988">
        <ele>527</ele>
        <time>2022-11-17T10:03:27Z</time>
      </trkpt>
      <trkpt lat="44.73309" lon="5.17979">
        <ele>528</ele>
        <time>2022-11-17T10:03:27Z</time>
      </trkpt>
      <trkpt lat="44.73338" lon="5.17951">
        <ele>530</ele>
        <time>2022-11-17T10:03:27Z</time>
      </trkpt>
      <trkpt lat="44.73347" lon="5.1795">
        <ele>531</ele>
        <time>2022-11-17T10:03:27Z</time>
      </trkpt>
      <trkpt lat="44.73356" lon="5.17965">
        <ele>533</ele>
        <time>2022-11-17T10:03:27Z</time>
      </trkpt>
      <trkpt lat="44.73374" lon="5.18046">
        <ele>535</ele>
        <time>2022-11-17T10:03:27Z</time>
      </trkpt>
      <trkpt lat="44.73383" lon="5.18056">
        <ele>536</ele>
        <time>2022-11-17T10:03:27Z</time>
      </trkpt>
      <trkpt lat="44.73391" lon="5.18051">
        <ele>536</ele>
        <time>2022-11-17T10:03:27Z</time>
      </trkpt>
      <trkpt lat="44.73411" lon="5.18028">
        <ele>537</ele>
        <time>2022-11-17T10:03:27Z</time>
      </trkpt>
      <trkpt lat="44.73427" lon="5.18021">
        <ele>538</ele>
        <time>2022-11-17T10:03:27Z</time>
      </trkpt>
      <trkpt lat="44.7344" lon="5.1802">
        <ele>538</ele>
        <time>2022-11-17T10:03:27Z</time>
      </trkpt>
      <trkpt lat="44.73452" lon="5.18024">
        <ele>539</ele>
        <time>2022-11-17T10:03:27Z</time>
      </trkpt>
      <trkpt lat="44.73457" lon="5.18032">
        <ele>539</ele>
        <time>2022-11-17T10:03:27Z</time>
      </trkpt>
      <trkpt lat="44.73467" lon="5.18066">
        <ele>539</ele>
        <time>2022-11-17T10:03:27Z</time>
      </trkpt>
      <trkpt lat="44.7348" lon="5.18075">
        <ele>539</ele>
        <time>2022-11-17T10:03:27Z</time>
      </trkpt>
      <trkpt lat="44.73488" lon="5.18073">
        <ele>539</ele>
        <time>2022-11-17T10:03:27Z</time>
      </trkpt>
      <trkpt lat="44.73505" lon="5.18056">
        <ele>540</ele>
        <time>2022-11-17T10:03:27Z</time>
      </trkpt>
      <trkpt lat="44.73605" lon="5.1802">
        <ele>542</ele>
        <time>2022-11-17T10:03:27Z</time>
      </trkpt>
      <trkpt lat="44.7363" lon="5.18024">
        <ele>544</ele>
        <time>2022-11-17T10:03:27Z</time>
      </trkpt>
      <trkpt lat="44.73723" lon="5.1809">
        <ele>546</ele>
        <time>2022-11-17T10:03:27Z</time>
      </trkpt>
      <trkpt lat="44.73666" lon="5.1799">
        <ele>551</ele>
        <time>2022-11-17T10:03:27Z</time>
      </trkpt>
      <trkpt lat="44.73663" lon="5.1798">
        <ele>553</ele>
        <time>2022-11-17T10:03:27Z</time>
      </trkpt>
      <trkpt lat="44.73654" lon="5.17971">
        <ele>555</ele>
        <time>2022-11-17T10:03:27Z</time>
      </trkpt>
      <trkpt lat="44.73552" lon="5.17934">
        <ele>561</ele>
        <time>2022-11-17T10:03:27Z</time>
      </trkpt>
      <trkpt lat="44.73541" lon="5.17925">
        <ele>564</ele>
        <time>2022-11-17T10:03:27Z</time>
      </trkpt>
      <trkpt lat="44.73533" lon="5.17903">
        <ele>567</ele>
        <time>2022-11-17T10:03:27Z</time>
      </trkpt>
      <trkpt lat="44.73521" lon="5.17886">
        <ele>569</ele>
        <time>2022-11-17T10:03:27Z</time>
      </trkpt>
      <trkpt lat="44.73495" lon="5.17866">
        <ele>577</ele>
        <time>2022-11-17T10:03:27Z</time>
      </trkpt>
      <trkpt lat="44.73475" lon="5.17858">
        <ele>577</ele>
        <time>2022-11-17T10:03:27Z</time>
      </trkpt>
      <trkpt lat="44.73464" lon="5.17857">
        <ele>578</ele>
        <time>2022-11-17T10:03:27Z</time>
      </trkpt>
      <trkpt lat="44.734" lon="5.17796">
        <ele>580</ele>
        <time>2022-11-17T10:03:27Z</time>
      </trkpt>
      <trkpt lat="44.7336" lon="5.17793">
        <ele>582</ele>
        <time>2022-11-17T10:03:27Z</time>
      </trkpt>
      <trkpt lat="44.73303" lon="5.17807">
        <ele>585</ele>
        <time>2022-11-17T10:03:27Z</time>
      </trkpt>
      <trkpt lat="44.73263" lon="5.17835">
        <ele>586</ele>
        <time>2022-11-17T10:03:27Z</time>
      </trkpt>
      <trkpt lat="44.73245" lon="5.17837">
        <ele>588</ele>
        <time>2022-11-17T10:03:27Z</time>
      </trkpt>
      <trkpt lat="44.73237" lon="5.17831">
        <ele>589</ele>
        <time>2022-11-17T10:03:27Z</time>
      </trkpt>
      <trkpt lat="44.73172" lon="5.17722">
        <ele>590</ele>
        <time>2022-11-17T10:03:27Z</time>
      </trkpt>
      <trkpt lat="44.73141" lon="5.17695">
        <ele>591</ele>
        <time>2022-11-17T10:03:27Z</time>
      </trkpt>
      <trkpt lat="44.73097" lon="5.1769">
        <ele>592</ele>
        <time>2022-11-17T10:03:27Z</time>
      </trkpt>
      <trkpt lat="44.73006" lon="5.17753">
        <ele>591</ele>
        <time>2022-11-17T10:03:27Z</time>
      </trkpt>
      <trkpt lat="44.73004" lon="5.1767">
        <ele>592</ele>
        <time>2022-11-17T10:03:27Z</time>
      </trkpt>
      <trkpt lat="44.72992" lon="5.17636">
        <ele>591</ele>
        <time>2022-11-17T10:03:27Z</time>
      </trkpt>
      <trkpt lat="44.72941" lon="5.17537">
        <ele>588</ele>
        <time>2022-11-17T10:03:27Z</time>
      </trkpt>
      <trkpt lat="44.72894" lon="5.17505">
        <ele>582</ele>
        <time>2022-11-17T10:03:27Z</time>
      </trkpt>
      <trkpt lat="44.72808" lon="5.1746">
        <ele>578</ele>
        <time>2022-11-17T10:03:27Z</time>
      </trkpt>
      <trkpt lat="44.72795" lon="5.17444">
        <ele>576</ele>
        <time>2022-11-17T10:03:27Z</time>
      </trkpt>
      <trkpt lat="44.7277" lon="5.1738">
        <ele>576</ele>
      </trkpt>
      <trkpt lat="44.72745" lon="5.17316">
        <ele>578</ele>
        <time>2022-11-17T10:03:27Z</time>
      </trkpt>
      <trkpt lat="44.72742" lon="5.17299">
        <ele>581</ele>
        <time>2022-11-17T10:03:27Z</time>
      </trkpt>
      <trkpt lat="44.72744" lon="5.17288">
        <ele>583</ele>
        <time>2022-11-17T10:03:27Z</time>
      </trkpt>
      <trkpt lat="44.72753" lon="5.17261">
        <ele>584</ele>
        <time>2022-11-17T10:03:27Z</time>
      </trkpt>
      <trkpt lat="44.72764" lon="5.17182">
        <ele>587</ele>
      </trkpt>
      <trkpt lat="44.72774" lon="5.17103">
        <ele>589</ele>
        <time>2022-11-17T10:03:27Z</time>
      </trkpt>
      <trkpt lat="44.72763" lon="5.17046">
        <ele>592</ele>
        <time>2022-11-17T10:03:27Z</time>
      </trkpt>
      <trkpt lat="44.72763" lon="5.17027">
        <ele>595</ele>
        <time>2022-11-17T10:03:27Z</time>
      </trkpt>
      <trkpt lat="44.72766" lon="5.17014">
        <ele>597</ele>
        <time>2022-11-17T10:03:27Z</time>
      </trkpt>
      <trkpt lat="44.72776" lon="5.16992">
        <ele>599</ele>
        <time>2022-11-17T10:03:27Z</time>
      </trkpt>
      <trkpt lat="44.72824" lon="5.16928">
        <ele>601</ele>
        <time>2022-11-17T10:03:27Z</time>
      </trkpt>
      <trkpt lat="44.72877" lon="5.16814">
        <ele>606</ele>
      </trkpt>
      <trkpt lat="44.7293" lon="5.167">
        <ele>612</ele>
        <time>2022-11-17T10:03:27Z</time>
      </trkpt>
      <trkpt lat="44.72933" lon="5.16684">
        <ele>616</ele>
        <time>2022-11-17T10:03:27Z</time>
      </trkpt>
      <trkpt lat="44.72933" lon="5.16673">
        <ele>618</ele>
        <time>2022-11-17T10:03:27Z</time>
      </trkpt>
      <trkpt lat="44.72927" lon="5.16662">
        <ele>620</ele>
        <time>2022-11-17T10:03:27Z</time>
      </trkpt>
      <trkpt lat="44.72875" lon="5.1674">
        <ele>623</ele>
      </trkpt>
      <trkpt lat="44.72822" lon="5.16818">
        <ele>627</ele>
        <time>2022-11-17T10:03:27Z</time>
      </trkpt>
      <trkpt lat="44.72776" lon="5.16874">
        <ele>632</ele>
      </trkpt>
      <trkpt lat="44.7273" lon="5.16929">
        <ele>636</ele>
        <time>2022-11-17T10:03:27Z</time>
      </trkpt>
      <trkpt lat="44.72692" lon="5.16941">
        <ele>641</ele>
        <time>2022-11-17T10:03:27Z</time>
      </trkpt>
      <trkpt lat="44.72642" lon="5.16929">
        <ele>643</ele>
        <time>2022-11-17T10:03:27Z</time>
      </trkpt>
      <trkpt lat="44.72591" lon="5.16896">
        <ele>644</ele>
      </trkpt>
      <trkpt lat="44.72539" lon="5.16862">
        <ele>644</ele>
        <time>2022-11-17T10:03:27Z</time>
      </trkpt>
      <trkpt lat="44.72501" lon="5.16853">
        <ele>645</ele>
        <time>2022-11-17T10:03:27Z</time>
      </trkpt>
      <trkpt lat="44.72437" lon="5.16809">
        <ele>645</ele>
        <time>2022-11-17T10:03:27Z</time>
      </trkpt>
      <trkpt lat="44.7235" lon="5.1681">
        <ele>647</ele>
        <time>2022-11-17T10:03:27Z</time>
      </trkpt>
      <trkpt lat="44.72311" lon="5.1683">
        <ele>648</ele>
        <time>2022-11-17T10:03:27Z</time>
      </trkpt>
      <trkpt lat="44.72306" lon="5.16843">
        <ele>648</ele>
        <time>2022-11-17T10:03:27Z</time>
      </trkpt>
      <trkpt lat="44.7231" lon="5.16939">
        <ele>649</ele>
        <time>2022-11-17T10:03:27Z</time>
      </trkpt>
      <trkpt lat="44.72308" lon="5.16955">
        <ele>649</ele>
        <time>2022-11-17T10:03:27Z</time>
      </trkpt>
      <trkpt lat="44.72284" lon="5.17023">
        <ele>646</ele>
        <time>2022-11-17T10:03:27Z</time>
      </trkpt>
      <trkpt lat="44.72257" lon="5.1714">
        <ele>637</ele>
        <time>2022-11-17T10:03:27Z</time>
      </trkpt>
      <trkpt lat="44.72257" lon="5.17156">
        <ele>632</ele>
        <time>2022-11-17T10:03:27Z</time>
      </trkpt>
      <trkpt lat="44.72247" lon="5.17237">
        <ele>625</ele>
        <time>2022-11-17T10:03:27Z</time>
      </trkpt>
      <trkpt lat="44.72241" lon="5.17247">
        <ele>621</ele>
        <time>2022-11-17T10:03:27Z</time>
      </trkpt>
      <trkpt lat="44.72233" lon="5.17242">
        <ele>605</ele>
        <time>2022-11-17T10:03:27Z</time>
      </trkpt>
      <trkpt lat="44.72225" lon="5.17241">
        <ele>605</ele>
        <time>2022-11-17T10:03:27Z</time>
      </trkpt>
      <trkpt lat="44.72202" lon="5.17267">
        <ele>606</ele>
        <time>2022-11-17T10:03:27Z</time>
      </trkpt>
      <trkpt lat="44.7219" lon="5.17268">
        <ele>607</ele>
        <time>2022-11-17T10:03:27Z</time>
      </trkpt>
      <trkpt lat="44.72149" lon="5.173">
        <ele>610</ele>
        <time>2022-11-17T10:03:27Z</time>
      </trkpt>
      <trkpt lat="44.72141" lon="5.17311">
        <ele>612</ele>
        <time>2022-11-17T10:03:27Z</time>
      </trkpt>
      <trkpt lat="44.72133" lon="5.17316">
        <ele>613</ele>
        <time>2022-11-17T10:03:27Z</time>
      </trkpt>
      <trkpt lat="44.72097" lon="5.17316">
        <ele>613</ele>
        <time>2022-11-17T10:03:27Z</time>
      </trkpt>
      <trkpt lat="44.71866" lon="5.17422">
        <ele>595</ele>
        <time>2022-11-17T10:03:27Z</time>
      </trkpt>
      <trkpt lat="44.71852" lon="5.17436">
        <ele>585</ele>
        <time>2022-11-17T10:03:27Z</time>
      </trkpt>
      <trkpt lat="44.71864" lon="5.17444">
        <ele>579</ele>
        <time>2022-11-17T10:03:27Z</time>
      </trkpt>
      <trkpt lat="44.71883" lon="5.17446">
        <ele>574</ele>
        <time>2022-11-17T10:03:27Z</time>
      </trkpt>
      <trkpt lat="44.71832" lon="5.1747">
        <ele>568</ele>
        <time>2022-11-17T10:03:27Z</time>
      </trkpt>
      <trkpt lat="44.71713" lon="5.17479">
        <ele>562</ele>
        <time>2022-11-17T10:03:27Z</time>
      </trkpt>
      <trkpt lat="44.7169" lon="5.17502">
        <ele>556</ele>
        <time>2022-11-17T10:03:27Z</time>
      </trkpt>
      <trkpt lat="44.71669" lon="5.17506">
        <ele>553</ele>
        <time>2022-11-17T10:03:27Z</time>
      </trkpt>
      <trkpt lat="44.71633" lon="5.17498">
        <ele>552</ele>
        <time>2022-11-17T10:03:27Z</time>
      </trkpt>
      <trkpt lat="44.71615" lon="5.17499">
        <ele>550</ele>
        <time>2022-11-17T10:03:27Z</time>
      </trkpt>
      <trkpt lat="44.71532" lon="5.17558">
        <ele>543</ele>
        <time>2022-11-17T10:03:27Z</time>
      </trkpt>
      <trkpt lat="44.715" lon="5.17561">
        <ele>539</ele>
        <time>2022-11-17T10:03:27Z</time>
      </trkpt>
      <trkpt lat="44.71459" lon="5.17621">
        <ele>530</ele>
        <time>2022-11-17T10:03:27Z</time>
      </trkpt>
      <trkpt lat="44.71485" lon="5.1766">
        <ele>522</ele>
        <time>2022-11-17T10:03:27Z</time>
      </trkpt>
      <trkpt lat="44.71487" lon="5.17686">
        <ele>515</ele>
        <time>2022-11-17T10:03:27Z</time>
      </trkpt>
      <trkpt lat="44.71477" lon="5.1769">
        <ele>510</ele>
        <time>2022-11-17T10:03:27Z</time>
      </trkpt>
      <trkpt lat="44.71461" lon="5.17683">
        <ele>507</ele>
        <time>2022-11-17T10:03:27Z</time>
      </trkpt>
      <trkpt lat="44.71416" lon="5.17642">
        <ele>505</ele>
        <time>2022-11-17T10:03:27Z</time>
      </trkpt>
      <trkpt lat="44.71395" lon="5.17645">
        <ele>503</ele>
        <time>2022-11-17T10:03:27Z</time>
      </trkpt>
      <trkpt lat="44.71398" lon="5.17664">
        <ele>500</ele>
        <time>2022-11-17T10:03:27Z</time>
      </trkpt>
      <trkpt lat="44.71471" lon="5.17757">
        <ele>495</ele>
        <time>2022-11-17T10:03:27Z</time>
      </trkpt>
      <trkpt lat="44.71477" lon="5.17776">
        <ele>491</ele>
        <time>2022-11-17T10:03:27Z</time>
      </trkpt>
      <trkpt lat="44.71476" lon="5.17796">
        <ele>487</ele>
        <time>2022-11-17T10:03:27Z</time>
      </trkpt>
      <trkpt lat="44.71472" lon="5.17816">
        <ele>484</ele>
        <time>2022-11-17T10:03:27Z</time>
      </trkpt>
      <trkpt lat="44.7146" lon="5.17827">
        <ele>480</ele>
        <time>2022-11-17T10:03:27Z</time>
      </trkpt>
      <trkpt lat="44.71444" lon="5.17831">
        <ele>476</ele>
        <time>2022-11-17T10:03:27Z</time>
      </trkpt>
      <trkpt lat="44.71428" lon="5.17844">
        <ele>472</ele>
        <time>2022-11-17T10:03:27Z</time>
      </trkpt>
      <trkpt lat="44.71423" lon="5.17877">
        <ele>467</ele>
        <time>2022-11-17T10:03:27Z</time>
      </trkpt>
      <trkpt lat="44.71423" lon="5.17918">
        <ele>462</ele>
        <time>2022-11-17T10:03:27Z</time>
      </trkpt>
      <trkpt lat="44.71414" lon="5.17941">
        <ele>458</ele>
        <time>2022-11-17T10:03:27Z</time>
      </trkpt>
      <trkpt lat="44.71405" lon="5.1805">
        <ele>452</ele>
        <time>2022-11-17T10:03:27Z</time>
      </trkpt>
      <trkpt lat="44.71424" lon="5.1809">
        <ele>445</ele>
        <time>2022-11-17T10:03:27Z</time>
      </trkpt>
      <trkpt lat="44.7145" lon="5.18251">
        <ele>433</ele>
        <time>2022-11-17T10:03:27Z</time>
      </trkpt>
      <trkpt lat="44.71501" lon="5.18311">
        <ele>421</ele>
        <time>2022-11-17T10:03:27Z</time>
      </trkpt>
      <trkpt lat="44.71506" lon="5.18368">
        <ele>413</ele>
        <time>2022-11-17T10:03:27Z</time>
      </trkpt>
      <trkpt lat="44.7152" lon="5.18404">
        <ele>406</ele>
        <time>2022-11-17T10:03:27Z</time>
      </trkpt>
      <trkpt lat="44.71489" lon="5.18515">
        <ele>403</ele>
        <time>2022-11-17T10:03:27Z</time>
      </trkpt>
      <trkpt lat="44.71487" lon="5.18539">
        <ele>401</ele>
        <time>2022-11-17T10:03:27Z</time>
      </trkpt>
      <trkpt lat="44.71488" lon="5.18572">
        <ele>399</ele>
        <time>2022-11-17T10:03:27Z</time>
      </trkpt>
      <trkpt lat="44.71415" lon="5.18543">
        <ele>400</ele>
        <time>2022-11-17T10:03:27Z</time>
      </trkpt>
      <trkpt lat="44.71349" lon="5.18549">
        <ele>399</ele>
        <time>2022-11-17T10:03:27Z</time>
      </trkpt>
      <trkpt lat="44.71332" lon="5.18559">
        <ele>399</ele>
        <time>2022-11-17T10:03:27Z</time>
      </trkpt>
      <trkpt lat="44.71303" lon="5.1856">
        <ele>398</ele>
        <time>2022-11-17T10:03:27Z</time>
      </trkpt>
      <trkpt lat="44.71288" lon="5.18557">
        <ele>399</ele>
        <time>2022-11-17T10:03:27Z</time>
      </trkpt>
      <trkpt lat="44.71277" lon="5.18561">
        <ele>399</ele>
        <time>2022-11-17T10:03:27Z</time>
      </trkpt>
      <trkpt lat="44.71219" lon="5.18664">
        <ele>400</ele>
        <time>2022-11-17T10:03:27Z</time>
      </trkpt>
      <trkpt lat="44.71214" lon="5.18676">
        <ele>400</ele>
        <time>2022-11-17T10:03:27Z</time>
      </trkpt>
      <trkpt lat="44.71182" lon="5.18725">
        <ele>400</ele>
        <time>2022-11-17T10:03:27Z</time>
      </trkpt>
      <trkpt lat="44.71169" lon="5.18717">
        <ele>400</ele>
        <time>2022-11-17T10:03:27Z</time>
      </trkpt>
      <trkpt lat="44.71157" lon="5.18701">
        <ele>401</ele>
        <time>2022-11-17T10:03:27Z</time>
      </trkpt>
      <trkpt lat="44.71154" lon="5.18687">
        <ele>401</ele>
        <time>2022-11-17T10:03:27Z</time>
      </trkpt>
      <trkpt lat="44.71131" lon="5.18653">
        <ele>402</ele>
        <time>2022-11-17T10:03:27Z</time>
      </trkpt>
      <trkpt lat="44.71095" lon="5.18628">
        <ele>400</ele>
        <time>2022-11-17T10:03:27Z</time>
      </trkpt>
      <trkpt lat="44.71089" lon="5.18613">
        <ele>400</ele>
        <time>2022-11-17T10:03:27Z</time>
      </trkpt>
      <trkpt lat="44.71081" lon="5.18607">
        <ele>400</ele>
        <time>2022-11-17T10:03:27Z</time>
      </trkpt>
      <trkpt lat="44.7107" lon="5.1861">
        <ele>400</ele>
        <time>2022-11-17T10:03:27Z</time>
      </trkpt>
      <trkpt lat="44.70966" lon="5.18717">
        <ele>400</ele>
      </trkpt>
      <trkpt lat="44.70862" lon="5.18823">
        <ele>399</ele>
        <time>2022-11-17T10:03:27Z</time>
      </trkpt>
      <trkpt lat="44.70791" lon="5.1879">
        <ele>397</ele>
        <time>2022-11-17T10:03:27Z</time>
      </trkpt>
      <trkpt lat="44.70688" lon="5.18786">
        <ele>390</ele>
        <time>2022-11-17T10:03:27Z</time>
      </trkpt>
      <trkpt lat="44.70611" lon="5.18836">
        <ele>384</ele>
      </trkpt>
      <trkpt lat="44.70534" lon="5.18885">
        <ele>380</ele>
        <time>2022-11-17T10:03:27Z</time>
      </trkpt>
      <trkpt lat="44.70457" lon="5.18977">
        <ele>373</ele>
        <time>2022-11-17T10:03:27Z</time>
      </trkpt>
      <trkpt lat="44.7043" lon="5.18998">
        <ele>369</ele>
        <time>2022-11-17T10:03:27Z</time>
      </trkpt>
      <trkpt lat="44.70335" lon="5.19089">
        <ele>360</ele>
        <time>2022-11-17T10:03:27Z</time>
      </trkpt>
      <trkpt lat="44.70218" lon="5.1917">
        <ele>351</ele>
      </trkpt>
      <trkpt lat="44.70159" lon="5.1921">
        <ele>343</ele>
      </trkpt>
      <trkpt lat="44.701" lon="5.1925">
        <ele>337</ele>
        <time>2022-11-17T10:03:27Z</time>
      </trkpt>
      <trkpt lat="44.7002" lon="5.19278">
        <ele>330</ele>
        <time>2022-11-17T10:03:27Z</time>
      </trkpt>
      <trkpt lat="44.69953" lon="5.19267">
        <ele>324</ele>
        <time>2022-11-17T10:03:27Z</time>
      </trkpt>
      <trkpt lat="44.69935" lon="5.19273">
        <ele>319</ele>
        <time>2022-11-17T10:03:27Z</time>
      </trkpt>
      <trkpt lat="44.6991" lon="5.19271">
        <ele>315</ele>
        <time>2022-11-17T10:03:27Z</time>
      </trkpt>
      <trkpt lat="44.69916" lon="5.19281">
        <ele>312</ele>
        <time>2022-11-17T10:03:27Z</time>
      </trkpt>
      <trkpt lat="44.69929" lon="5.19292">
        <ele>309</ele>
        <time>2022-11-17T10:03:27Z</time>
      </trkpt>
      <trkpt lat="44.69936" lon="5.19301">
        <ele>307</ele>
        <time>2022-11-17T10:03:27Z</time>
      </trkpt>
      <trkpt lat="44.69932" lon="5.19315">
        <ele>306</ele>
        <time>2022-11-17T10:03:27Z</time>
      </trkpt>
      <trkpt lat="44.69917" lon="5.19324">
        <ele>304</ele>
        <time>2022-11-17T10:03:27Z</time>
      </trkpt>
      <trkpt lat="44.69862" lon="5.19335">
        <ele>299</ele>
        <time>2022-11-17T10:03:27Z</time>
      </trkpt>
      <trkpt lat="44.69787" lon="5.19401">
        <ele>290</ele>
        <time>2022-11-17T10:03:27Z</time>
      </trkpt>
      <trkpt lat="44.69678" lon="5.19444">
        <ele>281</ele>
        <time>2022-11-17T10:03:27Z</time>
      </trkpt>
      <trkpt lat="44.69674" lon="5.19488">
        <ele>276</ele>
        <time>2022-11-17T10:03:27Z</time>
      </trkpt>
      <trkpt lat="44.69646" lon="5.19614">
        <ele>272</ele>
        <time>2022-11-17T10:03:27Z</time>
      </trkpt>
      <trkpt lat="44.69647" lon="5.19648">
        <ele>270</ele>
        <time>2022-11-17T10:03:27Z</time>
      </trkpt>
      <trkpt lat="44.69657" lon="5.19689">
        <ele>269</ele>
        <time>2022-11-17T10:03:27Z</time>
      </trkpt>
      <trkpt lat="44.69649" lon="5.19699">
        <ele>268</ele>
        <time>2022-11-17T10:03:27Z</time>
      </trkpt>
      <trkpt lat="44.69649" lon="5.1971">
        <ele>267</ele>
        <time>2022-11-17T10:03:27Z</time>
      </trkpt>
      <trkpt lat="44.69654" lon="5.19726">
        <ele>267</ele>
        <time>2022-11-17T10:03:27Z</time>
      </trkpt>
      <trkpt lat="44.69663" lon="5.19726">
        <ele>266</ele>
        <time>2022-11-17T10:03:27Z</time>
      </trkpt>
      <trkpt lat="44.69676" lon="5.19864">
        <ele>267</ele>
        <time>2022-11-17T10:03:27Z</time>
      </trkpt>
      <trkpt lat="44.69675" lon="5.19878">
        <ele>267</ele>
        <time>2022-11-17T10:03:27Z</time>
      </trkpt>
      <trkpt lat="44.69684" lon="5.19882">
        <ele>268</ele>
        <time>2022-11-17T10:03:27Z</time>
      </trkpt>
      <trkpt lat="44.69692" lon="5.19891">
        <ele>268</ele>
        <time>2022-11-17T10:03:27Z</time>
      </trkpt>
      <trkpt lat="44.69688" lon="5.19968">
        <ele>268</ele>
        <time>2022-11-17T10:03:27Z</time>
      </trkpt>
      <trkpt lat="44.69704" lon="5.19979">
        <ele>268</ele>
        <time>2022-11-17T10:03:27Z</time>
        <extensions>
          <visugpx:TrkExtension xmlns:visugpx="https://www.visugpx.com/editgpx/">
            <visugpx:node>1</visugpx:node>
            </visugpx:TrkExtension>
        </extensions>
      </trkpt>
    </trkseg>
  </trk>
  <trk>
    <name><![CDATA[VTT  N°3 bleu - Col de Sauzet -15 km - déniv 500 m]]></name>
    <extensions>
      <line xmlns="http://www.topografix.com/GPX/gpx_style/0/2">
        <color>0922fb</color>
        <width>4</width>
      </line>
    </extensions>
    <trkseg>
      <trkpt lat="44.69837" lon="5.19908">
        <ele>290</ele>
        <time>2022-11-17T10:03:28Z</time>
      </trkpt>
      <trkpt lat="44.69898" lon="5.19822">
        <ele>291</ele>
        <time>2022-11-17T10:03:28Z</time>
      </trkpt>
      <trkpt lat="44.6992" lon="5.19805">
        <ele>291</ele>
        <time>2022-11-17T10:03:28Z</time>
      </trkpt>
      <trkpt lat="44.69969" lon="5.19786">
        <ele>289</ele>
        <time>2022-11-17T10:03:28Z</time>
      </trkpt>
      <trkpt lat="44.70053" lon="5.19787">
        <ele>292</ele>
        <time>2022-11-17T10:03:28Z</time>
      </trkpt>
      <trkpt lat="44.70062" lon="5.19783">
        <ele>292</ele>
        <time>2022-11-17T10:03:28Z</time>
      </trkpt>
      <trkpt lat="44.70139" lon="5.19779">
        <ele>294</ele>
        <time>2022-11-17T10:03:28Z</time>
      </trkpt>
      <trkpt lat="44.70204" lon="5.19801">
        <ele>295</ele>
        <time>2022-11-17T10:03:28Z</time>
      </trkpt>
      <trkpt lat="44.70257" lon="5.19788">
        <ele>296</ele>
        <time>2022-11-17T10:03:28Z</time>
      </trkpt>
      <trkpt lat="44.70436" lon="5.19819">
        <ele>307</ele>
        <time>2022-11-17T10:03:28Z</time>
      </trkpt>
      <trkpt lat="44.70452" lon="5.19813">
        <ele>308</ele>
        <time>2022-11-17T10:03:28Z</time>
      </trkpt>
      <trkpt lat="44.70466" lon="5.19802">
        <ele>310</ele>
        <time>2022-11-17T10:03:28Z</time>
      </trkpt>
      <trkpt lat="44.70501" lon="5.19766">
        <ele>313</ele>
        <time>2022-11-17T10:03:28Z</time>
      </trkpt>
      <trkpt lat="44.70547" lon="5.19705">
        <ele>321</ele>
        <time>2022-11-17T10:03:28Z</time>
      </trkpt>
      <trkpt lat="44.70562" lon="5.19675">
        <ele>324</ele>
        <time>2022-11-17T10:03:28Z</time>
      </trkpt>
      <trkpt lat="44.7057" lon="5.19668">
        <ele>325</ele>
        <time>2022-11-17T10:03:28Z</time>
      </trkpt>
      <trkpt lat="44.70579" lon="5.19663">
        <ele>327</ele>
        <time>2022-11-17T10:03:28Z</time>
      </trkpt>
      <trkpt lat="44.70633" lon="5.19661">
        <ele>334</ele>
        <time>2022-11-17T10:03:28Z</time>
      </trkpt>
      <trkpt lat="44.70641" lon="5.19666">
        <ele>335</ele>
        <time>2022-11-17T10:03:28Z</time>
      </trkpt>
      <trkpt lat="44.70692" lon="5.19678">
        <ele>339</ele>
        <time>2022-11-17T10:03:28Z</time>
      </trkpt>
      <trkpt lat="44.70768" lon="5.19712">
        <ele>336</ele>
        <time>2022-11-17T10:03:28Z</time>
      </trkpt>
      <trkpt lat="44.70795" lon="5.19715">
        <ele>334</ele>
        <time>2022-11-17T10:03:28Z</time>
      </trkpt>
      <trkpt lat="44.70845" lon="5.19703">
        <ele>330</ele>
        <time>2022-11-17T10:03:28Z</time>
      </trkpt>
      <trkpt lat="44.70858" lon="5.19694">
        <ele>328</ele>
        <time>2022-11-17T10:03:28Z</time>
      </trkpt>
      <trkpt lat="44.70898" lon="5.19684">
        <ele>324</ele>
        <time>2022-11-17T10:03:28Z</time>
      </trkpt>
      <trkpt lat="44.70917" lon="5.19664">
        <ele>322</ele>
        <time>2022-11-17T10:03:28Z</time>
      </trkpt>
      <trkpt lat="44.70923" lon="5.19651">
        <ele>321</ele>
        <time>2022-11-17T10:03:28Z</time>
      </trkpt>
      <trkpt lat="44.70929" lon="5.19643">
        <ele>321</ele>
        <time>2022-11-17T10:03:28Z</time>
      </trkpt>
      <trkpt lat="44.70955" lon="5.19632">
        <ele>319</ele>
        <time>2022-11-17T10:03:28Z</time>
      </trkpt>
      <trkpt lat="44.70959" lon="5.19622">
        <ele>318</ele>
        <time>2022-11-17T10:03:28Z</time>
      </trkpt>
      <trkpt lat="44.70959" lon="5.19609">
        <ele>318</ele>
        <time>2022-11-17T10:03:28Z</time>
      </trkpt>
      <trkpt lat="44.70955" lon="5.196">
        <ele>319</ele>
        <time>2022-11-17T10:03:28Z</time>
      </trkpt>
      <trkpt lat="44.70943" lon="5.19584">
        <ele>320</ele>
        <time>2022-11-17T10:03:28Z</time>
      </trkpt>
      <trkpt lat="44.7094" lon="5.19572">
        <ele>321</ele>
        <time>2022-11-17T10:03:28Z</time>
      </trkpt>
      <trkpt lat="44.70944" lon="5.19558">
        <ele>322</ele>
        <time>2022-11-17T10:03:28Z</time>
      </trkpt>
      <trkpt lat="44.70972" lon="5.19497">
        <ele>325</ele>
        <time>2022-11-17T10:03:28Z</time>
      </trkpt>
      <trkpt lat="44.70974" lon="5.19487">
        <ele>325</ele>
        <time>2022-11-17T10:03:28Z</time>
      </trkpt>
      <trkpt lat="44.70981" lon="5.19481">
        <ele>325</ele>
        <time>2022-11-17T10:03:28Z</time>
      </trkpt>
      <trkpt lat="44.70992" lon="5.19458">
        <ele>326</ele>
        <time>2022-11-17T10:03:28Z</time>
      </trkpt>
      <trkpt lat="44.70999" lon="5.19448">
        <ele>326</ele>
        <time>2022-11-17T10:03:28Z</time>
      </trkpt>
      <trkpt lat="44.71008" lon="5.19421">
        <ele>326</ele>
        <time>2022-11-17T10:03:28Z</time>
      </trkpt>
      <trkpt lat="44.71012" lon="5.194">
        <ele>326</ele>
        <time>2022-11-17T10:03:28Z</time>
      </trkpt>
      <trkpt lat="44.71035" lon="5.19343">
        <ele>327</ele>
        <time>2022-11-17T10:03:28Z</time>
      </trkpt>
      <trkpt lat="44.71051" lon="5.19277">
        <ele>328</ele>
        <time>2022-11-17T10:03:28Z</time>
      </trkpt>
      <trkpt lat="44.71092" lon="5.19227">
        <ele>329</ele>
        <time>2022-11-17T10:03:28Z</time>
      </trkpt>
      <trkpt lat="44.71119" lon="5.19213">
        <ele>329</ele>
        <time>2022-11-17T10:03:28Z</time>
      </trkpt>
      <trkpt lat="44.71128" lon="5.19212">
        <ele>330</ele>
        <time>2022-11-17T10:03:28Z</time>
      </trkpt>
      <trkpt lat="44.71135" lon="5.19216">
        <ele>330</ele>
        <time>2022-11-17T10:03:28Z</time>
      </trkpt>
      <trkpt lat="44.71169" lon="5.19218">
        <ele>333</ele>
        <time>2022-11-17T10:03:28Z</time>
      </trkpt>
      <trkpt lat="44.71178" lon="5.19216">
        <ele>333</ele>
        <time>2022-11-17T10:03:28Z</time>
      </trkpt>
      <trkpt lat="44.71265" lon="5.19168">
        <ele>334</ele>
        <time>2022-11-17T10:03:28Z</time>
      </trkpt>
      <trkpt lat="44.71273" lon="5.19168">
        <ele>334</ele>
        <time>2022-11-17T10:03:28Z</time>
      </trkpt>
      <trkpt lat="44.71282" lon="5.19162">
        <ele>334</ele>
        <time>2022-11-17T10:03:28Z</time>
      </trkpt>
      <trkpt lat="44.71306" lon="5.1915">
        <ele>335</ele>
        <time>2022-11-17T10:03:28Z</time>
      </trkpt>
      <trkpt lat="44.71323" lon="5.19163">
        <ele>336</ele>
        <time>2022-11-17T10:03:28Z</time>
      </trkpt>
      <trkpt lat="44.71341" lon="5.19169">
        <ele>337</ele>
        <time>2022-11-17T10:03:28Z</time>
      </trkpt>
      <trkpt lat="44.71347" lon="5.19164">
        <ele>338</ele>
        <time>2022-11-17T10:03:28Z</time>
      </trkpt>
      <trkpt lat="44.71365" lon="5.19157">
        <ele>340</ele>
        <time>2022-11-17T10:03:28Z</time>
      </trkpt>
      <trkpt lat="44.71368" lon="5.19147">
        <ele>340</ele>
        <time>2022-11-17T10:03:28Z</time>
      </trkpt>
      <trkpt lat="44.71368" lon="5.19136">
        <ele>340</ele>
        <time>2022-11-17T10:03:28Z</time>
      </trkpt>
      <trkpt lat="44.71426" lon="5.1909">
        <ele>339</ele>
        <time>2022-11-17T10:03:28Z</time>
      </trkpt>
      <trkpt lat="44.71459" lon="5.19083">
        <ele>341</ele>
        <time>2022-11-17T10:03:28Z</time>
      </trkpt>
      <trkpt lat="44.71482" lon="5.19082">
        <ele>343</ele>
        <time>2022-11-17T10:03:28Z</time>
      </trkpt>
      <trkpt lat="44.71496" lon="5.19095">
        <ele>345</ele>
        <time>2022-11-17T10:03:28Z</time>
      </trkpt>
      <trkpt lat="44.7148" lon="5.19096">
        <ele>348</ele>
        <time>2022-11-17T10:03:28Z</time>
      </trkpt>
      <trkpt lat="44.71466" lon="5.19108">
        <ele>350</ele>
        <time>2022-11-17T10:03:28Z</time>
      </trkpt>
      <trkpt lat="44.71491" lon="5.19104">
        <ele>352</ele>
        <time>2022-11-17T10:03:28Z</time>
      </trkpt>
      <trkpt lat="44.71507" lon="5.19112">
        <ele>353</ele>
        <time>2022-11-17T10:03:28Z</time>
      </trkpt>
      <trkpt lat="44.71526" lon="5.19129">
        <ele>355</ele>
        <time>2022-11-17T10:03:28Z</time>
      </trkpt>
      <trkpt lat="44.71543" lon="5.19134">
        <ele>357</ele>
        <time>2022-11-17T10:03:28Z</time>
      </trkpt>
      <trkpt lat="44.71622" lon="5.1915">
        <ele>365</ele>
        <time>2022-11-17T10:03:28Z</time>
      </trkpt>
      <trkpt lat="44.71651" lon="5.19166">
        <ele>368</ele>
        <time>2022-11-17T10:03:28Z</time>
      </trkpt>
      <trkpt lat="44.71676" lon="5.19194">
        <ele>370</ele>
        <time>2022-11-17T10:03:28Z</time>
      </trkpt>
      <trkpt lat="44.71692" lon="5.19193">
        <ele>372</ele>
        <time>2022-11-17T10:03:28Z</time>
      </trkpt>
      <trkpt lat="44.71698" lon="5.19201">
        <ele>373</ele>
        <time>2022-11-17T10:03:28Z</time>
      </trkpt>
      <trkpt lat="44.71696" lon="5.19212">
        <ele>373</ele>
        <time>2022-11-17T10:03:28Z</time>
      </trkpt>
      <trkpt lat="44.71677" lon="5.19212">
        <ele>375</ele>
        <time>2022-11-17T10:03:28Z</time>
      </trkpt>
      <trkpt lat="44.71624" lon="5.19196">
        <ele>378</ele>
        <time>2022-11-17T10:03:28Z</time>
      </trkpt>
      <trkpt lat="44.71615" lon="5.19199">
        <ele>379</ele>
        <time>2022-11-17T10:03:28Z</time>
      </trkpt>
      <trkpt lat="44.71573" lon="5.19227">
        <ele>383</ele>
        <time>2022-11-17T10:03:28Z</time>
      </trkpt>
      <trkpt lat="44.71562" lon="5.19245">
        <ele>384</ele>
        <time>2022-11-17T10:03:28Z</time>
      </trkpt>
      <trkpt lat="44.71553" lon="5.19251">
        <ele>385</ele>
        <time>2022-11-17T10:03:28Z</time>
      </trkpt>
      <trkpt lat="44.71536" lon="5.19252">
        <ele>386</ele>
        <time>2022-11-17T10:03:28Z</time>
      </trkpt>
      <trkpt lat="44.71492" lon="5.19245">
        <ele>390</ele>
        <time>2022-11-17T10:03:28Z</time>
      </trkpt>
      <trkpt lat="44.71483" lon="5.19248">
        <ele>391</ele>
        <time>2022-11-17T10:03:28Z</time>
      </trkpt>
      <trkpt lat="44.7146" lon="5.19266">
        <ele>392</ele>
        <time>2022-11-17T10:03:28Z</time>
      </trkpt>
      <trkpt lat="44.71426" lon="5.19304">
        <ele>396</ele>
        <time>2022-11-17T10:03:28Z</time>
      </trkpt>
      <trkpt lat="44.71418" lon="5.19309">
        <ele>397</ele>
        <time>2022-11-17T10:03:28Z</time>
      </trkpt>
      <trkpt lat="44.71383" lon="5.19311">
        <ele>400</ele>
        <time>2022-11-17T10:03:28Z</time>
      </trkpt>
      <trkpt lat="44.71218" lon="5.19391">
        <ele>411</ele>
        <time>2022-11-17T10:03:28Z</time>
      </trkpt>
      <trkpt lat="44.71184" lon="5.19417">
        <ele>413</ele>
        <time>2022-11-17T10:03:28Z</time>
      </trkpt>
      <trkpt lat="44.71177" lon="5.19426">
        <ele>413</ele>
        <time>2022-11-17T10:03:28Z</time>
      </trkpt>
      <trkpt lat="44.71175" lon="5.19438">
        <ele>413</ele>
        <time>2022-11-17T10:03:28Z</time>
      </trkpt>
      <trkpt lat="44.7118" lon="5.19464">
        <ele>414</ele>
        <time>2022-11-17T10:03:28Z</time>
      </trkpt>
      <trkpt lat="44.71224" lon="5.19583">
        <ele>417</ele>
        <time>2022-11-17T10:03:28Z</time>
      </trkpt>
      <trkpt lat="44.7123" lon="5.19588">
        <ele>418</ele>
        <time>2022-11-17T10:03:28Z</time>
      </trkpt>
      <trkpt lat="44.71272" lon="5.19582">
        <ele>421</ele>
        <time>2022-11-17T10:03:28Z</time>
      </trkpt>
      <trkpt lat="44.71308" lon="5.19591">
        <ele>424</ele>
        <time>2022-11-17T10:03:28Z</time>
      </trkpt>
      <trkpt lat="44.71323" lon="5.19601">
        <ele>426</ele>
        <time>2022-11-17T10:03:28Z</time>
      </trkpt>
      <trkpt lat="44.71329" lon="5.19609">
        <ele>427</ele>
        <time>2022-11-17T10:03:28Z</time>
      </trkpt>
      <trkpt lat="44.71358" lon="5.1967">
        <ele>432</ele>
        <time>2022-11-17T10:03:28Z</time>
      </trkpt>
      <trkpt lat="44.71398" lon="5.19702">
        <ele>435</ele>
        <time>2022-11-17T10:03:28Z</time>
      </trkpt>
      <trkpt lat="44.7146" lon="5.19712">
        <ele>436</ele>
        <time>2022-11-17T10:03:28Z</time>
      </trkpt>
      <trkpt lat="44.71468" lon="5.19708">
        <ele>436</ele>
        <time>2022-11-17T10:03:28Z</time>
      </trkpt>
      <trkpt lat="44.71497" lon="5.19679">
        <ele>436</ele>
        <time>2022-11-17T10:03:28Z</time>
      </trkpt>
      <trkpt lat="44.7158" lon="5.19644">
        <ele>439</ele>
        <time>2022-11-17T10:03:28Z</time>
      </trkpt>
      <trkpt lat="44.7159" lon="5.19643">
        <ele>439</ele>
        <time>2022-11-17T10:03:28Z</time>
      </trkpt>
      <trkpt lat="44.71617" lon="5.19652">
        <ele>439</ele>
        <time>2022-11-17T10:03:28Z</time>
      </trkpt>
      <trkpt lat="44.71627" lon="5.19652">
        <ele>439</ele>
        <time>2022-11-17T10:03:28Z</time>
      </trkpt>
      <trkpt lat="44.71636" lon="5.19648">
        <ele>439</ele>
        <time>2022-11-17T10:03:28Z</time>
      </trkpt>
      <trkpt lat="44.71676" lon="5.19613">
        <ele>435</ele>
        <time>2022-11-17T10:03:28Z</time>
      </trkpt>
      <trkpt lat="44.71696" lon="5.19605">
        <ele>434</ele>
        <time>2022-11-17T10:03:28Z</time>
      </trkpt>
      <trkpt lat="44.71703" lon="5.19599">
        <ele>433</ele>
        <time>2022-11-17T10:03:28Z</time>
      </trkpt>
      <trkpt lat="44.71786" lon="5.19565">
        <ele>426</ele>
        <time>2022-11-17T10:03:28Z</time>
      </trkpt>
      <trkpt lat="44.71854" lon="5.19554">
        <ele>420</ele>
        <time>2022-11-17T10:03:28Z</time>
      </trkpt>
      <trkpt lat="44.71895" lon="5.19538">
        <ele>418</ele>
        <time>2022-11-17T10:03:28Z</time>
      </trkpt>
      <trkpt lat="44.71905" lon="5.1954">
        <ele>417</ele>
        <time>2022-11-17T10:03:28Z</time>
      </trkpt>
      <trkpt lat="44.71933" lon="5.19562">
        <ele>415</ele>
        <time>2022-11-17T10:03:28Z</time>
      </trkpt>
      <trkpt lat="44.71944" lon="5.19566">
        <ele>414</ele>
        <time>2022-11-17T10:03:28Z</time>
      </trkpt>
      <trkpt lat="44.7196" lon="5.19566">
        <ele>412</ele>
        <time>2022-11-17T10:03:28Z</time>
      </trkpt>
      <trkpt lat="44.71982" lon="5.19554">
        <ele>410</ele>
        <time>2022-11-17T10:03:28Z</time>
      </trkpt>
      <trkpt lat="44.72013" lon="5.19523">
        <ele>407</ele>
        <time>2022-11-17T10:03:28Z</time>
      </trkpt>
      <trkpt lat="44.72101" lon="5.19521">
        <ele>403</ele>
        <time>2022-11-17T10:03:28Z</time>
      </trkpt>
      <trkpt lat="44.72141" lon="5.19512">
        <ele>401</ele>
        <time>2022-11-17T10:03:28Z</time>
      </trkpt>
      <trkpt lat="44.72152" lon="5.19531">
        <ele>400</ele>
        <time>2022-11-17T10:03:28Z</time>
      </trkpt>
      <trkpt lat="44.72161" lon="5.19528">
        <ele>400</ele>
        <time>2022-11-17T10:03:28Z</time>
      </trkpt>
      <trkpt lat="44.72174" lon="5.19515">
        <ele>399</ele>
        <time>2022-11-17T10:03:28Z</time>
      </trkpt>
      <trkpt lat="44.72184" lon="5.19498">
        <ele>399</ele>
        <time>2022-11-17T10:03:28Z</time>
      </trkpt>
      <trkpt lat="44.72187" lon="5.19488">
        <ele>399</ele>
        <time>2022-11-17T10:03:28Z</time>
      </trkpt>
      <trkpt lat="44.72193" lon="5.19483">
        <ele>399</ele>
        <time>2022-11-17T10:03:28Z</time>
      </trkpt>
      <trkpt lat="44.72199" lon="5.19473">
        <ele>399</ele>
        <time>2022-11-17T10:03:28Z</time>
      </trkpt>
      <trkpt lat="44.72211" lon="5.1946">
        <ele>399</ele>
        <time>2022-11-17T10:03:28Z</time>
      </trkpt>
      <trkpt lat="44.72228" lon="5.1945">
        <ele>399</ele>
        <time>2022-11-17T10:03:28Z</time>
      </trkpt>
      <trkpt lat="44.72239" lon="5.19436">
        <ele>398</ele>
        <time>2022-11-17T10:03:28Z</time>
      </trkpt>
      <trkpt lat="44.72248" lon="5.19438">
        <ele>398</ele>
        <time>2022-11-17T10:03:28Z</time>
      </trkpt>
      <trkpt lat="44.72257" lon="5.19436">
        <ele>398</ele>
        <time>2022-11-17T10:03:28Z</time>
      </trkpt>
      <trkpt lat="44.72263" lon="5.19431">
        <ele>398</ele>
        <time>2022-11-17T10:03:29Z</time>
      </trkpt>
      <trkpt lat="44.7227" lon="5.19432">
        <ele>398</ele>
        <time>2022-11-17T10:03:29Z</time>
      </trkpt>
      <trkpt lat="44.72278" lon="5.1943">
        <ele>398</ele>
        <time>2022-11-17T10:03:29Z</time>
      </trkpt>
      <trkpt lat="44.72285" lon="5.19432">
        <ele>398</ele>
        <time>2022-11-17T10:03:29Z</time>
      </trkpt>
      <trkpt lat="44.72323" lon="5.1939">
        <ele>398</ele>
        <time>2022-11-17T10:03:29Z</time>
      </trkpt>
      <trkpt lat="44.72327" lon="5.19379">
        <ele>398</ele>
        <time>2022-11-17T10:03:29Z</time>
      </trkpt>
      <trkpt lat="44.72326" lon="5.19366">
        <ele>398</ele>
        <time>2022-11-17T10:03:29Z</time>
      </trkpt>
      <trkpt lat="44.7233" lon="5.19355">
        <ele>398</ele>
        <time>2022-11-17T10:03:29Z</time>
      </trkpt>
      <trkpt lat="44.72344" lon="5.19345">
        <ele>398</ele>
        <time>2022-11-17T10:03:29Z</time>
      </trkpt>
      <trkpt lat="44.7236" lon="5.19324">
        <ele>398</ele>
        <time>2022-11-17T10:03:29Z</time>
      </trkpt>
      <trkpt lat="44.72381" lon="5.19307">
        <ele>398</ele>
        <time>2022-11-17T10:03:29Z</time>
      </trkpt>
      <trkpt lat="44.72386" lon="5.19299">
        <ele>398</ele>
        <time>2022-11-17T10:03:29Z</time>
      </trkpt>
      <trkpt lat="44.72383" lon="5.1927">
        <ele>398</ele>
        <time>2022-11-17T10:03:29Z</time>
      </trkpt>
      <trkpt lat="44.7238" lon="5.19261">
        <ele>399</ele>
        <time>2022-11-17T10:03:29Z</time>
      </trkpt>
      <trkpt lat="44.72379" lon="5.19251">
        <ele>399</ele>
        <time>2022-11-17T10:03:29Z</time>
      </trkpt>
      <trkpt lat="44.72385" lon="5.19231">
        <ele>400</ele>
        <time>2022-11-17T10:03:29Z</time>
      </trkpt>
      <trkpt lat="44.72386" lon="5.1922">
        <ele>401</ele>
        <time>2022-11-17T10:03:29Z</time>
      </trkpt>
      <trkpt lat="44.72385" lon="5.1921">
        <ele>402</ele>
        <time>2022-11-17T10:03:29Z</time>
      </trkpt>
      <trkpt lat="44.72387" lon="5.192">
        <ele>403</ele>
        <time>2022-11-17T10:03:29Z</time>
      </trkpt>
      <trkpt lat="44.72388" lon="5.19188">
        <ele>404</ele>
        <time>2022-11-17T10:03:29Z</time>
      </trkpt>
      <trkpt lat="44.72385" lon="5.19176">
        <ele>406</ele>
        <time>2022-11-17T10:03:29Z</time>
      </trkpt>
      <trkpt lat="44.72385" lon="5.19165">
        <ele>407</ele>
        <time>2022-11-17T10:03:29Z</time>
      </trkpt>
      <trkpt lat="44.72389" lon="5.19156">
        <ele>408</ele>
        <time>2022-11-17T10:03:29Z</time>
      </trkpt>
      <trkpt lat="44.72389" lon="5.19146">
        <ele>410</ele>
        <time>2022-11-17T10:03:29Z</time>
      </trkpt>
      <trkpt lat="44.7239" lon="5.19136">
        <ele>411</ele>
        <time>2022-11-17T10:03:29Z</time>
      </trkpt>
      <trkpt lat="44.72398" lon="5.19136">
        <ele>413</ele>
        <time>2022-11-17T10:03:29Z</time>
      </trkpt>
      <trkpt lat="44.72404" lon="5.19129">
        <ele>415</ele>
        <time>2022-11-17T10:03:29Z</time>
      </trkpt>
      <trkpt lat="44.72414" lon="5.19094">
        <ele>419</ele>
        <time>2022-11-17T10:03:29Z</time>
      </trkpt>
      <trkpt lat="44.72386" lon="5.19001">
        <ele>419</ele>
        <time>2022-11-17T10:03:29Z</time>
      </trkpt>
      <trkpt lat="44.72375" lon="5.18982">
        <ele>419</ele>
        <time>2022-11-17T10:03:29Z</time>
      </trkpt>
      <trkpt lat="44.72373" lon="5.1897">
        <ele>419</ele>
        <time>2022-11-17T10:03:29Z</time>
      </trkpt>
      <trkpt lat="44.72383" lon="5.18949">
        <ele>419</ele>
        <time>2022-11-17T10:03:29Z</time>
      </trkpt>
      <trkpt lat="44.72386" lon="5.18936">
        <ele>419</ele>
        <time>2022-11-17T10:03:29Z</time>
      </trkpt>
      <trkpt lat="44.72386" lon="5.18923">
        <ele>420</ele>
        <time>2022-11-17T10:03:29Z</time>
      </trkpt>
      <trkpt lat="44.72379" lon="5.18914">
        <ele>421</ele>
        <time>2022-11-17T10:03:29Z</time>
      </trkpt>
      <trkpt lat="44.7237" lon="5.18911">
        <ele>422</ele>
        <time>2022-11-17T10:03:29Z</time>
      </trkpt>
      <trkpt lat="44.72345" lon="5.18928">
        <ele>424</ele>
        <time>2022-11-17T10:03:29Z</time>
      </trkpt>
      <trkpt lat="44.72334" lon="5.18945">
        <ele>425</ele>
        <time>2022-11-17T10:03:29Z</time>
      </trkpt>
      <trkpt lat="44.72304" lon="5.19087">
        <ele>433</ele>
        <time>2022-11-17T10:03:29Z</time>
      </trkpt>
      <trkpt lat="44.72297" lon="5.19094">
        <ele>433</ele>
        <time>2022-11-17T10:03:29Z</time>
      </trkpt>
      <trkpt lat="44.72291" lon="5.19088">
        <ele>434</ele>
        <time>2022-11-17T10:03:29Z</time>
      </trkpt>
      <trkpt lat="44.72291" lon="5.19076">
        <ele>435</ele>
        <time>2022-11-17T10:03:29Z</time>
      </trkpt>
      <trkpt lat="44.723" lon="5.19055">
        <ele>436</ele>
        <time>2022-11-17T10:03:29Z</time>
      </trkpt>
      <trkpt lat="44.72306" lon="5.18968">
        <ele>438</ele>
        <time>2022-11-17T10:03:29Z</time>
      </trkpt>
      <trkpt lat="44.72305" lon="5.18957">
        <ele>438</ele>
        <time>2022-11-17T10:03:29Z</time>
      </trkpt>
      <trkpt lat="44.72308" lon="5.18921">
        <ele>439</ele>
        <time>2022-11-17T10:03:29Z</time>
      </trkpt>
      <trkpt lat="44.72312" lon="5.18909">
        <ele>440</ele>
        <time>2022-11-17T10:03:29Z</time>
      </trkpt>
      <trkpt lat="44.72375" lon="5.18816">
        <ele>446</ele>
        <time>2022-11-17T10:03:29Z</time>
      </trkpt>
      <trkpt lat="44.72398" lon="5.18792">
        <ele>448</ele>
        <time>2022-11-17T10:03:29Z</time>
      </trkpt>
      <trkpt lat="44.72427" lon="5.18748">
        <ele>451</ele>
        <time>2022-11-17T10:03:29Z</time>
      </trkpt>
      <trkpt lat="44.72429" lon="5.18736">
        <ele>452</ele>
        <time>2022-11-17T10:03:29Z</time>
      </trkpt>
      <trkpt lat="44.72427" lon="5.18723">
        <ele>453</ele>
        <time>2022-11-17T10:03:29Z</time>
      </trkpt>
      <trkpt lat="44.72438" lon="5.18706">
        <ele>454</ele>
        <time>2022-11-17T10:03:29Z</time>
      </trkpt>
      <trkpt lat="44.7245" lon="5.18673">
        <ele>456</ele>
        <time>2022-11-17T10:03:29Z</time>
      </trkpt>
      <trkpt lat="44.72497" lon="5.18592">
        <ele>462</ele>
        <time>2022-11-17T10:03:29Z</time>
      </trkpt>
      <trkpt lat="44.72504" lon="5.18585">
        <ele>463</ele>
        <time>2022-11-17T10:03:29Z</time>
      </trkpt>
      <trkpt lat="44.72513" lon="5.18581">
        <ele>464</ele>
        <time>2022-11-17T10:03:29Z</time>
      </trkpt>
      <trkpt lat="44.72521" lon="5.1858">
        <ele>465</ele>
        <time>2022-11-17T10:03:29Z</time>
      </trkpt>
      <trkpt lat="44.72539" lon="5.18588">
        <ele>467</ele>
        <time>2022-11-17T10:03:29Z</time>
      </trkpt>
      <trkpt lat="44.72548" lon="5.18587">
        <ele>468</ele>
        <time>2022-11-17T10:03:29Z</time>
      </trkpt>
      <trkpt lat="44.72572" lon="5.18572">
        <ele>470</ele>
        <time>2022-11-17T10:03:29Z</time>
      </trkpt>
      <trkpt lat="44.72597" lon="5.1857">
        <ele>473</ele>
        <time>2022-11-17T10:03:29Z</time>
      </trkpt>
      <trkpt lat="44.72606" lon="5.18565">
        <ele>474</ele>
        <time>2022-11-17T10:03:29Z</time>
      </trkpt>
      <trkpt lat="44.72611" lon="5.18554">
        <ele>475</ele>
        <time>2022-11-17T10:03:29Z</time>
      </trkpt>
      <trkpt lat="44.72622" lon="5.18472">
        <ele>481</ele>
        <time>2022-11-17T10:03:29Z</time>
      </trkpt>
      <trkpt lat="44.72642" lon="5.18429">
        <ele>485</ele>
        <time>2022-11-17T10:03:29Z</time>
      </trkpt>
      <trkpt lat="44.72669" lon="5.18392">
        <ele>489</ele>
        <time>2022-11-17T10:03:29Z</time>
      </trkpt>
      <trkpt lat="44.72702" lon="5.18366">
        <ele>493</ele>
        <time>2022-11-17T10:03:29Z</time>
      </trkpt>
      <trkpt lat="44.72736" lon="5.18348">
        <ele>497</ele>
        <time>2022-11-17T10:03:29Z</time>
      </trkpt>
      <trkpt lat="44.72753" lon="5.18309">
        <ele>500</ele>
        <time>2022-11-17T10:03:29Z</time>
      </trkpt>
      <trkpt lat="44.72811" lon="5.1825">
        <ele>507</ele>
        <time>2022-11-17T10:03:29Z</time>
      </trkpt>
      <trkpt lat="44.72823" lon="5.18227">
        <ele>508</ele>
        <time>2022-11-17T10:03:29Z</time>
      </trkpt>
      <trkpt lat="44.72838" lon="5.18214">
        <ele>509</ele>
        <time>2022-11-17T10:03:29Z</time>
      </trkpt>
      <trkpt lat="44.72848" lon="5.18215">
        <ele>510</ele>
        <time>2022-11-17T10:03:29Z</time>
      </trkpt>
      <trkpt lat="44.72857" lon="5.18221">
        <ele>511</ele>
        <time>2022-11-17T10:03:29Z</time>
      </trkpt>
      <trkpt lat="44.72882" lon="5.18261">
        <ele>512</ele>
        <time>2022-11-17T10:03:29Z</time>
      </trkpt>
      <trkpt lat="44.7289" lon="5.18263">
        <ele>511</ele>
        <time>2022-11-17T10:03:29Z</time>
      </trkpt>
      <trkpt lat="44.72899" lon="5.18257">
        <ele>511</ele>
        <time>2022-11-17T10:03:29Z</time>
      </trkpt>
      <trkpt lat="44.72976" lon="5.18155">
        <ele>502</ele>
        <time>2022-11-17T10:03:29Z</time>
      </trkpt>
      <trkpt lat="44.72985" lon="5.18149">
        <ele>502</ele>
        <time>2022-11-17T10:03:29Z</time>
      </trkpt>
      <trkpt lat="44.72993" lon="5.1815">
        <ele>501</ele>
        <time>2022-11-17T10:03:29Z</time>
      </trkpt>
      <trkpt lat="44.73002" lon="5.18159">
        <ele>501</ele>
        <time>2022-11-17T10:03:29Z</time>
      </trkpt>
      <trkpt lat="44.73007" lon="5.18169">
        <ele>501</ele>
        <time>2022-11-17T10:03:29Z</time>
      </trkpt>
      <trkpt lat="44.73023" lon="5.18249">
        <ele>505</ele>
        <time>2022-11-17T10:03:29Z</time>
      </trkpt>
      <trkpt lat="44.73023" lon="5.18286">
        <ele>506</ele>
        <time>2022-11-17T10:03:29Z</time>
      </trkpt>
      <trkpt lat="44.73024" lon="5.18347">
        <ele>508</ele>
        <time>2022-11-17T10:03:29Z</time>
      </trkpt>
      <trkpt lat="44.73021" lon="5.18411">
        <ele>510</ele>
        <time>2022-11-17T10:03:29Z</time>
      </trkpt>
      <trkpt lat="44.73025" lon="5.18439">
        <ele>511</ele>
        <time>2022-11-17T10:03:29Z</time>
      </trkpt>
      <trkpt lat="44.73029" lon="5.18451">
        <ele>511</ele>
        <time>2022-11-17T10:03:29Z</time>
      </trkpt>
      <trkpt lat="44.73038" lon="5.18459">
        <ele>512</ele>
        <time>2022-11-17T10:03:29Z</time>
      </trkpt>
      <trkpt lat="44.73068" lon="5.18469">
        <ele>513</ele>
        <time>2022-11-17T10:03:29Z</time>
      </trkpt>
      <trkpt lat="44.73082" lon="5.18484">
        <ele>514</ele>
        <time>2022-11-17T10:03:29Z</time>
      </trkpt>
      <trkpt lat="44.731" lon="5.18516">
        <ele>515</ele>
        <time>2022-11-17T10:03:29Z</time>
      </trkpt>
      <trkpt lat="44.73109" lon="5.18524">
        <ele>516</ele>
        <time>2022-11-17T10:03:29Z</time>
      </trkpt>
      <trkpt lat="44.73116" lon="5.18525">
        <ele>516</ele>
        <time>2022-11-17T10:03:29Z</time>
      </trkpt>
      <trkpt lat="44.73124" lon="5.18518">
        <ele>516</ele>
        <time>2022-11-17T10:03:29Z</time>
      </trkpt>
      <trkpt lat="44.73129" lon="5.18506">
        <ele>517</ele>
        <time>2022-11-17T10:03:29Z</time>
      </trkpt>
      <trkpt lat="44.73127" lon="5.18429">
        <ele>518</ele>
        <time>2022-11-17T10:03:29Z</time>
      </trkpt>
      <trkpt lat="44.73157" lon="5.18367">
        <ele>519</ele>
        <time>2022-11-17T10:03:29Z</time>
      </trkpt>
      <trkpt lat="44.73165" lon="5.18359">
        <ele>520</ele>
        <time>2022-11-17T10:03:29Z</time>
      </trkpt>
      <trkpt lat="44.73193" lon="5.18349">
        <ele>521</ele>
        <time>2022-11-17T10:03:29Z</time>
      </trkpt>
      <trkpt lat="44.73225" lon="5.18343">
        <ele>523</ele>
        <time>2022-11-17T10:03:29Z</time>
      </trkpt>
      <trkpt lat="44.73232" lon="5.18332">
        <ele>523</ele>
        <time>2022-11-17T10:03:29Z</time>
      </trkpt>
      <trkpt lat="44.73236" lon="5.18318">
        <ele>524</ele>
        <time>2022-11-17T10:03:29Z</time>
      </trkpt>
      <trkpt lat="44.73241" lon="5.18265">
        <ele>525</ele>
        <time>2022-11-17T10:03:29Z</time>
      </trkpt>
      <trkpt lat="44.7324" lon="5.18251">
        <ele>525</ele>
        <time>2022-11-17T10:03:29Z</time>
      </trkpt>
      <trkpt lat="44.73256" lon="5.18135">
        <ele>529</ele>
        <time>2022-11-17T10:03:29Z</time>
      </trkpt>
      <trkpt lat="44.73253" lon="5.18081">
        <ele>531</ele>
        <time>2022-11-17T10:03:29Z</time>
      </trkpt>
      <trkpt lat="44.73259" lon="5.18071">
        <ele>532</ele>
        <time>2022-11-17T10:03:29Z</time>
      </trkpt>
      <trkpt lat="44.73267" lon="5.18064">
        <ele>532</ele>
        <time>2022-11-17T10:03:29Z</time>
      </trkpt>
      <trkpt lat="44.73277" lon="5.18059">
        <ele>533</ele>
        <time>2022-11-17T10:03:29Z</time>
      </trkpt>
      <trkpt lat="44.73283" lon="5.18052">
        <ele>533</ele>
        <time>2022-11-17T10:03:29Z</time>
      </trkpt>
      <trkpt lat="44.73302" lon="5.17991">
        <ele>533</ele>
        <time>2022-11-17T10:03:29Z</time>
      </trkpt>
      <trkpt lat="44.73332" lon="5.17963">
        <ele>535</ele>
        <time>2022-11-17T10:03:29Z</time>
      </trkpt>
      <trkpt lat="44.73342" lon="5.1796">
        <ele>535</ele>
        <time>2022-11-17T10:03:29Z</time>
      </trkpt>
      <trkpt lat="44.73349" lon="5.17966">
        <ele>536</ele>
        <time>2022-11-17T10:03:29Z</time>
      </trkpt>
      <trkpt lat="44.73364" lon="5.18039">
        <ele>539</ele>
        <time>2022-11-17T10:03:29Z</time>
      </trkpt>
      <trkpt lat="44.73369" lon="5.18051">
        <ele>540</ele>
        <time>2022-11-17T10:03:29Z</time>
      </trkpt>
      <trkpt lat="44.73375" lon="5.18058">
        <ele>540</ele>
        <time>2022-11-17T10:03:29Z</time>
      </trkpt>
      <trkpt lat="44.73384" lon="5.18057">
        <ele>540</ele>
        <time>2022-11-17T10:03:29Z</time>
      </trkpt>
      <trkpt lat="44.73408" lon="5.18033">
        <ele>540</ele>
        <time>2022-11-17T10:03:29Z</time>
      </trkpt>
      <trkpt lat="44.73434" lon="5.18025">
        <ele>541</ele>
        <time>2022-11-17T10:03:29Z</time>
      </trkpt>
      <trkpt lat="44.73444" lon="5.18027">
        <ele>541</ele>
        <time>2022-11-17T10:03:29Z</time>
      </trkpt>
      <trkpt lat="44.73452" lon="5.18036">
        <ele>541</ele>
        <time>2022-11-17T10:03:29Z</time>
      </trkpt>
      <trkpt lat="44.73459" lon="5.18061">
        <ele>541</ele>
        <time>2022-11-17T10:03:29Z</time>
      </trkpt>
      <trkpt lat="44.73464" lon="5.18072">
        <ele>542</ele>
        <time>2022-11-17T10:03:29Z</time>
      </trkpt>
      <trkpt lat="44.73474" lon="5.18077">
        <ele>542</ele>
        <time>2022-11-17T10:03:29Z</time>
      </trkpt>
      <trkpt lat="44.73485" lon="5.18073">
        <ele>543</ele>
        <time>2022-11-17T10:03:29Z</time>
      </trkpt>
      <trkpt lat="44.73511" lon="5.1805">
        <ele>544</ele>
        <time>2022-11-17T10:03:29Z</time>
      </trkpt>
      <trkpt lat="44.73612" lon="5.1802">
        <ele>546</ele>
        <time>2022-11-17T10:03:29Z</time>
      </trkpt>
      <trkpt lat="44.73631" lon="5.18023">
        <ele>547</ele>
        <time>2022-11-17T10:03:29Z</time>
      </trkpt>
      <trkpt lat="44.73714" lon="5.1808">
        <ele>553</ele>
        <time>2022-11-17T10:03:29Z</time>
      </trkpt>
      <trkpt lat="44.73699" lon="5.18049">
        <ele>554</ele>
        <time>2022-11-17T10:03:29Z</time>
      </trkpt>
      <trkpt lat="44.73697" lon="5.18039">
        <ele>555</ele>
        <time>2022-11-17T10:03:29Z</time>
      </trkpt>
      <trkpt lat="44.73691" lon="5.18031">
        <ele>555</ele>
        <time>2022-11-17T10:03:29Z</time>
      </trkpt>
      <trkpt lat="44.73683" lon="5.18026">
        <ele>556</ele>
        <time>2022-11-17T10:03:29Z</time>
      </trkpt>
      <trkpt lat="44.73667" lon="5.18001">
        <ele>559</ele>
        <time>2022-11-17T10:03:29Z</time>
      </trkpt>
      <trkpt lat="44.7366" lon="5.17978">
        <ele>561</ele>
        <time>2022-11-17T10:03:29Z</time>
      </trkpt>
      <trkpt lat="44.73653" lon="5.17972">
        <ele>562</ele>
        <time>2022-11-17T10:03:29Z</time>
      </trkpt>
      <trkpt lat="44.73646" lon="5.17969">
        <ele>562</ele>
        <time>2022-11-17T10:03:29Z</time>
      </trkpt>
      <trkpt lat="44.73623" lon="5.17956">
        <ele>565</ele>
        <time>2022-11-17T10:03:29Z</time>
      </trkpt>
      <trkpt lat="44.73546" lon="5.17934">
        <ele>574</ele>
        <time>2022-11-17T10:03:29Z</time>
      </trkpt>
      <trkpt lat="44.7354" lon="5.17927">
        <ele>575</ele>
        <time>2022-11-17T10:03:29Z</time>
      </trkpt>
      <trkpt lat="44.73531" lon="5.17894">
        <ele>576</ele>
        <time>2022-11-17T10:03:29Z</time>
      </trkpt>
      <trkpt lat="44.7351" lon="5.17873">
        <ele>577</ele>
        <time>2022-11-17T10:03:29Z</time>
      </trkpt>
      <trkpt lat="44.73436" lon="5.17835">
        <ele>581</ele>
        <time>2022-11-17T10:03:29Z</time>
      </trkpt>
      <trkpt lat="44.73396" lon="5.17795">
        <ele>583</ele>
        <time>2022-11-17T10:03:29Z</time>
      </trkpt>
      <trkpt lat="44.73389" lon="5.17792">
        <ele>584</ele>
        <time>2022-11-17T10:03:29Z</time>
      </trkpt>
      <trkpt lat="44.73327" lon="5.17801">
        <ele>586</ele>
        <time>2022-11-17T10:03:29Z</time>
      </trkpt>
      <trkpt lat="44.73289" lon="5.17816">
        <ele>588</ele>
        <time>2022-11-17T10:03:29Z</time>
      </trkpt>
      <trkpt lat="44.73256" lon="5.17839">
        <ele>589</ele>
        <time>2022-11-17T10:03:29Z</time>
      </trkpt>
      <trkpt lat="44.73245" lon="5.17837">
        <ele>590</ele>
        <time>2022-11-17T10:03:29Z</time>
      </trkpt>
      <trkpt lat="44.73236" lon="5.1783">
        <ele>591</ele>
        <time>2022-11-17T10:03:29Z</time>
      </trkpt>
      <trkpt lat="44.73174" lon="5.1773">
        <ele>589</ele>
        <time>2022-11-17T10:03:29Z</time>
      </trkpt>
      <trkpt lat="44.7317" lon="5.1772">
        <ele>590</ele>
        <time>2022-11-17T10:03:29Z</time>
      </trkpt>
      <trkpt lat="44.73142" lon="5.17696">
        <ele>592</ele>
        <time>2022-11-17T10:03:29Z</time>
      </trkpt>
      <trkpt lat="44.73125" lon="5.17693">
        <ele>592</ele>
        <time>2022-11-17T10:03:29Z</time>
      </trkpt>
      <trkpt lat="44.73081" lon="5.17694">
        <ele>594</ele>
        <time>2022-11-17T10:03:29Z</time>
      </trkpt>
      <trkpt lat="44.73072" lon="5.17698">
        <ele>594</ele>
        <time>2022-11-17T10:03:29Z</time>
      </trkpt>
      <trkpt lat="44.73015" lon="5.17743">
        <ele>588</ele>
        <time>2022-11-17T10:03:29Z</time>
      </trkpt>
      <trkpt lat="44.73008" lon="5.17743">
        <ele>588</ele>
        <time>2022-11-17T10:03:29Z</time>
      </trkpt>
      <trkpt lat="44.73002" lon="5.17732">
        <ele>587</ele>
        <time>2022-11-17T10:03:29Z</time>
      </trkpt>
      <trkpt lat="44.72998" lon="5.17673">
        <ele>588</ele>
        <time>2022-11-17T10:03:29Z</time>
      </trkpt>
      <trkpt lat="44.72982" lon="5.17627">
        <ele>586</ele>
        <time>2022-11-17T10:03:29Z</time>
      </trkpt>
      <trkpt lat="44.72963" lon="5.17596">
        <ele>583</ele>
        <time>2022-11-17T10:03:29Z</time>
      </trkpt>
      <trkpt lat="44.72949" lon="5.17561">
        <ele>581</ele>
        <time>2022-11-17T10:03:29Z</time>
      </trkpt>
      <trkpt lat="44.72917" lon="5.17521">
        <ele>576</ele>
        <time>2022-11-17T10:03:29Z</time>
      </trkpt>
      <trkpt lat="44.72812" lon="5.17463">
        <ele>573</ele>
        <time>2022-11-17T10:03:29Z</time>
      </trkpt>
      <trkpt lat="44.72789" lon="5.17436">
        <ele>576</ele>
        <time>2022-11-17T10:03:29Z</time>
      </trkpt>
      <trkpt lat="44.72765" lon="5.17383">
        <ele>581</ele>
        <time>2022-11-17T10:03:29Z</time>
      </trkpt>
      <trkpt lat="44.72754" lon="5.17346">
        <ele>583</ele>
        <time>2022-11-17T10:03:29Z</time>
      </trkpt>
      <trkpt lat="44.72742" lon="5.17324">
        <ele>584</ele>
        <time>2022-11-17T10:03:29Z</time>
      </trkpt>
      <trkpt lat="44.72738" lon="5.17312">
        <ele>585</ele>
        <time>2022-11-17T10:03:29Z</time>
      </trkpt>
      <trkpt lat="44.72739" lon="5.17297">
        <ele>586</ele>
        <time>2022-11-17T10:03:29Z</time>
      </trkpt>
      <trkpt lat="44.72752" lon="5.17247">
        <ele>589</ele>
        <time>2022-11-17T10:03:29Z</time>
      </trkpt>
      <trkpt lat="44.72752" lon="5.17235">
        <ele>590</ele>
        <time>2022-11-17T10:03:29Z</time>
      </trkpt>
      <trkpt lat="44.72771" lon="5.17109">
        <ele>597</ele>
        <time>2022-11-17T10:03:29Z</time>
      </trkpt>
      <trkpt lat="44.72769" lon="5.17098">
        <ele>598</ele>
        <time>2022-11-17T10:03:29Z</time>
      </trkpt>
      <trkpt lat="44.72755" lon="5.17066">
        <ele>599</ele>
        <time>2022-11-17T10:03:29Z</time>
      </trkpt>
      <trkpt lat="44.72755" lon="5.17053">
        <ele>599</ele>
        <time>2022-11-17T10:03:29Z</time>
      </trkpt>
      <trkpt lat="44.72763" lon="5.17018">
        <ele>600</ele>
        <time>2022-11-17T10:03:29Z</time>
      </trkpt>
      <trkpt lat="44.72778" lon="5.16985">
        <ele>602</ele>
        <time>2022-11-17T10:03:29Z</time>
      </trkpt>
      <trkpt lat="44.72821" lon="5.16929">
        <ele>607</ele>
        <time>2022-11-17T10:03:29Z</time>
      </trkpt>
      <trkpt lat="44.72846" lon="5.1688">
        <ele>609</ele>
        <time>2022-11-17T10:03:29Z</time>
      </trkpt>
      <trkpt lat="44.72901" lon="5.16758">
        <ele>618</ele>
        <time>2022-11-17T10:03:29Z</time>
      </trkpt>
      <trkpt lat="44.72916" lon="5.16728">
        <ele>620</ele>
        <time>2022-11-17T10:03:29Z</time>
      </trkpt>
      <trkpt lat="44.7293" lon="5.16681">
        <ele>624</ele>
        <time>2022-11-17T10:03:29Z</time>
      </trkpt>
      <trkpt lat="44.72925" lon="5.16674">
        <ele>625</ele>
        <time>2022-11-17T10:03:29Z</time>
      </trkpt>
      <trkpt lat="44.72896" lon="5.16706">
        <ele>628</ele>
        <time>2022-11-17T10:03:29Z</time>
      </trkpt>
      <trkpt lat="44.72884" lon="5.16723">
        <ele>630</ele>
        <time>2022-11-17T10:03:29Z</time>
      </trkpt>
      <trkpt lat="44.72861" lon="5.16765">
        <ele>632</ele>
        <time>2022-11-17T10:03:29Z</time>
      </trkpt>
      <trkpt lat="44.72828" lon="5.16813">
        <ele>635</ele>
        <time>2022-11-17T10:03:29Z</time>
      </trkpt>
      <trkpt lat="44.72818" lon="5.16817">
        <ele>636</ele>
        <time>2022-11-17T10:03:29Z</time>
      </trkpt>
      <trkpt lat="44.7271" lon="5.16937">
        <ele>646</ele>
        <time>2022-11-17T10:03:29Z</time>
      </trkpt>
      <trkpt lat="44.72643" lon="5.16924">
        <ele>643</ele>
        <time>2022-11-17T10:03:30Z</time>
      </trkpt>
      <trkpt lat="44.72592" lon="5.16897">
        <ele>642</ele>
        <time>2022-11-17T10:03:30Z</time>
      </trkpt>
      <trkpt lat="44.72577" lon="5.16882">
        <ele>642</ele>
        <time>2022-11-17T10:03:30Z</time>
      </trkpt>
      <trkpt lat="44.72454" lon="5.16823">
        <ele>643</ele>
        <time>2022-11-17T10:03:30Z</time>
      </trkpt>
      <trkpt lat="44.72447" lon="5.16815">
        <ele>643</ele>
        <time>2022-11-17T10:03:30Z</time>
      </trkpt>
      <trkpt lat="44.72437" lon="5.16809">
        <ele>643</ele>
        <time>2022-11-17T10:03:30Z</time>
      </trkpt>
      <trkpt lat="44.72369" lon="5.16809">
        <ele>649</ele>
        <time>2022-11-17T10:03:30Z</time>
      </trkpt>
      <trkpt lat="44.7236" lon="5.16807">
        <ele>650</ele>
        <time>2022-11-17T10:03:30Z</time>
      </trkpt>
      <trkpt lat="44.72335" lon="5.16816">
        <ele>653</ele>
        <time>2022-11-17T10:03:30Z</time>
      </trkpt>
      <trkpt lat="44.72328" lon="5.16821">
        <ele>654</ele>
        <time>2022-11-17T10:03:30Z</time>
      </trkpt>
      <trkpt lat="44.72313" lon="5.16828">
        <ele>656</ele>
        <time>2022-11-17T10:03:30Z</time>
      </trkpt>
      <trkpt lat="44.72307" lon="5.16835">
        <ele>656</ele>
        <time>2022-11-17T10:03:30Z</time>
      </trkpt>
      <trkpt lat="44.72309" lon="5.16878">
        <ele>653</ele>
        <time>2022-11-17T10:03:30Z</time>
      </trkpt>
      <trkpt lat="44.72312" lon="5.169">
        <ele>651</ele>
        <time>2022-11-17T10:03:30Z</time>
      </trkpt>
      <trkpt lat="44.72305" lon="5.16963">
        <ele>646</ele>
        <time>2022-11-17T10:03:30Z</time>
      </trkpt>
      <trkpt lat="44.72301" lon="5.16972">
        <ele>644</ele>
        <time>2022-11-17T10:03:30Z</time>
      </trkpt>
      <trkpt lat="44.72296" lon="5.16994">
        <ele>641</ele>
        <time>2022-11-17T10:03:30Z</time>
      </trkpt>
      <trkpt lat="44.72284" lon="5.17023">
        <ele>636</ele>
        <time>2022-11-17T10:03:30Z</time>
      </trkpt>
      <trkpt lat="44.72283" lon="5.17034">
        <ele>635</ele>
        <time>2022-11-17T10:03:30Z</time>
      </trkpt>
      <trkpt lat="44.72281" lon="5.17046">
        <ele>633</ele>
        <time>2022-11-17T10:03:30Z</time>
      </trkpt>
      <trkpt lat="44.72276" lon="5.17056">
        <ele>630</ele>
        <time>2022-11-17T10:03:30Z</time>
      </trkpt>
      <trkpt lat="44.72266" lon="5.17098">
        <ele>625</ele>
        <time>2022-11-17T10:03:30Z</time>
      </trkpt>
      <trkpt lat="44.72265" lon="5.17109">
        <ele>623</ele>
        <time>2022-11-17T10:03:30Z</time>
      </trkpt>
      <trkpt lat="44.7226" lon="5.1713">
        <ele>620</ele>
        <time>2022-11-17T10:03:30Z</time>
      </trkpt>
      <trkpt lat="44.72258" lon="5.17152">
        <ele>617</ele>
        <time>2022-11-17T10:03:30Z</time>
      </trkpt>
      <trkpt lat="44.72249" lon="5.172">
        <ele>610</ele>
        <time>2022-11-17T10:03:30Z</time>
      </trkpt>
      <trkpt lat="44.72248" lon="5.17234">
        <ele>605</ele>
        <time>2022-11-17T10:03:30Z</time>
      </trkpt>
      <trkpt lat="44.72244" lon="5.17243">
        <ele>604</ele>
        <time>2022-11-17T10:03:30Z</time>
      </trkpt>
      <trkpt lat="44.72236" lon="5.17246">
        <ele>602</ele>
        <time>2022-11-17T10:03:30Z</time>
      </trkpt>
      <trkpt lat="44.72222" lon="5.17234">
        <ele>599</ele>
        <time>2022-11-17T10:03:30Z</time>
      </trkpt>
      <trkpt lat="44.72193" lon="5.17232">
        <ele>596</ele>
        <time>2022-11-17T10:03:30Z</time>
      </trkpt>
      <trkpt lat="44.72131" lon="5.17269">
        <ele>600</ele>
        <time>2022-11-17T10:03:30Z</time>
      </trkpt>
      <trkpt lat="44.72108" lon="5.17283">
        <ele>603</ele>
        <time>2022-11-17T10:03:30Z</time>
      </trkpt>
      <trkpt lat="44.72101" lon="5.17292">
        <ele>604</ele>
        <time>2022-11-17T10:03:30Z</time>
      </trkpt>
      <trkpt lat="44.7208" lon="5.1731">
        <ele>606</ele>
        <time>2022-11-17T10:03:30Z</time>
      </trkpt>
      <trkpt lat="44.72047" lon="5.17316">
        <ele>610</ele>
        <time>2022-11-17T10:03:30Z</time>
      </trkpt>
      <trkpt lat="44.7204" lon="5.17313">
        <ele>611</ele>
        <time>2022-11-17T10:03:30Z</time>
      </trkpt>
      <trkpt lat="44.71998" lon="5.17312">
        <ele>616</ele>
        <time>2022-11-17T10:03:30Z</time>
      </trkpt>
      <trkpt lat="44.71952" lon="5.17298">
        <ele>623</ele>
        <time>2022-11-17T10:03:30Z</time>
      </trkpt>
      <trkpt lat="44.71928" lon="5.17297">
        <ele>624</ele>
        <time>2022-11-17T10:03:30Z</time>
      </trkpt>
      <trkpt lat="44.7192" lon="5.17295">
        <ele>625</ele>
        <time>2022-11-17T10:03:30Z</time>
      </trkpt>
      <trkpt lat="44.71681" lon="5.1731">
        <ele>630</ele>
        <time>2022-11-17T10:03:30Z</time>
      </trkpt>
      <trkpt lat="44.71642" lon="5.17317">
        <ele>635</ele>
        <time>2022-11-17T10:03:30Z</time>
      </trkpt>
      <trkpt lat="44.71561" lon="5.1731">
        <ele>639</ele>
        <time>2022-11-17T10:03:30Z</time>
      </trkpt>
      <trkpt lat="44.7145" lon="5.17336">
        <ele>636</ele>
        <time>2022-11-17T10:03:30Z</time>
      </trkpt>
      <trkpt lat="44.71423" lon="5.17329">
        <ele>636</ele>
        <time>2022-11-17T10:03:30Z</time>
      </trkpt>
      <trkpt lat="44.71273" lon="5.17344">
        <ele>633</ele>
        <time>2022-11-17T10:03:30Z</time>
      </trkpt>
      <trkpt lat="44.71186" lon="5.17321">
        <ele>637</ele>
        <time>2022-11-17T10:03:30Z</time>
      </trkpt>
      <trkpt lat="44.7117" lon="5.17325">
        <ele>637</ele>
        <time>2022-11-17T10:03:30Z</time>
      </trkpt>
      <trkpt lat="44.71164" lon="5.17321">
        <ele>637</ele>
        <time>2022-11-17T10:03:30Z</time>
      </trkpt>
      <trkpt lat="44.71159" lon="5.17299">
        <ele>635</ele>
        <time>2022-11-17T10:03:30Z</time>
      </trkpt>
      <trkpt lat="44.7115" lon="5.17278">
        <ele>632</ele>
        <time>2022-11-17T10:03:30Z</time>
      </trkpt>
      <trkpt lat="44.71145" lon="5.1724">
        <ele>627</ele>
        <time>2022-11-17T10:03:30Z</time>
      </trkpt>
      <trkpt lat="44.71146" lon="5.1723">
        <ele>626</ele>
        <time>2022-11-17T10:03:30Z</time>
      </trkpt>
      <trkpt lat="44.71143" lon="5.17221">
        <ele>624</ele>
        <time>2022-11-17T10:03:30Z</time>
      </trkpt>
      <trkpt lat="44.71126" lon="5.17192">
        <ele>619</ele>
        <time>2022-11-17T10:03:30Z</time>
      </trkpt>
      <trkpt lat="44.71124" lon="5.17182">
        <ele>618</ele>
        <time>2022-11-17T10:03:30Z</time>
      </trkpt>
      <trkpt lat="44.71121" lon="5.17145">
        <ele>613</ele>
        <time>2022-11-17T10:03:30Z</time>
      </trkpt>
      <trkpt lat="44.71108" lon="5.17135">
        <ele>610</ele>
        <time>2022-11-17T10:03:30Z</time>
      </trkpt>
      <trkpt lat="44.71097" lon="5.1712">
        <ele>607</ele>
        <time>2022-11-17T10:03:30Z</time>
      </trkpt>
      <trkpt lat="44.71092" lon="5.17112">
        <ele>605</ele>
        <time>2022-11-17T10:03:30Z</time>
      </trkpt>
      <trkpt lat="44.71091" lon="5.171">
        <ele>603</ele>
        <time>2022-11-17T10:03:30Z</time>
      </trkpt>
      <trkpt lat="44.71083" lon="5.17092">
        <ele>600</ele>
        <time>2022-11-17T10:03:30Z</time>
      </trkpt>
      <trkpt lat="44.71075" lon="5.17091">
        <ele>598</ele>
        <time>2022-11-17T10:03:30Z</time>
      </trkpt>
      <trkpt lat="44.71048" lon="5.17069">
        <ele>592</ele>
        <time>2022-11-17T10:03:30Z</time>
      </trkpt>
      <trkpt lat="44.71031" lon="5.17062">
        <ele>589</ele>
        <time>2022-11-17T10:03:30Z</time>
      </trkpt>
      <trkpt lat="44.71025" lon="5.17054">
        <ele>587</ele>
        <time>2022-11-17T10:03:30Z</time>
      </trkpt>
      <trkpt lat="44.71017" lon="5.17051">
        <ele>586</ele>
        <time>2022-11-17T10:03:30Z</time>
      </trkpt>
      <trkpt lat="44.71012" lon="5.17044">
        <ele>585</ele>
        <time>2022-11-17T10:03:30Z</time>
      </trkpt>
      <trkpt lat="44.70999" lon="5.17034">
        <ele>584</ele>
        <time>2022-11-17T10:03:30Z</time>
      </trkpt>
      <trkpt lat="44.70993" lon="5.17023">
        <ele>583</ele>
        <time>2022-11-17T10:03:30Z</time>
      </trkpt>
      <trkpt lat="44.70983" lon="5.16981">
        <ele>582</ele>
        <time>2022-11-17T10:03:30Z</time>
      </trkpt>
      <trkpt lat="44.70975" lon="5.16985">
        <ele>582</ele>
        <time>2022-11-17T10:03:30Z</time>
      </trkpt>
      <trkpt lat="44.70966" lon="5.16983">
        <ele>582</ele>
        <time>2022-11-17T10:03:30Z</time>
      </trkpt>
      <trkpt lat="44.70943" lon="5.16979">
        <ele>579</ele>
        <time>2022-11-17T10:03:30Z</time>
      </trkpt>
      <trkpt lat="44.70938" lon="5.16986">
        <ele>578</ele>
        <time>2022-11-17T10:03:30Z</time>
      </trkpt>
      <trkpt lat="44.70939" lon="5.16997">
        <ele>577</ele>
        <time>2022-11-17T10:03:30Z</time>
      </trkpt>
      <trkpt lat="44.70945" lon="5.17008">
        <ele>576</ele>
        <time>2022-11-17T10:03:30Z</time>
      </trkpt>
      <trkpt lat="44.70995" lon="5.17087">
        <ele>568</ele>
        <time>2022-11-17T10:03:30Z</time>
      </trkpt>
      <trkpt lat="44.71003" lon="5.17108">
        <ele>565</ele>
        <time>2022-11-17T10:03:30Z</time>
      </trkpt>
      <trkpt lat="44.7101" lon="5.1714">
        <ele>561</ele>
        <time>2022-11-17T10:03:30Z</time>
      </trkpt>
      <trkpt lat="44.71009" lon="5.17162">
        <ele>559</ele>
        <time>2022-11-17T10:03:30Z</time>
      </trkpt>
      <trkpt lat="44.71003" lon="5.17171">
        <ele>557</ele>
        <time>2022-11-17T10:03:30Z</time>
      </trkpt>
      <trkpt lat="44.70954" lon="5.17209">
        <ele>549</ele>
        <time>2022-11-17T10:03:30Z</time>
      </trkpt>
      <trkpt lat="44.70889" lon="5.17293">
        <ele>542</ele>
        <time>2022-11-17T10:03:30Z</time>
      </trkpt>
      <trkpt lat="44.70885" lon="5.17302">
        <ele>541</ele>
        <time>2022-11-17T10:03:30Z</time>
      </trkpt>
      <trkpt lat="44.70867" lon="5.17328">
        <ele>539</ele>
        <time>2022-11-17T10:03:30Z</time>
      </trkpt>
      <trkpt lat="44.70841" lon="5.17379">
        <ele>533</ele>
        <time>2022-11-17T10:03:30Z</time>
      </trkpt>
      <trkpt lat="44.70835" lon="5.17387">
        <ele>532</ele>
        <time>2022-11-17T10:03:30Z</time>
      </trkpt>
      <trkpt lat="44.70757" lon="5.17534">
        <ele>518</ele>
        <time>2022-11-17T10:03:30Z</time>
      </trkpt>
      <trkpt lat="44.70755" lon="5.17544">
        <ele>517</ele>
        <time>2022-11-17T10:03:30Z</time>
      </trkpt>
      <trkpt lat="44.7076" lon="5.17553">
        <ele>516</ele>
        <time>2022-11-17T10:03:30Z</time>
      </trkpt>
      <trkpt lat="44.70765" lon="5.17561">
        <ele>514</ele>
        <time>2022-11-17T10:03:30Z</time>
      </trkpt>
      <trkpt lat="44.7078" lon="5.1757">
        <ele>512</ele>
        <time>2022-11-17T10:03:30Z</time>
      </trkpt>
      <trkpt lat="44.7092" lon="5.17632">
        <ele>490</ele>
        <time>2022-11-17T10:03:30Z</time>
      </trkpt>
      <trkpt lat="44.70927" lon="5.17638">
        <ele>489</ele>
        <time>2022-11-17T10:03:30Z</time>
      </trkpt>
      <trkpt lat="44.70935" lon="5.17642">
        <ele>488</ele>
        <time>2022-11-17T10:03:30Z</time>
      </trkpt>
      <trkpt lat="44.7095" lon="5.17642">
        <ele>487</ele>
        <time>2022-11-17T10:03:30Z</time>
      </trkpt>
      <trkpt lat="44.70958" lon="5.17652">
        <ele>486</ele>
        <time>2022-11-17T10:03:30Z</time>
      </trkpt>
      <trkpt lat="44.70967" lon="5.17653">
        <ele>486</ele>
        <time>2022-11-17T10:03:30Z</time>
      </trkpt>
      <trkpt lat="44.70978" lon="5.17666">
        <ele>484</ele>
        <time>2022-11-17T10:03:30Z</time>
      </trkpt>
      <trkpt lat="44.70985" lon="5.1767">
        <ele>483</ele>
        <time>2022-11-17T10:03:30Z</time>
      </trkpt>
      <trkpt lat="44.70991" lon="5.17677">
        <ele>481</ele>
        <time>2022-11-17T10:03:30Z</time>
      </trkpt>
      <trkpt lat="44.70993" lon="5.1769">
        <ele>479</ele>
        <time>2022-11-17T10:03:30Z</time>
      </trkpt>
      <trkpt lat="44.70999" lon="5.17699">
        <ele>478</ele>
        <time>2022-11-17T10:03:30Z</time>
      </trkpt>
      <trkpt lat="44.71006" lon="5.17705">
        <ele>476</ele>
        <time>2022-11-17T10:03:30Z</time>
      </trkpt>
      <trkpt lat="44.71015" lon="5.17704">
        <ele>474</ele>
        <time>2022-11-17T10:03:30Z</time>
      </trkpt>
      <trkpt lat="44.71018" lon="5.17714">
        <ele>471</ele>
        <time>2022-11-17T10:03:30Z</time>
      </trkpt>
      <trkpt lat="44.70994" lon="5.17754">
        <ele>466</ele>
        <time>2022-11-17T10:03:30Z</time>
      </trkpt>
      <trkpt lat="44.70968" lon="5.17821">
        <ele>462</ele>
        <time>2022-11-17T10:03:30Z</time>
      </trkpt>
      <trkpt lat="44.70961" lon="5.17832">
        <ele>461</ele>
        <time>2022-11-17T10:03:30Z</time>
      </trkpt>
      <trkpt lat="44.70938" lon="5.17853">
        <ele>458</ele>
        <time>2022-11-17T10:03:30Z</time>
      </trkpt>
      <trkpt lat="44.70927" lon="5.1787">
        <ele>456</ele>
        <time>2022-11-17T10:03:30Z</time>
      </trkpt>
      <trkpt lat="44.7089" lon="5.17908">
        <ele>450</ele>
        <time>2022-11-17T10:03:30Z</time>
      </trkpt>
      <trkpt lat="44.70857" lon="5.17963">
        <ele>445</ele>
        <time>2022-11-17T10:03:30Z</time>
      </trkpt>
      <trkpt lat="44.70819" lon="5.17988">
        <ele>437</ele>
        <time>2022-11-17T10:03:30Z</time>
      </trkpt>
      <trkpt lat="44.70814" lon="5.17997">
        <ele>436</ele>
        <time>2022-11-17T10:03:30Z</time>
      </trkpt>
      <trkpt lat="44.70814" lon="5.18008">
        <ele>434</ele>
        <time>2022-11-17T10:03:30Z</time>
      </trkpt>
      <trkpt lat="44.70818" lon="5.18018">
        <ele>433</ele>
        <time>2022-11-17T10:03:30Z</time>
      </trkpt>
      <trkpt lat="44.70812" lon="5.18026">
        <ele>431</ele>
        <time>2022-11-17T10:03:30Z</time>
      </trkpt>
      <trkpt lat="44.70803" lon="5.18026">
        <ele>429</ele>
        <time>2022-11-17T10:03:30Z</time>
      </trkpt>
      <trkpt lat="44.7077" lon="5.18016">
        <ele>423</ele>
        <time>2022-11-17T10:03:30Z</time>
      </trkpt>
      <trkpt lat="44.70763" lon="5.18018">
        <ele>421</ele>
        <time>2022-11-17T10:03:30Z</time>
      </trkpt>
      <trkpt lat="44.70662" lon="5.18111">
        <ele>405</ele>
        <time>2022-11-17T10:03:30Z</time>
      </trkpt>
      <trkpt lat="44.70629" lon="5.18124">
        <ele>403</ele>
        <time>2022-11-17T10:03:30Z</time>
      </trkpt>
      <trkpt lat="44.70607" lon="5.18144">
        <ele>401</ele>
        <time>2022-11-17T10:03:30Z</time>
      </trkpt>
      <trkpt lat="44.70556" lon="5.18231">
        <ele>392</ele>
        <time>2022-11-17T10:03:30Z</time>
      </trkpt>
      <trkpt lat="44.70553" lon="5.18241">
        <ele>391</ele>
        <time>2022-11-17T10:03:30Z</time>
      </trkpt>
      <trkpt lat="44.70507" lon="5.18343">
        <ele>378</ele>
        <time>2022-11-17T10:03:30Z</time>
      </trkpt>
      <trkpt lat="44.70479" lon="5.18389">
        <ele>371</ele>
        <time>2022-11-17T10:03:30Z</time>
      </trkpt>
      <trkpt lat="44.70473" lon="5.18394">
        <ele>370</ele>
        <time>2022-11-17T10:03:30Z</time>
      </trkpt>
      <trkpt lat="44.70466" lon="5.18404">
        <ele>368</ele>
        <time>2022-11-17T10:03:30Z</time>
      </trkpt>
      <trkpt lat="44.70449" lon="5.18417">
        <ele>366</ele>
        <time>2022-11-17T10:03:30Z</time>
      </trkpt>
      <trkpt lat="44.70432" lon="5.18425">
        <ele>364</ele>
        <time>2022-11-17T10:03:30Z</time>
      </trkpt>
      <trkpt lat="44.70369" lon="5.18496">
        <ele>355</ele>
        <time>2022-11-17T10:03:30Z</time>
      </trkpt>
      <trkpt lat="44.70353" lon="5.18523">
        <ele>351</ele>
        <time>2022-11-17T10:03:30Z</time>
      </trkpt>
      <trkpt lat="44.70312" lon="5.18564">
        <ele>344</ele>
        <time>2022-11-17T10:03:30Z</time>
      </trkpt>
      <trkpt lat="44.70233" lon="5.18607">
        <ele>337</ele>
        <time>2022-11-17T10:03:30Z</time>
      </trkpt>
      <trkpt lat="44.7023" lon="5.18616">
        <ele>336</ele>
        <time>2022-11-17T10:03:30Z</time>
      </trkpt>
      <trkpt lat="44.7022" lon="5.18625">
        <ele>335</ele>
        <time>2022-11-17T10:03:30Z</time>
      </trkpt>
      <trkpt lat="44.70168" lon="5.18639">
        <ele>332</ele>
        <time>2022-11-17T10:03:30Z</time>
      </trkpt>
      <trkpt lat="44.70134" lon="5.18624">
        <ele>330</ele>
        <time>2022-11-17T10:03:30Z</time>
      </trkpt>
      <trkpt lat="44.70057" lon="5.18572">
        <ele>321</ele>
        <time>2022-11-17T10:03:30Z</time>
      </trkpt>
      <trkpt lat="44.70033" lon="5.18566">
        <ele>317</ele>
        <time>2022-11-17T10:03:30Z</time>
      </trkpt>
      <trkpt lat="44.69945" lon="5.18556">
        <ele>303</ele>
        <time>2022-11-17T10:03:30Z</time>
      </trkpt>
      <trkpt lat="44.69912" lon="5.18571">
        <ele>297</ele>
        <time>2022-11-17T10:03:30Z</time>
      </trkpt>
      <trkpt lat="44.6986" lon="5.18604">
        <ele>288</ele>
        <time>2022-11-17T10:03:30Z</time>
      </trkpt>
      <trkpt lat="44.69801" lon="5.18616">
        <ele>282</ele>
        <time>2022-11-17T10:03:30Z</time>
      </trkpt>
      <trkpt lat="44.69773" lon="5.18613">
        <ele>282</ele>
        <time>2022-11-17T10:03:30Z</time>
      </trkpt>
      <trkpt lat="44.69765" lon="5.18618">
        <ele>281</ele>
        <time>2022-11-17T10:03:30Z</time>
      </trkpt>
      <trkpt lat="44.69729" lon="5.18666">
        <ele>278</ele>
        <time>2022-11-17T10:03:30Z</time>
      </trkpt>
      <trkpt lat="44.69704" lon="5.18736">
        <ele>278</ele>
        <time>2022-11-17T10:03:30Z</time>
      </trkpt>
      <trkpt lat="44.69682" lon="5.18851">
        <ele>277</ele>
        <time>2022-11-17T10:03:30Z</time>
      </trkpt>
      <trkpt lat="44.69677" lon="5.18899">
        <ele>275</ele>
        <time>2022-11-17T10:03:30Z</time>
      </trkpt>
      <trkpt lat="44.69705" lon="5.19225">
        <ele>269</ele>
        <time>2022-11-17T10:03:30Z</time>
      </trkpt>
      <trkpt lat="44.69685" lon="5.19385">
        <ele>265</ele>
        <time>2022-11-17T10:03:30Z</time>
      </trkpt>
      <trkpt lat="44.69674" lon="5.19438">
        <ele>265</ele>
        <time>2022-11-17T10:03:30Z</time>
      </trkpt>
      <trkpt lat="44.69671" lon="5.19499">
        <ele>264</ele>
        <time>2022-11-17T10:03:30Z</time>
      </trkpt>
      <trkpt lat="44.69656" lon="5.1965">
        <ele>266</ele>
        <time>2022-11-17T10:03:31Z</time>
      </trkpt>
      <trkpt lat="44.6966" lon="5.19675">
        <ele>266</ele>
        <time>2022-11-17T10:03:31Z</time>
        <extensions>
          <visugpx:TrkExtension xmlns:visugpx="https://www.visugpx.com/editgpx/">
            <visugpx:node>1</visugpx:node>
            </visugpx:TrkExtension>
        </extensions>
      </trkpt>
    </trkseg>
  </trk>
  <trk>
    <name><![CDATA[VTT N°12 bleu - Les chamois  Les Essarts - 11 km - Déniv 385 m]]></name>
    <extensions>
      <line xmlns="http://www.topografix.com/GPX/gpx_style/0/2">
        <color>1026f7</color>
        <width>4</width>
      </line>
    </extensions>
    <trkseg>
      <trkpt lat="44.6973" lon="5.20002">
        <ele>281</ele>
        <time>2022-11-17T10:03:32Z</time>
      </trkpt>
      <trkpt lat="44.69737" lon="5.20003">
        <ele>282</ele>
        <time>2022-11-17T10:03:32Z</time>
      </trkpt>
      <trkpt lat="44.69746" lon="5.20011">
        <ele>283</ele>
        <time>2022-11-17T10:03:32Z</time>
      </trkpt>
      <trkpt lat="44.69752" lon="5.20005">
        <ele>284</ele>
        <time>2022-11-17T10:03:32Z</time>
      </trkpt>
      <trkpt lat="44.69757" lon="5.19993">
        <ele>285</ele>
        <time>2022-11-17T10:03:32Z</time>
      </trkpt>
      <trkpt lat="44.69788" lon="5.19961">
        <ele>288</ele>
        <time>2022-11-17T10:03:32Z</time>
      </trkpt>
      <trkpt lat="44.69798" lon="5.19956">
        <ele>289</ele>
        <time>2022-11-17T10:03:32Z</time>
      </trkpt>
      <trkpt lat="44.69819" lon="5.19936">
        <ele>289</ele>
        <time>2022-11-17T10:03:32Z</time>
      </trkpt>
      <trkpt lat="44.69904" lon="5.19817">
        <ele>291</ele>
        <time>2022-11-17T10:03:32Z</time>
      </trkpt>
      <trkpt lat="44.69918" lon="5.19807">
        <ele>291</ele>
        <time>2022-11-17T10:03:32Z</time>
      </trkpt>
      <trkpt lat="44.69974" lon="5.19786">
        <ele>290</ele>
        <time>2022-11-17T10:03:32Z</time>
      </trkpt>
      <trkpt lat="44.70062" lon="5.19789">
        <ele>292</ele>
        <time>2022-11-17T10:03:32Z</time>
      </trkpt>
      <trkpt lat="44.70141" lon="5.19779">
        <ele>294</ele>
        <time>2022-11-17T10:03:32Z</time>
      </trkpt>
      <trkpt lat="44.702" lon="5.19801">
        <ele>295</ele>
        <time>2022-11-17T10:03:32Z</time>
      </trkpt>
      <trkpt lat="44.70295" lon="5.19797">
        <ele>297</ele>
        <time>2022-11-17T10:03:32Z</time>
      </trkpt>
      <trkpt lat="44.70354" lon="5.1981">
        <ele>300</ele>
        <time>2022-11-17T10:03:32Z</time>
      </trkpt>
      <trkpt lat="44.70444" lon="5.19816">
        <ele>308</ele>
        <time>2022-11-17T10:03:32Z</time>
      </trkpt>
      <trkpt lat="44.70454" lon="5.19812">
        <ele>309</ele>
        <time>2022-11-17T10:03:32Z</time>
      </trkpt>
      <trkpt lat="44.70533" lon="5.19735">
        <ele>318</ele>
        <time>2022-11-17T10:03:32Z</time>
      </trkpt>
      <trkpt lat="44.70545" lon="5.19714">
        <ele>321</ele>
        <time>2022-11-17T10:03:32Z</time>
      </trkpt>
      <trkpt lat="44.70555" lon="5.19691">
        <ele>323</ele>
        <time>2022-11-17T10:03:32Z</time>
      </trkpt>
      <trkpt lat="44.70561" lon="5.19681">
        <ele>324</ele>
        <time>2022-11-17T10:03:32Z</time>
      </trkpt>
      <trkpt lat="44.70578" lon="5.19667">
        <ele>326</ele>
        <time>2022-11-17T10:03:32Z</time>
      </trkpt>
      <trkpt lat="44.70596" lon="5.19662">
        <ele>329</ele>
        <time>2022-11-17T10:03:32Z</time>
      </trkpt>
      <trkpt lat="44.70616" lon="5.19661">
        <ele>331</ele>
        <time>2022-11-17T10:03:32Z</time>
      </trkpt>
      <trkpt lat="44.70705" lon="5.19683">
        <ele>338</ele>
        <time>2022-11-17T10:03:32Z</time>
      </trkpt>
      <trkpt lat="44.70773" lon="5.19717">
        <ele>335</ele>
        <time>2022-11-17T10:03:32Z</time>
      </trkpt>
      <trkpt lat="44.70821" lon="5.19714">
        <ele>332</ele>
        <time>2022-11-17T10:03:32Z</time>
      </trkpt>
      <trkpt lat="44.70839" lon="5.19707">
        <ele>330</ele>
        <time>2022-11-17T10:03:32Z</time>
      </trkpt>
      <trkpt lat="44.70861" lon="5.19692">
        <ele>328</ele>
        <time>2022-11-17T10:03:32Z</time>
      </trkpt>
      <trkpt lat="44.70889" lon="5.19688">
        <ele>325</ele>
        <time>2022-11-17T10:03:32Z</time>
      </trkpt>
      <trkpt lat="44.70899" lon="5.19682">
        <ele>324</ele>
        <time>2022-11-17T10:03:32Z</time>
      </trkpt>
      <trkpt lat="44.70913" lon="5.19666">
        <ele>323</ele>
        <time>2022-11-17T10:03:32Z</time>
      </trkpt>
      <trkpt lat="44.70923" lon="5.1965">
        <ele>321</ele>
        <time>2022-11-17T10:03:32Z</time>
      </trkpt>
      <trkpt lat="44.70929" lon="5.19645">
        <ele>321</ele>
        <time>2022-11-17T10:03:32Z</time>
      </trkpt>
      <trkpt lat="44.70949" lon="5.19639">
        <ele>319</ele>
        <time>2022-11-17T10:03:32Z</time>
      </trkpt>
      <trkpt lat="44.70957" lon="5.19633">
        <ele>319</ele>
        <time>2022-11-17T10:03:32Z</time>
      </trkpt>
      <trkpt lat="44.7096" lon="5.19624">
        <ele>318</ele>
        <time>2022-11-17T10:03:32Z</time>
      </trkpt>
      <trkpt lat="44.70956" lon="5.19609">
        <ele>318</ele>
        <time>2022-11-17T10:03:32Z</time>
      </trkpt>
      <trkpt lat="44.70949" lon="5.19599">
        <ele>319</ele>
        <time>2022-11-17T10:03:32Z</time>
      </trkpt>
      <trkpt lat="44.70944" lon="5.19589">
        <ele>320</ele>
        <time>2022-11-17T10:03:32Z</time>
      </trkpt>
      <trkpt lat="44.70943" lon="5.19575">
        <ele>321</ele>
        <time>2022-11-17T10:03:32Z</time>
      </trkpt>
      <trkpt lat="44.70945" lon="5.19562">
        <ele>322</ele>
        <time>2022-11-17T10:03:32Z</time>
      </trkpt>
      <trkpt lat="44.71001" lon="5.1944">
        <ele>326</ele>
        <time>2022-11-17T10:03:32Z</time>
      </trkpt>
      <trkpt lat="44.71049" lon="5.19289">
        <ele>328</ele>
        <time>2022-11-17T10:03:32Z</time>
      </trkpt>
      <trkpt lat="44.7107" lon="5.19259">
        <ele>328</ele>
        <time>2022-11-17T10:03:32Z</time>
      </trkpt>
      <trkpt lat="44.71122" lon="5.19216">
        <ele>330</ele>
        <time>2022-11-17T10:03:32Z</time>
      </trkpt>
      <trkpt lat="44.71129" lon="5.19214">
        <ele>330</ele>
        <time>2022-11-17T10:03:32Z</time>
      </trkpt>
      <trkpt lat="44.71153" lon="5.19221">
        <ele>332</ele>
        <time>2022-11-17T10:03:32Z</time>
      </trkpt>
      <trkpt lat="44.71163" lon="5.19221">
        <ele>333</ele>
        <time>2022-11-17T10:03:32Z</time>
      </trkpt>
      <trkpt lat="44.71224" lon="5.19191">
        <ele>333</ele>
        <time>2022-11-17T10:03:32Z</time>
      </trkpt>
      <trkpt lat="44.71309" lon="5.19161">
        <ele>336</ele>
        <time>2022-11-17T10:03:32Z</time>
      </trkpt>
      <trkpt lat="44.71334" lon="5.19168">
        <ele>339</ele>
        <time>2022-11-17T10:03:32Z</time>
      </trkpt>
      <trkpt lat="44.71358" lon="5.19158">
        <ele>340</ele>
        <time>2022-11-17T10:03:32Z</time>
      </trkpt>
      <trkpt lat="44.71408" lon="5.19108">
        <ele>339</ele>
        <time>2022-11-17T10:03:32Z</time>
      </trkpt>
      <trkpt lat="44.71467" lon="5.19092">
        <ele>344</ele>
        <time>2022-11-17T10:03:32Z</time>
      </trkpt>
      <trkpt lat="44.71489" lon="5.1909">
        <ele>347</ele>
        <time>2022-11-17T10:03:32Z</time>
      </trkpt>
      <trkpt lat="44.71482" lon="5.19094">
        <ele>348</ele>
        <time>2022-11-17T10:03:32Z</time>
      </trkpt>
      <trkpt lat="44.71492" lon="5.19104">
        <ele>352</ele>
        <time>2022-11-17T10:03:32Z</time>
      </trkpt>
      <trkpt lat="44.71523" lon="5.19126">
        <ele>355</ele>
        <time>2022-11-17T10:03:32Z</time>
      </trkpt>
      <trkpt lat="44.7156" lon="5.19136">
        <ele>359</ele>
        <time>2022-11-17T10:03:32Z</time>
      </trkpt>
      <trkpt lat="44.71586" lon="5.19136">
        <ele>362</ele>
        <time>2022-11-17T10:03:32Z</time>
      </trkpt>
      <trkpt lat="44.71647" lon="5.19158">
        <ele>367</ele>
        <time>2022-11-17T10:03:32Z</time>
      </trkpt>
      <trkpt lat="44.71676" lon="5.19185">
        <ele>370</ele>
        <time>2022-11-17T10:03:32Z</time>
      </trkpt>
      <trkpt lat="44.71692" lon="5.1919">
        <ele>372</ele>
        <time>2022-11-17T10:03:32Z</time>
      </trkpt>
      <trkpt lat="44.71694" lon="5.19201">
        <ele>373</ele>
        <time>2022-11-17T10:03:32Z</time>
      </trkpt>
      <trkpt lat="44.71688" lon="5.19207">
        <ele>373</ele>
        <time>2022-11-17T10:03:32Z</time>
      </trkpt>
      <trkpt lat="44.71673" lon="5.19205">
        <ele>374</ele>
        <time>2022-11-17T10:03:32Z</time>
      </trkpt>
      <trkpt lat="44.71648" lon="5.19193">
        <ele>376</ele>
        <time>2022-11-17T10:03:32Z</time>
      </trkpt>
      <trkpt lat="44.7164" lon="5.19192">
        <ele>376</ele>
        <time>2022-11-17T10:03:32Z</time>
      </trkpt>
      <trkpt lat="44.71632" lon="5.19194">
        <ele>377</ele>
        <time>2022-11-17T10:03:32Z</time>
      </trkpt>
      <trkpt lat="44.71623" lon="5.19199">
        <ele>378</ele>
        <time>2022-11-17T10:03:32Z</time>
      </trkpt>
      <trkpt lat="44.71595" lon="5.19205">
        <ele>380</ele>
        <time>2022-11-17T10:03:32Z</time>
      </trkpt>
      <trkpt lat="44.71578" lon="5.19218">
        <ele>382</ele>
        <time>2022-11-17T10:03:32Z</time>
      </trkpt>
      <trkpt lat="44.7156" lon="5.19245">
        <ele>384</ele>
        <time>2022-11-17T10:03:32Z</time>
      </trkpt>
      <trkpt lat="44.71551" lon="5.19251">
        <ele>385</ele>
        <time>2022-11-17T10:03:32Z</time>
      </trkpt>
      <trkpt lat="44.71542" lon="5.19252">
        <ele>385</ele>
        <time>2022-11-17T10:03:32Z</time>
      </trkpt>
      <trkpt lat="44.71535" lon="5.1925">
        <ele>386</ele>
        <time>2022-11-17T10:03:32Z</time>
      </trkpt>
      <trkpt lat="44.71526" lon="5.19244">
        <ele>387</ele>
        <time>2022-11-17T10:03:32Z</time>
      </trkpt>
      <trkpt lat="44.71517" lon="5.19242">
        <ele>387</ele>
        <time>2022-11-17T10:03:32Z</time>
      </trkpt>
      <trkpt lat="44.7149" lon="5.19248">
        <ele>390</ele>
        <time>2022-11-17T10:03:32Z</time>
      </trkpt>
      <trkpt lat="44.71481" lon="5.19254">
        <ele>390</ele>
        <time>2022-11-17T10:03:32Z</time>
      </trkpt>
      <trkpt lat="44.71468" lon="5.19266">
        <ele>392</ele>
        <time>2022-11-17T10:03:32Z</time>
      </trkpt>
      <trkpt lat="44.71445" lon="5.19281">
        <ele>394</ele>
        <time>2022-11-17T10:03:32Z</time>
      </trkpt>
      <trkpt lat="44.71432" lon="5.19297">
        <ele>395</ele>
        <time>2022-11-17T10:03:32Z</time>
      </trkpt>
      <trkpt lat="44.71417" lon="5.19305">
        <ele>397</ele>
        <time>2022-11-17T10:03:32Z</time>
      </trkpt>
      <trkpt lat="44.71366" lon="5.19319">
        <ele>401</ele>
        <time>2022-11-17T10:03:32Z</time>
      </trkpt>
      <trkpt lat="44.71185" lon="5.19415">
        <ele>413</ele>
        <time>2022-11-17T10:03:32Z</time>
      </trkpt>
      <trkpt lat="44.71177" lon="5.19427">
        <ele>413</ele>
        <time>2022-11-17T10:03:32Z</time>
      </trkpt>
      <trkpt lat="44.71176" lon="5.19439">
        <ele>413</ele>
        <time>2022-11-17T10:03:32Z</time>
      </trkpt>
      <trkpt lat="44.71221" lon="5.19575">
        <ele>417</ele>
        <time>2022-11-17T10:03:32Z</time>
      </trkpt>
      <trkpt lat="44.71229" lon="5.19582">
        <ele>418</ele>
        <time>2022-11-17T10:03:32Z</time>
      </trkpt>
      <trkpt lat="44.71239" lon="5.19584">
        <ele>418</ele>
        <time>2022-11-17T10:03:32Z</time>
      </trkpt>
      <trkpt lat="44.71286" lon="5.19578">
        <ele>422</ele>
        <time>2022-11-17T10:03:32Z</time>
      </trkpt>
      <trkpt lat="44.71303" lon="5.19583">
        <ele>424</ele>
        <time>2022-11-17T10:03:32Z</time>
      </trkpt>
      <trkpt lat="44.7132" lon="5.19593">
        <ele>425</ele>
        <time>2022-11-17T10:03:32Z</time>
      </trkpt>
      <trkpt lat="44.71332" lon="5.19607">
        <ele>427</ele>
        <time>2022-11-17T10:03:32Z</time>
      </trkpt>
      <trkpt lat="44.71355" lon="5.19664">
        <ele>431</ele>
        <time>2022-11-17T10:03:32Z</time>
      </trkpt>
      <trkpt lat="44.71378" lon="5.19689">
        <ele>434</ele>
        <time>2022-11-17T10:03:32Z</time>
      </trkpt>
      <trkpt lat="44.71405" lon="5.19702">
        <ele>435</ele>
        <time>2022-11-17T10:03:32Z</time>
      </trkpt>
      <trkpt lat="44.71459" lon="5.19709">
        <ele>436</ele>
        <time>2022-11-17T10:03:32Z</time>
      </trkpt>
      <trkpt lat="44.71467" lon="5.19707">
        <ele>436</ele>
        <time>2022-11-17T10:03:32Z</time>
      </trkpt>
      <trkpt lat="44.71544" lon="5.19655">
        <ele>437</ele>
        <time>2022-11-17T10:03:32Z</time>
      </trkpt>
      <trkpt lat="44.71589" lon="5.19644">
        <ele>439</ele>
        <time>2022-11-17T10:03:32Z</time>
      </trkpt>
      <trkpt lat="44.71624" lon="5.19649">
        <ele>439</ele>
        <time>2022-11-17T10:03:32Z</time>
      </trkpt>
      <trkpt lat="44.71634" lon="5.19646">
        <ele>439</ele>
        <time>2022-11-17T10:03:32Z</time>
      </trkpt>
      <trkpt lat="44.71722" lon="5.19598">
        <ele>431</ele>
        <time>2022-11-17T10:03:32Z</time>
      </trkpt>
      <trkpt lat="44.71769" lon="5.19587">
        <ele>427</ele>
        <time>2022-11-17T10:03:32Z</time>
      </trkpt>
      <trkpt lat="44.71808" lon="5.19567">
        <ele>423</ele>
        <time>2022-11-17T10:03:32Z</time>
      </trkpt>
      <trkpt lat="44.71914" lon="5.19541">
        <ele>416</ele>
        <time>2022-11-17T10:03:32Z</time>
      </trkpt>
      <trkpt lat="44.71947" lon="5.19566">
        <ele>413</ele>
        <time>2022-11-17T10:03:32Z</time>
      </trkpt>
      <trkpt lat="44.71957" lon="5.19567">
        <ele>412</ele>
        <time>2022-11-17T10:03:32Z</time>
      </trkpt>
      <trkpt lat="44.71967" lon="5.19565">
        <ele>411</ele>
        <time>2022-11-17T10:03:32Z</time>
      </trkpt>
      <trkpt lat="44.72018" lon="5.19522">
        <ele>406</ele>
        <time>2022-11-17T10:03:32Z</time>
      </trkpt>
      <trkpt lat="44.72058" lon="5.19525">
        <ele>404</ele>
        <time>2022-11-17T10:03:32Z</time>
      </trkpt>
      <trkpt lat="44.72139" lon="5.19509">
        <ele>401</ele>
        <time>2022-11-17T10:03:32Z</time>
      </trkpt>
      <trkpt lat="44.72146" lon="5.19514">
        <ele>401</ele>
        <time>2022-11-17T10:03:32Z</time>
      </trkpt>
      <trkpt lat="44.72149" lon="5.19524">
        <ele>401</ele>
        <time>2022-11-17T10:03:32Z</time>
      </trkpt>
      <trkpt lat="44.72135" lon="5.19539">
        <ele>401</ele>
        <time>2022-11-17T10:03:32Z</time>
      </trkpt>
      <trkpt lat="44.72033" lon="5.19599">
        <ele>404</ele>
        <time>2022-11-17T10:03:33Z</time>
      </trkpt>
      <trkpt lat="44.72012" lon="5.19629">
        <ele>406</ele>
        <time>2022-11-17T10:03:33Z</time>
      </trkpt>
      <trkpt lat="44.72007" lon="5.19637">
        <ele>409</ele>
        <time>2022-11-17T10:03:33Z</time>
      </trkpt>
      <trkpt lat="44.72" lon="5.19646">
        <ele>409</ele>
        <time>2022-11-17T10:03:33Z</time>
      </trkpt>
      <trkpt lat="44.71987" lon="5.19663">
        <ele>411</ele>
        <time>2022-11-17T10:03:33Z</time>
      </trkpt>
      <trkpt lat="44.71978" lon="5.19669">
        <ele>411</ele>
        <time>2022-11-17T10:03:33Z</time>
      </trkpt>
      <trkpt lat="44.71969" lon="5.19674">
        <ele>414</ele>
        <time>2022-11-17T10:03:33Z</time>
      </trkpt>
      <trkpt lat="44.71962" lon="5.19681">
        <ele>413</ele>
        <time>2022-11-17T10:03:33Z</time>
      </trkpt>
      <trkpt lat="44.71921" lon="5.19697">
        <ele>414</ele>
        <time>2022-11-17T10:03:33Z</time>
      </trkpt>
      <trkpt lat="44.71845" lon="5.19726">
        <ele>410</ele>
        <time>2022-11-17T10:03:33Z</time>
      </trkpt>
      <trkpt lat="44.71825" lon="5.19745">
        <ele>409</ele>
        <time>2022-11-17T10:03:33Z</time>
      </trkpt>
      <trkpt lat="44.71818" lon="5.19749">
        <ele>405</ele>
        <time>2022-11-17T10:03:33Z</time>
      </trkpt>
      <trkpt lat="44.7179" lon="5.19775">
        <ele>407</ele>
        <time>2022-11-17T10:03:33Z</time>
      </trkpt>
      <trkpt lat="44.71754" lon="5.19815">
        <ele>400</ele>
        <time>2022-11-17T10:03:33Z</time>
      </trkpt>
      <trkpt lat="44.71748" lon="5.19824">
        <ele>400</ele>
        <time>2022-11-17T10:03:33Z</time>
      </trkpt>
      <trkpt lat="44.71735" lon="5.19839">
        <ele>399</ele>
        <time>2022-11-17T10:03:33Z</time>
      </trkpt>
      <trkpt lat="44.71704" lon="5.19894">
        <ele>400</ele>
        <time>2022-11-17T10:03:33Z</time>
      </trkpt>
      <trkpt lat="44.71697" lon="5.19905">
        <ele>394</ele>
        <time>2022-11-17T10:03:33Z</time>
      </trkpt>
      <trkpt lat="44.71691" lon="5.19913">
        <ele>396</ele>
        <time>2022-11-17T10:03:33Z</time>
      </trkpt>
      <trkpt lat="44.71686" lon="5.19926">
        <ele>396</ele>
        <time>2022-11-17T10:03:33Z</time>
      </trkpt>
      <trkpt lat="44.71683" lon="5.19938">
        <ele>392</ele>
        <time>2022-11-17T10:03:33Z</time>
      </trkpt>
      <trkpt lat="44.71684" lon="5.19951">
        <ele>393</ele>
        <time>2022-11-17T10:03:33Z</time>
      </trkpt>
      <trkpt lat="44.71684" lon="5.19962">
        <ele>393</ele>
        <time>2022-11-17T10:03:33Z</time>
      </trkpt>
      <trkpt lat="44.71676" lon="5.19963">
        <ele>393</ele>
        <time>2022-11-17T10:03:33Z</time>
      </trkpt>
      <trkpt lat="44.7167" lon="5.19952">
        <ele>388</ele>
        <time>2022-11-17T10:03:33Z</time>
      </trkpt>
      <trkpt lat="44.71667" lon="5.19941">
        <ele>387</ele>
        <time>2022-11-17T10:03:33Z</time>
      </trkpt>
      <trkpt lat="44.71666" lon="5.1993">
        <ele>387</ele>
        <time>2022-11-17T10:03:33Z</time>
      </trkpt>
      <trkpt lat="44.71667" lon="5.19907">
        <ele>386</ele>
        <time>2022-11-17T10:03:33Z</time>
      </trkpt>
      <trkpt lat="44.71671" lon="5.19893">
        <ele>385</ele>
        <time>2022-11-17T10:03:33Z</time>
      </trkpt>
      <trkpt lat="44.71675" lon="5.19883">
        <ele>388</ele>
        <time>2022-11-17T10:03:33Z</time>
      </trkpt>
      <trkpt lat="44.71677" lon="5.19873">
        <ele>387</ele>
        <time>2022-11-17T10:03:33Z</time>
      </trkpt>
      <trkpt lat="44.71676" lon="5.19863">
        <ele>387</ele>
        <time>2022-11-17T10:03:33Z</time>
      </trkpt>
      <trkpt lat="44.71681" lon="5.19853">
        <ele>385</ele>
        <time>2022-11-17T10:03:33Z</time>
      </trkpt>
      <trkpt lat="44.71686" lon="5.19845">
        <ele>388</ele>
        <time>2022-11-17T10:03:33Z</time>
      </trkpt>
      <trkpt lat="44.71686" lon="5.19835">
        <ele>385</ele>
        <time>2022-11-17T10:03:33Z</time>
      </trkpt>
      <trkpt lat="44.71679" lon="5.19831">
        <ele>384</ele>
        <time>2022-11-17T10:03:33Z</time>
      </trkpt>
      <trkpt lat="44.71664" lon="5.19835">
        <ele>383</ele>
        <time>2022-11-17T10:03:33Z</time>
      </trkpt>
      <trkpt lat="44.71646" lon="5.19855">
        <ele>381</ele>
        <time>2022-11-17T10:03:33Z</time>
      </trkpt>
      <trkpt lat="44.71638" lon="5.19859">
        <ele>381</ele>
        <time>2022-11-17T10:03:33Z</time>
      </trkpt>
      <trkpt lat="44.71624" lon="5.19862">
        <ele>379</ele>
        <time>2022-11-17T10:03:33Z</time>
      </trkpt>
      <trkpt lat="44.71598" lon="5.19906">
        <ele>375</ele>
        <time>2022-11-17T10:03:33Z</time>
      </trkpt>
      <trkpt lat="44.71591" lon="5.19901">
        <ele>375</ele>
        <time>2022-11-17T10:03:33Z</time>
      </trkpt>
      <trkpt lat="44.71588" lon="5.19892">
        <ele>377</ele>
        <time>2022-11-17T10:03:33Z</time>
      </trkpt>
      <trkpt lat="44.71584" lon="5.19902">
        <ele>375</ele>
        <time>2022-11-17T10:03:33Z</time>
      </trkpt>
      <trkpt lat="44.71585" lon="5.19935">
        <ele>372</ele>
        <time>2022-11-17T10:03:33Z</time>
      </trkpt>
      <trkpt lat="44.7158" lon="5.19928">
        <ele>372</ele>
        <time>2022-11-17T10:03:33Z</time>
      </trkpt>
      <trkpt lat="44.71574" lon="5.19917">
        <ele>374</ele>
        <time>2022-11-17T10:03:33Z</time>
      </trkpt>
      <trkpt lat="44.7157" lon="5.19909">
        <ele>376</ele>
        <time>2022-11-17T10:03:33Z</time>
      </trkpt>
      <trkpt lat="44.71562" lon="5.19911">
        <ele>375</ele>
        <time>2022-11-17T10:03:33Z</time>
      </trkpt>
      <trkpt lat="44.71558" lon="5.19921">
        <ele>375</ele>
        <time>2022-11-17T10:03:33Z</time>
      </trkpt>
      <trkpt lat="44.71556" lon="5.19931">
        <ele>373</ele>
        <time>2022-11-17T10:03:33Z</time>
      </trkpt>
      <trkpt lat="44.71556" lon="5.19943">
        <ele>373</ele>
        <time>2022-11-17T10:03:33Z</time>
      </trkpt>
      <trkpt lat="44.71554" lon="5.19957">
        <ele>372</ele>
        <time>2022-11-17T10:03:33Z</time>
      </trkpt>
      <trkpt lat="44.71563" lon="5.20005">
        <ele>374</ele>
        <time>2022-11-17T10:03:33Z</time>
      </trkpt>
      <trkpt lat="44.71562" lon="5.20055">
        <ele>375</ele>
        <time>2022-11-17T10:03:33Z</time>
      </trkpt>
      <trkpt lat="44.71569" lon="5.20113">
        <ele>377</ele>
        <time>2022-11-17T10:03:33Z</time>
      </trkpt>
      <trkpt lat="44.71565" lon="5.2015">
        <ele>378</ele>
        <time>2022-11-17T10:03:33Z</time>
      </trkpt>
      <trkpt lat="44.71568" lon="5.20196">
        <ele>379</ele>
        <time>2022-11-17T10:03:33Z</time>
      </trkpt>
      <trkpt lat="44.71573" lon="5.20208">
        <ele>380</ele>
        <time>2022-11-17T10:03:33Z</time>
      </trkpt>
      <trkpt lat="44.7163" lon="5.20253">
        <ele>383</ele>
        <time>2022-11-17T10:03:33Z</time>
      </trkpt>
      <trkpt lat="44.71663" lon="5.20259">
        <ele>384</ele>
        <time>2022-11-17T10:03:33Z</time>
      </trkpt>
      <trkpt lat="44.7171" lon="5.20248">
        <ele>387</ele>
        <time>2022-11-17T10:03:33Z</time>
      </trkpt>
      <trkpt lat="44.71736" lon="5.20232">
        <ele>391</ele>
        <time>2022-11-17T10:03:33Z</time>
      </trkpt>
      <trkpt lat="44.71743" lon="5.20222">
        <ele>392</ele>
        <time>2022-11-17T10:03:33Z</time>
      </trkpt>
      <trkpt lat="44.71772" lon="5.202">
        <ele>397</ele>
        <time>2022-11-17T10:03:33Z</time>
      </trkpt>
      <trkpt lat="44.71782" lon="5.20201">
        <ele>398</ele>
        <time>2022-11-17T10:03:33Z</time>
      </trkpt>
      <trkpt lat="44.71791" lon="5.20206">
        <ele>400</ele>
        <time>2022-11-17T10:03:33Z</time>
      </trkpt>
      <trkpt lat="44.71817" lon="5.20241">
        <ele>404</ele>
        <time>2022-11-17T10:03:33Z</time>
      </trkpt>
      <trkpt lat="44.71825" lon="5.20245">
        <ele>404</ele>
        <time>2022-11-17T10:03:33Z</time>
      </trkpt>
      <trkpt lat="44.7189" lon="5.20255">
        <ele>409</ele>
        <time>2022-11-17T10:03:33Z</time>
      </trkpt>
      <trkpt lat="44.7194" lon="5.20282">
        <ele>410</ele>
        <time>2022-11-17T10:03:33Z</time>
      </trkpt>
      <trkpt lat="44.71936" lon="5.20292">
        <ele>411</ele>
        <time>2022-11-17T10:03:33Z</time>
      </trkpt>
      <trkpt lat="44.7193" lon="5.20288">
        <ele>411</ele>
        <time>2022-11-17T10:03:33Z</time>
      </trkpt>
      <trkpt lat="44.71922" lon="5.2029">
        <ele>413</ele>
        <time>2022-11-17T10:03:33Z</time>
      </trkpt>
      <trkpt lat="44.71922" lon="5.203">
        <ele>414</ele>
        <time>2022-11-17T10:03:33Z</time>
      </trkpt>
      <trkpt lat="44.71926" lon="5.20309">
        <ele>416</ele>
        <time>2022-11-17T10:03:33Z</time>
      </trkpt>
      <trkpt lat="44.71939" lon="5.20327">
        <ele>419</ele>
        <time>2022-11-17T10:03:33Z</time>
      </trkpt>
      <trkpt lat="44.71943" lon="5.20337">
        <ele>420</ele>
        <time>2022-11-17T10:03:33Z</time>
      </trkpt>
      <trkpt lat="44.71945" lon="5.2035">
        <ele>421</ele>
        <time>2022-11-17T10:03:33Z</time>
      </trkpt>
      <trkpt lat="44.71941" lon="5.20361">
        <ele>423</ele>
        <time>2022-11-17T10:03:33Z</time>
      </trkpt>
      <trkpt lat="44.71871" lon="5.20443">
        <ele>438</ele>
        <time>2022-11-17T10:03:33Z</time>
      </trkpt>
      <trkpt lat="44.71868" lon="5.20455">
        <ele>440</ele>
        <time>2022-11-17T10:03:33Z</time>
      </trkpt>
      <trkpt lat="44.71874" lon="5.20461">
        <ele>441</ele>
        <time>2022-11-17T10:03:33Z</time>
      </trkpt>
      <trkpt lat="44.71905" lon="5.20455">
        <ele>444</ele>
        <time>2022-11-17T10:03:33Z</time>
      </trkpt>
      <trkpt lat="44.71911" lon="5.20463">
        <ele>445</ele>
        <time>2022-11-17T10:03:33Z</time>
      </trkpt>
      <trkpt lat="44.71924" lon="5.20554">
        <ele>453</ele>
        <time>2022-11-17T10:03:33Z</time>
      </trkpt>
      <trkpt lat="44.71927" lon="5.20563">
        <ele>454</ele>
        <time>2022-11-17T10:03:33Z</time>
      </trkpt>
      <trkpt lat="44.71932" lon="5.20595">
        <ele>458</ele>
        <time>2022-11-17T10:03:33Z</time>
      </trkpt>
      <trkpt lat="44.7194" lon="5.20664">
        <ele>467</ele>
        <time>2022-11-17T10:03:33Z</time>
      </trkpt>
      <trkpt lat="44.71954" lon="5.20717">
        <ele>475</ele>
        <time>2022-11-17T10:03:33Z</time>
      </trkpt>
      <trkpt lat="44.71953" lon="5.2074">
        <ele>479</ele>
        <time>2022-11-17T10:03:33Z</time>
      </trkpt>
      <trkpt lat="44.71945" lon="5.20775">
        <ele>484</ele>
        <time>2022-11-17T10:03:33Z</time>
      </trkpt>
      <trkpt lat="44.71933" lon="5.20804">
        <ele>488</ele>
        <time>2022-11-17T10:03:33Z</time>
      </trkpt>
      <trkpt lat="44.719" lon="5.20854">
        <ele>496</ele>
        <time>2022-11-17T10:03:33Z</time>
      </trkpt>
      <trkpt lat="44.71895" lon="5.20867">
        <ele>497</ele>
        <time>2022-11-17T10:03:33Z</time>
      </trkpt>
      <trkpt lat="44.71896" lon="5.20878">
        <ele>498</ele>
        <time>2022-11-17T10:03:33Z</time>
      </trkpt>
      <trkpt lat="44.71903" lon="5.20882">
        <ele>498</ele>
        <time>2022-11-17T10:03:33Z</time>
      </trkpt>
      <trkpt lat="44.71966" lon="5.2088">
        <ele>505</ele>
        <time>2022-11-17T10:03:33Z</time>
      </trkpt>
      <trkpt lat="44.71975" lon="5.20884">
        <ele>506</ele>
        <time>2022-11-17T10:03:33Z</time>
      </trkpt>
      <trkpt lat="44.71977" lon="5.20893">
        <ele>507</ele>
        <time>2022-11-17T10:03:33Z</time>
      </trkpt>
      <trkpt lat="44.71969" lon="5.209">
        <ele>508</ele>
        <time>2022-11-17T10:03:33Z</time>
      </trkpt>
      <trkpt lat="44.71954" lon="5.20904">
        <ele>511</ele>
        <time>2022-11-17T10:03:33Z</time>
      </trkpt>
      <trkpt lat="44.71922" lon="5.20926">
        <ele>515</ele>
        <time>2022-11-17T10:03:33Z</time>
      </trkpt>
      <trkpt lat="44.71898" lon="5.20952">
        <ele>519</ele>
        <time>2022-11-17T10:03:33Z</time>
      </trkpt>
      <trkpt lat="44.71879" lon="5.20958">
        <ele>522</ele>
        <time>2022-11-17T10:03:33Z</time>
      </trkpt>
      <trkpt lat="44.71871" lon="5.2096">
        <ele>524</ele>
        <time>2022-11-17T10:03:33Z</time>
      </trkpt>
      <trkpt lat="44.71839" lon="5.2098">
        <ele>529</ele>
        <time>2022-11-17T10:03:33Z</time>
      </trkpt>
      <trkpt lat="44.71799" lon="5.21006">
        <ele>537</ele>
        <time>2022-11-17T10:03:33Z</time>
      </trkpt>
      <trkpt lat="44.71782" lon="5.2101">
        <ele>540</ele>
        <time>2022-11-17T10:03:33Z</time>
      </trkpt>
      <trkpt lat="44.71784" lon="5.2102">
        <ele>542</ele>
        <time>2022-11-17T10:03:33Z</time>
      </trkpt>
      <trkpt lat="44.71843" lon="5.21049">
        <ele>552</ele>
        <time>2022-11-17T10:03:33Z</time>
      </trkpt>
      <trkpt lat="44.71846" lon="5.21058">
        <ele>553</ele>
        <time>2022-11-17T10:03:33Z</time>
      </trkpt>
      <trkpt lat="44.71842" lon="5.21067">
        <ele>554</ele>
        <time>2022-11-17T10:03:33Z</time>
      </trkpt>
      <trkpt lat="44.71834" lon="5.21067">
        <ele>556</ele>
        <time>2022-11-17T10:03:33Z</time>
      </trkpt>
      <trkpt lat="44.71818" lon="5.21074">
        <ele>559</ele>
        <time>2022-11-17T10:03:33Z</time>
      </trkpt>
      <trkpt lat="44.71811" lon="5.21073">
        <ele>560</ele>
        <time>2022-11-17T10:03:33Z</time>
      </trkpt>
      <trkpt lat="44.71781" lon="5.21079">
        <ele>565</ele>
        <time>2022-11-17T10:03:33Z</time>
      </trkpt>
      <trkpt lat="44.7175" lon="5.21079">
        <ele>568</ele>
        <time>2022-11-17T10:03:33Z</time>
      </trkpt>
      <trkpt lat="44.71728" lon="5.2109">
        <ele>571</ele>
        <time>2022-11-17T10:03:33Z</time>
      </trkpt>
      <trkpt lat="44.7172" lon="5.21088">
        <ele>572</ele>
        <time>2022-11-17T10:03:33Z</time>
      </trkpt>
      <trkpt lat="44.71713" lon="5.21066">
        <ele>572</ele>
        <time>2022-11-17T10:03:33Z</time>
      </trkpt>
      <trkpt lat="44.71712" lon="5.20995">
        <ele>573</ele>
        <time>2022-11-17T10:03:33Z</time>
      </trkpt>
      <trkpt lat="44.71715" lon="5.20983">
        <ele>573</ele>
        <time>2022-11-17T10:03:33Z</time>
      </trkpt>
      <trkpt lat="44.71717" lon="5.20947">
        <ele>573</ele>
        <time>2022-11-17T10:03:33Z</time>
      </trkpt>
      <trkpt lat="44.71711" lon="5.20901">
        <ele>575</ele>
        <time>2022-11-17T10:03:33Z</time>
      </trkpt>
      <trkpt lat="44.71698" lon="5.20881">
        <ele>576</ele>
        <time>2022-11-17T10:03:33Z</time>
      </trkpt>
      <trkpt lat="44.71691" lon="5.20876">
        <ele>576</ele>
        <time>2022-11-17T10:03:33Z</time>
      </trkpt>
      <trkpt lat="44.71675" lon="5.20873">
        <ele>576</ele>
        <time>2022-11-17T10:03:33Z</time>
      </trkpt>
      <trkpt lat="44.71649" lon="5.20881">
        <ele>574</ele>
        <time>2022-11-17T10:03:33Z</time>
      </trkpt>
      <trkpt lat="44.71629" lon="5.20901">
        <ele>573</ele>
        <time>2022-11-17T10:03:33Z</time>
      </trkpt>
      <trkpt lat="44.71583" lon="5.20925">
        <ele>568</ele>
        <time>2022-11-17T10:03:33Z</time>
      </trkpt>
      <trkpt lat="44.71577" lon="5.20917">
        <ele>567</ele>
        <time>2022-11-17T10:03:33Z</time>
      </trkpt>
      <trkpt lat="44.71556" lon="5.20862">
        <ele>570</ele>
        <time>2022-11-17T10:03:33Z</time>
      </trkpt>
      <trkpt lat="44.71542" lon="5.2085">
        <ele>571</ele>
        <time>2022-11-17T10:03:33Z</time>
      </trkpt>
      <trkpt lat="44.71526" lon="5.20854">
        <ele>571</ele>
        <time>2022-11-17T10:03:33Z</time>
      </trkpt>
      <trkpt lat="44.71463" lon="5.209">
        <ele>569</ele>
        <time>2022-11-17T10:03:33Z</time>
      </trkpt>
      <trkpt lat="44.71456" lon="5.20899">
        <ele>569</ele>
        <time>2022-11-17T10:03:33Z</time>
      </trkpt>
      <trkpt lat="44.71448" lon="5.20902">
        <ele>569</ele>
        <time>2022-11-17T10:03:33Z</time>
      </trkpt>
      <trkpt lat="44.71442" lon="5.20894">
        <ele>569</ele>
        <time>2022-11-17T10:03:33Z</time>
      </trkpt>
      <trkpt lat="44.71438" lon="5.20869">
        <ele>569</ele>
        <time>2022-11-17T10:03:33Z</time>
      </trkpt>
      <trkpt lat="44.71438" lon="5.20857">
        <ele>569</ele>
        <time>2022-11-17T10:03:33Z</time>
      </trkpt>
      <trkpt lat="44.71421" lon="5.20786">
        <ele>568</ele>
        <time>2022-11-17T10:03:33Z</time>
      </trkpt>
      <trkpt lat="44.71415" lon="5.20776">
        <ele>567</ele>
        <time>2022-11-17T10:03:33Z</time>
      </trkpt>
      <trkpt lat="44.71401" lon="5.20759">
        <ele>566</ele>
        <time>2022-11-17T10:03:33Z</time>
      </trkpt>
      <trkpt lat="44.71386" lon="5.20734">
        <ele>564</ele>
        <time>2022-11-17T10:03:33Z</time>
      </trkpt>
      <trkpt lat="44.71382" lon="5.20722">
        <ele>563</ele>
        <time>2022-11-17T10:03:33Z</time>
      </trkpt>
      <trkpt lat="44.71375" lon="5.20675">
        <ele>562</ele>
        <time>2022-11-17T10:03:33Z</time>
      </trkpt>
      <trkpt lat="44.71371" lon="5.20587">
        <ele>560</ele>
        <time>2022-11-17T10:03:33Z</time>
      </trkpt>
      <trkpt lat="44.71327" lon="5.2049">
        <ele>556</ele>
        <time>2022-11-17T10:03:33Z</time>
      </trkpt>
      <trkpt lat="44.71321" lon="5.20481">
        <ele>556</ele>
        <time>2022-11-17T10:03:33Z</time>
      </trkpt>
      <trkpt lat="44.71317" lon="5.20457">
        <ele>554</ele>
        <time>2022-11-17T10:03:33Z</time>
      </trkpt>
      <trkpt lat="44.71285" lon="5.20404">
        <ele>552</ele>
        <time>2022-11-17T10:03:33Z</time>
      </trkpt>
      <trkpt lat="44.71277" lon="5.20397">
        <ele>552</ele>
        <time>2022-11-17T10:03:33Z</time>
      </trkpt>
      <trkpt lat="44.71271" lon="5.20388">
        <ele>552</ele>
        <time>2022-11-17T10:03:33Z</time>
      </trkpt>
      <trkpt lat="44.7124" lon="5.20373">
        <ele>552</ele>
        <time>2022-11-17T10:03:33Z</time>
      </trkpt>
      <trkpt lat="44.71226" lon="5.20359">
        <ele>551</ele>
        <time>2022-11-17T10:03:33Z</time>
      </trkpt>
      <trkpt lat="44.71094" lon="5.20304">
        <ele>536</ele>
        <time>2022-11-17T10:03:33Z</time>
      </trkpt>
      <trkpt lat="44.71086" lon="5.20305">
        <ele>535</ele>
        <time>2022-11-17T10:03:33Z</time>
      </trkpt>
      <trkpt lat="44.71078" lon="5.20302">
        <ele>533</ele>
        <time>2022-11-17T10:03:33Z</time>
      </trkpt>
      <trkpt lat="44.71063" lon="5.20289">
        <ele>529</ele>
        <time>2022-11-17T10:03:33Z</time>
      </trkpt>
      <trkpt lat="44.71057" lon="5.20283">
        <ele>527</ele>
        <time>2022-11-17T10:03:33Z</time>
      </trkpt>
      <trkpt lat="44.71049" lon="5.20278">
        <ele>525</ele>
        <time>2022-11-17T10:03:33Z</time>
      </trkpt>
      <trkpt lat="44.7104" lon="5.20277">
        <ele>522</ele>
        <time>2022-11-17T10:03:33Z</time>
      </trkpt>
      <trkpt lat="44.71033" lon="5.20281">
        <ele>520</ele>
        <time>2022-11-17T10:03:33Z</time>
      </trkpt>
      <trkpt lat="44.71028" lon="5.2029">
        <ele>518</ele>
        <time>2022-11-17T10:03:33Z</time>
      </trkpt>
      <trkpt lat="44.71023" lon="5.20296">
        <ele>516</ele>
        <time>2022-11-17T10:03:33Z</time>
      </trkpt>
      <trkpt lat="44.71011" lon="5.20313">
        <ele>512</ele>
        <time>2022-11-17T10:03:33Z</time>
      </trkpt>
      <trkpt lat="44.71005" lon="5.20322">
        <ele>510</ele>
        <time>2022-11-17T10:03:33Z</time>
      </trkpt>
      <trkpt lat="44.71001" lon="5.20331">
        <ele>508</ele>
        <time>2022-11-17T10:03:33Z</time>
      </trkpt>
      <trkpt lat="44.70995" lon="5.20353">
        <ele>504</ele>
        <time>2022-11-17T10:03:33Z</time>
      </trkpt>
      <trkpt lat="44.70992" lon="5.20375">
        <ele>501</ele>
        <time>2022-11-17T10:03:33Z</time>
      </trkpt>
      <trkpt lat="44.70987" lon="5.20384">
        <ele>499</ele>
        <time>2022-11-17T10:03:33Z</time>
      </trkpt>
      <trkpt lat="44.70978" lon="5.2037">
        <ele>491</ele>
        <time>2022-11-17T10:03:33Z</time>
      </trkpt>
      <trkpt lat="44.70969" lon="5.20371">
        <ele>489</ele>
        <time>2022-11-17T10:03:33Z</time>
      </trkpt>
      <trkpt lat="44.70962" lon="5.20366">
        <ele>488</ele>
        <time>2022-11-17T10:03:33Z</time>
      </trkpt>
      <trkpt lat="44.70956" lon="5.20344">
        <ele>486</ele>
        <time>2022-11-17T10:03:33Z</time>
      </trkpt>
      <trkpt lat="44.70928" lon="5.20287">
        <ele>482</ele>
        <time>2022-11-17T10:03:33Z</time>
      </trkpt>
      <trkpt lat="44.70907" lon="5.20259">
        <ele>479</ele>
        <time>2022-11-17T10:03:33Z</time>
      </trkpt>
      <trkpt lat="44.70891" lon="5.20227">
        <ele>476</ele>
        <time>2022-11-17T10:03:33Z</time>
      </trkpt>
      <trkpt lat="44.70885" lon="5.20205">
        <ele>473</ele>
        <time>2022-11-17T10:03:33Z</time>
      </trkpt>
      <trkpt lat="44.7088" lon="5.20174">
        <ele>468</ele>
        <time>2022-11-17T10:03:33Z</time>
      </trkpt>
      <trkpt lat="44.70875" lon="5.2015">
        <ele>464</ele>
        <time>2022-11-17T10:03:33Z</time>
      </trkpt>
      <trkpt lat="44.7087" lon="5.2014">
        <ele>462</ele>
        <time>2022-11-17T10:03:33Z</time>
      </trkpt>
      <trkpt lat="44.70866" lon="5.20126">
        <ele>459</ele>
        <time>2022-11-17T10:03:33Z</time>
      </trkpt>
      <trkpt lat="44.70854" lon="5.20094">
        <ele>453</ele>
        <time>2022-11-17T10:03:33Z</time>
      </trkpt>
      <trkpt lat="44.70849" lon="5.20085">
        <ele>451</ele>
        <time>2022-11-17T10:03:33Z</time>
      </trkpt>
      <trkpt lat="44.70845" lon="5.20074">
        <ele>449</ele>
        <time>2022-11-17T10:03:33Z</time>
      </trkpt>
      <trkpt lat="44.7084" lon="5.20064">
        <ele>446</ele>
        <time>2022-11-17T10:03:33Z</time>
      </trkpt>
      <trkpt lat="44.70834" lon="5.20058">
        <ele>444</ele>
        <time>2022-11-17T10:03:33Z</time>
      </trkpt>
      <trkpt lat="44.70826" lon="5.20056">
        <ele>442</ele>
        <time>2022-11-17T10:03:33Z</time>
      </trkpt>
      <trkpt lat="44.70818" lon="5.20057">
        <ele>439</ele>
        <time>2022-11-17T10:03:33Z</time>
      </trkpt>
      <trkpt lat="44.70814" lon="5.20037">
        <ele>434</ele>
        <time>2022-11-17T10:03:33Z</time>
      </trkpt>
      <trkpt lat="44.70821" lon="5.20029">
        <ele>431</ele>
        <time>2022-11-17T10:03:33Z</time>
      </trkpt>
      <trkpt lat="44.70827" lon="5.20023">
        <ele>429</ele>
        <time>2022-11-17T10:03:33Z</time>
      </trkpt>
      <trkpt lat="44.70833" lon="5.20016">
        <ele>427</ele>
        <time>2022-11-17T10:03:33Z</time>
      </trkpt>
      <trkpt lat="44.70828" lon="5.20008">
        <ele>421</ele>
        <time>2022-11-17T10:03:33Z</time>
      </trkpt>
      <trkpt lat="44.70832" lon="5.19999">
        <ele>418</ele>
        <time>2022-11-17T10:03:33Z</time>
      </trkpt>
      <trkpt lat="44.7084" lon="5.19997">
        <ele>416</ele>
        <time>2022-11-17T10:03:33Z</time>
      </trkpt>
      <trkpt lat="44.70844" lon="5.19989">
        <ele>414</ele>
        <time>2022-11-17T10:03:33Z</time>
      </trkpt>
      <trkpt lat="44.70821" lon="5.1998">
        <ele>409</ele>
        <time>2022-11-17T10:03:33Z</time>
      </trkpt>
      <trkpt lat="44.70813" lon="5.1998">
        <ele>407</ele>
        <time>2022-11-17T10:03:33Z</time>
      </trkpt>
      <trkpt lat="44.70803" lon="5.19983">
        <ele>406</ele>
        <time>2022-11-17T10:03:33Z</time>
      </trkpt>
      <trkpt lat="44.70796" lon="5.19989">
        <ele>404</ele>
        <time>2022-11-17T10:03:33Z</time>
      </trkpt>
      <trkpt lat="44.70789" lon="5.19992">
        <ele>404</ele>
        <time>2022-11-17T10:03:33Z</time>
      </trkpt>
      <trkpt lat="44.70763" lon="5.1999">
        <ele>403</ele>
        <time>2022-11-17T10:03:33Z</time>
      </trkpt>
      <trkpt lat="44.70727" lon="5.1997">
        <ele>402</ele>
        <time>2022-11-17T10:03:33Z</time>
      </trkpt>
      <trkpt lat="44.70684" lon="5.19981">
        <ele>404</ele>
        <time>2022-11-17T10:03:33Z</time>
      </trkpt>
      <trkpt lat="44.70677" lon="5.19979">
        <ele>404</ele>
        <time>2022-11-17T10:03:33Z</time>
      </trkpt>
      <trkpt lat="44.70666" lon="5.1998">
        <ele>403</ele>
        <time>2022-11-17T10:03:33Z</time>
      </trkpt>
      <trkpt lat="44.70648" lon="5.19988">
        <ele>403</ele>
        <time>2022-11-17T10:03:33Z</time>
      </trkpt>
      <trkpt lat="44.70637" lon="5.19987">
        <ele>402</ele>
        <time>2022-11-17T10:03:33Z</time>
      </trkpt>
      <trkpt lat="44.70611" lon="5.19992">
        <ele>401</ele>
        <time>2022-11-17T10:03:33Z</time>
      </trkpt>
      <trkpt lat="44.70603" lon="5.1999">
        <ele>401</ele>
        <time>2022-11-17T10:03:33Z</time>
      </trkpt>
      <trkpt lat="44.70597" lon="5.19995">
        <ele>401</ele>
        <time>2022-11-17T10:03:33Z</time>
      </trkpt>
      <trkpt lat="44.7059" lon="5.20003">
        <ele>401</ele>
        <time>2022-11-17T10:03:33Z</time>
      </trkpt>
      <trkpt lat="44.70573" lon="5.20011">
        <ele>402</ele>
        <time>2022-11-17T10:03:33Z</time>
      </trkpt>
      <trkpt lat="44.70566" lon="5.20019">
        <ele>402</ele>
        <time>2022-11-17T10:03:33Z</time>
      </trkpt>
      <trkpt lat="44.70516" lon="5.20053">
        <ele>405</ele>
        <time>2022-11-17T10:03:33Z</time>
      </trkpt>
      <trkpt lat="44.705" lon="5.20057">
        <ele>404</ele>
        <time>2022-11-17T10:03:33Z</time>
      </trkpt>
      <trkpt lat="44.7046" lon="5.20078">
        <ele>399</ele>
        <time>2022-11-17T10:03:33Z</time>
      </trkpt>
      <trkpt lat="44.70446" lon="5.20095">
        <ele>396</ele>
        <time>2022-11-17T10:03:33Z</time>
      </trkpt>
      <trkpt lat="44.70438" lon="5.20092">
        <ele>395</ele>
        <time>2022-11-17T10:03:34Z</time>
      </trkpt>
      <trkpt lat="44.70433" lon="5.2007">
        <ele>392</ele>
        <time>2022-11-17T10:03:34Z</time>
      </trkpt>
      <trkpt lat="44.7043" lon="5.20059">
        <ele>390</ele>
        <time>2022-11-17T10:03:34Z</time>
      </trkpt>
      <trkpt lat="44.70404" lon="5.20026">
        <ele>384</ele>
        <time>2022-11-17T10:03:34Z</time>
      </trkpt>
      <trkpt lat="44.70389" lon="5.20013">
        <ele>381</ele>
        <time>2022-11-17T10:03:34Z</time>
      </trkpt>
      <trkpt lat="44.7038" lon="5.20008">
        <ele>379</ele>
        <time>2022-11-17T10:03:34Z</time>
      </trkpt>
      <trkpt lat="44.70373" lon="5.20002">
        <ele>377</ele>
        <time>2022-11-17T10:03:34Z</time>
      </trkpt>
      <trkpt lat="44.70366" lon="5.19997">
        <ele>375</ele>
        <time>2022-11-17T10:03:34Z</time>
      </trkpt>
      <trkpt lat="44.70359" lon="5.19993">
        <ele>373</ele>
        <time>2022-11-17T10:03:34Z</time>
      </trkpt>
      <trkpt lat="44.70343" lon="5.19982">
        <ele>369</ele>
        <time>2022-11-17T10:03:34Z</time>
      </trkpt>
      <trkpt lat="44.70313" lon="5.19969">
        <ele>363</ele>
        <time>2022-11-17T10:03:34Z</time>
      </trkpt>
      <trkpt lat="44.70289" lon="5.19954">
        <ele>357</ele>
        <time>2022-11-17T10:03:34Z</time>
      </trkpt>
      <trkpt lat="44.70267" lon="5.19945">
        <ele>352</ele>
        <time>2022-11-17T10:03:34Z</time>
      </trkpt>
      <trkpt lat="44.70245" lon="5.19948">
        <ele>347</ele>
        <time>2022-11-17T10:03:34Z</time>
      </trkpt>
      <trkpt lat="44.7022" lon="5.19954">
        <ele>343</ele>
        <time>2022-11-17T10:03:34Z</time>
      </trkpt>
      <trkpt lat="44.70182" lon="5.19953">
        <ele>335</ele>
        <time>2022-11-17T10:03:34Z</time>
      </trkpt>
      <trkpt lat="44.70157" lon="5.19959">
        <ele>330</ele>
        <time>2022-11-17T10:03:34Z</time>
      </trkpt>
      <trkpt lat="44.70126" lon="5.19944">
        <ele>326</ele>
        <time>2022-11-17T10:03:34Z</time>
      </trkpt>
      <trkpt lat="44.70044" lon="5.19871">
        <ele>316</ele>
        <time>2022-11-17T10:03:34Z</time>
      </trkpt>
      <trkpt lat="44.70035" lon="5.19864">
        <ele>314</ele>
        <time>2022-11-17T10:03:34Z</time>
      </trkpt>
      <trkpt lat="44.70028" lon="5.19856">
        <ele>312</ele>
        <time>2022-11-17T10:03:34Z</time>
      </trkpt>
      <trkpt lat="44.7002" lon="5.1985">
        <ele>310</ele>
        <time>2022-11-17T10:03:34Z</time>
      </trkpt>
      <trkpt lat="44.70014" lon="5.19843">
        <ele>308</ele>
        <time>2022-11-17T10:03:34Z</time>
      </trkpt>
      <trkpt lat="44.70007" lon="5.19836">
        <ele>305</ele>
        <time>2022-11-17T10:03:34Z</time>
      </trkpt>
      <trkpt lat="44.70001" lon="5.19828">
        <ele>303</ele>
        <time>2022-11-17T10:03:34Z</time>
      </trkpt>
      <trkpt lat="44.69996" lon="5.1982">
        <ele>301</ele>
        <time>2022-11-17T10:03:34Z</time>
      </trkpt>
      <trkpt lat="44.69991" lon="5.19812">
        <ele>299</ele>
        <time>2022-11-17T10:03:34Z</time>
      </trkpt>
      <trkpt lat="44.69984" lon="5.19802">
        <ele>296</ele>
        <time>2022-11-17T10:03:34Z</time>
      </trkpt>
      <trkpt lat="44.69977" lon="5.19795">
        <ele>294</ele>
        <time>2022-11-17T10:03:34Z</time>
      </trkpt>
      <trkpt lat="44.69973" lon="5.19786">
        <ele>292</ele>
        <time>2022-11-17T10:03:34Z</time>
      </trkpt>
      <trkpt lat="44.69966" lon="5.19781">
        <ele>289</ele>
        <time>2022-11-17T10:03:34Z</time>
      </trkpt>
      <trkpt lat="44.69911" lon="5.19806">
        <ele>291</ele>
        <time>2022-11-17T10:03:34Z</time>
      </trkpt>
      <trkpt lat="44.69882" lon="5.19835">
        <ele>291</ele>
        <time>2022-11-17T10:03:34Z</time>
      </trkpt>
      <trkpt lat="44.69857" lon="5.19874">
        <ele>290</ele>
        <time>2022-11-17T10:03:34Z</time>
        <extensions>
          <visugpx:TrkExtension xmlns:visugpx="https://www.visugpx.com/editgpx/">
            <visugpx:node>1</visugpx:node>
            </visugpx:TrkExtension>
        </extensions>
      </trkpt>
    </trkseg>
  </trk>
  <trk>
    <name><![CDATA[VTT N° 1 Bis rouge - Col des Vachons - Ferme Favier - 16 km - déniv 650 m - VAE Noire]]></name>
    <extensions>
      <line xmlns="http://www.topografix.com/GPX/gpx_style/0/2">
        <color>fc0019</color>
        <width>4</width>
      </line>
    </extensions>
    <trkseg>
      <trkpt lat="44.69696" lon="5.19973">
        <ele>268</ele>
        <time>2022-12-03T08:48:56Z</time>
        <extensions>
          <visugpx:TrkExtension xmlns:visugpx="https://www.visugpx.com/editgpx/">
            <visugpx:node>1</visugpx:node>
            </visugpx:TrkExtension>
        </extensions>
      </trkpt>
      <trkpt lat="44.69688" lon="5.19968">
        <ele>268</ele>
        <time>2022-12-03T08:48:56Z</time>
      </trkpt>
      <trkpt lat="44.69692" lon="5.19891">
        <ele>269</ele>
        <time>2022-12-03T08:48:56Z</time>
      </trkpt>
      <trkpt lat="44.69684" lon="5.19882">
        <ele>269</ele>
        <time>2022-12-03T08:48:56Z</time>
      </trkpt>
      <trkpt lat="44.69675" lon="5.19878">
        <ele>269</ele>
        <time>2022-12-03T08:48:56Z</time>
      </trkpt>
      <trkpt lat="44.69676" lon="5.19864">
        <ele>269</ele>
        <time>2022-12-03T08:48:56Z</time>
      </trkpt>
      <trkpt lat="44.69663" lon="5.19726">
        <ele>268</ele>
        <time>2022-12-03T08:48:56Z</time>
      </trkpt>
      <trkpt lat="44.69654" lon="5.19726">
        <ele>267</ele>
        <time>2022-12-03T08:48:56Z</time>
      </trkpt>
      <trkpt lat="44.69649" lon="5.1971">
        <ele>267</ele>
        <time>2022-12-03T08:48:56Z</time>
      </trkpt>
      <trkpt lat="44.69767" lon="5.19705">
        <ele>266</ele>
        <time>2022-12-03T08:48:56Z</time>
      </trkpt>
      <trkpt lat="44.69779" lon="5.19696">
        <ele>265</ele>
        <time>2022-12-03T08:48:56Z</time>
      </trkpt>
      <trkpt lat="44.69796" lon="5.19695">
        <ele>265</ele>
        <time>2022-12-03T08:48:56Z</time>
      </trkpt>
      <trkpt lat="44.69878" lon="5.19724">
        <ele>267</ele>
        <time>2022-12-03T08:48:56Z</time>
      </trkpt>
      <trkpt lat="44.69914" lon="5.19722">
        <ele>270</ele>
        <time>2022-12-03T08:48:56Z</time>
      </trkpt>
      <trkpt lat="44.69928" lon="5.19725">
        <ele>271</ele>
        <time>2022-12-03T08:48:56Z</time>
      </trkpt>
      <trkpt lat="44.6996" lon="5.19776">
        <ele>275</ele>
        <time>2022-12-03T08:48:56Z</time>
      </trkpt>
      <trkpt lat="44.69961" lon="5.19787">
        <ele>278</ele>
        <time>2022-12-03T08:48:56Z</time>
      </trkpt>
      <trkpt lat="44.69971" lon="5.19785">
        <ele>280</ele>
        <time>2022-12-03T08:48:56Z</time>
      </trkpt>
      <trkpt lat="44.69981" lon="5.19787">
        <ele>281</ele>
        <time>2022-12-03T08:48:56Z</time>
      </trkpt>
      <trkpt lat="44.70121" lon="5.19778">
        <ele>284</ele>
        <time>2022-12-03T08:48:56Z</time>
      </trkpt>
      <trkpt lat="44.70203" lon="5.198">
        <ele>286</ele>
        <time>2022-12-03T08:48:56Z</time>
      </trkpt>
      <trkpt lat="44.70243" lon="5.19789">
        <ele>287</ele>
        <time>2022-12-03T08:48:56Z</time>
      </trkpt>
      <trkpt lat="44.70337" lon="5.19803">
        <ele>290</ele>
      </trkpt>
      <trkpt lat="44.7043" lon="5.19817">
        <ele>294</ele>
        <time>2022-12-03T08:48:56Z</time>
      </trkpt>
      <trkpt lat="44.7044" lon="5.19816">
        <ele>296</ele>
        <time>2022-12-03T08:48:56Z</time>
      </trkpt>
      <trkpt lat="44.70515" lon="5.19748">
        <ele>301</ele>
        <time>2022-12-03T08:48:56Z</time>
      </trkpt>
      <trkpt lat="44.70559" lon="5.19674">
        <ele>303</ele>
        <time>2022-12-03T08:48:56Z</time>
      </trkpt>
      <trkpt lat="44.70588" lon="5.19657">
        <ele>306</ele>
        <time>2022-12-03T08:48:56Z</time>
      </trkpt>
      <trkpt lat="44.70635" lon="5.19661">
        <ele>309</ele>
        <time>2022-12-03T08:48:56Z</time>
      </trkpt>
      <trkpt lat="44.70778" lon="5.19719">
        <ele>318</ele>
        <time>2022-12-03T08:48:56Z</time>
      </trkpt>
      <trkpt lat="44.70827" lon="5.19716">
        <ele>321</ele>
        <time>2022-12-03T08:48:56Z</time>
      </trkpt>
      <trkpt lat="44.70894" lon="5.19689">
        <ele>321</ele>
        <time>2022-12-03T08:48:56Z</time>
      </trkpt>
      <trkpt lat="44.70929" lon="5.19652">
        <ele>319</ele>
        <time>2022-12-03T08:48:56Z</time>
      </trkpt>
      <trkpt lat="44.70938" lon="5.19646">
        <ele>318</ele>
        <time>2022-12-03T08:48:56Z</time>
      </trkpt>
      <trkpt lat="44.7095" lon="5.19643">
        <ele>317</ele>
        <time>2022-12-03T08:48:56Z</time>
      </trkpt>
      <trkpt lat="44.70959" lon="5.19637">
        <ele>316</ele>
        <time>2022-12-03T08:48:56Z</time>
      </trkpt>
      <trkpt lat="44.70963" lon="5.19619">
        <ele>315</ele>
        <time>2022-12-03T08:48:56Z</time>
      </trkpt>
      <trkpt lat="44.70961" lon="5.19604">
        <ele>315</ele>
        <time>2022-12-03T08:48:56Z</time>
      </trkpt>
      <trkpt lat="44.70944" lon="5.19588">
        <ele>314</ele>
        <time>2022-12-03T08:48:56Z</time>
      </trkpt>
      <trkpt lat="44.70941" lon="5.19574">
        <ele>314</ele>
        <time>2022-12-03T08:48:56Z</time>
      </trkpt>
      <trkpt lat="44.70943" lon="5.19562">
        <ele>314</ele>
        <time>2022-12-03T08:48:56Z</time>
      </trkpt>
      <trkpt lat="44.70967" lon="5.19511">
        <ele>315</ele>
        <time>2022-12-03T08:48:56Z</time>
      </trkpt>
      <trkpt lat="44.71015" lon="5.19454">
        <ele>318</ele>
        <time>2022-12-03T08:48:56Z</time>
      </trkpt>
      <trkpt lat="44.71024" lon="5.19438">
        <ele>321</ele>
        <time>2022-12-03T08:48:56Z</time>
      </trkpt>
      <trkpt lat="44.71024" lon="5.19417">
        <ele>323</ele>
        <time>2022-12-03T08:48:56Z</time>
      </trkpt>
      <trkpt lat="44.71028" lon="5.19398">
        <ele>324</ele>
        <time>2022-12-03T08:48:56Z</time>
      </trkpt>
      <trkpt lat="44.71068" lon="5.19304">
        <ele>326</ele>
        <time>2022-12-03T08:48:56Z</time>
      </trkpt>
      <trkpt lat="44.71085" lon="5.19283">
        <ele>328</ele>
        <time>2022-12-03T08:48:56Z</time>
      </trkpt>
      <trkpt lat="44.71253" lon="5.19217">
        <ele>334</ele>
      </trkpt>
      <trkpt lat="44.7142" lon="5.1915">
        <ele>337</ele>
        <time>2022-12-03T08:48:56Z</time>
      </trkpt>
      <trkpt lat="44.71477" lon="5.19111">
        <ele>339</ele>
        <time>2022-12-03T08:48:56Z</time>
      </trkpt>
      <trkpt lat="44.71493" lon="5.1911">
        <ele>340</ele>
        <time>2022-12-03T08:48:56Z</time>
      </trkpt>
      <trkpt lat="44.71511" lon="5.19116">
        <ele>346</ele>
        <time>2022-12-03T08:48:56Z</time>
      </trkpt>
      <trkpt lat="44.7152" lon="5.19123">
        <ele>346</ele>
        <time>2022-12-03T08:48:56Z</time>
      </trkpt>
      <trkpt lat="44.71632" lon="5.19151">
        <ele>351</ele>
        <time>2022-12-03T08:48:56Z</time>
      </trkpt>
      <trkpt lat="44.71648" lon="5.1916">
        <ele>354</ele>
        <time>2022-12-03T08:48:56Z</time>
      </trkpt>
      <trkpt lat="44.7168" lon="5.19194">
        <ele>358</ele>
        <time>2022-12-03T08:48:56Z</time>
      </trkpt>
      <trkpt lat="44.71691" lon="5.19196">
        <ele>360</ele>
        <time>2022-12-03T08:48:56Z</time>
      </trkpt>
      <trkpt lat="44.71697" lon="5.1919">
        <ele>362</ele>
        <time>2022-12-03T08:48:56Z</time>
      </trkpt>
      <trkpt lat="44.71704" lon="5.19207">
        <ele>364</ele>
        <time>2022-12-03T08:48:56Z</time>
      </trkpt>
      <trkpt lat="44.71694" lon="5.19216">
        <ele>366</ele>
        <time>2022-12-03T08:48:56Z</time>
      </trkpt>
      <trkpt lat="44.71622" lon="5.19198">
        <ele>366</ele>
        <time>2022-12-03T08:48:56Z</time>
      </trkpt>
      <trkpt lat="44.71606" lon="5.19204">
        <ele>366</ele>
        <time>2022-12-03T08:48:56Z</time>
      </trkpt>
      <trkpt lat="44.71573" lon="5.1923">
        <ele>367</ele>
        <time>2022-12-03T08:48:56Z</time>
      </trkpt>
      <trkpt lat="44.71567" lon="5.19244">
        <ele>369</ele>
        <time>2022-12-03T08:48:56Z</time>
      </trkpt>
      <trkpt lat="44.71558" lon="5.19254">
        <ele>371</ele>
        <time>2022-12-03T08:48:56Z</time>
      </trkpt>
      <trkpt lat="44.71551" lon="5.19256">
        <ele>372</ele>
        <time>2022-12-03T08:48:56Z</time>
      </trkpt>
      <trkpt lat="44.715" lon="5.19245">
        <ele>373</ele>
        <time>2022-12-03T08:48:56Z</time>
      </trkpt>
      <trkpt lat="44.71492" lon="5.19247">
        <ele>373</ele>
        <time>2022-12-03T08:48:56Z</time>
      </trkpt>
      <trkpt lat="44.71476" lon="5.19256">
        <ele>374</ele>
        <time>2022-12-03T08:48:56Z</time>
      </trkpt>
      <trkpt lat="44.71429" lon="5.19306">
        <ele>379</ele>
        <time>2022-12-03T08:48:56Z</time>
      </trkpt>
      <trkpt lat="44.7142" lon="5.19312">
        <ele>382</ele>
        <time>2022-12-03T08:48:56Z</time>
      </trkpt>
      <trkpt lat="44.71385" lon="5.19314">
        <ele>385</ele>
        <time>2022-12-03T08:48:56Z</time>
      </trkpt>
      <trkpt lat="44.71185" lon="5.19413">
        <ele>394</ele>
        <time>2022-12-03T08:48:56Z</time>
      </trkpt>
      <trkpt lat="44.71175" lon="5.19428">
        <ele>399</ele>
        <time>2022-12-03T08:48:56Z</time>
      </trkpt>
      <trkpt lat="44.71173" lon="5.19438">
        <ele>401</ele>
        <time>2022-12-03T08:48:56Z</time>
      </trkpt>
      <trkpt lat="44.71174" lon="5.19449">
        <ele>402</ele>
        <time>2022-12-03T08:48:56Z</time>
      </trkpt>
      <trkpt lat="44.71221" lon="5.19581">
        <ele>405</ele>
        <time>2022-12-03T08:48:56Z</time>
      </trkpt>
      <trkpt lat="44.71234" lon="5.19587">
        <ele>407</ele>
        <time>2022-12-03T08:48:56Z</time>
      </trkpt>
      <trkpt lat="44.71258" lon="5.19584">
        <ele>409</ele>
        <time>2022-12-03T08:48:56Z</time>
      </trkpt>
      <trkpt lat="44.71308" lon="5.19593">
        <ele>413</ele>
        <time>2022-12-03T08:48:56Z</time>
      </trkpt>
      <trkpt lat="44.71333" lon="5.19613">
        <ele>416</ele>
        <time>2022-12-03T08:48:56Z</time>
      </trkpt>
      <trkpt lat="44.71352" lon="5.19662">
        <ele>417</ele>
        <time>2022-12-03T08:48:56Z</time>
      </trkpt>
      <trkpt lat="44.71376" lon="5.1969">
        <ele>418</ele>
        <time>2022-12-03T08:48:56Z</time>
      </trkpt>
      <trkpt lat="44.71387" lon="5.19696">
        <ele>419</ele>
        <time>2022-12-03T08:48:56Z</time>
      </trkpt>
      <trkpt lat="44.71458" lon="5.19711">
        <ele>420</ele>
        <time>2022-12-03T08:48:56Z</time>
      </trkpt>
      <trkpt lat="44.71466" lon="5.19707">
        <ele>420</ele>
        <time>2022-12-03T08:48:56Z</time>
      </trkpt>
      <trkpt lat="44.71498" lon="5.19678">
        <ele>421</ele>
        <time>2022-12-03T08:48:56Z</time>
      </trkpt>
      <trkpt lat="44.7157" lon="5.19646">
        <ele>423</ele>
        <time>2022-12-03T08:48:56Z</time>
      </trkpt>
      <trkpt lat="44.71627" lon="5.19649">
        <ele>423</ele>
        <time>2022-12-03T08:48:56Z</time>
      </trkpt>
      <trkpt lat="44.71668" lon="5.19621">
        <ele>424</ele>
        <time>2022-12-03T08:48:56Z</time>
      </trkpt>
      <trkpt lat="44.71903" lon="5.19538">
        <ele>416</ele>
        <time>2022-12-03T08:48:56Z</time>
      </trkpt>
      <trkpt lat="44.71915" lon="5.19541">
        <ele>412</ele>
        <time>2022-12-03T08:48:56Z</time>
      </trkpt>
      <trkpt lat="44.71926" lon="5.19553">
        <ele>409</ele>
        <time>2022-12-03T08:48:56Z</time>
      </trkpt>
      <trkpt lat="44.71943" lon="5.19565">
        <ele>407</ele>
        <time>2022-12-03T08:48:56Z</time>
      </trkpt>
      <trkpt lat="44.71956" lon="5.19568">
        <ele>404</ele>
        <time>2022-12-03T08:48:56Z</time>
      </trkpt>
      <trkpt lat="44.71966" lon="5.19567">
        <ele>403</ele>
        <time>2022-12-03T08:48:56Z</time>
      </trkpt>
      <trkpt lat="44.72019" lon="5.19525">
        <ele>400</ele>
        <time>2022-12-03T08:48:56Z</time>
      </trkpt>
      <trkpt lat="44.72057" lon="5.19527">
        <ele>397</ele>
        <time>2022-12-03T08:48:56Z</time>
      </trkpt>
      <trkpt lat="44.72142" lon="5.19511">
        <ele>393</ele>
        <time>2022-12-03T08:48:56Z</time>
      </trkpt>
      <trkpt lat="44.72149" lon="5.19526">
        <ele>391</ele>
        <time>2022-12-03T08:48:56Z</time>
      </trkpt>
      <trkpt lat="44.72157" lon="5.19528">
        <ele>390</ele>
        <time>2022-12-03T08:48:56Z</time>
      </trkpt>
      <trkpt lat="44.72236" lon="5.19504">
        <ele>391</ele>
        <time>2022-12-03T08:48:56Z</time>
      </trkpt>
      <trkpt lat="44.72388" lon="5.19401">
        <ele>394</ele>
        <time>2022-12-03T08:48:56Z</time>
      </trkpt>
      <trkpt lat="44.72383" lon="5.19309">
        <ele>392</ele>
        <time>2022-12-03T08:48:56Z</time>
      </trkpt>
      <trkpt lat="44.72387" lon="5.19283">
        <ele>392</ele>
        <time>2022-12-03T08:48:56Z</time>
      </trkpt>
      <trkpt lat="44.72383" lon="5.19257">
        <ele>392</ele>
        <time>2022-12-03T08:48:56Z</time>
      </trkpt>
      <trkpt lat="44.72384" lon="5.19239">
        <ele>393</ele>
        <time>2022-12-03T08:48:56Z</time>
      </trkpt>
      <trkpt lat="44.72389" lon="5.19228">
        <ele>394</ele>
        <time>2022-12-03T08:48:56Z</time>
      </trkpt>
      <trkpt lat="44.72388" lon="5.19215">
        <ele>394</ele>
        <time>2022-12-03T08:48:56Z</time>
      </trkpt>
      <trkpt lat="44.7239" lon="5.19184">
        <ele>395</ele>
        <time>2022-12-03T08:48:56Z</time>
      </trkpt>
      <trkpt lat="44.72388" lon="5.19172">
        <ele>396</ele>
        <time>2022-12-03T08:48:56Z</time>
      </trkpt>
      <trkpt lat="44.72389" lon="5.19158">
        <ele>397</ele>
        <time>2022-12-03T08:48:56Z</time>
      </trkpt>
      <trkpt lat="44.72398" lon="5.19138">
        <ele>399</ele>
        <time>2022-12-03T08:48:56Z</time>
      </trkpt>
      <trkpt lat="44.72406" lon="5.19131">
        <ele>401</ele>
        <time>2022-12-03T08:48:56Z</time>
      </trkpt>
      <trkpt lat="44.72418" lon="5.19091">
        <ele>404</ele>
        <time>2022-12-03T08:48:56Z</time>
      </trkpt>
      <trkpt lat="44.72424" lon="5.19112">
        <ele>407</ele>
        <time>2022-12-03T08:48:56Z</time>
      </trkpt>
      <trkpt lat="44.72431" lon="5.19193">
        <ele>410</ele>
        <time>2022-12-03T08:48:56Z</time>
      </trkpt>
      <trkpt lat="44.72438" lon="5.19217">
        <ele>412</ele>
        <time>2022-12-03T08:48:56Z</time>
      </trkpt>
      <trkpt lat="44.72454" lon="5.19234">
        <ele>414</ele>
        <time>2022-12-03T08:48:56Z</time>
      </trkpt>
      <trkpt lat="44.72507" lon="5.19252">
        <ele>415</ele>
        <time>2022-12-03T08:48:56Z</time>
      </trkpt>
      <trkpt lat="44.7255" lon="5.19285">
        <ele>416</ele>
        <time>2022-12-03T08:48:56Z</time>
      </trkpt>
      <trkpt lat="44.72553" lon="5.19301">
        <ele>417</ele>
        <time>2022-12-03T08:48:56Z</time>
      </trkpt>
      <trkpt lat="44.72559" lon="5.19322">
        <ele>417</ele>
        <time>2022-12-03T08:48:56Z</time>
      </trkpt>
      <trkpt lat="44.7257" lon="5.19336">
        <ele>417</ele>
        <time>2022-12-03T08:48:56Z</time>
      </trkpt>
      <trkpt lat="44.72632" lon="5.19352">
        <ele>416</ele>
        <time>2022-12-03T08:48:56Z</time>
      </trkpt>
      <trkpt lat="44.72659" lon="5.19368">
        <ele>415</ele>
        <time>2022-12-03T08:48:56Z</time>
      </trkpt>
      <trkpt lat="44.72672" lon="5.19368">
        <ele>413</ele>
        <time>2022-12-03T08:48:56Z</time>
      </trkpt>
      <trkpt lat="44.72681" lon="5.19357">
        <ele>412</ele>
        <time>2022-12-03T08:48:56Z</time>
      </trkpt>
      <trkpt lat="44.72696" lon="5.19304">
        <ele>411</ele>
        <time>2022-12-03T08:48:56Z</time>
      </trkpt>
      <trkpt lat="44.72704" lon="5.19292">
        <ele>410</ele>
        <time>2022-12-03T08:48:56Z</time>
      </trkpt>
      <trkpt lat="44.72714" lon="5.19295">
        <ele>409</ele>
        <time>2022-12-03T08:48:56Z</time>
      </trkpt>
      <trkpt lat="44.7273" lon="5.19322">
        <ele>407</ele>
        <time>2022-12-03T08:48:56Z</time>
      </trkpt>
      <trkpt lat="44.72737" lon="5.19326">
        <ele>406</ele>
        <time>2022-12-03T08:48:56Z</time>
      </trkpt>
      <trkpt lat="44.72746" lon="5.19326">
        <ele>405</ele>
        <time>2022-12-03T08:48:56Z</time>
      </trkpt>
      <trkpt lat="44.7283" lon="5.19288">
        <ele>405</ele>
        <time>2022-12-03T08:48:56Z</time>
      </trkpt>
      <trkpt lat="44.72841" lon="5.19289">
        <ele>404</ele>
        <time>2022-12-03T08:48:56Z</time>
      </trkpt>
      <trkpt lat="44.7285" lon="5.193">
        <ele>404</ele>
        <time>2022-12-03T08:48:56Z</time>
      </trkpt>
      <trkpt lat="44.7285" lon="5.19313">
        <ele>403</ele>
        <time>2022-12-03T08:48:56Z</time>
      </trkpt>
      <trkpt lat="44.72865" lon="5.19285">
        <ele>404</ele>
        <time>2022-12-03T08:48:56Z</time>
      </trkpt>
      <trkpt lat="44.72874" lon="5.19285">
        <ele>404</ele>
        <time>2022-12-03T08:48:56Z</time>
      </trkpt>
      <trkpt lat="44.72895" lon="5.193">
        <ele>404</ele>
        <time>2022-12-03T08:48:56Z</time>
      </trkpt>
      <trkpt lat="44.72918" lon="5.19333">
        <ele>404</ele>
        <time>2022-12-03T08:48:56Z</time>
      </trkpt>
      <trkpt lat="44.72921" lon="5.19342">
        <ele>405</ele>
        <time>2022-12-03T08:48:56Z</time>
      </trkpt>
      <trkpt lat="44.72929" lon="5.19346">
        <ele>405</ele>
        <time>2022-12-03T08:48:56Z</time>
      </trkpt>
      <trkpt lat="44.72938" lon="5.19358">
        <ele>406</ele>
        <time>2022-12-03T08:48:56Z</time>
      </trkpt>
      <trkpt lat="44.72948" lon="5.19359">
        <ele>407</ele>
        <time>2022-12-03T08:48:56Z</time>
      </trkpt>
      <trkpt lat="44.72981" lon="5.19353">
        <ele>408</ele>
        <time>2022-12-03T08:48:56Z</time>
      </trkpt>
      <trkpt lat="44.73191" lon="5.19383">
        <ele>421</ele>
        <time>2022-12-03T08:48:56Z</time>
      </trkpt>
      <trkpt lat="44.73214" lon="5.19378">
        <ele>427</ele>
        <time>2022-12-03T08:48:56Z</time>
      </trkpt>
      <trkpt lat="44.73275" lon="5.19377">
        <ele>433</ele>
        <time>2022-12-03T08:48:56Z</time>
      </trkpt>
      <trkpt lat="44.7331" lon="5.1939">
        <ele>438</ele>
        <time>2022-12-03T08:48:56Z</time>
      </trkpt>
      <trkpt lat="44.73339" lon="5.19452">
        <ele>464</ele>
        <time>2022-12-03T08:48:56Z</time>
      </trkpt>
      <trkpt lat="44.73352" lon="5.19465">
        <ele>464</ele>
        <time>2022-12-03T08:48:56Z</time>
      </trkpt>
      <trkpt lat="44.73362" lon="5.19483">
        <ele>465</ele>
        <time>2022-12-03T08:48:56Z</time>
      </trkpt>
      <trkpt lat="44.73373" lon="5.19496">
        <ele>466</ele>
        <time>2022-12-03T08:48:56Z</time>
      </trkpt>
      <trkpt lat="44.73386" lon="5.19524">
        <ele>467</ele>
        <time>2022-12-03T08:48:56Z</time>
      </trkpt>
      <trkpt lat="44.73406" lon="5.19543">
        <ele>468</ele>
        <time>2022-12-03T08:48:56Z</time>
      </trkpt>
      <trkpt lat="44.73451" lon="5.19623">
        <ele>471</ele>
        <time>2022-12-03T08:48:56Z</time>
      </trkpt>
      <trkpt lat="44.73461" lon="5.19627">
        <ele>474</ele>
        <time>2022-12-03T08:48:56Z</time>
      </trkpt>
      <trkpt lat="44.73474" lon="5.19641">
        <ele>476</ele>
        <time>2022-12-03T08:48:56Z</time>
      </trkpt>
      <trkpt lat="44.73478" lon="5.1965">
        <ele>477</ele>
        <time>2022-12-03T08:48:56Z</time>
      </trkpt>
      <trkpt lat="44.73489" lon="5.19662">
        <ele>479</ele>
        <time>2022-12-03T08:48:56Z</time>
      </trkpt>
      <trkpt lat="44.735" lon="5.19663">
        <ele>480</ele>
        <time>2022-12-03T08:48:56Z</time>
      </trkpt>
      <trkpt lat="44.7351" lon="5.19668">
        <ele>481</ele>
        <time>2022-12-03T08:48:56Z</time>
      </trkpt>
      <trkpt lat="44.7351" lon="5.19685">
        <ele>482</ele>
        <time>2022-12-03T08:48:56Z</time>
      </trkpt>
      <trkpt lat="44.73511" lon="5.19696">
        <ele>483</ele>
        <time>2022-12-03T08:48:56Z</time>
      </trkpt>
      <trkpt lat="44.73516" lon="5.19704">
        <ele>484</ele>
        <time>2022-12-03T08:48:56Z</time>
      </trkpt>
      <trkpt lat="44.73513" lon="5.19719">
        <ele>485</ele>
        <time>2022-12-03T08:48:56Z</time>
      </trkpt>
      <trkpt lat="44.73517" lon="5.19733">
        <ele>486</ele>
        <time>2022-12-03T08:48:56Z</time>
      </trkpt>
      <trkpt lat="44.73519" lon="5.19781">
        <ele>488</ele>
        <time>2022-12-03T08:48:56Z</time>
      </trkpt>
      <trkpt lat="44.73525" lon="5.19822">
        <ele>490</ele>
        <time>2022-12-03T08:48:56Z</time>
      </trkpt>
      <trkpt lat="44.73558" lon="5.19918">
        <ele>496</ele>
        <time>2022-12-03T08:48:56Z</time>
      </trkpt>
      <trkpt lat="44.73557" lon="5.19938">
        <ele>500</ele>
        <time>2022-12-03T08:48:56Z</time>
      </trkpt>
      <trkpt lat="44.73566" lon="5.19961">
        <ele>503</ele>
        <time>2022-12-03T08:48:56Z</time>
      </trkpt>
      <trkpt lat="44.7357" lon="5.19989">
        <ele>506</ele>
        <time>2022-12-03T08:48:56Z</time>
      </trkpt>
      <trkpt lat="44.73548" lon="5.20051">
        <ele>508</ele>
        <time>2022-12-03T08:48:56Z</time>
      </trkpt>
      <trkpt lat="44.7354" lon="5.20059">
        <ele>510</ele>
        <time>2022-12-03T08:48:56Z</time>
      </trkpt>
      <trkpt lat="44.73537" lon="5.2007">
        <ele>511</ele>
        <time>2022-12-03T08:48:56Z</time>
      </trkpt>
      <trkpt lat="44.73501" lon="5.20281">
        <ele>508</ele>
        <time>2022-12-03T08:48:56Z</time>
      </trkpt>
      <trkpt lat="44.73514" lon="5.20391">
        <ele>504</ele>
        <time>2022-12-03T08:48:56Z</time>
      </trkpt>
      <trkpt lat="44.73556" lon="5.20457">
        <ele>500</ele>
        <time>2022-12-03T08:48:56Z</time>
      </trkpt>
      <trkpt lat="44.73557" lon="5.20533">
        <ele>497</ele>
        <time>2022-12-03T08:48:56Z</time>
      </trkpt>
      <trkpt lat="44.73545" lon="5.20568">
        <ele>495</ele>
        <time>2022-12-03T08:48:56Z</time>
      </trkpt>
      <trkpt lat="44.73558" lon="5.20646">
        <ele>491</ele>
        <time>2022-12-03T08:48:56Z</time>
      </trkpt>
      <trkpt lat="44.73554" lon="5.20699">
        <ele>487</ele>
        <time>2022-12-03T08:48:56Z</time>
      </trkpt>
      <trkpt lat="44.73547" lon="5.20707">
        <ele>484</ele>
        <time>2022-12-03T08:48:56Z</time>
      </trkpt>
      <trkpt lat="44.73368" lon="5.20748">
        <ele>466</ele>
        <time>2022-12-03T08:48:56Z</time>
      </trkpt>
      <trkpt lat="44.73413" lon="5.20766">
        <ele>455</ele>
        <time>2022-12-03T08:48:56Z</time>
      </trkpt>
      <trkpt lat="44.73459" lon="5.20802">
        <ele>446</ele>
        <time>2022-12-03T08:48:56Z</time>
      </trkpt>
      <trkpt lat="44.73453" lon="5.2088">
        <ele>437</ele>
        <time>2022-12-03T08:48:56Z</time>
      </trkpt>
      <trkpt lat="44.73294" lon="5.20858">
        <ele>427</ele>
        <time>2022-12-03T08:48:56Z</time>
      </trkpt>
      <trkpt lat="44.73194" lon="5.20871">
        <ele>420</ele>
        <time>2022-12-03T08:48:56Z</time>
      </trkpt>
      <trkpt lat="44.73071" lon="5.20819">
        <ele>414</ele>
        <time>2022-12-03T08:48:56Z</time>
      </trkpt>
      <trkpt lat="44.73013" lon="5.20823">
        <ele>410</ele>
        <time>2022-12-03T08:48:56Z</time>
      </trkpt>
      <trkpt lat="44.72972" lon="5.20812">
        <ele>409</ele>
        <time>2022-12-03T08:48:56Z</time>
      </trkpt>
      <trkpt lat="44.72928" lon="5.20828">
        <ele>408</ele>
        <time>2022-12-03T08:48:56Z</time>
      </trkpt>
      <trkpt lat="44.72911" lon="5.20828">
        <ele>407</ele>
        <time>2022-12-03T08:48:56Z</time>
      </trkpt>
      <trkpt lat="44.72852" lon="5.20802">
        <ele>407</ele>
        <time>2022-12-03T08:48:56Z</time>
      </trkpt>
      <trkpt lat="44.72803" lon="5.20801">
        <ele>405</ele>
        <time>2022-12-03T08:48:56Z</time>
      </trkpt>
      <trkpt lat="44.72793" lon="5.20794">
        <ele>404</ele>
        <time>2022-12-03T08:48:56Z</time>
      </trkpt>
      <trkpt lat="44.72787" lon="5.20783">
        <ele>404</ele>
        <time>2022-12-03T08:48:56Z</time>
      </trkpt>
      <trkpt lat="44.72765" lon="5.20686">
        <ele>402</ele>
        <time>2022-12-03T08:48:56Z</time>
      </trkpt>
      <trkpt lat="44.72754" lon="5.20659">
        <ele>402</ele>
        <time>2022-12-03T08:48:56Z</time>
      </trkpt>
      <trkpt lat="44.72744" lon="5.20649">
        <ele>401</ele>
        <time>2022-12-03T08:48:56Z</time>
      </trkpt>
      <trkpt lat="44.72698" lon="5.20617">
        <ele>400</ele>
        <time>2022-12-03T08:48:56Z</time>
      </trkpt>
      <trkpt lat="44.72615" lon="5.20615">
        <ele>397</ele>
        <time>2022-12-03T08:48:56Z</time>
      </trkpt>
      <trkpt lat="44.72568" lon="5.20624">
        <ele>396</ele>
        <time>2022-12-03T08:48:56Z</time>
      </trkpt>
      <trkpt lat="44.72561" lon="5.2062">
        <ele>395</ele>
        <time>2022-12-03T08:48:56Z</time>
      </trkpt>
      <trkpt lat="44.72555" lon="5.20613">
        <ele>394</ele>
        <time>2022-12-03T08:48:56Z</time>
      </trkpt>
      <trkpt lat="44.72549" lon="5.20594">
        <ele>394</ele>
        <time>2022-12-03T08:48:56Z</time>
      </trkpt>
      <trkpt lat="44.72546" lon="5.20574">
        <ele>393</ele>
        <time>2022-12-03T08:48:56Z</time>
      </trkpt>
      <trkpt lat="44.72547" lon="5.20522">
        <ele>392</ele>
        <time>2022-12-03T08:48:56Z</time>
      </trkpt>
      <trkpt lat="44.7254" lon="5.20515">
        <ele>391</ele>
        <time>2022-12-03T08:48:56Z</time>
      </trkpt>
      <trkpt lat="44.72527" lon="5.20514">
        <ele>390</ele>
        <time>2022-12-03T08:48:56Z</time>
      </trkpt>
      <trkpt lat="44.7252" lon="5.20504">
        <ele>390</ele>
        <time>2022-12-03T08:48:56Z</time>
      </trkpt>
      <trkpt lat="44.72525" lon="5.20474">
        <ele>389</ele>
        <time>2022-12-03T08:48:56Z</time>
      </trkpt>
      <trkpt lat="44.72523" lon="5.20456">
        <ele>389</ele>
        <time>2022-12-03T08:48:56Z</time>
      </trkpt>
      <trkpt lat="44.72519" lon="5.20446">
        <ele>388</ele>
        <time>2022-12-03T08:48:56Z</time>
      </trkpt>
      <trkpt lat="44.72512" lon="5.20437">
        <ele>387</ele>
        <time>2022-12-03T08:48:56Z</time>
      </trkpt>
      <trkpt lat="44.72455" lon="5.20396">
        <ele>386</ele>
        <time>2022-12-03T08:48:56Z</time>
      </trkpt>
      <trkpt lat="44.72446" lon="5.20386">
        <ele>386</ele>
        <time>2022-12-03T08:48:56Z</time>
      </trkpt>
      <trkpt lat="44.7244" lon="5.2037">
        <ele>386</ele>
        <time>2022-12-03T08:48:56Z</time>
      </trkpt>
      <trkpt lat="44.72438" lon="5.20355">
        <ele>386</ele>
        <time>2022-12-03T08:48:56Z</time>
      </trkpt>
      <trkpt lat="44.72439" lon="5.20343">
        <ele>386</ele>
        <time>2022-12-03T08:48:56Z</time>
      </trkpt>
      <trkpt lat="44.72456" lon="5.20295">
        <ele>385</ele>
        <time>2022-12-03T08:48:56Z</time>
      </trkpt>
      <trkpt lat="44.72456" lon="5.20283">
        <ele>384</ele>
        <time>2022-12-03T08:48:56Z</time>
      </trkpt>
      <trkpt lat="44.72452" lon="5.20273">
        <ele>383</ele>
        <time>2022-12-03T08:48:56Z</time>
      </trkpt>
      <trkpt lat="44.72443" lon="5.2027">
        <ele>382</ele>
        <time>2022-12-03T08:48:56Z</time>
      </trkpt>
      <trkpt lat="44.72433" lon="5.20276">
        <ele>382</ele>
        <time>2022-12-03T08:48:56Z</time>
      </trkpt>
      <trkpt lat="44.72424" lon="5.20286">
        <ele>382</ele>
        <time>2022-12-03T08:48:56Z</time>
      </trkpt>
      <trkpt lat="44.7241" lon="5.20309">
        <ele>382</ele>
        <time>2022-12-03T08:48:56Z</time>
      </trkpt>
      <trkpt lat="44.72383" lon="5.20333">
        <ele>384</ele>
        <time>2022-12-03T08:48:56Z</time>
      </trkpt>
      <trkpt lat="44.72344" lon="5.20339">
        <ele>385</ele>
        <time>2022-12-03T08:48:56Z</time>
      </trkpt>
      <trkpt lat="44.72244" lon="5.20276">
        <ele>388</ele>
        <time>2022-12-03T08:48:56Z</time>
      </trkpt>
      <trkpt lat="44.72232" lon="5.20273">
        <ele>389</ele>
        <time>2022-12-03T08:48:56Z</time>
      </trkpt>
      <trkpt lat="44.72223" lon="5.20276">
        <ele>391</ele>
        <time>2022-12-03T08:48:56Z</time>
      </trkpt>
      <trkpt lat="44.72178" lon="5.20308">
        <ele>393</ele>
        <time>2022-12-03T08:48:56Z</time>
      </trkpt>
      <trkpt lat="44.72148" lon="5.20317">
        <ele>394</ele>
        <time>2022-12-03T08:48:56Z</time>
      </trkpt>
      <trkpt lat="44.7212" lon="5.20346">
        <ele>397</ele>
        <time>2022-12-03T08:48:56Z</time>
      </trkpt>
      <trkpt lat="44.72111" lon="5.20345">
        <ele>399</ele>
        <time>2022-12-03T08:48:56Z</time>
      </trkpt>
      <trkpt lat="44.72101" lon="5.20336">
        <ele>400</ele>
        <time>2022-12-03T08:48:56Z</time>
      </trkpt>
      <trkpt lat="44.72089" lon="5.20318">
        <ele>400</ele>
        <time>2022-12-03T08:48:56Z</time>
      </trkpt>
      <trkpt lat="44.72052" lon="5.20288">
        <ele>402</ele>
        <time>2022-12-03T08:48:56Z</time>
      </trkpt>
      <trkpt lat="44.72008" lon="5.20235">
        <ele>403</ele>
        <time>2022-12-03T08:48:56Z</time>
      </trkpt>
      <trkpt lat="44.72" lon="5.20229">
        <ele>404</ele>
        <time>2022-12-03T08:48:56Z</time>
      </trkpt>
      <trkpt lat="44.71988" lon="5.20226">
        <ele>404</ele>
        <time>2022-12-03T08:48:56Z</time>
      </trkpt>
      <trkpt lat="44.71977" lon="5.20232">
        <ele>404</ele>
        <time>2022-12-03T08:48:56Z</time>
      </trkpt>
      <trkpt lat="44.71948" lon="5.20278">
        <ele>405</ele>
        <time>2022-12-03T08:48:56Z</time>
      </trkpt>
      <trkpt lat="44.71937" lon="5.20284">
        <ele>405</ele>
        <time>2022-12-03T08:48:56Z</time>
      </trkpt>
      <trkpt lat="44.71923" lon="5.2028">
        <ele>405</ele>
        <time>2022-12-03T08:48:56Z</time>
      </trkpt>
      <trkpt lat="44.7194" lon="5.20353">
        <ele>408</ele>
        <time>2022-12-03T08:48:56Z</time>
      </trkpt>
      <trkpt lat="44.71908" lon="5.20402">
        <ele>427</ele>
        <time>2022-12-03T08:48:56Z</time>
      </trkpt>
      <trkpt lat="44.71867" lon="5.20445">
        <ele>430</ele>
        <time>2022-12-03T08:48:56Z</time>
      </trkpt>
      <trkpt lat="44.71907" lon="5.20466">
        <ele>431</ele>
        <time>2022-12-03T08:48:56Z</time>
      </trkpt>
      <trkpt lat="44.71927" lon="5.20537">
        <ele>435</ele>
        <time>2022-12-03T08:48:56Z</time>
      </trkpt>
      <trkpt lat="44.71932" lon="5.20597">
        <ele>440</ele>
      </trkpt>
      <trkpt lat="44.71937" lon="5.20656">
        <ele>447</ele>
      </trkpt>
      <trkpt lat="44.71941" lon="5.20716">
        <ele>453</ele>
      </trkpt>
      <trkpt lat="44.71946" lon="5.20775">
        <ele>460</ele>
        <time>2022-12-03T08:48:56Z</time>
      </trkpt>
      <trkpt lat="44.71924" lon="5.20823">
        <ele>467</ele>
      </trkpt>
      <trkpt lat="44.71902" lon="5.2087">
        <ele>474</ele>
        <time>2022-12-03T08:48:56Z</time>
      </trkpt>
      <trkpt lat="44.71936" lon="5.20888">
        <ele>481</ele>
      </trkpt>
      <trkpt lat="44.71969" lon="5.20906">
        <ele>487</ele>
        <time>2022-12-03T08:48:56Z</time>
      </trkpt>
      <trkpt lat="44.71923" lon="5.20931">
        <ele>493</ele>
      </trkpt>
      <trkpt lat="44.71876" lon="5.20956">
        <ele>500</ele>
      </trkpt>
      <trkpt lat="44.7183" lon="5.2098">
        <ele>507</ele>
      </trkpt>
      <trkpt lat="44.71783" lon="5.21005">
        <ele>515</ele>
        <time>2022-12-03T08:48:56Z</time>
      </trkpt>
      <trkpt lat="44.71815" lon="5.21038">
        <ele>523</ele>
      </trkpt>
      <trkpt lat="44.71847" lon="5.21071">
        <ele>530</ele>
        <time>2022-12-03T08:48:56Z</time>
      </trkpt>
      <trkpt lat="44.71815" lon="5.21106">
        <ele>538</ele>
      </trkpt>
      <trkpt lat="44.71783" lon="5.2114">
        <ele>546</ele>
        <time>2022-12-03T08:48:56Z</time>
      </trkpt>
      <trkpt lat="44.71771" lon="5.21223">
        <ele>554</ele>
      </trkpt>
      <trkpt lat="44.71759" lon="5.21305">
        <ele>563</ele>
        <time>2022-12-03T08:48:56Z</time>
      </trkpt>
      <trkpt lat="44.7171" lon="5.21344">
        <ele>571</ele>
      </trkpt>
      <trkpt lat="44.7166" lon="5.21383">
        <ele>578</ele>
        <time>2022-12-03T08:48:56Z</time>
      </trkpt>
      <trkpt lat="44.71633" lon="5.21418">
        <ele>585</ele>
      </trkpt>
      <trkpt lat="44.71605" lon="5.21453">
        <ele>591</ele>
        <time>2022-12-03T08:48:56Z</time>
      </trkpt>
      <trkpt lat="44.71614" lon="5.21498">
        <ele>596</ele>
      </trkpt>
      <trkpt lat="44.71622" lon="5.21543">
        <ele>600</ele>
        <time>2022-12-03T08:48:56Z</time>
      </trkpt>
      <trkpt lat="44.71611" lon="5.21631">
        <ele>607</ele>
        <time>2022-12-03T08:48:56Z</time>
      </trkpt>
      <trkpt lat="44.71636" lon="5.21666">
        <ele>610</ele>
      </trkpt>
      <trkpt lat="44.71661" lon="5.21701">
        <ele>614</ele>
      </trkpt>
      <trkpt lat="44.71685" lon="5.21736">
        <ele>619</ele>
      </trkpt>
      <trkpt lat="44.7171" lon="5.21771">
        <ele>622</ele>
        <time>2022-12-03T08:48:56Z</time>
      </trkpt>
      <trkpt lat="44.71677" lon="5.2179">
        <ele>626</ele>
      </trkpt>
      <trkpt lat="44.71645" lon="5.2181">
        <ele>631</ele>
      </trkpt>
      <trkpt lat="44.71612" lon="5.21829">
        <ele>635</ele>
      </trkpt>
      <trkpt lat="44.71579" lon="5.21848">
        <ele>639</ele>
        <time>2022-12-03T08:48:56Z</time>
      </trkpt>
      <trkpt lat="44.71531" lon="5.21867">
        <ele>644</ele>
      </trkpt>
      <trkpt lat="44.71483" lon="5.21886">
        <ele>649</ele>
      </trkpt>
      <trkpt lat="44.71435" lon="5.21904">
        <ele>656</ele>
      </trkpt>
      <trkpt lat="44.71387" lon="5.21923">
        <ele>663</ele>
        <time>2022-12-03T08:48:56Z</time>
      </trkpt>
      <trkpt lat="44.71346" lon="5.21892">
        <ele>670</ele>
      </trkpt>
      <trkpt lat="44.71304" lon="5.21861">
        <ele>676</ele>
        <time>2022-12-03T08:48:56Z</time>
      </trkpt>
      <trkpt lat="44.7127" lon="5.21841">
        <ele>681</ele>
      </trkpt>
      <trkpt lat="44.71237" lon="5.21821">
        <ele>685</ele>
      </trkpt>
      <trkpt lat="44.71203" lon="5.21801">
        <ele>689</ele>
      </trkpt>
      <trkpt lat="44.7117" lon="5.21781">
        <ele>694</ele>
      </trkpt>
      <trkpt lat="44.71136" lon="5.21762">
        <ele>698</ele>
      </trkpt>
      <trkpt lat="44.71102" lon="5.21742">
        <ele>702</ele>
      </trkpt>
      <trkpt lat="44.71069" lon="5.21722">
        <ele>706</ele>
      </trkpt>
      <trkpt lat="44.71035" lon="5.21702">
        <ele>709</ele>
        <time>2022-12-03T08:48:56Z</time>
      </trkpt>
      <trkpt lat="44.71017" lon="5.21641">
        <ele>712</ele>
      </trkpt>
      <trkpt lat="44.70999" lon="5.2158">
        <ele>715</ele>
        <time>2022-12-03T08:48:56Z</time>
      </trkpt>
      <trkpt lat="44.71029" lon="5.21521">
        <ele>721</ele>
      </trkpt>
      <trkpt lat="44.71058" lon="5.21461">
        <ele>727</ele>
      </trkpt>
      <trkpt lat="44.71088" lon="5.21402">
        <ele>734</ele>
      </trkpt>
      <trkpt lat="44.71117" lon="5.21342">
        <ele>739</ele>
        <time>2022-12-03T08:48:56Z</time>
      </trkpt>
      <trkpt lat="44.71102" lon="5.21267">
        <ele>745</ele>
      </trkpt>
      <trkpt lat="44.71086" lon="5.21192">
        <ele>746</ele>
        <time>2022-12-03T08:48:56Z</time>
      </trkpt>
      <trkpt lat="44.71109" lon="5.2111">
        <ele>740</ele>
      </trkpt>
      <trkpt lat="44.71131" lon="5.21028">
        <ele>727</ele>
        <time>2022-12-03T08:48:56Z</time>
      </trkpt>
      <trkpt lat="44.7114" lon="5.20979">
        <ele>715</ele>
      </trkpt>
      <trkpt lat="44.71149" lon="5.20931">
        <ele>703</ele>
      </trkpt>
      <trkpt lat="44.71157" lon="5.20882">
        <ele>692</ele>
      </trkpt>
      <trkpt lat="44.71166" lon="5.20833">
        <ele>682</ele>
        <time>2022-12-03T08:48:56Z</time>
      </trkpt>
      <trkpt lat="44.71167" lon="5.20747">
        <ele>669</ele>
      </trkpt>
      <trkpt lat="44.71168" lon="5.20662">
        <ele>655</ele>
      </trkpt>
      <trkpt lat="44.71169" lon="5.20576">
        <ele>640</ele>
      </trkpt>
      <trkpt lat="44.7117" lon="5.2049">
        <ele>625</ele>
        <time>2022-12-03T08:48:56Z</time>
      </trkpt>
      <trkpt lat="44.71131" lon="5.20432">
        <ele>610</ele>
      </trkpt>
      <trkpt lat="44.71091" lon="5.20374">
        <ele>594</ele>
        <time>2022-12-03T08:48:56Z</time>
      </trkpt>
      <trkpt lat="44.71123" lon="5.20353">
        <ele>585</ele>
      </trkpt>
      <trkpt lat="44.71155" lon="5.20331">
        <ele>576</ele>
        <time>2022-12-03T08:48:56Z</time>
      </trkpt>
      <trkpt lat="44.71125" lon="5.20315">
        <ele>570</ele>
      </trkpt>
      <trkpt lat="44.71095" lon="5.20299">
        <ele>563</ele>
      </trkpt>
      <trkpt lat="44.71035" lon="5.20267">
        <ele>555</ele>
        <time>2022-12-03T08:48:56Z</time>
      </trkpt>
      <trkpt lat="44.71005" lon="5.20334">
        <ele>545</ele>
      </trkpt>
      <trkpt lat="44.70975" lon="5.204">
        <ele>535</ele>
        <time>2022-12-03T08:48:56Z</time>
      </trkpt>
      <trkpt lat="44.70949" lon="5.20352">
        <ele>525</ele>
      </trkpt>
      <trkpt lat="44.70922" lon="5.20303">
        <ele>518</ele>
        <time>2022-12-03T08:48:56Z</time>
      </trkpt>
      <trkpt lat="44.70898" lon="5.20237">
        <ele>510</ele>
      </trkpt>
      <trkpt lat="44.70874" lon="5.20171">
        <ele>502</ele>
      </trkpt>
      <trkpt lat="44.7085" lon="5.20105">
        <ele>493</ele>
      </trkpt>
      <trkpt lat="44.70826" lon="5.20039">
        <ele>479</ele>
        <time>2022-12-03T08:48:56Z</time>
      </trkpt>
      <trkpt lat="44.70853" lon="5.19981">
        <ele>463</ele>
        <time>2022-12-03T08:48:56Z</time>
      </trkpt>
      <trkpt lat="44.7081" lon="5.19981">
        <ele>453</ele>
      </trkpt>
      <trkpt lat="44.70766" lon="5.19981">
        <ele>444</ele>
        <time>2022-12-03T08:48:56Z</time>
      </trkpt>
      <trkpt lat="44.70711" lon="5.1997">
        <ele>436</ele>
      </trkpt>
      <trkpt lat="44.70656" lon="5.19958">
        <ele>429</ele>
        <time>2022-12-03T08:48:56Z</time>
      </trkpt>
      <trkpt lat="44.70605" lon="5.19989">
        <ele>424</ele>
      </trkpt>
      <trkpt lat="44.70553" lon="5.2002">
        <ele>420</ele>
      </trkpt>
      <trkpt lat="44.70502" lon="5.20051">
        <ele>416</ele>
      </trkpt>
      <trkpt lat="44.7045" lon="5.20082">
        <ele>412</ele>
        <time>2022-12-03T08:48:56Z</time>
      </trkpt>
      <trkpt lat="44.70409" lon="5.20047">
        <ele>405</ele>
      </trkpt>
      <trkpt lat="44.70367" lon="5.20011">
        <ele>399</ele>
      </trkpt>
      <trkpt lat="44.70326" lon="5.19976">
        <ele>391</ele>
      </trkpt>
      <trkpt lat="44.70284" lon="5.19941">
        <ele>381</ele>
        <time>2022-12-03T08:48:56Z</time>
      </trkpt>
      <trkpt lat="44.70235" lon="5.19932">
        <ele>371</ele>
      </trkpt>
      <trkpt lat="44.70187" lon="5.19924">
        <ele>359</ele>
      </trkpt>
      <trkpt lat="44.70138" lon="5.19915">
        <ele>349</ele>
      </trkpt>
      <trkpt lat="44.70089" lon="5.19906">
        <ele>342</ele>
        <time>2022-12-03T08:48:56Z</time>
      </trkpt>
      <trkpt lat="44.7006" lon="5.19876">
        <ele>336</ele>
      </trkpt>
      <trkpt lat="44.7003" lon="5.19845">
        <ele>328</ele>
      </trkpt>
      <trkpt lat="44.70001" lon="5.19815">
        <ele>321</ele>
      </trkpt>
      <trkpt lat="44.69971" lon="5.19785">
        <ele>314</ele>
        <time>2022-12-03T08:48:56Z</time>
      </trkpt>
      <trkpt lat="44.6991" lon="5.19807">
        <ele>306</ele>
        <time>2022-12-03T08:48:56Z</time>
      </trkpt>
      <trkpt lat="44.699" lon="5.19817">
        <ele>302</ele>
        <time>2022-12-03T08:48:56Z</time>
      </trkpt>
      <trkpt lat="44.6987" lon="5.19861">
        <ele>298</ele>
      </trkpt>
      <trkpt lat="44.69839" lon="5.19904">
        <ele>295</ele>
        <time>2022-12-03T08:48:56Z</time>
      </trkpt>
      <trkpt lat="44.69793" lon="5.19958">
        <ele>292</ele>
      </trkpt>
      <trkpt lat="44.69746" lon="5.20012">
        <ele>288</ele>
        <time>2022-12-03T08:48:56Z</time>
      </trkpt>
      <trkpt lat="44.69737" lon="5.20009">
        <ele>285</ele>
        <time>2022-12-03T08:48:56Z</time>
      </trkpt>
      <trkpt lat="44.69734" lon="5.2">
        <ele>283</ele>
        <time>2022-12-03T08:48:56Z</time>
      </trkpt>
      <trkpt lat="44.69699" lon="5.19975">
        <ele>280</ele>
        <time>2022-12-03T08:48:56Z</time>
      </trkpt>
    </trkseg>
  </trk>
  <trk>
    <name><![CDATA[VTT N°4 rouge - Serre Peyplat - 20 km - Déniv 450 m]]></name>
    <extensions>
      <line xmlns="http://www.topografix.com/GPX/gpx_style/0/2">
        <color>ff0000</color>
        <width>4</width>
      </line>
    </extensions>
    <trkseg>
      <trkpt lat="44.69708" lon="5.19981">
        <ele>269</ele>
        <time>2022-11-17T10:03:31Z</time>
      </trkpt>
      <trkpt lat="44.69734" lon="5.2">
        <ele>270</ele>
        <time>2022-11-17T10:03:31Z</time>
      </trkpt>
      <trkpt lat="44.69737" lon="5.20009">
        <ele>271</ele>
        <time>2022-11-17T10:03:31Z</time>
      </trkpt>
      <trkpt lat="44.69746" lon="5.20012">
        <ele>272</ele>
        <time>2022-11-17T10:03:31Z</time>
      </trkpt>
      <trkpt lat="44.69781" lon="5.19965">
        <ele>274</ele>
        <time>2022-11-17T10:03:31Z</time>
      </trkpt>
      <trkpt lat="44.69839" lon="5.19904">
        <ele>277</ele>
        <time>2022-11-17T10:03:31Z</time>
      </trkpt>
      <trkpt lat="44.699" lon="5.19817">
        <ele>279</ele>
        <time>2022-11-17T10:03:31Z</time>
      </trkpt>
      <trkpt lat="44.6991" lon="5.19807">
        <ele>281</ele>
        <time>2022-11-17T10:03:31Z</time>
      </trkpt>
      <trkpt lat="44.69971" lon="5.19785">
        <ele>283</ele>
        <time>2022-11-17T10:03:31Z</time>
      </trkpt>
      <trkpt lat="44.70046" lon="5.19789">
        <ele>285</ele>
        <time>2022-11-17T10:03:31Z</time>
      </trkpt>
      <trkpt lat="44.70137" lon="5.19778">
        <ele>286</ele>
        <time>2022-11-17T10:03:31Z</time>
      </trkpt>
      <trkpt lat="44.70213" lon="5.19799">
        <ele>288</ele>
        <time>2022-11-17T10:03:31Z</time>
      </trkpt>
      <trkpt lat="44.70238" lon="5.1979">
        <ele>288</ele>
        <time>2022-11-17T10:03:31Z</time>
      </trkpt>
      <trkpt lat="44.70287" lon="5.19794">
        <ele>289</ele>
        <time>2022-11-17T10:03:31Z</time>
      </trkpt>
      <trkpt lat="44.7043" lon="5.19817">
        <ele>294</ele>
        <time>2022-11-17T10:03:31Z</time>
      </trkpt>
      <trkpt lat="44.7044" lon="5.19816">
        <ele>297</ele>
        <time>2022-11-17T10:03:31Z</time>
      </trkpt>
      <trkpt lat="44.70451" lon="5.1981">
        <ele>299</ele>
        <time>2022-11-17T10:03:31Z</time>
      </trkpt>
      <trkpt lat="44.70532" lon="5.1973">
        <ele>303</ele>
        <time>2022-11-17T10:03:31Z</time>
      </trkpt>
      <trkpt lat="44.70559" lon="5.19674">
        <ele>304</ele>
        <time>2022-11-17T10:03:31Z</time>
      </trkpt>
      <trkpt lat="44.70582" lon="5.19659">
        <ele>307</ele>
        <time>2022-11-17T10:03:31Z</time>
      </trkpt>
      <trkpt lat="44.70628" lon="5.1966">
        <ele>310</ele>
        <time>2022-11-17T10:03:31Z</time>
      </trkpt>
      <trkpt lat="44.70791" lon="5.19721">
        <ele>318</ele>
        <time>2022-11-17T10:03:31Z</time>
      </trkpt>
      <trkpt lat="44.70835" lon="5.19713">
        <ele>321</ele>
        <time>2022-11-17T10:03:31Z</time>
      </trkpt>
      <trkpt lat="44.70865" lon="5.19696">
        <ele>321</ele>
        <time>2022-11-17T10:03:31Z</time>
      </trkpt>
      <trkpt lat="44.70888" lon="5.19692">
        <ele>321</ele>
        <time>2022-11-17T10:03:31Z</time>
      </trkpt>
      <trkpt lat="44.70901" lon="5.19684">
        <ele>320</ele>
        <time>2022-11-17T10:03:31Z</time>
      </trkpt>
      <trkpt lat="44.70938" lon="5.19646">
        <ele>319</ele>
        <time>2022-11-17T10:03:31Z</time>
      </trkpt>
      <trkpt lat="44.7095" lon="5.19643">
        <ele>318</ele>
        <time>2022-11-17T10:03:31Z</time>
      </trkpt>
      <trkpt lat="44.70959" lon="5.19637">
        <ele>317</ele>
        <time>2022-11-17T10:03:31Z</time>
      </trkpt>
      <trkpt lat="44.70963" lon="5.19619">
        <ele>316</ele>
        <time>2022-11-17T10:03:31Z</time>
      </trkpt>
      <trkpt lat="44.70963" lon="5.19609">
        <ele>316</ele>
        <time>2022-11-17T10:03:31Z</time>
      </trkpt>
      <trkpt lat="44.70944" lon="5.19588">
        <ele>315</ele>
        <time>2022-11-17T10:03:31Z</time>
      </trkpt>
      <trkpt lat="44.70941" lon="5.19574">
        <ele>314</ele>
        <time>2022-11-17T10:03:31Z</time>
      </trkpt>
      <trkpt lat="44.70953" lon="5.19536">
        <ele>314</ele>
        <time>2022-11-17T10:03:31Z</time>
      </trkpt>
      <trkpt lat="44.71" lon="5.19469">
        <ele>317</ele>
        <time>2022-11-17T10:03:31Z</time>
      </trkpt>
      <trkpt lat="44.71015" lon="5.19454">
        <ele>320</ele>
        <time>2022-11-17T10:03:31Z</time>
      </trkpt>
      <trkpt lat="44.7102" lon="5.19446">
        <ele>322</ele>
        <time>2022-11-17T10:03:31Z</time>
      </trkpt>
      <trkpt lat="44.71025" lon="5.19428">
        <ele>324</ele>
        <time>2022-11-17T10:03:31Z</time>
      </trkpt>
      <trkpt lat="44.71024" lon="5.19417">
        <ele>325</ele>
        <time>2022-11-17T10:03:31Z</time>
      </trkpt>
      <trkpt lat="44.71028" lon="5.19398">
        <ele>326</ele>
        <time>2022-11-17T10:03:31Z</time>
      </trkpt>
      <trkpt lat="44.71068" lon="5.19304">
        <ele>328</ele>
        <time>2022-11-17T10:03:31Z</time>
      </trkpt>
      <trkpt lat="44.71085" lon="5.19283">
        <ele>329</ele>
        <time>2022-11-17T10:03:31Z</time>
      </trkpt>
      <trkpt lat="44.71128" lon="5.19261">
        <ele>332</ele>
        <time>2022-11-17T10:03:31Z</time>
      </trkpt>
      <trkpt lat="44.71378" lon="5.19175">
        <ele>336</ele>
        <time>2022-11-17T10:03:31Z</time>
      </trkpt>
      <trkpt lat="44.71477" lon="5.19111">
        <ele>338</ele>
        <time>2022-11-17T10:03:31Z</time>
      </trkpt>
      <trkpt lat="44.71493" lon="5.1911">
        <ele>340</ele>
        <time>2022-11-17T10:03:31Z</time>
      </trkpt>
      <trkpt lat="44.71511" lon="5.19116">
        <ele>341</ele>
        <time>2022-11-17T10:03:31Z</time>
      </trkpt>
      <trkpt lat="44.71536" lon="5.19131">
        <ele>343</ele>
        <time>2022-11-17T10:03:31Z</time>
      </trkpt>
      <trkpt lat="44.71632" lon="5.19151">
        <ele>349</ele>
        <time>2022-11-17T10:03:31Z</time>
      </trkpt>
      <trkpt lat="44.71648" lon="5.1916">
        <ele>352</ele>
        <time>2022-11-17T10:03:31Z</time>
      </trkpt>
      <trkpt lat="44.7168" lon="5.19194">
        <ele>369</ele>
        <time>2022-11-17T10:03:31Z</time>
      </trkpt>
      <trkpt lat="44.71691" lon="5.19196">
        <ele>369</ele>
        <time>2022-11-17T10:03:31Z</time>
      </trkpt>
      <trkpt lat="44.71697" lon="5.1919">
        <ele>369</ele>
        <time>2022-11-17T10:03:31Z</time>
      </trkpt>
      <trkpt lat="44.71704" lon="5.19202">
        <ele>370</ele>
        <time>2022-11-17T10:03:31Z</time>
      </trkpt>
      <trkpt lat="44.717" lon="5.19213">
        <ele>371</ele>
        <time>2022-11-17T10:03:31Z</time>
      </trkpt>
      <trkpt lat="44.71686" lon="5.19215">
        <ele>371</ele>
        <time>2022-11-17T10:03:31Z</time>
      </trkpt>
      <trkpt lat="44.71622" lon="5.19198">
        <ele>370</ele>
        <time>2022-11-17T10:03:31Z</time>
      </trkpt>
      <trkpt lat="44.71576" lon="5.19226">
        <ele>370</ele>
        <time>2022-11-17T10:03:31Z</time>
      </trkpt>
      <trkpt lat="44.71567" lon="5.19244">
        <ele>371</ele>
        <time>2022-11-17T10:03:31Z</time>
      </trkpt>
      <trkpt lat="44.71558" lon="5.19254">
        <ele>373</ele>
        <time>2022-11-17T10:03:31Z</time>
      </trkpt>
      <trkpt lat="44.71551" lon="5.19256">
        <ele>374</ele>
        <time>2022-11-17T10:03:31Z</time>
      </trkpt>
      <trkpt lat="44.71492" lon="5.19247">
        <ele>374</ele>
        <time>2022-11-17T10:03:31Z</time>
      </trkpt>
      <trkpt lat="44.71476" lon="5.19256">
        <ele>375</ele>
        <time>2022-11-17T10:03:31Z</time>
      </trkpt>
      <trkpt lat="44.71429" lon="5.19306">
        <ele>380</ele>
        <time>2022-11-17T10:03:31Z</time>
      </trkpt>
      <trkpt lat="44.7142" lon="5.19312">
        <ele>383</ele>
        <time>2022-11-17T10:03:31Z</time>
      </trkpt>
      <trkpt lat="44.71391" lon="5.19312">
        <ele>386</ele>
        <time>2022-11-17T10:03:31Z</time>
      </trkpt>
      <trkpt lat="44.71185" lon="5.19413">
        <ele>395</ele>
        <time>2022-11-17T10:03:31Z</time>
      </trkpt>
      <trkpt lat="44.71178" lon="5.19421">
        <ele>399</ele>
        <time>2022-11-17T10:03:31Z</time>
      </trkpt>
      <trkpt lat="44.71173" lon="5.19438">
        <ele>401</ele>
        <time>2022-11-17T10:03:31Z</time>
      </trkpt>
      <trkpt lat="44.71174" lon="5.19449">
        <ele>402</ele>
        <time>2022-11-17T10:03:31Z</time>
      </trkpt>
      <trkpt lat="44.71215" lon="5.19571">
        <ele>405</ele>
        <time>2022-11-17T10:03:31Z</time>
      </trkpt>
      <trkpt lat="44.71221" lon="5.19581">
        <ele>407</ele>
        <time>2022-11-17T10:03:31Z</time>
      </trkpt>
      <trkpt lat="44.71234" lon="5.19587">
        <ele>408</ele>
        <time>2022-11-17T10:03:31Z</time>
      </trkpt>
      <trkpt lat="44.71288" lon="5.19586">
        <ele>411</ele>
        <time>2022-11-17T10:03:31Z</time>
      </trkpt>
      <trkpt lat="44.71308" lon="5.19593">
        <ele>414</ele>
        <time>2022-11-17T10:03:31Z</time>
      </trkpt>
      <trkpt lat="44.71333" lon="5.19613">
        <ele>417</ele>
        <time>2022-11-17T10:03:31Z</time>
      </trkpt>
      <trkpt lat="44.71352" lon="5.19662">
        <ele>418</ele>
        <time>2022-11-17T10:03:31Z</time>
      </trkpt>
      <trkpt lat="44.71376" lon="5.1969">
        <ele>418</ele>
        <time>2022-11-17T10:03:31Z</time>
      </trkpt>
      <trkpt lat="44.71401" lon="5.19701">
        <ele>419</ele>
        <time>2022-11-17T10:03:31Z</time>
      </trkpt>
      <trkpt lat="44.71458" lon="5.19711">
        <ele>420</ele>
        <time>2022-11-17T10:03:31Z</time>
      </trkpt>
      <trkpt lat="44.71466" lon="5.19707">
        <ele>420</ele>
        <time>2022-11-17T10:03:31Z</time>
      </trkpt>
      <trkpt lat="44.71529" lon="5.1966">
        <ele>421</ele>
        <time>2022-11-17T10:03:31Z</time>
      </trkpt>
      <trkpt lat="44.71582" lon="5.19644">
        <ele>423</ele>
        <time>2022-11-17T10:03:31Z</time>
      </trkpt>
      <trkpt lat="44.71627" lon="5.19649">
        <ele>424</ele>
        <time>2022-11-17T10:03:31Z</time>
      </trkpt>
      <trkpt lat="44.7174" lon="5.1959">
        <ele>423</ele>
        <time>2022-11-17T10:03:31Z</time>
      </trkpt>
      <trkpt lat="44.7191" lon="5.19538">
        <ele>415</ele>
        <time>2022-11-17T10:03:31Z</time>
      </trkpt>
      <trkpt lat="44.71943" lon="5.19565">
        <ele>410</ele>
        <time>2022-11-17T10:03:31Z</time>
      </trkpt>
      <trkpt lat="44.71956" lon="5.19568">
        <ele>406</ele>
        <time>2022-11-17T10:03:31Z</time>
      </trkpt>
      <trkpt lat="44.71966" lon="5.19567">
        <ele>404</ele>
        <time>2022-11-17T10:03:31Z</time>
      </trkpt>
      <trkpt lat="44.72012" lon="5.19527">
        <ele>401</ele>
        <time>2022-11-17T10:03:31Z</time>
      </trkpt>
      <trkpt lat="44.72142" lon="5.19511">
        <ele>395</ele>
        <time>2022-11-17T10:03:31Z</time>
      </trkpt>
      <trkpt lat="44.72149" lon="5.19526">
        <ele>392</ele>
        <time>2022-11-17T10:03:31Z</time>
      </trkpt>
      <trkpt lat="44.72157" lon="5.19528">
        <ele>390</ele>
        <time>2022-11-17T10:03:31Z</time>
      </trkpt>
      <trkpt lat="44.72332" lon="5.19445">
        <ele>393</ele>
        <time>2022-11-17T10:03:31Z</time>
      </trkpt>
      <trkpt lat="44.72388" lon="5.19401">
        <ele>395</ele>
        <time>2022-11-17T10:03:31Z</time>
      </trkpt>
      <trkpt lat="44.72384" lon="5.19296">
        <ele>392</ele>
        <time>2022-11-17T10:03:31Z</time>
      </trkpt>
      <trkpt lat="44.72387" lon="5.19283">
        <ele>392</ele>
        <time>2022-11-17T10:03:31Z</time>
      </trkpt>
      <trkpt lat="44.72387" lon="5.19271">
        <ele>392</ele>
        <time>2022-11-17T10:03:31Z</time>
      </trkpt>
      <trkpt lat="44.72383" lon="5.19257">
        <ele>395</ele>
        <time>2022-11-17T10:03:31Z</time>
      </trkpt>
      <trkpt lat="44.72384" lon="5.19239">
        <ele>395</ele>
        <time>2022-11-17T10:03:31Z</time>
      </trkpt>
      <trkpt lat="44.72389" lon="5.19228">
        <ele>395</ele>
        <time>2022-11-17T10:03:31Z</time>
      </trkpt>
      <trkpt lat="44.72388" lon="5.19205">
        <ele>395</ele>
        <time>2022-11-17T10:03:31Z</time>
      </trkpt>
      <trkpt lat="44.7239" lon="5.19193">
        <ele>396</ele>
        <time>2022-11-17T10:03:31Z</time>
      </trkpt>
      <trkpt lat="44.72389" lon="5.19164">
        <ele>397</ele>
        <time>2022-11-17T10:03:31Z</time>
      </trkpt>
      <trkpt lat="44.72394" lon="5.19142">
        <ele>399</ele>
        <time>2022-11-17T10:03:31Z</time>
      </trkpt>
      <trkpt lat="44.72402" lon="5.19135">
        <ele>401</ele>
        <time>2022-11-17T10:03:31Z</time>
      </trkpt>
      <trkpt lat="44.7241" lon="5.1912">
        <ele>403</ele>
        <time>2022-11-17T10:03:31Z</time>
      </trkpt>
      <trkpt lat="44.72416" lon="5.19084">
        <ele>406</ele>
        <time>2022-11-17T10:03:31Z</time>
      </trkpt>
      <trkpt lat="44.72392" lon="5.19017">
        <ele>408</ele>
        <time>2022-11-17T10:03:31Z</time>
      </trkpt>
      <trkpt lat="44.7238" lon="5.18994">
        <ele>410</ele>
        <time>2022-11-17T10:03:31Z</time>
      </trkpt>
      <trkpt lat="44.72376" lon="5.18984">
        <ele>411</ele>
        <time>2022-11-17T10:03:31Z</time>
      </trkpt>
      <trkpt lat="44.72376" lon="5.18972">
        <ele>412</ele>
        <time>2022-11-17T10:03:31Z</time>
      </trkpt>
      <trkpt lat="44.72384" lon="5.18937">
        <ele>414</ele>
        <time>2022-11-17T10:03:31Z</time>
      </trkpt>
      <trkpt lat="44.7238" lon="5.18918">
        <ele>415</ele>
        <time>2022-11-17T10:03:31Z</time>
      </trkpt>
      <trkpt lat="44.72367" lon="5.18915">
        <ele>416</ele>
        <time>2022-11-17T10:03:31Z</time>
      </trkpt>
      <trkpt lat="44.72338" lon="5.18942">
        <ele>418</ele>
        <time>2022-11-17T10:03:31Z</time>
      </trkpt>
      <trkpt lat="44.72302" lon="5.19086">
        <ele>422</ele>
        <time>2022-11-17T10:03:31Z</time>
      </trkpt>
      <trkpt lat="44.72295" lon="5.19087">
        <ele>425</ele>
        <time>2022-11-17T10:03:31Z</time>
      </trkpt>
      <trkpt lat="44.72293" lon="5.19075">
        <ele>427</ele>
        <time>2022-11-17T10:03:31Z</time>
      </trkpt>
      <trkpt lat="44.72302" lon="5.19032">
        <ele>430</ele>
        <time>2022-11-17T10:03:31Z</time>
      </trkpt>
      <trkpt lat="44.72312" lon="5.1891">
        <ele>434</ele>
        <time>2022-11-17T10:03:31Z</time>
      </trkpt>
      <trkpt lat="44.72318" lon="5.18896">
        <ele>434</ele>
        <time>2022-11-17T10:03:31Z</time>
      </trkpt>
      <trkpt lat="44.72425" lon="5.18752">
        <ele>436</ele>
        <time>2022-11-17T10:03:31Z</time>
      </trkpt>
      <trkpt lat="44.7243" lon="5.18738">
        <ele>437</ele>
        <time>2022-11-17T10:03:31Z</time>
      </trkpt>
      <trkpt lat="44.7243" lon="5.18714">
        <ele>437</ele>
        <time>2022-11-17T10:03:31Z</time>
      </trkpt>
      <trkpt lat="44.725" lon="5.18579">
        <ele>443</ele>
        <time>2022-11-17T10:03:31Z</time>
      </trkpt>
      <trkpt lat="44.72508" lon="5.18573">
        <ele>447</ele>
        <time>2022-11-17T10:03:31Z</time>
      </trkpt>
      <trkpt lat="44.72527" lon="5.18572">
        <ele>450</ele>
        <time>2022-11-17T10:03:31Z</time>
      </trkpt>
      <trkpt lat="44.72548" lon="5.1858">
        <ele>453</ele>
        <time>2022-11-17T10:03:31Z</time>
      </trkpt>
      <trkpt lat="44.72572" lon="5.18565">
        <ele>456</ele>
        <time>2022-11-17T10:03:31Z</time>
      </trkpt>
      <trkpt lat="44.72594" lon="5.18565">
        <ele>459</ele>
        <time>2022-11-17T10:03:31Z</time>
      </trkpt>
      <trkpt lat="44.72608" lon="5.18557">
        <ele>461</ele>
        <time>2022-11-17T10:03:31Z</time>
      </trkpt>
      <trkpt lat="44.72612" lon="5.18534">
        <ele>463</ele>
        <time>2022-11-17T10:03:31Z</time>
      </trkpt>
      <trkpt lat="44.72612" lon="5.18518">
        <ele>464</ele>
        <time>2022-11-17T10:03:31Z</time>
      </trkpt>
      <trkpt lat="44.72624" lon="5.18468">
        <ele>466</ele>
        <time>2022-11-17T10:03:31Z</time>
      </trkpt>
      <trkpt lat="44.72657" lon="5.18398">
        <ele>470</ele>
        <time>2022-11-17T10:03:31Z</time>
      </trkpt>
      <trkpt lat="44.7268" lon="5.18374">
        <ele>474</ele>
        <time>2022-11-17T10:03:31Z</time>
      </trkpt>
      <trkpt lat="44.72708" lon="5.18357">
        <ele>477</ele>
        <time>2022-11-17T10:03:31Z</time>
      </trkpt>
      <trkpt lat="44.72724" lon="5.18351">
        <ele>479</ele>
        <time>2022-11-17T10:03:31Z</time>
      </trkpt>
      <trkpt lat="44.72733" lon="5.18344">
        <ele>480</ele>
        <time>2022-11-17T10:03:31Z</time>
      </trkpt>
      <trkpt lat="44.72756" lon="5.18303">
        <ele>483</ele>
        <time>2022-11-17T10:03:31Z</time>
      </trkpt>
      <trkpt lat="44.72817" lon="5.18233">
        <ele>489</ele>
        <time>2022-11-17T10:03:31Z</time>
      </trkpt>
      <trkpt lat="44.72832" lon="5.18208">
        <ele>494</ele>
        <time>2022-11-17T10:03:31Z</time>
      </trkpt>
      <trkpt lat="44.72839" lon="5.18204">
        <ele>497</ele>
        <time>2022-11-17T10:03:31Z</time>
      </trkpt>
      <trkpt lat="44.72848" lon="5.18204">
        <ele>500</ele>
        <time>2022-11-17T10:03:31Z</time>
      </trkpt>
      <trkpt lat="44.72857" lon="5.18212">
        <ele>502</ele>
        <time>2022-11-17T10:03:31Z</time>
      </trkpt>
      <trkpt lat="44.72865" lon="5.18224">
        <ele>512</ele>
        <time>2022-11-17T10:03:31Z</time>
      </trkpt>
      <trkpt lat="44.72877" lon="5.18257">
        <ele>512</ele>
        <time>2022-11-17T10:03:31Z</time>
      </trkpt>
      <trkpt lat="44.72885" lon="5.18263">
        <ele>512</ele>
        <time>2022-11-17T10:03:31Z</time>
      </trkpt>
      <trkpt lat="44.72892" lon="5.18263">
        <ele>512</ele>
        <time>2022-11-17T10:03:31Z</time>
      </trkpt>
      <trkpt lat="44.72974" lon="5.18149">
        <ele>508</ele>
        <time>2022-11-17T10:03:31Z</time>
      </trkpt>
      <trkpt lat="44.72987" lon="5.18144">
        <ele>507</ele>
        <time>2022-11-17T10:03:31Z</time>
      </trkpt>
      <trkpt lat="44.72996" lon="5.18146">
        <ele>506</ele>
        <time>2022-11-17T10:03:31Z</time>
      </trkpt>
      <trkpt lat="44.73003" lon="5.18153">
        <ele>505</ele>
        <time>2022-11-17T10:03:31Z</time>
      </trkpt>
      <trkpt lat="44.73008" lon="5.18162">
        <ele>505</ele>
        <time>2022-11-17T10:03:31Z</time>
      </trkpt>
      <trkpt lat="44.73028" lon="5.18235">
        <ele>506</ele>
        <time>2022-11-17T10:03:31Z</time>
      </trkpt>
      <trkpt lat="44.73029" lon="5.18352">
        <ele>510</ele>
        <time>2022-11-17T10:03:31Z</time>
      </trkpt>
      <trkpt lat="44.73026" lon="5.1843">
        <ele>511</ele>
        <time>2022-11-17T10:03:31Z</time>
      </trkpt>
      <trkpt lat="44.73029" lon="5.18442">
        <ele>511</ele>
        <time>2022-11-17T10:03:31Z</time>
      </trkpt>
      <trkpt lat="44.73034" lon="5.18451">
        <ele>511</ele>
        <time>2022-11-17T10:03:31Z</time>
      </trkpt>
      <trkpt lat="44.73042" lon="5.18457">
        <ele>511</ele>
        <time>2022-11-17T10:03:31Z</time>
      </trkpt>
      <trkpt lat="44.7306" lon="5.18459">
        <ele>512</ele>
        <time>2022-11-17T10:03:31Z</time>
      </trkpt>
      <trkpt lat="44.73069" lon="5.18463">
        <ele>512</ele>
        <time>2022-11-17T10:03:31Z</time>
      </trkpt>
      <trkpt lat="44.73083" lon="5.18479">
        <ele>513</ele>
        <time>2022-11-17T10:03:31Z</time>
      </trkpt>
      <trkpt lat="44.73104" lon="5.18518">
        <ele>513</ele>
        <time>2022-11-17T10:03:31Z</time>
      </trkpt>
      <trkpt lat="44.73111" lon="5.18524">
        <ele>513</ele>
        <time>2022-11-17T10:03:31Z</time>
      </trkpt>
      <trkpt lat="44.7312" lon="5.18523">
        <ele>513</ele>
        <time>2022-11-17T10:03:31Z</time>
      </trkpt>
      <trkpt lat="44.73127" lon="5.18516">
        <ele>513</ele>
        <time>2022-11-17T10:03:31Z</time>
      </trkpt>
      <trkpt lat="44.73131" lon="5.18481">
        <ele>513</ele>
        <time>2022-11-17T10:03:31Z</time>
      </trkpt>
      <trkpt lat="44.73127" lon="5.18431">
        <ele>514</ele>
        <time>2022-11-17T10:03:31Z</time>
      </trkpt>
      <trkpt lat="44.7313" lon="5.18418">
        <ele>516</ele>
        <time>2022-11-17T10:03:31Z</time>
      </trkpt>
      <trkpt lat="44.73166" lon="5.18352">
        <ele>518</ele>
        <time>2022-11-17T10:03:31Z</time>
      </trkpt>
      <trkpt lat="44.73184" lon="5.1834">
        <ele>520</ele>
        <time>2022-11-17T10:03:31Z</time>
      </trkpt>
      <trkpt lat="44.73219" lon="5.18343">
        <ele>521</ele>
        <time>2022-11-17T10:03:31Z</time>
      </trkpt>
      <trkpt lat="44.73228" lon="5.1834">
        <ele>521</ele>
        <time>2022-11-17T10:03:31Z</time>
      </trkpt>
      <trkpt lat="44.73234" lon="5.18331">
        <ele>521</ele>
        <time>2022-11-17T10:03:31Z</time>
      </trkpt>
      <trkpt lat="44.73261" lon="5.18136">
        <ele>523</ele>
        <time>2022-11-17T10:03:31Z</time>
      </trkpt>
      <trkpt lat="44.7326" lon="5.18109">
        <ele>523</ele>
        <time>2022-11-17T10:03:31Z</time>
      </trkpt>
      <trkpt lat="44.73256" lon="5.18096">
        <ele>524</ele>
        <time>2022-11-17T10:03:31Z</time>
      </trkpt>
      <trkpt lat="44.73254" lon="5.18085">
        <ele>525</ele>
        <time>2022-11-17T10:03:31Z</time>
      </trkpt>
      <trkpt lat="44.73256" lon="5.18071">
        <ele>526</ele>
        <time>2022-11-17T10:03:31Z</time>
      </trkpt>
      <trkpt lat="44.73266" lon="5.1806">
        <ele>526</ele>
        <time>2022-11-17T10:03:31Z</time>
      </trkpt>
      <trkpt lat="44.73277" lon="5.18056">
        <ele>526</ele>
        <time>2022-11-17T10:03:31Z</time>
      </trkpt>
      <trkpt lat="44.73285" lon="5.18051">
        <ele>526</ele>
        <time>2022-11-17T10:03:31Z</time>
      </trkpt>
      <trkpt lat="44.73291" lon="5.1804">
        <ele>526</ele>
        <time>2022-11-17T10:03:31Z</time>
      </trkpt>
      <trkpt lat="44.73303" lon="5.17988">
        <ele>527</ele>
        <time>2022-11-17T10:03:31Z</time>
      </trkpt>
      <trkpt lat="44.73309" lon="5.17979">
        <ele>528</ele>
        <time>2022-11-17T10:03:31Z</time>
      </trkpt>
      <trkpt lat="44.73338" lon="5.17951">
        <ele>530</ele>
        <time>2022-11-17T10:03:31Z</time>
      </trkpt>
      <trkpt lat="44.73347" lon="5.1795">
        <ele>531</ele>
        <time>2022-11-17T10:03:31Z</time>
      </trkpt>
      <trkpt lat="44.73356" lon="5.17965">
        <ele>533</ele>
        <time>2022-11-17T10:03:31Z</time>
      </trkpt>
      <trkpt lat="44.73374" lon="5.18046">
        <ele>540</ele>
        <time>2022-11-17T10:03:31Z</time>
      </trkpt>
      <trkpt lat="44.73383" lon="5.18056">
        <ele>540</ele>
        <time>2022-11-17T10:03:31Z</time>
      </trkpt>
      <trkpt lat="44.73391" lon="5.18051">
        <ele>540</ele>
        <time>2022-11-17T10:03:31Z</time>
      </trkpt>
      <trkpt lat="44.73411" lon="5.18028">
        <ele>540</ele>
        <time>2022-11-17T10:03:31Z</time>
      </trkpt>
      <trkpt lat="44.73427" lon="5.18021">
        <ele>540</ele>
        <time>2022-11-17T10:03:31Z</time>
      </trkpt>
      <trkpt lat="44.7344" lon="5.1802">
        <ele>540</ele>
        <time>2022-11-17T10:03:31Z</time>
      </trkpt>
      <trkpt lat="44.73452" lon="5.18024">
        <ele>541</ele>
        <time>2022-11-17T10:03:31Z</time>
      </trkpt>
      <trkpt lat="44.73457" lon="5.18032">
        <ele>541</ele>
        <time>2022-11-17T10:03:31Z</time>
      </trkpt>
      <trkpt lat="44.73467" lon="5.18066">
        <ele>540</ele>
        <time>2022-11-17T10:03:31Z</time>
      </trkpt>
      <trkpt lat="44.7348" lon="5.18075">
        <ele>540</ele>
        <time>2022-11-17T10:03:31Z</time>
      </trkpt>
      <trkpt lat="44.73488" lon="5.18073">
        <ele>540</ele>
        <time>2022-11-17T10:03:31Z</time>
      </trkpt>
      <trkpt lat="44.73505" lon="5.18056">
        <ele>541</ele>
        <time>2022-11-17T10:03:31Z</time>
      </trkpt>
      <trkpt lat="44.73605" lon="5.1802">
        <ele>543</ele>
        <time>2022-11-17T10:03:31Z</time>
      </trkpt>
      <trkpt lat="44.7363" lon="5.18024">
        <ele>544</ele>
        <time>2022-11-17T10:03:31Z</time>
      </trkpt>
      <trkpt lat="44.73723" lon="5.1809">
        <ele>547</ele>
        <time>2022-11-17T10:03:31Z</time>
      </trkpt>
      <trkpt lat="44.73666" lon="5.1799">
        <ele>551</ele>
        <time>2022-11-17T10:03:31Z</time>
      </trkpt>
      <trkpt lat="44.73663" lon="5.1798">
        <ele>553</ele>
        <time>2022-11-17T10:03:31Z</time>
      </trkpt>
      <trkpt lat="44.73654" lon="5.17971">
        <ele>555</ele>
        <time>2022-11-17T10:03:31Z</time>
      </trkpt>
      <trkpt lat="44.73552" lon="5.17934">
        <ele>561</ele>
        <time>2022-11-17T10:03:31Z</time>
      </trkpt>
      <trkpt lat="44.73541" lon="5.17925">
        <ele>564</ele>
        <time>2022-11-17T10:03:31Z</time>
      </trkpt>
      <trkpt lat="44.73533" lon="5.17903">
        <ele>567</ele>
        <time>2022-11-17T10:03:31Z</time>
      </trkpt>
      <trkpt lat="44.73521" lon="5.17886">
        <ele>569</ele>
        <time>2022-11-17T10:03:31Z</time>
      </trkpt>
      <trkpt lat="44.73495" lon="5.17866">
        <ele>570</ele>
        <time>2022-11-17T10:03:31Z</time>
      </trkpt>
      <trkpt lat="44.73475" lon="5.17858">
        <ele>572</ele>
        <time>2022-11-17T10:03:31Z</time>
      </trkpt>
      <trkpt lat="44.73464" lon="5.17857">
        <ele>573</ele>
        <time>2022-11-17T10:03:31Z</time>
      </trkpt>
      <trkpt lat="44.734" lon="5.17796">
        <ele>577</ele>
        <time>2022-11-17T10:03:31Z</time>
      </trkpt>
      <trkpt lat="44.7336" lon="5.17793">
        <ele>579</ele>
        <time>2022-11-17T10:03:31Z</time>
      </trkpt>
      <trkpt lat="44.73303" lon="5.17807">
        <ele>583</ele>
        <time>2022-11-17T10:03:31Z</time>
      </trkpt>
      <trkpt lat="44.73263" lon="5.17835">
        <ele>585</ele>
        <time>2022-11-17T10:03:31Z</time>
      </trkpt>
      <trkpt lat="44.73245" lon="5.17837">
        <ele>587</ele>
        <time>2022-11-17T10:03:31Z</time>
      </trkpt>
      <trkpt lat="44.73237" lon="5.17831">
        <ele>588</ele>
        <time>2022-11-17T10:03:31Z</time>
      </trkpt>
      <trkpt lat="44.73172" lon="5.17722">
        <ele>591</ele>
        <time>2022-11-17T10:03:31Z</time>
      </trkpt>
      <trkpt lat="44.73141" lon="5.17695">
        <ele>592</ele>
        <time>2022-11-17T10:03:31Z</time>
      </trkpt>
      <trkpt lat="44.73097" lon="5.1769">
        <ele>593</ele>
        <time>2022-11-17T10:03:31Z</time>
      </trkpt>
      <trkpt lat="44.73006" lon="5.17753">
        <ele>591</ele>
        <time>2022-11-17T10:03:31Z</time>
      </trkpt>
      <trkpt lat="44.73004" lon="5.1767">
        <ele>592</ele>
        <time>2022-11-17T10:03:31Z</time>
      </trkpt>
      <trkpt lat="44.72992" lon="5.17636">
        <ele>591</ele>
        <time>2022-11-17T10:03:31Z</time>
      </trkpt>
      <trkpt lat="44.72941" lon="5.17537">
        <ele>588</ele>
        <time>2022-11-17T10:03:31Z</time>
      </trkpt>
      <trkpt lat="44.72894" lon="5.17505">
        <ele>583</ele>
        <time>2022-11-17T10:03:31Z</time>
      </trkpt>
      <trkpt lat="44.72808" lon="5.1746">
        <ele>578</ele>
        <time>2022-11-17T10:03:31Z</time>
      </trkpt>
      <trkpt lat="44.72795" lon="5.17444">
        <ele>576</ele>
        <time>2022-11-17T10:03:31Z</time>
      </trkpt>
      <trkpt lat="44.72745" lon="5.17316">
        <ele>579</ele>
        <time>2022-11-17T10:03:31Z</time>
      </trkpt>
      <trkpt lat="44.72742" lon="5.17299">
        <ele>581</ele>
        <time>2022-11-17T10:03:31Z</time>
      </trkpt>
      <trkpt lat="44.72744" lon="5.17288">
        <ele>583</ele>
        <time>2022-11-17T10:03:31Z</time>
      </trkpt>
      <trkpt lat="44.72753" lon="5.17261">
        <ele>592</ele>
        <time>2022-11-17T10:03:31Z</time>
      </trkpt>
      <trkpt lat="44.72774" lon="5.17103">
        <ele>593</ele>
        <time>2022-11-17T10:03:31Z</time>
      </trkpt>
      <trkpt lat="44.72763" lon="5.17046">
        <ele>596</ele>
        <time>2022-11-17T10:03:31Z</time>
      </trkpt>
      <trkpt lat="44.72763" lon="5.17027">
        <ele>598</ele>
        <time>2022-11-17T10:03:31Z</time>
      </trkpt>
      <trkpt lat="44.72766" lon="5.17014">
        <ele>600</ele>
        <time>2022-11-17T10:03:31Z</time>
      </trkpt>
      <trkpt lat="44.72776" lon="5.16992">
        <ele>602</ele>
        <time>2022-11-17T10:03:31Z</time>
      </trkpt>
      <trkpt lat="44.72824" lon="5.16928">
        <ele>603</ele>
        <time>2022-11-17T10:03:31Z</time>
      </trkpt>
      <trkpt lat="44.72877" lon="5.16814">
        <ele>607</ele>
        <time>2022-12-03T08:48:58Z</time>
      </trkpt>
      <trkpt lat="44.7293" lon="5.167">
        <ele>613</ele>
        <time>2022-11-17T10:03:31Z</time>
      </trkpt>
      <trkpt lat="44.72933" lon="5.16684">
        <ele>616</ele>
        <time>2022-11-17T10:03:31Z</time>
      </trkpt>
      <trkpt lat="44.72933" lon="5.16673">
        <ele>619</ele>
        <time>2022-11-17T10:03:31Z</time>
      </trkpt>
      <trkpt lat="44.72927" lon="5.16662">
        <ele>620</ele>
        <time>2022-11-17T10:03:31Z</time>
      </trkpt>
      <trkpt lat="44.72875" lon="5.1674">
        <ele>623</ele>
        <time>2022-12-03T08:48:58Z</time>
      </trkpt>
      <trkpt lat="44.72822" lon="5.16818">
        <ele>627</ele>
        <time>2022-11-17T10:03:31Z</time>
      </trkpt>
      <trkpt lat="44.72776" lon="5.16874">
        <ele>632</ele>
        <time>2022-12-03T08:48:58Z</time>
      </trkpt>
      <trkpt lat="44.7273" lon="5.16929">
        <ele>637</ele>
        <time>2022-11-17T10:03:31Z</time>
      </trkpt>
      <trkpt lat="44.72692" lon="5.16941">
        <ele>641</ele>
        <time>2022-11-17T10:03:31Z</time>
      </trkpt>
      <trkpt lat="44.72642" lon="5.16929">
        <ele>644</ele>
        <time>2022-11-17T10:03:31Z</time>
      </trkpt>
      <trkpt lat="44.72539" lon="5.16862">
        <ele>644</ele>
        <time>2022-11-17T10:03:31Z</time>
      </trkpt>
      <trkpt lat="44.72501" lon="5.16853">
        <ele>644</ele>
        <time>2022-11-17T10:03:31Z</time>
      </trkpt>
      <trkpt lat="44.72437" lon="5.16809">
        <ele>644</ele>
        <time>2022-11-17T10:03:31Z</time>
      </trkpt>
      <trkpt lat="44.7235" lon="5.1681">
        <ele>647</ele>
        <time>2022-11-17T10:03:31Z</time>
      </trkpt>
      <trkpt lat="44.72311" lon="5.1683">
        <ele>648</ele>
        <time>2022-11-17T10:03:31Z</time>
      </trkpt>
      <trkpt lat="44.72306" lon="5.16843">
        <ele>648</ele>
        <time>2022-11-17T10:03:31Z</time>
      </trkpt>
      <trkpt lat="44.7231" lon="5.16939">
        <ele>649</ele>
        <time>2022-11-17T10:03:31Z</time>
      </trkpt>
      <trkpt lat="44.72308" lon="5.16955">
        <ele>649</ele>
        <time>2022-11-17T10:03:31Z</time>
      </trkpt>
      <trkpt lat="44.72284" lon="5.17023">
        <ele>646</ele>
        <time>2022-11-17T10:03:31Z</time>
      </trkpt>
      <trkpt lat="44.72281" lon="5.17044">
        <ele>643</ele>
        <time>2022-11-17T10:03:31Z</time>
      </trkpt>
      <trkpt lat="44.72272" lon="5.17071">
        <ele>640</ele>
        <time>2022-11-17T10:03:31Z</time>
      </trkpt>
      <trkpt lat="44.72257" lon="5.1714">
        <ele>635</ele>
        <time>2022-11-17T10:03:31Z</time>
      </trkpt>
      <trkpt lat="44.72257" lon="5.17156">
        <ele>631</ele>
        <time>2022-11-17T10:03:31Z</time>
      </trkpt>
      <trkpt lat="44.72249" lon="5.17196">
        <ele>626</ele>
        <time>2022-11-17T10:03:31Z</time>
      </trkpt>
      <trkpt lat="44.72247" lon="5.17237">
        <ele>622</ele>
        <time>2022-11-17T10:03:31Z</time>
      </trkpt>
      <trkpt lat="44.72241" lon="5.17247">
        <ele>619</ele>
        <time>2022-11-17T10:03:31Z</time>
      </trkpt>
      <trkpt lat="44.72233" lon="5.17242">
        <ele>617</ele>
        <time>2022-11-17T10:03:31Z</time>
      </trkpt>
      <trkpt lat="44.72225" lon="5.17241">
        <ele>615</ele>
        <time>2022-11-17T10:03:31Z</time>
      </trkpt>
      <trkpt lat="44.72202" lon="5.17267">
        <ele>614</ele>
        <time>2022-11-17T10:03:31Z</time>
      </trkpt>
      <trkpt lat="44.7219" lon="5.17268">
        <ele>614</ele>
        <time>2022-11-17T10:03:31Z</time>
      </trkpt>
      <trkpt lat="44.72149" lon="5.173">
        <ele>615</ele>
        <time>2022-11-17T10:03:31Z</time>
      </trkpt>
      <trkpt lat="44.72141" lon="5.17311">
        <ele>616</ele>
        <time>2022-11-17T10:03:31Z</time>
      </trkpt>
      <trkpt lat="44.72133" lon="5.17316">
        <ele>617</ele>
        <time>2022-11-17T10:03:31Z</time>
      </trkpt>
      <trkpt lat="44.72067" lon="5.17315">
        <ele>615</ele>
        <time>2022-12-03T08:48:58Z</time>
      </trkpt>
      <trkpt lat="44.72001" lon="5.17314">
        <ele>614</ele>
        <time>2022-11-17T10:03:31Z</time>
      </trkpt>
      <trkpt lat="44.71915" lon="5.17296">
        <ele>617</ele>
        <time>2022-11-17T10:03:31Z</time>
      </trkpt>
      <trkpt lat="44.71831" lon="5.17301">
        <ele>620</ele>
        <time>2022-12-03T08:48:58Z</time>
      </trkpt>
      <trkpt lat="44.71748" lon="5.17306">
        <ele>622</ele>
        <time>2022-12-03T08:48:58Z</time>
      </trkpt>
      <trkpt lat="44.71664" lon="5.17311">
        <ele>625</ele>
        <time>2022-12-03T08:48:58Z</time>
      </trkpt>
      <trkpt lat="44.7158" lon="5.17316">
        <ele>630</ele>
        <time>2022-12-03T08:48:58Z</time>
      </trkpt>
      <trkpt lat="44.71496" lon="5.17321">
        <ele>632</ele>
        <time>2022-12-03T08:48:58Z</time>
      </trkpt>
      <trkpt lat="44.71245" lon="5.17336">
        <ele>634</ele>
        <time>2022-11-17T10:03:31Z</time>
      </trkpt>
      <trkpt lat="44.71181" lon="5.17321">
        <ele>635</ele>
        <time>2022-11-17T10:03:31Z</time>
      </trkpt>
      <trkpt lat="44.71159" lon="5.17306">
        <ele>636</ele>
        <time>2022-11-17T10:03:31Z</time>
      </trkpt>
      <trkpt lat="44.71156" lon="5.17297">
        <ele>636</ele>
        <time>2022-11-17T10:03:31Z</time>
      </trkpt>
      <trkpt lat="44.71152" lon="5.17276">
        <ele>635</ele>
        <time>2022-11-17T10:03:31Z</time>
      </trkpt>
      <trkpt lat="44.71151" lon="5.17245">
        <ele>633</ele>
        <time>2022-11-17T10:03:31Z</time>
      </trkpt>
      <trkpt lat="44.71148" lon="5.17231">
        <ele>631</ele>
        <time>2022-11-17T10:03:31Z</time>
      </trkpt>
      <trkpt lat="44.71127" lon="5.17186">
        <ele>628</ele>
        <time>2022-11-17T10:03:31Z</time>
      </trkpt>
      <trkpt lat="44.71124" lon="5.17149">
        <ele>625</ele>
        <time>2022-11-17T10:03:31Z</time>
      </trkpt>
      <trkpt lat="44.71118" lon="5.17138">
        <ele>622</ele>
        <time>2022-11-17T10:03:31Z</time>
      </trkpt>
      <trkpt lat="44.71109" lon="5.17133">
        <ele>605</ele>
        <time>2022-11-17T10:03:31Z</time>
      </trkpt>
      <trkpt lat="44.71093" lon="5.171">
        <ele>604</ele>
        <time>2022-11-17T10:03:31Z</time>
      </trkpt>
      <trkpt lat="44.71084" lon="5.17091">
        <ele>603</ele>
        <time>2022-11-17T10:03:31Z</time>
      </trkpt>
      <trkpt lat="44.71072" lon="5.17088">
        <ele>601</ele>
        <time>2022-11-17T10:03:31Z</time>
      </trkpt>
      <trkpt lat="44.71064" lon="5.17083">
        <ele>600</ele>
        <time>2022-11-17T10:03:31Z</time>
      </trkpt>
      <trkpt lat="44.71045" lon="5.17067">
        <ele>597</ele>
        <time>2022-11-17T10:03:31Z</time>
      </trkpt>
      <trkpt lat="44.70998" lon="5.17032">
        <ele>595</ele>
        <time>2022-11-17T10:03:31Z</time>
      </trkpt>
      <trkpt lat="44.70992" lon="5.17016">
        <ele>593</ele>
        <time>2022-11-17T10:03:31Z</time>
      </trkpt>
      <trkpt lat="44.70991" lon="5.17001">
        <ele>591</ele>
        <time>2022-11-17T10:03:31Z</time>
      </trkpt>
      <trkpt lat="44.70983" lon="5.16986">
        <ele>590</ele>
        <time>2022-11-17T10:03:31Z</time>
      </trkpt>
      <trkpt lat="44.70938" lon="5.1698">
        <ele>588</ele>
        <time>2022-11-17T10:03:31Z</time>
      </trkpt>
      <trkpt lat="44.7092" lon="5.16904">
        <ele>585</ele>
        <time>2022-12-03T08:48:58Z</time>
      </trkpt>
      <trkpt lat="44.70902" lon="5.16827">
        <ele>587</ele>
        <time>2022-11-17T10:03:31Z</time>
      </trkpt>
      <trkpt lat="44.70874" lon="5.16773">
        <ele>592</ele>
        <time>2022-11-17T10:03:31Z</time>
      </trkpt>
      <trkpt lat="44.70834" lon="5.1667">
        <ele>594</ele>
        <time>2022-12-03T08:48:58Z</time>
      </trkpt>
      <trkpt lat="44.70794" lon="5.16567">
        <ele>591</ele>
        <time>2022-11-17T10:03:31Z</time>
      </trkpt>
      <trkpt lat="44.70752" lon="5.16497">
        <ele>586</ele>
        <time>2022-11-17T10:03:31Z</time>
      </trkpt>
      <trkpt lat="44.7074" lon="5.16398">
        <ele>580</ele>
        <time>2022-11-17T10:03:31Z</time>
      </trkpt>
      <trkpt lat="44.70714" lon="5.16327">
        <ele>574</ele>
        <time>2022-11-17T10:03:31Z</time>
      </trkpt>
      <trkpt lat="44.7072" lon="5.16228">
        <ele>567</ele>
        <time>2022-11-17T10:03:31Z</time>
      </trkpt>
      <trkpt lat="44.70697" lon="5.16143">
        <ele>564</ele>
        <time>2022-12-03T08:48:58Z</time>
      </trkpt>
      <trkpt lat="44.70673" lon="5.16057">
        <ele>559</ele>
        <time>2022-11-17T10:03:31Z</time>
      </trkpt>
      <trkpt lat="44.70676" lon="5.15972">
        <ele>549</ele>
        <time>2022-12-03T08:48:58Z</time>
      </trkpt>
      <trkpt lat="44.70678" lon="5.15887">
        <ele>541</ele>
        <time>2022-11-17T10:03:31Z</time>
      </trkpt>
      <trkpt lat="44.70707" lon="5.15781">
        <ele>536</ele>
        <time>2022-12-03T08:48:58Z</time>
      </trkpt>
      <trkpt lat="44.70736" lon="5.15675">
        <ele>531</ele>
        <time>2022-11-17T10:03:31Z</time>
      </trkpt>
      <trkpt lat="44.70738" lon="5.15613">
        <ele>528</ele>
        <time>2022-12-03T08:48:58Z</time>
      </trkpt>
      <trkpt lat="44.70739" lon="5.15551">
        <ele>525</ele>
        <time>2022-12-03T08:48:58Z</time>
      </trkpt>
      <trkpt lat="44.70742" lon="5.15426">
        <ele>522</ele>
        <time>2022-11-17T10:03:31Z</time>
      </trkpt>
      <trkpt lat="44.70759" lon="5.15338">
        <ele>522</ele>
        <time>2022-11-17T10:03:31Z</time>
      </trkpt>
      <trkpt lat="44.70732" lon="5.15282">
        <ele>522</ele>
        <time>2022-12-03T08:48:58Z</time>
      </trkpt>
      <trkpt lat="44.70704" lon="5.15226">
        <ele>522</ele>
        <time>2022-11-17T10:03:31Z</time>
      </trkpt>
      <trkpt lat="44.70716" lon="5.15133">
        <ele>517</ele>
        <time>2022-12-03T08:48:58Z</time>
      </trkpt>
      <trkpt lat="44.70728" lon="5.15041">
        <ele>510</ele>
        <time>2022-12-03T08:48:58Z</time>
      </trkpt>
      <trkpt lat="44.7074" lon="5.14948">
        <ele>506</ele>
        <time>2022-12-03T08:48:58Z</time>
      </trkpt>
      <trkpt lat="44.70752" lon="5.14855">
        <ele>503</ele>
        <time>2022-11-17T10:03:31Z</time>
      </trkpt>
      <trkpt lat="44.70721" lon="5.14913">
        <ele>502</ele>
        <time>2022-12-03T08:48:58Z</time>
      </trkpt>
      <trkpt lat="44.7069" lon="5.14971">
        <ele>501</ele>
        <time>2022-11-17T10:03:31Z</time>
      </trkpt>
      <trkpt lat="44.70672" lon="5.15056">
        <ele>500</ele>
        <time>2022-12-03T08:48:58Z</time>
      </trkpt>
      <trkpt lat="44.70632" lon="5.15244">
        <ele>503</ele>
        <time>2022-11-17T10:03:31Z</time>
      </trkpt>
      <trkpt lat="44.70631" lon="5.15304">
        <ele>505</ele>
        <time>2022-12-03T08:48:58Z</time>
      </trkpt>
      <trkpt lat="44.70627" lon="5.15482">
        <ele>505</ele>
        <time>2022-11-17T10:03:31Z</time>
      </trkpt>
      <trkpt lat="44.70642" lon="5.15539">
        <ele>504</ele>
        <time>2022-12-03T08:48:58Z</time>
      </trkpt>
      <trkpt lat="44.70656" lon="5.15595">
        <ele>502</ele>
        <time>2022-11-17T10:03:31Z</time>
      </trkpt>
      <trkpt lat="44.70637" lon="5.15663">
        <ele>501</ele>
        <time>2022-12-03T08:48:58Z</time>
      </trkpt>
      <trkpt lat="44.70588" lon="5.15825">
        <ele>500</ele>
        <time>2022-12-03T08:48:58Z</time>
      </trkpt>
      <trkpt lat="44.70559" lon="5.15919">
        <ele>496</ele>
        <time>2022-11-17T10:03:31Z</time>
      </trkpt>
      <trkpt lat="44.70547" lon="5.16005">
        <ele>492</ele>
        <time>2022-11-17T10:03:31Z</time>
      </trkpt>
      <trkpt lat="44.70508" lon="5.16072">
        <ele>484</ele>
        <time>2022-11-17T10:03:31Z</time>
      </trkpt>
      <trkpt lat="44.70522" lon="5.16121">
        <ele>479</ele>
        <time>2022-11-17T10:03:31Z</time>
      </trkpt>
      <trkpt lat="44.70538" lon="5.16186">
        <ele>474</ele>
        <time>2022-12-03T08:48:58Z</time>
      </trkpt>
      <trkpt lat="44.70554" lon="5.1625">
        <ele>472</ele>
        <time>2022-11-17T10:03:31Z</time>
      </trkpt>
      <trkpt lat="44.70545" lon="5.16246">
        <ele>471</ele>
        <time>2022-11-17T10:03:31Z</time>
      </trkpt>
      <trkpt lat="44.70537" lon="5.16234">
        <ele>469</ele>
        <time>2022-11-17T10:03:31Z</time>
      </trkpt>
      <trkpt lat="44.70526" lon="5.16201">
        <ele>466</ele>
        <time>2022-11-17T10:03:31Z</time>
      </trkpt>
      <trkpt lat="44.70501" lon="5.1619">
        <ele>463</ele>
        <time>2022-11-17T10:03:31Z</time>
      </trkpt>
      <trkpt lat="44.70467" lon="5.16158">
        <ele>459</ele>
        <time>2022-11-17T10:03:31Z</time>
      </trkpt>
      <trkpt lat="44.70438" lon="5.16144">
        <ele>455</ele>
        <time>2022-11-17T10:03:31Z</time>
      </trkpt>
      <trkpt lat="44.70404" lon="5.16144">
        <ele>451</ele>
        <time>2022-11-17T10:03:31Z</time>
      </trkpt>
      <trkpt lat="44.70395" lon="5.16142">
        <ele>448</ele>
        <time>2022-11-17T10:03:31Z</time>
      </trkpt>
      <trkpt lat="44.70375" lon="5.16142">
        <ele>445</ele>
        <time>2022-11-17T10:03:31Z</time>
      </trkpt>
      <trkpt lat="44.70353" lon="5.16134">
        <ele>442</ele>
        <time>2022-11-17T10:03:31Z</time>
      </trkpt>
      <trkpt lat="44.70347" lon="5.16129">
        <ele>440</ele>
        <time>2022-11-17T10:03:31Z</time>
      </trkpt>
      <trkpt lat="44.70337" lon="5.16127">
        <ele>438</ele>
        <time>2022-11-17T10:03:31Z</time>
      </trkpt>
      <trkpt lat="44.703" lon="5.16142">
        <ele>435</ele>
        <time>2022-11-17T10:03:31Z</time>
      </trkpt>
      <trkpt lat="44.70292" lon="5.16147">
        <ele>424</ele>
        <time>2022-11-17T10:03:31Z</time>
      </trkpt>
      <trkpt lat="44.70261" lon="5.1622">
        <ele>425</ele>
        <time>2022-11-17T10:03:31Z</time>
      </trkpt>
      <trkpt lat="44.70243" lon="5.16239">
        <ele>425</ele>
        <time>2022-11-17T10:03:31Z</time>
      </trkpt>
      <trkpt lat="44.70219" lon="5.1628">
        <ele>423</ele>
        <time>2022-11-17T10:03:31Z</time>
      </trkpt>
      <trkpt lat="44.70217" lon="5.16298">
        <ele>421</ele>
        <time>2022-11-17T10:03:31Z</time>
      </trkpt>
      <trkpt lat="44.70224" lon="5.16315">
        <ele>420</ele>
        <time>2022-11-17T10:03:31Z</time>
      </trkpt>
      <trkpt lat="44.70224" lon="5.16371">
        <ele>418</ele>
        <time>2022-11-17T10:03:31Z</time>
      </trkpt>
      <trkpt lat="44.70209" lon="5.16442">
        <ele>415</ele>
        <time>2022-11-17T10:03:31Z</time>
      </trkpt>
      <trkpt lat="44.702" lon="5.16459">
        <ele>413</ele>
        <time>2022-11-17T10:03:31Z</time>
      </trkpt>
      <trkpt lat="44.70186" lon="5.16471">
        <ele>410</ele>
        <time>2022-11-17T10:03:31Z</time>
      </trkpt>
      <trkpt lat="44.70168" lon="5.16505">
        <ele>407</ele>
        <time>2022-11-17T10:03:31Z</time>
      </trkpt>
      <trkpt lat="44.70134" lon="5.16545">
        <ele>403</ele>
        <time>2022-11-17T10:03:31Z</time>
      </trkpt>
      <trkpt lat="44.70115" lon="5.16582">
        <ele>399</ele>
        <time>2022-11-17T10:03:31Z</time>
      </trkpt>
      <trkpt lat="44.70112" lon="5.16596">
        <ele>396</ele>
        <time>2022-11-17T10:03:31Z</time>
      </trkpt>
      <trkpt lat="44.70111" lon="5.16611">
        <ele>394</ele>
        <time>2022-11-17T10:03:31Z</time>
      </trkpt>
      <trkpt lat="44.70103" lon="5.16623">
        <ele>392</ele>
        <time>2022-11-17T10:03:31Z</time>
      </trkpt>
      <trkpt lat="44.70044" lon="5.16659">
        <ele>387</ele>
        <time>2022-11-17T10:03:31Z</time>
      </trkpt>
      <trkpt lat="44.70034" lon="5.16662">
        <ele>384</ele>
        <time>2022-11-17T10:03:31Z</time>
      </trkpt>
      <trkpt lat="44.69974" lon="5.16669">
        <ele>378</ele>
        <time>2022-11-17T10:03:31Z</time>
      </trkpt>
      <trkpt lat="44.69939" lon="5.16684">
        <ele>372</ele>
        <time>2022-11-17T10:03:31Z</time>
      </trkpt>
      <trkpt lat="44.69924" lon="5.16699">
        <ele>368</ele>
        <time>2022-11-17T10:03:31Z</time>
      </trkpt>
      <trkpt lat="44.69897" lon="5.16744">
        <ele>363</ele>
        <time>2022-11-17T10:03:31Z</time>
      </trkpt>
      <trkpt lat="44.69894" lon="5.16756">
        <ele>360</ele>
        <time>2022-11-17T10:03:31Z</time>
      </trkpt>
      <trkpt lat="44.69902" lon="5.16767">
        <ele>357</ele>
        <time>2022-11-17T10:03:31Z</time>
      </trkpt>
      <trkpt lat="44.69952" lon="5.16805">
        <ele>353</ele>
        <time>2022-11-17T10:03:31Z</time>
      </trkpt>
      <trkpt lat="44.69969" lon="5.16809">
        <ele>351</ele>
        <time>2022-11-17T10:03:31Z</time>
      </trkpt>
      <trkpt lat="44.69971" lon="5.1682">
        <ele>349</ele>
        <time>2022-11-17T10:03:31Z</time>
      </trkpt>
      <trkpt lat="44.69968" lon="5.16835">
        <ele>347</ele>
        <time>2022-11-17T10:03:31Z</time>
      </trkpt>
      <trkpt lat="44.69969" lon="5.16854">
        <ele>346</ele>
        <time>2022-11-17T10:03:31Z</time>
      </trkpt>
      <trkpt lat="44.69964" lon="5.16863">
        <ele>346</ele>
        <time>2022-11-17T10:03:31Z</time>
      </trkpt>
      <trkpt lat="44.69935" lon="5.16873">
        <ele>345</ele>
        <time>2022-11-17T10:03:31Z</time>
      </trkpt>
      <trkpt lat="44.69913" lon="5.16874">
        <ele>343</ele>
        <time>2022-11-17T10:03:31Z</time>
      </trkpt>
      <trkpt lat="44.69853" lon="5.16932">
        <ele>341</ele>
        <time>2022-11-17T10:03:31Z</time>
      </trkpt>
      <trkpt lat="44.69848" lon="5.16949">
        <ele>340</ele>
        <time>2022-11-17T10:03:31Z</time>
      </trkpt>
      <trkpt lat="44.69849" lon="5.1696">
        <ele>339</ele>
        <time>2022-11-17T10:03:31Z</time>
      </trkpt>
      <trkpt lat="44.69864" lon="5.17002">
        <ele>339</ele>
        <time>2022-11-17T10:03:31Z</time>
      </trkpt>
      <trkpt lat="44.69863" lon="5.17013">
        <ele>339</ele>
        <time>2022-11-17T10:03:31Z</time>
      </trkpt>
      <trkpt lat="44.69846" lon="5.17027">
        <ele>339</ele>
        <time>2022-11-17T10:03:31Z</time>
      </trkpt>
      <trkpt lat="44.69767" lon="5.17047">
        <ele>337</ele>
        <time>2022-11-17T10:03:31Z</time>
      </trkpt>
      <trkpt lat="44.69757" lon="5.17055">
        <ele>336</ele>
        <time>2022-11-17T10:03:31Z</time>
      </trkpt>
      <trkpt lat="44.69752" lon="5.1707">
        <ele>335</ele>
        <time>2022-11-17T10:03:31Z</time>
      </trkpt>
      <trkpt lat="44.69749" lon="5.17133">
        <ele>333</ele>
        <time>2022-11-17T10:03:31Z</time>
      </trkpt>
      <trkpt lat="44.69758" lon="5.17177">
        <ele>333</ele>
        <time>2022-11-17T10:03:31Z</time>
      </trkpt>
      <trkpt lat="44.69755" lon="5.17186">
        <ele>332</ele>
        <time>2022-11-17T10:03:31Z</time>
      </trkpt>
      <trkpt lat="44.69687" lon="5.17243">
        <ele>330</ele>
        <time>2022-11-17T10:03:31Z</time>
      </trkpt>
      <trkpt lat="44.6968" lon="5.17258">
        <ele>329</ele>
        <time>2022-11-17T10:03:31Z</time>
      </trkpt>
      <trkpt lat="44.69675" lon="5.17286">
        <ele>328</ele>
        <time>2022-11-17T10:03:31Z</time>
      </trkpt>
      <trkpt lat="44.69676" lon="5.17321">
        <ele>327</ele>
        <time>2022-11-17T10:03:31Z</time>
      </trkpt>
      <trkpt lat="44.69737" lon="5.17423">
        <ele>329</ele>
        <time>2022-11-17T10:03:31Z</time>
      </trkpt>
      <trkpt lat="44.69781" lon="5.17602">
        <ele>326</ele>
        <time>2022-11-17T10:03:31Z</time>
      </trkpt>
      <trkpt lat="44.6979" lon="5.17616">
        <ele>325</ele>
        <time>2022-11-17T10:03:31Z</time>
      </trkpt>
      <trkpt lat="44.69797" lon="5.17621">
        <ele>324</ele>
        <time>2022-11-17T10:03:31Z</time>
      </trkpt>
      <trkpt lat="44.69798" lon="5.17636">
        <ele>323</ele>
        <time>2022-11-17T10:03:31Z</time>
      </trkpt>
      <trkpt lat="44.69786" lon="5.17669">
        <ele>321</ele>
        <time>2022-11-17T10:03:31Z</time>
      </trkpt>
      <trkpt lat="44.69785" lon="5.17698">
        <ele>318</ele>
        <time>2022-11-17T10:03:31Z</time>
      </trkpt>
      <trkpt lat="44.69786" lon="5.1771">
        <ele>316</ele>
        <time>2022-11-17T10:03:31Z</time>
      </trkpt>
      <trkpt lat="44.69792" lon="5.17728">
        <ele>314</ele>
        <time>2022-11-17T10:03:31Z</time>
      </trkpt>
      <trkpt lat="44.69803" lon="5.17734">
        <ele>312</ele>
        <time>2022-11-17T10:03:31Z</time>
      </trkpt>
      <trkpt lat="44.69836" lon="5.17739">
        <ele>310</ele>
        <time>2022-11-17T10:03:31Z</time>
      </trkpt>
      <trkpt lat="44.69859" lon="5.17752">
        <ele>309</ele>
        <time>2022-11-17T10:03:31Z</time>
      </trkpt>
      <trkpt lat="44.69906" lon="5.17763">
        <ele>308</ele>
        <time>2022-11-17T10:03:31Z</time>
      </trkpt>
      <trkpt lat="44.69912" lon="5.17769">
        <ele>307</ele>
        <time>2022-11-17T10:03:31Z</time>
      </trkpt>
      <trkpt lat="44.69905" lon="5.17781">
        <ele>305</ele>
        <time>2022-11-17T10:03:31Z</time>
      </trkpt>
      <trkpt lat="44.69846" lon="5.17777">
        <ele>303</ele>
        <time>2022-11-17T10:03:31Z</time>
      </trkpt>
      <trkpt lat="44.69781" lon="5.17792">
        <ele>299</ele>
        <time>2022-11-17T10:03:31Z</time>
      </trkpt>
      <trkpt lat="44.69779" lon="5.17803">
        <ele>295</ele>
        <time>2022-11-17T10:03:31Z</time>
      </trkpt>
      <trkpt lat="44.69796" lon="5.17892">
        <ele>290</ele>
        <time>2022-11-17T10:03:31Z</time>
      </trkpt>
      <trkpt lat="44.69794" lon="5.17904">
        <ele>288</ele>
        <time>2022-11-17T10:03:31Z</time>
      </trkpt>
      <trkpt lat="44.69788" lon="5.17921">
        <ele>286</ele>
        <time>2022-11-17T10:03:31Z</time>
      </trkpt>
      <trkpt lat="44.6978" lon="5.17932">
        <ele>284</ele>
        <time>2022-11-17T10:03:31Z</time>
      </trkpt>
      <trkpt lat="44.69759" lon="5.18089">
        <ele>280</ele>
        <time>2022-11-17T10:03:31Z</time>
      </trkpt>
      <trkpt lat="44.69765" lon="5.18138">
        <ele>278</ele>
        <time>2022-11-17T10:03:31Z</time>
      </trkpt>
      <trkpt lat="44.69779" lon="5.18179">
        <ele>276</ele>
        <time>2022-11-17T10:03:31Z</time>
      </trkpt>
      <trkpt lat="44.69794" lon="5.1828">
        <ele>276</ele>
        <time>2022-11-17T10:03:31Z</time>
      </trkpt>
      <trkpt lat="44.69794" lon="5.18327">
        <ele>277</ele>
        <time>2022-11-17T10:03:31Z</time>
      </trkpt>
      <trkpt lat="44.69797" lon="5.18336">
        <ele>278</ele>
        <time>2022-11-17T10:03:31Z</time>
      </trkpt>
      <trkpt lat="44.69787" lon="5.18375">
        <ele>278</ele>
        <time>2022-11-17T10:03:31Z</time>
      </trkpt>
      <trkpt lat="44.69765" lon="5.18598">
        <ele>277</ele>
        <time>2022-11-17T10:03:31Z</time>
      </trkpt>
      <trkpt lat="44.69759" lon="5.18615">
        <ele>277</ele>
        <time>2022-11-17T10:03:31Z</time>
      </trkpt>
      <trkpt lat="44.69734" lon="5.18649">
        <ele>277</ele>
        <time>2022-11-17T10:03:31Z</time>
      </trkpt>
      <trkpt lat="44.69693" lon="5.18767">
        <ele>276</ele>
        <time>2022-11-17T10:03:31Z</time>
      </trkpt>
      <trkpt lat="44.69675" lon="5.18916">
        <ele>275</ele>
        <time>2022-11-17T10:03:31Z</time>
      </trkpt>
      <trkpt lat="44.69706" lon="5.192">
        <ele>270</ele>
        <time>2022-11-17T10:03:31Z</time>
      </trkpt>
      <trkpt lat="44.69685" lon="5.19392">
        <ele>267</ele>
        <time>2022-11-17T10:03:31Z</time>
      </trkpt>
      <trkpt lat="44.6968" lon="5.19402">
        <ele>266</ele>
        <time>2022-11-17T10:03:31Z</time>
      </trkpt>
      <trkpt lat="44.69674" lon="5.19488">
        <ele>265</ele>
        <time>2022-11-17T10:03:31Z</time>
      </trkpt>
      <trkpt lat="44.69646" lon="5.19614">
        <ele>264</ele>
        <time>2022-11-17T10:03:31Z</time>
      </trkpt>
      <trkpt lat="44.69647" lon="5.19648">
        <ele>264</ele>
        <time>2022-11-17T10:03:31Z</time>
      </trkpt>
      <trkpt lat="44.69657" lon="5.19689">
        <ele>264</ele>
        <time>2022-11-17T10:03:31Z</time>
      </trkpt>
      <trkpt lat="44.69649" lon="5.19699">
        <ele>264</ele>
        <time>2022-11-17T10:03:31Z</time>
      </trkpt>
      <trkpt lat="44.69649" lon="5.1971">
        <ele>264</ele>
        <time>2022-11-17T10:03:31Z</time>
      </trkpt>
      <trkpt lat="44.69654" lon="5.19726">
        <ele>264</ele>
        <time>2022-11-17T10:03:31Z</time>
      </trkpt>
      <trkpt lat="44.69663" lon="5.19726">
        <ele>264</ele>
        <time>2022-11-17T10:03:31Z</time>
      </trkpt>
      <trkpt lat="44.69676" lon="5.19864">
        <ele>265</ele>
        <time>2022-11-17T10:03:31Z</time>
      </trkpt>
      <trkpt lat="44.69675" lon="5.19878">
        <ele>266</ele>
        <time>2022-11-17T10:03:31Z</time>
      </trkpt>
      <trkpt lat="44.69684" lon="5.19882">
        <ele>267</ele>
        <time>2022-11-17T10:03:31Z</time>
      </trkpt>
      <trkpt lat="44.69692" lon="5.19891">
        <ele>267</ele>
        <time>2022-11-17T10:03:31Z</time>
      </trkpt>
      <trkpt lat="44.69688" lon="5.19968">
        <ele>268</ele>
        <time>2022-11-17T10:03:31Z</time>
      </trkpt>
      <trkpt lat="44.69708" lon="5.19981">
        <ele>268</ele>
        <time>2022-11-17T10:03:31Z</time>
        <extensions>
          <visugpx:TrkExtension xmlns:visugpx="https://www.visugpx.com/editgpx/">
            <visugpx:node>1</visugpx:node>
            </visugpx:TrkExtension>
        </extensions>
      </trkpt>
    </trkseg>
  </trk>
  <trk>
    <name><![CDATA[VTT N°5 rouge - Les Balcons de Blacons - 32km - déniv 780 m]]></name>
    <extensions>
      <line xmlns="http://www.topografix.com/GPX/gpx_style/0/2">
        <color>fc0019</color>
        <width>4</width>
      </line>
    </extensions>
    <trkseg>
      <trkpt lat="44.69682" lon="5.19908">
        <ele>268.2</ele>
        <time>2022-11-17T11:21:12Z</time>
      </trkpt>
      <trkpt lat="44.69693" lon="5.19909">
        <ele>269.2</ele>
        <time>2022-11-17T11:21:12Z</time>
      </trkpt>
      <trkpt lat="44.6969" lon="5.19955">
        <ele>268.2</ele>
        <time>2022-11-17T11:21:12Z</time>
      </trkpt>
      <trkpt lat="44.69698" lon="5.19971">
        <ele>268.3</ele>
        <time>2022-11-17T11:21:12Z</time>
      </trkpt>
      <trkpt lat="44.69727" lon="5.19992">
        <ele>271.6</ele>
        <time>2022-11-17T11:21:12Z</time>
      </trkpt>
      <trkpt lat="44.69736" lon="5.20006">
        <ele>274.3</ele>
        <time>2022-11-17T11:21:12Z</time>
      </trkpt>
      <trkpt lat="44.69745" lon="5.20012">
        <ele>276.7</ele>
        <time>2022-11-17T11:21:12Z</time>
      </trkpt>
      <trkpt lat="44.69825" lon="5.19928">
        <ele>285.3</ele>
        <time>2022-11-17T11:21:12Z</time>
      </trkpt>
      <trkpt lat="44.69894" lon="5.19825">
        <ele>284.2</ele>
        <time>2022-11-17T11:21:12Z</time>
      </trkpt>
      <trkpt lat="44.69917" lon="5.19805">
        <ele>286</ele>
        <time>2022-11-17T11:21:12Z</time>
      </trkpt>
      <trkpt lat="44.69977" lon="5.19783">
        <ele>288.9</ele>
        <time>2022-11-17T11:21:12Z</time>
      </trkpt>
      <trkpt lat="44.70031" lon="5.19787">
        <ele>292.1</ele>
        <time>2022-11-17T11:21:12Z</time>
      </trkpt>
      <trkpt lat="44.70149" lon="5.19778">
        <ele>286.8</ele>
        <time>2022-11-17T11:21:12Z</time>
      </trkpt>
      <trkpt lat="44.70197" lon="5.198">
        <ele>291.6</ele>
        <time>2022-11-17T11:21:12Z</time>
      </trkpt>
      <trkpt lat="44.70262" lon="5.19789">
        <ele>290.8</ele>
        <time>2022-11-17T11:21:12Z</time>
      </trkpt>
      <trkpt lat="44.70434" lon="5.19817">
        <ele>303.9</ele>
        <time>2022-11-17T11:21:12Z</time>
      </trkpt>
      <trkpt lat="44.70445" lon="5.19814">
        <ele>305.2</ele>
        <time>2022-11-17T11:21:12Z</time>
      </trkpt>
      <trkpt lat="44.70532" lon="5.19731">
        <ele>313.2</ele>
        <time>2022-11-17T11:21:12Z</time>
      </trkpt>
      <trkpt lat="44.70554" lon="5.19685">
        <ele>310.2</ele>
        <time>2022-11-17T11:21:12Z</time>
      </trkpt>
      <trkpt lat="44.70567" lon="5.1967">
        <ele>310.7</ele>
        <time>2022-11-17T11:21:12Z</time>
      </trkpt>
      <trkpt lat="44.70589" lon="5.19659">
        <ele>314.9</ele>
        <time>2022-11-17T11:21:12Z</time>
      </trkpt>
      <trkpt lat="44.70632" lon="5.19662">
        <ele>319.6</ele>
        <time>2022-11-17T11:21:12Z</time>
      </trkpt>
      <trkpt lat="44.70665" lon="5.19675">
        <ele>321.9</ele>
        <time>2022-11-17T11:21:12Z</time>
      </trkpt>
      <trkpt lat="44.70674" lon="5.19673">
        <ele>320.9</ele>
        <time>2022-11-17T11:21:12Z</time>
      </trkpt>
      <trkpt lat="44.70793" lon="5.19719">
        <ele>332.3</ele>
        <time>2022-11-17T11:21:12Z</time>
      </trkpt>
      <trkpt lat="44.70899" lon="5.19681">
        <ele>318</ele>
        <time>2022-11-17T11:21:12Z</time>
      </trkpt>
      <trkpt lat="44.70935" lon="5.19647">
        <ele>314.3</ele>
        <time>2022-11-17T11:21:12Z</time>
      </trkpt>
      <trkpt lat="44.70953" lon="5.19639">
        <ele>313.3</ele>
        <time>2022-11-17T11:21:12Z</time>
      </trkpt>
      <trkpt lat="44.7096" lon="5.19632">
        <ele>313.2</ele>
        <time>2022-11-17T11:21:12Z</time>
      </trkpt>
      <trkpt lat="44.70961" lon="5.19622">
        <ele>312.8</ele>
        <time>2022-11-17T11:21:12Z</time>
      </trkpt>
      <trkpt lat="44.70961" lon="5.19612">
        <ele>312.2</ele>
        <time>2022-11-17T11:21:12Z</time>
      </trkpt>
      <trkpt lat="44.70956" lon="5.19602">
        <ele>312.5</ele>
        <time>2022-11-17T11:21:12Z</time>
      </trkpt>
      <trkpt lat="44.70944" lon="5.19591">
        <ele>311.7</ele>
        <time>2022-11-17T11:21:12Z</time>
      </trkpt>
      <trkpt lat="44.7094" lon="5.19583">
        <ele>311.6</ele>
        <time>2022-11-17T11:21:12Z</time>
      </trkpt>
      <trkpt lat="44.7094" lon="5.19571">
        <ele>311.9</ele>
        <time>2022-11-17T11:21:12Z</time>
      </trkpt>
      <trkpt lat="44.70964" lon="5.19511">
        <ele>318.1</ele>
        <time>2022-11-17T11:21:12Z</time>
      </trkpt>
      <trkpt lat="44.71018" lon="5.19447">
        <ele>331.3</ele>
        <time>2022-11-17T11:21:12Z</time>
      </trkpt>
      <trkpt lat="44.71027" lon="5.19396">
        <ele>328.5</ele>
        <time>2022-11-17T11:21:12Z</time>
      </trkpt>
      <trkpt lat="44.71073" lon="5.19296">
        <ele>334.5</ele>
        <time>2022-11-17T11:21:12Z</time>
      </trkpt>
      <trkpt lat="44.71088" lon="5.19278">
        <ele>335.4</ele>
        <time>2022-11-17T11:21:12Z</time>
      </trkpt>
      <trkpt lat="44.71411" lon="5.19152">
        <ele>341.9</ele>
        <time>2022-11-17T11:21:12Z</time>
      </trkpt>
      <trkpt lat="44.71481" lon="5.19108">
        <ele>342.3</ele>
        <time>2022-11-17T11:21:12Z</time>
      </trkpt>
      <trkpt lat="44.715" lon="5.19111">
        <ele>344.1</ele>
        <time>2022-11-17T11:21:12Z</time>
      </trkpt>
      <trkpt lat="44.71654" lon="5.19164">
        <ele>364.5</ele>
        <time>2022-11-17T11:21:12Z</time>
      </trkpt>
      <trkpt lat="44.71676" lon="5.1919">
        <ele>368.8</ele>
        <time>2022-11-17T11:21:12Z</time>
      </trkpt>
      <trkpt lat="44.71686" lon="5.19192">
        <ele>370.1</ele>
        <time>2022-11-17T11:21:12Z</time>
      </trkpt>
      <trkpt lat="44.71699" lon="5.19201">
        <ele>373.1</ele>
        <time>2022-11-17T11:21:12Z</time>
      </trkpt>
      <trkpt lat="44.71696" lon="5.19214">
        <ele>374.1</ele>
        <time>2022-11-17T11:21:12Z</time>
      </trkpt>
      <trkpt lat="44.71632" lon="5.19198">
        <ele>366.3</ele>
        <time>2022-11-17T11:21:12Z</time>
      </trkpt>
      <trkpt lat="44.71612" lon="5.19202">
        <ele>366.3</ele>
        <time>2022-11-17T11:21:12Z</time>
      </trkpt>
      <trkpt lat="44.71574" lon="5.19231">
        <ele>372.5</ele>
        <time>2022-11-17T11:21:12Z</time>
      </trkpt>
      <trkpt lat="44.71562" lon="5.19248">
        <ele>377.3</ele>
        <time>2022-11-17T11:21:12Z</time>
      </trkpt>
      <trkpt lat="44.71554" lon="5.19254">
        <ele>379.2</ele>
        <time>2022-11-17T11:21:12Z</time>
      </trkpt>
      <trkpt lat="44.71544" lon="5.19256">
        <ele>379.9</ele>
        <time>2022-11-17T11:21:12Z</time>
      </trkpt>
      <trkpt lat="44.71503" lon="5.19245">
        <ele>375.4</ele>
        <time>2022-11-17T11:21:12Z</time>
      </trkpt>
      <trkpt lat="44.7148" lon="5.19252">
        <ele>376.1</ele>
        <time>2022-11-17T11:21:12Z</time>
      </trkpt>
      <trkpt lat="44.71428" lon="5.19305">
        <ele>394.1</ele>
        <time>2022-11-17T11:21:12Z</time>
      </trkpt>
      <trkpt lat="44.7142" lon="5.1931">
        <ele>395.3</ele>
        <time>2022-11-17T11:21:12Z</time>
      </trkpt>
      <trkpt lat="44.71388" lon="5.19312">
        <ele>396.7</ele>
        <time>2022-11-17T11:21:12Z</time>
      </trkpt>
      <trkpt lat="44.71381" lon="5.19316">
        <ele>397.4</ele>
        <time>2022-11-17T11:21:12Z</time>
      </trkpt>
      <trkpt lat="44.71184" lon="5.19415">
        <ele>409.2</ele>
        <time>2022-11-17T11:21:12Z</time>
      </trkpt>
      <trkpt lat="44.71177" lon="5.19424">
        <ele>408.1</ele>
        <time>2022-11-17T11:21:12Z</time>
      </trkpt>
      <trkpt lat="44.71175" lon="5.19434">
        <ele>408.1</ele>
        <time>2022-11-17T11:21:12Z</time>
      </trkpt>
      <trkpt lat="44.71176" lon="5.19448">
        <ele>409.4</ele>
        <time>2022-11-17T11:21:12Z</time>
      </trkpt>
      <trkpt lat="44.7122" lon="5.19574">
        <ele>413.3</ele>
        <time>2022-11-17T11:21:12Z</time>
      </trkpt>
      <trkpt lat="44.71225" lon="5.19581">
        <ele>412.9</ele>
        <time>2022-11-17T11:21:12Z</time>
      </trkpt>
      <trkpt lat="44.71233" lon="5.19584">
        <ele>413.5</ele>
        <time>2022-11-17T11:21:12Z</time>
      </trkpt>
      <trkpt lat="44.71278" lon="5.19582">
        <ele>420.6</ele>
        <time>2022-11-17T11:21:12Z</time>
      </trkpt>
      <trkpt lat="44.71307" lon="5.1959">
        <ele>425.2</ele>
        <time>2022-11-17T11:21:12Z</time>
      </trkpt>
      <trkpt lat="44.71321" lon="5.19598">
        <ele>426.9</ele>
        <time>2022-11-17T11:21:12Z</time>
      </trkpt>
      <trkpt lat="44.71338" lon="5.19621">
        <ele>427.2</ele>
        <time>2022-11-17T11:21:12Z</time>
      </trkpt>
      <trkpt lat="44.71349" lon="5.19652">
        <ele>423.1</ele>
        <time>2022-11-17T11:21:12Z</time>
      </trkpt>
      <trkpt lat="44.71369" lon="5.19681">
        <ele>420.8</ele>
        <time>2022-11-17T11:21:12Z</time>
      </trkpt>
      <trkpt lat="44.71387" lon="5.19695">
        <ele>421.8</ele>
        <time>2022-11-17T11:21:12Z</time>
      </trkpt>
      <trkpt lat="44.714" lon="5.19701">
        <ele>421.7</ele>
        <time>2022-11-17T11:21:12Z</time>
      </trkpt>
      <trkpt lat="44.7146" lon="5.19708">
        <ele>421.7</ele>
        <time>2022-11-17T11:21:12Z</time>
      </trkpt>
      <trkpt lat="44.7147" lon="5.19703">
        <ele>423</ele>
        <time>2022-11-17T11:21:12Z</time>
      </trkpt>
      <trkpt lat="44.71499" lon="5.19676">
        <ele>425.2</ele>
        <time>2022-11-17T11:21:12Z</time>
      </trkpt>
      <trkpt lat="44.71539" lon="5.19655">
        <ele>424.6</ele>
        <time>2022-11-17T11:21:12Z</time>
      </trkpt>
      <trkpt lat="44.71592" lon="5.19642">
        <ele>430.1</ele>
        <time>2022-11-17T11:21:12Z</time>
      </trkpt>
      <trkpt lat="44.71623" lon="5.19648">
        <ele>425.5</ele>
        <time>2022-11-17T11:21:12Z</time>
      </trkpt>
      <trkpt lat="44.71633" lon="5.19646">
        <ele>425.4</ele>
        <time>2022-11-17T11:21:12Z</time>
      </trkpt>
      <trkpt lat="44.71666" lon="5.19621">
        <ele>428.4</ele>
        <time>2022-11-17T11:21:12Z</time>
      </trkpt>
      <trkpt lat="44.7191" lon="5.19538">
        <ele>404.5</ele>
        <time>2022-11-17T11:21:12Z</time>
      </trkpt>
      <trkpt lat="44.71943" lon="5.19565">
        <ele>396.5</ele>
        <time>2022-11-17T11:21:12Z</time>
      </trkpt>
      <trkpt lat="44.71956" lon="5.19568">
        <ele>393.7</ele>
        <time>2022-11-17T11:21:12Z</time>
      </trkpt>
      <trkpt lat="44.71966" lon="5.19567">
        <ele>392.7</ele>
        <time>2022-11-17T11:21:12Z</time>
      </trkpt>
      <trkpt lat="44.72012" lon="5.19526">
        <ele>393.5</ele>
        <time>2022-11-17T11:21:12Z</time>
      </trkpt>
      <trkpt lat="44.72038" lon="5.19529">
        <ele>388.1</ele>
        <time>2022-11-17T11:21:12Z</time>
      </trkpt>
      <trkpt lat="44.72116" lon="5.19522">
        <ele>384</ele>
        <time>2022-11-17T11:21:12Z</time>
      </trkpt>
      <trkpt lat="44.72232" lon="5.19473">
        <ele>384.4</ele>
        <time>2022-11-17T11:21:12Z</time>
      </trkpt>
      <trkpt lat="44.72283" lon="5.19481">
        <ele>395.2</ele>
        <time>2022-11-17T11:21:12Z</time>
      </trkpt>
      <trkpt lat="44.72335" lon="5.19432">
        <ele>395.7</ele>
        <time>2022-11-17T11:21:12Z</time>
      </trkpt>
      <trkpt lat="44.72389" lon="5.19404">
        <ele>400.8</ele>
        <time>2022-11-17T11:21:12Z</time>
      </trkpt>
      <trkpt lat="44.7239" lon="5.19366">
        <ele>392.8</ele>
        <time>2022-11-17T11:21:12Z</time>
      </trkpt>
      <trkpt lat="44.72425" lon="5.1931">
        <ele>390.7</ele>
        <time>2022-11-17T11:21:12Z</time>
      </trkpt>
      <trkpt lat="44.72424" lon="5.19112">
        <ele>422</ele>
        <time>2022-11-17T11:21:12Z</time>
      </trkpt>
      <trkpt lat="44.72392" lon="5.19017">
        <ele>419.5</ele>
        <time>2022-11-17T11:21:12Z</time>
      </trkpt>
      <trkpt lat="44.7238" lon="5.18994">
        <ele>418.2</ele>
        <time>2022-11-17T11:21:12Z</time>
      </trkpt>
      <trkpt lat="44.72377" lon="5.18984">
        <ele>418.3</ele>
        <time>2022-11-17T11:21:12Z</time>
      </trkpt>
      <trkpt lat="44.72376" lon="5.18972">
        <ele>419.3</ele>
        <time>2022-11-17T11:21:12Z</time>
      </trkpt>
      <trkpt lat="44.72384" lon="5.18937">
        <ele>421.6</ele>
        <time>2022-11-17T11:21:12Z</time>
      </trkpt>
      <trkpt lat="44.7238" lon="5.18918">
        <ele>421.9</ele>
        <time>2022-11-17T11:21:12Z</time>
      </trkpt>
      <trkpt lat="44.72367" lon="5.18915">
        <ele>423.7</ele>
        <time>2022-11-17T11:21:12Z</time>
      </trkpt>
      <trkpt lat="44.72338" lon="5.18943">
        <ele>427.6</ele>
        <time>2022-11-17T11:21:12Z</time>
      </trkpt>
      <trkpt lat="44.72302" lon="5.19086">
        <ele>433.1</ele>
        <time>2022-11-17T11:21:12Z</time>
      </trkpt>
      <trkpt lat="44.72295" lon="5.19087">
        <ele>435.6</ele>
        <time>2022-11-17T11:21:12Z</time>
      </trkpt>
      <trkpt lat="44.72293" lon="5.19075">
        <ele>437.5</ele>
        <time>2022-11-17T11:21:12Z</time>
      </trkpt>
      <trkpt lat="44.72308" lon="5.18972">
        <ele>439.8</ele>
        <time>2022-11-17T11:21:12Z</time>
      </trkpt>
      <trkpt lat="44.72308" lon="5.18935">
        <ele>439.3</ele>
        <time>2022-11-17T11:21:12Z</time>
      </trkpt>
      <trkpt lat="44.72312" lon="5.1891">
        <ele>438</ele>
        <time>2022-11-17T11:21:12Z</time>
      </trkpt>
      <trkpt lat="44.72318" lon="5.18896">
        <ele>437</ele>
        <time>2022-11-17T11:21:12Z</time>
      </trkpt>
      <trkpt lat="44.72425" lon="5.18752">
        <ele>438.5</ele>
        <time>2022-11-17T11:21:12Z</time>
      </trkpt>
      <trkpt lat="44.7243" lon="5.18738">
        <ele>439.2</ele>
        <time>2022-11-17T11:21:12Z</time>
      </trkpt>
      <trkpt lat="44.72429" lon="5.18715">
        <ele>440.4</ele>
        <time>2022-11-17T11:21:12Z</time>
      </trkpt>
      <trkpt lat="44.72438" lon="5.18702">
        <ele>441.3</ele>
        <time>2022-11-17T11:21:12Z</time>
      </trkpt>
      <trkpt lat="44.72448" lon="5.18668">
        <ele>444.8</ele>
        <time>2022-11-17T11:21:12Z</time>
      </trkpt>
      <trkpt lat="44.72457" lon="5.1866">
        <ele>445</ele>
        <time>2022-11-17T11:21:12Z</time>
      </trkpt>
      <trkpt lat="44.72457" lon="5.18645">
        <ele>446.1</ele>
        <time>2022-11-17T11:21:12Z</time>
      </trkpt>
      <trkpt lat="44.72464" lon="5.18627">
        <ele>447.8</ele>
        <time>2022-11-17T11:21:12Z</time>
      </trkpt>
      <trkpt lat="44.72508" lon="5.18547">
        <ele>459.9</ele>
        <time>2022-11-17T11:21:12Z</time>
      </trkpt>
      <trkpt lat="44.72538" lon="5.18512">
        <ele>469</ele>
        <time>2022-11-17T11:21:12Z</time>
      </trkpt>
      <trkpt lat="44.72549" lon="5.18509">
        <ele>472.2</ele>
        <time>2022-11-17T11:21:12Z</time>
      </trkpt>
      <trkpt lat="44.7257" lon="5.18521">
        <ele>476.1</ele>
        <time>2022-11-17T11:21:12Z</time>
      </trkpt>
      <trkpt lat="44.72578" lon="5.18522">
        <ele>477.2</ele>
        <time>2022-11-17T11:21:12Z</time>
      </trkpt>
      <trkpt lat="44.72589" lon="5.18517">
        <ele>477.1</ele>
        <time>2022-11-17T11:21:12Z</time>
      </trkpt>
      <trkpt lat="44.72595" lon="5.18499">
        <ele>476.8</ele>
        <time>2022-11-17T11:21:12Z</time>
      </trkpt>
      <trkpt lat="44.72598" lon="5.18474">
        <ele>478.4</ele>
        <time>2022-11-17T11:21:12Z</time>
      </trkpt>
      <trkpt lat="44.72613" lon="5.18434">
        <ele>483.3</ele>
        <time>2022-11-17T11:21:12Z</time>
      </trkpt>
      <trkpt lat="44.72593" lon="5.1851">
        <ele>476.7</ele>
        <time>2022-11-17T11:21:12Z</time>
      </trkpt>
      <trkpt lat="44.72584" lon="5.18521">
        <ele>478</ele>
        <time>2022-11-17T11:21:12Z</time>
      </trkpt>
      <trkpt lat="44.7257" lon="5.18521">
        <ele>476.1</ele>
        <time>2022-11-17T11:21:12Z</time>
      </trkpt>
      <trkpt lat="44.72555" lon="5.18511">
        <ele>474</ele>
        <time>2022-11-17T11:21:12Z</time>
      </trkpt>
      <trkpt lat="44.72544" lon="5.18509">
        <ele>470.6</ele>
        <time>2022-11-17T11:21:12Z</time>
      </trkpt>
      <trkpt lat="44.72532" lon="5.1852">
        <ele>467.1</ele>
        <time>2022-11-17T11:21:12Z</time>
      </trkpt>
      <trkpt lat="44.72459" lon="5.18635">
        <ele>446.8</ele>
        <time>2022-11-17T11:21:12Z</time>
      </trkpt>
      <trkpt lat="44.72457" lon="5.1866">
        <ele>445</ele>
        <time>2022-11-17T11:21:12Z</time>
      </trkpt>
      <trkpt lat="44.72495" lon="5.18591">
        <ele>454.7</ele>
        <time>2022-11-17T11:21:12Z</time>
      </trkpt>
      <trkpt lat="44.72506" lon="5.1858">
        <ele>457.3</ele>
        <time>2022-11-17T11:21:12Z</time>
      </trkpt>
      <trkpt lat="44.72515" lon="5.18575">
        <ele>459.4</ele>
        <time>2022-11-17T11:21:12Z</time>
      </trkpt>
      <trkpt lat="44.72523" lon="5.18575">
        <ele>460.9</ele>
        <time>2022-11-17T11:21:12Z</time>
      </trkpt>
      <trkpt lat="44.72539" lon="5.18583">
        <ele>462.6</ele>
        <time>2022-11-17T11:21:12Z</time>
      </trkpt>
      <trkpt lat="44.72551" lon="5.18582">
        <ele>464.6</ele>
        <time>2022-11-17T11:21:12Z</time>
      </trkpt>
      <trkpt lat="44.72563" lon="5.18572">
        <ele>467.6</ele>
        <time>2022-11-17T11:21:12Z</time>
      </trkpt>
      <trkpt lat="44.72575" lon="5.18567">
        <ele>469.6</ele>
        <time>2022-11-17T11:21:12Z</time>
      </trkpt>
      <trkpt lat="44.72598" lon="5.18569">
        <ele>468</ele>
        <time>2022-11-17T11:21:12Z</time>
      </trkpt>
      <trkpt lat="44.72609" lon="5.18561">
        <ele>468.4</ele>
        <time>2022-11-17T11:21:12Z</time>
      </trkpt>
      <trkpt lat="44.72614" lon="5.18537">
        <ele>471</ele>
        <time>2022-11-17T11:21:12Z</time>
      </trkpt>
      <trkpt lat="44.72614" lon="5.18514">
        <ele>473.2</ele>
        <time>2022-11-17T11:21:12Z</time>
      </trkpt>
      <trkpt lat="44.72618" lon="5.18492">
        <ele>474</ele>
        <time>2022-11-17T11:21:12Z</time>
      </trkpt>
      <trkpt lat="44.72661" lon="5.18401">
        <ele>482.1</ele>
        <time>2022-11-17T11:21:12Z</time>
      </trkpt>
      <trkpt lat="44.72679" lon="5.18379">
        <ele>484.8</ele>
        <time>2022-11-17T11:21:12Z</time>
      </trkpt>
      <trkpt lat="44.72731" lon="5.18348">
        <ele>487.6</ele>
        <time>2022-11-17T11:21:12Z</time>
      </trkpt>
      <trkpt lat="44.72737" lon="5.1834">
        <ele>488.9</ele>
        <time>2022-11-17T11:21:12Z</time>
      </trkpt>
      <trkpt lat="44.72747" lon="5.18318">
        <ele>493.3</ele>
        <time>2022-11-17T11:21:12Z</time>
      </trkpt>
      <trkpt lat="44.72813" lon="5.18244">
        <ele>505.4</ele>
        <time>2022-11-17T11:21:12Z</time>
      </trkpt>
      <trkpt lat="44.72831" lon="5.18213">
        <ele>510.5</ele>
        <time>2022-11-17T11:21:12Z</time>
      </trkpt>
      <trkpt lat="44.72838" lon="5.18206">
        <ele>511.6</ele>
        <time>2022-11-17T11:21:12Z</time>
      </trkpt>
      <trkpt lat="44.72853" lon="5.18211">
        <ele>512.2</ele>
        <time>2022-11-17T11:21:12Z</time>
      </trkpt>
      <trkpt lat="44.7286" lon="5.18219">
        <ele>512.1</ele>
        <time>2022-11-17T11:21:12Z</time>
      </trkpt>
      <trkpt lat="44.72879" lon="5.18256">
        <ele>510.6</ele>
        <time>2022-11-17T11:21:12Z</time>
      </trkpt>
      <trkpt lat="44.72892" lon="5.18261">
        <ele>510.5</ele>
        <time>2022-11-17T11:21:12Z</time>
      </trkpt>
      <trkpt lat="44.72977" lon="5.18149">
        <ele>503.3</ele>
        <time>2022-11-17T11:21:12Z</time>
      </trkpt>
      <trkpt lat="44.72995" lon="5.18147">
        <ele>501.1</ele>
        <time>2022-11-17T11:21:12Z</time>
      </trkpt>
      <trkpt lat="44.73009" lon="5.1817">
        <ele>503.1</ele>
        <time>2022-11-17T11:21:12Z</time>
      </trkpt>
      <trkpt lat="44.73028" lon="5.18248">
        <ele>512</ele>
        <time>2022-11-17T11:21:12Z</time>
      </trkpt>
      <trkpt lat="44.73026" lon="5.18438">
        <ele>512</ele>
        <time>2022-11-17T11:21:12Z</time>
      </trkpt>
      <trkpt lat="44.73037" lon="5.18454">
        <ele>511.7</ele>
        <time>2022-11-17T11:21:12Z</time>
      </trkpt>
      <trkpt lat="44.73045" lon="5.18458">
        <ele>512</ele>
        <time>2022-11-17T11:21:12Z</time>
      </trkpt>
      <trkpt lat="44.73069" lon="5.18461">
        <ele>515.2</ele>
        <time>2022-11-17T11:21:12Z</time>
      </trkpt>
      <trkpt lat="44.73076" lon="5.18469">
        <ele>514.9</ele>
        <time>2022-11-17T11:21:12Z</time>
      </trkpt>
      <trkpt lat="44.73101" lon="5.18513">
        <ele>513.7</ele>
        <time>2022-11-17T11:21:12Z</time>
      </trkpt>
      <trkpt lat="44.73109" lon="5.18521">
        <ele>513.6</ele>
        <time>2022-11-17T11:21:12Z</time>
      </trkpt>
      <trkpt lat="44.7312" lon="5.18523">
        <ele>512.3</ele>
        <time>2022-11-17T11:21:12Z</time>
      </trkpt>
      <trkpt lat="44.73126" lon="5.18517">
        <ele>511.9</ele>
        <time>2022-11-17T11:21:12Z</time>
      </trkpt>
      <trkpt lat="44.73131" lon="5.18498">
        <ele>512.5</ele>
        <time>2022-11-17T11:21:12Z</time>
      </trkpt>
      <trkpt lat="44.73129" lon="5.18425">
        <ele>520.3</ele>
        <time>2022-11-17T11:21:12Z</time>
      </trkpt>
      <trkpt lat="44.73171" lon="5.18348">
        <ele>528.7</ele>
        <time>2022-11-17T11:21:12Z</time>
      </trkpt>
      <trkpt lat="44.7318" lon="5.18344">
        <ele>528.4</ele>
        <time>2022-11-17T11:21:12Z</time>
      </trkpt>
      <trkpt lat="44.73227" lon="5.18341">
        <ele>520.3</ele>
        <time>2022-11-17T11:21:12Z</time>
      </trkpt>
      <trkpt lat="44.73233" lon="5.18332">
        <ele>520.5</ele>
        <time>2022-11-17T11:21:12Z</time>
      </trkpt>
      <trkpt lat="44.73242" lon="5.18297">
        <ele>523</ele>
        <time>2022-11-17T11:21:12Z</time>
      </trkpt>
      <trkpt lat="44.73262" lon="5.18122">
        <ele>524.3</ele>
        <time>2022-11-17T11:21:12Z</time>
      </trkpt>
      <trkpt lat="44.73256" lon="5.1808">
        <ele>530.1</ele>
        <time>2022-11-17T11:21:12Z</time>
      </trkpt>
      <trkpt lat="44.73261" lon="5.18063">
        <ele>530.5</ele>
        <time>2022-11-17T11:21:12Z</time>
      </trkpt>
      <trkpt lat="44.73278" lon="5.18058">
        <ele>524.7</ele>
        <time>2022-11-17T11:21:12Z</time>
      </trkpt>
      <trkpt lat="44.73287" lon="5.18049">
        <ele>523.7</ele>
        <time>2022-11-17T11:21:12Z</time>
      </trkpt>
      <trkpt lat="44.73292" lon="5.18039">
        <ele>524.4</ele>
        <time>2022-11-17T11:21:12Z</time>
      </trkpt>
      <trkpt lat="44.73305" lon="5.17986">
        <ele>531.8</ele>
        <time>2022-11-17T11:21:12Z</time>
      </trkpt>
      <trkpt lat="44.73311" lon="5.17978">
        <ele>533.3</ele>
        <time>2022-11-17T11:21:12Z</time>
      </trkpt>
      <trkpt lat="44.73341" lon="5.17955">
        <ele>539.8</ele>
        <time>2022-11-17T11:21:12Z</time>
      </trkpt>
      <trkpt lat="44.73351" lon="5.17958">
        <ele>542.5</ele>
        <time>2022-11-17T11:21:12Z</time>
      </trkpt>
      <trkpt lat="44.73371" lon="5.18046">
        <ele>537</ele>
        <time>2022-11-17T11:21:12Z</time>
      </trkpt>
      <trkpt lat="44.73376" lon="5.18055">
        <ele>536.8</ele>
        <time>2022-11-17T11:21:12Z</time>
      </trkpt>
      <trkpt lat="44.73389" lon="5.18052">
        <ele>539.6</ele>
        <time>2022-11-17T11:21:12Z</time>
      </trkpt>
      <trkpt lat="44.73406" lon="5.18033">
        <ele>541.1</ele>
        <time>2022-11-17T11:21:12Z</time>
      </trkpt>
      <trkpt lat="44.73421" lon="5.18022">
        <ele>542.5</ele>
        <time>2022-11-17T11:21:12Z</time>
      </trkpt>
      <trkpt lat="44.73436" lon="5.1802">
        <ele>541.9</ele>
        <time>2022-11-17T11:21:12Z</time>
      </trkpt>
      <trkpt lat="44.73444" lon="5.18023">
        <ele>539.9</ele>
        <time>2022-11-17T11:21:12Z</time>
      </trkpt>
      <trkpt lat="44.73457" lon="5.18035">
        <ele>540.8</ele>
        <time>2022-11-17T11:21:12Z</time>
      </trkpt>
      <trkpt lat="44.73465" lon="5.18067">
        <ele>537.1</ele>
        <time>2022-11-17T11:21:12Z</time>
      </trkpt>
      <trkpt lat="44.73474" lon="5.18077">
        <ele>538.2</ele>
        <time>2022-11-17T11:21:12Z</time>
      </trkpt>
      <trkpt lat="44.73605" lon="5.18023">
        <ele>547.5</ele>
        <time>2022-11-17T11:21:12Z</time>
      </trkpt>
      <trkpt lat="44.73625" lon="5.18024">
        <ele>548.7</ele>
        <time>2022-11-17T11:21:12Z</time>
      </trkpt>
      <trkpt lat="44.73676" lon="5.18053">
        <ele>550.3</ele>
        <time>2022-11-17T11:21:12Z</time>
      </trkpt>
      <trkpt lat="44.73743" lon="5.1811">
        <ele>553.7</ele>
        <time>2022-11-17T11:21:12Z</time>
      </trkpt>
      <trkpt lat="44.73792" lon="5.18172">
        <ele>554.8</ele>
        <time>2022-11-17T11:21:12Z</time>
      </trkpt>
      <trkpt lat="44.73828" lon="5.1819">
        <ele>554.6</ele>
        <time>2022-11-17T11:21:12Z</time>
      </trkpt>
      <trkpt lat="44.73848" lon="5.18189">
        <ele>556.3</ele>
        <time>2022-11-17T11:21:12Z</time>
      </trkpt>
      <trkpt lat="44.73848" lon="5.18189">
        <ele>556.3</ele>
        <time>2022-11-17T11:21:12Z</time>
      </trkpt>
      <trkpt lat="44.73856" lon="5.18197">
        <ele>557.2</ele>
        <time>2022-11-17T11:21:12Z</time>
      </trkpt>
      <trkpt lat="44.73918" lon="5.18204">
        <ele>571.5</ele>
        <time>2022-11-17T11:21:12Z</time>
      </trkpt>
      <trkpt lat="44.73927" lon="5.18203">
        <ele>573.4</ele>
        <time>2022-11-17T11:21:12Z</time>
      </trkpt>
      <trkpt lat="44.73936" lon="5.18204">
        <ele>576.1</ele>
        <time>2022-11-17T11:21:12Z</time>
      </trkpt>
      <trkpt lat="44.74005" lon="5.1816">
        <ele>578.8</ele>
        <time>2022-11-17T11:21:12Z</time>
      </trkpt>
      <trkpt lat="44.74024" lon="5.18155">
        <ele>580.2</ele>
        <time>2022-11-17T11:21:12Z</time>
      </trkpt>
      <trkpt lat="44.74038" lon="5.18156">
        <ele>582</ele>
        <time>2022-11-17T11:21:12Z</time>
      </trkpt>
      <trkpt lat="44.74053" lon="5.18164">
        <ele>584.4</ele>
        <time>2022-11-17T11:21:12Z</time>
      </trkpt>
      <trkpt lat="44.74062" lon="5.18158">
        <ele>584.8</ele>
        <time>2022-11-17T11:21:12Z</time>
      </trkpt>
      <trkpt lat="44.74078" lon="5.17995">
        <ele>592.9</ele>
        <time>2022-11-17T11:21:12Z</time>
      </trkpt>
      <trkpt lat="44.741" lon="5.17931">
        <ele>598.5</ele>
        <time>2022-11-17T11:21:12Z</time>
      </trkpt>
      <trkpt lat="44.74263" lon="5.17647">
        <ele>599.9</ele>
        <time>2022-11-17T11:21:12Z</time>
      </trkpt>
      <trkpt lat="44.74273" lon="5.1764">
        <ele>599.6</ele>
        <time>2022-11-17T11:21:12Z</time>
      </trkpt>
      <trkpt lat="44.74283" lon="5.17646">
        <ele>600</ele>
        <time>2022-11-17T11:21:12Z</time>
      </trkpt>
      <trkpt lat="44.74306" lon="5.17674">
        <ele>598.7</ele>
        <time>2022-11-17T11:21:12Z</time>
      </trkpt>
      <trkpt lat="44.74337" lon="5.17739">
        <ele>597.5</ele>
        <time>2022-11-17T11:21:12Z</time>
      </trkpt>
      <trkpt lat="44.74347" lon="5.17745">
        <ele>597.4</ele>
        <time>2022-11-17T11:21:12Z</time>
      </trkpt>
      <trkpt lat="44.74376" lon="5.17748">
        <ele>595.5</ele>
        <time>2022-11-17T11:21:12Z</time>
      </trkpt>
      <trkpt lat="44.7439" lon="5.17742">
        <ele>593.1</ele>
        <time>2022-11-17T11:21:12Z</time>
      </trkpt>
      <trkpt lat="44.744" lon="5.17741">
        <ele>591.8</ele>
        <time>2022-11-17T11:21:12Z</time>
      </trkpt>
      <trkpt lat="44.74411" lon="5.17745">
        <ele>591.1</ele>
        <time>2022-11-17T11:21:12Z</time>
      </trkpt>
      <trkpt lat="44.74435" lon="5.17777">
        <ele>588.3</ele>
        <time>2022-11-17T11:21:12Z</time>
      </trkpt>
      <trkpt lat="44.74474" lon="5.17862">
        <ele>583.5</ele>
        <time>2022-11-17T11:21:12Z</time>
      </trkpt>
      <trkpt lat="44.74489" lon="5.17923">
        <ele>581</ele>
        <time>2022-11-17T11:21:12Z</time>
      </trkpt>
      <trkpt lat="44.74495" lon="5.17936">
        <ele>580.1</ele>
        <time>2022-11-17T11:21:12Z</time>
      </trkpt>
      <trkpt lat="44.74498" lon="5.17951">
        <ele>579.4</ele>
        <time>2022-11-17T11:21:12Z</time>
      </trkpt>
      <trkpt lat="44.7449" lon="5.17986">
        <ele>581.9</ele>
        <time>2022-11-17T11:21:12Z</time>
      </trkpt>
      <trkpt lat="44.74494" lon="5.17999">
        <ele>581</ele>
        <time>2022-11-17T11:21:12Z</time>
      </trkpt>
      <trkpt lat="44.7453" lon="5.18048">
        <ele>584.1</ele>
        <time>2022-11-17T11:21:12Z</time>
      </trkpt>
      <trkpt lat="44.74563" lon="5.18061">
        <ele>580.5</ele>
        <time>2022-11-17T11:21:12Z</time>
      </trkpt>
      <trkpt lat="44.74589" lon="5.18062">
        <ele>577.6</ele>
        <time>2022-11-17T11:21:12Z</time>
      </trkpt>
      <trkpt lat="44.74688" lon="5.18022">
        <ele>566.9</ele>
        <time>2022-11-17T11:21:12Z</time>
      </trkpt>
      <trkpt lat="44.74705" lon="5.18007">
        <ele>564.3</ele>
        <time>2022-11-17T11:21:12Z</time>
      </trkpt>
      <trkpt lat="44.74733" lon="5.17996">
        <ele>560.6</ele>
        <time>2022-11-17T11:21:12Z</time>
      </trkpt>
      <trkpt lat="44.74748" lon="5.17979">
        <ele>558</ele>
        <time>2022-11-17T11:21:12Z</time>
      </trkpt>
      <trkpt lat="44.74752" lon="5.17967">
        <ele>556.5</ele>
        <time>2022-11-17T11:21:12Z</time>
      </trkpt>
      <trkpt lat="44.74759" lon="5.17963">
        <ele>554.6</ele>
        <time>2022-11-17T11:21:12Z</time>
      </trkpt>
      <trkpt lat="44.7477" lon="5.17966">
        <ele>553.2</ele>
        <time>2022-11-17T11:21:12Z</time>
      </trkpt>
      <trkpt lat="44.74777" lon="5.17959">
        <ele>551.6</ele>
        <time>2022-11-17T11:21:12Z</time>
      </trkpt>
      <trkpt lat="44.74781" lon="5.17948">
        <ele>550.5</ele>
        <time>2022-11-17T11:21:12Z</time>
      </trkpt>
      <trkpt lat="44.74786" lon="5.17958">
        <ele>549.3</ele>
        <time>2022-11-17T11:21:12Z</time>
      </trkpt>
      <trkpt lat="44.74796" lon="5.17943">
        <ele>546.9</ele>
        <time>2022-11-17T11:21:12Z</time>
      </trkpt>
      <trkpt lat="44.748" lon="5.17931">
        <ele>544.7</ele>
        <time>2022-11-17T11:21:12Z</time>
      </trkpt>
      <trkpt lat="44.74802" lon="5.1792">
        <ele>543.4</ele>
        <time>2022-11-17T11:21:12Z</time>
      </trkpt>
      <trkpt lat="44.74808" lon="5.17915">
        <ele>542</ele>
        <time>2022-11-17T11:21:12Z</time>
      </trkpt>
      <trkpt lat="44.74814" lon="5.17959">
        <ele>541.2</ele>
        <time>2022-11-17T11:21:12Z</time>
      </trkpt>
      <trkpt lat="44.74821" lon="5.17956">
        <ele>539.1</ele>
        <time>2022-11-17T11:21:12Z</time>
      </trkpt>
      <trkpt lat="44.74828" lon="5.17925">
        <ele>537.4</ele>
        <time>2022-11-17T11:21:12Z</time>
      </trkpt>
      <trkpt lat="44.74833" lon="5.17917">
        <ele>536</ele>
        <time>2022-11-17T11:21:12Z</time>
      </trkpt>
      <trkpt lat="44.74848" lon="5.17926">
        <ele>532.8</ele>
        <time>2022-11-17T11:21:12Z</time>
      </trkpt>
      <trkpt lat="44.74858" lon="5.17948">
        <ele>529.4</ele>
        <time>2022-11-17T11:21:12Z</time>
      </trkpt>
      <trkpt lat="44.74857" lon="5.17983">
        <ele>525.4</ele>
        <time>2022-11-17T11:21:12Z</time>
      </trkpt>
      <trkpt lat="44.74849" lon="5.18006">
        <ele>522.7</ele>
        <time>2022-11-17T11:21:12Z</time>
      </trkpt>
      <trkpt lat="44.74901" lon="5.17976">
        <ele>512.3</ele>
        <time>2022-11-17T11:21:12Z</time>
      </trkpt>
      <trkpt lat="44.74925" lon="5.17936">
        <ele>506.4</ele>
        <time>2022-11-17T11:21:12Z</time>
      </trkpt>
      <trkpt lat="44.74931" lon="5.17912">
        <ele>503.8</ele>
        <time>2022-11-17T11:21:12Z</time>
      </trkpt>
      <trkpt lat="44.7493" lon="5.179">
        <ele>503.8</ele>
        <time>2022-11-17T11:21:12Z</time>
      </trkpt>
      <trkpt lat="44.74937" lon="5.17902">
        <ele>500.1</ele>
        <time>2022-11-17T11:21:12Z</time>
      </trkpt>
      <trkpt lat="44.74946" lon="5.17942">
        <ele>495.1</ele>
        <time>2022-11-17T11:21:12Z</time>
      </trkpt>
      <trkpt lat="44.74946" lon="5.17953">
        <ele>494.5</ele>
        <time>2022-11-17T11:21:12Z</time>
      </trkpt>
      <trkpt lat="44.74944" lon="5.17966">
        <ele>494.9</ele>
        <time>2022-11-17T11:21:12Z</time>
      </trkpt>
      <trkpt lat="44.74944" lon="5.18011">
        <ele>488.6</ele>
        <time>2022-11-17T11:21:12Z</time>
      </trkpt>
      <trkpt lat="44.74932" lon="5.18036">
        <ele>489.3</ele>
        <time>2022-11-17T11:21:12Z</time>
      </trkpt>
      <trkpt lat="44.74892" lon="5.18098">
        <ele>487.5</ele>
        <time>2022-11-17T11:21:12Z</time>
      </trkpt>
      <trkpt lat="44.74899" lon="5.18104">
        <ele>486.4</ele>
        <time>2022-11-17T11:21:12Z</time>
      </trkpt>
      <trkpt lat="44.7495" lon="5.18088">
        <ele>485.5</ele>
        <time>2022-11-17T11:21:12Z</time>
      </trkpt>
      <trkpt lat="44.75044" lon="5.17982">
        <ele>481.5</ele>
        <time>2022-11-17T11:21:12Z</time>
      </trkpt>
      <trkpt lat="44.75052" lon="5.1798">
        <ele>481.8</ele>
        <time>2022-11-17T11:21:12Z</time>
      </trkpt>
      <trkpt lat="44.75067" lon="5.17982">
        <ele>482.6</ele>
        <time>2022-11-17T11:21:12Z</time>
      </trkpt>
      <trkpt lat="44.75082" lon="5.17979">
        <ele>482.4</ele>
        <time>2022-11-17T11:21:12Z</time>
      </trkpt>
      <trkpt lat="44.75096" lon="5.1796">
        <ele>483.7</ele>
        <time>2022-11-17T11:21:12Z</time>
      </trkpt>
      <trkpt lat="44.75099" lon="5.17945">
        <ele>484.8</ele>
        <time>2022-11-17T11:21:12Z</time>
      </trkpt>
      <trkpt lat="44.75064" lon="5.17894">
        <ele>483.9</ele>
        <time>2022-11-17T11:21:12Z</time>
      </trkpt>
      <trkpt lat="44.75057" lon="5.17876">
        <ele>484.6</ele>
        <time>2022-11-17T11:21:12Z</time>
      </trkpt>
      <trkpt lat="44.75062" lon="5.17739">
        <ele>490.3</ele>
        <time>2022-11-17T11:21:12Z</time>
      </trkpt>
      <trkpt lat="44.7505" lon="5.17673">
        <ele>489.9</ele>
        <time>2022-11-17T11:21:12Z</time>
      </trkpt>
      <trkpt lat="44.75052" lon="5.17639">
        <ele>491.6</ele>
        <time>2022-11-17T11:21:12Z</time>
      </trkpt>
      <trkpt lat="44.75046" lon="5.17631">
        <ele>491.5</ele>
        <time>2022-11-17T11:21:12Z</time>
      </trkpt>
      <trkpt lat="44.75029" lon="5.17637">
        <ele>488.4</ele>
        <time>2022-11-17T11:21:12Z</time>
      </trkpt>
      <trkpt lat="44.75015" lon="5.17637">
        <ele>485</ele>
        <time>2022-11-17T11:21:12Z</time>
      </trkpt>
      <trkpt lat="44.75009" lon="5.17627">
        <ele>484.3</ele>
        <time>2022-11-17T11:21:12Z</time>
      </trkpt>
      <trkpt lat="44.75005" lon="5.17613">
        <ele>484.4</ele>
        <time>2022-11-17T11:21:12Z</time>
      </trkpt>
      <trkpt lat="44.75003" lon="5.17596">
        <ele>485.2</ele>
        <time>2022-11-17T11:21:12Z</time>
      </trkpt>
      <trkpt lat="44.75024" lon="5.17543">
        <ele>493.8</ele>
        <time>2022-11-17T11:21:12Z</time>
      </trkpt>
      <trkpt lat="44.75026" lon="5.17532">
        <ele>495.1</ele>
        <time>2022-11-17T11:21:12Z</time>
      </trkpt>
      <trkpt lat="44.75024" lon="5.17522">
        <ele>495.4</ele>
        <time>2022-11-17T11:21:12Z</time>
      </trkpt>
      <trkpt lat="44.74991" lon="5.17504">
        <ele>488.1</ele>
        <time>2022-11-17T11:21:12Z</time>
      </trkpt>
      <trkpt lat="44.74984" lon="5.17492">
        <ele>486.7</ele>
        <time>2022-11-17T11:21:12Z</time>
      </trkpt>
      <trkpt lat="44.74984" lon="5.17476">
        <ele>487.1</ele>
        <time>2022-11-17T11:21:12Z</time>
      </trkpt>
      <trkpt lat="44.75017" lon="5.174">
        <ele>495.8</ele>
        <time>2022-11-17T11:21:12Z</time>
      </trkpt>
      <trkpt lat="44.75018" lon="5.17389">
        <ele>496.9</ele>
        <time>2022-11-17T11:21:12Z</time>
      </trkpt>
      <trkpt lat="44.75013" lon="5.17378">
        <ele>496.6</ele>
        <time>2022-11-17T11:21:12Z</time>
      </trkpt>
      <trkpt lat="44.75002" lon="5.17377">
        <ele>493.7</ele>
        <time>2022-11-17T11:21:12Z</time>
      </trkpt>
      <trkpt lat="44.74993" lon="5.17384">
        <ele>491.1</ele>
        <time>2022-11-17T11:21:12Z</time>
      </trkpt>
      <trkpt lat="44.74983" lon="5.17387">
        <ele>489.5</ele>
        <time>2022-11-17T11:21:12Z</time>
      </trkpt>
      <trkpt lat="44.74975" lon="5.17386">
        <ele>488.8</ele>
        <time>2022-11-17T11:21:12Z</time>
      </trkpt>
      <trkpt lat="44.74966" lon="5.17382">
        <ele>488.8</ele>
        <time>2022-11-17T11:21:12Z</time>
      </trkpt>
      <trkpt lat="44.74957" lon="5.17375">
        <ele>489.5</ele>
        <time>2022-11-17T11:21:12Z</time>
      </trkpt>
      <trkpt lat="44.74934" lon="5.17365">
        <ele>488</ele>
        <time>2022-11-17T11:21:12Z</time>
      </trkpt>
      <trkpt lat="44.74924" lon="5.17354">
        <ele>488.1</ele>
        <time>2022-11-17T11:21:12Z</time>
      </trkpt>
      <trkpt lat="44.74888" lon="5.17259">
        <ele>493.1</ele>
        <time>2022-11-17T11:21:12Z</time>
      </trkpt>
      <trkpt lat="44.74906" lon="5.17206">
        <ele>498.2</ele>
        <time>2022-11-17T11:21:12Z</time>
      </trkpt>
      <trkpt lat="44.74941" lon="5.17175">
        <ele>509.1</ele>
        <time>2022-11-17T11:21:12Z</time>
      </trkpt>
      <trkpt lat="44.74943" lon="5.17157">
        <ele>509.6</ele>
        <time>2022-11-17T11:21:12Z</time>
      </trkpt>
      <trkpt lat="44.74898" lon="5.17114">
        <ele>497.8</ele>
        <time>2022-11-17T11:21:12Z</time>
      </trkpt>
      <trkpt lat="44.74894" lon="5.171">
        <ele>497</ele>
        <time>2022-11-17T11:21:12Z</time>
      </trkpt>
      <trkpt lat="44.74902" lon="5.1704">
        <ele>501</ele>
        <time>2022-11-17T11:21:12Z</time>
      </trkpt>
      <trkpt lat="44.74896" lon="5.16992">
        <ele>496.5</ele>
        <time>2022-11-17T11:21:12Z</time>
      </trkpt>
      <trkpt lat="44.74947" lon="5.16918">
        <ele>493.5</ele>
        <time>2022-11-17T11:21:12Z</time>
      </trkpt>
      <trkpt lat="44.74954" lon="5.16913">
        <ele>492.5</ele>
        <time>2022-11-17T11:21:12Z</time>
      </trkpt>
      <trkpt lat="44.74962" lon="5.1691">
        <ele>492.1</ele>
        <time>2022-11-17T11:21:12Z</time>
      </trkpt>
      <trkpt lat="44.7497" lon="5.16911">
        <ele>492.6</ele>
        <time>2022-11-17T11:21:12Z</time>
      </trkpt>
      <trkpt lat="44.74986" lon="5.16923">
        <ele>495.9</ele>
        <time>2022-11-17T11:21:12Z</time>
      </trkpt>
      <trkpt lat="44.74995" lon="5.16925">
        <ele>496.7</ele>
        <time>2022-11-17T11:21:12Z</time>
      </trkpt>
      <trkpt lat="44.75002" lon="5.16925">
        <ele>497</ele>
        <time>2022-11-17T11:21:12Z</time>
      </trkpt>
      <trkpt lat="44.75009" lon="5.16917">
        <ele>496.5</ele>
        <time>2022-11-17T11:21:12Z</time>
      </trkpt>
      <trkpt lat="44.75016" lon="5.16891">
        <ele>494</ele>
        <time>2022-11-17T11:21:12Z</time>
      </trkpt>
      <trkpt lat="44.7503" lon="5.16879">
        <ele>494.6</ele>
        <time>2022-11-17T11:21:12Z</time>
      </trkpt>
      <trkpt lat="44.75077" lon="5.16881">
        <ele>502.4</ele>
        <time>2022-11-17T11:21:12Z</time>
      </trkpt>
      <trkpt lat="44.7511" lon="5.16861">
        <ele>505.6</ele>
        <time>2022-11-17T11:21:12Z</time>
      </trkpt>
      <trkpt lat="44.75144" lon="5.1678">
        <ele>506.5</ele>
        <time>2022-11-17T11:21:12Z</time>
      </trkpt>
      <trkpt lat="44.75147" lon="5.16761">
        <ele>508</ele>
        <time>2022-11-17T11:21:12Z</time>
      </trkpt>
      <trkpt lat="44.75143" lon="5.16738">
        <ele>510.5</ele>
        <time>2022-11-17T11:21:12Z</time>
      </trkpt>
      <trkpt lat="44.75079" lon="5.16613">
        <ele>517.5</ele>
        <time>2022-11-17T11:21:12Z</time>
      </trkpt>
      <trkpt lat="44.75024" lon="5.16587">
        <ele>514.6</ele>
        <time>2022-11-17T11:21:12Z</time>
      </trkpt>
      <trkpt lat="44.74994" lon="5.16547">
        <ele>518.4</ele>
        <time>2022-11-17T11:21:12Z</time>
      </trkpt>
      <trkpt lat="44.7496" lon="5.16519">
        <ele>517.4</ele>
        <time>2022-11-17T11:21:12Z</time>
      </trkpt>
      <trkpt lat="44.74955" lon="5.1651">
        <ele>518</ele>
        <time>2022-11-17T11:21:12Z</time>
      </trkpt>
      <trkpt lat="44.7489" lon="5.16432">
        <ele>514.6</ele>
        <time>2022-11-17T11:21:12Z</time>
      </trkpt>
      <trkpt lat="44.74871" lon="5.16427">
        <ele>514.8</ele>
        <time>2022-11-17T11:21:12Z</time>
      </trkpt>
      <trkpt lat="44.74856" lon="5.16395">
        <ele>512.5</ele>
        <time>2022-11-17T11:21:12Z</time>
      </trkpt>
      <trkpt lat="44.74854" lon="5.16382">
        <ele>511.1</ele>
        <time>2022-11-17T11:21:12Z</time>
      </trkpt>
      <trkpt lat="44.74824" lon="5.16313">
        <ele>507.8</ele>
        <time>2022-11-17T11:21:12Z</time>
      </trkpt>
      <trkpt lat="44.74813" lon="5.16311">
        <ele>508.6</ele>
        <time>2022-11-17T11:21:12Z</time>
      </trkpt>
      <trkpt lat="44.74789" lon="5.16327">
        <ele>511.2</ele>
        <time>2022-11-17T11:21:12Z</time>
      </trkpt>
      <trkpt lat="44.7478" lon="5.16324">
        <ele>509.6</ele>
        <time>2022-11-17T11:21:12Z</time>
      </trkpt>
      <trkpt lat="44.74723" lon="5.16215">
        <ele>493.2</ele>
        <time>2022-11-17T11:21:12Z</time>
      </trkpt>
      <trkpt lat="44.74716" lon="5.16208">
        <ele>492.5</ele>
        <time>2022-11-17T11:21:12Z</time>
      </trkpt>
      <trkpt lat="44.74704" lon="5.16201">
        <ele>493.4</ele>
        <time>2022-11-17T11:21:12Z</time>
      </trkpt>
      <trkpt lat="44.7469" lon="5.16165">
        <ele>485</ele>
        <time>2022-11-17T11:21:12Z</time>
      </trkpt>
      <trkpt lat="44.74684" lon="5.16158">
        <ele>483.3</ele>
        <time>2022-11-17T11:21:12Z</time>
      </trkpt>
      <trkpt lat="44.74633" lon="5.16158">
        <ele>488</ele>
        <time>2022-11-17T11:21:12Z</time>
      </trkpt>
      <trkpt lat="44.74627" lon="5.16152">
        <ele>487.5</ele>
        <time>2022-11-17T11:21:12Z</time>
      </trkpt>
      <trkpt lat="44.74635" lon="5.16087">
        <ele>475.6</ele>
        <time>2022-11-17T11:21:12Z</time>
      </trkpt>
      <trkpt lat="44.74631" lon="5.16056">
        <ele>473.3</ele>
        <time>2022-11-17T11:21:12Z</time>
      </trkpt>
      <trkpt lat="44.7464" lon="5.16022">
        <ele>466.6</ele>
        <time>2022-11-17T11:21:12Z</time>
      </trkpt>
      <trkpt lat="44.74632" lon="5.16005">
        <ele>466.5</ele>
        <time>2022-11-17T11:21:12Z</time>
      </trkpt>
      <trkpt lat="44.74634" lon="5.15988">
        <ele>463.5</ele>
        <time>2022-11-17T11:21:12Z</time>
      </trkpt>
      <trkpt lat="44.74631" lon="5.15977">
        <ele>462.3</ele>
        <time>2022-11-17T11:21:12Z</time>
      </trkpt>
      <trkpt lat="44.74617" lon="5.15963">
        <ele>464.9</ele>
        <time>2022-11-17T11:21:12Z</time>
      </trkpt>
      <trkpt lat="44.74631" lon="5.15925">
        <ele>457.4</ele>
        <time>2022-11-17T11:21:12Z</time>
      </trkpt>
      <trkpt lat="44.7463" lon="5.15907">
        <ele>456.7</ele>
        <time>2022-11-17T11:21:12Z</time>
      </trkpt>
      <trkpt lat="44.74626" lon="5.15892">
        <ele>456.6</ele>
        <time>2022-11-17T11:21:12Z</time>
      </trkpt>
      <trkpt lat="44.74625" lon="5.15874">
        <ele>455.1</ele>
        <time>2022-11-17T11:21:12Z</time>
      </trkpt>
      <trkpt lat="44.74629" lon="5.15861">
        <ele>453.4</ele>
        <time>2022-11-17T11:21:12Z</time>
      </trkpt>
      <trkpt lat="44.74629" lon="5.15839">
        <ele>450.3</ele>
        <time>2022-11-17T11:21:12Z</time>
      </trkpt>
      <trkpt lat="44.74627" lon="5.1583">
        <ele>449</ele>
        <time>2022-11-17T11:21:12Z</time>
      </trkpt>
      <trkpt lat="44.74622" lon="5.1582">
        <ele>447.7</ele>
        <time>2022-11-17T11:21:12Z</time>
      </trkpt>
      <trkpt lat="44.74613" lon="5.15813">
        <ele>447.3</ele>
        <time>2022-11-17T11:21:12Z</time>
      </trkpt>
      <trkpt lat="44.74572" lon="5.15806">
        <ele>450.7</ele>
        <time>2022-11-17T11:21:12Z</time>
      </trkpt>
      <trkpt lat="44.7459" lon="5.15751">
        <ele>439.4</ele>
        <time>2022-11-17T11:21:12Z</time>
      </trkpt>
      <trkpt lat="44.74601" lon="5.15665">
        <ele>437.6</ele>
        <time>2022-11-17T11:21:12Z</time>
      </trkpt>
      <trkpt lat="44.746" lon="5.15651">
        <ele>437.7</ele>
        <time>2022-11-17T11:21:12Z</time>
      </trkpt>
      <trkpt lat="44.74594" lon="5.15639">
        <ele>440</ele>
        <time>2022-11-17T11:21:12Z</time>
      </trkpt>
      <trkpt lat="44.74591" lon="5.15627">
        <ele>441.6</ele>
        <time>2022-11-17T11:21:12Z</time>
      </trkpt>
      <trkpt lat="44.74595" lon="5.15614">
        <ele>439.8</ele>
        <time>2022-11-17T11:21:12Z</time>
      </trkpt>
      <trkpt lat="44.74596" lon="5.15573">
        <ele>440.3</ele>
        <time>2022-11-17T11:21:12Z</time>
      </trkpt>
      <trkpt lat="44.74602" lon="5.15561">
        <ele>438.9</ele>
        <time>2022-11-17T11:21:12Z</time>
      </trkpt>
      <trkpt lat="44.74625" lon="5.1537">
        <ele>441.1</ele>
        <time>2022-11-17T11:21:12Z</time>
      </trkpt>
      <trkpt lat="44.74651" lon="5.15261">
        <ele>435.4</ele>
        <time>2022-11-17T11:21:12Z</time>
      </trkpt>
      <trkpt lat="44.74652" lon="5.15186">
        <ele>430.4</ele>
        <time>2022-11-17T11:21:12Z</time>
      </trkpt>
      <trkpt lat="44.74626" lon="5.15166">
        <ele>427</ele>
        <time>2022-11-17T11:21:12Z</time>
      </trkpt>
      <trkpt lat="44.74629" lon="5.1513">
        <ele>416.9</ele>
        <time>2022-11-17T11:21:12Z</time>
      </trkpt>
      <trkpt lat="44.74626" lon="5.15093">
        <ele>403.7</ele>
        <time>2022-11-17T11:21:12Z</time>
      </trkpt>
      <trkpt lat="44.746" lon="5.15061">
        <ele>389.2</ele>
        <time>2022-11-17T11:21:12Z</time>
      </trkpt>
      <trkpt lat="44.74574" lon="5.15063">
        <ele>389.4</ele>
        <time>2022-11-17T11:21:12Z</time>
      </trkpt>
      <trkpt lat="44.74497" lon="5.1504">
        <ele>391</ele>
        <time>2022-11-17T11:21:12Z</time>
      </trkpt>
      <trkpt lat="44.74465" lon="5.15046">
        <ele>394.1</ele>
        <time>2022-11-17T11:21:12Z</time>
      </trkpt>
      <trkpt lat="44.7447" lon="5.15037">
        <ele>393</ele>
        <time>2022-11-17T11:21:12Z</time>
      </trkpt>
      <trkpt lat="44.74497" lon="5.14919">
        <ele>395</ele>
        <time>2022-11-17T11:21:12Z</time>
      </trkpt>
      <trkpt lat="44.74499" lon="5.14852">
        <ele>392.4</ele>
        <time>2022-11-17T11:21:12Z</time>
      </trkpt>
      <trkpt lat="44.74579" lon="5.14707">
        <ele>381.4</ele>
        <time>2022-11-17T11:21:12Z</time>
      </trkpt>
      <trkpt lat="44.74602" lon="5.14643">
        <ele>378.5</ele>
        <time>2022-11-17T11:21:12Z</time>
      </trkpt>
      <trkpt lat="44.74511" lon="5.14591">
        <ele>375.7</ele>
        <time>2022-11-17T11:21:12Z</time>
      </trkpt>
      <trkpt lat="44.74475" lon="5.14587">
        <ele>373.3</ele>
        <time>2022-11-17T11:21:12Z</time>
      </trkpt>
      <trkpt lat="44.7447" lon="5.14579">
        <ele>372.8</ele>
        <time>2022-11-17T11:21:12Z</time>
      </trkpt>
      <trkpt lat="44.7447" lon="5.14536">
        <ele>371.9</ele>
        <time>2022-11-17T11:21:12Z</time>
      </trkpt>
      <trkpt lat="44.74478" lon="5.14517">
        <ele>371.7</ele>
        <time>2022-11-17T11:21:12Z</time>
      </trkpt>
      <trkpt lat="44.74519" lon="5.14463">
        <ele>367.6</ele>
        <time>2022-11-17T11:21:12Z</time>
      </trkpt>
      <trkpt lat="44.74547" lon="5.14442">
        <ele>366.3</ele>
        <time>2022-11-17T11:21:12Z</time>
      </trkpt>
      <trkpt lat="44.7452" lon="5.14438">
        <ele>364.6</ele>
        <time>2022-11-17T11:21:12Z</time>
      </trkpt>
      <trkpt lat="44.74452" lon="5.14403">
        <ele>358.4</ele>
        <time>2022-11-17T11:21:12Z</time>
      </trkpt>
      <trkpt lat="44.74425" lon="5.14402">
        <ele>356.1</ele>
        <time>2022-11-17T11:21:12Z</time>
      </trkpt>
      <trkpt lat="44.74367" lon="5.14421">
        <ele>354.4</ele>
        <time>2022-11-17T11:21:12Z</time>
      </trkpt>
      <trkpt lat="44.74263" lon="5.14424">
        <ele>369.2</ele>
        <time>2022-11-17T11:21:12Z</time>
      </trkpt>
      <trkpt lat="44.74184" lon="5.1444">
        <ele>381.6</ele>
        <time>2022-11-17T11:21:12Z</time>
      </trkpt>
      <trkpt lat="44.74173" lon="5.14449">
        <ele>382.8</ele>
        <time>2022-11-17T11:21:12Z</time>
      </trkpt>
      <trkpt lat="44.74167" lon="5.14458">
        <ele>384</ele>
        <time>2022-11-17T11:21:12Z</time>
      </trkpt>
      <trkpt lat="44.74162" lon="5.14469">
        <ele>384.7</ele>
        <time>2022-11-17T11:21:12Z</time>
      </trkpt>
      <trkpt lat="44.74099" lon="5.14508">
        <ele>386.8</ele>
        <time>2022-11-17T11:21:12Z</time>
      </trkpt>
      <trkpt lat="44.74074" lon="5.14508">
        <ele>384.3</ele>
        <time>2022-11-17T11:21:12Z</time>
      </trkpt>
      <trkpt lat="44.74056" lon="5.14503">
        <ele>381.4</ele>
        <time>2022-11-17T11:21:12Z</time>
      </trkpt>
      <trkpt lat="44.74024" lon="5.14582">
        <ele>386.6</ele>
        <time>2022-11-17T11:21:12Z</time>
      </trkpt>
      <trkpt lat="44.74012" lon="5.146">
        <ele>387</ele>
        <time>2022-11-17T11:21:12Z</time>
      </trkpt>
      <trkpt lat="44.74002" lon="5.14608">
        <ele>386.1</ele>
        <time>2022-11-17T11:21:12Z</time>
      </trkpt>
      <trkpt lat="44.73981" lon="5.14612">
        <ele>386.7</ele>
        <time>2022-11-17T11:21:12Z</time>
      </trkpt>
      <trkpt lat="44.73955" lon="5.14606">
        <ele>390.8</ele>
        <time>2022-11-17T11:21:12Z</time>
      </trkpt>
      <trkpt lat="44.73948" lon="5.14592">
        <ele>392.3</ele>
        <time>2022-11-17T11:21:12Z</time>
      </trkpt>
      <trkpt lat="44.7395" lon="5.14552">
        <ele>390.7</ele>
        <time>2022-11-17T11:21:12Z</time>
      </trkpt>
      <trkpt lat="44.73948" lon="5.1454">
        <ele>389.8</ele>
        <time>2022-11-17T11:21:12Z</time>
      </trkpt>
      <trkpt lat="44.73932" lon="5.1451">
        <ele>389.1</ele>
        <time>2022-11-17T11:21:12Z</time>
      </trkpt>
      <trkpt lat="44.73924" lon="5.14504">
        <ele>389.9</ele>
        <time>2022-11-17T11:21:12Z</time>
      </trkpt>
      <trkpt lat="44.73889" lon="5.14495">
        <ele>397</ele>
        <time>2022-11-17T11:21:12Z</time>
      </trkpt>
      <trkpt lat="44.73853" lon="5.14469">
        <ele>397.7</ele>
        <time>2022-11-17T11:21:12Z</time>
      </trkpt>
      <trkpt lat="44.73835" lon="5.14466">
        <ele>398</ele>
        <time>2022-11-17T11:21:12Z</time>
      </trkpt>
      <trkpt lat="44.73823" lon="5.14476">
        <ele>398.8</ele>
        <time>2022-11-17T11:21:12Z</time>
      </trkpt>
      <trkpt lat="44.7381" lon="5.14513">
        <ele>405.4</ele>
        <time>2022-11-17T11:21:12Z</time>
      </trkpt>
      <trkpt lat="44.73797" lon="5.14532">
        <ele>406.6</ele>
        <time>2022-11-17T11:21:12Z</time>
      </trkpt>
      <trkpt lat="44.7376" lon="5.14567">
        <ele>404</ele>
        <time>2022-11-17T11:21:12Z</time>
      </trkpt>
      <trkpt lat="44.73682" lon="5.14723">
        <ele>410.8</ele>
        <time>2022-11-17T11:21:12Z</time>
      </trkpt>
      <trkpt lat="44.73676" lon="5.1473">
        <ele>411</ele>
        <time>2022-11-17T11:21:12Z</time>
      </trkpt>
      <trkpt lat="44.73567" lon="5.14769">
        <ele>416.7</ele>
        <time>2022-11-17T11:21:12Z</time>
      </trkpt>
      <trkpt lat="44.73585" lon="5.14749">
        <ele>420.9</ele>
        <time>2022-11-17T11:21:12Z</time>
      </trkpt>
      <trkpt lat="44.73581" lon="5.14729">
        <ele>421.6</ele>
        <time>2022-11-17T11:21:12Z</time>
      </trkpt>
      <trkpt lat="44.73573" lon="5.14706">
        <ele>422.1</ele>
        <time>2022-11-17T11:21:12Z</time>
      </trkpt>
      <trkpt lat="44.73551" lon="5.14607">
        <ele>425.9</ele>
        <time>2022-11-17T11:21:12Z</time>
      </trkpt>
      <trkpt lat="44.7347" lon="5.14445">
        <ele>439.5</ele>
        <time>2022-11-17T11:21:12Z</time>
      </trkpt>
      <trkpt lat="44.73362" lon="5.14346">
        <ele>431.7</ele>
        <time>2022-11-17T11:21:12Z</time>
      </trkpt>
      <trkpt lat="44.73356" lon="5.14333">
        <ele>432.6</ele>
        <time>2022-11-17T11:21:12Z</time>
      </trkpt>
      <trkpt lat="44.73356" lon="5.14333">
        <ele>432.6</ele>
        <time>2022-11-17T11:21:12Z</time>
      </trkpt>
      <trkpt lat="44.73336" lon="5.14289">
        <ele>436.6</ele>
        <time>2022-11-17T11:21:12Z</time>
      </trkpt>
      <trkpt lat="44.73334" lon="5.14269">
        <ele>438.5</ele>
        <time>2022-11-17T11:21:12Z</time>
      </trkpt>
      <trkpt lat="44.73347" lon="5.1423">
        <ele>436.5</ele>
        <time>2022-11-17T11:21:12Z</time>
      </trkpt>
      <trkpt lat="44.73347" lon="5.14073">
        <ele>435.3</ele>
        <time>2022-11-17T11:21:12Z</time>
      </trkpt>
      <trkpt lat="44.73311" lon="5.13937">
        <ele>440.3</ele>
        <time>2022-11-17T11:21:12Z</time>
      </trkpt>
      <trkpt lat="44.73252" lon="5.13844">
        <ele>435.8</ele>
        <time>2022-11-17T11:21:12Z</time>
      </trkpt>
      <trkpt lat="44.73217" lon="5.13811">
        <ele>431.5</ele>
        <time>2022-11-17T11:21:12Z</time>
      </trkpt>
      <trkpt lat="44.73197" lon="5.13802">
        <ele>432</ele>
        <time>2022-11-17T11:21:12Z</time>
      </trkpt>
      <trkpt lat="44.73173" lon="5.13774">
        <ele>431.1</ele>
        <time>2022-11-17T11:21:12Z</time>
      </trkpt>
      <trkpt lat="44.73158" lon="5.13741">
        <ele>432.1</ele>
        <time>2022-11-17T11:21:12Z</time>
      </trkpt>
      <trkpt lat="44.7314" lon="5.1362">
        <ele>432.2</ele>
        <time>2022-11-17T11:21:12Z</time>
      </trkpt>
      <trkpt lat="44.731" lon="5.13545">
        <ele>429.7</ele>
        <time>2022-11-17T11:21:12Z</time>
      </trkpt>
      <trkpt lat="44.73085" lon="5.13528">
        <ele>429.8</ele>
        <time>2022-11-17T11:21:12Z</time>
      </trkpt>
      <trkpt lat="44.73025" lon="5.13502">
        <ele>430.8</ele>
        <time>2022-11-17T11:21:12Z</time>
      </trkpt>
      <trkpt lat="44.73016" lon="5.13504">
        <ele>432</ele>
        <time>2022-11-17T11:21:12Z</time>
      </trkpt>
      <trkpt lat="44.73008" lon="5.13496">
        <ele>431.6</ele>
        <time>2022-11-17T11:21:12Z</time>
      </trkpt>
      <trkpt lat="44.72999" lon="5.1348">
        <ele>430.2</ele>
        <time>2022-11-17T11:21:12Z</time>
      </trkpt>
      <trkpt lat="44.72947" lon="5.13436">
        <ele>429</ele>
        <time>2022-11-17T11:21:12Z</time>
      </trkpt>
      <trkpt lat="44.7292" lon="5.13425">
        <ele>428.8</ele>
        <time>2022-11-17T11:21:12Z</time>
      </trkpt>
      <trkpt lat="44.72846" lon="5.13324">
        <ele>426</ele>
        <time>2022-11-17T11:21:12Z</time>
      </trkpt>
      <trkpt lat="44.72837" lon="5.13319">
        <ele>426.7</ele>
        <time>2022-11-17T11:21:12Z</time>
      </trkpt>
      <trkpt lat="44.72746" lon="5.13176">
        <ele>428.4</ele>
        <time>2022-11-17T11:21:12Z</time>
      </trkpt>
      <trkpt lat="44.72717" lon="5.13157">
        <ele>427.4</ele>
        <time>2022-11-17T11:21:12Z</time>
      </trkpt>
      <trkpt lat="44.72536" lon="5.131">
        <ele>427</ele>
        <time>2022-11-17T11:21:12Z</time>
      </trkpt>
      <trkpt lat="44.72553" lon="5.13104">
        <ele>427</ele>
        <time>2022-11-17T11:21:12Z</time>
      </trkpt>
      <trkpt lat="44.72584" lon="5.13">
        <ele>424</ele>
        <time>2022-11-17T11:21:12Z</time>
      </trkpt>
      <trkpt lat="44.72596" lon="5.12974">
        <ele>420.7</ele>
        <time>2022-11-17T11:21:12Z</time>
      </trkpt>
      <trkpt lat="44.72601" lon="5.12957">
        <ele>419.7</ele>
        <time>2022-11-17T11:21:12Z</time>
      </trkpt>
      <trkpt lat="44.7261" lon="5.12943">
        <ele>419</ele>
        <time>2022-11-17T11:21:12Z</time>
      </trkpt>
      <trkpt lat="44.72611" lon="5.12931">
        <ele>419</ele>
        <time>2022-11-17T11:21:12Z</time>
      </trkpt>
      <trkpt lat="44.72604" lon="5.12893">
        <ele>418</ele>
        <time>2022-11-17T11:21:12Z</time>
      </trkpt>
      <trkpt lat="44.72587" lon="5.12851">
        <ele>415.2</ele>
        <time>2022-11-17T11:21:12Z</time>
      </trkpt>
      <trkpt lat="44.72583" lon="5.12823">
        <ele>414.2</ele>
        <time>2022-11-17T11:21:12Z</time>
      </trkpt>
      <trkpt lat="44.72583" lon="5.1281">
        <ele>414.7</ele>
        <time>2022-11-17T11:21:12Z</time>
      </trkpt>
      <trkpt lat="44.72557" lon="5.12735">
        <ele>410.9</ele>
        <time>2022-11-17T11:21:12Z</time>
      </trkpt>
      <trkpt lat="44.72519" lon="5.12667">
        <ele>407</ele>
        <time>2022-11-17T11:21:12Z</time>
      </trkpt>
      <trkpt lat="44.72492" lon="5.12566">
        <ele>406.1</ele>
        <time>2022-11-17T11:21:12Z</time>
      </trkpt>
      <trkpt lat="44.72457" lon="5.12493">
        <ele>406.8</ele>
        <time>2022-11-17T11:21:12Z</time>
      </trkpt>
      <trkpt lat="44.7242" lon="5.12385">
        <ele>406</ele>
        <time>2022-11-17T11:21:12Z</time>
      </trkpt>
      <trkpt lat="44.72368" lon="5.12314">
        <ele>401.9</ele>
        <time>2022-11-17T11:21:12Z</time>
      </trkpt>
      <trkpt lat="44.72326" lon="5.12293">
        <ele>399.3</ele>
        <time>2022-11-17T11:21:12Z</time>
      </trkpt>
      <trkpt lat="44.72317" lon="5.12285">
        <ele>398.7</ele>
        <time>2022-11-17T11:21:12Z</time>
      </trkpt>
      <trkpt lat="44.72303" lon="5.12263">
        <ele>395.8</ele>
        <time>2022-11-17T11:21:12Z</time>
      </trkpt>
      <trkpt lat="44.72235" lon="5.12178">
        <ele>385.8</ele>
        <time>2022-11-17T11:21:12Z</time>
      </trkpt>
      <trkpt lat="44.72221" lon="5.12167">
        <ele>387.6</ele>
        <time>2022-11-17T11:21:12Z</time>
      </trkpt>
      <trkpt lat="44.72208" lon="5.12144">
        <ele>387.6</ele>
        <time>2022-11-17T11:21:12Z</time>
      </trkpt>
      <trkpt lat="44.72204" lon="5.12124">
        <ele>387.5</ele>
        <time>2022-11-17T11:21:12Z</time>
      </trkpt>
      <trkpt lat="44.72204" lon="5.12113">
        <ele>386.9</ele>
        <time>2022-11-17T11:21:12Z</time>
      </trkpt>
      <trkpt lat="44.72209" lon="5.12093">
        <ele>386</ele>
        <time>2022-11-17T11:21:12Z</time>
      </trkpt>
      <trkpt lat="44.72235" lon="5.12045">
        <ele>381.3</ele>
        <time>2022-11-17T11:21:12Z</time>
      </trkpt>
      <trkpt lat="44.72265" lon="5.12009">
        <ele>372.2</ele>
        <time>2022-11-17T11:21:12Z</time>
      </trkpt>
      <trkpt lat="44.72269" lon="5.11998">
        <ele>370.8</ele>
        <time>2022-11-17T11:21:12Z</time>
      </trkpt>
      <trkpt lat="44.72269" lon="5.11983">
        <ele>370.4</ele>
        <time>2022-11-17T11:21:12Z</time>
      </trkpt>
      <trkpt lat="44.72257" lon="5.11955">
        <ele>375.6</ele>
        <time>2022-11-17T11:21:12Z</time>
      </trkpt>
      <trkpt lat="44.72261" lon="5.11885">
        <ele>377</ele>
        <time>2022-11-17T11:21:12Z</time>
      </trkpt>
      <trkpt lat="44.72293" lon="5.11741">
        <ele>370.7</ele>
        <time>2022-11-17T11:21:12Z</time>
      </trkpt>
      <trkpt lat="44.72292" lon="5.11725">
        <ele>371.3</ele>
        <time>2022-11-17T11:21:12Z</time>
      </trkpt>
      <trkpt lat="44.72289" lon="5.11714">
        <ele>372.1</ele>
        <time>2022-11-17T11:21:12Z</time>
      </trkpt>
      <trkpt lat="44.72289" lon="5.11702">
        <ele>371.8</ele>
        <time>2022-11-17T11:21:12Z</time>
      </trkpt>
      <trkpt lat="44.72281" lon="5.11681">
        <ele>372.7</ele>
        <time>2022-11-17T11:21:12Z</time>
      </trkpt>
      <trkpt lat="44.72269" lon="5.1167">
        <ele>374</ele>
        <time>2022-11-17T11:21:12Z</time>
      </trkpt>
      <trkpt lat="44.72234" lon="5.11663">
        <ele>377.9</ele>
        <time>2022-11-17T11:21:12Z</time>
      </trkpt>
      <trkpt lat="44.72227" lon="5.11659">
        <ele>377.7</ele>
        <time>2022-11-17T11:21:12Z</time>
      </trkpt>
      <trkpt lat="44.72211" lon="5.1166">
        <ele>378.7</ele>
        <time>2022-11-17T11:21:12Z</time>
      </trkpt>
      <trkpt lat="44.72201" lon="5.11651">
        <ele>376.7</ele>
        <time>2022-11-17T11:21:12Z</time>
      </trkpt>
      <trkpt lat="44.72192" lon="5.11639">
        <ele>374</ele>
        <time>2022-11-17T11:21:12Z</time>
      </trkpt>
      <trkpt lat="44.72182" lon="5.11632">
        <ele>372.3</ele>
        <time>2022-11-17T11:21:12Z</time>
      </trkpt>
      <trkpt lat="44.72175" lon="5.11632">
        <ele>372.3</ele>
        <time>2022-11-17T11:21:12Z</time>
      </trkpt>
      <trkpt lat="44.72159" lon="5.11626">
        <ele>370.6</ele>
        <time>2022-11-17T11:21:12Z</time>
      </trkpt>
      <trkpt lat="44.72145" lon="5.11628">
        <ele>370.4</ele>
        <time>2022-11-17T11:21:12Z</time>
      </trkpt>
      <trkpt lat="44.72106" lon="5.11608">
        <ele>365.1</ele>
        <time>2022-11-17T11:21:12Z</time>
      </trkpt>
      <trkpt lat="44.7203" lon="5.11599">
        <ele>363.9</ele>
        <time>2022-11-17T11:21:12Z</time>
      </trkpt>
      <trkpt lat="44.72013" lon="5.11585">
        <ele>360.4</ele>
        <time>2022-11-17T11:21:12Z</time>
      </trkpt>
      <trkpt lat="44.71949" lon="5.11559">
        <ele>353.1</ele>
        <time>2022-11-17T11:21:12Z</time>
      </trkpt>
      <trkpt lat="44.71841" lon="5.11534">
        <ele>345.1</ele>
        <time>2022-11-17T11:21:12Z</time>
      </trkpt>
      <trkpt lat="44.71787" lon="5.1148">
        <ele>335.1</ele>
        <time>2022-11-17T11:21:12Z</time>
      </trkpt>
      <trkpt lat="44.71775" lon="5.11479">
        <ele>335.4</ele>
        <time>2022-11-17T11:21:12Z</time>
      </trkpt>
      <trkpt lat="44.71767" lon="5.11474">
        <ele>335.1</ele>
        <time>2022-11-17T11:21:12Z</time>
      </trkpt>
      <trkpt lat="44.7176" lon="5.11466">
        <ele>334.6</ele>
        <time>2022-11-17T11:21:12Z</time>
      </trkpt>
      <trkpt lat="44.71756" lon="5.11458">
        <ele>333.9</ele>
        <time>2022-11-17T11:21:12Z</time>
      </trkpt>
      <trkpt lat="44.71749" lon="5.11452">
        <ele>333.9</ele>
        <time>2022-11-17T11:21:12Z</time>
      </trkpt>
      <trkpt lat="44.71739" lon="5.1145">
        <ele>334.4</ele>
        <time>2022-11-17T11:21:12Z</time>
      </trkpt>
      <trkpt lat="44.71721" lon="5.11453">
        <ele>335.9</ele>
        <time>2022-11-17T11:21:12Z</time>
      </trkpt>
      <trkpt lat="44.7171" lon="5.11451">
        <ele>335.7</ele>
        <time>2022-11-17T11:21:12Z</time>
      </trkpt>
      <trkpt lat="44.71707" lon="5.11385">
        <ele>333</ele>
        <time>2022-11-17T11:21:12Z</time>
      </trkpt>
      <trkpt lat="44.7168" lon="5.11315">
        <ele>333</ele>
        <time>2022-11-17T11:21:12Z</time>
      </trkpt>
      <trkpt lat="44.71642" lon="5.1125">
        <ele>333.6</ele>
        <time>2022-11-17T11:21:12Z</time>
      </trkpt>
      <trkpt lat="44.71637" lon="5.11223">
        <ele>331.4</ele>
        <time>2022-11-17T11:21:12Z</time>
      </trkpt>
      <trkpt lat="44.71617" lon="5.11187">
        <ele>332.4</ele>
        <time>2022-11-17T11:21:12Z</time>
      </trkpt>
      <trkpt lat="44.71604" lon="5.11174">
        <ele>331.8</ele>
        <time>2022-11-17T11:21:12Z</time>
      </trkpt>
      <trkpt lat="44.71533" lon="5.11169">
        <ele>328.6</ele>
        <time>2022-11-17T11:21:12Z</time>
      </trkpt>
      <trkpt lat="44.71484" lon="5.11185">
        <ele>322.5</ele>
        <time>2022-11-17T11:21:12Z</time>
      </trkpt>
      <trkpt lat="44.71472" lon="5.11184">
        <ele>320.6</ele>
        <time>2022-11-17T11:21:12Z</time>
      </trkpt>
      <trkpt lat="44.71467" lon="5.11169">
        <ele>319.2</ele>
        <time>2022-11-17T11:21:12Z</time>
      </trkpt>
      <trkpt lat="44.71469" lon="5.11146">
        <ele>318.1</ele>
        <time>2022-11-17T11:21:12Z</time>
      </trkpt>
      <trkpt lat="44.71463" lon="5.11129">
        <ele>316</ele>
        <time>2022-11-17T11:21:12Z</time>
      </trkpt>
      <trkpt lat="44.71438" lon="5.11087">
        <ele>310.1</ele>
        <time>2022-11-17T11:21:12Z</time>
      </trkpt>
      <trkpt lat="44.71431" lon="5.11062">
        <ele>308.4</ele>
        <time>2022-11-17T11:21:12Z</time>
      </trkpt>
      <trkpt lat="44.71425" lon="5.11055">
        <ele>308</ele>
        <time>2022-11-17T11:21:12Z</time>
      </trkpt>
      <trkpt lat="44.71408" lon="5.11045">
        <ele>308.1</ele>
        <time>2022-11-17T11:21:12Z</time>
      </trkpt>
      <trkpt lat="44.71412" lon="5.11034">
        <ele>308.1</ele>
        <time>2022-11-17T11:21:12Z</time>
      </trkpt>
      <trkpt lat="44.71404" lon="5.11026">
        <ele>308.5</ele>
        <time>2022-11-17T11:21:12Z</time>
      </trkpt>
      <trkpt lat="44.71333" lon="5.10928">
        <ele>320.7</ele>
        <time>2022-11-17T11:21:12Z</time>
      </trkpt>
      <trkpt lat="44.71327" lon="5.1091">
        <ele>323.7</ele>
        <time>2022-11-17T11:21:12Z</time>
      </trkpt>
      <trkpt lat="44.71327" lon="5.10899">
        <ele>325.4</ele>
        <time>2022-11-17T11:21:12Z</time>
      </trkpt>
      <trkpt lat="44.71359" lon="5.10811">
        <ele>337.2</ele>
        <time>2022-11-17T11:21:12Z</time>
      </trkpt>
      <trkpt lat="44.71328" lon="5.10804">
        <ele>339.1</ele>
        <time>2022-11-17T11:21:12Z</time>
      </trkpt>
      <trkpt lat="44.71317" lon="5.10788">
        <ele>336.3</ele>
        <time>2022-11-17T11:21:12Z</time>
      </trkpt>
      <trkpt lat="44.71314" lon="5.10774">
        <ele>333.9</ele>
        <time>2022-11-17T11:21:12Z</time>
      </trkpt>
      <trkpt lat="44.71318" lon="5.10747">
        <ele>332.6</ele>
        <time>2022-11-17T11:21:12Z</time>
      </trkpt>
      <trkpt lat="44.71315" lon="5.10734">
        <ele>330.6</ele>
        <time>2022-11-17T11:21:12Z</time>
      </trkpt>
      <trkpt lat="44.71306" lon="5.1074">
        <ele>327.9</ele>
        <time>2022-11-17T11:21:12Z</time>
      </trkpt>
      <trkpt lat="44.71285" lon="5.10783">
        <ele>327.7</ele>
        <time>2022-11-17T11:21:12Z</time>
      </trkpt>
      <trkpt lat="44.71274" lon="5.1079">
        <ele>327</ele>
        <time>2022-11-17T11:21:12Z</time>
      </trkpt>
      <trkpt lat="44.71234" lon="5.10795">
        <ele>321.4</ele>
        <time>2022-11-17T11:21:12Z</time>
      </trkpt>
      <trkpt lat="44.71214" lon="5.10811">
        <ele>319.8</ele>
        <time>2022-11-17T11:21:12Z</time>
      </trkpt>
      <trkpt lat="44.71177" lon="5.1088">
        <ele>315</ele>
        <time>2022-11-17T11:21:12Z</time>
      </trkpt>
      <trkpt lat="44.71169" lon="5.10937">
        <ele>311.8</ele>
        <time>2022-11-17T11:21:12Z</time>
      </trkpt>
      <trkpt lat="44.7116" lon="5.10934">
        <ele>309.2</ele>
        <time>2022-11-17T11:21:12Z</time>
      </trkpt>
      <trkpt lat="44.71158" lon="5.10904">
        <ele>308.4</ele>
        <time>2022-11-17T11:21:12Z</time>
      </trkpt>
      <trkpt lat="44.7116" lon="5.10877">
        <ele>307.7</ele>
        <time>2022-11-17T11:21:12Z</time>
      </trkpt>
      <trkpt lat="44.71164" lon="5.10859">
        <ele>307.9</ele>
        <time>2022-11-17T11:21:12Z</time>
      </trkpt>
      <trkpt lat="44.71164" lon="5.10848">
        <ele>307.2</ele>
        <time>2022-11-17T11:21:12Z</time>
      </trkpt>
      <trkpt lat="44.71161" lon="5.10837">
        <ele>305.3</ele>
        <time>2022-11-17T11:21:12Z</time>
      </trkpt>
      <trkpt lat="44.71155" lon="5.10845">
        <ele>304</ele>
        <time>2022-11-17T11:21:12Z</time>
      </trkpt>
      <trkpt lat="44.71134" lon="5.10919">
        <ele>301.4</ele>
        <time>2022-11-17T11:21:12Z</time>
      </trkpt>
      <trkpt lat="44.71131" lon="5.10946">
        <ele>300.6</ele>
        <time>2022-11-17T11:21:12Z</time>
      </trkpt>
      <trkpt lat="44.71126" lon="5.10956">
        <ele>298.6</ele>
        <time>2022-11-17T11:21:12Z</time>
      </trkpt>
      <trkpt lat="44.71122" lon="5.10971">
        <ele>296.7</ele>
        <time>2022-11-17T11:21:12Z</time>
      </trkpt>
      <trkpt lat="44.71112" lon="5.11072">
        <ele>287</ele>
        <time>2022-11-17T11:21:12Z</time>
      </trkpt>
      <trkpt lat="44.71116" lon="5.11084">
        <ele>285.4</ele>
        <time>2022-11-17T11:21:12Z</time>
      </trkpt>
      <trkpt lat="44.71171" lon="5.11133">
        <ele>281.6</ele>
        <time>2022-11-17T11:21:12Z</time>
      </trkpt>
      <trkpt lat="44.71177" lon="5.11148">
        <ele>280.1</ele>
        <time>2022-11-17T11:21:12Z</time>
      </trkpt>
      <trkpt lat="44.71176" lon="5.11252">
        <ele>274.7</ele>
        <time>2022-11-17T11:21:12Z</time>
      </trkpt>
      <trkpt lat="44.71165" lon="5.1128">
        <ele>275</ele>
        <time>2022-11-17T11:21:12Z</time>
      </trkpt>
      <trkpt lat="44.71081" lon="5.11409">
        <ele>279.8</ele>
        <time>2022-11-17T11:21:12Z</time>
      </trkpt>
      <trkpt lat="44.71074" lon="5.11425">
        <ele>280.6</ele>
        <time>2022-11-17T11:21:12Z</time>
      </trkpt>
      <trkpt lat="44.71072" lon="5.11463">
        <ele>283.1</ele>
        <time>2022-11-17T11:21:12Z</time>
      </trkpt>
      <trkpt lat="44.71069" lon="5.11476">
        <ele>283.9</ele>
        <time>2022-11-17T11:21:12Z</time>
      </trkpt>
      <trkpt lat="44.71038" lon="5.11545">
        <ele>288.5</ele>
        <time>2022-11-17T11:21:12Z</time>
      </trkpt>
      <trkpt lat="44.71032" lon="5.11576">
        <ele>290.4</ele>
        <time>2022-11-17T11:21:12Z</time>
      </trkpt>
      <trkpt lat="44.71037" lon="5.11615">
        <ele>291.8</ele>
        <time>2022-11-17T11:21:12Z</time>
      </trkpt>
      <trkpt lat="44.71049" lon="5.11656">
        <ele>289</ele>
        <time>2022-11-17T11:21:12Z</time>
      </trkpt>
      <trkpt lat="44.71073" lon="5.11704">
        <ele>287.7</ele>
        <time>2022-11-17T11:21:12Z</time>
      </trkpt>
      <trkpt lat="44.71078" lon="5.11722">
        <ele>285.9</ele>
        <time>2022-11-17T11:21:12Z</time>
      </trkpt>
      <trkpt lat="44.71081" lon="5.11778">
        <ele>279</ele>
        <time>2022-11-17T11:21:12Z</time>
      </trkpt>
      <trkpt lat="44.71093" lon="5.11804">
        <ele>280.8</ele>
        <time>2022-11-17T11:21:12Z</time>
      </trkpt>
      <trkpt lat="44.71096" lon="5.11814">
        <ele>280.3</ele>
        <time>2022-11-17T11:21:12Z</time>
      </trkpt>
      <trkpt lat="44.7113" lon="5.1189">
        <ele>283.2</ele>
        <time>2022-11-17T11:21:12Z</time>
      </trkpt>
      <trkpt lat="44.71139" lon="5.11923">
        <ele>282</ele>
        <time>2022-11-17T11:21:12Z</time>
      </trkpt>
      <trkpt lat="44.71142" lon="5.11949">
        <ele>278.9</ele>
        <time>2022-11-17T11:21:12Z</time>
      </trkpt>
      <trkpt lat="44.71153" lon="5.11994">
        <ele>277.9</ele>
        <time>2022-11-17T11:21:12Z</time>
      </trkpt>
      <trkpt lat="44.71164" lon="5.12012">
        <ele>279.3</ele>
        <time>2022-11-17T11:21:12Z</time>
      </trkpt>
      <trkpt lat="44.71178" lon="5.12055">
        <ele>279.8</ele>
        <time>2022-11-17T11:21:12Z</time>
      </trkpt>
      <trkpt lat="44.71178" lon="5.12098">
        <ele>275.8</ele>
        <time>2022-11-17T11:21:12Z</time>
      </trkpt>
      <trkpt lat="44.71193" lon="5.12189">
        <ele>274.8</ele>
        <time>2022-11-17T11:21:12Z</time>
      </trkpt>
      <trkpt lat="44.71192" lon="5.12205">
        <ele>274</ele>
        <time>2022-11-17T11:21:12Z</time>
      </trkpt>
      <trkpt lat="44.71181" lon="5.12243">
        <ele>269.5</ele>
        <time>2022-11-17T11:21:12Z</time>
      </trkpt>
      <trkpt lat="44.71166" lon="5.1225">
        <ele>265.9</ele>
        <time>2022-11-17T11:21:12Z</time>
      </trkpt>
      <trkpt lat="44.7109" lon="5.12308">
        <ele>252.5</ele>
        <time>2022-11-17T11:21:12Z</time>
      </trkpt>
      <trkpt lat="44.71082" lon="5.12311">
        <ele>252.1</ele>
        <time>2022-11-17T11:21:12Z</time>
      </trkpt>
      <trkpt lat="44.7107" lon="5.12308">
        <ele>252.4</ele>
        <time>2022-11-17T11:21:12Z</time>
      </trkpt>
      <trkpt lat="44.71024" lon="5.1225">
        <ele>257</ele>
        <time>2022-11-17T11:21:12Z</time>
      </trkpt>
      <trkpt lat="44.71017" lon="5.12245">
        <ele>256.8</ele>
        <time>2022-11-17T11:21:12Z</time>
      </trkpt>
      <trkpt lat="44.71007" lon="5.12242">
        <ele>256.7</ele>
        <time>2022-11-17T11:21:12Z</time>
      </trkpt>
      <trkpt lat="44.70997" lon="5.12248">
        <ele>256.4</ele>
        <time>2022-11-17T11:21:12Z</time>
      </trkpt>
      <trkpt lat="44.70965" lon="5.12289">
        <ele>253.4</ele>
        <time>2022-11-17T11:21:12Z</time>
      </trkpt>
      <trkpt lat="44.7095" lon="5.12293">
        <ele>253.5</ele>
        <time>2022-11-17T11:21:12Z</time>
      </trkpt>
      <trkpt lat="44.7094" lon="5.12285">
        <ele>253.8</ele>
        <time>2022-11-17T11:21:12Z</time>
      </trkpt>
      <trkpt lat="44.70932" lon="5.12265">
        <ele>254</ele>
        <time>2022-11-17T11:21:12Z</time>
      </trkpt>
      <trkpt lat="44.7093" lon="5.12248">
        <ele>254.1</ele>
        <time>2022-11-17T11:21:12Z</time>
      </trkpt>
      <trkpt lat="44.70879" lon="5.12278">
        <ele>260.7</ele>
        <time>2022-11-17T11:21:12Z</time>
      </trkpt>
      <trkpt lat="44.70848" lon="5.12313">
        <ele>265.2</ele>
        <time>2022-11-17T11:21:12Z</time>
      </trkpt>
      <trkpt lat="44.70833" lon="5.12351">
        <ele>267.6</ele>
        <time>2022-11-17T11:21:12Z</time>
      </trkpt>
      <trkpt lat="44.70801" lon="5.12504">
        <ele>276.6</ele>
        <time>2022-11-17T11:21:12Z</time>
      </trkpt>
      <trkpt lat="44.70809" lon="5.12669">
        <ele>279.5</ele>
        <time>2022-11-17T11:21:12Z</time>
      </trkpt>
      <trkpt lat="44.70801" lon="5.12664">
        <ele>280.6</ele>
        <time>2022-11-17T11:21:12Z</time>
      </trkpt>
      <trkpt lat="44.70704" lon="5.12705">
        <ele>290.2</ele>
        <time>2022-11-17T11:21:12Z</time>
      </trkpt>
      <trkpt lat="44.70701" lon="5.12691">
        <ele>291</ele>
        <time>2022-11-17T11:21:12Z</time>
      </trkpt>
      <trkpt lat="44.7072" lon="5.12637">
        <ele>291.4</ele>
        <time>2022-11-17T11:21:12Z</time>
      </trkpt>
      <trkpt lat="44.70719" lon="5.12623">
        <ele>292.6</ele>
        <time>2022-11-17T11:21:12Z</time>
      </trkpt>
      <trkpt lat="44.70709" lon="5.1262">
        <ele>294.3</ele>
        <time>2022-11-17T11:21:12Z</time>
      </trkpt>
      <trkpt lat="44.70668" lon="5.1263">
        <ele>300.3</ele>
        <time>2022-11-17T11:21:12Z</time>
      </trkpt>
      <trkpt lat="44.70632" lon="5.1266">
        <ele>306</ele>
        <time>2022-11-17T11:21:12Z</time>
      </trkpt>
      <trkpt lat="44.70614" lon="5.12667">
        <ele>310.3</ele>
        <time>2022-11-17T11:21:12Z</time>
      </trkpt>
      <trkpt lat="44.70577" lon="5.12667">
        <ele>321.7</ele>
        <time>2022-11-17T11:21:12Z</time>
      </trkpt>
      <trkpt lat="44.70564" lon="5.12672">
        <ele>326.5</ele>
        <time>2022-11-17T11:21:12Z</time>
      </trkpt>
      <trkpt lat="44.70546" lon="5.12693">
        <ele>332.6</ele>
        <time>2022-11-17T11:21:12Z</time>
      </trkpt>
      <trkpt lat="44.70532" lon="5.12727">
        <ele>337</ele>
        <time>2022-11-17T11:21:12Z</time>
      </trkpt>
      <trkpt lat="44.70525" lon="5.12717">
        <ele>340.7</ele>
        <time>2022-11-17T11:21:12Z</time>
      </trkpt>
      <trkpt lat="44.70529" lon="5.12589">
        <ele>348.3</ele>
        <time>2022-11-17T11:21:12Z</time>
      </trkpt>
      <trkpt lat="44.70546" lon="5.12513">
        <ele>343.1</ele>
        <time>2022-11-17T11:21:12Z</time>
      </trkpt>
      <trkpt lat="44.70537" lon="5.12506">
        <ele>344.1</ele>
        <time>2022-11-17T11:21:12Z</time>
      </trkpt>
      <trkpt lat="44.70526" lon="5.12515">
        <ele>346.6</ele>
        <time>2022-11-17T11:21:12Z</time>
      </trkpt>
      <trkpt lat="44.70509" lon="5.12521">
        <ele>348.2</ele>
        <time>2022-11-17T11:21:12Z</time>
      </trkpt>
      <trkpt lat="44.70456" lon="5.12678">
        <ele>367.1</ele>
        <time>2022-11-17T11:21:12Z</time>
      </trkpt>
      <trkpt lat="44.70424" lon="5.12877">
        <ele>376.7</ele>
        <time>2022-11-17T11:21:12Z</time>
      </trkpt>
      <trkpt lat="44.7045" lon="5.1298">
        <ele>402.3</ele>
        <time>2022-11-17T11:21:12Z</time>
      </trkpt>
      <trkpt lat="44.70451" lon="5.12992">
        <ele>405</ele>
        <time>2022-11-17T11:21:12Z</time>
      </trkpt>
      <trkpt lat="44.70449" lon="5.13005">
        <ele>408</ele>
        <time>2022-11-17T11:21:12Z</time>
      </trkpt>
      <trkpt lat="44.70391" lon="5.1316">
        <ele>408.7</ele>
        <time>2022-11-17T11:21:12Z</time>
      </trkpt>
      <trkpt lat="44.70385" lon="5.13216">
        <ele>409.4</ele>
        <time>2022-11-17T11:21:12Z</time>
      </trkpt>
      <trkpt lat="44.70391" lon="5.13335">
        <ele>415.7</ele>
        <time>2022-11-17T11:21:12Z</time>
      </trkpt>
      <trkpt lat="44.70404" lon="5.1339">
        <ele>419.4</ele>
        <time>2022-11-17T11:21:12Z</time>
      </trkpt>
      <trkpt lat="44.70424" lon="5.13432">
        <ele>421.9</ele>
        <time>2022-11-17T11:21:12Z</time>
      </trkpt>
      <trkpt lat="44.70455" lon="5.13592">
        <ele>438.5</ele>
        <time>2022-11-17T11:21:12Z</time>
      </trkpt>
      <trkpt lat="44.70464" lon="5.13613">
        <ele>439.2</ele>
        <time>2022-11-17T11:21:12Z</time>
      </trkpt>
      <trkpt lat="44.70485" lon="5.13643">
        <ele>438.6</ele>
        <time>2022-11-17T11:21:12Z</time>
      </trkpt>
      <trkpt lat="44.7049" lon="5.13659">
        <ele>440</ele>
        <time>2022-11-17T11:21:12Z</time>
      </trkpt>
      <trkpt lat="44.70496" lon="5.13729">
        <ele>449.7</ele>
        <time>2022-11-17T11:21:12Z</time>
      </trkpt>
      <trkpt lat="44.7051" lon="5.13754">
        <ele>451.4</ele>
        <time>2022-11-17T11:21:12Z</time>
      </trkpt>
      <trkpt lat="44.70597" lon="5.13856">
        <ele>454.7</ele>
        <time>2022-11-17T11:21:12Z</time>
      </trkpt>
      <trkpt lat="44.70603" lon="5.13873">
        <ele>454.5</ele>
        <time>2022-11-17T11:21:12Z</time>
      </trkpt>
      <trkpt lat="44.70607" lon="5.13907">
        <ele>455</ele>
        <time>2022-11-17T11:21:12Z</time>
      </trkpt>
      <trkpt lat="44.70684" lon="5.14132">
        <ele>466.8</ele>
        <time>2022-11-17T11:21:12Z</time>
      </trkpt>
      <trkpt lat="44.70686" lon="5.14143">
        <ele>467.9</ele>
        <time>2022-11-17T11:21:12Z</time>
      </trkpt>
      <trkpt lat="44.70688" lon="5.14318">
        <ele>475.5</ele>
        <time>2022-11-17T11:21:12Z</time>
      </trkpt>
      <trkpt lat="44.70673" lon="5.14458">
        <ele>481.7</ele>
        <time>2022-11-17T11:21:12Z</time>
      </trkpt>
      <trkpt lat="44.70679" lon="5.14541">
        <ele>482.3</ele>
        <time>2022-11-17T11:21:12Z</time>
      </trkpt>
      <trkpt lat="44.70701" lon="5.14616">
        <ele>482.2</ele>
        <time>2022-11-17T11:21:12Z</time>
      </trkpt>
      <trkpt lat="44.70709" lon="5.14692">
        <ele>483.9</ele>
        <time>2022-11-17T11:21:12Z</time>
      </trkpt>
      <trkpt lat="44.70736" lon="5.14799">
        <ele>493.7</ele>
        <time>2022-11-17T11:21:12Z</time>
      </trkpt>
      <trkpt lat="44.70735" lon="5.14821">
        <ele>495.6</ele>
        <time>2022-11-17T11:21:12Z</time>
      </trkpt>
      <trkpt lat="44.7067" lon="5.15038">
        <ele>495.8</ele>
        <time>2022-11-17T11:21:12Z</time>
      </trkpt>
      <trkpt lat="44.70659" lon="5.15135">
        <ele>507.7</ele>
        <time>2022-11-17T11:21:12Z</time>
      </trkpt>
      <trkpt lat="44.70635" lon="5.15191">
        <ele>507.4</ele>
        <time>2022-11-17T11:21:12Z</time>
      </trkpt>
      <trkpt lat="44.70633" lon="5.15204">
        <ele>507.1</ele>
        <time>2022-11-17T11:21:12Z</time>
      </trkpt>
      <trkpt lat="44.70634" lon="5.15231">
        <ele>507.8</ele>
        <time>2022-11-17T11:21:12Z</time>
      </trkpt>
      <trkpt lat="44.70637" lon="5.15245">
        <ele>509.4</ele>
        <time>2022-11-17T11:21:12Z</time>
      </trkpt>
      <trkpt lat="44.70641" lon="5.15299">
        <ele>512.3</ele>
        <time>2022-11-17T11:21:12Z</time>
      </trkpt>
      <trkpt lat="44.70626" lon="5.15374">
        <ele>505.7</ele>
        <time>2022-11-17T11:21:12Z</time>
      </trkpt>
      <trkpt lat="44.70631" lon="5.15421">
        <ele>505.8</ele>
        <time>2022-11-17T11:21:12Z</time>
      </trkpt>
      <trkpt lat="44.70621" lon="5.15485">
        <ele>500.6</ele>
        <time>2022-11-17T11:21:12Z</time>
      </trkpt>
      <trkpt lat="44.7063" lon="5.15529">
        <ele>499.5</ele>
        <time>2022-11-17T11:21:12Z</time>
      </trkpt>
      <trkpt lat="44.70654" lon="5.15573">
        <ele>500.1</ele>
        <time>2022-11-17T11:21:12Z</time>
      </trkpt>
      <trkpt lat="44.70655" lon="5.15593">
        <ele>499.7</ele>
        <time>2022-11-17T11:21:12Z</time>
      </trkpt>
      <trkpt lat="44.70655" lon="5.15606">
        <ele>500.2</ele>
        <time>2022-11-17T11:21:12Z</time>
      </trkpt>
      <trkpt lat="44.70648" lon="5.15626">
        <ele>500</ele>
        <time>2022-11-17T11:21:12Z</time>
      </trkpt>
      <trkpt lat="44.70638" lon="5.15647">
        <ele>498.4</ele>
        <time>2022-11-17T11:21:12Z</time>
      </trkpt>
      <trkpt lat="44.70611" lon="5.15763">
        <ele>497.7</ele>
        <time>2022-11-17T11:21:12Z</time>
      </trkpt>
      <trkpt lat="44.70559" lon="5.15876">
        <ele>489.6</ele>
        <time>2022-11-17T11:21:12Z</time>
      </trkpt>
      <trkpt lat="44.70554" lon="5.1593">
        <ele>484.4</ele>
        <time>2022-11-17T11:21:12Z</time>
      </trkpt>
      <trkpt lat="44.70557" lon="5.15965">
        <ele>483.9</ele>
        <time>2022-11-17T11:21:12Z</time>
      </trkpt>
      <trkpt lat="44.70556" lon="5.15978">
        <ele>483.7</ele>
        <time>2022-11-17T11:21:12Z</time>
      </trkpt>
      <trkpt lat="44.70523" lon="5.16024">
        <ele>471.9</ele>
        <time>2022-11-17T11:21:12Z</time>
      </trkpt>
      <trkpt lat="44.70502" lon="5.16092">
        <ele>460.1</ele>
        <time>2022-11-17T11:21:12Z</time>
      </trkpt>
      <trkpt lat="44.70503" lon="5.16108">
        <ele>457.2</ele>
        <time>2022-11-17T11:21:12Z</time>
      </trkpt>
      <trkpt lat="44.7052" lon="5.16137">
        <ele>460.1</ele>
        <time>2022-11-17T11:21:12Z</time>
      </trkpt>
      <trkpt lat="44.70531" lon="5.16195">
        <ele>455.7</ele>
        <time>2022-11-17T11:21:12Z</time>
      </trkpt>
      <trkpt lat="44.70525" lon="5.16203">
        <ele>455.1</ele>
        <time>2022-11-17T11:21:12Z</time>
      </trkpt>
      <trkpt lat="44.70516" lon="5.16199">
        <ele>454</ele>
        <time>2022-11-17T11:21:12Z</time>
      </trkpt>
      <trkpt lat="44.70458" lon="5.16151">
        <ele>442</ele>
        <time>2022-11-17T11:21:12Z</time>
      </trkpt>
      <trkpt lat="44.70439" lon="5.16143">
        <ele>437.4</ele>
        <time>2022-11-17T11:21:12Z</time>
      </trkpt>
      <trkpt lat="44.70371" lon="5.1614">
        <ele>432.2</ele>
        <time>2022-11-17T11:21:12Z</time>
      </trkpt>
      <trkpt lat="44.70342" lon="5.16129">
        <ele>426.8</ele>
        <time>2022-11-17T11:21:12Z</time>
      </trkpt>
      <trkpt lat="44.70333" lon="5.16128">
        <ele>426</ele>
        <time>2022-11-17T11:21:12Z</time>
      </trkpt>
      <trkpt lat="44.70298" lon="5.16142">
        <ele>424.5</ele>
        <time>2022-11-17T11:21:12Z</time>
      </trkpt>
      <trkpt lat="44.70288" lon="5.16155">
        <ele>425.5</ele>
        <time>2022-11-17T11:21:12Z</time>
      </trkpt>
      <trkpt lat="44.70256" lon="5.16234">
        <ele>428.8</ele>
        <time>2022-11-17T11:21:12Z</time>
      </trkpt>
      <trkpt lat="44.70222" lon="5.16271">
        <ele>417.5</ele>
        <time>2022-11-17T11:21:12Z</time>
      </trkpt>
      <trkpt lat="44.70217" lon="5.1629">
        <ele>414.4</ele>
        <time>2022-11-17T11:21:12Z</time>
      </trkpt>
      <trkpt lat="44.70224" lon="5.16324">
        <ele>412.8</ele>
        <time>2022-11-17T11:21:12Z</time>
      </trkpt>
      <trkpt lat="44.70225" lon="5.16367">
        <ele>409.2</ele>
        <time>2022-11-17T11:21:12Z</time>
      </trkpt>
      <trkpt lat="44.70208" lon="5.16446">
        <ele>405.2</ele>
        <time>2022-11-17T11:21:12Z</time>
      </trkpt>
      <trkpt lat="44.70193" lon="5.16462">
        <ele>400.8</ele>
        <time>2022-11-17T11:21:12Z</time>
      </trkpt>
      <trkpt lat="44.70171" lon="5.16502">
        <ele>397</ele>
        <time>2022-11-17T11:21:12Z</time>
      </trkpt>
      <trkpt lat="44.70116" lon="5.16583">
        <ele>384.3</ele>
        <time>2022-11-17T11:21:12Z</time>
      </trkpt>
      <trkpt lat="44.70113" lon="5.16595">
        <ele>384</ele>
        <time>2022-11-17T11:21:12Z</time>
      </trkpt>
      <trkpt lat="44.70114" lon="5.16607">
        <ele>385.1</ele>
        <time>2022-11-17T11:21:12Z</time>
      </trkpt>
      <trkpt lat="44.70111" lon="5.16617">
        <ele>384.6</ele>
        <time>2022-11-17T11:21:12Z</time>
      </trkpt>
      <trkpt lat="44.70061" lon="5.16653">
        <ele>373</ele>
        <time>2022-11-17T11:21:12Z</time>
      </trkpt>
      <trkpt lat="44.69938" lon="5.16686">
        <ele>352.1</ele>
        <time>2022-11-17T11:21:12Z</time>
      </trkpt>
      <trkpt lat="44.69898" lon="5.16746">
        <ele>346.4</ele>
        <time>2022-11-17T11:21:12Z</time>
      </trkpt>
      <trkpt lat="44.69895" lon="5.16758">
        <ele>343.9</ele>
        <time>2022-11-17T11:21:12Z</time>
      </trkpt>
      <trkpt lat="44.69901" lon="5.16766">
        <ele>342.5</ele>
        <time>2022-11-17T11:21:12Z</time>
      </trkpt>
      <trkpt lat="44.69956" lon="5.16807">
        <ele>339</ele>
        <time>2022-11-17T11:21:12Z</time>
      </trkpt>
      <trkpt lat="44.69964" lon="5.1681">
        <ele>340.3</ele>
        <time>2022-11-17T11:21:12Z</time>
      </trkpt>
      <trkpt lat="44.69972" lon="5.16808">
        <ele>341.9</ele>
        <time>2022-11-17T11:21:12Z</time>
      </trkpt>
      <trkpt lat="44.69975" lon="5.1682">
        <ele>342</ele>
        <time>2022-11-17T11:21:12Z</time>
      </trkpt>
      <trkpt lat="44.6997" lon="5.1683">
        <ele>340.7</ele>
        <time>2022-11-17T11:21:12Z</time>
      </trkpt>
      <trkpt lat="44.69968" lon="5.1684">
        <ele>340.7</ele>
        <time>2022-11-17T11:21:12Z</time>
      </trkpt>
      <trkpt lat="44.6997" lon="5.16852">
        <ele>341.9</ele>
        <time>2022-11-17T11:21:12Z</time>
      </trkpt>
      <trkpt lat="44.69967" lon="5.16865">
        <ele>342.6</ele>
        <time>2022-11-17T11:21:12Z</time>
      </trkpt>
      <trkpt lat="44.69911" lon="5.16879">
        <ele>336.1</ele>
        <time>2022-11-17T11:21:12Z</time>
      </trkpt>
      <trkpt lat="44.69896" lon="5.1689">
        <ele>335.5</ele>
        <time>2022-11-17T11:21:12Z</time>
      </trkpt>
      <trkpt lat="44.6985" lon="5.16945">
        <ele>334.2</ele>
        <time>2022-11-17T11:21:12Z</time>
      </trkpt>
      <trkpt lat="44.69851" lon="5.16961">
        <ele>335.3</ele>
        <time>2022-11-17T11:21:12Z</time>
      </trkpt>
      <trkpt lat="44.69866" lon="5.17006">
        <ele>340.6</ele>
        <time>2022-11-17T11:21:12Z</time>
      </trkpt>
      <trkpt lat="44.69865" lon="5.17018">
        <ele>341.2</ele>
        <time>2022-11-17T11:21:12Z</time>
      </trkpt>
      <trkpt lat="44.69767" lon="5.17048">
        <ele>331.3</ele>
        <time>2022-11-17T11:21:12Z</time>
      </trkpt>
      <trkpt lat="44.69757" lon="5.17057">
        <ele>330.4</ele>
        <time>2022-11-17T11:21:12Z</time>
      </trkpt>
      <trkpt lat="44.69753" lon="5.17068">
        <ele>330</ele>
        <time>2022-11-17T11:21:12Z</time>
      </trkpt>
      <trkpt lat="44.69749" lon="5.17127">
        <ele>327.2</ele>
        <time>2022-11-17T11:21:12Z</time>
      </trkpt>
      <trkpt lat="44.69758" lon="5.17176">
        <ele>330.5</ele>
        <time>2022-11-17T11:21:12Z</time>
      </trkpt>
      <trkpt lat="44.6975" lon="5.1719">
        <ele>329.7</ele>
        <time>2022-11-17T11:21:12Z</time>
      </trkpt>
      <trkpt lat="44.6971" lon="5.17235">
        <ele>329.7</ele>
        <time>2022-11-17T11:21:12Z</time>
      </trkpt>
      <trkpt lat="44.69702" lon="5.17252">
        <ele>329.4</ele>
        <time>2022-11-17T11:21:12Z</time>
      </trkpt>
      <trkpt lat="44.69697" lon="5.17284">
        <ele>328.7</ele>
        <time>2022-11-17T11:21:12Z</time>
      </trkpt>
      <trkpt lat="44.697" lon="5.17298">
        <ele>329.4</ele>
        <time>2022-11-17T11:21:12Z</time>
      </trkpt>
      <trkpt lat="44.69724" lon="5.17365">
        <ele>331.3</ele>
        <time>2022-11-17T11:21:12Z</time>
      </trkpt>
      <trkpt lat="44.69783" lon="5.17609">
        <ele>319.2</ele>
        <time>2022-11-17T11:21:12Z</time>
      </trkpt>
      <trkpt lat="44.69798" lon="5.17626">
        <ele>320.1</ele>
        <time>2022-11-17T11:21:12Z</time>
      </trkpt>
      <trkpt lat="44.69785" lon="5.17679">
        <ele>310.8</ele>
        <time>2022-11-17T11:21:12Z</time>
      </trkpt>
      <trkpt lat="44.69788" lon="5.1772">
        <ele>301.4</ele>
        <time>2022-11-17T11:21:12Z</time>
      </trkpt>
      <trkpt lat="44.69796" lon="5.17732">
        <ele>299.8</ele>
        <time>2022-11-17T11:21:12Z</time>
      </trkpt>
      <trkpt lat="44.69803" lon="5.17736">
        <ele>300.1</ele>
        <time>2022-11-17T11:21:12Z</time>
      </trkpt>
      <trkpt lat="44.69905" lon="5.17767">
        <ele>301.8</ele>
        <time>2022-11-17T11:21:12Z</time>
      </trkpt>
      <trkpt lat="44.69911" lon="5.17775">
        <ele>299.7</ele>
        <time>2022-11-17T11:21:12Z</time>
      </trkpt>
      <trkpt lat="44.69903" lon="5.1778">
        <ele>298</ele>
        <time>2022-11-17T11:21:12Z</time>
      </trkpt>
      <trkpt lat="44.69838" lon="5.17777">
        <ele>294.6</ele>
        <time>2022-11-17T11:21:12Z</time>
      </trkpt>
      <trkpt lat="44.69778" lon="5.17792">
        <ele>283.5</ele>
        <time>2022-11-17T11:21:12Z</time>
      </trkpt>
      <trkpt lat="44.69794" lon="5.17885">
        <ele>276</ele>
        <time>2022-11-17T11:21:12Z</time>
      </trkpt>
      <trkpt lat="44.69795" lon="5.17903">
        <ele>277</ele>
        <time>2022-11-17T11:21:12Z</time>
      </trkpt>
      <trkpt lat="44.69792" lon="5.17915">
        <ele>277.4</ele>
        <time>2022-11-17T11:21:12Z</time>
      </trkpt>
      <trkpt lat="44.69782" lon="5.17926">
        <ele>275.8</ele>
        <time>2022-11-17T11:21:12Z</time>
      </trkpt>
      <trkpt lat="44.69777" lon="5.17938">
        <ele>274.9</ele>
        <time>2022-11-17T11:21:12Z</time>
      </trkpt>
      <trkpt lat="44.69772" lon="5.18022">
        <ele>272.1</ele>
        <time>2022-11-17T11:21:12Z</time>
      </trkpt>
      <trkpt lat="44.69759" lon="5.18078">
        <ele>270.3</ele>
        <time>2022-11-17T11:21:12Z</time>
      </trkpt>
      <trkpt lat="44.69762" lon="5.18125">
        <ele>270.5</ele>
        <time>2022-11-17T11:21:12Z</time>
      </trkpt>
      <trkpt lat="44.69794" lon="5.18274">
        <ele>275.6</ele>
        <time>2022-11-17T11:21:12Z</time>
      </trkpt>
      <trkpt lat="44.69793" lon="5.18331">
        <ele>279.5</ele>
        <time>2022-11-17T11:21:12Z</time>
      </trkpt>
      <trkpt lat="44.69763" lon="5.18606">
        <ele>276</ele>
        <time>2022-11-17T11:21:12Z</time>
      </trkpt>
      <trkpt lat="44.69759" lon="5.18615">
        <ele>276.4</ele>
        <time>2022-11-17T11:21:12Z</time>
      </trkpt>
      <trkpt lat="44.69741" lon="5.18634">
        <ele>276.3</ele>
        <time>2022-11-17T11:21:12Z</time>
      </trkpt>
      <trkpt lat="44.69715" lon="5.18692">
        <ele>276.9</ele>
        <time>2022-11-17T11:21:12Z</time>
      </trkpt>
      <trkpt lat="44.6969" lon="5.18775">
        <ele>275.6</ele>
        <time>2022-11-17T11:21:12Z</time>
      </trkpt>
      <trkpt lat="44.69674" lon="5.18918">
        <ele>271.2</ele>
        <time>2022-11-17T11:21:12Z</time>
      </trkpt>
      <trkpt lat="44.69705" lon="5.19201">
        <ele>264.2</ele>
        <time>2022-11-17T11:21:12Z</time>
      </trkpt>
      <trkpt lat="44.69683" lon="5.19387">
        <ele>263.4</ele>
        <time>2022-11-17T11:21:12Z</time>
      </trkpt>
      <trkpt lat="44.69674" lon="5.19397">
        <ele>263.4</ele>
        <time>2022-11-17T11:21:12Z</time>
      </trkpt>
      <trkpt lat="44.69673" lon="5.1946">
        <ele>262</ele>
        <time>2022-11-17T11:21:12Z</time>
      </trkpt>
      <trkpt lat="44.69647" lon="5.19622">
        <ele>261.5</ele>
        <time>2022-11-17T11:21:12Z</time>
      </trkpt>
      <trkpt lat="44.69648" lon="5.19645">
        <ele>262.1</ele>
        <time>2022-11-17T11:21:12Z</time>
      </trkpt>
      <trkpt lat="44.69676" lon="5.19827">
        <ele>267.9</ele>
        <time>2022-11-17T11:21:12Z</time>
        <extensions>
          <visugpx:TrkExtension xmlns:visugpx="https://www.visugpx.com/editgpx/">
            <visugpx:node>1</visugpx:node>
            </visugpx:TrkExtension>
        </extensions>
      </trkpt>
    </trkseg>
  </trk>
  <trk>
    <name><![CDATA[VTT N°6 rouge - Les  Auberts - 13 km - Déniv 420 m]]></name>
    <extensions>
      <line xmlns="http://www.topografix.com/GPX/gpx_style/0/2">
        <color>f90025</color>
        <width>4</width>
      </line>
    </extensions>
    <trkseg>
      <trkpt lat="44.69689" lon="5.1996">
        <ele>269</ele>
        <time>2022-11-17T10:14:11Z</time>
      </trkpt>
      <trkpt lat="44.69685" lon="5.19972">
        <ele>269</ele>
        <time>2022-11-17T10:14:11Z</time>
      </trkpt>
      <trkpt lat="44.69679" lon="5.20062">
        <ele>268</ele>
      </trkpt>
      <trkpt lat="44.69672" lon="5.20151">
        <ele>267</ele>
        <time>2022-11-17T10:14:11Z</time>
      </trkpt>
      <trkpt lat="44.69677" lon="5.20226">
        <ele>267</ele>
      </trkpt>
      <trkpt lat="44.69681" lon="5.203">
        <ele>269</ele>
        <time>2022-11-17T10:14:11Z</time>
      </trkpt>
      <trkpt lat="44.69677" lon="5.2032">
        <ele>271</ele>
        <time>2022-11-17T10:14:11Z</time>
      </trkpt>
      <trkpt lat="44.6967" lon="5.20338">
        <ele>272</ele>
        <time>2022-11-17T10:14:11Z</time>
      </trkpt>
      <trkpt lat="44.69633" lon="5.2039">
        <ele>273</ele>
        <time>2022-11-17T10:14:11Z</time>
      </trkpt>
      <trkpt lat="44.69609" lon="5.2041">
        <ele>273</ele>
        <time>2022-11-17T10:14:11Z</time>
      </trkpt>
      <trkpt lat="44.69512" lon="5.20463">
        <ele>272</ele>
      </trkpt>
      <trkpt lat="44.69414" lon="5.20515">
        <ele>272</ele>
        <time>2022-11-17T10:14:11Z</time>
      </trkpt>
      <trkpt lat="44.69316" lon="5.20522">
        <ele>273</ele>
        <time>2022-11-17T10:14:11Z</time>
      </trkpt>
      <trkpt lat="44.69299" lon="5.20513">
        <ele>274</ele>
        <time>2022-11-17T10:14:11Z</time>
      </trkpt>
      <trkpt lat="44.69342" lon="5.2041">
        <ele>270</ele>
      </trkpt>
      <trkpt lat="44.69384" lon="5.20308">
        <ele>271</ele>
      </trkpt>
      <trkpt lat="44.69427" lon="5.20205">
        <ele>273</ele>
      </trkpt>
      <trkpt lat="44.69469" lon="5.20102">
        <ele>274</ele>
        <time>2022-11-17T10:14:11Z</time>
      </trkpt>
      <trkpt lat="44.69485" lon="5.20101">
        <ele>275</ele>
        <time>2022-11-17T10:14:11Z</time>
      </trkpt>
      <trkpt lat="44.69496" lon="5.20092">
        <ele>275</ele>
        <time>2022-11-17T10:14:11Z</time>
      </trkpt>
      <trkpt lat="44.69509" lon="5.20065">
        <ele>275</ele>
        <time>2022-11-17T10:14:11Z</time>
      </trkpt>
      <trkpt lat="44.69511" lon="5.20049">
        <ele>276</ele>
        <time>2022-11-17T10:14:11Z</time>
      </trkpt>
      <trkpt lat="44.69509" lon="5.20035">
        <ele>276</ele>
        <time>2022-11-17T10:14:11Z</time>
      </trkpt>
      <trkpt lat="44.695" lon="5.20007">
        <ele>276</ele>
        <time>2022-11-17T10:14:11Z</time>
      </trkpt>
      <trkpt lat="44.6949" lon="5.19994">
        <ele>276</ele>
        <time>2022-11-17T10:14:11Z</time>
      </trkpt>
      <trkpt lat="44.69477" lon="5.19969">
        <ele>277</ele>
        <time>2022-11-17T10:14:11Z</time>
      </trkpt>
      <trkpt lat="44.69475" lon="5.19957">
        <ele>277</ele>
        <time>2022-11-17T10:14:11Z</time>
      </trkpt>
      <trkpt lat="44.69473" lon="5.19924">
        <ele>277</ele>
        <time>2022-11-17T10:14:11Z</time>
      </trkpt>
      <trkpt lat="44.69467" lon="5.1991">
        <ele>278</ele>
        <time>2022-11-17T10:14:11Z</time>
      </trkpt>
      <trkpt lat="44.69425" lon="5.19877">
        <ele>279</ele>
        <time>2022-11-17T10:14:11Z</time>
      </trkpt>
      <trkpt lat="44.69343" lon="5.19851">
        <ele>282</ele>
        <time>2022-11-17T10:14:11Z</time>
      </trkpt>
      <trkpt lat="44.69244" lon="5.19842">
        <ele>286</ele>
      </trkpt>
      <trkpt lat="44.69144" lon="5.19833">
        <ele>290</ele>
        <time>2022-11-17T10:14:11Z</time>
      </trkpt>
      <trkpt lat="44.69134" lon="5.19828">
        <ele>292</ele>
        <time>2022-11-17T10:14:11Z</time>
      </trkpt>
      <trkpt lat="44.6903" lon="5.19826">
        <ele>296</ele>
        <time>2022-11-17T10:14:11Z</time>
      </trkpt>
      <trkpt lat="44.69019" lon="5.19821">
        <ele>298</ele>
        <time>2022-11-17T10:14:11Z</time>
      </trkpt>
      <trkpt lat="44.69003" lon="5.19808">
        <ele>300</ele>
        <time>2022-11-17T10:14:11Z</time>
      </trkpt>
      <trkpt lat="44.68957" lon="5.19813">
        <ele>301</ele>
        <time>2022-11-17T10:14:11Z</time>
      </trkpt>
      <trkpt lat="44.68905" lon="5.19797">
        <ele>304</ele>
      </trkpt>
      <trkpt lat="44.68853" lon="5.19781">
        <ele>306</ele>
      </trkpt>
      <trkpt lat="44.68801" lon="5.19764">
        <ele>309</ele>
      </trkpt>
      <trkpt lat="44.68749" lon="5.19748">
        <ele>311</ele>
      </trkpt>
      <trkpt lat="44.68696" lon="5.19732">
        <ele>313</ele>
      </trkpt>
      <trkpt lat="44.68644" lon="5.19716">
        <ele>315</ele>
      </trkpt>
      <trkpt lat="44.68592" lon="5.197">
        <ele>317</ele>
      </trkpt>
      <trkpt lat="44.6854" lon="5.19683">
        <ele>319</ele>
      </trkpt>
      <trkpt lat="44.68488" lon="5.19667">
        <ele>321</ele>
      </trkpt>
      <trkpt lat="44.68436" lon="5.19651">
        <ele>323</ele>
      </trkpt>
      <trkpt lat="44.68384" lon="5.19635">
        <ele>325</ele>
      </trkpt>
      <trkpt lat="44.68332" lon="5.19619">
        <ele>326</ele>
      </trkpt>
      <trkpt lat="44.68279" lon="5.19603">
        <ele>328</ele>
      </trkpt>
      <trkpt lat="44.68227" lon="5.19586">
        <ele>332</ele>
      </trkpt>
      <trkpt lat="44.68175" lon="5.1957">
        <ele>334</ele>
      </trkpt>
      <trkpt lat="44.68123" lon="5.19554">
        <ele>334</ele>
        <time>2022-11-17T10:14:11Z</time>
      </trkpt>
      <trkpt lat="44.68034" lon="5.19496">
        <ele>336</ele>
      </trkpt>
      <trkpt lat="44.67945" lon="5.19439">
        <ele>338</ele>
        <time>2022-11-17T10:14:11Z</time>
      </trkpt>
      <trkpt lat="44.67926" lon="5.19437">
        <ele>339</ele>
        <time>2022-11-17T10:14:11Z</time>
      </trkpt>
      <trkpt lat="44.67862" lon="5.19458">
        <ele>340</ele>
      </trkpt>
      <trkpt lat="44.67798" lon="5.19479">
        <ele>341</ele>
      </trkpt>
      <trkpt lat="44.67734" lon="5.19499">
        <ele>342</ele>
      </trkpt>
      <trkpt lat="44.6767" lon="5.1952">
        <ele>344</ele>
        <time>2022-11-17T10:14:11Z</time>
      </trkpt>
      <trkpt lat="44.67582" lon="5.1952">
        <ele>351</ele>
        <time>2022-11-17T10:14:11Z</time>
      </trkpt>
      <trkpt lat="44.6757" lon="5.19527">
        <ele>355</ele>
        <time>2022-11-17T10:14:11Z</time>
      </trkpt>
      <trkpt lat="44.67563" lon="5.19534">
        <ele>357</ele>
        <time>2022-11-17T10:14:11Z</time>
      </trkpt>
      <trkpt lat="44.67556" lon="5.19547">
        <ele>359</ele>
        <time>2022-11-17T10:14:11Z</time>
      </trkpt>
      <trkpt lat="44.67548" lon="5.19581">
        <ele>359</ele>
        <time>2022-11-17T10:14:11Z</time>
      </trkpt>
      <trkpt lat="44.6754" lon="5.19591">
        <ele>359</ele>
        <time>2022-11-17T10:14:11Z</time>
      </trkpt>
      <trkpt lat="44.67492" lon="5.19629">
        <ele>360</ele>
        <time>2022-11-17T10:14:11Z</time>
      </trkpt>
      <trkpt lat="44.67453" lon="5.19634">
        <ele>361</ele>
        <time>2022-11-17T10:14:11Z</time>
      </trkpt>
      <trkpt lat="44.67438" lon="5.19628">
        <ele>362</ele>
        <time>2022-11-17T10:14:11Z</time>
      </trkpt>
      <trkpt lat="44.67424" lon="5.19628">
        <ele>363</ele>
        <time>2022-11-17T10:14:11Z</time>
      </trkpt>
      <trkpt lat="44.67407" lon="5.1964">
        <ele>363</ele>
        <time>2022-11-17T10:14:11Z</time>
      </trkpt>
      <trkpt lat="44.67391" lon="5.19661">
        <ele>364</ele>
        <time>2022-11-17T10:14:11Z</time>
      </trkpt>
      <trkpt lat="44.67386" lon="5.19674">
        <ele>365</ele>
        <time>2022-11-17T10:14:11Z</time>
      </trkpt>
      <trkpt lat="44.6738" lon="5.19712">
        <ele>366</ele>
        <time>2022-11-17T10:14:11Z</time>
      </trkpt>
      <trkpt lat="44.6736" lon="5.19747">
        <ele>368</ele>
        <time>2022-11-17T10:14:11Z</time>
      </trkpt>
      <trkpt lat="44.67349" lon="5.19818">
        <ele>373</ele>
        <time>2022-11-17T10:14:11Z</time>
      </trkpt>
      <trkpt lat="44.67343" lon="5.19827">
        <ele>373</ele>
        <time>2022-11-17T10:14:11Z</time>
      </trkpt>
      <trkpt lat="44.6722" lon="5.19917">
        <ele>377</ele>
        <time>2022-11-17T10:14:11Z</time>
      </trkpt>
      <trkpt lat="44.672" lon="5.19945">
        <ele>378</ele>
        <time>2022-11-17T10:14:11Z</time>
      </trkpt>
      <trkpt lat="44.67143" lon="5.19974">
        <ele>382</ele>
        <time>2022-11-17T10:14:11Z</time>
      </trkpt>
      <trkpt lat="44.67103" lon="5.20019">
        <ele>385</ele>
        <time>2022-11-17T10:14:11Z</time>
      </trkpt>
      <trkpt lat="44.6708" lon="5.20061">
        <ele>388</ele>
        <time>2022-11-17T10:14:11Z</time>
      </trkpt>
      <trkpt lat="44.6707" lon="5.20093">
        <ele>390</ele>
        <time>2022-11-17T10:14:11Z</time>
      </trkpt>
      <trkpt lat="44.67063" lon="5.20105">
        <ele>391</ele>
        <time>2022-11-17T10:14:11Z</time>
      </trkpt>
      <trkpt lat="44.67056" lon="5.20109">
        <ele>392</ele>
        <time>2022-11-17T10:14:11Z</time>
      </trkpt>
      <trkpt lat="44.6703" lon="5.20117">
        <ele>394</ele>
        <time>2022-11-17T10:14:11Z</time>
      </trkpt>
      <trkpt lat="44.6702" lon="5.20127">
        <ele>395</ele>
        <time>2022-11-17T10:14:11Z</time>
      </trkpt>
      <trkpt lat="44.6701" lon="5.20128">
        <ele>396</ele>
        <time>2022-11-17T10:14:11Z</time>
      </trkpt>
      <trkpt lat="44.67003" lon="5.20133">
        <ele>397</ele>
        <time>2022-11-17T10:14:11Z</time>
      </trkpt>
      <trkpt lat="44.66993" lon="5.20144">
        <ele>398</ele>
        <time>2022-11-17T10:14:11Z</time>
      </trkpt>
      <trkpt lat="44.66965" lon="5.20214">
        <ele>398</ele>
        <time>2022-11-17T10:14:11Z</time>
      </trkpt>
      <trkpt lat="44.668" lon="5.20418">
        <ele>405</ele>
        <time>2022-11-17T10:14:11Z</time>
      </trkpt>
      <trkpt lat="44.66629" lon="5.2053">
        <ele>414</ele>
        <time>2022-11-17T10:14:11Z</time>
      </trkpt>
      <trkpt lat="44.66619" lon="5.20549">
        <ele>418</ele>
        <time>2022-11-17T10:14:11Z</time>
      </trkpt>
      <trkpt lat="44.66598" lon="5.20614">
        <ele>421</ele>
        <time>2022-11-17T10:14:11Z</time>
      </trkpt>
      <trkpt lat="44.66591" lon="5.20616">
        <ele>422</ele>
        <time>2022-11-17T10:14:11Z</time>
      </trkpt>
      <trkpt lat="44.66585" lon="5.20603">
        <ele>424</ele>
        <time>2022-11-17T10:14:11Z</time>
      </trkpt>
      <trkpt lat="44.66585" lon="5.20593">
        <ele>425</ele>
        <time>2022-11-17T10:14:11Z</time>
      </trkpt>
      <trkpt lat="44.66597" lon="5.20539">
        <ele>426</ele>
        <time>2022-11-17T10:14:11Z</time>
      </trkpt>
      <trkpt lat="44.66598" lon="5.20521">
        <ele>427</ele>
        <time>2022-11-17T10:14:11Z</time>
      </trkpt>
      <trkpt lat="44.66588" lon="5.20492">
        <ele>429</ele>
        <time>2022-11-17T10:14:11Z</time>
      </trkpt>
      <trkpt lat="44.66578" lon="5.20425">
        <ele>433</ele>
        <time>2022-11-17T10:14:11Z</time>
      </trkpt>
      <trkpt lat="44.66579" lon="5.20413">
        <ele>435</ele>
        <time>2022-11-17T10:14:11Z</time>
      </trkpt>
      <trkpt lat="44.66582" lon="5.20401">
        <ele>437</ele>
        <time>2022-11-17T10:14:11Z</time>
      </trkpt>
      <trkpt lat="44.66583" lon="5.20369">
        <ele>439</ele>
        <time>2022-11-17T10:14:11Z</time>
      </trkpt>
      <trkpt lat="44.66551" lon="5.20297">
        <ele>444</ele>
        <time>2022-11-17T10:14:11Z</time>
      </trkpt>
      <trkpt lat="44.66552" lon="5.20231">
        <ele>449</ele>
        <time>2022-11-17T10:14:11Z</time>
      </trkpt>
      <trkpt lat="44.66547" lon="5.2022">
        <ele>453</ele>
        <time>2022-11-17T10:14:11Z</time>
      </trkpt>
      <trkpt lat="44.66545" lon="5.20164">
        <ele>459</ele>
        <time>2022-11-17T10:14:11Z</time>
      </trkpt>
      <trkpt lat="44.66486" lon="5.20069">
        <ele>468</ele>
        <time>2022-11-17T10:14:11Z</time>
      </trkpt>
      <trkpt lat="44.66476" lon="5.20025">
        <ele>476</ele>
        <time>2022-11-17T10:14:11Z</time>
      </trkpt>
      <trkpt lat="44.66452" lon="5.20009">
        <ele>483</ele>
        <time>2022-11-17T10:14:11Z</time>
      </trkpt>
      <trkpt lat="44.66305" lon="5.19756">
        <ele>511</ele>
        <time>2022-11-17T10:14:11Z</time>
      </trkpt>
      <trkpt lat="44.6629" lon="5.19673">
        <ele>529</ele>
        <time>2022-11-17T10:14:11Z</time>
      </trkpt>
      <trkpt lat="44.66289" lon="5.19601">
        <ele>540</ele>
        <time>2022-11-17T10:14:11Z</time>
      </trkpt>
      <trkpt lat="44.6625" lon="5.19402">
        <ele>558</ele>
        <time>2022-11-17T10:14:11Z</time>
      </trkpt>
      <trkpt lat="44.66216" lon="5.19313">
        <ele>573</ele>
        <time>2022-11-17T10:14:11Z</time>
      </trkpt>
      <trkpt lat="44.66266" lon="5.19271">
        <ele>583</ele>
        <time>2022-11-17T10:14:11Z</time>
      </trkpt>
      <trkpt lat="44.6628" lon="5.19272">
        <ele>589</ele>
        <time>2022-11-17T10:14:11Z</time>
      </trkpt>
      <trkpt lat="44.66289" lon="5.19276">
        <ele>593</ele>
        <time>2022-11-17T10:14:11Z</time>
      </trkpt>
      <trkpt lat="44.66354" lon="5.19384">
        <ele>599</ele>
        <time>2022-11-17T10:14:11Z</time>
      </trkpt>
      <trkpt lat="44.66372" lon="5.19437">
        <ele>604</ele>
        <time>2022-11-17T10:14:11Z</time>
      </trkpt>
      <trkpt lat="44.66378" lon="5.19443">
        <ele>607</ele>
        <time>2022-11-17T10:14:11Z</time>
      </trkpt>
      <trkpt lat="44.66381" lon="5.19432">
        <ele>610</ele>
        <time>2022-11-17T10:14:11Z</time>
      </trkpt>
      <trkpt lat="44.66375" lon="5.19413">
        <ele>612</ele>
        <time>2022-11-17T10:14:11Z</time>
      </trkpt>
      <trkpt lat="44.66373" lon="5.19354">
        <ele>632</ele>
        <time>2022-11-17T10:14:11Z</time>
      </trkpt>
      <trkpt lat="44.66378" lon="5.19328">
        <ele>633</ele>
        <time>2022-11-17T10:14:11Z</time>
      </trkpt>
      <trkpt lat="44.66355" lon="5.19165">
        <ele>636</ele>
        <time>2022-11-17T10:14:11Z</time>
      </trkpt>
      <trkpt lat="44.66327" lon="5.19095">
        <ele>638</ele>
        <time>2022-11-17T10:14:11Z</time>
      </trkpt>
      <trkpt lat="44.66312" lon="5.19081">
        <ele>639</ele>
        <time>2022-11-17T10:14:11Z</time>
      </trkpt>
      <trkpt lat="44.66304" lon="5.19065">
        <ele>640</ele>
        <time>2022-11-17T10:14:11Z</time>
      </trkpt>
      <trkpt lat="44.66302" lon="5.19049">
        <ele>641</ele>
        <time>2022-11-17T10:14:11Z</time>
      </trkpt>
      <trkpt lat="44.66309" lon="5.18892">
        <ele>640</ele>
        <time>2022-11-17T10:14:11Z</time>
      </trkpt>
      <trkpt lat="44.66314" lon="5.18878">
        <ele>639</ele>
        <time>2022-11-17T10:14:11Z</time>
      </trkpt>
      <trkpt lat="44.66345" lon="5.18836">
        <ele>638</ele>
        <time>2022-11-17T10:14:11Z</time>
      </trkpt>
      <trkpt lat="44.6635" lon="5.18825">
        <ele>636</ele>
        <time>2022-11-17T10:14:11Z</time>
      </trkpt>
      <trkpt lat="44.6634" lon="5.18755">
        <ele>638</ele>
        <time>2022-11-17T10:14:11Z</time>
      </trkpt>
      <trkpt lat="44.66341" lon="5.18745">
        <ele>639</ele>
        <time>2022-11-17T10:14:11Z</time>
      </trkpt>
      <trkpt lat="44.66345" lon="5.18735">
        <ele>639</ele>
        <time>2022-11-17T10:14:11Z</time>
      </trkpt>
      <trkpt lat="44.66344" lon="5.18719">
        <ele>639</ele>
        <time>2022-11-17T10:14:11Z</time>
      </trkpt>
      <trkpt lat="44.66323" lon="5.18648">
        <ele>641</ele>
        <time>2022-11-17T10:14:11Z</time>
      </trkpt>
      <trkpt lat="44.66318" lon="5.18639">
        <ele>643</ele>
        <time>2022-11-17T10:14:11Z</time>
      </trkpt>
      <trkpt lat="44.66298" lon="5.18631">
        <ele>645</ele>
        <time>2022-11-17T10:14:11Z</time>
      </trkpt>
      <trkpt lat="44.66292" lon="5.18626">
        <ele>647</ele>
        <time>2022-11-17T10:14:11Z</time>
      </trkpt>
      <trkpt lat="44.66288" lon="5.18607">
        <ele>648</ele>
        <time>2022-11-17T10:14:11Z</time>
      </trkpt>
      <trkpt lat="44.66289" lon="5.18592">
        <ele>650</ele>
        <time>2022-11-17T10:14:11Z</time>
      </trkpt>
      <trkpt lat="44.66306" lon="5.18542">
        <ele>652</ele>
        <time>2022-11-17T10:14:11Z</time>
      </trkpt>
      <trkpt lat="44.66316" lon="5.18531">
        <ele>654</ele>
        <time>2022-11-17T10:14:11Z</time>
      </trkpt>
      <trkpt lat="44.66325" lon="5.1851">
        <ele>656</ele>
        <time>2022-11-17T10:14:11Z</time>
      </trkpt>
      <trkpt lat="44.66321" lon="5.18501">
        <ele>658</ele>
        <time>2022-11-17T10:14:11Z</time>
      </trkpt>
      <trkpt lat="44.66253" lon="5.18531">
        <ele>662</ele>
        <time>2022-11-17T10:14:11Z</time>
      </trkpt>
      <trkpt lat="44.66249" lon="5.18521">
        <ele>665</ele>
        <time>2022-11-17T10:14:11Z</time>
      </trkpt>
      <trkpt lat="44.66256" lon="5.18513">
        <ele>667</ele>
        <time>2022-11-17T10:14:11Z</time>
      </trkpt>
      <trkpt lat="44.66266" lon="5.18505">
        <ele>668</ele>
        <time>2022-11-17T10:14:11Z</time>
      </trkpt>
      <trkpt lat="44.66276" lon="5.18493">
        <ele>670</ele>
        <time>2022-11-17T10:14:11Z</time>
      </trkpt>
      <trkpt lat="44.66284" lon="5.18458">
        <ele>672</ele>
        <time>2022-11-17T10:14:11Z</time>
      </trkpt>
      <trkpt lat="44.66293" lon="5.1844">
        <ele>674</ele>
        <time>2022-11-17T10:14:11Z</time>
      </trkpt>
      <trkpt lat="44.66353" lon="5.18379">
        <ele>678</ele>
        <time>2022-11-17T10:14:11Z</time>
      </trkpt>
      <trkpt lat="44.66385" lon="5.18368">
        <ele>682</ele>
        <time>2022-11-17T10:14:11Z</time>
      </trkpt>
      <trkpt lat="44.6639" lon="5.18355">
        <ele>684</ele>
        <time>2022-11-17T10:14:11Z</time>
      </trkpt>
      <trkpt lat="44.6641" lon="5.18348">
        <ele>686</ele>
        <time>2022-11-17T10:14:11Z</time>
      </trkpt>
      <trkpt lat="44.6642" lon="5.18349">
        <ele>687</ele>
        <time>2022-11-17T10:14:11Z</time>
      </trkpt>
      <trkpt lat="44.66544" lon="5.18422">
        <ele>685</ele>
        <time>2022-11-17T10:14:11Z</time>
      </trkpt>
      <trkpt lat="44.66567" lon="5.18456">
        <ele>684</ele>
        <time>2022-11-17T10:14:11Z</time>
      </trkpt>
      <trkpt lat="44.66655" lon="5.18517">
        <ele>674</ele>
        <time>2022-11-17T10:14:11Z</time>
      </trkpt>
      <trkpt lat="44.66687" lon="5.18566">
        <ele>665</ele>
        <time>2022-11-17T10:14:11Z</time>
      </trkpt>
      <trkpt lat="44.66703" lon="5.18577">
        <ele>657</ele>
        <time>2022-11-17T10:14:11Z</time>
      </trkpt>
      <trkpt lat="44.66733" lon="5.18586">
        <ele>650</ele>
        <time>2022-11-17T10:14:11Z</time>
      </trkpt>
      <trkpt lat="44.66746" lon="5.18584">
        <ele>645</ele>
        <time>2022-11-17T10:14:11Z</time>
      </trkpt>
      <trkpt lat="44.66785" lon="5.18598">
        <ele>640</ele>
        <time>2022-11-17T10:14:11Z</time>
      </trkpt>
      <trkpt lat="44.66825" lon="5.18599">
        <ele>633</ele>
        <time>2022-11-17T10:14:11Z</time>
      </trkpt>
      <trkpt lat="44.669" lon="5.18581">
        <ele>621</ele>
        <time>2022-11-17T10:14:11Z</time>
      </trkpt>
      <trkpt lat="44.66906" lon="5.18588">
        <ele>614</ele>
        <time>2022-11-17T10:14:11Z</time>
      </trkpt>
      <trkpt lat="44.66906" lon="5.18601">
        <ele>608</ele>
        <time>2022-11-17T10:14:11Z</time>
      </trkpt>
      <trkpt lat="44.66912" lon="5.18606">
        <ele>604</ele>
        <time>2022-11-17T10:14:11Z</time>
      </trkpt>
      <trkpt lat="44.66924" lon="5.18603">
        <ele>578</ele>
        <time>2022-11-17T10:14:11Z</time>
      </trkpt>
      <trkpt lat="44.66937" lon="5.18592">
        <ele>578</ele>
        <time>2022-11-17T10:14:11Z</time>
      </trkpt>
      <trkpt lat="44.66948" lon="5.18587">
        <ele>577</ele>
        <time>2022-11-17T10:14:11Z</time>
      </trkpt>
      <trkpt lat="44.66957" lon="5.18587">
        <ele>576</ele>
        <time>2022-11-17T10:14:11Z</time>
      </trkpt>
      <trkpt lat="44.66966" lon="5.18594">
        <ele>575</ele>
        <time>2022-11-17T10:14:11Z</time>
      </trkpt>
      <trkpt lat="44.66999" lon="5.18598">
        <ele>572</ele>
        <time>2022-11-17T10:14:11Z</time>
      </trkpt>
      <trkpt lat="44.6704" lon="5.18615">
        <ele>567</ele>
        <time>2022-11-17T10:14:11Z</time>
      </trkpt>
      <trkpt lat="44.67055" lon="5.18614">
        <ele>561</ele>
        <time>2022-11-17T10:14:11Z</time>
      </trkpt>
      <trkpt lat="44.67073" lon="5.18602">
        <ele>557</ele>
        <time>2022-11-17T10:14:11Z</time>
      </trkpt>
      <trkpt lat="44.67089" lon="5.18598">
        <ele>553</ele>
        <time>2022-11-17T10:14:11Z</time>
      </trkpt>
      <trkpt lat="44.67155" lon="5.18609">
        <ele>546</ele>
        <time>2022-11-17T10:14:11Z</time>
      </trkpt>
      <trkpt lat="44.67171" lon="5.18618">
        <ele>541</ele>
        <time>2022-11-17T10:14:11Z</time>
      </trkpt>
      <trkpt lat="44.672" lon="5.1862">
        <ele>536</ele>
        <time>2022-11-17T10:14:11Z</time>
      </trkpt>
      <trkpt lat="44.67218" lon="5.18601">
        <ele>532</ele>
        <time>2022-11-17T10:14:11Z</time>
      </trkpt>
      <trkpt lat="44.6723" lon="5.18594">
        <ele>529</ele>
        <time>2022-11-17T10:14:11Z</time>
      </trkpt>
      <trkpt lat="44.6724" lon="5.18597">
        <ele>526</ele>
        <time>2022-11-17T10:14:11Z</time>
      </trkpt>
      <trkpt lat="44.67263" lon="5.18617">
        <ele>524</ele>
        <time>2022-11-17T10:14:11Z</time>
      </trkpt>
      <trkpt lat="44.67274" lon="5.1862">
        <ele>522</ele>
        <time>2022-11-17T10:14:11Z</time>
      </trkpt>
      <trkpt lat="44.67274" lon="5.18636">
        <ele>521</ele>
        <time>2022-11-17T10:14:11Z</time>
      </trkpt>
      <trkpt lat="44.6729" lon="5.18707">
        <ele>518</ele>
        <time>2022-11-17T10:14:11Z</time>
      </trkpt>
      <trkpt lat="44.67295" lon="5.18715">
        <ele>516</ele>
        <time>2022-11-17T10:14:11Z</time>
      </trkpt>
      <trkpt lat="44.67301" lon="5.18721">
        <ele>514</ele>
        <time>2022-11-17T10:14:11Z</time>
      </trkpt>
      <trkpt lat="44.6747" lon="5.18773">
        <ele>507</ele>
        <time>2022-11-17T10:14:11Z</time>
      </trkpt>
      <trkpt lat="44.67514" lon="5.18753">
        <ele>502</ele>
        <time>2022-11-17T10:14:11Z</time>
      </trkpt>
      <trkpt lat="44.67722" lon="5.18748">
        <ele>488</ele>
        <time>2022-11-17T10:14:11Z</time>
      </trkpt>
      <trkpt lat="44.67742" lon="5.18755">
        <ele>481</ele>
        <time>2022-11-17T10:14:11Z</time>
      </trkpt>
      <trkpt lat="44.6777" lon="5.18778">
        <ele>475</ele>
        <time>2022-11-17T10:14:11Z</time>
      </trkpt>
      <trkpt lat="44.67802" lon="5.18779">
        <ele>471</ele>
        <time>2022-11-17T10:14:11Z</time>
      </trkpt>
      <trkpt lat="44.67848" lon="5.18763">
        <ele>469</ele>
        <time>2022-11-17T10:14:11Z</time>
      </trkpt>
      <trkpt lat="44.6786" lon="5.18768">
        <ele>468</ele>
        <time>2022-11-17T10:14:11Z</time>
      </trkpt>
      <trkpt lat="44.67877" lon="5.1879">
        <ele>467</ele>
        <time>2022-11-17T10:14:11Z</time>
      </trkpt>
      <trkpt lat="44.67884" lon="5.18792">
        <ele>466</ele>
        <time>2022-11-17T10:14:11Z</time>
      </trkpt>
      <trkpt lat="44.67928" lon="5.18837">
        <ele>464</ele>
        <time>2022-11-17T10:14:11Z</time>
      </trkpt>
      <trkpt lat="44.6798" lon="5.18868">
        <ele>463</ele>
        <time>2022-11-17T10:14:11Z</time>
      </trkpt>
      <trkpt lat="44.67998" lon="5.18871">
        <ele>461</ele>
        <time>2022-11-17T10:14:11Z</time>
      </trkpt>
      <trkpt lat="44.68009" lon="5.18867">
        <ele>460</ele>
        <time>2022-11-17T10:14:11Z</time>
      </trkpt>
      <trkpt lat="44.68065" lon="5.18869">
        <ele>458</ele>
        <time>2022-11-17T10:14:11Z</time>
      </trkpt>
      <trkpt lat="44.68151" lon="5.18911">
        <ele>457</ele>
        <time>2022-11-17T10:14:11Z</time>
      </trkpt>
      <trkpt lat="44.68159" lon="5.18904">
        <ele>456</ele>
        <time>2022-11-17T10:14:11Z</time>
      </trkpt>
      <trkpt lat="44.68163" lon="5.18891">
        <ele>455</ele>
        <time>2022-11-17T10:14:11Z</time>
      </trkpt>
      <trkpt lat="44.68172" lon="5.18882">
        <ele>453</ele>
        <time>2022-11-17T10:14:11Z</time>
      </trkpt>
      <trkpt lat="44.68185" lon="5.1888">
        <ele>452</ele>
        <time>2022-11-17T10:14:11Z</time>
      </trkpt>
      <trkpt lat="44.68295" lon="5.18899">
        <ele>451</ele>
        <time>2022-11-17T10:14:11Z</time>
      </trkpt>
      <trkpt lat="44.6831" lon="5.18912">
        <ele>450</ele>
        <time>2022-11-17T10:14:11Z</time>
      </trkpt>
      <trkpt lat="44.68329" lon="5.18944">
        <ele>449</ele>
        <time>2022-11-17T10:14:11Z</time>
      </trkpt>
      <trkpt lat="44.68338" lon="5.18952">
        <ele>448</ele>
        <time>2022-11-17T10:14:11Z</time>
      </trkpt>
      <trkpt lat="44.68382" lon="5.18971">
        <ele>446</ele>
        <time>2022-11-17T10:14:11Z</time>
      </trkpt>
      <trkpt lat="44.6839" lon="5.18984">
        <ele>444</ele>
        <time>2022-11-17T10:14:11Z</time>
      </trkpt>
      <trkpt lat="44.68394" lon="5.19039">
        <ele>442</ele>
        <time>2022-11-17T10:14:11Z</time>
      </trkpt>
      <trkpt lat="44.68406" lon="5.19067">
        <ele>439</ele>
        <time>2022-11-17T10:14:11Z</time>
      </trkpt>
      <trkpt lat="44.68451" lon="5.1912">
        <ele>424</ele>
        <time>2022-11-17T10:14:11Z</time>
      </trkpt>
      <trkpt lat="44.68461" lon="5.19126">
        <ele>423</ele>
        <time>2022-11-17T10:14:11Z</time>
      </trkpt>
      <trkpt lat="44.6848" lon="5.19122">
        <ele>422</ele>
        <time>2022-11-17T10:14:11Z</time>
      </trkpt>
      <trkpt lat="44.685" lon="5.19104">
        <ele>421</ele>
        <time>2022-11-17T10:14:11Z</time>
      </trkpt>
      <trkpt lat="44.68523" lon="5.19095">
        <ele>418</ele>
        <time>2022-11-17T10:14:11Z</time>
      </trkpt>
      <trkpt lat="44.68563" lon="5.19086">
        <ele>415</ele>
        <time>2022-11-17T10:14:11Z</time>
      </trkpt>
      <trkpt lat="44.68574" lon="5.19088">
        <ele>413</ele>
        <time>2022-11-17T10:14:11Z</time>
      </trkpt>
      <trkpt lat="44.68629" lon="5.19203">
        <ele>409</ele>
        <time>2022-11-17T10:14:11Z</time>
      </trkpt>
      <trkpt lat="44.687" lon="5.19252">
        <ele>401</ele>
        <time>2022-11-17T10:14:11Z</time>
      </trkpt>
      <trkpt lat="44.68725" lon="5.19248">
        <ele>396</ele>
        <time>2022-11-17T10:14:11Z</time>
      </trkpt>
      <trkpt lat="44.68736" lon="5.19251">
        <ele>392</ele>
        <time>2022-11-17T10:14:11Z</time>
      </trkpt>
      <trkpt lat="44.68806" lon="5.19317">
        <ele>385</ele>
        <time>2022-11-17T10:14:11Z</time>
      </trkpt>
      <trkpt lat="44.68883" lon="5.19358">
        <ele>377</ele>
        <time>2022-11-17T10:14:11Z</time>
      </trkpt>
      <trkpt lat="44.68921" lon="5.19397">
        <ele>371</ele>
        <time>2022-11-17T10:14:11Z</time>
      </trkpt>
      <trkpt lat="44.68918" lon="5.19406">
        <ele>367</ele>
        <time>2022-11-17T10:14:11Z</time>
      </trkpt>
      <trkpt lat="44.68939" lon="5.19431">
        <ele>363</ele>
        <time>2022-11-17T10:14:11Z</time>
      </trkpt>
      <trkpt lat="44.68953" lon="5.19466">
        <ele>359</ele>
        <time>2022-11-17T10:14:11Z</time>
      </trkpt>
      <trkpt lat="44.68984" lon="5.19501">
        <ele>355</ele>
        <time>2022-11-17T10:14:11Z</time>
      </trkpt>
      <trkpt lat="44.69001" lon="5.19507">
        <ele>351</ele>
        <time>2022-11-17T10:14:11Z</time>
      </trkpt>
      <trkpt lat="44.69003" lon="5.1953">
        <ele>348</ele>
        <time>2022-11-17T10:14:11Z</time>
      </trkpt>
      <trkpt lat="44.69011" lon="5.19545">
        <ele>345</ele>
        <time>2022-11-17T10:14:11Z</time>
      </trkpt>
      <trkpt lat="44.69033" lon="5.19564">
        <ele>342</ele>
        <time>2022-11-17T10:14:11Z</time>
      </trkpt>
      <trkpt lat="44.69054" lon="5.19565">
        <ele>338</ele>
        <time>2022-11-17T10:14:11Z</time>
      </trkpt>
      <trkpt lat="44.69061" lon="5.19578">
        <ele>336</ele>
        <time>2022-11-17T10:14:11Z</time>
      </trkpt>
      <trkpt lat="44.69146" lon="5.19639">
        <ele>330</ele>
        <time>2022-11-17T10:14:11Z</time>
      </trkpt>
      <trkpt lat="44.69153" lon="5.1965">
        <ele>327</ele>
        <time>2022-11-17T10:14:11Z</time>
      </trkpt>
      <trkpt lat="44.69161" lon="5.19678">
        <ele>324</ele>
        <time>2022-11-17T10:14:11Z</time>
      </trkpt>
      <trkpt lat="44.69181" lon="5.19639">
        <ele>320</ele>
        <time>2022-11-17T10:14:11Z</time>
      </trkpt>
      <trkpt lat="44.69212" lon="5.19625">
        <ele>316</ele>
        <time>2022-11-17T10:14:11Z</time>
      </trkpt>
      <trkpt lat="44.69411" lon="5.19624">
        <ele>307</ele>
        <time>2022-11-17T10:14:11Z</time>
      </trkpt>
      <trkpt lat="44.6945" lon="5.19702">
        <ele>298</ele>
        <time>2022-11-17T10:14:11Z</time>
      </trkpt>
      <trkpt lat="44.69478" lon="5.19856">
        <ele>292</ele>
        <time>2022-11-17T10:14:11Z</time>
      </trkpt>
      <trkpt lat="44.69479" lon="5.199">
        <ele>288</ele>
        <time>2022-11-17T10:14:11Z</time>
      </trkpt>
      <trkpt lat="44.69459" lon="5.19902">
        <ele>287</ele>
        <time>2022-11-17T10:14:11Z</time>
      </trkpt>
      <trkpt lat="44.69467" lon="5.1991">
        <ele>285</ele>
        <time>2022-11-17T10:14:11Z</time>
      </trkpt>
      <trkpt lat="44.69473" lon="5.19924">
        <ele>284</ele>
        <time>2022-11-17T10:14:11Z</time>
      </trkpt>
      <trkpt lat="44.69475" lon="5.19957">
        <ele>283</ele>
        <time>2022-11-17T10:14:11Z</time>
      </trkpt>
      <trkpt lat="44.69477" lon="5.19969">
        <ele>283</ele>
        <time>2022-11-17T10:14:11Z</time>
      </trkpt>
      <trkpt lat="44.6949" lon="5.19994">
        <ele>281</ele>
        <time>2022-11-17T10:14:11Z</time>
      </trkpt>
      <trkpt lat="44.695" lon="5.20007">
        <ele>280</ele>
        <time>2022-11-17T10:14:11Z</time>
      </trkpt>
      <trkpt lat="44.69512" lon="5.19897">
        <ele>277</ele>
        <time>2022-11-17T10:14:11Z</time>
      </trkpt>
      <trkpt lat="44.6951" lon="5.19738">
        <ele>273</ele>
        <time>2022-11-17T10:14:11Z</time>
      </trkpt>
      <trkpt lat="44.69519" lon="5.19715">
        <ele>270</ele>
        <time>2022-11-17T10:14:11Z</time>
      </trkpt>
      <trkpt lat="44.69649" lon="5.1971">
        <ele>268</ele>
        <time>2022-11-17T10:14:11Z</time>
      </trkpt>
      <trkpt lat="44.69654" lon="5.19726">
        <ele>267</ele>
        <time>2022-11-17T10:14:11Z</time>
      </trkpt>
      <trkpt lat="44.69663" lon="5.19726">
        <ele>267</ele>
        <time>2022-11-17T10:14:11Z</time>
      </trkpt>
      <trkpt lat="44.69676" lon="5.19864">
        <ele>267</ele>
        <time>2022-11-17T10:14:11Z</time>
      </trkpt>
      <trkpt lat="44.69675" lon="5.19878">
        <ele>268</ele>
        <time>2022-11-17T10:14:11Z</time>
      </trkpt>
      <trkpt lat="44.69684" lon="5.19882">
        <ele>268</ele>
        <time>2022-11-17T10:14:11Z</time>
      </trkpt>
      <trkpt lat="44.69692" lon="5.19891">
        <ele>268</ele>
        <time>2022-11-17T10:14:11Z</time>
      </trkpt>
      <trkpt lat="44.69689" lon="5.19956">
        <ele>268</ele>
        <time>2022-11-17T10:14:11Z</time>
        <extensions>
          <visugpx:TrkExtension xmlns:visugpx="https://www.visugpx.com/editgpx/">
            <visugpx:node>1</visugpx:node>
            </visugpx:TrkExtension>
        </extensions>
      </trkpt>
    </trkseg>
  </trk>
  <trk>
    <name><![CDATA[VTT N°7 rouge - Aubenasson Saint Sauveur - 25km - déniv 800m - VAE Vert]]></name>
    <extensions>
      <line xmlns="http://www.topografix.com/GPX/gpx_style/0/2">
        <color>f90025</color>
        <width>4</width>
      </line>
    </extensions>
    <trkseg>
      <trkpt lat="44.69709" lon="5.19975">
        <ele>325</ele>
        <time>2022-11-17T10:03:31Z</time>
      </trkpt>
      <trkpt lat="44.69687" lon="5.19981">
        <ele>322</ele>
        <time>2022-11-17T10:03:31Z</time>
      </trkpt>
      <trkpt lat="44.69681" lon="5.20013">
        <ele>322</ele>
        <time>2022-11-17T10:03:31Z</time>
      </trkpt>
      <trkpt lat="44.69679" lon="5.20145">
        <ele>318</ele>
        <time>2022-11-17T10:03:31Z</time>
      </trkpt>
      <trkpt lat="44.69696" lon="5.20286">
        <ele>316</ele>
        <time>2022-11-17T10:03:31Z</time>
      </trkpt>
      <trkpt lat="44.6964" lon="5.20374">
        <ele>305</ele>
        <time>2022-11-17T10:03:31Z</time>
      </trkpt>
      <trkpt lat="44.69626" lon="5.20399">
        <ele>326</ele>
        <time>2022-11-17T10:03:31Z</time>
      </trkpt>
      <trkpt lat="44.69603" lon="5.20415">
        <ele>326</ele>
        <time>2022-11-17T10:03:31Z</time>
      </trkpt>
      <trkpt lat="44.69582" lon="5.20426">
        <ele>324</ele>
        <time>2022-11-17T10:03:31Z</time>
      </trkpt>
      <trkpt lat="44.69403" lon="5.2052">
        <ele>322</ele>
        <time>2022-11-17T10:03:31Z</time>
      </trkpt>
      <trkpt lat="44.69306" lon="5.20525">
        <ele>323</ele>
        <time>2022-11-17T10:03:31Z</time>
      </trkpt>
      <trkpt lat="44.69307" lon="5.2049">
        <ele>323</ele>
        <time>2022-11-17T10:03:31Z</time>
      </trkpt>
      <trkpt lat="44.69336" lon="5.2043">
        <ele>324</ele>
        <time>2022-11-17T10:03:31Z</time>
      </trkpt>
      <trkpt lat="44.69473" lon="5.20103">
        <ele>324</ele>
        <time>2022-11-17T10:03:31Z</time>
      </trkpt>
      <trkpt lat="44.69496" lon="5.20092">
        <ele>325</ele>
        <time>2022-11-17T10:03:31Z</time>
      </trkpt>
      <trkpt lat="44.69509" lon="5.20061">
        <ele>327</ele>
        <time>2022-11-17T10:03:31Z</time>
      </trkpt>
      <trkpt lat="44.69505" lon="5.20028">
        <ele>328</ele>
        <time>2022-11-17T10:03:31Z</time>
      </trkpt>
      <trkpt lat="44.69477" lon="5.1997">
        <ele>329</ele>
        <time>2022-11-17T10:03:31Z</time>
      </trkpt>
      <trkpt lat="44.69473" lon="5.19932">
        <ele>327</ele>
        <time>2022-11-17T10:03:31Z</time>
      </trkpt>
      <trkpt lat="44.6946" lon="5.19901">
        <ele>327</ele>
        <time>2022-11-17T10:03:31Z</time>
      </trkpt>
      <trkpt lat="44.6937" lon="5.19853">
        <ele>331</ele>
        <time>2022-11-17T10:03:31Z</time>
      </trkpt>
      <trkpt lat="44.69347" lon="5.19848">
        <ele>333</ele>
        <time>2022-11-17T10:03:31Z</time>
      </trkpt>
      <trkpt lat="44.69324" lon="5.19847">
        <ele>335</ele>
        <time>2022-11-17T10:03:31Z</time>
      </trkpt>
      <trkpt lat="44.69278" lon="5.19844">
        <ele>338</ele>
        <time>2022-11-17T10:03:31Z</time>
      </trkpt>
      <trkpt lat="44.69252" lon="5.19842">
        <ele>340</ele>
        <time>2022-11-17T10:03:31Z</time>
      </trkpt>
      <trkpt lat="44.69227" lon="5.19841">
        <ele>342</ele>
        <time>2022-11-17T10:03:31Z</time>
      </trkpt>
      <trkpt lat="44.69031" lon="5.19825">
        <ele>349</ele>
        <time>2022-11-17T10:03:31Z</time>
      </trkpt>
      <trkpt lat="44.6901" lon="5.19812">
        <ele>350</ele>
        <time>2022-11-17T10:03:31Z</time>
      </trkpt>
      <trkpt lat="44.6894" lon="5.19809">
        <ele>352</ele>
        <time>2022-11-17T10:03:31Z</time>
      </trkpt>
      <trkpt lat="44.68821" lon="5.19774">
        <ele>357</ele>
        <time>2022-11-17T10:03:31Z</time>
      </trkpt>
      <trkpt lat="44.68796" lon="5.19767">
        <ele>359</ele>
        <time>2022-11-17T10:03:31Z</time>
      </trkpt>
      <trkpt lat="44.68773" lon="5.19756">
        <ele>362</ele>
        <time>2022-11-17T10:03:31Z</time>
      </trkpt>
      <trkpt lat="44.68751" lon="5.19746">
        <ele>364</ele>
        <time>2022-11-17T10:03:31Z</time>
      </trkpt>
      <trkpt lat="44.68705" lon="5.19727">
        <ele>367</ele>
        <time>2022-11-17T10:03:31Z</time>
      </trkpt>
      <trkpt lat="44.68606" lon="5.19702">
        <ele>369</ele>
        <time>2022-11-17T10:03:31Z</time>
      </trkpt>
      <trkpt lat="44.68297" lon="5.19612">
        <ele>377</ele>
        <time>2022-11-17T10:03:31Z</time>
      </trkpt>
      <trkpt lat="44.68178" lon="5.19577">
        <ele>381</ele>
        <time>2022-11-17T10:03:31Z</time>
      </trkpt>
      <trkpt lat="44.68044" lon="5.19501">
        <ele>385</ele>
        <time>2022-11-17T10:03:31Z</time>
      </trkpt>
      <trkpt lat="44.68" lon="5.19476">
        <ele>388</ele>
        <time>2022-11-17T10:03:31Z</time>
      </trkpt>
      <trkpt lat="44.6798" lon="5.1946">
        <ele>390</ele>
        <time>2022-11-17T10:03:31Z</time>
      </trkpt>
      <trkpt lat="44.67958" lon="5.19441">
        <ele>392</ele>
        <time>2022-11-17T10:03:31Z</time>
      </trkpt>
      <trkpt lat="44.67935" lon="5.19434">
        <ele>394</ele>
        <time>2022-11-17T10:03:31Z</time>
      </trkpt>
      <trkpt lat="44.67668" lon="5.19517">
        <ele>397</ele>
        <time>2022-11-17T10:03:31Z</time>
      </trkpt>
      <trkpt lat="44.67593" lon="5.19515">
        <ele>399</ele>
        <time>2022-11-17T10:03:31Z</time>
      </trkpt>
      <trkpt lat="44.67569" lon="5.19524">
        <ele>399</ele>
        <time>2022-11-17T10:03:31Z</time>
      </trkpt>
      <trkpt lat="44.67546" lon="5.19583">
        <ele>402</ele>
        <time>2022-11-17T10:03:31Z</time>
      </trkpt>
      <trkpt lat="44.67524" lon="5.19602">
        <ele>404</ele>
        <time>2022-11-17T10:03:31Z</time>
      </trkpt>
      <trkpt lat="44.67502" lon="5.19619">
        <ele>406</ele>
        <time>2022-11-17T10:03:31Z</time>
      </trkpt>
      <trkpt lat="44.67455" lon="5.1963">
        <ele>405</ele>
        <time>2022-11-17T10:03:31Z</time>
      </trkpt>
      <trkpt lat="44.6743" lon="5.19622">
        <ele>406</ele>
        <time>2022-11-17T10:03:31Z</time>
      </trkpt>
      <trkpt lat="44.67407" lon="5.19638">
        <ele>407</ele>
        <time>2022-11-17T10:03:31Z</time>
      </trkpt>
      <trkpt lat="44.6739" lon="5.19664">
        <ele>413</ele>
        <time>2022-11-17T10:03:31Z</time>
      </trkpt>
      <trkpt lat="44.67371" lon="5.19724">
        <ele>414</ele>
        <time>2022-11-17T10:03:31Z</time>
      </trkpt>
      <trkpt lat="44.67361" lon="5.19756">
        <ele>416</ele>
        <time>2022-11-17T10:03:31Z</time>
      </trkpt>
      <trkpt lat="44.67358" lon="5.1979">
        <ele>416</ele>
        <time>2022-11-17T10:03:31Z</time>
      </trkpt>
      <trkpt lat="44.67346" lon="5.19822">
        <ele>417</ele>
        <time>2022-11-17T10:03:31Z</time>
      </trkpt>
      <trkpt lat="44.67322" lon="5.19839">
        <ele>419</ele>
        <time>2022-11-17T10:03:31Z</time>
      </trkpt>
      <trkpt lat="44.67301" lon="5.19857">
        <ele>421</ele>
        <time>2022-11-17T10:03:31Z</time>
      </trkpt>
      <trkpt lat="44.67282" lon="5.19876">
        <ele>424</ele>
        <time>2022-11-17T10:03:31Z</time>
      </trkpt>
      <trkpt lat="44.67238" lon="5.19903">
        <ele>427</ele>
        <time>2022-11-17T10:03:31Z</time>
      </trkpt>
      <trkpt lat="44.67216" lon="5.19922">
        <ele>429</ele>
        <time>2022-11-17T10:03:31Z</time>
      </trkpt>
      <trkpt lat="44.67197" lon="5.19943">
        <ele>431</ele>
        <time>2022-11-17T10:03:31Z</time>
      </trkpt>
      <trkpt lat="44.67151" lon="5.19967">
        <ele>433</ele>
        <time>2022-11-17T10:03:31Z</time>
      </trkpt>
      <trkpt lat="44.6711" lon="5.2001">
        <ele>436</ele>
        <time>2022-11-17T10:03:31Z</time>
      </trkpt>
      <trkpt lat="44.67093" lon="5.20037">
        <ele>439</ele>
        <time>2022-11-17T10:03:31Z</time>
      </trkpt>
      <trkpt lat="44.67066" lon="5.20094">
        <ele>442</ele>
        <time>2022-11-17T10:03:31Z</time>
      </trkpt>
      <trkpt lat="44.66999" lon="5.20141">
        <ele>445</ele>
        <time>2022-11-17T10:03:31Z</time>
      </trkpt>
      <trkpt lat="44.66957" lon="5.2022">
        <ele>447</ele>
        <time>2022-11-17T10:03:31Z</time>
      </trkpt>
      <trkpt lat="44.66917" lon="5.20261">
        <ele>450</ele>
        <time>2022-11-17T10:03:31Z</time>
      </trkpt>
      <trkpt lat="44.66898" lon="5.20286">
        <ele>452</ele>
        <time>2022-11-17T10:03:31Z</time>
      </trkpt>
      <trkpt lat="44.66864" lon="5.20336">
        <ele>455</ele>
        <time>2022-11-17T10:03:31Z</time>
      </trkpt>
      <trkpt lat="44.66847" lon="5.20361">
        <ele>457</ele>
        <time>2022-11-17T10:03:31Z</time>
      </trkpt>
      <trkpt lat="44.66811" lon="5.20407">
        <ele>460</ele>
        <time>2022-11-17T10:03:31Z</time>
      </trkpt>
      <trkpt lat="44.6679" lon="5.20426">
        <ele>462</ele>
        <time>2022-11-17T10:03:31Z</time>
      </trkpt>
      <trkpt lat="44.66743" lon="5.20449">
        <ele>465</ele>
        <time>2022-11-17T10:03:31Z</time>
      </trkpt>
      <trkpt lat="44.66678" lon="5.20498">
        <ele>467</ele>
        <time>2022-11-17T10:03:31Z</time>
      </trkpt>
      <trkpt lat="44.66633" lon="5.20527">
        <ele>470</ele>
        <time>2022-11-17T10:03:31Z</time>
      </trkpt>
      <trkpt lat="44.66619" lon="5.20554">
        <ele>471</ele>
        <time>2022-11-17T10:03:31Z</time>
      </trkpt>
      <trkpt lat="44.66608" lon="5.20585">
        <ele>473</ele>
        <time>2022-11-17T10:03:31Z</time>
      </trkpt>
      <trkpt lat="44.66596" lon="5.20613">
        <ele>475</ele>
        <time>2022-11-17T10:03:31Z</time>
      </trkpt>
      <trkpt lat="44.66582" lon="5.20585">
        <ele>479</ele>
        <time>2022-11-17T10:03:31Z</time>
      </trkpt>
      <trkpt lat="44.66589" lon="5.20554">
        <ele>481</ele>
        <time>2022-11-17T10:03:31Z</time>
      </trkpt>
      <trkpt lat="44.66597" lon="5.20523">
        <ele>484</ele>
        <time>2022-11-17T10:03:31Z</time>
      </trkpt>
      <trkpt lat="44.66582" lon="5.20457">
        <ele>487</ele>
        <time>2022-11-17T10:03:31Z</time>
      </trkpt>
      <trkpt lat="44.66578" lon="5.20392">
        <ele>486</ele>
        <time>2022-11-17T10:03:31Z</time>
      </trkpt>
      <trkpt lat="44.66578" lon="5.2036">
        <ele>490</ele>
        <time>2022-11-17T10:03:31Z</time>
      </trkpt>
      <trkpt lat="44.6657" lon="5.2033">
        <ele>495</ele>
        <time>2022-11-17T10:03:31Z</time>
      </trkpt>
      <trkpt lat="44.66555" lon="5.20304">
        <ele>501</ele>
        <time>2022-11-17T10:03:31Z</time>
      </trkpt>
      <trkpt lat="44.66546" lon="5.20275">
        <ele>503</ele>
        <time>2022-11-17T10:03:31Z</time>
      </trkpt>
      <trkpt lat="44.66549" lon="5.20242">
        <ele>508</ele>
        <time>2022-11-17T10:03:31Z</time>
      </trkpt>
      <trkpt lat="44.66543" lon="5.2021">
        <ele>512</ele>
        <time>2022-11-17T10:03:31Z</time>
      </trkpt>
      <trkpt lat="44.66531" lon="5.20183">
        <ele>518</ele>
        <time>2022-11-17T10:03:31Z</time>
      </trkpt>
      <trkpt lat="44.66522" lon="5.20152">
        <ele>523</ele>
        <time>2022-11-17T10:03:31Z</time>
      </trkpt>
      <trkpt lat="44.66509" lon="5.20126">
        <ele>527</ele>
        <time>2022-11-17T10:03:31Z</time>
      </trkpt>
      <trkpt lat="44.66489" lon="5.20109">
        <ele>533</ele>
        <time>2022-11-17T10:03:31Z</time>
      </trkpt>
      <trkpt lat="44.66471" lon="5.20089">
        <ele>542</ele>
        <time>2022-11-17T10:03:31Z</time>
      </trkpt>
      <trkpt lat="44.6646" lon="5.2006">
        <ele>544</ele>
        <time>2022-11-17T10:03:31Z</time>
      </trkpt>
      <trkpt lat="44.66449" lon="5.19998">
        <ele>547</ele>
        <time>2022-11-17T10:03:31Z</time>
      </trkpt>
      <trkpt lat="44.66438" lon="5.19969">
        <ele>549</ele>
        <time>2022-11-17T10:03:31Z</time>
      </trkpt>
      <trkpt lat="44.66422" lon="5.19946">
        <ele>554</ele>
        <time>2022-11-17T10:03:31Z</time>
      </trkpt>
      <trkpt lat="44.66411" lon="5.19917">
        <ele>563</ele>
        <time>2022-11-17T10:03:31Z</time>
      </trkpt>
      <trkpt lat="44.66399" lon="5.19888">
        <ele>570</ele>
        <time>2022-11-17T10:03:31Z</time>
      </trkpt>
      <trkpt lat="44.66387" lon="5.19861">
        <ele>574</ele>
        <time>2022-11-17T10:03:31Z</time>
      </trkpt>
      <trkpt lat="44.66372" lon="5.19834">
        <ele>577</ele>
        <time>2022-11-17T10:03:31Z</time>
      </trkpt>
      <trkpt lat="44.66352" lon="5.19819">
        <ele>581</ele>
        <time>2022-11-17T10:03:31Z</time>
      </trkpt>
      <trkpt lat="44.66333" lon="5.19802">
        <ele>588</ele>
        <time>2022-11-17T10:03:31Z</time>
      </trkpt>
      <trkpt lat="44.66322" lon="5.19773">
        <ele>592</ele>
        <time>2022-11-17T10:03:31Z</time>
      </trkpt>
      <trkpt lat="44.66314" lon="5.19743">
        <ele>596</ele>
        <time>2022-11-17T10:03:31Z</time>
      </trkpt>
      <trkpt lat="44.66306" lon="5.19712">
        <ele>598</ele>
        <time>2022-11-17T10:03:31Z</time>
      </trkpt>
      <trkpt lat="44.66297" lon="5.19682">
        <ele>602</ele>
        <time>2022-11-17T10:03:31Z</time>
      </trkpt>
      <trkpt lat="44.66284" lon="5.19656">
        <ele>609</ele>
        <time>2022-11-17T10:03:31Z</time>
      </trkpt>
      <trkpt lat="44.66288" lon="5.19623">
        <ele>613</ele>
        <time>2022-11-17T10:03:31Z</time>
      </trkpt>
      <trkpt lat="44.66281" lon="5.19592">
        <ele>618</ele>
        <time>2022-11-17T10:03:31Z</time>
      </trkpt>
      <trkpt lat="44.66274" lon="5.19528">
        <ele>626</ele>
        <time>2022-11-17T10:03:31Z</time>
      </trkpt>
      <trkpt lat="44.66258" lon="5.19468">
        <ele>635</ele>
        <time>2022-11-17T10:03:31Z</time>
      </trkpt>
      <trkpt lat="44.66257" lon="5.19436">
        <ele>640</ele>
        <time>2022-11-17T10:03:31Z</time>
      </trkpt>
      <trkpt lat="44.6625" lon="5.19373">
        <ele>645</ele>
        <time>2022-11-17T10:03:31Z</time>
      </trkpt>
      <trkpt lat="44.66242" lon="5.19343">
        <ele>649</ele>
        <time>2022-11-17T10:03:31Z</time>
      </trkpt>
      <trkpt lat="44.66233" lon="5.19313">
        <ele>655</ele>
        <time>2022-11-17T10:03:31Z</time>
      </trkpt>
      <trkpt lat="44.66249" lon="5.19291">
        <ele>656</ele>
        <time>2022-11-17T10:03:31Z</time>
      </trkpt>
      <trkpt lat="44.66269" lon="5.19274">
        <ele>658</ele>
        <time>2022-11-17T10:03:31Z</time>
      </trkpt>
      <trkpt lat="44.66292" lon="5.19275">
        <ele>660</ele>
        <time>2022-11-17T10:03:31Z</time>
      </trkpt>
      <trkpt lat="44.66309" lon="5.19298">
        <ele>662</ele>
        <time>2022-11-17T10:03:31Z</time>
      </trkpt>
      <trkpt lat="44.66335" lon="5.19351">
        <ele>666</ele>
        <time>2022-11-17T10:03:31Z</time>
      </trkpt>
      <trkpt lat="44.66364" lon="5.194">
        <ele>672</ele>
        <time>2022-11-17T10:03:31Z</time>
      </trkpt>
      <trkpt lat="44.66373" lon="5.19429">
        <ele>673</ele>
        <time>2022-11-17T10:03:31Z</time>
      </trkpt>
      <trkpt lat="44.66377" lon="5.19396">
        <ele>679</ele>
        <time>2022-11-17T10:03:31Z</time>
      </trkpt>
      <trkpt lat="44.66375" lon="5.19363">
        <ele>684</ele>
        <time>2022-11-17T10:03:31Z</time>
      </trkpt>
      <trkpt lat="44.66382" lon="5.19332">
        <ele>687</ele>
        <time>2022-11-17T10:03:31Z</time>
      </trkpt>
      <trkpt lat="44.66377" lon="5.19299">
        <ele>691</ele>
        <time>2022-11-17T10:03:31Z</time>
      </trkpt>
      <trkpt lat="44.6637" lon="5.19267">
        <ele>695</ele>
        <time>2022-11-17T10:03:31Z</time>
      </trkpt>
      <trkpt lat="44.66366" lon="5.19235">
        <ele>697</ele>
        <time>2022-11-17T10:03:31Z</time>
      </trkpt>
      <trkpt lat="44.66362" lon="5.19202">
        <ele>700</ele>
        <time>2022-11-17T10:03:31Z</time>
      </trkpt>
      <trkpt lat="44.66358" lon="5.19171">
        <ele>702</ele>
        <time>2022-11-17T10:03:31Z</time>
      </trkpt>
      <trkpt lat="44.66337" lon="5.19108">
        <ele>701</ele>
        <time>2022-11-17T10:03:31Z</time>
      </trkpt>
      <trkpt lat="44.6632" lon="5.19082">
        <ele>698</ele>
        <time>2022-11-17T10:03:31Z</time>
      </trkpt>
      <trkpt lat="44.6631" lon="5.19049">
        <ele>697</ele>
        <time>2022-11-17T10:03:31Z</time>
      </trkpt>
      <trkpt lat="44.66316" lon="5.1901">
        <ele>692</ele>
        <time>2022-11-17T10:03:31Z</time>
      </trkpt>
      <trkpt lat="44.66317" lon="5.18971">
        <ele>689</ele>
        <time>2022-11-17T10:03:31Z</time>
      </trkpt>
      <trkpt lat="44.66318" lon="5.18897">
        <ele>686</ele>
        <time>2022-11-17T10:03:31Z</time>
      </trkpt>
      <trkpt lat="44.6635" lon="5.18846">
        <ele>685</ele>
        <time>2022-11-17T10:03:31Z</time>
      </trkpt>
      <trkpt lat="44.66354" lon="5.18812">
        <ele>685</ele>
        <time>2022-11-17T10:03:31Z</time>
      </trkpt>
      <trkpt lat="44.66345" lon="5.18781">
        <ele>685</ele>
        <time>2022-11-17T10:03:31Z</time>
      </trkpt>
      <trkpt lat="44.66344" lon="5.18749">
        <ele>686</ele>
        <time>2022-11-17T10:03:31Z</time>
      </trkpt>
      <trkpt lat="44.66346" lon="5.18717">
        <ele>690</ele>
        <time>2022-11-17T10:03:31Z</time>
      </trkpt>
      <trkpt lat="44.6634" lon="5.18686">
        <ele>693</ele>
        <time>2022-11-17T10:03:31Z</time>
      </trkpt>
      <trkpt lat="44.66329" lon="5.18657">
        <ele>695</ele>
        <time>2022-11-17T10:03:31Z</time>
      </trkpt>
      <trkpt lat="44.66312" lon="5.18634">
        <ele>700</ele>
        <time>2022-11-17T10:03:31Z</time>
      </trkpt>
      <trkpt lat="44.66296" lon="5.1861">
        <ele>707</ele>
        <time>2022-11-17T10:03:31Z</time>
      </trkpt>
      <trkpt lat="44.66302" lon="5.18578">
        <ele>711</ele>
        <time>2022-11-17T10:03:31Z</time>
      </trkpt>
      <trkpt lat="44.66313" lon="5.18548">
        <ele>713</ele>
        <time>2022-11-17T10:03:31Z</time>
      </trkpt>
      <trkpt lat="44.66328" lon="5.18523">
        <ele>715</ele>
        <time>2022-11-17T10:03:31Z</time>
      </trkpt>
      <trkpt lat="44.66308" lon="5.18507">
        <ele>719</ele>
        <time>2022-11-17T10:03:31Z</time>
      </trkpt>
      <trkpt lat="44.66285" lon="5.18516">
        <ele>720</ele>
        <time>2022-11-17T10:03:31Z</time>
      </trkpt>
      <trkpt lat="44.66263" lon="5.18525">
        <ele>723</ele>
        <time>2022-11-17T10:03:31Z</time>
      </trkpt>
      <trkpt lat="44.66276" lon="5.18498">
        <ele>729</ele>
        <time>2022-11-17T10:03:31Z</time>
      </trkpt>
      <trkpt lat="44.66288" lon="5.1847">
        <ele>731</ele>
        <time>2022-11-17T10:03:31Z</time>
      </trkpt>
      <trkpt lat="44.66299" lon="5.1844">
        <ele>735</ele>
        <time>2022-11-17T10:03:31Z</time>
      </trkpt>
      <trkpt lat="44.66315" lon="5.18417">
        <ele>736</ele>
        <time>2022-11-17T10:03:31Z</time>
      </trkpt>
      <trkpt lat="44.66335" lon="5.18399">
        <ele>740</ele>
        <time>2022-11-17T10:03:31Z</time>
      </trkpt>
      <trkpt lat="44.66354" lon="5.1838">
        <ele>745</ele>
        <time>2022-11-17T10:03:31Z</time>
      </trkpt>
      <trkpt lat="44.66378" lon="5.18371">
        <ele>747</ele>
        <time>2022-11-17T10:03:31Z</time>
      </trkpt>
      <trkpt lat="44.66396" lon="5.18352">
        <ele>749</ele>
        <time>2022-11-17T10:03:31Z</time>
      </trkpt>
      <trkpt lat="44.66393" lon="5.18317">
        <ele>752</ele>
        <time>2022-11-17T10:03:31Z</time>
      </trkpt>
      <trkpt lat="44.66376" lon="5.18293">
        <ele>752</ele>
        <time>2022-11-17T10:03:31Z</time>
      </trkpt>
      <trkpt lat="44.66333" lon="5.18259">
        <ele>755</ele>
        <time>2022-11-17T10:03:31Z</time>
      </trkpt>
      <trkpt lat="44.66317" lon="5.18233">
        <ele>756</ele>
        <time>2022-11-17T10:03:31Z</time>
      </trkpt>
      <trkpt lat="44.66295" lon="5.18176">
        <ele>758</ele>
        <time>2022-11-17T10:03:31Z</time>
      </trkpt>
      <trkpt lat="44.66278" lon="5.18149">
        <ele>757</ele>
        <time>2022-11-17T10:03:31Z</time>
      </trkpt>
      <trkpt lat="44.66259" lon="5.18131">
        <ele>757</ele>
        <time>2022-11-17T10:03:31Z</time>
      </trkpt>
      <trkpt lat="44.66237" lon="5.18122">
        <ele>759</ele>
        <time>2022-11-17T10:03:31Z</time>
      </trkpt>
      <trkpt lat="44.66223" lon="5.18096">
        <ele>761</ele>
        <time>2022-11-17T10:03:31Z</time>
      </trkpt>
      <trkpt lat="44.6619" lon="5.18051">
        <ele>765</ele>
        <time>2022-11-17T10:03:31Z</time>
      </trkpt>
      <trkpt lat="44.66192" lon="5.18018">
        <ele>766</ele>
        <time>2022-11-17T10:03:31Z</time>
      </trkpt>
      <trkpt lat="44.66191" lon="5.17986">
        <ele>769</ele>
        <time>2022-11-17T10:03:31Z</time>
      </trkpt>
      <trkpt lat="44.66209" lon="5.17964">
        <ele>770</ele>
        <time>2022-11-17T10:03:31Z</time>
      </trkpt>
      <trkpt lat="44.66217" lon="5.17933">
        <ele>772</ele>
        <time>2022-11-17T10:03:31Z</time>
      </trkpt>
      <trkpt lat="44.6626" lon="5.17904">
        <ele>773</ele>
        <time>2022-11-17T10:03:31Z</time>
      </trkpt>
      <trkpt lat="44.66277" lon="5.1788">
        <ele>775</ele>
        <time>2022-11-17T10:03:31Z</time>
      </trkpt>
      <trkpt lat="44.66283" lon="5.17845">
        <ele>779</ele>
        <time>2022-11-17T10:03:31Z</time>
      </trkpt>
      <trkpt lat="44.66316" lon="5.17798">
        <ele>781</ele>
        <time>2022-11-17T10:03:31Z</time>
      </trkpt>
      <trkpt lat="44.66332" lon="5.17774">
        <ele>783</ele>
        <time>2022-11-17T10:03:31Z</time>
      </trkpt>
      <trkpt lat="44.66332" lon="5.1774">
        <ele>787</ele>
        <time>2022-11-17T10:03:31Z</time>
      </trkpt>
      <trkpt lat="44.66318" lon="5.17713">
        <ele>790</ele>
        <time>2022-11-17T10:03:31Z</time>
      </trkpt>
      <trkpt lat="44.66319" lon="5.17681">
        <ele>791</ele>
        <time>2022-11-17T10:03:31Z</time>
      </trkpt>
      <trkpt lat="44.66342" lon="5.1767">
        <ele>792</ele>
        <time>2022-11-17T10:03:31Z</time>
      </trkpt>
      <trkpt lat="44.66364" lon="5.17655">
        <ele>794</ele>
        <time>2022-11-17T10:03:31Z</time>
      </trkpt>
      <trkpt lat="44.66379" lon="5.1763">
        <ele>795</ele>
        <time>2022-11-17T10:03:31Z</time>
      </trkpt>
      <trkpt lat="44.66378" lon="5.17599">
        <ele>799</ele>
        <time>2022-11-17T10:03:31Z</time>
      </trkpt>
      <trkpt lat="44.66359" lon="5.17578">
        <ele>796</ele>
        <time>2022-11-17T10:03:31Z</time>
      </trkpt>
      <trkpt lat="44.66363" lon="5.17545">
        <ele>796</ele>
        <time>2022-11-17T10:03:31Z</time>
      </trkpt>
      <trkpt lat="44.66392" lon="5.17452">
        <ele>795</ele>
        <time>2022-11-17T10:03:31Z</time>
      </trkpt>
      <trkpt lat="44.66401" lon="5.17419">
        <ele>792</ele>
        <time>2022-11-17T10:03:31Z</time>
      </trkpt>
      <trkpt lat="44.66408" lon="5.17389">
        <ele>788</ele>
        <time>2022-11-17T10:03:31Z</time>
      </trkpt>
      <trkpt lat="44.66395" lon="5.17361">
        <ele>786</ele>
        <time>2022-11-17T10:03:31Z</time>
      </trkpt>
      <trkpt lat="44.66409" lon="5.17279">
        <ele>785</ele>
        <time>2022-11-17T10:03:31Z</time>
      </trkpt>
      <trkpt lat="44.66416" lon="5.17179">
        <ele>780</ele>
        <time>2022-11-17T10:03:31Z</time>
      </trkpt>
      <trkpt lat="44.66407" lon="5.17147">
        <ele>780</ele>
        <time>2022-11-17T10:03:31Z</time>
      </trkpt>
      <trkpt lat="44.66385" lon="5.17131">
        <ele>780</ele>
        <time>2022-11-17T10:03:31Z</time>
      </trkpt>
      <trkpt lat="44.66388" lon="5.17096">
        <ele>781</ele>
        <time>2022-11-17T10:03:31Z</time>
      </trkpt>
      <trkpt lat="44.6645" lon="5.16984">
        <ele>781</ele>
        <time>2022-11-17T10:03:31Z</time>
      </trkpt>
      <trkpt lat="44.66471" lon="5.16963">
        <ele>778</ele>
        <time>2022-11-17T10:03:31Z</time>
      </trkpt>
      <trkpt lat="44.66491" lon="5.16948">
        <ele>774</ele>
        <time>2022-11-17T10:03:31Z</time>
      </trkpt>
      <trkpt lat="44.66513" lon="5.1693">
        <ele>771</ele>
        <time>2022-11-17T10:03:31Z</time>
      </trkpt>
      <trkpt lat="44.66544" lon="5.16877">
        <ele>767</ele>
        <time>2022-11-17T10:03:31Z</time>
      </trkpt>
      <trkpt lat="44.66558" lon="5.16848">
        <ele>765</ele>
        <time>2022-11-17T10:03:31Z</time>
      </trkpt>
      <trkpt lat="44.66566" lon="5.16817">
        <ele>764</ele>
        <time>2022-11-17T10:03:31Z</time>
      </trkpt>
      <trkpt lat="44.66562" lon="5.16784">
        <ele>760</ele>
        <time>2022-11-17T10:03:31Z</time>
      </trkpt>
      <trkpt lat="44.66561" lon="5.16749">
        <ele>758</ele>
        <time>2022-11-17T10:03:31Z</time>
      </trkpt>
      <trkpt lat="44.66562" lon="5.16709">
        <ele>755</ele>
        <time>2022-11-17T10:03:31Z</time>
      </trkpt>
      <trkpt lat="44.66568" lon="5.16673">
        <ele>753</ele>
        <time>2022-11-17T10:03:31Z</time>
      </trkpt>
      <trkpt lat="44.66574" lon="5.16641">
        <ele>751</ele>
        <time>2022-11-17T10:03:31Z</time>
      </trkpt>
      <trkpt lat="44.66577" lon="5.16606">
        <ele>749</ele>
        <time>2022-11-17T10:03:31Z</time>
      </trkpt>
      <trkpt lat="44.66581" lon="5.16569">
        <ele>747</ele>
        <time>2022-11-17T10:03:31Z</time>
      </trkpt>
      <trkpt lat="44.66576" lon="5.1653">
        <ele>746</ele>
        <time>2022-11-17T10:03:31Z</time>
      </trkpt>
      <trkpt lat="44.66581" lon="5.16496">
        <ele>745</ele>
        <time>2022-11-17T10:03:31Z</time>
      </trkpt>
      <trkpt lat="44.66593" lon="5.16466">
        <ele>744</ele>
        <time>2022-11-17T10:03:31Z</time>
      </trkpt>
      <trkpt lat="44.66605" lon="5.16436">
        <ele>742</ele>
        <time>2022-11-17T10:03:31Z</time>
      </trkpt>
      <trkpt lat="44.66612" lon="5.16404">
        <ele>741</ele>
        <time>2022-11-17T10:03:31Z</time>
      </trkpt>
      <trkpt lat="44.66617" lon="5.16372">
        <ele>738</ele>
        <time>2022-11-17T10:03:31Z</time>
      </trkpt>
      <trkpt lat="44.66618" lon="5.16304">
        <ele>734</ele>
        <time>2022-11-17T10:03:31Z</time>
      </trkpt>
      <trkpt lat="44.66626" lon="5.16271">
        <ele>731</ele>
        <time>2022-11-17T10:03:31Z</time>
      </trkpt>
      <trkpt lat="44.66672" lon="5.16155">
        <ele>731</ele>
        <time>2022-11-17T10:03:31Z</time>
      </trkpt>
      <trkpt lat="44.66683" lon="5.16126">
        <ele>733</ele>
        <time>2022-11-17T10:03:31Z</time>
      </trkpt>
      <trkpt lat="44.66687" lon="5.16095">
        <ele>731</ele>
        <time>2022-11-17T10:03:31Z</time>
      </trkpt>
      <trkpt lat="44.6668" lon="5.16064">
        <ele>731</ele>
        <time>2022-11-17T10:03:31Z</time>
      </trkpt>
      <trkpt lat="44.66678" lon="5.16028">
        <ele>732</ele>
        <time>2022-11-17T10:03:31Z</time>
      </trkpt>
      <trkpt lat="44.66685" lon="5.15998">
        <ele>729</ele>
        <time>2022-11-17T10:03:31Z</time>
      </trkpt>
      <trkpt lat="44.66688" lon="5.15965">
        <ele>727</ele>
        <time>2022-11-17T10:03:31Z</time>
      </trkpt>
      <trkpt lat="44.66677" lon="5.1593">
        <ele>725</ele>
        <time>2022-11-17T10:03:31Z</time>
      </trkpt>
      <trkpt lat="44.6666" lon="5.15906">
        <ele>724</ele>
        <time>2022-11-17T10:03:31Z</time>
      </trkpt>
      <trkpt lat="44.66644" lon="5.15879">
        <ele>722</ele>
        <time>2022-11-17T10:03:31Z</time>
      </trkpt>
      <trkpt lat="44.66623" lon="5.15814">
        <ele>719</ele>
        <time>2022-11-17T10:03:31Z</time>
      </trkpt>
      <trkpt lat="44.66632" lon="5.15715">
        <ele>718</ele>
        <time>2022-11-17T10:03:31Z</time>
      </trkpt>
      <trkpt lat="44.66623" lon="5.15685">
        <ele>719</ele>
        <time>2022-11-17T10:03:31Z</time>
      </trkpt>
      <trkpt lat="44.66628" lon="5.15653">
        <ele>720</ele>
        <time>2022-11-17T10:03:31Z</time>
      </trkpt>
      <trkpt lat="44.6664" lon="5.15624">
        <ele>724</ele>
        <time>2022-11-17T10:03:31Z</time>
      </trkpt>
      <trkpt lat="44.6666" lon="5.15603">
        <ele>728</ele>
        <time>2022-11-17T10:03:31Z</time>
      </trkpt>
      <trkpt lat="44.6668" lon="5.15584">
        <ele>731</ele>
        <time>2022-11-17T10:03:31Z</time>
      </trkpt>
      <trkpt lat="44.66703" lon="5.15574">
        <ele>722</ele>
        <time>2022-11-17T10:03:31Z</time>
      </trkpt>
      <trkpt lat="44.66729" lon="5.15558">
        <ele>715</ele>
        <time>2022-11-17T10:03:31Z</time>
      </trkpt>
      <trkpt lat="44.66751" lon="5.15541">
        <ele>718</ele>
        <time>2022-11-17T10:03:31Z</time>
      </trkpt>
      <trkpt lat="44.66773" lon="5.15529">
        <ele>722</ele>
        <time>2022-11-17T10:03:31Z</time>
      </trkpt>
      <trkpt lat="44.66792" lon="5.15504">
        <ele>722</ele>
        <time>2022-11-17T10:03:31Z</time>
      </trkpt>
      <trkpt lat="44.66798" lon="5.15472">
        <ele>720</ele>
        <time>2022-11-17T10:03:31Z</time>
      </trkpt>
      <trkpt lat="44.66809" lon="5.15441">
        <ele>717</ele>
        <time>2022-11-17T10:03:31Z</time>
      </trkpt>
      <trkpt lat="44.66825" lon="5.15409">
        <ele>712</ele>
        <time>2022-11-17T10:03:31Z</time>
      </trkpt>
      <trkpt lat="44.66841" lon="5.15382">
        <ele>706</ele>
        <time>2022-11-17T10:03:31Z</time>
      </trkpt>
      <trkpt lat="44.66833" lon="5.1535">
        <ele>702</ele>
        <time>2022-11-17T10:03:31Z</time>
      </trkpt>
      <trkpt lat="44.66828" lon="5.15311">
        <ele>693</ele>
        <time>2022-11-17T10:03:31Z</time>
      </trkpt>
      <trkpt lat="44.6682" lon="5.15272">
        <ele>689</ele>
        <time>2022-11-17T10:03:31Z</time>
      </trkpt>
      <trkpt lat="44.6681" lon="5.15239">
        <ele>687</ele>
        <time>2022-11-17T10:03:31Z</time>
      </trkpt>
      <trkpt lat="44.66816" lon="5.15201">
        <ele>682</ele>
        <time>2022-11-17T10:03:31Z</time>
      </trkpt>
      <trkpt lat="44.66812" lon="5.15168">
        <ele>681</ele>
        <time>2022-11-17T10:03:31Z</time>
      </trkpt>
      <trkpt lat="44.66797" lon="5.15138">
        <ele>678</ele>
        <time>2022-11-17T10:03:31Z</time>
      </trkpt>
      <trkpt lat="44.66781" lon="5.15114">
        <ele>676</ele>
        <time>2022-11-17T10:03:31Z</time>
      </trkpt>
      <trkpt lat="44.6676" lon="5.15092">
        <ele>671</ele>
        <time>2022-11-17T10:03:31Z</time>
      </trkpt>
      <trkpt lat="44.66745" lon="5.15062">
        <ele>668</ele>
        <time>2022-11-17T10:03:31Z</time>
      </trkpt>
      <trkpt lat="44.66742" lon="5.1503">
        <ele>664</ele>
        <time>2022-11-17T10:03:31Z</time>
      </trkpt>
      <trkpt lat="44.66747" lon="5.14959">
        <ele>659</ele>
        <time>2022-11-17T10:03:31Z</time>
      </trkpt>
      <trkpt lat="44.66759" lon="5.14927">
        <ele>655</ele>
        <time>2022-11-17T10:03:31Z</time>
      </trkpt>
      <trkpt lat="44.66777" lon="5.149">
        <ele>648</ele>
        <time>2022-11-17T10:03:31Z</time>
      </trkpt>
      <trkpt lat="44.6679" lon="5.14866">
        <ele>643</ele>
        <time>2022-11-17T10:03:31Z</time>
      </trkpt>
      <trkpt lat="44.6679" lon="5.14833">
        <ele>640</ele>
        <time>2022-11-17T10:03:31Z</time>
      </trkpt>
      <trkpt lat="44.66823" lon="5.14743">
        <ele>636</ele>
        <time>2022-11-17T10:03:31Z</time>
      </trkpt>
      <trkpt lat="44.66819" lon="5.1471">
        <ele>640</ele>
        <time>2022-11-17T10:03:31Z</time>
      </trkpt>
      <trkpt lat="44.66804" lon="5.14685">
        <ele>639</ele>
        <time>2022-11-17T10:03:31Z</time>
      </trkpt>
      <trkpt lat="44.66786" lon="5.14666">
        <ele>643</ele>
        <time>2022-11-17T10:03:31Z</time>
      </trkpt>
      <trkpt lat="44.66764" lon="5.1467">
        <ele>643</ele>
        <time>2022-11-17T10:03:31Z</time>
      </trkpt>
      <trkpt lat="44.66742" lon="5.14661">
        <ele>642</ele>
        <time>2022-11-17T10:03:31Z</time>
      </trkpt>
      <trkpt lat="44.66682" lon="5.14599">
        <ele>642</ele>
        <time>2022-11-17T10:03:31Z</time>
      </trkpt>
      <trkpt lat="44.66677" lon="5.14567">
        <ele>642</ele>
        <time>2022-11-17T10:03:31Z</time>
      </trkpt>
      <trkpt lat="44.66692" lon="5.14494">
        <ele>639</ele>
        <time>2022-11-17T10:03:31Z</time>
      </trkpt>
      <trkpt lat="44.66709" lon="5.14471">
        <ele>636</ele>
        <time>2022-11-17T10:03:31Z</time>
      </trkpt>
      <trkpt lat="44.66723" lon="5.145">
        <ele>633</ele>
        <time>2022-11-17T10:03:31Z</time>
      </trkpt>
      <trkpt lat="44.66731" lon="5.1453">
        <ele>629</ele>
        <time>2022-11-17T10:03:31Z</time>
      </trkpt>
      <trkpt lat="44.66747" lon="5.14556">
        <ele>625</ele>
        <time>2022-11-17T10:03:31Z</time>
      </trkpt>
      <trkpt lat="44.66759" lon="5.14525">
        <ele>621</ele>
        <time>2022-11-17T10:03:31Z</time>
      </trkpt>
      <trkpt lat="44.6676" lon="5.14492">
        <ele>617</ele>
        <time>2022-11-17T10:03:31Z</time>
      </trkpt>
      <trkpt lat="44.66764" lon="5.14456">
        <ele>615</ele>
        <time>2022-11-17T10:03:31Z</time>
      </trkpt>
      <trkpt lat="44.66808" lon="5.14324">
        <ele>611</ele>
        <time>2022-11-17T10:03:31Z</time>
      </trkpt>
      <trkpt lat="44.66825" lon="5.143">
        <ele>611</ele>
        <time>2022-11-17T10:03:31Z</time>
      </trkpt>
      <trkpt lat="44.66837" lon="5.14271">
        <ele>610</ele>
        <time>2022-11-17T10:03:31Z</time>
      </trkpt>
      <trkpt lat="44.66831" lon="5.14239">
        <ele>612</ele>
        <time>2022-11-17T10:03:31Z</time>
      </trkpt>
      <trkpt lat="44.66829" lon="5.14207">
        <ele>614</ele>
        <time>2022-11-17T10:03:31Z</time>
      </trkpt>
      <trkpt lat="44.66833" lon="5.14171">
        <ele>612</ele>
        <time>2022-11-17T10:03:31Z</time>
      </trkpt>
      <trkpt lat="44.66853" lon="5.14113">
        <ele>606</ele>
        <time>2022-11-17T10:03:31Z</time>
      </trkpt>
      <trkpt lat="44.66862" lon="5.14079">
        <ele>603</ele>
        <time>2022-11-17T10:03:31Z</time>
      </trkpt>
      <trkpt lat="44.6688" lon="5.14051">
        <ele>602</ele>
        <time>2022-11-17T10:03:31Z</time>
      </trkpt>
      <trkpt lat="44.669" lon="5.14033">
        <ele>602</ele>
        <time>2022-11-17T10:03:31Z</time>
      </trkpt>
      <trkpt lat="44.66894" lon="5.14066">
        <ele>597</ele>
        <time>2022-11-17T10:03:31Z</time>
      </trkpt>
      <trkpt lat="44.66916" lon="5.1408">
        <ele>593</ele>
        <time>2022-11-17T10:03:31Z</time>
      </trkpt>
      <trkpt lat="44.66963" lon="5.14094">
        <ele>592</ele>
        <time>2022-11-17T10:03:31Z</time>
      </trkpt>
      <trkpt lat="44.66985" lon="5.14082">
        <ele>591</ele>
        <time>2022-11-17T10:03:31Z</time>
      </trkpt>
      <trkpt lat="44.67051" lon="5.14042">
        <ele>587</ele>
        <time>2022-11-17T10:03:31Z</time>
      </trkpt>
      <trkpt lat="44.67098" lon="5.14019">
        <ele>583</ele>
        <time>2022-11-17T10:03:31Z</time>
      </trkpt>
      <trkpt lat="44.67119" lon="5.14002">
        <ele>577</ele>
        <time>2022-11-17T10:03:31Z</time>
      </trkpt>
      <trkpt lat="44.67129" lon="5.13974">
        <ele>575</ele>
        <time>2022-11-17T10:03:31Z</time>
      </trkpt>
      <trkpt lat="44.67152" lon="5.13966">
        <ele>582</ele>
        <time>2022-11-17T10:03:31Z</time>
      </trkpt>
      <trkpt lat="44.67168" lon="5.14025">
        <ele>581</ele>
        <time>2022-11-17T10:03:31Z</time>
      </trkpt>
      <trkpt lat="44.6718" lon="5.14058">
        <ele>578</ele>
        <time>2022-11-17T10:03:31Z</time>
      </trkpt>
      <trkpt lat="44.67189" lon="5.14088">
        <ele>575</ele>
        <time>2022-11-17T10:03:31Z</time>
      </trkpt>
      <trkpt lat="44.67187" lon="5.14121">
        <ele>572</ele>
        <time>2022-11-17T10:03:31Z</time>
      </trkpt>
      <trkpt lat="44.67149" lon="5.14162">
        <ele>569</ele>
        <time>2022-11-17T10:03:31Z</time>
      </trkpt>
      <trkpt lat="44.67137" lon="5.14196">
        <ele>566</ele>
        <time>2022-11-17T10:03:31Z</time>
      </trkpt>
      <trkpt lat="44.67144" lon="5.1423">
        <ele>563</ele>
        <time>2022-11-17T10:03:31Z</time>
      </trkpt>
      <trkpt lat="44.67196" lon="5.14293">
        <ele>557</ele>
        <time>2022-11-17T10:03:31Z</time>
      </trkpt>
      <trkpt lat="44.67217" lon="5.14306">
        <ele>553</ele>
        <time>2022-11-17T10:03:31Z</time>
      </trkpt>
      <trkpt lat="44.67235" lon="5.14328">
        <ele>548</ele>
        <time>2022-11-17T10:03:31Z</time>
      </trkpt>
      <trkpt lat="44.67249" lon="5.14355">
        <ele>543</ele>
        <time>2022-11-17T10:03:31Z</time>
      </trkpt>
      <trkpt lat="44.67266" lon="5.14379">
        <ele>538</ele>
        <time>2022-11-17T10:03:31Z</time>
      </trkpt>
      <trkpt lat="44.67283" lon="5.144">
        <ele>534</ele>
        <time>2022-11-17T10:03:31Z</time>
      </trkpt>
      <trkpt lat="44.67305" lon="5.14408">
        <ele>525</ele>
        <time>2022-11-17T10:03:31Z</time>
      </trkpt>
      <trkpt lat="44.67329" lon="5.14403">
        <ele>514</ele>
        <time>2022-11-17T10:03:31Z</time>
      </trkpt>
      <trkpt lat="44.67349" lon="5.14384">
        <ele>508</ele>
        <time>2022-11-17T10:03:31Z</time>
      </trkpt>
      <trkpt lat="44.67373" lon="5.14386">
        <ele>499</ele>
        <time>2022-11-17T10:03:31Z</time>
      </trkpt>
      <trkpt lat="44.67396" lon="5.14379">
        <ele>489</ele>
        <time>2022-11-17T10:03:31Z</time>
      </trkpt>
      <trkpt lat="44.67418" lon="5.14394">
        <ele>474</ele>
        <time>2022-11-17T10:03:31Z</time>
      </trkpt>
      <trkpt lat="44.67418" lon="5.14426">
        <ele>468</ele>
        <time>2022-11-17T10:03:31Z</time>
      </trkpt>
      <trkpt lat="44.67441" lon="5.14415">
        <ele>459</ele>
        <time>2022-11-17T10:03:31Z</time>
      </trkpt>
      <trkpt lat="44.67456" lon="5.14389">
        <ele>458</ele>
        <time>2022-11-17T10:03:31Z</time>
      </trkpt>
      <trkpt lat="44.67469" lon="5.14358">
        <ele>454</ele>
        <time>2022-11-17T10:03:31Z</time>
      </trkpt>
      <trkpt lat="44.67491" lon="5.14341">
        <ele>450</ele>
        <time>2022-11-17T10:03:31Z</time>
      </trkpt>
      <trkpt lat="44.67511" lon="5.14323">
        <ele>447</ele>
        <time>2022-11-17T10:03:31Z</time>
      </trkpt>
      <trkpt lat="44.67534" lon="5.14304">
        <ele>440</ele>
        <time>2022-11-17T10:03:31Z</time>
      </trkpt>
      <trkpt lat="44.67557" lon="5.14289">
        <ele>436</ele>
        <time>2022-11-17T10:03:31Z</time>
      </trkpt>
      <trkpt lat="44.67576" lon="5.14271">
        <ele>433</ele>
        <time>2022-11-17T10:03:31Z</time>
      </trkpt>
      <trkpt lat="44.67597" lon="5.14257">
        <ele>431</ele>
        <time>2022-11-17T10:03:31Z</time>
      </trkpt>
      <trkpt lat="44.6762" lon="5.14238">
        <ele>428</ele>
        <time>2022-11-17T10:03:31Z</time>
      </trkpt>
      <trkpt lat="44.67641" lon="5.14217">
        <ele>425</ele>
        <time>2022-11-17T10:03:31Z</time>
      </trkpt>
      <trkpt lat="44.6766" lon="5.14191">
        <ele>421</ele>
        <time>2022-11-17T10:03:31Z</time>
      </trkpt>
      <trkpt lat="44.67679" lon="5.14164">
        <ele>419</ele>
        <time>2022-11-17T10:03:31Z</time>
      </trkpt>
      <trkpt lat="44.67696" lon="5.1414">
        <ele>417</ele>
        <time>2022-11-17T10:03:31Z</time>
      </trkpt>
      <trkpt lat="44.67712" lon="5.14109">
        <ele>414</ele>
        <time>2022-11-17T10:03:31Z</time>
      </trkpt>
      <trkpt lat="44.67728" lon="5.14079">
        <ele>410</ele>
        <time>2022-11-17T10:03:31Z</time>
      </trkpt>
      <trkpt lat="44.67746" lon="5.1406">
        <ele>408</ele>
        <time>2022-11-17T10:03:31Z</time>
      </trkpt>
      <trkpt lat="44.67772" lon="5.14049">
        <ele>406</ele>
        <time>2022-11-17T10:03:31Z</time>
      </trkpt>
      <trkpt lat="44.67798" lon="5.14048">
        <ele>403</ele>
        <time>2022-11-17T10:03:31Z</time>
      </trkpt>
      <trkpt lat="44.67821" lon="5.14038">
        <ele>400</ele>
        <time>2022-11-17T10:03:31Z</time>
      </trkpt>
      <trkpt lat="44.67842" lon="5.14028">
        <ele>398</ele>
        <time>2022-11-17T10:03:31Z</time>
      </trkpt>
      <trkpt lat="44.67864" lon="5.14018">
        <ele>396</ele>
        <time>2022-11-17T10:03:31Z</time>
      </trkpt>
      <trkpt lat="44.6789" lon="5.14009">
        <ele>393</ele>
        <time>2022-11-17T10:03:31Z</time>
      </trkpt>
      <trkpt lat="44.67911" lon="5.13988">
        <ele>389</ele>
        <time>2022-11-17T10:03:31Z</time>
      </trkpt>
      <trkpt lat="44.67936" lon="5.13972">
        <ele>387</ele>
        <time>2022-11-17T10:03:31Z</time>
      </trkpt>
      <trkpt lat="44.68074" lon="5.13889">
        <ele>379</ele>
        <time>2022-11-17T10:03:31Z</time>
      </trkpt>
      <trkpt lat="44.68101" lon="5.13893">
        <ele>378</ele>
        <time>2022-11-17T10:03:31Z</time>
      </trkpt>
      <trkpt lat="44.68125" lon="5.13897">
        <ele>375</ele>
        <time>2022-11-17T10:03:31Z</time>
      </trkpt>
      <trkpt lat="44.68147" lon="5.13904">
        <ele>373</ele>
        <time>2022-11-17T10:03:31Z</time>
      </trkpt>
      <trkpt lat="44.68172" lon="5.13909">
        <ele>370</ele>
        <time>2022-11-17T10:03:31Z</time>
      </trkpt>
      <trkpt lat="44.68198" lon="5.13908">
        <ele>368</ele>
        <time>2022-11-17T10:03:31Z</time>
      </trkpt>
      <trkpt lat="44.68217" lon="5.13929">
        <ele>366</ele>
        <time>2022-11-17T10:03:31Z</time>
      </trkpt>
      <trkpt lat="44.68238" lon="5.13942">
        <ele>363</ele>
        <time>2022-11-17T10:03:31Z</time>
      </trkpt>
      <trkpt lat="44.68263" lon="5.13929">
        <ele>360</ele>
        <time>2022-11-17T10:03:31Z</time>
      </trkpt>
      <trkpt lat="44.68285" lon="5.13949">
        <ele>358</ele>
        <time>2022-11-17T10:03:31Z</time>
      </trkpt>
      <trkpt lat="44.68297" lon="5.13977">
        <ele>356</ele>
        <time>2022-11-17T10:03:31Z</time>
      </trkpt>
      <trkpt lat="44.68318" lon="5.1399">
        <ele>353</ele>
        <time>2022-11-17T10:03:31Z</time>
      </trkpt>
      <trkpt lat="44.68367" lon="5.13991">
        <ele>351</ele>
        <time>2022-11-17T10:03:31Z</time>
      </trkpt>
      <trkpt lat="44.68391" lon="5.14003">
        <ele>351</ele>
        <time>2022-11-17T10:03:31Z</time>
      </trkpt>
      <trkpt lat="44.68412" lon="5.14014">
        <ele>353</ele>
        <time>2022-11-17T10:03:31Z</time>
      </trkpt>
      <trkpt lat="44.68434" lon="5.14026">
        <ele>355</ele>
        <time>2022-11-17T10:03:31Z</time>
      </trkpt>
      <trkpt lat="44.68508" lon="5.14038">
        <ele>358</ele>
        <time>2022-11-17T10:03:31Z</time>
      </trkpt>
      <trkpt lat="44.68534" lon="5.14034">
        <ele>359</ele>
        <time>2022-11-17T10:03:31Z</time>
      </trkpt>
      <trkpt lat="44.68585" lon="5.14028">
        <ele>355</ele>
        <time>2022-11-17T10:03:31Z</time>
      </trkpt>
      <trkpt lat="44.6861" lon="5.1404">
        <ele>353</ele>
        <time>2022-11-17T10:03:31Z</time>
      </trkpt>
      <trkpt lat="44.688" lon="5.14095">
        <ele>352</ele>
        <time>2022-11-17T10:03:31Z</time>
      </trkpt>
      <trkpt lat="44.68778" lon="5.14105">
        <ele>356</ele>
        <time>2022-11-17T10:03:31Z</time>
      </trkpt>
      <trkpt lat="44.68706" lon="5.141">
        <ele>358</ele>
        <time>2022-11-17T10:03:31Z</time>
      </trkpt>
      <trkpt lat="44.68684" lon="5.14113">
        <ele>362</ele>
        <time>2022-11-17T10:03:31Z</time>
      </trkpt>
      <trkpt lat="44.6867" lon="5.14142">
        <ele>363</ele>
        <time>2022-11-17T10:03:31Z</time>
      </trkpt>
      <trkpt lat="44.68649" lon="5.14159">
        <ele>368</ele>
        <time>2022-11-17T10:03:31Z</time>
      </trkpt>
      <trkpt lat="44.68626" lon="5.14166">
        <ele>371</ele>
        <time>2022-11-17T10:03:31Z</time>
      </trkpt>
      <trkpt lat="44.68603" lon="5.14176">
        <ele>377</ele>
        <time>2022-11-17T10:03:31Z</time>
      </trkpt>
      <trkpt lat="44.68581" lon="5.14187">
        <ele>381</ele>
        <time>2022-11-17T10:03:31Z</time>
      </trkpt>
      <trkpt lat="44.68516" lon="5.14237">
        <ele>385</ele>
        <time>2022-11-17T10:03:31Z</time>
      </trkpt>
      <trkpt lat="44.68462" lon="5.14309">
        <ele>383</ele>
        <time>2022-11-17T10:03:31Z</time>
      </trkpt>
      <trkpt lat="44.68439" lon="5.14365">
        <ele>383</ele>
        <time>2022-11-17T10:03:31Z</time>
      </trkpt>
      <trkpt lat="44.68421" lon="5.1439">
        <ele>382</ele>
        <time>2022-11-17T10:03:31Z</time>
      </trkpt>
      <trkpt lat="44.68401" lon="5.14412">
        <ele>380</ele>
        <time>2022-11-17T10:03:31Z</time>
      </trkpt>
      <trkpt lat="44.68402" lon="5.14446">
        <ele>380</ele>
        <time>2022-11-17T10:03:31Z</time>
      </trkpt>
      <trkpt lat="44.6839" lon="5.14476">
        <ele>378</ele>
        <time>2022-11-17T10:03:31Z</time>
      </trkpt>
      <trkpt lat="44.68364" lon="5.14484">
        <ele>378</ele>
        <time>2022-11-17T10:03:31Z</time>
      </trkpt>
      <trkpt lat="44.68348" lon="5.14509">
        <ele>378</ele>
        <time>2022-11-17T10:03:31Z</time>
      </trkpt>
      <trkpt lat="44.68347" lon="5.14544">
        <ele>379</ele>
        <time>2022-11-17T10:03:31Z</time>
      </trkpt>
      <trkpt lat="44.68333" lon="5.1457">
        <ele>381</ele>
        <time>2022-11-17T10:03:31Z</time>
      </trkpt>
      <trkpt lat="44.68328" lon="5.14605">
        <ele>384</ele>
        <time>2022-11-17T10:03:31Z</time>
      </trkpt>
      <trkpt lat="44.68324" lon="5.14637">
        <ele>388</ele>
        <time>2022-11-17T10:03:31Z</time>
      </trkpt>
      <trkpt lat="44.68316" lon="5.14668">
        <ele>390</ele>
        <time>2022-11-17T10:03:31Z</time>
      </trkpt>
      <trkpt lat="44.68312" lon="5.14702">
        <ele>393</ele>
        <time>2022-11-17T10:03:31Z</time>
      </trkpt>
      <trkpt lat="44.68298" lon="5.14731">
        <ele>395</ele>
        <time>2022-11-17T10:03:31Z</time>
      </trkpt>
      <trkpt lat="44.68275" lon="5.14742">
        <ele>397</ele>
        <time>2022-11-17T10:03:31Z</time>
      </trkpt>
      <trkpt lat="44.68265" lon="5.14772">
        <ele>397</ele>
        <time>2022-11-17T10:03:31Z</time>
      </trkpt>
      <trkpt lat="44.68267" lon="5.14842">
        <ele>398</ele>
        <time>2022-11-17T10:03:31Z</time>
      </trkpt>
      <trkpt lat="44.68268" lon="5.14875">
        <ele>401</ele>
        <time>2022-11-17T10:03:31Z</time>
      </trkpt>
      <trkpt lat="44.6829" lon="5.14935">
        <ele>401</ele>
        <time>2022-11-17T10:03:31Z</time>
      </trkpt>
      <trkpt lat="44.68293" lon="5.14971">
        <ele>400</ele>
        <time>2022-11-17T10:03:31Z</time>
      </trkpt>
      <trkpt lat="44.68281" lon="5.14999">
        <ele>401</ele>
        <time>2022-11-17T10:03:31Z</time>
      </trkpt>
      <trkpt lat="44.68237" lon="5.15075">
        <ele>403</ele>
        <time>2022-11-17T10:03:31Z</time>
      </trkpt>
      <trkpt lat="44.68214" lon="5.15086">
        <ele>403</ele>
        <time>2022-11-17T10:03:31Z</time>
      </trkpt>
      <trkpt lat="44.68191" lon="5.1509">
        <ele>401</ele>
        <time>2022-11-17T10:03:31Z</time>
      </trkpt>
      <trkpt lat="44.68169" lon="5.15075">
        <ele>398</ele>
        <time>2022-11-17T10:03:31Z</time>
      </trkpt>
      <trkpt lat="44.68141" lon="5.15075">
        <ele>397</ele>
        <time>2022-11-17T10:03:31Z</time>
      </trkpt>
      <trkpt lat="44.68096" lon="5.15098">
        <ele>397</ele>
        <time>2022-11-17T10:03:31Z</time>
      </trkpt>
      <trkpt lat="44.68085" lon="5.1513">
        <ele>397</ele>
        <time>2022-11-17T10:03:31Z</time>
      </trkpt>
      <trkpt lat="44.68061" lon="5.15142">
        <ele>400</ele>
        <time>2022-11-17T10:03:31Z</time>
      </trkpt>
      <trkpt lat="44.68014" lon="5.15162">
        <ele>404</ele>
        <time>2022-11-17T10:03:31Z</time>
      </trkpt>
      <trkpt lat="44.67991" lon="5.15172">
        <ele>408</ele>
        <time>2022-11-17T10:03:31Z</time>
      </trkpt>
      <trkpt lat="44.67943" lon="5.15174">
        <ele>411</ele>
        <time>2022-11-17T10:03:31Z</time>
      </trkpt>
      <trkpt lat="44.67895" lon="5.15177">
        <ele>413</ele>
        <time>2022-11-17T10:03:31Z</time>
      </trkpt>
      <trkpt lat="44.67874" lon="5.15188">
        <ele>414</ele>
        <time>2022-11-17T10:03:31Z</time>
      </trkpt>
      <trkpt lat="44.67852" lon="5.15209">
        <ele>414</ele>
        <time>2022-11-17T10:03:31Z</time>
      </trkpt>
      <trkpt lat="44.67829" lon="5.15216">
        <ele>413</ele>
        <time>2022-11-17T10:03:31Z</time>
      </trkpt>
      <trkpt lat="44.67838" lon="5.15275">
        <ele>415</ele>
        <time>2022-11-17T10:03:31Z</time>
      </trkpt>
      <trkpt lat="44.67926" lon="5.15318">
        <ele>418</ele>
        <time>2022-11-17T10:03:31Z</time>
      </trkpt>
      <trkpt lat="44.6795" lon="5.15317">
        <ele>419</ele>
        <time>2022-11-17T10:03:32Z</time>
      </trkpt>
      <trkpt lat="44.67975" lon="5.15327">
        <ele>419</ele>
        <time>2022-11-17T10:03:32Z</time>
      </trkpt>
      <trkpt lat="44.6798" lon="5.15358">
        <ele>416</ele>
        <time>2022-11-17T10:03:32Z</time>
      </trkpt>
      <trkpt lat="44.67969" lon="5.15427">
        <ele>415</ele>
        <time>2022-11-17T10:03:32Z</time>
      </trkpt>
      <trkpt lat="44.67986" lon="5.15446">
        <ele>416</ele>
        <time>2022-11-17T10:03:32Z</time>
      </trkpt>
      <trkpt lat="44.68008" lon="5.15462">
        <ele>417</ele>
        <time>2022-11-17T10:03:32Z</time>
      </trkpt>
      <trkpt lat="44.68039" lon="5.1551">
        <ele>418</ele>
        <time>2022-11-17T10:03:32Z</time>
      </trkpt>
      <trkpt lat="44.68074" lon="5.15592">
        <ele>421</ele>
        <time>2022-11-17T10:03:32Z</time>
      </trkpt>
      <trkpt lat="44.68086" lon="5.15619">
        <ele>424</ele>
        <time>2022-11-17T10:03:32Z</time>
      </trkpt>
      <trkpt lat="44.6808" lon="5.15651">
        <ele>428</ele>
        <time>2022-11-17T10:03:32Z</time>
      </trkpt>
      <trkpt lat="44.68059" lon="5.15666">
        <ele>434</ele>
        <time>2022-11-17T10:03:32Z</time>
      </trkpt>
      <trkpt lat="44.68038" lon="5.15684">
        <ele>436</ele>
        <time>2022-11-17T10:03:32Z</time>
      </trkpt>
      <trkpt lat="44.68016" lon="5.15697">
        <ele>440</ele>
        <time>2022-11-17T10:03:32Z</time>
      </trkpt>
      <trkpt lat="44.67953" lon="5.1573">
        <ele>443</ele>
        <time>2022-11-17T10:03:32Z</time>
      </trkpt>
      <trkpt lat="44.67864" lon="5.15775">
        <ele>449</ele>
        <time>2022-11-17T10:03:32Z</time>
      </trkpt>
      <trkpt lat="44.67838" lon="5.15777">
        <ele>447</ele>
        <time>2022-11-17T10:03:32Z</time>
      </trkpt>
      <trkpt lat="44.6781" lon="5.15777">
        <ele>443</ele>
        <time>2022-11-17T10:03:32Z</time>
      </trkpt>
      <trkpt lat="44.67789" lon="5.15792">
        <ele>442</ele>
        <time>2022-11-17T10:03:32Z</time>
      </trkpt>
      <trkpt lat="44.67767" lon="5.1582">
        <ele>441</ele>
        <time>2022-11-17T10:03:32Z</time>
      </trkpt>
      <trkpt lat="44.67757" lon="5.15856">
        <ele>440</ele>
        <time>2022-11-17T10:03:32Z</time>
      </trkpt>
      <trkpt lat="44.67753" lon="5.15922">
        <ele>441</ele>
        <time>2022-11-17T10:03:32Z</time>
      </trkpt>
      <trkpt lat="44.67742" lon="5.15953">
        <ele>442</ele>
        <time>2022-11-17T10:03:32Z</time>
      </trkpt>
      <trkpt lat="44.67726" lon="5.15976">
        <ele>442</ele>
        <time>2022-11-17T10:03:32Z</time>
      </trkpt>
      <trkpt lat="44.67713" lon="5.16004">
        <ele>439</ele>
        <time>2022-11-17T10:03:32Z</time>
      </trkpt>
      <trkpt lat="44.67702" lon="5.16039">
        <ele>437</ele>
        <time>2022-11-17T10:03:32Z</time>
      </trkpt>
      <trkpt lat="44.67697" lon="5.16077">
        <ele>435</ele>
        <time>2022-11-17T10:03:32Z</time>
      </trkpt>
      <trkpt lat="44.67712" lon="5.16106">
        <ele>436</ele>
        <time>2022-11-17T10:03:32Z</time>
      </trkpt>
      <trkpt lat="44.67733" lon="5.16124">
        <ele>438</ele>
        <time>2022-11-17T10:03:32Z</time>
      </trkpt>
      <trkpt lat="44.67756" lon="5.16136">
        <ele>440</ele>
        <time>2022-11-17T10:03:32Z</time>
      </trkpt>
      <trkpt lat="44.67777" lon="5.16153">
        <ele>442</ele>
        <time>2022-11-17T10:03:32Z</time>
      </trkpt>
      <trkpt lat="44.67797" lon="5.16166">
        <ele>444</ele>
        <time>2022-11-17T10:03:32Z</time>
      </trkpt>
      <trkpt lat="44.67819" lon="5.16175">
        <ele>446</ele>
        <time>2022-11-17T10:03:32Z</time>
      </trkpt>
      <trkpt lat="44.67835" lon="5.162">
        <ele>450</ele>
        <time>2022-11-17T10:03:32Z</time>
      </trkpt>
      <trkpt lat="44.67835" lon="5.16236">
        <ele>452</ele>
        <time>2022-11-17T10:03:32Z</time>
      </trkpt>
      <trkpt lat="44.67827" lon="5.16268">
        <ele>454</ele>
        <time>2022-11-17T10:03:32Z</time>
      </trkpt>
      <trkpt lat="44.67813" lon="5.16296">
        <ele>454</ele>
        <time>2022-11-17T10:03:32Z</time>
      </trkpt>
      <trkpt lat="44.67833" lon="5.16312">
        <ele>456</ele>
        <time>2022-11-17T10:03:32Z</time>
      </trkpt>
      <trkpt lat="44.67856" lon="5.16321">
        <ele>458</ele>
        <time>2022-11-17T10:03:32Z</time>
      </trkpt>
      <trkpt lat="44.67841" lon="5.16345">
        <ele>463</ele>
        <time>2022-11-17T10:03:32Z</time>
      </trkpt>
      <trkpt lat="44.6782" lon="5.1636">
        <ele>466</ele>
        <time>2022-11-17T10:03:32Z</time>
      </trkpt>
      <trkpt lat="44.67801" lon="5.16382">
        <ele>468</ele>
        <time>2022-11-17T10:03:32Z</time>
      </trkpt>
      <trkpt lat="44.6771" lon="5.1642">
        <ele>472</ele>
        <time>2022-11-17T10:03:32Z</time>
      </trkpt>
      <trkpt lat="44.67693" lon="5.16442">
        <ele>472</ele>
        <time>2022-11-17T10:03:32Z</time>
      </trkpt>
      <trkpt lat="44.67681" lon="5.16474">
        <ele>471</ele>
        <time>2022-11-17T10:03:32Z</time>
      </trkpt>
      <trkpt lat="44.67661" lon="5.16494">
        <ele>472</ele>
        <time>2022-11-17T10:03:32Z</time>
      </trkpt>
      <trkpt lat="44.67592" lon="5.16477">
        <ele>472</ele>
        <time>2022-11-17T10:03:32Z</time>
      </trkpt>
      <trkpt lat="44.67545" lon="5.16507">
        <ele>469</ele>
        <time>2022-11-17T10:03:32Z</time>
      </trkpt>
      <trkpt lat="44.67522" lon="5.16505">
        <ele>468</ele>
        <time>2022-11-17T10:03:32Z</time>
      </trkpt>
      <trkpt lat="44.67494" lon="5.1651">
        <ele>468</ele>
        <time>2022-11-17T10:03:32Z</time>
      </trkpt>
      <trkpt lat="44.6743" lon="5.16562">
        <ele>469</ele>
        <time>2022-11-17T10:03:32Z</time>
      </trkpt>
      <trkpt lat="44.67409" lon="5.16577">
        <ele>472</ele>
        <time>2022-11-17T10:03:32Z</time>
      </trkpt>
      <trkpt lat="44.67385" lon="5.16578">
        <ele>473</ele>
        <time>2022-11-17T10:03:32Z</time>
      </trkpt>
      <trkpt lat="44.67363" lon="5.16561">
        <ele>474</ele>
        <time>2022-11-17T10:03:32Z</time>
      </trkpt>
      <trkpt lat="44.67341" lon="5.16574">
        <ele>474</ele>
        <time>2022-11-17T10:03:32Z</time>
      </trkpt>
      <trkpt lat="44.6732" lon="5.16639">
        <ele>469</ele>
        <time>2022-11-17T10:03:32Z</time>
      </trkpt>
      <trkpt lat="44.67324" lon="5.16702">
        <ele>466</ele>
        <time>2022-11-17T10:03:32Z</time>
      </trkpt>
      <trkpt lat="44.67374" lon="5.16716">
        <ele>466</ele>
        <time>2022-11-17T10:03:32Z</time>
      </trkpt>
      <trkpt lat="44.67397" lon="5.16727">
        <ele>464</ele>
        <time>2022-11-17T10:03:32Z</time>
      </trkpt>
      <trkpt lat="44.67423" lon="5.16741">
        <ele>461</ele>
        <time>2022-11-17T10:03:32Z</time>
      </trkpt>
      <trkpt lat="44.67445" lon="5.16753">
        <ele>458</ele>
        <time>2022-11-17T10:03:32Z</time>
      </trkpt>
      <trkpt lat="44.67463" lon="5.16775">
        <ele>456</ele>
        <time>2022-11-17T10:03:32Z</time>
      </trkpt>
      <trkpt lat="44.67452" lon="5.16803">
        <ele>455</ele>
        <time>2022-11-17T10:03:32Z</time>
      </trkpt>
      <trkpt lat="44.67437" lon="5.16834">
        <ele>453</ele>
        <time>2022-11-17T10:03:32Z</time>
      </trkpt>
      <trkpt lat="44.67417" lon="5.16848">
        <ele>453</ele>
        <time>2022-11-17T10:03:32Z</time>
      </trkpt>
      <trkpt lat="44.67393" lon="5.16863">
        <ele>451</ele>
        <time>2022-11-17T10:03:32Z</time>
      </trkpt>
      <trkpt lat="44.67359" lon="5.16911">
        <ele>448</ele>
        <time>2022-11-17T10:03:32Z</time>
      </trkpt>
      <trkpt lat="44.67351" lon="5.16941">
        <ele>447</ele>
        <time>2022-11-17T10:03:32Z</time>
      </trkpt>
      <trkpt lat="44.67403" lon="5.16949">
        <ele>448</ele>
        <time>2022-11-17T10:03:32Z</time>
      </trkpt>
      <trkpt lat="44.67427" lon="5.1696">
        <ele>447</ele>
        <time>2022-11-17T10:03:32Z</time>
      </trkpt>
      <trkpt lat="44.67456" lon="5.16966">
        <ele>445</ele>
        <time>2022-11-17T10:03:32Z</time>
      </trkpt>
      <trkpt lat="44.67504" lon="5.16981">
        <ele>443</ele>
        <time>2022-11-17T10:03:32Z</time>
      </trkpt>
      <trkpt lat="44.67553" lon="5.1698">
        <ele>441</ele>
        <time>2022-11-17T10:03:32Z</time>
      </trkpt>
      <trkpt lat="44.67601" lon="5.1696">
        <ele>439</ele>
        <time>2022-11-17T10:03:32Z</time>
      </trkpt>
      <trkpt lat="44.67624" lon="5.16963">
        <ele>443</ele>
        <time>2022-11-17T10:03:32Z</time>
      </trkpt>
      <trkpt lat="44.6764" lon="5.16989">
        <ele>444</ele>
        <time>2022-11-17T10:03:32Z</time>
      </trkpt>
      <trkpt lat="44.67654" lon="5.17016">
        <ele>446</ele>
        <time>2022-11-17T10:03:32Z</time>
      </trkpt>
      <trkpt lat="44.67665" lon="5.17046">
        <ele>448</ele>
        <time>2022-11-17T10:03:32Z</time>
      </trkpt>
      <trkpt lat="44.67685" lon="5.17106">
        <ele>450</ele>
        <time>2022-11-17T10:03:32Z</time>
      </trkpt>
      <trkpt lat="44.67701" lon="5.17166">
        <ele>452</ele>
        <time>2022-11-17T10:03:32Z</time>
      </trkpt>
      <trkpt lat="44.67714" lon="5.17195">
        <ele>454</ele>
        <time>2022-11-17T10:03:32Z</time>
      </trkpt>
      <trkpt lat="44.67709" lon="5.17227">
        <ele>459</ele>
        <time>2022-11-17T10:03:32Z</time>
      </trkpt>
      <trkpt lat="44.67687" lon="5.17231">
        <ele>462</ele>
        <time>2022-11-17T10:03:32Z</time>
      </trkpt>
      <trkpt lat="44.6764" lon="5.17246">
        <ele>465</ele>
        <time>2022-11-17T10:03:32Z</time>
      </trkpt>
      <trkpt lat="44.67619" lon="5.17264">
        <ele>464</ele>
        <time>2022-11-17T10:03:32Z</time>
      </trkpt>
      <trkpt lat="44.67604" lon="5.17289">
        <ele>465</ele>
        <time>2022-11-17T10:03:32Z</time>
      </trkpt>
      <trkpt lat="44.67584" lon="5.17304">
        <ele>467</ele>
        <time>2022-11-17T10:03:32Z</time>
      </trkpt>
      <trkpt lat="44.67552" lon="5.17352">
        <ele>467</ele>
        <time>2022-11-17T10:03:32Z</time>
      </trkpt>
      <trkpt lat="44.67495" lon="5.17413">
        <ele>470</ele>
        <time>2022-11-17T10:03:32Z</time>
      </trkpt>
      <trkpt lat="44.67448" lon="5.17486">
        <ele>468</ele>
        <time>2022-11-17T10:03:32Z</time>
      </trkpt>
      <trkpt lat="44.67424" lon="5.17499">
        <ele>470</ele>
        <time>2022-11-17T10:03:32Z</time>
      </trkpt>
      <trkpt lat="44.67407" lon="5.17521">
        <ele>469</ele>
        <time>2022-11-17T10:03:32Z</time>
      </trkpt>
      <trkpt lat="44.67428" lon="5.17537">
        <ele>470</ele>
        <time>2022-11-17T10:03:32Z</time>
      </trkpt>
      <trkpt lat="44.67428" lon="5.17569">
        <ele>471</ele>
        <time>2022-11-17T10:03:32Z</time>
      </trkpt>
      <trkpt lat="44.67424" lon="5.17601">
        <ele>473</ele>
        <time>2022-11-17T10:03:32Z</time>
      </trkpt>
      <trkpt lat="44.67407" lon="5.17627">
        <ele>476</ele>
        <time>2022-11-17T10:03:32Z</time>
      </trkpt>
      <trkpt lat="44.67399" lon="5.17656">
        <ele>480</ele>
        <time>2022-11-17T10:03:32Z</time>
      </trkpt>
      <trkpt lat="44.67387" lon="5.17686">
        <ele>484</ele>
        <time>2022-11-17T10:03:32Z</time>
      </trkpt>
      <trkpt lat="44.67288" lon="5.1783">
        <ele>488</ele>
        <time>2022-11-17T10:03:32Z</time>
      </trkpt>
      <trkpt lat="44.67266" lon="5.17844">
        <ele>488</ele>
        <time>2022-11-17T10:03:32Z</time>
      </trkpt>
      <trkpt lat="44.67249" lon="5.1787">
        <ele>488</ele>
        <time>2022-11-17T10:03:32Z</time>
      </trkpt>
      <trkpt lat="44.67236" lon="5.17903">
        <ele>487</ele>
        <time>2022-11-17T10:03:32Z</time>
      </trkpt>
      <trkpt lat="44.67215" lon="5.17926">
        <ele>486</ele>
        <time>2022-11-17T10:03:32Z</time>
      </trkpt>
      <trkpt lat="44.67192" lon="5.17936">
        <ele>486</ele>
        <time>2022-11-17T10:03:32Z</time>
      </trkpt>
      <trkpt lat="44.67202" lon="5.17965">
        <ele>485</ele>
        <time>2022-11-17T10:03:32Z</time>
      </trkpt>
      <trkpt lat="44.67193" lon="5.17995">
        <ele>485</ele>
        <time>2022-11-17T10:03:32Z</time>
      </trkpt>
      <trkpt lat="44.67175" lon="5.18017">
        <ele>485</ele>
        <time>2022-11-17T10:03:32Z</time>
      </trkpt>
      <trkpt lat="44.6717" lon="5.18053">
        <ele>485</ele>
        <time>2022-11-17T10:03:32Z</time>
      </trkpt>
      <trkpt lat="44.6718" lon="5.18122">
        <ele>481</ele>
        <time>2022-11-17T10:03:32Z</time>
      </trkpt>
      <trkpt lat="44.6717" lon="5.18155">
        <ele>482</ele>
        <time>2022-11-17T10:03:32Z</time>
      </trkpt>
      <trkpt lat="44.67188" lon="5.18174">
        <ele>484</ele>
        <time>2022-11-17T10:03:32Z</time>
      </trkpt>
      <trkpt lat="44.67234" lon="5.18158">
        <ele>486</ele>
        <time>2022-11-17T10:03:32Z</time>
      </trkpt>
      <trkpt lat="44.67258" lon="5.1816">
        <ele>488</ele>
        <time>2022-11-17T10:03:32Z</time>
      </trkpt>
      <trkpt lat="44.67281" lon="5.18173">
        <ele>490</ele>
        <time>2022-11-17T10:03:32Z</time>
      </trkpt>
      <trkpt lat="44.67303" lon="5.18186">
        <ele>493</ele>
        <time>2022-11-17T10:03:32Z</time>
      </trkpt>
      <trkpt lat="44.67322" lon="5.18203">
        <ele>496</ele>
        <time>2022-11-17T10:03:32Z</time>
      </trkpt>
      <trkpt lat="44.67344" lon="5.18215">
        <ele>500</ele>
        <time>2022-11-17T10:03:32Z</time>
      </trkpt>
      <trkpt lat="44.67366" lon="5.18211">
        <ele>500</ele>
        <time>2022-11-17T10:03:32Z</time>
      </trkpt>
      <trkpt lat="44.67388" lon="5.18194">
        <ele>503</ele>
        <time>2022-11-17T10:03:32Z</time>
      </trkpt>
      <trkpt lat="44.67412" lon="5.18185">
        <ele>506</ele>
        <time>2022-11-17T10:03:32Z</time>
      </trkpt>
      <trkpt lat="44.67426" lon="5.1821">
        <ele>509</ele>
        <time>2022-11-17T10:03:32Z</time>
      </trkpt>
      <trkpt lat="44.67405" lon="5.18227">
        <ele>515</ele>
        <time>2022-11-17T10:03:32Z</time>
      </trkpt>
      <trkpt lat="44.67384" lon="5.18243">
        <ele>518</ele>
        <time>2022-11-17T10:03:32Z</time>
      </trkpt>
      <trkpt lat="44.67362" lon="5.18259">
        <ele>523</ele>
        <time>2022-11-17T10:03:32Z</time>
      </trkpt>
      <trkpt lat="44.67341" lon="5.18276">
        <ele>528</ele>
        <time>2022-11-17T10:03:32Z</time>
      </trkpt>
      <trkpt lat="44.67321" lon="5.18293">
        <ele>530</ele>
        <time>2022-11-17T10:03:32Z</time>
      </trkpt>
      <trkpt lat="44.67303" lon="5.18312">
        <ele>532</ele>
        <time>2022-11-17T10:03:32Z</time>
      </trkpt>
      <trkpt lat="44.67286" lon="5.18337">
        <ele>534</ele>
        <time>2022-11-17T10:03:32Z</time>
      </trkpt>
      <trkpt lat="44.67273" lon="5.18364">
        <ele>538</ele>
        <time>2022-11-17T10:03:32Z</time>
      </trkpt>
      <trkpt lat="44.67263" lon="5.18394">
        <ele>542</ele>
        <time>2022-11-17T10:03:32Z</time>
      </trkpt>
      <trkpt lat="44.67264" lon="5.18462">
        <ele>543</ele>
        <time>2022-11-17T10:03:32Z</time>
      </trkpt>
      <trkpt lat="44.67262" lon="5.18494">
        <ele>545</ele>
        <time>2022-11-17T10:03:32Z</time>
      </trkpt>
      <trkpt lat="44.6726" lon="5.18527">
        <ele>547</ele>
        <time>2022-11-17T10:03:32Z</time>
      </trkpt>
      <trkpt lat="44.67259" lon="5.18559">
        <ele>549</ele>
        <time>2022-11-17T10:03:32Z</time>
      </trkpt>
      <trkpt lat="44.67264" lon="5.18592">
        <ele>551</ele>
        <time>2022-11-17T10:03:32Z</time>
      </trkpt>
      <trkpt lat="44.67271" lon="5.18623">
        <ele>554</ele>
        <time>2022-11-17T10:03:32Z</time>
      </trkpt>
      <trkpt lat="44.67281" lon="5.18689">
        <ele>558</ele>
        <time>2022-11-17T10:03:32Z</time>
      </trkpt>
      <trkpt lat="44.67292" lon="5.1872">
        <ele>556</ele>
        <time>2022-11-17T10:03:32Z</time>
      </trkpt>
      <trkpt lat="44.67315" lon="5.18736">
        <ele>555</ele>
        <time>2022-11-17T10:03:32Z</time>
      </trkpt>
      <trkpt lat="44.67341" lon="5.18744">
        <ele>554</ele>
        <time>2022-11-17T10:03:32Z</time>
      </trkpt>
      <trkpt lat="44.67394" lon="5.18756">
        <ele>551</ele>
        <time>2022-11-17T10:03:32Z</time>
      </trkpt>
      <trkpt lat="44.67423" lon="5.18766">
        <ele>548</ele>
        <time>2022-11-17T10:03:32Z</time>
      </trkpt>
      <trkpt lat="44.67467" lon="5.18782">
        <ele>545</ele>
        <time>2022-11-17T10:03:32Z</time>
      </trkpt>
      <trkpt lat="44.67516" lon="5.18766">
        <ele>542</ele>
        <time>2022-11-17T10:03:32Z</time>
      </trkpt>
      <trkpt lat="44.67544" lon="5.18764">
        <ele>539</ele>
        <time>2022-11-17T10:03:32Z</time>
      </trkpt>
      <trkpt lat="44.67603" lon="5.18764">
        <ele>535</ele>
        <time>2022-11-17T10:03:32Z</time>
      </trkpt>
      <trkpt lat="44.67636" lon="5.18765">
        <ele>533</ele>
        <time>2022-11-17T10:03:32Z</time>
      </trkpt>
      <trkpt lat="44.67669" lon="5.18761">
        <ele>530</ele>
        <time>2022-11-17T10:03:32Z</time>
      </trkpt>
      <trkpt lat="44.67701" lon="5.18758">
        <ele>527</ele>
        <time>2022-11-17T10:03:32Z</time>
      </trkpt>
      <trkpt lat="44.67731" lon="5.18761">
        <ele>524</ele>
        <time>2022-11-17T10:03:32Z</time>
      </trkpt>
      <trkpt lat="44.67758" lon="5.18781">
        <ele>523</ele>
        <time>2022-11-17T10:03:32Z</time>
      </trkpt>
      <trkpt lat="44.67786" lon="5.18793">
        <ele>521</ele>
        <time>2022-11-17T10:03:32Z</time>
      </trkpt>
      <trkpt lat="44.67815" lon="5.18785">
        <ele>518</ele>
        <time>2022-11-17T10:03:32Z</time>
      </trkpt>
      <trkpt lat="44.67842" lon="5.18772">
        <ele>514</ele>
        <time>2022-11-17T10:03:32Z</time>
      </trkpt>
      <trkpt lat="44.67865" lon="5.18782">
        <ele>512</ele>
        <time>2022-11-17T10:03:32Z</time>
      </trkpt>
      <trkpt lat="44.67899" lon="5.18832">
        <ele>509</ele>
        <time>2022-11-17T10:03:32Z</time>
      </trkpt>
      <trkpt lat="44.67884" lon="5.18806">
        <ele>509</ele>
        <time>2022-11-17T10:03:32Z</time>
      </trkpt>
      <trkpt lat="44.67924" lon="5.18837">
        <ele>511</ele>
        <time>2022-11-17T10:03:32Z</time>
      </trkpt>
      <trkpt lat="44.67966" lon="5.18868">
        <ele>513</ele>
        <time>2022-11-17T10:03:32Z</time>
      </trkpt>
      <trkpt lat="44.67991" lon="5.18875">
        <ele>513</ele>
        <time>2022-11-17T10:03:32Z</time>
      </trkpt>
      <trkpt lat="44.68016" lon="5.18872">
        <ele>512</ele>
        <time>2022-11-17T10:03:32Z</time>
      </trkpt>
      <trkpt lat="44.68039" lon="5.18873">
        <ele>510</ele>
        <time>2022-11-17T10:03:32Z</time>
      </trkpt>
      <trkpt lat="44.68064" lon="5.18873">
        <ele>508</ele>
        <time>2022-11-17T10:03:32Z</time>
      </trkpt>
      <trkpt lat="44.68156" lon="5.18911">
        <ele>505</ele>
        <time>2022-11-17T10:03:32Z</time>
      </trkpt>
      <trkpt lat="44.68172" lon="5.18885">
        <ele>503</ele>
        <time>2022-11-17T10:03:32Z</time>
      </trkpt>
      <trkpt lat="44.68197" lon="5.18887">
        <ele>500</ele>
        <time>2022-11-17T10:03:32Z</time>
      </trkpt>
      <trkpt lat="44.6822" lon="5.18891">
        <ele>497</ele>
        <time>2022-11-17T10:03:32Z</time>
      </trkpt>
      <trkpt lat="44.68289" lon="5.18905">
        <ele>493</ele>
        <time>2022-11-17T10:03:32Z</time>
      </trkpt>
      <trkpt lat="44.68308" lon="5.18923">
        <ele>491</ele>
        <time>2022-11-17T10:03:32Z</time>
      </trkpt>
      <trkpt lat="44.68325" lon="5.18949">
        <ele>490</ele>
        <time>2022-11-17T10:03:32Z</time>
      </trkpt>
      <trkpt lat="44.68349" lon="5.18965">
        <ele>491</ele>
        <time>2022-11-17T10:03:32Z</time>
      </trkpt>
      <trkpt lat="44.68374" lon="5.18972">
        <ele>491</ele>
        <time>2022-11-17T10:03:32Z</time>
      </trkpt>
      <trkpt lat="44.68391" lon="5.18996">
        <ele>489</ele>
        <time>2022-11-17T10:03:32Z</time>
      </trkpt>
      <trkpt lat="44.68399" lon="5.19058">
        <ele>486</ele>
        <time>2022-11-17T10:03:32Z</time>
      </trkpt>
      <trkpt lat="44.68414" lon="5.19084">
        <ele>483</ele>
        <time>2022-11-17T10:03:32Z</time>
      </trkpt>
      <trkpt lat="44.68432" lon="5.19105">
        <ele>479</ele>
        <time>2022-11-17T10:03:32Z</time>
      </trkpt>
      <trkpt lat="44.68451" lon="5.19125">
        <ele>473</ele>
        <time>2022-11-17T10:03:32Z</time>
      </trkpt>
      <trkpt lat="44.68474" lon="5.19131">
        <ele>468</ele>
        <time>2022-11-17T10:03:32Z</time>
      </trkpt>
      <trkpt lat="44.68494" lon="5.19115">
        <ele>462</ele>
        <time>2022-11-17T10:03:32Z</time>
      </trkpt>
      <trkpt lat="44.68513" lon="5.19098">
        <ele>456</ele>
        <time>2022-11-17T10:03:32Z</time>
      </trkpt>
      <trkpt lat="44.68538" lon="5.19094">
        <ele>451</ele>
        <time>2022-11-17T10:03:32Z</time>
      </trkpt>
      <trkpt lat="44.6856" lon="5.1909">
        <ele>453</ele>
        <time>2022-11-17T10:03:32Z</time>
      </trkpt>
      <trkpt lat="44.68581" lon="5.19106">
        <ele>453</ele>
        <time>2022-11-17T10:03:32Z</time>
      </trkpt>
      <trkpt lat="44.68595" lon="5.19134">
        <ele>453</ele>
        <time>2022-11-17T10:03:32Z</time>
      </trkpt>
      <trkpt lat="44.68606" lon="5.19162">
        <ele>451</ele>
        <time>2022-11-17T10:03:32Z</time>
      </trkpt>
      <trkpt lat="44.68623" lon="5.19186">
        <ele>448</ele>
        <time>2022-11-17T10:03:32Z</time>
      </trkpt>
      <trkpt lat="44.6864" lon="5.1921">
        <ele>445</ele>
        <time>2022-11-17T10:03:32Z</time>
      </trkpt>
      <trkpt lat="44.68663" lon="5.19226">
        <ele>440</ele>
        <time>2022-11-17T10:03:32Z</time>
      </trkpt>
      <trkpt lat="44.68681" lon="5.19246">
        <ele>436</ele>
        <time>2022-11-17T10:03:32Z</time>
      </trkpt>
      <trkpt lat="44.68705" lon="5.19251">
        <ele>434</ele>
        <time>2022-11-17T10:03:32Z</time>
      </trkpt>
      <trkpt lat="44.68729" lon="5.1925">
        <ele>431</ele>
        <time>2022-11-17T10:03:32Z</time>
      </trkpt>
      <trkpt lat="44.68749" lon="5.19272">
        <ele>426</ele>
        <time>2022-11-17T10:03:32Z</time>
      </trkpt>
      <trkpt lat="44.68769" lon="5.19294">
        <ele>423</ele>
        <time>2022-11-17T10:03:32Z</time>
      </trkpt>
      <trkpt lat="44.68789" lon="5.19314">
        <ele>420</ele>
        <time>2022-11-17T10:03:32Z</time>
      </trkpt>
      <trkpt lat="44.68811" lon="5.19327">
        <ele>418</ele>
        <time>2022-11-17T10:03:32Z</time>
      </trkpt>
      <trkpt lat="44.68834" lon="5.19338">
        <ele>414</ele>
        <time>2022-11-17T10:03:32Z</time>
      </trkpt>
      <trkpt lat="44.68857" lon="5.19351">
        <ele>412</ele>
        <time>2022-11-17T10:03:32Z</time>
      </trkpt>
      <trkpt lat="44.6888" lon="5.19363">
        <ele>410</ele>
        <time>2022-11-17T10:03:32Z</time>
      </trkpt>
      <trkpt lat="44.68901" lon="5.19379">
        <ele>406</ele>
        <time>2022-11-17T10:03:32Z</time>
      </trkpt>
      <trkpt lat="44.68919" lon="5.194">
        <ele>401</ele>
        <time>2022-11-17T10:03:32Z</time>
      </trkpt>
      <trkpt lat="44.68936" lon="5.19424">
        <ele>398</ele>
        <time>2022-11-17T10:03:32Z</time>
      </trkpt>
      <trkpt lat="44.68946" lon="5.19453">
        <ele>395</ele>
        <time>2022-11-17T10:03:32Z</time>
      </trkpt>
      <trkpt lat="44.68961" lon="5.19478">
        <ele>392</ele>
        <time>2022-11-17T10:03:32Z</time>
      </trkpt>
      <trkpt lat="44.68981" lon="5.195">
        <ele>390</ele>
        <time>2022-11-17T10:03:32Z</time>
      </trkpt>
      <trkpt lat="44.69004" lon="5.1951">
        <ele>389</ele>
        <time>2022-11-17T10:03:32Z</time>
      </trkpt>
      <trkpt lat="44.68996" lon="5.1954">
        <ele>383</ele>
        <time>2022-11-17T10:03:32Z</time>
      </trkpt>
      <trkpt lat="44.69014" lon="5.1956">
        <ele>379</ele>
        <time>2022-11-17T10:03:32Z</time>
      </trkpt>
      <trkpt lat="44.69034" lon="5.19576">
        <ele>373</ele>
        <time>2022-11-17T10:03:32Z</time>
      </trkpt>
      <trkpt lat="44.69104" lon="5.19607">
        <ele>362</ele>
        <time>2022-11-17T10:03:32Z</time>
      </trkpt>
      <trkpt lat="44.69146" lon="5.19645">
        <ele>359</ele>
        <time>2022-11-17T10:03:32Z</time>
      </trkpt>
      <trkpt lat="44.6916" lon="5.19673">
        <ele>357</ele>
        <time>2022-11-17T10:03:32Z</time>
      </trkpt>
      <trkpt lat="44.69164" lon="5.19705">
        <ele>354</ele>
        <time>2022-11-17T10:03:32Z</time>
      </trkpt>
      <trkpt lat="44.69171" lon="5.19671">
        <ele>353</ele>
        <time>2022-11-17T10:03:32Z</time>
      </trkpt>
      <trkpt lat="44.69181" lon="5.19642">
        <ele>351</ele>
        <time>2022-11-17T10:03:32Z</time>
      </trkpt>
      <trkpt lat="44.69235" lon="5.19626">
        <ele>347</ele>
        <time>2022-11-17T10:03:32Z</time>
      </trkpt>
      <trkpt lat="44.69405" lon="5.19626">
        <ele>343</ele>
        <time>2022-11-17T10:03:32Z</time>
      </trkpt>
      <trkpt lat="44.69424" lon="5.1965">
        <ele>336</ele>
        <time>2022-11-17T10:03:32Z</time>
      </trkpt>
      <trkpt lat="44.6944" lon="5.1968">
        <ele>331</ele>
        <time>2022-11-17T10:03:32Z</time>
      </trkpt>
      <trkpt lat="44.69454" lon="5.19714">
        <ele>329</ele>
        <time>2022-11-17T10:03:32Z</time>
      </trkpt>
      <trkpt lat="44.69479" lon="5.19884">
        <ele>329</ele>
        <time>2022-11-17T10:03:32Z</time>
      </trkpt>
      <trkpt lat="44.69469" lon="5.19912">
        <ele>330</ele>
        <time>2022-11-17T10:03:32Z</time>
      </trkpt>
      <trkpt lat="44.69466" lon="5.19948">
        <ele>331</ele>
        <time>2022-11-17T10:03:32Z</time>
      </trkpt>
      <trkpt lat="44.69471" lon="5.19982">
        <ele>332</ele>
        <time>2022-11-17T10:03:32Z</time>
      </trkpt>
      <trkpt lat="44.695" lon="5.20032">
        <ele>333</ele>
        <time>2022-11-17T10:03:32Z</time>
      </trkpt>
      <trkpt lat="44.695" lon="5.20069">
        <ele>332</ele>
        <time>2022-11-17T10:03:32Z</time>
      </trkpt>
      <trkpt lat="44.69488" lon="5.20097">
        <ele>331</ele>
        <time>2022-11-17T10:03:32Z</time>
      </trkpt>
      <trkpt lat="44.69509" lon="5.20084">
        <ele>328</ele>
        <time>2022-11-17T10:03:32Z</time>
      </trkpt>
      <trkpt lat="44.69512" lon="5.20048">
        <ele>327</ele>
        <time>2022-11-17T10:03:32Z</time>
      </trkpt>
      <trkpt lat="44.69503" lon="5.20019">
        <ele>327</ele>
        <time>2022-11-17T10:03:32Z</time>
      </trkpt>
      <trkpt lat="44.695" lon="5.19984">
        <ele>327</ele>
        <time>2022-11-17T10:03:32Z</time>
      </trkpt>
      <trkpt lat="44.6951" lon="5.19908">
        <ele>328</ele>
        <time>2022-11-17T10:03:32Z</time>
      </trkpt>
      <trkpt lat="44.69507" lon="5.19837">
        <ele>328</ele>
        <time>2022-11-17T10:03:32Z</time>
      </trkpt>
      <trkpt lat="44.69506" lon="5.19761">
        <ele>325</ele>
        <time>2022-11-17T10:03:32Z</time>
      </trkpt>
      <trkpt lat="44.69513" lon="5.19731">
        <ele>322</ele>
        <time>2022-11-17T10:03:32Z</time>
      </trkpt>
      <trkpt lat="44.69537" lon="5.1972">
        <ele>320</ele>
        <time>2022-11-17T10:03:32Z</time>
      </trkpt>
      <trkpt lat="44.69613" lon="5.19724">
        <ele>318</ele>
        <time>2022-11-17T10:03:32Z</time>
      </trkpt>
      <trkpt lat="44.69636" lon="5.19717">
        <ele>321</ele>
        <time>2022-11-17T10:03:32Z</time>
      </trkpt>
      <trkpt lat="44.69659" lon="5.1972">
        <ele>321</ele>
        <time>2022-11-17T10:03:32Z</time>
      </trkpt>
      <trkpt lat="44.69659" lon="5.19785">
        <ele>319</ele>
        <time>2022-11-17T10:03:32Z</time>
      </trkpt>
      <trkpt lat="44.69668" lon="5.19817">
        <ele>320</ele>
        <time>2022-11-17T10:03:32Z</time>
      </trkpt>
      <trkpt lat="44.69674" lon="5.19883">
        <ele>320</ele>
        <time>2022-11-17T10:03:32Z</time>
      </trkpt>
      <trkpt lat="44.69686" lon="5.19913">
        <ele>322</ele>
        <time>2022-11-17T10:03:32Z</time>
      </trkpt>
      <trkpt lat="44.69689" lon="5.19949">
        <ele>325</ele>
        <time>2022-11-17T10:03:32Z</time>
      </trkpt>
      <trkpt lat="44.69697" lon="5.19979">
        <ele>326</ele>
        <time>2022-11-17T10:03:32Z</time>
      </trkpt>
      <trkpt lat="44.69715" lon="5.19998">
        <ele>327</ele>
        <time>2022-11-17T10:03:32Z</time>
        <extensions>
          <visugpx:TrkExtension xmlns:visugpx="https://www.visugpx.com/editgpx/">
            <visugpx:node>1</visugpx:node>
            </visugpx:TrkExtension>
        </extensions>
      </trkpt>
    </trkseg>
  </trk>
  <trk>
    <name><![CDATA[VTT  N°11 rouge - Col de Gerbe -16km - déniv 380m -VAE Bleu]]></name>
    <extensions>
      <line xmlns="http://www.topografix.com/GPX/gpx_style/0/2">
        <color>f90025</color>
        <width>4</width>
      </line>
    </extensions>
    <trkseg>
      <trkpt lat="44.72454" lon="5.18687">
        <ele>535</ele>
        <time>2022-12-03T08:49:01Z</time>
      </trkpt>
      <trkpt lat="44.72497" lon="5.18634">
        <ele>535</ele>
        <time>2022-12-03T08:49:01Z</time>
      </trkpt>
      <trkpt lat="44.72539" lon="5.1858">
        <ele>535</ele>
        <time>2022-12-03T08:49:01Z</time>
      </trkpt>
      <trkpt lat="44.72605" lon="5.18563">
        <ele>535</ele>
        <time>2022-12-03T08:49:01Z</time>
      </trkpt>
      <trkpt lat="44.72625" lon="5.18473">
        <ele>535</ele>
        <time>2022-12-03T08:49:01Z</time>
      </trkpt>
      <trkpt lat="44.7266" lon="5.18393">
        <ele>535</ele>
        <time>2022-12-03T08:49:01Z</time>
      </trkpt>
      <trkpt lat="44.72712" lon="5.18353">
        <ele>535</ele>
        <time>2022-12-03T08:49:01Z</time>
      </trkpt>
      <trkpt lat="44.72744" lon="5.18301">
        <ele>535</ele>
        <time>2022-12-03T08:49:01Z</time>
      </trkpt>
      <trkpt lat="44.7285" lon="5.18203">
        <ele>535</ele>
        <time>2022-12-03T08:49:01Z</time>
      </trkpt>
      <trkpt lat="44.72899" lon="5.18237">
        <ele>535</ele>
        <time>2022-12-03T08:49:01Z</time>
      </trkpt>
      <trkpt lat="44.72991" lon="5.18142">
        <ele>535</ele>
        <time>2022-12-03T08:49:01Z</time>
      </trkpt>
      <trkpt lat="44.73026" lon="5.18245">
        <ele>535</ele>
        <time>2022-12-03T08:49:01Z</time>
      </trkpt>
      <trkpt lat="44.73023" lon="5.18443">
        <ele>535</ele>
        <time>2022-12-03T08:49:01Z</time>
      </trkpt>
      <trkpt lat="44.73072" lon="5.18469">
        <ele>535</ele>
        <time>2022-12-03T08:49:01Z</time>
      </trkpt>
      <trkpt lat="44.73119" lon="5.18505">
        <ele>535</ele>
        <time>2022-12-03T08:49:01Z</time>
      </trkpt>
      <trkpt lat="44.73125" lon="5.18402">
        <ele>536</ele>
        <time>2022-12-03T08:49:01Z</time>
      </trkpt>
      <trkpt lat="44.73174" lon="5.18353">
        <ele>536</ele>
        <time>2022-12-03T08:49:01Z</time>
      </trkpt>
      <trkpt lat="44.7321" lon="5.1834">
        <ele>536</ele>
        <time>2022-12-03T08:49:01Z</time>
      </trkpt>
      <trkpt lat="44.73239" lon="5.18308">
        <ele>536</ele>
        <time>2022-12-03T08:49:01Z</time>
      </trkpt>
      <trkpt lat="44.7325" lon="5.18136">
        <ele>536</ele>
        <time>2022-12-03T08:49:01Z</time>
      </trkpt>
      <trkpt lat="44.73268" lon="5.18042">
        <ele>536</ele>
        <time>2022-12-03T08:49:01Z</time>
      </trkpt>
      <trkpt lat="44.73303" lon="5.17979">
        <ele>536</ele>
        <time>2022-12-03T08:49:01Z</time>
      </trkpt>
      <trkpt lat="44.7335" lon="5.17956">
        <ele>536</ele>
        <time>2022-12-03T08:49:01Z</time>
      </trkpt>
      <trkpt lat="44.73383" lon="5.18057">
        <ele>536</ele>
        <time>2022-12-03T08:49:01Z</time>
      </trkpt>
      <trkpt lat="44.73428" lon="5.18016">
        <ele>537</ele>
        <time>2022-12-03T08:49:01Z</time>
      </trkpt>
      <trkpt lat="44.73443" lon="5.18036">
        <ele>537</ele>
        <time>2022-12-03T08:49:01Z</time>
      </trkpt>
      <trkpt lat="44.73459" lon="5.18057">
        <ele>538</ele>
        <time>2022-12-03T08:49:01Z</time>
      </trkpt>
      <trkpt lat="44.73501" lon="5.18059">
        <ele>538</ele>
        <time>2022-12-03T08:49:01Z</time>
      </trkpt>
      <trkpt lat="44.73628" lon="5.18016">
        <ele>538</ele>
        <time>2022-12-03T08:49:01Z</time>
      </trkpt>
      <trkpt lat="44.73697" lon="5.18063">
        <ele>538</ele>
        <time>2022-12-03T08:49:01Z</time>
      </trkpt>
      <trkpt lat="44.73754" lon="5.18135">
        <ele>539</ele>
        <time>2022-12-03T08:49:01Z</time>
      </trkpt>
      <trkpt lat="44.73748" lon="5.1812">
        <ele>538</ele>
        <time>2022-12-03T08:49:01Z</time>
      </trkpt>
      <trkpt lat="44.7376" lon="5.18149">
        <ele>539</ele>
        <time>2022-12-03T08:49:01Z</time>
      </trkpt>
      <trkpt lat="44.73773" lon="5.18162">
        <ele>540</ele>
        <time>2022-12-03T08:49:01Z</time>
      </trkpt>
      <trkpt lat="44.73782" lon="5.18166">
        <ele>541</ele>
        <time>2022-12-03T08:49:01Z</time>
      </trkpt>
      <trkpt lat="44.73789" lon="5.18173">
        <ele>541</ele>
        <time>2022-12-03T08:49:01Z</time>
      </trkpt>
      <trkpt lat="44.73798" lon="5.18176">
        <ele>542</ele>
        <time>2022-12-03T08:49:01Z</time>
      </trkpt>
      <trkpt lat="44.73811" lon="5.1819">
        <ele>542</ele>
        <time>2022-12-03T08:49:01Z</time>
      </trkpt>
      <trkpt lat="44.73838" lon="5.182">
        <ele>545</ele>
        <time>2022-12-03T08:49:01Z</time>
      </trkpt>
      <trkpt lat="44.73844" lon="5.18207">
        <ele>545</ele>
        <time>2022-12-03T08:49:01Z</time>
      </trkpt>
      <trkpt lat="44.73849" lon="5.18217">
        <ele>545</ele>
        <time>2022-12-03T08:49:01Z</time>
      </trkpt>
      <trkpt lat="44.73855" lon="5.18223">
        <ele>546</ele>
        <time>2022-12-03T08:49:01Z</time>
      </trkpt>
      <trkpt lat="44.73859" lon="5.18233">
        <ele>545</ele>
        <time>2022-12-03T08:49:01Z</time>
      </trkpt>
      <trkpt lat="44.73873" lon="5.18246">
        <ele>547</ele>
        <time>2022-12-03T08:49:01Z</time>
      </trkpt>
      <trkpt lat="44.73885" lon="5.18275">
        <ele>548</ele>
        <time>2022-12-03T08:49:01Z</time>
      </trkpt>
      <trkpt lat="44.73889" lon="5.18301">
        <ele>546</ele>
        <time>2022-12-03T08:49:01Z</time>
      </trkpt>
      <trkpt lat="44.73893" lon="5.18311">
        <ele>547</ele>
        <time>2022-12-03T08:49:01Z</time>
      </trkpt>
      <trkpt lat="44.73895" lon="5.18323">
        <ele>546</ele>
        <time>2022-12-03T08:49:01Z</time>
      </trkpt>
      <trkpt lat="44.73895" lon="5.18336">
        <ele>545</ele>
        <time>2022-12-03T08:49:01Z</time>
      </trkpt>
      <trkpt lat="44.73897" lon="5.18349">
        <ele>544</ele>
        <time>2022-12-03T08:49:01Z</time>
      </trkpt>
      <trkpt lat="44.73897" lon="5.18361">
        <ele>542</ele>
        <time>2022-12-03T08:49:01Z</time>
      </trkpt>
      <trkpt lat="44.73901" lon="5.18371">
        <ele>542</ele>
        <time>2022-12-03T08:49:01Z</time>
      </trkpt>
      <trkpt lat="44.73903" lon="5.18384">
        <ele>540</ele>
        <time>2022-12-03T08:49:01Z</time>
      </trkpt>
      <trkpt lat="44.73909" lon="5.1839">
        <ele>541</ele>
        <time>2022-12-03T08:49:01Z</time>
      </trkpt>
      <trkpt lat="44.73914" lon="5.184">
        <ele>540</ele>
        <time>2022-12-03T08:49:01Z</time>
      </trkpt>
      <trkpt lat="44.7392" lon="5.18407">
        <ele>541</ele>
        <time>2022-12-03T08:49:01Z</time>
      </trkpt>
      <trkpt lat="44.73929" lon="5.1841">
        <ele>542</ele>
        <time>2022-12-03T08:49:01Z</time>
      </trkpt>
      <trkpt lat="44.73942" lon="5.18424">
        <ele>543</ele>
        <time>2022-12-03T08:49:01Z</time>
      </trkpt>
      <trkpt lat="44.73946" lon="5.18433">
        <ele>542</ele>
        <time>2022-12-03T08:49:01Z</time>
      </trkpt>
      <trkpt lat="44.73953" lon="5.1844">
        <ele>543</ele>
        <time>2022-12-03T08:49:01Z</time>
      </trkpt>
      <trkpt lat="44.73962" lon="5.18459">
        <ele>542</ele>
        <time>2022-12-03T08:49:01Z</time>
      </trkpt>
      <trkpt lat="44.73963" lon="5.18472">
        <ele>541</ele>
        <time>2022-12-03T08:49:01Z</time>
      </trkpt>
      <trkpt lat="44.73963" lon="5.18485">
        <ele>541</ele>
        <time>2022-12-03T08:49:01Z</time>
      </trkpt>
      <trkpt lat="44.73958" lon="5.18494">
        <ele>539</ele>
        <time>2022-12-03T08:49:01Z</time>
      </trkpt>
      <trkpt lat="44.73949" lon="5.18512">
        <ele>536</ele>
        <time>2022-12-03T08:49:01Z</time>
      </trkpt>
      <trkpt lat="44.73946" lon="5.18525">
        <ele>535</ele>
        <time>2022-12-03T08:49:01Z</time>
      </trkpt>
      <trkpt lat="44.73946" lon="5.1855">
        <ele>535</ele>
        <time>2022-12-03T08:49:01Z</time>
      </trkpt>
      <trkpt lat="44.73948" lon="5.18563">
        <ele>536</ele>
        <time>2022-12-03T08:49:01Z</time>
      </trkpt>
      <trkpt lat="44.73952" lon="5.18572">
        <ele>537</ele>
        <time>2022-12-03T08:49:01Z</time>
      </trkpt>
      <trkpt lat="44.73954" lon="5.18585">
        <ele>537</ele>
        <time>2022-12-03T08:49:01Z</time>
      </trkpt>
      <trkpt lat="44.73958" lon="5.18595">
        <ele>538</ele>
        <time>2022-12-03T08:49:01Z</time>
      </trkpt>
      <trkpt lat="44.73965" lon="5.18601">
        <ele>539</ele>
        <time>2022-12-03T08:49:01Z</time>
      </trkpt>
      <trkpt lat="44.74009" lon="5.1862">
        <ele>544</ele>
        <time>2022-12-03T08:49:01Z</time>
      </trkpt>
      <trkpt lat="44.74027" lon="5.18627">
        <ele>547</ele>
        <time>2022-12-03T08:49:01Z</time>
      </trkpt>
      <trkpt lat="44.74027" lon="5.18639">
        <ele>543</ele>
        <time>2022-12-03T08:49:01Z</time>
      </trkpt>
      <trkpt lat="44.74026" lon="5.18652">
        <ele>539</ele>
        <time>2022-12-03T08:49:01Z</time>
      </trkpt>
      <trkpt lat="44.74035" lon="5.18671">
        <ele>537</ele>
        <time>2022-12-03T08:49:01Z</time>
      </trkpt>
      <trkpt lat="44.74039" lon="5.18681">
        <ele>535</ele>
        <time>2022-12-03T08:49:01Z</time>
      </trkpt>
      <trkpt lat="44.74046" lon="5.18688">
        <ele>535</ele>
        <time>2022-12-03T08:49:01Z</time>
      </trkpt>
      <trkpt lat="44.74055" lon="5.18691">
        <ele>536</ele>
        <time>2022-12-03T08:49:01Z</time>
      </trkpt>
      <trkpt lat="44.74059" lon="5.18701">
        <ele>534</ele>
        <time>2022-12-03T08:49:01Z</time>
      </trkpt>
      <trkpt lat="44.74072" lon="5.18714">
        <ele>533</ele>
        <time>2022-12-03T08:49:01Z</time>
      </trkpt>
      <trkpt lat="44.74076" lon="5.18724">
        <ele>531</ele>
        <time>2022-12-03T08:49:01Z</time>
      </trkpt>
      <trkpt lat="44.74085" lon="5.18728">
        <ele>531</ele>
        <time>2022-12-03T08:49:01Z</time>
      </trkpt>
      <trkpt lat="44.74098" lon="5.18741">
        <ele>530</ele>
        <time>2022-12-03T08:49:01Z</time>
      </trkpt>
      <trkpt lat="44.74107" lon="5.1876">
        <ele>529</ele>
        <time>2022-12-03T08:49:01Z</time>
      </trkpt>
      <trkpt lat="44.74109" lon="5.18773">
        <ele>527</ele>
        <time>2022-12-03T08:49:01Z</time>
      </trkpt>
      <trkpt lat="44.74134" lon="5.18834">
        <ele>528</ele>
        <time>2022-12-03T08:49:01Z</time>
      </trkpt>
      <trkpt lat="44.74154" lon="5.18854">
        <ele>530</ele>
        <time>2022-12-03T08:49:01Z</time>
      </trkpt>
      <trkpt lat="44.74163" lon="5.18861">
        <ele>532</ele>
        <time>2022-12-03T08:49:01Z</time>
      </trkpt>
      <trkpt lat="44.74169" lon="5.18868">
        <ele>534</ele>
        <time>2022-12-03T08:49:01Z</time>
      </trkpt>
      <trkpt lat="44.74193" lon="5.18916">
        <ele>537</ele>
        <time>2022-12-03T08:49:01Z</time>
      </trkpt>
      <trkpt lat="44.74212" lon="5.18936">
        <ele>540</ele>
        <time>2022-12-03T08:49:01Z</time>
      </trkpt>
      <trkpt lat="44.74221" lon="5.1894">
        <ele>541</ele>
        <time>2022-12-03T08:49:01Z</time>
      </trkpt>
      <trkpt lat="44.74228" lon="5.18934">
        <ele>543</ele>
        <time>2022-12-03T08:49:01Z</time>
      </trkpt>
      <trkpt lat="44.74224" lon="5.18908">
        <ele>546</ele>
        <time>2022-12-03T08:49:01Z</time>
      </trkpt>
      <trkpt lat="44.7422" lon="5.18899">
        <ele>546</ele>
        <time>2022-12-03T08:49:01Z</time>
      </trkpt>
      <trkpt lat="44.74214" lon="5.18892">
        <ele>545</ele>
        <time>2022-12-03T08:49:01Z</time>
      </trkpt>
      <trkpt lat="44.7419" lon="5.18843">
        <ele>543</ele>
        <time>2022-12-03T08:49:01Z</time>
      </trkpt>
      <trkpt lat="44.74188" lon="5.18831">
        <ele>544</ele>
        <time>2022-12-03T08:49:01Z</time>
      </trkpt>
      <trkpt lat="44.74182" lon="5.18824">
        <ele>543</ele>
        <time>2022-12-03T08:49:01Z</time>
      </trkpt>
      <trkpt lat="44.74178" lon="5.18799">
        <ele>545</ele>
        <time>2022-12-03T08:49:01Z</time>
      </trkpt>
      <trkpt lat="44.74178" lon="5.18773">
        <ele>548</ele>
        <time>2022-12-03T08:49:01Z</time>
      </trkpt>
      <trkpt lat="44.74187" lon="5.18774">
        <ele>551</ele>
        <time>2022-12-03T08:49:01Z</time>
      </trkpt>
      <trkpt lat="44.74194" lon="5.1878">
        <ele>553</ele>
        <time>2022-12-03T08:49:01Z</time>
      </trkpt>
      <trkpt lat="44.74202" lon="5.188">
        <ele>553</ele>
        <time>2022-12-03T08:49:01Z</time>
      </trkpt>
      <trkpt lat="44.74209" lon="5.18806">
        <ele>554</ele>
        <time>2022-12-03T08:49:01Z</time>
      </trkpt>
      <trkpt lat="44.74211" lon="5.18819">
        <ele>553</ele>
        <time>2022-12-03T08:49:01Z</time>
      </trkpt>
      <trkpt lat="44.74217" lon="5.18829">
        <ele>554</ele>
        <time>2022-12-03T08:49:01Z</time>
      </trkpt>
      <trkpt lat="44.74231" lon="5.18842">
        <ele>557</ele>
        <time>2022-12-03T08:49:01Z</time>
      </trkpt>
      <trkpt lat="44.7424" lon="5.18846">
        <ele>560</ele>
        <time>2022-12-03T08:49:01Z</time>
      </trkpt>
      <trkpt lat="44.74288" lon="5.18893">
        <ele>565</ele>
        <time>2022-12-03T08:49:01Z</time>
      </trkpt>
      <trkpt lat="44.74306" lon="5.18894">
        <ele>568</ele>
        <time>2022-12-03T08:49:01Z</time>
      </trkpt>
      <trkpt lat="44.74313" lon="5.18891">
        <ele>570</ele>
        <time>2022-12-03T08:49:01Z</time>
      </trkpt>
      <trkpt lat="44.74322" lon="5.18888">
        <ele>572</ele>
        <time>2022-12-03T08:49:01Z</time>
      </trkpt>
      <trkpt lat="44.74331" lon="5.18885">
        <ele>575</ele>
        <time>2022-12-03T08:49:01Z</time>
      </trkpt>
      <trkpt lat="44.7434" lon="5.18883">
        <ele>577</ele>
        <time>2022-12-03T08:49:01Z</time>
      </trkpt>
      <trkpt lat="44.74349" lon="5.18883">
        <ele>579</ele>
        <time>2022-12-03T08:49:01Z</time>
      </trkpt>
      <trkpt lat="44.74358" lon="5.18884">
        <ele>582</ele>
        <time>2022-12-03T08:49:01Z</time>
      </trkpt>
      <trkpt lat="44.74367" lon="5.18884">
        <ele>584</ele>
        <time>2022-12-03T08:49:01Z</time>
      </trkpt>
      <trkpt lat="44.74385" lon="5.18891">
        <ele>587</ele>
        <time>2022-12-03T08:49:01Z</time>
      </trkpt>
      <trkpt lat="44.74394" lon="5.18895">
        <ele>589</ele>
        <time>2022-12-03T08:49:01Z</time>
      </trkpt>
      <trkpt lat="44.74402" lon="5.18898">
        <ele>592</ele>
        <time>2022-12-03T08:49:01Z</time>
      </trkpt>
      <trkpt lat="44.74411" lon="5.18899">
        <ele>596</ele>
        <time>2022-12-03T08:49:01Z</time>
      </trkpt>
      <trkpt lat="44.74416" lon="5.18909">
        <ele>595</ele>
        <time>2022-12-03T08:49:01Z</time>
      </trkpt>
      <trkpt lat="44.74415" lon="5.18921">
        <ele>593</ele>
        <time>2022-12-03T08:49:01Z</time>
      </trkpt>
      <trkpt lat="44.74419" lon="5.18947">
        <ele>590</ele>
        <time>2022-12-03T08:49:01Z</time>
      </trkpt>
      <trkpt lat="44.74428" lon="5.18966">
        <ele>590</ele>
        <time>2022-12-03T08:49:01Z</time>
      </trkpt>
      <trkpt lat="44.7443" lon="5.18979">
        <ele>589</ele>
        <time>2022-12-03T08:49:01Z</time>
      </trkpt>
      <trkpt lat="44.74438" lon="5.18998">
        <ele>591</ele>
        <time>2022-12-03T08:49:01Z</time>
      </trkpt>
      <trkpt lat="44.74445" lon="5.19005">
        <ele>594</ele>
        <time>2022-12-03T08:49:01Z</time>
      </trkpt>
      <trkpt lat="44.74447" lon="5.19017">
        <ele>593</ele>
        <time>2022-12-03T08:49:01Z</time>
      </trkpt>
      <trkpt lat="44.74453" lon="5.19027">
        <ele>595</ele>
        <time>2022-12-03T08:49:01Z</time>
      </trkpt>
      <trkpt lat="44.74466" lon="5.1906">
        <ele>597</ele>
        <time>2022-12-03T08:49:01Z</time>
      </trkpt>
      <trkpt lat="44.74476" lon="5.19079">
        <ele>600</ele>
        <time>2022-12-03T08:49:01Z</time>
      </trkpt>
      <trkpt lat="44.7448" lon="5.19104">
        <ele>599</ele>
        <time>2022-12-03T08:49:01Z</time>
      </trkpt>
      <trkpt lat="44.7448" lon="5.19117">
        <ele>597</ele>
        <time>2022-12-03T08:49:01Z</time>
      </trkpt>
      <trkpt lat="44.74488" lon="5.19168">
        <ele>596</ele>
        <time>2022-12-03T08:49:01Z</time>
      </trkpt>
      <trkpt lat="44.74496" lon="5.19187">
        <ele>599</ele>
        <time>2022-12-03T08:49:01Z</time>
      </trkpt>
      <trkpt lat="44.745" lon="5.192">
        <ele>601</ele>
        <time>2022-12-03T08:49:01Z</time>
      </trkpt>
      <trkpt lat="44.74502" lon="5.19213">
        <ele>602</ele>
        <time>2022-12-03T08:49:01Z</time>
      </trkpt>
      <trkpt lat="44.74507" lon="5.19223">
        <ele>604</ele>
        <time>2022-12-03T08:49:01Z</time>
      </trkpt>
      <trkpt lat="44.7451" lon="5.19248">
        <ele>605</ele>
        <time>2022-12-03T08:49:01Z</time>
      </trkpt>
      <trkpt lat="44.74496" lon="5.19276">
        <ele>603</ele>
        <time>2022-12-03T08:49:01Z</time>
      </trkpt>
      <trkpt lat="44.74489" lon="5.19282">
        <ele>601</ele>
        <time>2022-12-03T08:49:01Z</time>
      </trkpt>
      <trkpt lat="44.74475" lon="5.19309">
        <ele>601</ele>
        <time>2022-12-03T08:49:01Z</time>
      </trkpt>
      <trkpt lat="44.74472" lon="5.19322">
        <ele>602</ele>
        <time>2022-12-03T08:49:01Z</time>
      </trkpt>
      <trkpt lat="44.74472" lon="5.19347">
        <ele>602</ele>
        <time>2022-12-03T08:49:01Z</time>
      </trkpt>
      <trkpt lat="44.74476" lon="5.19357">
        <ele>605</ele>
        <time>2022-12-03T08:49:01Z</time>
      </trkpt>
      <trkpt lat="44.7448" lon="5.19366">
        <ele>608</ele>
        <time>2022-12-03T08:49:01Z</time>
      </trkpt>
      <trkpt lat="44.74482" lon="5.19379">
        <ele>610</ele>
        <time>2022-12-03T08:49:01Z</time>
      </trkpt>
      <trkpt lat="44.74486" lon="5.19389">
        <ele>612</ele>
        <time>2022-12-03T08:49:01Z</time>
      </trkpt>
      <trkpt lat="44.74491" lon="5.19399">
        <ele>615</ele>
        <time>2022-12-03T08:49:01Z</time>
      </trkpt>
      <trkpt lat="44.74495" lon="5.19408">
        <ele>618</ele>
        <time>2022-12-03T08:49:01Z</time>
      </trkpt>
      <trkpt lat="44.74502" lon="5.19415">
        <ele>622</ele>
        <time>2022-12-03T08:49:01Z</time>
      </trkpt>
      <trkpt lat="44.74506" lon="5.19425">
        <ele>625</ele>
        <time>2022-12-03T08:49:01Z</time>
      </trkpt>
      <trkpt lat="44.74505" lon="5.19437">
        <ele>625</ele>
        <time>2022-12-03T08:49:01Z</time>
      </trkpt>
      <trkpt lat="44.74507" lon="5.1945">
        <ele>626</ele>
        <time>2022-12-03T08:49:01Z</time>
      </trkpt>
      <trkpt lat="44.74502" lon="5.19475">
        <ele>625</ele>
        <time>2022-12-03T08:49:01Z</time>
      </trkpt>
      <trkpt lat="44.74502" lon="5.19488">
        <ele>625</ele>
        <time>2022-12-03T08:49:01Z</time>
      </trkpt>
      <trkpt lat="44.74504" lon="5.195">
        <ele>627</ele>
        <time>2022-12-03T08:49:01Z</time>
      </trkpt>
      <trkpt lat="44.74508" lon="5.1951">
        <ele>630</ele>
        <time>2022-12-03T08:49:01Z</time>
      </trkpt>
      <trkpt lat="44.74512" lon="5.1952">
        <ele>633</ele>
        <time>2022-12-03T08:49:01Z</time>
      </trkpt>
      <trkpt lat="44.74514" lon="5.19532">
        <ele>634</ele>
        <time>2022-12-03T08:49:01Z</time>
      </trkpt>
      <trkpt lat="44.74518" lon="5.19558">
        <ele>637</ele>
        <time>2022-12-03T08:49:01Z</time>
      </trkpt>
      <trkpt lat="44.74522" lon="5.19568">
        <ele>639</ele>
        <time>2022-12-03T08:49:01Z</time>
      </trkpt>
      <trkpt lat="44.74521" lon="5.19605">
        <ele>637</ele>
        <time>2022-12-03T08:49:01Z</time>
      </trkpt>
      <trkpt lat="44.74519" lon="5.19618">
        <ele>636</ele>
        <time>2022-12-03T08:49:01Z</time>
      </trkpt>
      <trkpt lat="44.74514" lon="5.19627">
        <ele>634</ele>
        <time>2022-12-03T08:49:01Z</time>
      </trkpt>
      <trkpt lat="44.74514" lon="5.1964">
        <ele>633</ele>
        <time>2022-12-03T08:49:01Z</time>
      </trkpt>
      <trkpt lat="44.74518" lon="5.19649">
        <ele>632</ele>
        <time>2022-12-03T08:49:01Z</time>
      </trkpt>
      <trkpt lat="44.74525" lon="5.19656">
        <ele>631</ele>
        <time>2022-12-03T08:49:01Z</time>
      </trkpt>
      <trkpt lat="44.74533" lon="5.1966">
        <ele>633</ele>
        <time>2022-12-03T08:49:01Z</time>
      </trkpt>
      <trkpt lat="44.7454" lon="5.19654">
        <ele>636</ele>
        <time>2022-12-03T08:49:01Z</time>
      </trkpt>
      <trkpt lat="44.74549" lon="5.19651">
        <ele>638</ele>
        <time>2022-12-03T08:49:01Z</time>
      </trkpt>
      <trkpt lat="44.7457" lon="5.19633">
        <ele>642</ele>
        <time>2022-12-03T08:49:01Z</time>
      </trkpt>
      <trkpt lat="44.74579" lon="5.1963">
        <ele>643</ele>
        <time>2022-12-03T08:49:01Z</time>
      </trkpt>
      <trkpt lat="44.74586" lon="5.19624">
        <ele>644</ele>
        <time>2022-12-03T08:49:01Z</time>
      </trkpt>
      <trkpt lat="44.74622" lon="5.19614">
        <ele>646</ele>
        <time>2022-12-03T08:49:01Z</time>
      </trkpt>
      <trkpt lat="44.7464" lon="5.19615">
        <ele>645</ele>
        <time>2022-12-03T08:49:01Z</time>
      </trkpt>
      <trkpt lat="44.74647" lon="5.19621">
        <ele>644</ele>
        <time>2022-12-03T08:49:01Z</time>
      </trkpt>
      <trkpt lat="44.74656" lon="5.19625">
        <ele>643</ele>
        <time>2022-12-03T08:49:01Z</time>
      </trkpt>
      <trkpt lat="44.74662" lon="5.19632">
        <ele>642</ele>
        <time>2022-12-03T08:49:01Z</time>
      </trkpt>
      <trkpt lat="44.74671" lon="5.19635">
        <ele>641</ele>
        <time>2022-12-03T08:49:01Z</time>
      </trkpt>
      <trkpt lat="44.74678" lon="5.19642">
        <ele>640</ele>
        <time>2022-12-03T08:49:01Z</time>
      </trkpt>
      <trkpt lat="44.74687" lon="5.19645">
        <ele>639</ele>
        <time>2022-12-03T08:49:01Z</time>
      </trkpt>
      <trkpt lat="44.74714" lon="5.19647">
        <ele>637</ele>
        <time>2022-12-03T08:49:01Z</time>
      </trkpt>
      <trkpt lat="44.74732" lon="5.19641">
        <ele>638</ele>
        <time>2022-12-03T08:49:01Z</time>
      </trkpt>
      <trkpt lat="44.74739" lon="5.19635">
        <ele>640</ele>
        <time>2022-12-03T08:49:01Z</time>
      </trkpt>
      <trkpt lat="44.74775" lon="5.19625">
        <ele>640</ele>
        <time>2022-12-03T08:49:01Z</time>
      </trkpt>
      <trkpt lat="44.74782" lon="5.19619">
        <ele>641</ele>
        <time>2022-12-03T08:49:01Z</time>
      </trkpt>
      <trkpt lat="44.74787" lon="5.19609">
        <ele>644</ele>
        <time>2022-12-03T08:49:01Z</time>
      </trkpt>
      <trkpt lat="44.74801" lon="5.19598">
        <ele>646</ele>
        <time>2022-12-03T08:49:01Z</time>
      </trkpt>
      <trkpt lat="44.74805" lon="5.19588">
        <ele>648</ele>
        <time>2022-12-03T08:49:01Z</time>
      </trkpt>
      <trkpt lat="44.74812" lon="5.19582">
        <ele>648</ele>
        <time>2022-12-03T08:49:01Z</time>
      </trkpt>
      <trkpt lat="44.74822" lon="5.19564">
        <ele>650</ele>
        <time>2022-12-03T08:49:01Z</time>
      </trkpt>
      <trkpt lat="44.74854" lon="5.19528">
        <ele>649</ele>
        <time>2022-12-03T08:49:01Z</time>
      </trkpt>
      <trkpt lat="44.74863" lon="5.19525">
        <ele>647</ele>
        <time>2022-12-03T08:49:01Z</time>
      </trkpt>
      <trkpt lat="44.74872" lon="5.19522">
        <ele>644</ele>
        <time>2022-12-03T08:49:01Z</time>
      </trkpt>
      <trkpt lat="44.74877" lon="5.19513">
        <ele>643</ele>
        <time>2022-12-03T08:49:01Z</time>
      </trkpt>
      <trkpt lat="44.74884" lon="5.19507">
        <ele>641</ele>
        <time>2022-12-03T08:49:01Z</time>
      </trkpt>
      <trkpt lat="44.74898" lon="5.19479">
        <ele>643</ele>
        <time>2022-12-03T08:49:01Z</time>
      </trkpt>
      <trkpt lat="44.74905" lon="5.19473">
        <ele>643</ele>
        <time>2022-12-03T08:49:01Z</time>
      </trkpt>
      <trkpt lat="44.7491" lon="5.19464">
        <ele>644</ele>
        <time>2022-12-03T08:49:01Z</time>
      </trkpt>
      <trkpt lat="44.74917" lon="5.19458">
        <ele>645</ele>
        <time>2022-12-03T08:49:01Z</time>
      </trkpt>
      <trkpt lat="44.74921" lon="5.19449">
        <ele>645</ele>
        <time>2022-12-03T08:49:01Z</time>
      </trkpt>
      <trkpt lat="44.74935" lon="5.19437">
        <ele>646</ele>
        <time>2022-12-03T08:49:01Z</time>
      </trkpt>
      <trkpt lat="44.74944" lon="5.19438">
        <ele>646</ele>
        <time>2022-12-03T08:49:01Z</time>
      </trkpt>
      <trkpt lat="44.74953" lon="5.19441">
        <ele>646</ele>
        <time>2022-12-03T08:49:01Z</time>
      </trkpt>
      <trkpt lat="44.7497" lon="5.19467">
        <ele>648</ele>
        <time>2022-12-03T08:49:01Z</time>
      </trkpt>
      <trkpt lat="44.74979" lon="5.19471">
        <ele>649</ele>
        <time>2022-12-03T08:49:01Z</time>
      </trkpt>
      <trkpt lat="44.74988" lon="5.19475">
        <ele>651</ele>
        <time>2022-12-03T08:49:01Z</time>
      </trkpt>
      <trkpt lat="44.74997" lon="5.19475">
        <ele>653</ele>
        <time>2022-12-03T08:49:01Z</time>
      </trkpt>
      <trkpt lat="44.75006" lon="5.19472">
        <ele>656</ele>
        <time>2022-12-03T08:49:01Z</time>
      </trkpt>
      <trkpt lat="44.75015" lon="5.1947">
        <ele>659</ele>
        <time>2022-12-03T08:49:01Z</time>
      </trkpt>
      <trkpt lat="44.75024" lon="5.19467">
        <ele>661</ele>
        <time>2022-12-03T08:49:01Z</time>
      </trkpt>
      <trkpt lat="44.75033" lon="5.19467">
        <ele>663</ele>
        <time>2022-12-03T08:49:01Z</time>
      </trkpt>
      <trkpt lat="44.75043" lon="5.19465">
        <ele>666</ele>
        <time>2022-12-03T08:49:01Z</time>
      </trkpt>
      <trkpt lat="44.75052" lon="5.19462">
        <ele>668</ele>
        <time>2022-12-03T08:49:01Z</time>
      </trkpt>
      <trkpt lat="44.7507" lon="5.19463">
        <ele>670</ele>
        <time>2022-12-03T08:49:01Z</time>
      </trkpt>
      <trkpt lat="44.75078" lon="5.19466">
        <ele>670</ele>
        <time>2022-12-03T08:49:01Z</time>
      </trkpt>
      <trkpt lat="44.75087" lon="5.19473">
        <ele>669</ele>
        <time>2022-12-03T08:49:01Z</time>
      </trkpt>
      <trkpt lat="44.75096" lon="5.19477">
        <ele>669</ele>
        <time>2022-12-03T08:49:01Z</time>
      </trkpt>
      <trkpt lat="44.75105" lon="5.19477">
        <ele>671</ele>
        <time>2022-12-03T08:49:01Z</time>
      </trkpt>
      <trkpt lat="44.75114" lon="5.19481">
        <ele>671</ele>
        <time>2022-12-03T08:49:01Z</time>
      </trkpt>
      <trkpt lat="44.75167" lon="5.19534">
        <ele>673</ele>
        <time>2022-12-03T08:49:01Z</time>
      </trkpt>
      <trkpt lat="44.75186" lon="5.19557">
        <ele>675</ele>
        <time>2022-12-03T08:49:01Z</time>
      </trkpt>
      <trkpt lat="44.75191" lon="5.19567">
        <ele>674</ele>
        <time>2022-12-03T08:49:01Z</time>
      </trkpt>
      <trkpt lat="44.75197" lon="5.19574">
        <ele>674</ele>
        <time>2022-12-03T08:49:01Z</time>
      </trkpt>
      <trkpt lat="44.75214" lon="5.19603">
        <ele>672</ele>
        <time>2022-12-03T08:49:01Z</time>
      </trkpt>
      <trkpt lat="44.75221" lon="5.1961">
        <ele>673</ele>
        <time>2022-12-03T08:49:01Z</time>
      </trkpt>
      <trkpt lat="44.75225" lon="5.19619">
        <ele>671</ele>
        <time>2022-12-03T08:49:01Z</time>
      </trkpt>
      <trkpt lat="44.75232" lon="5.19626">
        <ele>671</ele>
        <time>2022-12-03T08:49:01Z</time>
      </trkpt>
      <trkpt lat="44.75236" lon="5.19636">
        <ele>669</ele>
        <time>2022-12-03T08:49:01Z</time>
      </trkpt>
      <trkpt lat="44.75276" lon="5.19675">
        <ele>674</ele>
        <time>2022-12-03T08:49:01Z</time>
      </trkpt>
      <trkpt lat="44.75289" lon="5.19689">
        <ele>677</ele>
        <time>2022-12-03T08:49:01Z</time>
      </trkpt>
      <trkpt lat="44.75295" lon="5.19695">
        <ele>679</ele>
        <time>2022-12-03T08:49:01Z</time>
      </trkpt>
      <trkpt lat="44.75302" lon="5.19702">
        <ele>682</ele>
        <time>2022-12-03T08:49:01Z</time>
      </trkpt>
      <trkpt lat="44.75308" lon="5.19709">
        <ele>684</ele>
        <time>2022-12-03T08:49:01Z</time>
      </trkpt>
      <trkpt lat="44.75308" lon="5.19721">
        <ele>682</ele>
        <time>2022-12-03T08:49:01Z</time>
      </trkpt>
      <trkpt lat="44.75303" lon="5.19734">
        <ele>677</ele>
        <time>2022-12-03T08:49:01Z</time>
      </trkpt>
      <trkpt lat="44.75298" lon="5.19746">
        <ele>673</ele>
        <time>2022-12-03T08:49:01Z</time>
      </trkpt>
      <trkpt lat="44.75298" lon="5.19759">
        <ele>671</ele>
        <time>2022-12-03T08:49:01Z</time>
      </trkpt>
      <trkpt lat="44.75307" lon="5.19781">
        <ele>673</ele>
        <time>2022-12-03T08:49:01Z</time>
      </trkpt>
      <trkpt lat="44.75313" lon="5.19788">
        <ele>676</ele>
        <time>2022-12-03T08:49:01Z</time>
      </trkpt>
      <trkpt lat="44.7532" lon="5.19795">
        <ele>679</ele>
        <time>2022-12-03T08:49:01Z</time>
      </trkpt>
      <trkpt lat="44.75324" lon="5.19804">
        <ele>680</ele>
        <time>2022-12-03T08:49:01Z</time>
      </trkpt>
      <trkpt lat="44.75331" lon="5.19811">
        <ele>682</ele>
        <time>2022-12-03T08:49:01Z</time>
      </trkpt>
      <trkpt lat="44.7537" lon="5.19854">
        <ele>684</ele>
        <time>2022-12-03T08:49:01Z</time>
      </trkpt>
      <trkpt lat="44.75379" lon="5.19858">
        <ele>685</ele>
        <time>2022-12-03T08:49:01Z</time>
      </trkpt>
      <trkpt lat="44.75388" lon="5.19861">
        <ele>687</ele>
        <time>2022-12-03T08:49:01Z</time>
      </trkpt>
      <trkpt lat="44.75421" lon="5.19793">
        <ele>686</ele>
        <time>2022-12-03T08:49:01Z</time>
      </trkpt>
      <trkpt lat="44.7543" lon="5.19775">
        <ele>683</ele>
        <time>2022-12-03T08:49:01Z</time>
      </trkpt>
      <trkpt lat="44.75437" lon="5.19766">
        <ele>680</ele>
        <time>2022-12-03T08:49:01Z</time>
      </trkpt>
      <trkpt lat="44.75447" lon="5.19747">
        <ele>678</ele>
        <time>2022-12-03T08:49:01Z</time>
      </trkpt>
      <trkpt lat="44.75454" lon="5.19741">
        <ele>676</ele>
        <time>2022-12-03T08:49:01Z</time>
      </trkpt>
      <trkpt lat="44.75459" lon="5.19732">
        <ele>676</ele>
        <time>2022-12-03T08:49:01Z</time>
      </trkpt>
      <trkpt lat="44.75465" lon="5.19726">
        <ele>674</ele>
        <time>2022-12-03T08:49:01Z</time>
      </trkpt>
      <trkpt lat="44.75472" lon="5.1972">
        <ele>672</ele>
        <time>2022-12-03T08:49:01Z</time>
      </trkpt>
      <trkpt lat="44.75477" lon="5.19711">
        <ele>673</ele>
        <time>2022-12-03T08:49:01Z</time>
      </trkpt>
      <trkpt lat="44.75477" lon="5.19672">
        <ele>672</ele>
        <time>2022-12-03T08:49:01Z</time>
      </trkpt>
      <trkpt lat="44.75489" lon="5.19696">
        <ele>673</ele>
        <time>2022-12-03T08:49:01Z</time>
      </trkpt>
      <trkpt lat="44.75509" lon="5.19678">
        <ele>670</ele>
        <time>2022-12-03T08:49:01Z</time>
      </trkpt>
      <trkpt lat="44.75519" lon="5.19675">
        <ele>668</ele>
        <time>2022-12-03T08:49:01Z</time>
      </trkpt>
      <trkpt lat="44.75525" lon="5.19669">
        <ele>667</ele>
        <time>2022-12-03T08:49:01Z</time>
      </trkpt>
      <trkpt lat="44.75534" lon="5.1967">
        <ele>664</ele>
        <time>2022-12-03T08:49:01Z</time>
      </trkpt>
      <trkpt lat="44.75536" lon="5.19682">
        <ele>660</ele>
        <time>2022-12-03T08:49:01Z</time>
      </trkpt>
      <trkpt lat="44.75522" lon="5.1971">
        <ele>657</ele>
        <time>2022-12-03T08:49:01Z</time>
      </trkpt>
      <trkpt lat="44.75508" lon="5.19738">
        <ele>653</ele>
        <time>2022-12-03T08:49:01Z</time>
      </trkpt>
      <trkpt lat="44.75494" lon="5.19756">
        <ele>653</ele>
        <time>2022-12-03T08:49:01Z</time>
      </trkpt>
      <trkpt lat="44.75489" lon="5.19765">
        <ele>652</ele>
        <time>2022-12-03T08:49:01Z</time>
      </trkpt>
      <trkpt lat="44.75487" lon="5.19778">
        <ele>651</ele>
        <time>2022-12-03T08:49:01Z</time>
      </trkpt>
      <trkpt lat="44.75482" lon="5.19787">
        <ele>652</ele>
        <time>2022-12-03T08:49:01Z</time>
      </trkpt>
      <trkpt lat="44.75474" lon="5.19825">
        <ele>652</ele>
        <time>2022-12-03T08:49:01Z</time>
      </trkpt>
      <trkpt lat="44.75472" lon="5.19837">
        <ele>654</ele>
        <time>2022-12-03T08:49:01Z</time>
      </trkpt>
      <trkpt lat="44.75471" lon="5.1985">
        <ele>654</ele>
        <time>2022-12-03T08:49:01Z</time>
      </trkpt>
      <trkpt lat="44.75476" lon="5.19859">
        <ele>653</ele>
        <time>2022-12-03T08:49:01Z</time>
      </trkpt>
      <trkpt lat="44.75482" lon="5.19866">
        <ele>650</ele>
        <time>2022-12-03T08:49:01Z</time>
      </trkpt>
      <trkpt lat="44.75491" lon="5.19866">
        <ele>646</ele>
        <time>2022-12-03T08:49:01Z</time>
      </trkpt>
      <trkpt lat="44.755" lon="5.1987">
        <ele>642</ele>
        <time>2022-12-03T08:49:01Z</time>
      </trkpt>
      <trkpt lat="44.75509" lon="5.19871">
        <ele>639</ele>
        <time>2022-12-03T08:49:01Z</time>
      </trkpt>
      <trkpt lat="44.75518" lon="5.19871">
        <ele>635</ele>
        <time>2022-12-03T08:49:01Z</time>
      </trkpt>
      <trkpt lat="44.75527" lon="5.19871">
        <ele>632</ele>
        <time>2022-12-03T08:49:01Z</time>
      </trkpt>
      <trkpt lat="44.75536" lon="5.19875">
        <ele>629</ele>
        <time>2022-12-03T08:49:01Z</time>
      </trkpt>
      <trkpt lat="44.75545" lon="5.19879">
        <ele>627</ele>
        <time>2022-12-03T08:49:01Z</time>
      </trkpt>
      <trkpt lat="44.75551" lon="5.19885">
        <ele>627</ele>
        <time>2022-12-03T08:49:01Z</time>
      </trkpt>
      <trkpt lat="44.7556" lon="5.19889">
        <ele>625</ele>
        <time>2022-12-03T08:49:01Z</time>
      </trkpt>
      <trkpt lat="44.75561" lon="5.19876">
        <ele>621</ele>
        <time>2022-12-03T08:49:01Z</time>
      </trkpt>
      <trkpt lat="44.75554" lon="5.1987">
        <ele>623</ele>
        <time>2022-12-03T08:49:01Z</time>
      </trkpt>
      <trkpt lat="44.7555" lon="5.1986">
        <ele>624</ele>
        <time>2022-12-03T08:49:01Z</time>
      </trkpt>
      <trkpt lat="44.75543" lon="5.19853">
        <ele>626</ele>
        <time>2022-12-03T08:49:01Z</time>
      </trkpt>
      <trkpt lat="44.75535" lon="5.19834">
        <ele>627</ele>
        <time>2022-12-03T08:49:01Z</time>
      </trkpt>
      <trkpt lat="44.75533" lon="5.19821">
        <ele>627</ele>
        <time>2022-12-03T08:49:01Z</time>
      </trkpt>
      <trkpt lat="44.75535" lon="5.19809">
        <ele>627</ele>
        <time>2022-12-03T08:49:01Z</time>
      </trkpt>
      <trkpt lat="44.75568" lon="5.19754">
        <ele>628</ele>
        <time>2022-12-03T08:49:01Z</time>
      </trkpt>
      <trkpt lat="44.75582" lon="5.19726">
        <ele>632</ele>
        <time>2022-12-03T08:49:01Z</time>
      </trkpt>
      <trkpt lat="44.75589" lon="5.1972">
        <ele>631</ele>
        <time>2022-12-03T08:49:01Z</time>
      </trkpt>
      <trkpt lat="44.75599" lon="5.19701">
        <ele>632</ele>
        <time>2022-12-03T08:49:01Z</time>
      </trkpt>
      <trkpt lat="44.75606" lon="5.19695">
        <ele>631</ele>
        <time>2022-12-03T08:49:01Z</time>
      </trkpt>
      <trkpt lat="44.75627" lon="5.19671">
        <ele>629</ele>
        <time>2022-12-03T08:49:01Z</time>
      </trkpt>
      <trkpt lat="44.75646" lon="5.19634">
        <ele>633</ele>
        <time>2022-12-03T08:49:01Z</time>
      </trkpt>
      <trkpt lat="44.75653" lon="5.19628">
        <ele>632</ele>
        <time>2022-12-03T08:49:01Z</time>
      </trkpt>
      <trkpt lat="44.75662" lon="5.1961">
        <ele>634</ele>
        <time>2022-12-03T08:49:01Z</time>
      </trkpt>
      <trkpt lat="44.75669" lon="5.19604">
        <ele>633</ele>
        <time>2022-12-03T08:49:01Z</time>
      </trkpt>
      <trkpt lat="44.75674" lon="5.19595">
        <ele>634</ele>
        <time>2022-12-03T08:49:01Z</time>
      </trkpt>
      <trkpt lat="44.75688" lon="5.19567">
        <ele>638</ele>
        <time>2022-12-03T08:49:01Z</time>
      </trkpt>
      <trkpt lat="44.75695" lon="5.19561">
        <ele>636</ele>
        <time>2022-12-03T08:49:01Z</time>
      </trkpt>
      <trkpt lat="44.75709" lon="5.19549">
        <ele>633</ele>
        <time>2022-12-03T08:49:01Z</time>
      </trkpt>
      <trkpt lat="44.75715" lon="5.19543">
        <ele>631</ele>
        <time>2022-12-03T08:49:01Z</time>
      </trkpt>
      <trkpt lat="44.75722" lon="5.19537">
        <ele>629</ele>
        <time>2022-12-03T08:49:01Z</time>
      </trkpt>
      <trkpt lat="44.75727" lon="5.19528">
        <ele>628</ele>
        <time>2022-12-03T08:49:01Z</time>
      </trkpt>
      <trkpt lat="44.7573" lon="5.19516">
        <ele>628</ele>
        <time>2022-12-03T08:49:01Z</time>
      </trkpt>
      <trkpt lat="44.7573" lon="5.19503">
        <ele>628</ele>
        <time>2022-12-03T08:49:01Z</time>
      </trkpt>
      <trkpt lat="44.75722" lon="5.19484">
        <ele>627</ele>
        <time>2022-12-03T08:49:01Z</time>
      </trkpt>
      <trkpt lat="44.75702" lon="5.19464">
        <ele>628</ele>
        <time>2022-12-03T08:49:01Z</time>
      </trkpt>
      <trkpt lat="44.75693" lon="5.1946">
        <ele>630</ele>
        <time>2022-12-03T08:49:01Z</time>
      </trkpt>
      <trkpt lat="44.7568" lon="5.19447">
        <ele>631</ele>
        <time>2022-12-03T08:49:01Z</time>
      </trkpt>
      <trkpt lat="44.75675" lon="5.19437">
        <ele>630</ele>
        <time>2022-12-03T08:49:01Z</time>
      </trkpt>
      <trkpt lat="44.75674" lon="5.19424">
        <ele>629</ele>
        <time>2022-12-03T08:49:01Z</time>
      </trkpt>
      <trkpt lat="44.75669" lon="5.19411">
        <ele>628</ele>
        <time>2022-12-03T08:49:01Z</time>
      </trkpt>
      <trkpt lat="44.7567" lon="5.19399">
        <ele>626</ele>
        <time>2022-12-03T08:49:01Z</time>
      </trkpt>
      <trkpt lat="44.75665" lon="5.19389">
        <ele>627</ele>
        <time>2022-12-03T08:49:01Z</time>
      </trkpt>
      <trkpt lat="44.75662" lon="5.19364">
        <ele>625</ele>
        <time>2022-12-03T08:49:01Z</time>
      </trkpt>
      <trkpt lat="44.7564" lon="5.19312">
        <ele>624</ele>
        <time>2022-12-03T08:49:01Z</time>
      </trkpt>
      <trkpt lat="44.75634" lon="5.19305">
        <ele>624</ele>
        <time>2022-12-03T08:49:01Z</time>
      </trkpt>
      <trkpt lat="44.75627" lon="5.19299">
        <ele>622</ele>
        <time>2022-12-03T08:49:01Z</time>
      </trkpt>
      <trkpt lat="44.75618" lon="5.19298">
        <ele>621</ele>
        <time>2022-12-03T08:49:01Z</time>
      </trkpt>
      <trkpt lat="44.75609" lon="5.19295">
        <ele>619</ele>
        <time>2022-12-03T08:49:01Z</time>
      </trkpt>
      <trkpt lat="44.756" lon="5.19294">
        <ele>619</ele>
        <time>2022-12-03T08:49:01Z</time>
      </trkpt>
      <trkpt lat="44.75591" lon="5.19297">
        <ele>619</ele>
        <time>2022-12-03T08:49:01Z</time>
      </trkpt>
      <trkpt lat="44.75571" lon="5.19315">
        <ele>619</ele>
        <time>2022-12-03T08:49:01Z</time>
      </trkpt>
      <trkpt lat="44.75566" lon="5.19324">
        <ele>621</ele>
        <time>2022-12-03T08:49:01Z</time>
      </trkpt>
      <trkpt lat="44.75559" lon="5.1933">
        <ele>622</ele>
        <time>2022-12-03T08:49:01Z</time>
      </trkpt>
      <trkpt lat="44.75554" lon="5.19339">
        <ele>624</ele>
        <time>2022-12-03T08:49:01Z</time>
      </trkpt>
      <trkpt lat="44.75547" lon="5.19345">
        <ele>624</ele>
        <time>2022-12-03T08:49:01Z</time>
      </trkpt>
      <trkpt lat="44.75543" lon="5.19354">
        <ele>627</ele>
        <time>2022-12-03T08:49:01Z</time>
      </trkpt>
      <trkpt lat="44.75538" lon="5.19364">
        <ele>629</ele>
        <time>2022-12-03T08:49:01Z</time>
      </trkpt>
      <trkpt lat="44.75503" lon="5.19397">
        <ele>628</ele>
        <time>2022-12-03T08:49:01Z</time>
      </trkpt>
      <trkpt lat="44.75467" lon="5.19407">
        <ele>628</ele>
        <time>2022-12-03T08:49:01Z</time>
      </trkpt>
      <trkpt lat="44.75413" lon="5.19405">
        <ele>630</ele>
        <time>2022-12-03T08:49:01Z</time>
      </trkpt>
      <trkpt lat="44.75404" lon="5.19401">
        <ele>630</ele>
        <time>2022-12-03T08:49:01Z</time>
      </trkpt>
      <trkpt lat="44.75384" lon="5.19381">
        <ele>633</ele>
        <time>2022-12-03T08:49:01Z</time>
      </trkpt>
      <trkpt lat="44.75383" lon="5.19368">
        <ele>632</ele>
        <time>2022-12-03T08:49:01Z</time>
      </trkpt>
      <trkpt lat="44.75385" lon="5.19267">
        <ele>636</ele>
        <time>2022-12-03T08:49:01Z</time>
      </trkpt>
      <trkpt lat="44.7539" lon="5.19242">
        <ele>635</ele>
        <time>2022-12-03T08:49:01Z</time>
      </trkpt>
      <trkpt lat="44.75395" lon="5.19233">
        <ele>633</ele>
        <time>2022-12-03T08:49:01Z</time>
      </trkpt>
      <trkpt lat="44.75403" lon="5.19196">
        <ele>630</ele>
        <time>2022-12-03T08:49:01Z</time>
      </trkpt>
      <trkpt lat="44.75403" lon="5.1917">
        <ele>630</ele>
        <time>2022-12-03T08:49:01Z</time>
      </trkpt>
      <trkpt lat="44.75404" lon="5.19158">
        <ele>628</ele>
        <time>2022-12-03T08:49:01Z</time>
      </trkpt>
      <trkpt lat="44.75402" lon="5.19145">
        <ele>627</ele>
        <time>2022-12-03T08:49:01Z</time>
      </trkpt>
      <trkpt lat="44.75402" lon="5.19132">
        <ele>626</ele>
        <time>2022-12-03T08:49:01Z</time>
      </trkpt>
      <trkpt lat="44.75389" lon="5.191">
        <ele>625</ele>
        <time>2022-12-03T08:49:01Z</time>
      </trkpt>
      <trkpt lat="44.75383" lon="5.19094">
        <ele>626</ele>
        <time>2022-12-03T08:49:01Z</time>
      </trkpt>
      <trkpt lat="44.7537" lon="5.1908">
        <ele>629</ele>
        <time>2022-12-03T08:49:01Z</time>
      </trkpt>
      <trkpt lat="44.75365" lon="5.19071">
        <ele>628</ele>
        <time>2022-12-03T08:49:01Z</time>
      </trkpt>
      <trkpt lat="44.75359" lon="5.19064">
        <ele>630</ele>
        <time>2022-12-03T08:49:01Z</time>
      </trkpt>
      <trkpt lat="44.7535" lon="5.19045">
        <ele>630</ele>
        <time>2022-12-03T08:49:01Z</time>
      </trkpt>
      <trkpt lat="44.75351" lon="5.19019">
        <ele>632</ele>
        <time>2022-12-03T08:49:01Z</time>
      </trkpt>
      <trkpt lat="44.7537" lon="5.18979">
        <ele>630</ele>
        <time>2022-12-03T08:49:01Z</time>
      </trkpt>
      <trkpt lat="44.75384" lon="5.18961">
        <ele>630</ele>
        <time>2022-12-03T08:49:01Z</time>
      </trkpt>
      <trkpt lat="44.75389" lon="5.18952">
        <ele>632</ele>
        <time>2022-12-03T08:49:01Z</time>
      </trkpt>
      <trkpt lat="44.75403" lon="5.1894">
        <ele>631</ele>
        <time>2022-12-03T08:49:01Z</time>
      </trkpt>
      <trkpt lat="44.75407" lon="5.18931">
        <ele>632</ele>
        <time>2022-12-03T08:49:01Z</time>
      </trkpt>
      <trkpt lat="44.75522" lon="5.18835">
        <ele>627</ele>
        <time>2022-12-03T08:49:01Z</time>
      </trkpt>
      <trkpt lat="44.75527" lon="5.18826">
        <ele>627</ele>
        <time>2022-12-03T08:49:01Z</time>
      </trkpt>
      <trkpt lat="44.75562" lon="5.18793">
        <ele>624</ele>
        <time>2022-12-03T08:49:01Z</time>
      </trkpt>
      <trkpt lat="44.75575" lon="5.18781">
        <ele>621</ele>
        <time>2022-12-03T08:49:01Z</time>
      </trkpt>
      <trkpt lat="44.75582" lon="5.18775">
        <ele>619</ele>
        <time>2022-12-03T08:49:01Z</time>
      </trkpt>
      <trkpt lat="44.75598" lon="5.18764">
        <ele>616</ele>
        <time>2022-12-03T08:49:01Z</time>
      </trkpt>
      <trkpt lat="44.75608" lon="5.18745">
        <ele>616</ele>
        <time>2022-12-03T08:49:01Z</time>
      </trkpt>
      <trkpt lat="44.7561" lon="5.18733">
        <ele>615</ele>
        <time>2022-12-03T08:49:01Z</time>
      </trkpt>
      <trkpt lat="44.75611" lon="5.1872">
        <ele>614</ele>
        <time>2022-12-03T08:49:01Z</time>
      </trkpt>
      <trkpt lat="44.75591" lon="5.18697">
        <ele>617</ele>
        <time>2022-12-03T08:49:01Z</time>
      </trkpt>
      <trkpt lat="44.75578" lon="5.18684">
        <ele>620</ele>
        <time>2022-12-03T08:49:01Z</time>
      </trkpt>
      <trkpt lat="44.75565" lon="5.18655">
        <ele>618</ele>
        <time>2022-12-03T08:49:01Z</time>
      </trkpt>
      <trkpt lat="44.75539" lon="5.18628">
        <ele>618</ele>
        <time>2022-12-03T08:49:01Z</time>
      </trkpt>
      <trkpt lat="44.7553" lon="5.18624">
        <ele>619</ele>
        <time>2022-12-03T08:49:01Z</time>
      </trkpt>
      <trkpt lat="44.75517" lon="5.18611">
        <ele>619</ele>
        <time>2022-12-03T08:49:01Z</time>
      </trkpt>
      <trkpt lat="44.75502" lon="5.18582">
        <ele>616</ele>
        <time>2022-12-03T08:49:01Z</time>
      </trkpt>
      <trkpt lat="44.75482" lon="5.18562">
        <ele>614</ele>
        <time>2022-12-03T08:49:01Z</time>
      </trkpt>
      <trkpt lat="44.75478" lon="5.18552">
        <ele>613</ele>
        <time>2022-12-03T08:49:01Z</time>
      </trkpt>
      <trkpt lat="44.75471" lon="5.18546">
        <ele>611</ele>
        <time>2022-12-03T08:49:01Z</time>
      </trkpt>
      <trkpt lat="44.75472" lon="5.18533">
        <ele>609</ele>
        <time>2022-12-03T08:49:01Z</time>
      </trkpt>
      <trkpt lat="44.75474" lon="5.1852">
        <ele>608</ele>
        <time>2022-12-03T08:49:01Z</time>
      </trkpt>
      <trkpt lat="44.75484" lon="5.18502">
        <ele>607</ele>
        <time>2022-12-03T08:49:01Z</time>
      </trkpt>
      <trkpt lat="44.75491" lon="5.18496">
        <ele>607</ele>
        <time>2022-12-03T08:49:01Z</time>
      </trkpt>
      <trkpt lat="44.75495" lon="5.18487">
        <ele>607</ele>
        <time>2022-12-03T08:49:01Z</time>
      </trkpt>
      <trkpt lat="44.75509" lon="5.18475">
        <ele>607</ele>
        <time>2022-12-03T08:49:01Z</time>
      </trkpt>
      <trkpt lat="44.75512" lon="5.18462">
        <ele>606</ele>
        <time>2022-12-03T08:49:01Z</time>
      </trkpt>
      <trkpt lat="44.75539" lon="5.18435">
        <ele>607</ele>
        <time>2022-12-03T08:49:01Z</time>
      </trkpt>
      <trkpt lat="44.75544" lon="5.18426">
        <ele>607</ele>
        <time>2022-12-03T08:49:01Z</time>
      </trkpt>
      <trkpt lat="44.75565" lon="5.18408">
        <ele>607</ele>
        <time>2022-12-03T08:49:01Z</time>
      </trkpt>
      <trkpt lat="44.7557" lon="5.18399">
        <ele>607</ele>
        <time>2022-12-03T08:49:01Z</time>
      </trkpt>
      <trkpt lat="44.75604" lon="5.18366">
        <ele>604</ele>
        <time>2022-12-03T08:49:01Z</time>
      </trkpt>
      <trkpt lat="44.7563" lon="5.1832">
        <ele>600</ele>
        <time>2022-12-03T08:49:01Z</time>
      </trkpt>
      <trkpt lat="44.75638" lon="5.18282">
        <ele>597</ele>
        <time>2022-12-03T08:49:01Z</time>
      </trkpt>
      <trkpt lat="44.75643" lon="5.18273">
        <ele>597</ele>
        <time>2022-12-03T08:49:01Z</time>
      </trkpt>
      <trkpt lat="44.75645" lon="5.18261">
        <ele>596</ele>
        <time>2022-12-03T08:49:01Z</time>
      </trkpt>
      <trkpt lat="44.75646" lon="5.18223">
        <ele>593</ele>
        <time>2022-12-03T08:49:01Z</time>
      </trkpt>
      <trkpt lat="44.75654" lon="5.18185">
        <ele>594</ele>
        <time>2022-12-03T08:49:01Z</time>
      </trkpt>
      <trkpt lat="44.75654" lon="5.18173">
        <ele>594</ele>
        <time>2022-12-03T08:49:01Z</time>
      </trkpt>
      <trkpt lat="44.75657" lon="5.1816">
        <ele>596</ele>
        <time>2022-12-03T08:49:01Z</time>
      </trkpt>
      <trkpt lat="44.75653" lon="5.18135">
        <ele>597</ele>
        <time>2022-12-03T08:49:01Z</time>
      </trkpt>
      <trkpt lat="44.75649" lon="5.18125">
        <ele>596</ele>
        <time>2022-12-03T08:49:01Z</time>
      </trkpt>
      <trkpt lat="44.75642" lon="5.18118">
        <ele>595</ele>
        <time>2022-12-03T08:49:01Z</time>
      </trkpt>
      <trkpt lat="44.75638" lon="5.18109">
        <ele>595</ele>
        <time>2022-12-03T08:49:01Z</time>
      </trkpt>
      <trkpt lat="44.75631" lon="5.18102">
        <ele>594</ele>
        <time>2022-12-03T08:49:01Z</time>
      </trkpt>
      <trkpt lat="44.75627" lon="5.18092">
        <ele>595</ele>
        <time>2022-12-03T08:49:01Z</time>
      </trkpt>
      <trkpt lat="44.75625" lon="5.1808">
        <ele>597</ele>
        <time>2022-12-03T08:49:01Z</time>
      </trkpt>
      <trkpt lat="44.75621" lon="5.1807">
        <ele>598</ele>
        <time>2022-12-03T08:49:01Z</time>
      </trkpt>
      <trkpt lat="44.75592" lon="5.18043">
        <ele>596</ele>
        <time>2022-12-03T08:49:01Z</time>
      </trkpt>
      <trkpt lat="44.75574" lon="5.18036">
        <ele>594</ele>
        <time>2022-12-03T08:49:01Z</time>
      </trkpt>
      <trkpt lat="44.75568" lon="5.18029">
        <ele>593</ele>
        <time>2022-12-03T08:49:01Z</time>
      </trkpt>
      <trkpt lat="44.75555" lon="5.18">
        <ele>597</ele>
        <time>2022-12-03T08:49:01Z</time>
      </trkpt>
      <trkpt lat="44.75542" lon="5.17984">
        <ele>597</ele>
        <time>2022-12-03T08:49:01Z</time>
      </trkpt>
      <trkpt lat="44.75531" lon="5.17964">
        <ele>599</ele>
        <time>2022-12-03T08:49:01Z</time>
      </trkpt>
      <trkpt lat="44.75525" lon="5.17958">
        <ele>599</ele>
        <time>2022-12-03T08:49:01Z</time>
      </trkpt>
      <trkpt lat="44.75516" lon="5.17938">
        <ele>600</ele>
        <time>2022-12-03T08:49:01Z</time>
      </trkpt>
      <trkpt lat="44.7551" lon="5.17932">
        <ele>599</ele>
        <time>2022-12-03T08:49:01Z</time>
      </trkpt>
      <trkpt lat="44.75497" lon="5.17903">
        <ele>600</ele>
        <time>2022-12-03T08:49:01Z</time>
      </trkpt>
      <trkpt lat="44.75495" lon="5.1789">
        <ele>601</ele>
        <time>2022-12-03T08:49:01Z</time>
      </trkpt>
      <trkpt lat="44.75491" lon="5.17864">
        <ele>604</ele>
        <time>2022-12-03T08:49:01Z</time>
      </trkpt>
      <trkpt lat="44.75487" lon="5.17839">
        <ele>606</ele>
        <time>2022-12-03T08:49:01Z</time>
      </trkpt>
      <trkpt lat="44.75449" lon="5.17752">
        <ele>603</ele>
        <time>2022-12-03T08:49:01Z</time>
      </trkpt>
      <trkpt lat="44.75447" lon="5.17739">
        <ele>603</ele>
        <time>2022-12-03T08:49:01Z</time>
      </trkpt>
      <trkpt lat="44.75441" lon="5.17732">
        <ele>601</ele>
        <time>2022-12-03T08:49:01Z</time>
      </trkpt>
      <trkpt lat="44.75439" lon="5.1772">
        <ele>601</ele>
        <time>2022-12-03T08:49:01Z</time>
      </trkpt>
      <trkpt lat="44.75432" lon="5.17713">
        <ele>600</ele>
        <time>2022-12-03T08:49:01Z</time>
      </trkpt>
      <trkpt lat="44.75402" lon="5.17639">
        <ele>602</ele>
        <time>2022-12-03T08:49:01Z</time>
      </trkpt>
      <trkpt lat="44.75401" lon="5.17626">
        <ele>602</ele>
        <time>2022-12-03T08:49:01Z</time>
      </trkpt>
      <trkpt lat="44.75392" lon="5.17607">
        <ele>603</ele>
        <time>2022-12-03T08:49:01Z</time>
      </trkpt>
      <trkpt lat="44.75379" lon="5.17594">
        <ele>603</ele>
        <time>2022-12-03T08:49:01Z</time>
      </trkpt>
      <trkpt lat="44.7537" lon="5.1759">
        <ele>602</ele>
        <time>2022-12-03T08:49:01Z</time>
      </trkpt>
      <trkpt lat="44.75363" lon="5.17583">
        <ele>602</ele>
        <time>2022-12-03T08:49:01Z</time>
      </trkpt>
      <trkpt lat="44.75359" lon="5.17574">
        <ele>602</ele>
        <time>2022-12-03T08:49:01Z</time>
      </trkpt>
      <trkpt lat="44.75353" lon="5.17567">
        <ele>601</ele>
        <time>2022-12-03T08:49:01Z</time>
      </trkpt>
      <trkpt lat="44.75348" lon="5.17557">
        <ele>601</ele>
        <time>2022-12-03T08:49:01Z</time>
      </trkpt>
      <trkpt lat="44.75346" lon="5.17545">
        <ele>602</ele>
        <time>2022-12-03T08:49:01Z</time>
      </trkpt>
      <trkpt lat="44.75347" lon="5.17532">
        <ele>603</ele>
        <time>2022-12-03T08:49:01Z</time>
      </trkpt>
      <trkpt lat="44.75343" lon="5.17519">
        <ele>602</ele>
        <time>2022-12-03T08:49:01Z</time>
      </trkpt>
      <trkpt lat="44.75341" lon="5.17506">
        <ele>602</ele>
        <time>2022-12-03T08:49:01Z</time>
      </trkpt>
      <trkpt lat="44.75328" lon="5.17477">
        <ele>601</ele>
        <time>2022-12-03T08:49:01Z</time>
      </trkpt>
      <trkpt lat="44.75321" lon="5.17471">
        <ele>600</ele>
        <time>2022-12-03T08:49:01Z</time>
      </trkpt>
      <trkpt lat="44.75304" lon="5.17429">
        <ele>599</ele>
        <time>2022-12-03T08:49:01Z</time>
      </trkpt>
      <trkpt lat="44.75291" lon="5.17412">
        <ele>599</ele>
        <time>2022-12-03T08:49:01Z</time>
      </trkpt>
      <trkpt lat="44.75287" lon="5.17403">
        <ele>601</ele>
        <time>2022-12-03T08:49:01Z</time>
      </trkpt>
      <trkpt lat="44.75274" lon="5.17389">
        <ele>600</ele>
        <time>2022-12-03T08:49:01Z</time>
      </trkpt>
      <trkpt lat="44.7527" lon="5.1738">
        <ele>600</ele>
        <time>2022-12-03T08:49:01Z</time>
      </trkpt>
      <trkpt lat="44.75263" lon="5.17373">
        <ele>600</ele>
        <time>2022-12-03T08:49:01Z</time>
      </trkpt>
      <trkpt lat="44.7525" lon="5.17344">
        <ele>602</ele>
        <time>2022-12-03T08:49:01Z</time>
      </trkpt>
      <trkpt lat="44.75248" lon="5.17331">
        <ele>603</ele>
        <time>2022-12-03T08:49:01Z</time>
      </trkpt>
      <trkpt lat="44.75236" lon="5.17302">
        <ele>601</ele>
        <time>2022-12-03T08:49:01Z</time>
      </trkpt>
      <trkpt lat="44.75241" lon="5.17277">
        <ele>602</ele>
        <time>2022-12-03T08:49:01Z</time>
      </trkpt>
      <trkpt lat="44.75245" lon="5.17268">
        <ele>601</ele>
        <time>2022-12-03T08:49:01Z</time>
      </trkpt>
      <trkpt lat="44.75246" lon="5.17255">
        <ele>599</ele>
        <time>2022-12-03T08:49:01Z</time>
      </trkpt>
      <trkpt lat="44.75248" lon="5.17243">
        <ele>596</ele>
        <time>2022-12-03T08:49:01Z</time>
      </trkpt>
      <trkpt lat="44.75253" lon="5.17234">
        <ele>594</ele>
        <time>2022-12-03T08:49:01Z</time>
      </trkpt>
      <trkpt lat="44.75256" lon="5.17221">
        <ele>592</ele>
        <time>2022-12-03T08:49:01Z</time>
      </trkpt>
      <trkpt lat="44.75258" lon="5.17209">
        <ele>589</ele>
        <time>2022-12-03T08:49:01Z</time>
      </trkpt>
      <trkpt lat="44.75261" lon="5.17196">
        <ele>586</ele>
        <time>2022-12-03T08:49:01Z</time>
      </trkpt>
      <trkpt lat="44.75266" lon="5.17187">
        <ele>584</ele>
        <time>2022-12-03T08:49:01Z</time>
      </trkpt>
      <trkpt lat="44.75272" lon="5.17181">
        <ele>582</ele>
        <time>2022-12-03T08:49:01Z</time>
      </trkpt>
      <trkpt lat="44.75277" lon="5.17172">
        <ele>580</ele>
        <time>2022-12-03T08:49:01Z</time>
      </trkpt>
      <trkpt lat="44.7528" lon="5.17159">
        <ele>577</ele>
        <time>2022-12-03T08:49:01Z</time>
      </trkpt>
      <trkpt lat="44.75276" lon="5.17149">
        <ele>575</ele>
        <time>2022-12-03T08:49:01Z</time>
      </trkpt>
      <trkpt lat="44.75271" lon="5.1714">
        <ele>573</ele>
        <time>2022-12-03T08:49:01Z</time>
      </trkpt>
      <trkpt lat="44.75267" lon="5.1713">
        <ele>570</ele>
        <time>2022-12-03T08:49:01Z</time>
      </trkpt>
      <trkpt lat="44.75263" lon="5.1712">
        <ele>568</ele>
        <time>2022-12-03T08:49:01Z</time>
      </trkpt>
      <trkpt lat="44.75256" lon="5.17114">
        <ele>566</ele>
        <time>2022-12-03T08:49:01Z</time>
      </trkpt>
      <trkpt lat="44.75242" lon="5.17126">
        <ele>567</ele>
        <time>2022-12-03T08:49:01Z</time>
      </trkpt>
      <trkpt lat="44.75236" lon="5.17119">
        <ele>566</ele>
        <time>2022-12-03T08:49:01Z</time>
      </trkpt>
      <trkpt lat="44.75232" lon="5.17109">
        <ele>564</ele>
        <time>2022-12-03T08:49:01Z</time>
      </trkpt>
      <trkpt lat="44.75223" lon="5.1709">
        <ele>561</ele>
        <time>2022-12-03T08:49:01Z</time>
      </trkpt>
      <trkpt lat="44.75215" lon="5.17071">
        <ele>558</ele>
        <time>2022-12-03T08:49:01Z</time>
      </trkpt>
      <trkpt lat="44.75215" lon="5.17058">
        <ele>556</ele>
        <time>2022-12-03T08:49:01Z</time>
      </trkpt>
      <trkpt lat="44.75213" lon="5.17045">
        <ele>554</ele>
        <time>2022-12-03T08:49:01Z</time>
      </trkpt>
      <trkpt lat="44.75211" lon="5.17032">
        <ele>552</ele>
        <time>2022-12-03T08:49:01Z</time>
      </trkpt>
      <trkpt lat="44.75207" lon="5.17023">
        <ele>550</ele>
        <time>2022-12-03T08:49:01Z</time>
      </trkpt>
      <trkpt lat="44.75203" lon="5.17013">
        <ele>548</ele>
        <time>2022-12-03T08:49:01Z</time>
      </trkpt>
      <trkpt lat="44.75198" lon="5.17003">
        <ele>545</ele>
        <time>2022-12-03T08:49:01Z</time>
      </trkpt>
      <trkpt lat="44.75194" lon="5.16994">
        <ele>542</ele>
        <time>2022-12-03T08:49:01Z</time>
      </trkpt>
      <trkpt lat="44.7519" lon="5.16984">
        <ele>539</ele>
        <time>2022-12-03T08:49:01Z</time>
      </trkpt>
      <trkpt lat="44.75186" lon="5.16974">
        <ele>536</ele>
        <time>2022-12-03T08:49:01Z</time>
      </trkpt>
      <trkpt lat="44.75181" lon="5.16965">
        <ele>533</ele>
        <time>2022-12-03T08:49:01Z</time>
      </trkpt>
      <trkpt lat="44.75177" lon="5.16952">
        <ele>529</ele>
        <time>2022-12-03T08:49:01Z</time>
      </trkpt>
      <trkpt lat="44.75173" lon="5.16942">
        <ele>526</ele>
        <time>2022-12-03T08:49:01Z</time>
      </trkpt>
      <trkpt lat="44.75178" lon="5.16933">
        <ele>523</ele>
        <time>2022-12-03T08:49:01Z</time>
      </trkpt>
      <trkpt lat="44.75178" lon="5.1692">
        <ele>520</ele>
        <time>2022-12-03T08:49:01Z</time>
      </trkpt>
      <trkpt lat="44.75174" lon="5.16911">
        <ele>517</ele>
        <time>2022-12-03T08:49:01Z</time>
      </trkpt>
      <trkpt lat="44.75169" lon="5.16901">
        <ele>514</ele>
        <time>2022-12-03T08:49:01Z</time>
      </trkpt>
      <trkpt lat="44.75165" lon="5.16891">
        <ele>511</ele>
        <time>2022-12-03T08:49:01Z</time>
      </trkpt>
      <trkpt lat="44.75163" lon="5.16878">
        <ele>507</ele>
        <time>2022-12-03T08:49:01Z</time>
      </trkpt>
      <trkpt lat="44.75161" lon="5.16866">
        <ele>504</ele>
        <time>2022-12-03T08:49:01Z</time>
      </trkpt>
      <trkpt lat="44.75159" lon="5.16853">
        <ele>500</ele>
        <time>2022-12-03T08:49:01Z</time>
      </trkpt>
      <trkpt lat="44.75157" lon="5.1684">
        <ele>497</ele>
        <time>2022-12-03T08:49:01Z</time>
      </trkpt>
      <trkpt lat="44.75158" lon="5.16828">
        <ele>493</ele>
        <time>2022-12-03T08:49:01Z</time>
      </trkpt>
      <trkpt lat="44.75156" lon="5.16815">
        <ele>493</ele>
        <time>2022-12-03T08:49:01Z</time>
      </trkpt>
      <trkpt lat="44.75157" lon="5.16777">
        <ele>493</ele>
        <time>2022-12-03T08:49:01Z</time>
      </trkpt>
      <trkpt lat="44.7515" lon="5.1677">
        <ele>492</ele>
        <time>2022-12-03T08:49:01Z</time>
      </trkpt>
      <trkpt lat="44.75141" lon="5.16773">
        <ele>491</ele>
        <time>2022-12-03T08:49:01Z</time>
      </trkpt>
      <trkpt lat="44.75136" lon="5.16782">
        <ele>491</ele>
        <time>2022-12-03T08:49:01Z</time>
      </trkpt>
      <trkpt lat="44.75136" lon="5.16795">
        <ele>491</ele>
        <time>2022-12-03T08:49:01Z</time>
      </trkpt>
      <trkpt lat="44.75134" lon="5.16807">
        <ele>490</ele>
        <time>2022-12-03T08:49:01Z</time>
      </trkpt>
      <trkpt lat="44.75129" lon="5.1682">
        <ele>490</ele>
        <time>2022-12-03T08:49:01Z</time>
      </trkpt>
      <trkpt lat="44.75126" lon="5.16832">
        <ele>491</ele>
        <time>2022-12-03T08:49:01Z</time>
      </trkpt>
      <trkpt lat="44.75121" lon="5.16842">
        <ele>492</ele>
        <time>2022-12-03T08:49:01Z</time>
      </trkpt>
      <trkpt lat="44.75117" lon="5.16851">
        <ele>494</ele>
        <time>2022-12-03T08:49:01Z</time>
      </trkpt>
      <trkpt lat="44.75103" lon="5.16863">
        <ele>493</ele>
        <time>2022-12-03T08:49:01Z</time>
      </trkpt>
      <trkpt lat="44.75094" lon="5.16862">
        <ele>491</ele>
        <time>2022-12-03T08:49:01Z</time>
      </trkpt>
      <trkpt lat="44.75087" lon="5.16868">
        <ele>491</ele>
        <time>2022-12-03T08:49:01Z</time>
      </trkpt>
      <trkpt lat="44.75078" lon="5.16865">
        <ele>488</ele>
        <time>2022-12-03T08:49:01Z</time>
      </trkpt>
      <trkpt lat="44.75069" lon="5.16864">
        <ele>486</ele>
        <time>2022-12-03T08:49:01Z</time>
      </trkpt>
      <trkpt lat="44.7506" lon="5.16861">
        <ele>484</ele>
        <time>2022-12-03T08:49:01Z</time>
      </trkpt>
      <trkpt lat="44.75042" lon="5.1686">
        <ele>481</ele>
        <time>2022-12-03T08:49:01Z</time>
      </trkpt>
      <trkpt lat="44.75022" lon="5.16878">
        <ele>481</ele>
        <time>2022-12-03T08:49:01Z</time>
      </trkpt>
      <trkpt lat="44.75002" lon="5.16918">
        <ele>484</ele>
        <time>2022-12-03T08:49:01Z</time>
      </trkpt>
      <trkpt lat="44.74993" lon="5.1692">
        <ele>484</ele>
        <time>2022-12-03T08:49:01Z</time>
      </trkpt>
      <trkpt lat="44.74985" lon="5.16914">
        <ele>481</ele>
        <time>2022-12-03T08:49:01Z</time>
      </trkpt>
      <trkpt lat="44.74978" lon="5.16907">
        <ele>479</ele>
        <time>2022-12-03T08:49:01Z</time>
      </trkpt>
      <trkpt lat="44.74969" lon="5.16907">
        <ele>479</ele>
        <time>2022-12-03T08:49:01Z</time>
      </trkpt>
      <trkpt lat="44.7496" lon="5.16909">
        <ele>479</ele>
        <time>2022-12-03T08:49:01Z</time>
      </trkpt>
      <trkpt lat="44.74955" lon="5.16918">
        <ele>481</ele>
        <time>2022-12-03T08:49:01Z</time>
      </trkpt>
      <trkpt lat="44.74948" lon="5.16928">
        <ele>484</ele>
        <time>2022-12-03T08:49:01Z</time>
      </trkpt>
      <trkpt lat="44.74943" lon="5.16937">
        <ele>486</ele>
        <time>2022-12-03T08:49:01Z</time>
      </trkpt>
      <trkpt lat="44.74937" lon="5.16943">
        <ele>488</ele>
        <time>2022-12-03T08:49:01Z</time>
      </trkpt>
      <trkpt lat="44.74932" lon="5.16952">
        <ele>489</ele>
        <time>2022-12-03T08:49:01Z</time>
      </trkpt>
      <trkpt lat="44.74925" lon="5.16958">
        <ele>488</ele>
        <time>2022-12-03T08:49:01Z</time>
      </trkpt>
      <trkpt lat="44.7492" lon="5.16967">
        <ele>488</ele>
        <time>2022-12-03T08:49:01Z</time>
      </trkpt>
      <trkpt lat="44.74899" lon="5.16985">
        <ele>486</ele>
        <time>2022-12-03T08:49:01Z</time>
      </trkpt>
      <trkpt lat="44.74895" lon="5.16994">
        <ele>485</ele>
        <time>2022-12-03T08:49:01Z</time>
      </trkpt>
      <trkpt lat="44.74894" lon="5.17032">
        <ele>486</ele>
        <time>2022-12-03T08:49:01Z</time>
      </trkpt>
      <trkpt lat="44.74889" lon="5.17057">
        <ele>485</ele>
        <time>2022-12-03T08:49:01Z</time>
      </trkpt>
      <trkpt lat="44.74884" lon="5.17066">
        <ele>484</ele>
        <time>2022-12-03T08:49:01Z</time>
      </trkpt>
      <trkpt lat="44.74881" lon="5.17079">
        <ele>483</ele>
        <time>2022-12-03T08:49:01Z</time>
      </trkpt>
      <trkpt lat="44.74881" lon="5.17092">
        <ele>482</ele>
        <time>2022-12-03T08:49:01Z</time>
      </trkpt>
      <trkpt lat="44.74878" lon="5.17104">
        <ele>481</ele>
        <time>2022-12-03T08:49:01Z</time>
      </trkpt>
      <trkpt lat="44.74878" lon="5.17117">
        <ele>481</ele>
        <time>2022-12-03T08:49:01Z</time>
      </trkpt>
      <trkpt lat="44.74882" lon="5.17126">
        <ele>483</ele>
        <time>2022-12-03T08:49:01Z</time>
      </trkpt>
      <trkpt lat="44.74896" lon="5.1714">
        <ele>485</ele>
        <time>2022-12-03T08:49:01Z</time>
      </trkpt>
      <trkpt lat="44.74904" lon="5.17143">
        <ele>487</ele>
        <time>2022-12-03T08:49:01Z</time>
      </trkpt>
      <trkpt lat="44.74911" lon="5.1715">
        <ele>488</ele>
        <time>2022-12-03T08:49:01Z</time>
      </trkpt>
      <trkpt lat="44.74926" lon="5.17163">
        <ele>491</ele>
        <time>2022-12-03T08:49:01Z</time>
      </trkpt>
      <trkpt lat="44.74928" lon="5.17176">
        <ele>491</ele>
        <time>2022-12-03T08:49:01Z</time>
      </trkpt>
      <trkpt lat="44.74921" lon="5.17182">
        <ele>489</ele>
        <time>2022-12-03T08:49:01Z</time>
      </trkpt>
      <trkpt lat="44.74914" lon="5.17191">
        <ele>486</ele>
        <time>2022-12-03T08:49:01Z</time>
      </trkpt>
      <trkpt lat="44.74907" lon="5.172">
        <ele>484</ele>
        <time>2022-12-03T08:49:01Z</time>
      </trkpt>
      <trkpt lat="44.74901" lon="5.17206">
        <ele>483</ele>
        <time>2022-12-03T08:49:01Z</time>
      </trkpt>
      <trkpt lat="44.74894" lon="5.17212">
        <ele>481</ele>
        <time>2022-12-03T08:49:01Z</time>
      </trkpt>
      <trkpt lat="44.74889" lon="5.17221">
        <ele>480</ele>
        <time>2022-12-03T08:49:01Z</time>
      </trkpt>
      <trkpt lat="44.74889" lon="5.17234">
        <ele>481</ele>
        <time>2022-12-03T08:49:01Z</time>
      </trkpt>
      <trkpt lat="44.74884" lon="5.17243">
        <ele>480</ele>
        <time>2022-12-03T08:49:01Z</time>
      </trkpt>
      <trkpt lat="44.74881" lon="5.17256">
        <ele>479</ele>
        <time>2022-12-03T08:49:01Z</time>
      </trkpt>
      <trkpt lat="44.74881" lon="5.17268">
        <ele>478</ele>
        <time>2022-12-03T08:49:01Z</time>
      </trkpt>
      <trkpt lat="44.74881" lon="5.17281">
        <ele>476</ele>
        <time>2022-12-03T08:49:01Z</time>
      </trkpt>
      <trkpt lat="44.74887" lon="5.17288">
        <ele>477</ele>
        <time>2022-12-03T08:49:01Z</time>
      </trkpt>
      <trkpt lat="44.74891" lon="5.17297">
        <ele>478</ele>
        <time>2022-12-03T08:49:01Z</time>
      </trkpt>
      <trkpt lat="44.74893" lon="5.1731">
        <ele>477</ele>
        <time>2022-12-03T08:49:01Z</time>
      </trkpt>
      <trkpt lat="44.749" lon="5.17317">
        <ele>478</ele>
        <time>2022-12-03T08:49:01Z</time>
      </trkpt>
      <trkpt lat="44.74904" lon="5.17326">
        <ele>478</ele>
        <time>2022-12-03T08:49:01Z</time>
      </trkpt>
      <trkpt lat="44.74917" lon="5.1734">
        <ele>480</ele>
        <time>2022-12-03T08:49:01Z</time>
      </trkpt>
      <trkpt lat="44.74922" lon="5.17349">
        <ele>480</ele>
        <time>2022-12-03T08:49:01Z</time>
      </trkpt>
      <trkpt lat="44.74928" lon="5.17356">
        <ele>480</ele>
        <time>2022-12-03T08:49:01Z</time>
      </trkpt>
      <trkpt lat="44.74941" lon="5.17385">
        <ele>477</ele>
        <time>2022-12-03T08:49:01Z</time>
      </trkpt>
      <trkpt lat="44.7495" lon="5.17389">
        <ele>478</ele>
        <time>2022-12-03T08:49:01Z</time>
      </trkpt>
      <trkpt lat="44.74959" lon="5.17389">
        <ele>480</ele>
        <time>2022-12-03T08:49:01Z</time>
      </trkpt>
      <trkpt lat="44.74984" lon="5.17381">
        <ele>481</ele>
        <time>2022-12-03T08:49:01Z</time>
      </trkpt>
      <trkpt lat="44.74991" lon="5.17375">
        <ele>482</ele>
        <time>2022-12-03T08:49:01Z</time>
      </trkpt>
      <trkpt lat="44.75009" lon="5.17376">
        <ele>482</ele>
        <time>2022-12-03T08:49:01Z</time>
      </trkpt>
      <trkpt lat="44.75008" lon="5.17401">
        <ele>481</ele>
        <time>2022-12-03T08:49:01Z</time>
      </trkpt>
      <trkpt lat="44.75005" lon="5.17414">
        <ele>482</ele>
        <time>2022-12-03T08:49:01Z</time>
      </trkpt>
      <trkpt lat="44.75001" lon="5.17423">
        <ele>482</ele>
        <time>2022-12-03T08:49:01Z</time>
      </trkpt>
      <trkpt lat="44.74998" lon="5.17435">
        <ele>483</ele>
        <time>2022-12-03T08:49:01Z</time>
      </trkpt>
      <trkpt lat="44.74989" lon="5.17454">
        <ele>481</ele>
        <time>2022-12-03T08:49:01Z</time>
      </trkpt>
      <trkpt lat="44.74986" lon="5.17466">
        <ele>479</ele>
        <time>2022-12-03T08:49:01Z</time>
      </trkpt>
      <trkpt lat="44.74981" lon="5.17475">
        <ele>478</ele>
        <time>2022-12-03T08:49:01Z</time>
      </trkpt>
      <trkpt lat="44.74977" lon="5.17485">
        <ele>476</ele>
        <time>2022-12-03T08:49:01Z</time>
      </trkpt>
      <trkpt lat="44.7497" lon="5.17494">
        <ele>473</ele>
        <time>2022-12-03T08:49:01Z</time>
      </trkpt>
      <trkpt lat="44.74969" lon="5.17506">
        <ele>472</ele>
        <time>2022-12-03T08:49:01Z</time>
      </trkpt>
      <trkpt lat="44.74978" lon="5.1751">
        <ele>475</ele>
        <time>2022-12-03T08:49:01Z</time>
      </trkpt>
      <trkpt lat="44.74987" lon="5.17514">
        <ele>477</ele>
        <time>2022-12-03T08:49:01Z</time>
      </trkpt>
      <trkpt lat="44.74996" lon="5.17517">
        <ele>479</ele>
        <time>2022-12-03T08:49:01Z</time>
      </trkpt>
      <trkpt lat="44.75005" lon="5.17521">
        <ele>482</ele>
        <time>2022-12-03T08:49:01Z</time>
      </trkpt>
      <trkpt lat="44.75012" lon="5.17528">
        <ele>482</ele>
        <time>2022-12-03T08:49:01Z</time>
      </trkpt>
      <trkpt lat="44.75013" lon="5.1754">
        <ele>482</ele>
        <time>2022-12-03T08:49:01Z</time>
      </trkpt>
      <trkpt lat="44.75013" lon="5.17553">
        <ele>481</ele>
        <time>2022-12-03T08:49:01Z</time>
      </trkpt>
      <trkpt lat="44.75011" lon="5.17565">
        <ele>479</ele>
        <time>2022-12-03T08:49:01Z</time>
      </trkpt>
      <trkpt lat="44.75008" lon="5.17578">
        <ele>477</ele>
        <time>2022-12-03T08:49:01Z</time>
      </trkpt>
      <trkpt lat="44.75005" lon="5.1759">
        <ele>475</ele>
        <time>2022-12-03T08:49:01Z</time>
      </trkpt>
      <trkpt lat="44.75003" lon="5.17603">
        <ele>473</ele>
        <time>2022-12-03T08:49:01Z</time>
      </trkpt>
      <trkpt lat="44.75003" lon="5.17615">
        <ele>472</ele>
        <time>2022-12-03T08:49:01Z</time>
      </trkpt>
      <trkpt lat="44.75002" lon="5.17628">
        <ele>470</ele>
        <time>2022-12-03T08:49:01Z</time>
      </trkpt>
      <trkpt lat="44.75009" lon="5.17635">
        <ele>471</ele>
        <time>2022-12-03T08:49:01Z</time>
      </trkpt>
      <trkpt lat="44.75018" lon="5.17638">
        <ele>473</ele>
        <time>2022-12-03T08:49:01Z</time>
      </trkpt>
      <trkpt lat="44.75027" lon="5.17639">
        <ele>475</ele>
        <time>2022-12-03T08:49:01Z</time>
      </trkpt>
      <trkpt lat="44.75036" lon="5.17636">
        <ele>477</ele>
        <time>2022-12-03T08:49:01Z</time>
      </trkpt>
      <trkpt lat="44.75045" lon="5.17637">
        <ele>479</ele>
        <time>2022-12-03T08:49:01Z</time>
      </trkpt>
      <trkpt lat="44.75049" lon="5.17646">
        <ele>480</ele>
        <time>2022-12-03T08:49:01Z</time>
      </trkpt>
      <trkpt lat="44.75046" lon="5.17659">
        <ele>478</ele>
        <time>2022-12-03T08:49:01Z</time>
      </trkpt>
      <trkpt lat="44.75044" lon="5.17671">
        <ele>476</ele>
        <time>2022-12-03T08:49:01Z</time>
      </trkpt>
      <trkpt lat="44.75046" lon="5.17684">
        <ele>476</ele>
        <time>2022-12-03T08:49:01Z</time>
      </trkpt>
      <trkpt lat="44.75045" lon="5.17697">
        <ele>475</ele>
        <time>2022-12-03T08:49:01Z</time>
      </trkpt>
      <trkpt lat="44.75051" lon="5.17735">
        <ele>475</ele>
        <time>2022-12-03T08:49:01Z</time>
      </trkpt>
      <trkpt lat="44.75051" lon="5.1776">
        <ele>474</ele>
        <time>2022-12-03T08:49:01Z</time>
      </trkpt>
      <trkpt lat="44.75052" lon="5.17773">
        <ele>474</ele>
        <time>2022-12-03T08:49:01Z</time>
      </trkpt>
      <trkpt lat="44.75052" lon="5.17798">
        <ele>473</ele>
        <time>2022-12-03T08:49:01Z</time>
      </trkpt>
      <trkpt lat="44.75044" lon="5.17835">
        <ele>470</ele>
        <time>2022-12-03T08:49:01Z</time>
      </trkpt>
      <trkpt lat="44.75042" lon="5.17848">
        <ele>468</ele>
        <time>2022-12-03T08:49:01Z</time>
      </trkpt>
      <trkpt lat="44.75041" lon="5.17861">
        <ele>468</ele>
        <time>2022-12-03T08:49:01Z</time>
      </trkpt>
      <trkpt lat="44.75043" lon="5.17873">
        <ele>467</ele>
        <time>2022-12-03T08:49:01Z</time>
      </trkpt>
      <trkpt lat="44.75058" lon="5.17902">
        <ele>469</ele>
        <time>2022-12-03T08:49:01Z</time>
      </trkpt>
      <trkpt lat="44.75071" lon="5.17916">
        <ele>470</ele>
        <time>2022-12-03T08:49:01Z</time>
      </trkpt>
      <trkpt lat="44.75073" lon="5.17929">
        <ele>470</ele>
        <time>2022-12-03T08:49:01Z</time>
      </trkpt>
      <trkpt lat="44.75073" lon="5.17941">
        <ele>469</ele>
        <time>2022-12-03T08:49:01Z</time>
      </trkpt>
      <trkpt lat="44.75068" lon="5.17954">
        <ele>467</ele>
        <time>2022-12-03T08:49:01Z</time>
      </trkpt>
      <trkpt lat="44.75061" lon="5.17959">
        <ele>467</ele>
        <time>2022-12-03T08:49:01Z</time>
      </trkpt>
      <trkpt lat="44.75052" lon="5.17962">
        <ele>467</ele>
        <time>2022-12-03T08:49:01Z</time>
      </trkpt>
      <trkpt lat="44.75045" lon="5.17968">
        <ele>467</ele>
        <time>2022-12-03T08:49:01Z</time>
      </trkpt>
      <trkpt lat="44.75036" lon="5.17987">
        <ele>470</ele>
        <time>2022-12-03T08:49:01Z</time>
      </trkpt>
      <trkpt lat="44.75029" lon="5.17993">
        <ele>471</ele>
        <time>2022-12-03T08:49:01Z</time>
      </trkpt>
      <trkpt lat="44.74986" lon="5.18079">
        <ele>479</ele>
        <time>2022-12-03T08:49:01Z</time>
      </trkpt>
      <trkpt lat="44.74977" lon="5.18081">
        <ele>478</ele>
        <time>2022-12-03T08:49:01Z</time>
      </trkpt>
      <trkpt lat="44.7497" lon="5.18087">
        <ele>478</ele>
        <time>2022-12-03T08:49:01Z</time>
      </trkpt>
      <trkpt lat="44.74961" lon="5.1809">
        <ele>477</ele>
        <time>2022-12-03T08:49:01Z</time>
      </trkpt>
      <trkpt lat="44.74952" lon="5.18096">
        <ele>477</ele>
        <time>2022-12-03T08:49:01Z</time>
      </trkpt>
      <trkpt lat="44.74934" lon="5.18101">
        <ele>477</ele>
        <time>2022-12-03T08:49:01Z</time>
      </trkpt>
      <trkpt lat="44.74925" lon="5.18101">
        <ele>476</ele>
        <time>2022-12-03T08:49:01Z</time>
      </trkpt>
      <trkpt lat="44.74907" lon="5.18106">
        <ele>476</ele>
        <time>2022-12-03T08:49:01Z</time>
      </trkpt>
      <trkpt lat="44.74898" lon="5.18106">
        <ele>477</ele>
        <time>2022-12-03T08:49:01Z</time>
      </trkpt>
      <trkpt lat="44.74893" lon="5.18096">
        <ele>477</ele>
        <time>2022-12-03T08:49:01Z</time>
      </trkpt>
      <trkpt lat="44.74894" lon="5.18084">
        <ele>476</ele>
        <time>2022-12-03T08:49:01Z</time>
      </trkpt>
      <trkpt lat="44.74896" lon="5.18071">
        <ele>476</ele>
        <time>2022-12-03T08:49:01Z</time>
      </trkpt>
      <trkpt lat="44.74901" lon="5.18059">
        <ele>477</ele>
        <time>2022-12-03T08:49:01Z</time>
      </trkpt>
      <trkpt lat="44.74925" lon="5.18006">
        <ele>480</ele>
        <time>2022-12-03T08:49:01Z</time>
      </trkpt>
      <trkpt lat="44.74928" lon="5.17994">
        <ele>481</ele>
        <time>2022-12-03T08:49:01Z</time>
      </trkpt>
      <trkpt lat="44.74932" lon="5.17985">
        <ele>481</ele>
        <time>2022-12-03T08:49:01Z</time>
      </trkpt>
      <trkpt lat="44.7494" lon="5.17947">
        <ele>483</ele>
        <time>2022-12-03T08:49:01Z</time>
      </trkpt>
      <trkpt lat="44.74941" lon="5.17922">
        <ele>483</ele>
        <time>2022-12-03T08:49:01Z</time>
      </trkpt>
      <trkpt lat="44.74937" lon="5.17896">
        <ele>485</ele>
        <time>2022-12-03T08:49:01Z</time>
      </trkpt>
      <trkpt lat="44.7493" lon="5.1789">
        <ele>488</ele>
        <time>2022-12-03T08:49:01Z</time>
      </trkpt>
      <trkpt lat="44.74926" lon="5.1788">
        <ele>489</ele>
        <time>2022-12-03T08:49:01Z</time>
      </trkpt>
      <trkpt lat="44.74926" lon="5.17867">
        <ele>486</ele>
        <time>2022-12-03T08:49:01Z</time>
      </trkpt>
      <trkpt lat="44.74922" lon="5.17858">
        <ele>487</ele>
        <time>2022-12-03T08:49:01Z</time>
      </trkpt>
      <trkpt lat="44.7492" lon="5.17845">
        <ele>485</ele>
        <time>2022-12-03T08:49:01Z</time>
      </trkpt>
      <trkpt lat="44.74899" lon="5.17793">
        <ele>484</ele>
        <time>2022-12-03T08:49:01Z</time>
      </trkpt>
      <trkpt lat="44.74846" lon="5.1774">
        <ele>482</ele>
        <time>2022-12-03T08:49:01Z</time>
      </trkpt>
      <trkpt lat="44.74837" lon="5.1774">
        <ele>482</ele>
        <time>2022-12-03T08:49:01Z</time>
      </trkpt>
      <trkpt lat="44.74828" lon="5.17742">
        <ele>482</ele>
        <time>2022-12-03T08:49:01Z</time>
      </trkpt>
      <trkpt lat="44.74824" lon="5.17752">
        <ele>484</ele>
        <time>2022-12-03T08:49:01Z</time>
      </trkpt>
      <trkpt lat="44.7481" lon="5.17764">
        <ele>485</ele>
        <time>2022-12-03T08:49:01Z</time>
      </trkpt>
      <trkpt lat="44.74798" lon="5.17782">
        <ele>488</ele>
        <time>2022-12-03T08:49:01Z</time>
      </trkpt>
      <trkpt lat="44.74793" lon="5.17791">
        <ele>490</ele>
        <time>2022-12-03T08:49:01Z</time>
      </trkpt>
      <trkpt lat="44.74779" lon="5.17803">
        <ele>491</ele>
        <time>2022-12-03T08:49:01Z</time>
      </trkpt>
      <trkpt lat="44.7477" lon="5.17806">
        <ele>491</ele>
        <time>2022-12-03T08:49:01Z</time>
      </trkpt>
      <trkpt lat="44.74757" lon="5.17818">
        <ele>492</ele>
        <time>2022-12-03T08:49:01Z</time>
      </trkpt>
      <trkpt lat="44.74736" lon="5.17836">
        <ele>496</ele>
        <time>2022-12-03T08:49:01Z</time>
      </trkpt>
      <trkpt lat="44.74727" lon="5.17838">
        <ele>497</ele>
        <time>2022-12-03T08:49:01Z</time>
      </trkpt>
      <trkpt lat="44.7472" lon="5.17844">
        <ele>499</ele>
        <time>2022-12-03T08:49:01Z</time>
      </trkpt>
      <trkpt lat="44.74706" lon="5.17859">
        <ele>504</ele>
        <time>2022-12-03T08:49:01Z</time>
      </trkpt>
      <trkpt lat="44.74699" lon="5.17865">
        <ele>506</ele>
        <time>2022-12-03T08:49:01Z</time>
      </trkpt>
      <trkpt lat="44.7469" lon="5.17868">
        <ele>507</ele>
        <time>2022-12-03T08:49:01Z</time>
      </trkpt>
      <trkpt lat="44.74685" lon="5.17877">
        <ele>509</ele>
        <time>2022-12-03T08:49:01Z</time>
      </trkpt>
      <trkpt lat="44.74678" lon="5.17883">
        <ele>511</ele>
        <time>2022-12-03T08:49:01Z</time>
      </trkpt>
      <trkpt lat="44.74671" lon="5.17892">
        <ele>514</ele>
        <time>2022-12-03T08:49:01Z</time>
      </trkpt>
      <trkpt lat="44.74658" lon="5.17904">
        <ele>517</ele>
        <time>2022-12-03T08:49:01Z</time>
      </trkpt>
      <trkpt lat="44.74649" lon="5.17907">
        <ele>518</ele>
        <time>2022-12-03T08:49:01Z</time>
      </trkpt>
      <trkpt lat="44.7464" lon="5.17906">
        <ele>518</ele>
        <time>2022-12-03T08:49:01Z</time>
      </trkpt>
      <trkpt lat="44.74633" lon="5.179">
        <ele>517</ele>
        <time>2022-12-03T08:49:01Z</time>
      </trkpt>
      <trkpt lat="44.74629" lon="5.1789">
        <ele>516</ele>
        <time>2022-12-03T08:49:01Z</time>
      </trkpt>
      <trkpt lat="44.74627" lon="5.17877">
        <ele>515</ele>
        <time>2022-12-03T08:49:01Z</time>
      </trkpt>
      <trkpt lat="44.74628" lon="5.1784">
        <ele>516</ele>
        <time>2022-12-03T08:49:01Z</time>
      </trkpt>
      <trkpt lat="44.74624" lon="5.17814">
        <ele>519</ele>
        <time>2022-12-03T08:49:01Z</time>
      </trkpt>
      <trkpt lat="44.74622" lon="5.17801">
        <ele>521</ele>
        <time>2022-12-03T08:49:01Z</time>
      </trkpt>
      <trkpt lat="44.74625" lon="5.17688">
        <ele>519</ele>
        <time>2022-12-03T08:49:01Z</time>
      </trkpt>
      <trkpt lat="44.74621" lon="5.17662">
        <ele>520</ele>
        <time>2022-12-03T08:49:01Z</time>
      </trkpt>
      <trkpt lat="44.74604" lon="5.17621">
        <ele>524</ele>
        <time>2022-12-03T08:49:01Z</time>
      </trkpt>
      <trkpt lat="44.74604" lon="5.17608">
        <ele>523</ele>
        <time>2022-12-03T08:49:01Z</time>
      </trkpt>
      <trkpt lat="44.74603" lon="5.17595">
        <ele>523</ele>
        <time>2022-12-03T08:49:01Z</time>
      </trkpt>
      <trkpt lat="44.74603" lon="5.17583">
        <ele>523</ele>
        <time>2022-12-03T08:49:01Z</time>
      </trkpt>
      <trkpt lat="44.74601" lon="5.1757">
        <ele>523</ele>
        <time>2022-12-03T08:49:01Z</time>
      </trkpt>
      <trkpt lat="44.74601" lon="5.17557">
        <ele>522</ele>
        <time>2022-12-03T08:49:01Z</time>
      </trkpt>
      <trkpt lat="44.74599" lon="5.17545">
        <ele>521</ele>
        <time>2022-12-03T08:49:01Z</time>
      </trkpt>
      <trkpt lat="44.746" lon="5.17532">
        <ele>519</ele>
        <time>2022-12-03T08:49:01Z</time>
      </trkpt>
      <trkpt lat="44.74598" lon="5.17519">
        <ele>518</ele>
        <time>2022-12-03T08:49:01Z</time>
      </trkpt>
      <trkpt lat="44.74591" lon="5.17513">
        <ele>518</ele>
        <time>2022-12-03T08:49:01Z</time>
      </trkpt>
      <trkpt lat="44.74588" lon="5.17503">
        <ele>522</ele>
        <time>2022-12-03T08:49:01Z</time>
      </trkpt>
      <trkpt lat="44.74555" lon="5.17514">
        <ele>524</ele>
        <time>2022-12-03T08:49:01Z</time>
      </trkpt>
      <trkpt lat="44.74546" lon="5.17513">
        <ele>524</ele>
        <time>2022-12-03T08:49:01Z</time>
      </trkpt>
      <trkpt lat="44.74537" lon="5.17516">
        <ele>525</ele>
        <time>2022-12-03T08:49:01Z</time>
      </trkpt>
      <trkpt lat="44.74528" lon="5.17516">
        <ele>525</ele>
        <time>2022-12-03T08:49:01Z</time>
      </trkpt>
      <trkpt lat="44.74501" lon="5.17524">
        <ele>528</ele>
        <time>2022-12-03T08:49:01Z</time>
      </trkpt>
      <trkpt lat="44.74494" lon="5.1753">
        <ele>529</ele>
        <time>2022-12-03T08:49:01Z</time>
      </trkpt>
      <trkpt lat="44.74485" lon="5.17532">
        <ele>530</ele>
        <time>2022-12-03T08:49:01Z</time>
      </trkpt>
      <trkpt lat="44.74478" lon="5.17538">
        <ele>531</ele>
        <time>2022-12-03T08:49:01Z</time>
      </trkpt>
      <trkpt lat="44.74471" lon="5.17544">
        <ele>533</ele>
        <time>2022-12-03T08:49:01Z</time>
      </trkpt>
      <trkpt lat="44.74462" lon="5.17544">
        <ele>534</ele>
        <time>2022-12-03T08:49:01Z</time>
      </trkpt>
      <trkpt lat="44.74453" lon="5.17547">
        <ele>536</ele>
        <time>2022-12-03T08:49:01Z</time>
      </trkpt>
      <trkpt lat="44.74444" lon="5.17546">
        <ele>538</ele>
        <time>2022-12-03T08:49:01Z</time>
      </trkpt>
      <trkpt lat="44.74435" lon="5.17543">
        <ele>539</ele>
        <time>2022-12-03T08:49:01Z</time>
      </trkpt>
      <trkpt lat="44.74429" lon="5.17536">
        <ele>540</ele>
        <time>2022-12-03T08:49:01Z</time>
      </trkpt>
      <trkpt lat="44.7442" lon="5.17517">
        <ele>540</ele>
        <time>2022-12-03T08:49:01Z</time>
      </trkpt>
      <trkpt lat="44.74418" lon="5.17504">
        <ele>540</ele>
        <time>2022-12-03T08:49:01Z</time>
      </trkpt>
      <trkpt lat="44.74419" lon="5.17479">
        <ele>538</ele>
        <time>2022-12-03T08:49:01Z</time>
      </trkpt>
      <trkpt lat="44.74417" lon="5.17466">
        <ele>539</ele>
        <time>2022-12-03T08:49:01Z</time>
      </trkpt>
      <trkpt lat="44.74413" lon="5.17456">
        <ele>540</ele>
        <time>2022-12-03T08:49:01Z</time>
      </trkpt>
      <trkpt lat="44.74408" lon="5.17446">
        <ele>542</ele>
        <time>2022-12-03T08:49:01Z</time>
      </trkpt>
      <trkpt lat="44.74406" lon="5.17434">
        <ele>542</ele>
        <time>2022-12-03T08:49:01Z</time>
      </trkpt>
      <trkpt lat="44.74402" lon="5.17424">
        <ele>543</ele>
        <time>2022-12-03T08:49:01Z</time>
      </trkpt>
      <trkpt lat="44.744" lon="5.17411">
        <ele>542</ele>
        <time>2022-12-03T08:49:01Z</time>
      </trkpt>
      <trkpt lat="44.74396" lon="5.17402">
        <ele>541</ele>
        <time>2022-12-03T08:49:01Z</time>
      </trkpt>
      <trkpt lat="44.74392" lon="5.17392">
        <ele>539</ele>
        <time>2022-12-03T08:49:01Z</time>
      </trkpt>
      <trkpt lat="44.74374" lon="5.17385">
        <ele>538</ele>
        <time>2022-12-03T08:49:01Z</time>
      </trkpt>
      <trkpt lat="44.74365" lon="5.17381">
        <ele>535</ele>
        <time>2022-12-03T08:49:01Z</time>
      </trkpt>
      <trkpt lat="44.74356" lon="5.17381">
        <ele>533</ele>
        <time>2022-12-03T08:49:01Z</time>
      </trkpt>
      <trkpt lat="44.7434" lon="5.17392">
        <ele>535</ele>
        <time>2022-12-03T08:49:01Z</time>
      </trkpt>
      <trkpt lat="44.74333" lon="5.17402">
        <ele>537</ele>
        <time>2022-12-03T08:49:01Z</time>
      </trkpt>
      <trkpt lat="44.74309" lon="5.17448">
        <ele>543</ele>
        <time>2022-12-03T08:49:01Z</time>
      </trkpt>
      <trkpt lat="44.74302" lon="5.17454">
        <ele>543</ele>
        <time>2022-12-03T08:49:01Z</time>
      </trkpt>
      <trkpt lat="44.74298" lon="5.17463">
        <ele>545</ele>
        <time>2022-12-03T08:49:01Z</time>
      </trkpt>
      <trkpt lat="44.74291" lon="5.17469">
        <ele>545</ele>
        <time>2022-12-03T08:49:01Z</time>
      </trkpt>
      <trkpt lat="44.74286" lon="5.17478">
        <ele>547</ele>
        <time>2022-12-03T08:49:01Z</time>
      </trkpt>
      <trkpt lat="44.74279" lon="5.17484">
        <ele>546</ele>
        <time>2022-12-03T08:49:01Z</time>
      </trkpt>
      <trkpt lat="44.74274" lon="5.17493">
        <ele>546</ele>
        <time>2022-12-03T08:49:01Z</time>
      </trkpt>
      <trkpt lat="44.74265" lon="5.17499">
        <ele>545</ele>
        <time>2022-12-03T08:49:01Z</time>
      </trkpt>
      <trkpt lat="44.74247" lon="5.17527">
        <ele>547</ele>
        <time>2022-12-03T08:49:01Z</time>
      </trkpt>
      <trkpt lat="44.74242" lon="5.17536">
        <ele>549</ele>
        <time>2022-12-03T08:49:01Z</time>
      </trkpt>
      <trkpt lat="44.74235" lon="5.17545">
        <ele>549</ele>
        <time>2022-12-03T08:49:01Z</time>
      </trkpt>
      <trkpt lat="44.7423" lon="5.17554">
        <ele>550</ele>
        <time>2022-12-03T08:49:01Z</time>
      </trkpt>
      <trkpt lat="44.74223" lon="5.1756">
        <ele>549</ele>
        <time>2022-12-03T08:49:01Z</time>
      </trkpt>
      <trkpt lat="44.74181" lon="5.17621">
        <ele>552</ele>
        <time>2022-12-03T08:49:01Z</time>
      </trkpt>
      <trkpt lat="44.74174" lon="5.17627">
        <ele>551</ele>
        <time>2022-12-03T08:49:01Z</time>
      </trkpt>
      <trkpt lat="44.7412" lon="5.17719">
        <ele>552</ele>
        <time>2022-12-03T08:49:01Z</time>
      </trkpt>
      <trkpt lat="44.74113" lon="5.17725">
        <ele>550</ele>
        <time>2022-12-03T08:49:01Z</time>
      </trkpt>
      <trkpt lat="44.74087" lon="5.17771">
        <ele>550</ele>
        <time>2022-12-03T08:49:01Z</time>
      </trkpt>
      <trkpt lat="44.74085" lon="5.17784">
        <ele>551</ele>
        <time>2022-12-03T08:49:01Z</time>
      </trkpt>
      <trkpt lat="44.74078" lon="5.1779">
        <ele>550</ele>
        <time>2022-12-03T08:49:01Z</time>
      </trkpt>
      <trkpt lat="44.74049" lon="5.17848">
        <ele>551</ele>
        <time>2022-12-03T08:49:01Z</time>
      </trkpt>
      <trkpt lat="44.74047" lon="5.17861">
        <ele>552</ele>
        <time>2022-12-03T08:49:01Z</time>
      </trkpt>
      <trkpt lat="44.74042" lon="5.17873">
        <ele>552</ele>
        <time>2022-12-03T08:49:01Z</time>
      </trkpt>
      <trkpt lat="44.74037" lon="5.17898">
        <ele>554</ele>
        <time>2022-12-03T08:49:01Z</time>
      </trkpt>
      <trkpt lat="44.74036" lon="5.17911">
        <ele>556</ele>
        <time>2022-12-03T08:49:01Z</time>
      </trkpt>
      <trkpt lat="44.74034" lon="5.17923">
        <ele>556</ele>
        <time>2022-12-03T08:49:01Z</time>
      </trkpt>
      <trkpt lat="44.74033" lon="5.17974">
        <ele>559</ele>
        <time>2022-12-03T08:49:01Z</time>
      </trkpt>
      <trkpt lat="44.74034" lon="5.17986">
        <ele>561</ele>
        <time>2022-12-03T08:49:01Z</time>
      </trkpt>
      <trkpt lat="44.74033" lon="5.18037">
        <ele>564</ele>
        <time>2022-12-03T08:49:01Z</time>
      </trkpt>
      <trkpt lat="44.74028" lon="5.18049">
        <ele>563</ele>
        <time>2022-12-03T08:49:01Z</time>
      </trkpt>
      <trkpt lat="44.74028" lon="5.18062">
        <ele>564</ele>
        <time>2022-12-03T08:49:01Z</time>
      </trkpt>
      <trkpt lat="44.74023" lon="5.18087">
        <ele>564</ele>
        <time>2022-12-03T08:49:01Z</time>
      </trkpt>
      <trkpt lat="44.74018" lon="5.18096">
        <ele>563</ele>
        <time>2022-12-03T08:49:01Z</time>
      </trkpt>
      <trkpt lat="44.73984" lon="5.18129">
        <ele>560</ele>
        <time>2022-12-03T08:49:01Z</time>
      </trkpt>
      <trkpt lat="44.73974" lon="5.18132">
        <ele>558</ele>
        <time>2022-12-03T08:49:01Z</time>
      </trkpt>
      <trkpt lat="44.73968" lon="5.18138">
        <ele>558</ele>
        <time>2022-12-03T08:49:01Z</time>
      </trkpt>
      <trkpt lat="44.73959" lon="5.18134">
        <ele>556</ele>
        <time>2022-12-03T08:49:01Z</time>
      </trkpt>
      <trkpt lat="44.7395" lon="5.18137">
        <ele>555</ele>
        <time>2022-12-03T08:49:01Z</time>
      </trkpt>
      <trkpt lat="44.7394" lon="5.18143">
        <ele>555</ele>
        <time>2022-12-03T08:49:01Z</time>
      </trkpt>
      <trkpt lat="44.73931" lon="5.18145">
        <ele>554</ele>
        <time>2022-12-03T08:49:01Z</time>
      </trkpt>
      <trkpt lat="44.73924" lon="5.18151">
        <ele>554</ele>
        <time>2022-12-03T08:49:01Z</time>
      </trkpt>
      <trkpt lat="44.73915" lon="5.18154">
        <ele>553</ele>
        <time>2022-12-03T08:49:01Z</time>
      </trkpt>
      <trkpt lat="44.73906" lon="5.1816">
        <ele>552</ele>
        <time>2022-12-03T08:49:01Z</time>
      </trkpt>
      <trkpt lat="44.73888" lon="5.18165">
        <ele>551</ele>
        <time>2022-12-03T08:49:01Z</time>
      </trkpt>
      <trkpt lat="44.73881" lon="5.18171">
        <ele>550</ele>
        <time>2022-12-03T08:49:01Z</time>
      </trkpt>
      <trkpt lat="44.73872" lon="5.18171">
        <ele>549</ele>
        <time>2022-12-03T08:49:01Z</time>
      </trkpt>
      <trkpt lat="44.73852" lon="5.18188">
        <ele>547</ele>
        <time>2022-12-03T08:49:01Z</time>
      </trkpt>
      <trkpt lat="44.73845" lon="5.18191">
        <ele>546</ele>
        <time>2022-12-03T08:49:01Z</time>
      </trkpt>
      <trkpt lat="44.73827" lon="5.1819">
        <ele>544</ele>
        <time>2022-12-03T08:49:01Z</time>
      </trkpt>
      <trkpt lat="44.73818" lon="5.18187">
        <ele>543</ele>
        <time>2022-12-03T08:49:01Z</time>
      </trkpt>
      <trkpt lat="44.73805" lon="5.18173">
        <ele>543</ele>
        <time>2022-12-03T08:49:01Z</time>
      </trkpt>
      <trkpt lat="44.73796" lon="5.1817">
        <ele>542</ele>
        <time>2022-12-03T08:49:01Z</time>
      </trkpt>
      <trkpt lat="44.73658" lon="5.17966">
        <ele>542</ele>
        <time>2022-12-03T08:49:01Z</time>
      </trkpt>
      <trkpt lat="44.73549" lon="5.17936">
        <ele>541</ele>
        <time>2022-12-03T08:49:01Z</time>
      </trkpt>
      <trkpt lat="44.73532" lon="5.17883">
        <ele>541</ele>
        <time>2022-12-03T08:49:01Z</time>
      </trkpt>
      <trkpt lat="44.73454" lon="5.17851">
        <ele>540</ele>
        <time>2022-12-03T08:49:01Z</time>
      </trkpt>
      <trkpt lat="44.73383" lon="5.17778">
        <ele>539</ele>
        <time>2022-12-03T08:49:01Z</time>
      </trkpt>
      <trkpt lat="44.73204" lon="5.17778">
        <ele>538</ele>
        <time>2022-12-03T08:49:01Z</time>
      </trkpt>
      <trkpt lat="44.73151" lon="5.1769">
        <ele>538</ele>
        <time>2022-12-03T08:49:01Z</time>
      </trkpt>
      <trkpt lat="44.73088" lon="5.17705">
        <ele>538</ele>
        <time>2022-12-03T08:49:01Z</time>
      </trkpt>
      <trkpt lat="44.73001" lon="5.1775">
        <ele>538</ele>
        <time>2022-12-03T08:49:01Z</time>
      </trkpt>
      <trkpt lat="44.72921" lon="5.17911">
        <ele>538</ele>
        <time>2022-12-03T08:49:01Z</time>
      </trkpt>
      <trkpt lat="44.72788" lon="5.18009">
        <ele>538</ele>
        <time>2022-12-03T08:49:01Z</time>
      </trkpt>
      <trkpt lat="44.72764" lon="5.18095">
        <ele>538</ele>
        <time>2022-12-03T08:49:01Z</time>
      </trkpt>
      <trkpt lat="44.72632" lon="5.18282">
        <ele>538</ele>
        <time>2022-12-03T08:49:01Z</time>
      </trkpt>
      <trkpt lat="44.72706" lon="5.18295">
        <ele>538</ele>
        <time>2022-12-03T08:49:01Z</time>
      </trkpt>
      <trkpt lat="44.72631" lon="5.184">
        <ele>538</ele>
        <time>2022-12-03T08:49:01Z</time>
      </trkpt>
      <trkpt lat="44.72594" lon="5.18484">
        <ele>538</ele>
        <time>2022-12-03T08:49:01Z</time>
      </trkpt>
      <trkpt lat="44.72584" lon="5.18524">
        <ele>537</ele>
        <time>2022-12-03T08:49:01Z</time>
      </trkpt>
      <trkpt lat="44.72538" lon="5.18514">
        <ele>537</ele>
        <time>2022-12-03T08:49:01Z</time>
      </trkpt>
      <trkpt lat="44.72506" lon="5.18552">
        <ele>537</ele>
        <time>2022-12-03T08:49:01Z</time>
      </trkpt>
      <trkpt lat="44.72445" lon="5.18666">
        <ele>537</ele>
        <time>2022-12-03T08:49:01Z</time>
      </trkpt>
      <trkpt lat="44.72454" lon="5.1866">
        <ele>537</ele>
        <time>2022-12-03T08:49:01Z</time>
      </trkpt>
      <trkpt lat="44.72454" lon="5.18657">
        <ele>537</ele>
        <time>2022-12-03T08:49:01Z</time>
      </trkpt>
    </trkseg>
  </trk>
  <trk>
    <name><![CDATA[VTT N°13 rouge - Tour de Barry - 12km - déniv 531m - VAE Rouge ]]></name>
    <extensions>
      <line xmlns="http://www.topografix.com/GPX/gpx_style/0/2">
        <color>f6002e</color>
        <width>4</width>
      </line>
    </extensions>
    <trkseg>
      <trkpt lat="44.71062" lon="5.24998">
        <ele>433</ele>
        <time>2022-12-01T10:57:23Z</time>
      </trkpt>
      <trkpt lat="44.71068" lon="5.24992">
        <ele>434</ele>
        <time>2022-12-01T10:57:23Z</time>
      </trkpt>
      <trkpt lat="44.71079" lon="5.24986">
        <ele>435</ele>
        <time>2022-12-01T10:57:23Z</time>
      </trkpt>
      <trkpt lat="44.71089" lon="5.24984">
        <ele>435</ele>
        <time>2022-12-01T10:57:23Z</time>
      </trkpt>
      <trkpt lat="44.71279" lon="5.24987">
        <ele>438</ele>
        <time>2022-12-01T10:57:23Z</time>
      </trkpt>
      <trkpt lat="44.71286" lon="5.24977">
        <ele>439</ele>
        <time>2022-12-01T10:57:23Z</time>
      </trkpt>
      <trkpt lat="44.71296" lon="5.2494">
        <ele>441</ele>
        <time>2022-12-01T10:57:23Z</time>
      </trkpt>
      <trkpt lat="44.71303" lon="5.24936">
        <ele>442</ele>
        <time>2022-12-01T10:57:23Z</time>
      </trkpt>
      <trkpt lat="44.71311" lon="5.24938">
        <ele>443</ele>
        <time>2022-12-01T10:57:23Z</time>
      </trkpt>
      <trkpt lat="44.71368" lon="5.24999">
        <ele>444</ele>
        <time>2022-12-01T10:57:23Z</time>
      </trkpt>
      <trkpt lat="44.71461" lon="5.25162">
        <ele>447</ele>
        <time>2022-12-01T10:57:23Z</time>
      </trkpt>
      <trkpt lat="44.71503" lon="5.25199">
        <ele>450</ele>
        <time>2022-12-01T10:57:23Z</time>
      </trkpt>
      <trkpt lat="44.71571" lon="5.25238">
        <ele>454</ele>
        <time>2022-12-01T10:57:23Z</time>
      </trkpt>
      <trkpt lat="44.71669" lon="5.25211">
        <ele>454</ele>
        <time>2022-12-01T10:57:23Z</time>
      </trkpt>
      <trkpt lat="44.71707" lon="5.25218">
        <ele>453</ele>
        <time>2022-12-01T10:57:23Z</time>
      </trkpt>
      <trkpt lat="44.71735" lon="5.25236">
        <ele>453</ele>
        <time>2022-12-01T10:57:23Z</time>
      </trkpt>
      <trkpt lat="44.71745" lon="5.25232">
        <ele>452</ele>
        <time>2022-12-01T10:57:23Z</time>
      </trkpt>
      <trkpt lat="44.71748" lon="5.25219">
        <ele>453</ele>
        <time>2022-12-01T10:57:23Z</time>
      </trkpt>
      <trkpt lat="44.71758" lon="5.25205">
        <ele>454</ele>
        <time>2022-12-01T10:57:23Z</time>
      </trkpt>
      <trkpt lat="44.71766" lon="5.25212">
        <ele>454</ele>
        <time>2022-12-01T10:57:23Z</time>
      </trkpt>
      <trkpt lat="44.71778" lon="5.2523">
        <ele>454</ele>
        <time>2022-12-01T10:57:23Z</time>
      </trkpt>
      <trkpt lat="44.71792" lon="5.2524">
        <ele>455</ele>
        <time>2022-12-01T10:57:23Z</time>
      </trkpt>
      <trkpt lat="44.718" lon="5.2525">
        <ele>455</ele>
        <time>2022-12-01T10:57:23Z</time>
      </trkpt>
      <trkpt lat="44.71803" lon="5.25264">
        <ele>455</ele>
        <time>2022-12-01T10:57:23Z</time>
      </trkpt>
      <trkpt lat="44.71797" lon="5.25313">
        <ele>456</ele>
        <time>2022-12-01T10:57:23Z</time>
      </trkpt>
      <trkpt lat="44.71801" lon="5.25343">
        <ele>458</ele>
        <time>2022-12-01T10:57:23Z</time>
      </trkpt>
      <trkpt lat="44.71815" lon="5.25378">
        <ele>459</ele>
        <time>2022-12-01T10:57:23Z</time>
      </trkpt>
      <trkpt lat="44.71825" lon="5.25389">
        <ele>460</ele>
        <time>2022-12-01T10:57:23Z</time>
      </trkpt>
      <trkpt lat="44.71836" lon="5.25379">
        <ele>461</ele>
        <time>2022-12-01T10:57:23Z</time>
      </trkpt>
      <trkpt lat="44.71867" lon="5.25299">
        <ele>462</ele>
        <time>2022-12-01T10:57:23Z</time>
      </trkpt>
      <trkpt lat="44.71887" lon="5.25274">
        <ele>461</ele>
        <time>2022-12-01T10:57:23Z</time>
      </trkpt>
      <trkpt lat="44.7189" lon="5.25264">
        <ele>461</ele>
        <time>2022-12-01T10:57:23Z</time>
      </trkpt>
      <trkpt lat="44.71888" lon="5.25237">
        <ele>462</ele>
        <time>2022-12-01T10:57:23Z</time>
      </trkpt>
      <trkpt lat="44.71899" lon="5.25217">
        <ele>462</ele>
        <time>2022-12-01T10:57:23Z</time>
      </trkpt>
      <trkpt lat="44.71906" lon="5.25213">
        <ele>462</ele>
        <time>2022-12-01T10:57:23Z</time>
      </trkpt>
      <trkpt lat="44.7192" lon="5.25218">
        <ele>462</ele>
        <time>2022-12-01T10:57:23Z</time>
      </trkpt>
      <trkpt lat="44.71923" lon="5.25228">
        <ele>462</ele>
        <time>2022-12-01T10:57:23Z</time>
      </trkpt>
      <trkpt lat="44.71925" lon="5.25243">
        <ele>462</ele>
        <time>2022-12-01T10:57:23Z</time>
      </trkpt>
      <trkpt lat="44.71929" lon="5.25255">
        <ele>461</ele>
        <time>2022-12-01T10:57:23Z</time>
      </trkpt>
      <trkpt lat="44.71944" lon="5.25266">
        <ele>461</ele>
        <time>2022-12-01T10:57:23Z</time>
      </trkpt>
      <trkpt lat="44.71954" lon="5.25266">
        <ele>461</ele>
        <time>2022-12-01T10:57:23Z</time>
      </trkpt>
      <trkpt lat="44.71965" lon="5.25277">
        <ele>460</ele>
        <time>2022-12-01T10:57:23Z</time>
      </trkpt>
      <trkpt lat="44.72005" lon="5.25348">
        <ele>460</ele>
        <time>2022-12-01T10:57:23Z</time>
      </trkpt>
      <trkpt lat="44.72036" lon="5.25368">
        <ele>461</ele>
        <time>2022-12-01T10:57:23Z</time>
      </trkpt>
      <trkpt lat="44.72086" lon="5.25435">
        <ele>462</ele>
        <time>2022-12-01T10:57:23Z</time>
      </trkpt>
      <trkpt lat="44.72209" lon="5.25501">
        <ele>465</ele>
        <time>2022-12-01T10:57:23Z</time>
      </trkpt>
      <trkpt lat="44.72226" lon="5.25505">
        <ele>467</ele>
        <time>2022-12-01T10:57:23Z</time>
      </trkpt>
      <trkpt lat="44.7224" lon="5.25502">
        <ele>469</ele>
        <time>2022-12-01T10:57:23Z</time>
      </trkpt>
      <trkpt lat="44.72249" lon="5.25498">
        <ele>470</ele>
        <time>2022-12-01T10:57:23Z</time>
      </trkpt>
      <trkpt lat="44.72262" lon="5.25486">
        <ele>471</ele>
        <time>2022-12-01T10:57:23Z</time>
      </trkpt>
      <trkpt lat="44.7227" lon="5.25482">
        <ele>478</ele>
        <time>2022-12-01T10:57:23Z</time>
      </trkpt>
      <trkpt lat="44.72348" lon="5.25491">
        <ele>478</ele>
        <time>2022-12-01T10:57:23Z</time>
      </trkpt>
      <trkpt lat="44.72452" lon="5.25468">
        <ele>478</ele>
        <time>2022-12-01T10:57:23Z</time>
      </trkpt>
      <trkpt lat="44.72561" lon="5.2549">
        <ele>476</ele>
        <time>2022-12-01T10:57:23Z</time>
      </trkpt>
      <trkpt lat="44.7257" lon="5.25487">
        <ele>475</ele>
        <time>2022-12-01T10:57:23Z</time>
      </trkpt>
      <trkpt lat="44.72615" lon="5.25415">
        <ele>476</ele>
        <time>2022-12-01T10:57:23Z</time>
      </trkpt>
      <trkpt lat="44.72628" lon="5.25405">
        <ele>476</ele>
        <time>2022-12-01T10:57:23Z</time>
      </trkpt>
      <trkpt lat="44.72638" lon="5.25404">
        <ele>476</ele>
        <time>2022-12-01T10:57:23Z</time>
      </trkpt>
      <trkpt lat="44.7265" lon="5.25391">
        <ele>477</ele>
        <time>2022-12-01T10:57:23Z</time>
      </trkpt>
      <trkpt lat="44.72659" lon="5.25397">
        <ele>478</ele>
        <time>2022-12-01T10:57:23Z</time>
      </trkpt>
      <trkpt lat="44.72662" lon="5.25413">
        <ele>479</ele>
        <time>2022-12-01T10:57:23Z</time>
      </trkpt>
      <trkpt lat="44.72679" lon="5.25425">
        <ele>479</ele>
        <time>2022-12-01T10:57:23Z</time>
      </trkpt>
      <trkpt lat="44.72728" lon="5.25419">
        <ele>481</ele>
        <time>2022-12-01T10:57:23Z</time>
      </trkpt>
      <trkpt lat="44.72755" lon="5.25406">
        <ele>483</ele>
        <time>2022-12-01T10:57:23Z</time>
      </trkpt>
      <trkpt lat="44.72796" lon="5.25363">
        <ele>488</ele>
        <time>2022-12-01T10:57:23Z</time>
      </trkpt>
      <trkpt lat="44.72758" lon="5.25367">
        <ele>491</ele>
        <time>2022-12-01T10:57:23Z</time>
      </trkpt>
      <trkpt lat="44.72746" lon="5.25353">
        <ele>494</ele>
        <time>2022-12-01T10:57:23Z</time>
      </trkpt>
      <trkpt lat="44.72737" lon="5.2533">
        <ele>497</ele>
        <time>2022-12-01T10:57:23Z</time>
      </trkpt>
      <trkpt lat="44.72711" lon="5.25287">
        <ele>500</ele>
        <time>2022-12-01T10:57:23Z</time>
      </trkpt>
      <trkpt lat="44.72708" lon="5.25229">
        <ele>503</ele>
        <time>2022-12-01T10:57:23Z</time>
      </trkpt>
      <trkpt lat="44.72715" lon="5.25192">
        <ele>508</ele>
        <time>2022-12-01T10:57:23Z</time>
      </trkpt>
      <trkpt lat="44.72724" lon="5.25188">
        <ele>511</ele>
        <time>2022-12-01T10:57:23Z</time>
      </trkpt>
      <trkpt lat="44.72731" lon="5.25194">
        <ele>514</ele>
        <time>2022-12-01T10:57:23Z</time>
      </trkpt>
      <trkpt lat="44.72741" lon="5.25216">
        <ele>516</ele>
        <time>2022-12-01T10:57:23Z</time>
      </trkpt>
      <trkpt lat="44.72758" lon="5.25228">
        <ele>519</ele>
        <time>2022-12-01T10:57:23Z</time>
      </trkpt>
      <trkpt lat="44.72813" lon="5.25245">
        <ele>523</ele>
        <time>2022-12-01T10:57:23Z</time>
      </trkpt>
      <trkpt lat="44.72827" lon="5.25241">
        <ele>527</ele>
        <time>2022-12-01T10:57:23Z</time>
      </trkpt>
      <trkpt lat="44.72834" lon="5.25246">
        <ele>530</ele>
        <time>2022-12-01T10:57:23Z</time>
      </trkpt>
      <trkpt lat="44.72852" lon="5.25274">
        <ele>532</ele>
        <time>2022-12-01T10:57:23Z</time>
      </trkpt>
      <trkpt lat="44.72893" lon="5.25293">
        <ele>535</ele>
        <time>2022-12-01T10:57:23Z</time>
      </trkpt>
      <trkpt lat="44.72901" lon="5.2529">
        <ele>538</ele>
        <time>2022-12-01T10:57:23Z</time>
      </trkpt>
      <trkpt lat="44.72882" lon="5.25255">
        <ele>541</ele>
        <time>2022-12-01T10:57:23Z</time>
      </trkpt>
      <trkpt lat="44.72859" lon="5.25173">
        <ele>546</ele>
        <time>2022-12-01T10:57:23Z</time>
      </trkpt>
      <trkpt lat="44.72849" lon="5.25155">
        <ele>550</ele>
        <time>2022-12-01T10:57:23Z</time>
      </trkpt>
      <trkpt lat="44.72834" lon="5.25108">
        <ele>555</ele>
        <time>2022-12-01T10:57:23Z</time>
      </trkpt>
      <trkpt lat="44.72816" lon="5.25074">
        <ele>560</ele>
        <time>2022-12-01T10:57:23Z</time>
      </trkpt>
      <trkpt lat="44.72813" lon="5.25062">
        <ele>563</ele>
        <time>2022-12-01T10:57:23Z</time>
      </trkpt>
      <trkpt lat="44.72817" lon="5.25052">
        <ele>565</ele>
        <time>2022-12-01T10:57:23Z</time>
      </trkpt>
      <trkpt lat="44.72831" lon="5.25058">
        <ele>568</ele>
        <time>2022-12-01T10:57:23Z</time>
      </trkpt>
      <trkpt lat="44.72928" lon="5.25083">
        <ele>577</ele>
        <time>2022-12-01T10:57:23Z</time>
      </trkpt>
      <trkpt lat="44.73097" lon="5.25226">
        <ele>597</ele>
        <time>2022-12-01T10:57:23Z</time>
      </trkpt>
      <trkpt lat="44.73105" lon="5.25238">
        <ele>608</ele>
        <time>2022-12-01T10:57:23Z</time>
      </trkpt>
      <trkpt lat="44.73138" lon="5.2526">
        <ele>616</ele>
        <time>2022-12-01T10:57:23Z</time>
      </trkpt>
      <trkpt lat="44.73203" lon="5.2527">
        <ele>625</ele>
        <time>2022-12-01T10:57:23Z</time>
      </trkpt>
      <trkpt lat="44.73171" lon="5.2524">
        <ele>632</ele>
        <time>2022-12-01T10:57:23Z</time>
      </trkpt>
      <trkpt lat="44.73159" lon="5.25222">
        <ele>638</ele>
        <time>2022-12-01T10:57:23Z</time>
      </trkpt>
      <trkpt lat="44.73148" lon="5.25131">
        <ele>646</ele>
        <time>2022-12-01T10:57:23Z</time>
      </trkpt>
      <trkpt lat="44.73072" lon="5.249">
        <ele>664</ele>
        <time>2022-12-01T10:57:23Z</time>
      </trkpt>
      <trkpt lat="44.72932" lon="5.24723">
        <ele>684</ele>
        <time>2022-12-01T10:57:23Z</time>
      </trkpt>
      <trkpt lat="44.72927" lon="5.24711">
        <ele>693</ele>
        <time>2022-12-01T10:57:23Z</time>
      </trkpt>
      <trkpt lat="44.72937" lon="5.2471">
        <ele>718</ele>
        <time>2022-12-01T10:57:23Z</time>
      </trkpt>
      <trkpt lat="44.72969" lon="5.24732">
        <ele>719</ele>
        <time>2022-12-01T10:57:23Z</time>
      </trkpt>
      <trkpt lat="44.73129" lon="5.24781">
        <ele>734</ele>
        <time>2022-12-01T10:57:23Z</time>
      </trkpt>
      <trkpt lat="44.73157" lon="5.24804">
        <ele>743</ele>
        <time>2022-12-01T10:57:23Z</time>
      </trkpt>
      <trkpt lat="44.732" lon="5.24889">
        <ele>749</ele>
        <time>2022-12-01T10:57:23Z</time>
      </trkpt>
      <trkpt lat="44.73319" lon="5.25031">
        <ele>764</ele>
        <time>2022-12-01T10:57:23Z</time>
      </trkpt>
      <trkpt lat="44.73326" lon="5.25055">
        <ele>772</ele>
        <time>2022-12-01T10:57:23Z</time>
      </trkpt>
      <trkpt lat="44.73367" lon="5.25082">
        <ele>778</ele>
        <time>2022-12-01T10:57:23Z</time>
      </trkpt>
      <trkpt lat="44.73387" lon="5.25084">
        <ele>783</ele>
        <time>2022-12-01T10:57:23Z</time>
      </trkpt>
      <trkpt lat="44.73429" lon="5.25102">
        <ele>786</ele>
        <time>2022-12-01T10:57:23Z</time>
      </trkpt>
      <trkpt lat="44.73489" lon="5.25082">
        <ele>792</ele>
        <time>2022-12-01T10:57:23Z</time>
      </trkpt>
      <trkpt lat="44.73515" lon="5.25059">
        <ele>798</ele>
        <time>2022-12-01T10:57:23Z</time>
      </trkpt>
      <trkpt lat="44.73535" lon="5.25051">
        <ele>803</ele>
        <time>2022-12-01T10:57:23Z</time>
      </trkpt>
      <trkpt lat="44.7354" lon="5.25042">
        <ele>807</ele>
        <time>2022-12-01T10:57:23Z</time>
      </trkpt>
      <trkpt lat="44.73543" lon="5.25017">
        <ele>809</ele>
        <time>2022-12-01T10:57:23Z</time>
      </trkpt>
      <trkpt lat="44.73498" lon="5.25015">
        <ele>813</ele>
        <time>2022-12-01T10:57:23Z</time>
      </trkpt>
      <trkpt lat="44.73466" lon="5.25002">
        <ele>817</ele>
        <time>2022-12-01T10:57:23Z</time>
      </trkpt>
      <trkpt lat="44.73387" lon="5.24903">
        <ele>823</ele>
        <time>2022-12-01T10:57:23Z</time>
      </trkpt>
      <trkpt lat="44.73386" lon="5.24888">
        <ele>827</ele>
        <time>2022-12-01T10:57:23Z</time>
      </trkpt>
      <trkpt lat="44.73399" lon="5.24689">
        <ele>835</ele>
        <time>2022-12-01T10:57:23Z</time>
      </trkpt>
      <trkpt lat="44.73396" lon="5.24669">
        <ele>839</ele>
        <time>2022-12-01T10:57:23Z</time>
      </trkpt>
      <trkpt lat="44.73393" lon="5.24656">
        <ele>841</ele>
        <time>2022-12-01T10:57:23Z</time>
      </trkpt>
      <trkpt lat="44.73372" lon="5.24624">
        <ele>844</ele>
        <time>2022-12-01T10:57:23Z</time>
      </trkpt>
      <trkpt lat="44.73368" lon="5.24611">
        <ele>846</ele>
        <time>2022-12-01T10:57:23Z</time>
      </trkpt>
      <trkpt lat="44.7335" lon="5.24584">
        <ele>848</ele>
        <time>2022-12-01T10:57:23Z</time>
      </trkpt>
      <trkpt lat="44.73336" lon="5.24541">
        <ele>851</ele>
        <time>2022-12-01T10:57:23Z</time>
      </trkpt>
      <trkpt lat="44.73334" lon="5.2452">
        <ele>854</ele>
        <time>2022-12-01T10:57:23Z</time>
      </trkpt>
      <trkpt lat="44.73353" lon="5.2444">
        <ele>855</ele>
        <time>2022-12-01T10:57:23Z</time>
      </trkpt>
      <trkpt lat="44.7335" lon="5.2443">
        <ele>856</ele>
        <time>2022-12-01T10:57:23Z</time>
      </trkpt>
      <trkpt lat="44.73344" lon="5.24423">
        <ele>857</ele>
        <time>2022-12-01T10:57:23Z</time>
      </trkpt>
      <trkpt lat="44.73335" lon="5.24422">
        <ele>859</ele>
        <time>2022-12-01T10:57:23Z</time>
      </trkpt>
      <trkpt lat="44.73332" lon="5.24432">
        <ele>860</ele>
        <time>2022-12-01T10:57:23Z</time>
      </trkpt>
      <trkpt lat="44.73331" lon="5.24456">
        <ele>862</ele>
        <time>2022-12-01T10:57:23Z</time>
      </trkpt>
      <trkpt lat="44.73325" lon="5.24472">
        <ele>863</ele>
        <time>2022-12-01T10:57:23Z</time>
      </trkpt>
      <trkpt lat="44.73318" lon="5.24479">
        <ele>865</ele>
        <time>2022-12-01T10:57:23Z</time>
      </trkpt>
      <trkpt lat="44.7331" lon="5.24478">
        <ele>867</ele>
        <time>2022-12-01T10:57:23Z</time>
      </trkpt>
      <trkpt lat="44.73305" lon="5.2445">
        <ele>869</ele>
        <time>2022-12-01T10:57:23Z</time>
      </trkpt>
      <trkpt lat="44.73233" lon="5.24344">
        <ele>876</ele>
        <time>2022-12-01T10:57:23Z</time>
      </trkpt>
      <trkpt lat="44.73229" lon="5.24356">
        <ele>881</ele>
        <time>2022-12-01T10:57:23Z</time>
      </trkpt>
      <trkpt lat="44.73248" lon="5.24443">
        <ele>886</ele>
        <time>2022-12-01T10:57:23Z</time>
      </trkpt>
      <trkpt lat="44.73249" lon="5.24466">
        <ele>889</ele>
        <time>2022-12-01T10:57:23Z</time>
      </trkpt>
      <trkpt lat="44.73242" lon="5.24505">
        <ele>893</ele>
        <time>2022-12-01T10:57:23Z</time>
      </trkpt>
      <trkpt lat="44.73234" lon="5.24516">
        <ele>895</ele>
        <time>2022-12-01T10:57:23Z</time>
      </trkpt>
      <trkpt lat="44.73225" lon="5.24516">
        <ele>897</ele>
        <time>2022-12-01T10:57:23Z</time>
      </trkpt>
      <trkpt lat="44.73183" lon="5.24448">
        <ele>901</ele>
        <time>2022-12-01T10:57:23Z</time>
      </trkpt>
      <trkpt lat="44.73108" lon="5.24381">
        <ele>910</ele>
        <time>2022-12-01T10:57:23Z</time>
      </trkpt>
      <trkpt lat="44.73102" lon="5.24371">
        <ele>915</ele>
        <time>2022-12-01T10:57:23Z</time>
      </trkpt>
      <trkpt lat="44.73096" lon="5.24355">
        <ele>919</ele>
        <time>2022-12-01T10:57:23Z</time>
      </trkpt>
      <trkpt lat="44.73088" lon="5.24342">
        <ele>923</ele>
        <time>2022-12-01T10:57:23Z</time>
      </trkpt>
      <trkpt lat="44.73081" lon="5.24335">
        <ele>926</ele>
        <time>2022-12-01T10:57:23Z</time>
      </trkpt>
      <trkpt lat="44.73018" lon="5.24309">
        <ele>947</ele>
        <time>2022-12-01T10:57:23Z</time>
      </trkpt>
      <trkpt lat="44.7299" lon="5.24283">
        <ele>947</ele>
        <time>2022-12-01T10:57:23Z</time>
      </trkpt>
      <trkpt lat="44.72978" lon="5.24261">
        <ele>947</ele>
        <time>2022-12-01T10:57:23Z</time>
      </trkpt>
      <trkpt lat="44.72971" lon="5.24229">
        <ele>948</ele>
        <time>2022-12-01T10:57:23Z</time>
      </trkpt>
      <trkpt lat="44.72971" lon="5.24201">
        <ele>949</ele>
        <time>2022-12-01T10:57:23Z</time>
      </trkpt>
      <trkpt lat="44.72993" lon="5.24113">
        <ele>951</ele>
        <time>2022-12-01T10:57:23Z</time>
      </trkpt>
      <trkpt lat="44.7299" lon="5.24098">
        <ele>953</ele>
        <time>2022-12-01T10:57:23Z</time>
      </trkpt>
      <trkpt lat="44.72984" lon="5.24084">
        <ele>955</ele>
        <time>2022-12-01T10:57:23Z</time>
      </trkpt>
      <trkpt lat="44.72983" lon="5.24068">
        <ele>956</ele>
        <time>2022-12-01T10:57:23Z</time>
      </trkpt>
      <trkpt lat="44.7298" lon="5.24056">
        <ele>958</ele>
        <time>2022-12-01T10:57:23Z</time>
      </trkpt>
      <trkpt lat="44.72973" lon="5.24048">
        <ele>959</ele>
        <time>2022-12-01T10:57:23Z</time>
      </trkpt>
      <trkpt lat="44.72902" lon="5.24013">
        <ele>960</ele>
        <time>2022-12-01T10:57:23Z</time>
      </trkpt>
      <trkpt lat="44.7289" lon="5.2399">
        <ele>961</ele>
        <time>2022-12-01T10:57:23Z</time>
      </trkpt>
      <trkpt lat="44.72879" lon="5.2398">
        <ele>963</ele>
        <time>2022-12-01T10:57:23Z</time>
      </trkpt>
      <trkpt lat="44.7287" lon="5.23976">
        <ele>964</ele>
        <time>2022-12-01T10:57:23Z</time>
      </trkpt>
      <trkpt lat="44.72847" lon="5.23979">
        <ele>964</ele>
        <time>2022-12-01T10:57:23Z</time>
      </trkpt>
      <trkpt lat="44.7284" lon="5.23976">
        <ele>964</ele>
        <time>2022-12-01T10:57:23Z</time>
      </trkpt>
      <trkpt lat="44.72825" lon="5.23976">
        <ele>963</ele>
        <time>2022-12-01T10:57:23Z</time>
      </trkpt>
      <trkpt lat="44.72815" lon="5.23972">
        <ele>963</ele>
        <time>2022-12-01T10:57:23Z</time>
      </trkpt>
      <trkpt lat="44.72754" lon="5.23919">
        <ele>965</ele>
        <time>2022-12-01T10:57:23Z</time>
      </trkpt>
      <trkpt lat="44.72728" lon="5.23908">
        <ele>966</ele>
        <time>2022-12-01T10:57:23Z</time>
      </trkpt>
      <trkpt lat="44.72719" lon="5.23912">
        <ele>966</ele>
        <time>2022-12-01T10:57:23Z</time>
      </trkpt>
      <trkpt lat="44.72712" lon="5.23911">
        <ele>966</ele>
        <time>2022-12-01T10:57:23Z</time>
      </trkpt>
      <trkpt lat="44.72679" lon="5.23897">
        <ele>967</ele>
        <time>2022-12-01T10:57:23Z</time>
      </trkpt>
      <trkpt lat="44.7265" lon="5.23894">
        <ele>967</ele>
        <time>2022-12-01T10:57:23Z</time>
      </trkpt>
      <trkpt lat="44.72651" lon="5.23883">
        <ele>967</ele>
        <time>2022-12-01T10:57:23Z</time>
      </trkpt>
      <trkpt lat="44.7268" lon="5.2381">
        <ele>967</ele>
        <time>2022-12-01T10:57:23Z</time>
      </trkpt>
      <trkpt lat="44.72675" lon="5.23784">
        <ele>966</ele>
        <time>2022-12-01T10:57:23Z</time>
      </trkpt>
      <trkpt lat="44.72679" lon="5.23767">
        <ele>964</ele>
        <time>2022-12-01T10:57:23Z</time>
      </trkpt>
      <trkpt lat="44.72818" lon="5.23516">
        <ele>957</ele>
        <time>2022-12-01T10:57:23Z</time>
      </trkpt>
      <trkpt lat="44.72822" lon="5.235">
        <ele>954</ele>
        <time>2022-12-01T10:57:23Z</time>
      </trkpt>
      <trkpt lat="44.72821" lon="5.23487">
        <ele>952</ele>
        <time>2022-12-01T10:57:23Z</time>
      </trkpt>
      <trkpt lat="44.72813" lon="5.23484">
        <ele>950</ele>
        <time>2022-12-01T10:57:23Z</time>
      </trkpt>
      <trkpt lat="44.72788" lon="5.23434">
        <ele>948</ele>
        <time>2022-12-01T10:57:23Z</time>
      </trkpt>
      <trkpt lat="44.72621" lon="5.23234">
        <ele>935</ele>
        <time>2022-12-01T10:57:23Z</time>
      </trkpt>
      <trkpt lat="44.72519" lon="5.23158">
        <ele>921</ele>
        <time>2022-12-01T10:57:23Z</time>
      </trkpt>
      <trkpt lat="44.726" lon="5.23291">
        <ele>907</ele>
        <time>2022-12-01T10:57:23Z</time>
      </trkpt>
      <trkpt lat="44.72619" lon="5.23342">
        <ele>897</ele>
        <time>2022-12-01T10:57:23Z</time>
      </trkpt>
      <trkpt lat="44.72612" lon="5.23348">
        <ele>890</ele>
        <time>2022-12-01T10:57:23Z</time>
      </trkpt>
      <trkpt lat="44.72598" lon="5.23339">
        <ele>885</ele>
        <time>2022-12-01T10:57:23Z</time>
      </trkpt>
      <trkpt lat="44.72516" lon="5.23255">
        <ele>877</ele>
        <time>2022-12-01T10:57:23Z</time>
      </trkpt>
      <trkpt lat="44.72473" lon="5.23228">
        <ele>871</ele>
        <time>2022-12-01T10:57:23Z</time>
      </trkpt>
      <trkpt lat="44.72475" lon="5.23242">
        <ele>867</ele>
        <time>2022-12-01T10:57:23Z</time>
      </trkpt>
      <trkpt lat="44.72516" lon="5.23296">
        <ele>861</ele>
        <time>2022-12-01T10:57:23Z</time>
      </trkpt>
      <trkpt lat="44.7257" lon="5.23403">
        <ele>854</ele>
        <time>2022-12-01T10:57:23Z</time>
      </trkpt>
      <trkpt lat="44.72572" lon="5.23413">
        <ele>849</ele>
        <time>2022-12-01T10:57:23Z</time>
      </trkpt>
      <trkpt lat="44.72435" lon="5.23314">
        <ele>837</ele>
        <time>2022-12-01T10:57:23Z</time>
      </trkpt>
      <trkpt lat="44.72426" lon="5.23313">
        <ele>831</ele>
        <time>2022-12-01T10:57:23Z</time>
      </trkpt>
      <trkpt lat="44.72417" lon="5.23316">
        <ele>827</ele>
        <time>2022-12-01T10:57:23Z</time>
      </trkpt>
      <trkpt lat="44.7219" lon="5.23332">
        <ele>809</ele>
        <time>2022-12-01T10:57:23Z</time>
      </trkpt>
      <trkpt lat="44.72379" lon="5.23448">
        <ele>757</ele>
        <time>2022-12-01T10:57:23Z</time>
      </trkpt>
      <trkpt lat="44.72384" lon="5.23456">
        <ele>757</ele>
        <time>2022-12-01T10:57:23Z</time>
      </trkpt>
      <trkpt lat="44.7225" lon="5.2346">
        <ele>749</ele>
        <time>2022-12-01T10:57:23Z</time>
      </trkpt>
      <trkpt lat="44.72123" lon="5.23488">
        <ele>737</ele>
        <time>2022-12-01T10:57:23Z</time>
      </trkpt>
      <trkpt lat="44.72127" lon="5.23502">
        <ele>730</ele>
        <time>2022-12-01T10:57:23Z</time>
      </trkpt>
      <trkpt lat="44.72148" lon="5.23519">
        <ele>725</ele>
        <time>2022-12-01T10:57:23Z</time>
      </trkpt>
      <trkpt lat="44.72237" lon="5.23551">
        <ele>719</ele>
        <time>2022-12-01T10:57:23Z</time>
      </trkpt>
      <trkpt lat="44.72234" lon="5.23569">
        <ele>716</ele>
        <time>2022-12-01T10:57:23Z</time>
      </trkpt>
      <trkpt lat="44.72182" lon="5.23607">
        <ele>710</ele>
        <time>2022-12-01T10:57:23Z</time>
      </trkpt>
      <trkpt lat="44.72045" lon="5.23775">
        <ele>695</ele>
        <time>2022-12-01T10:57:23Z</time>
      </trkpt>
      <trkpt lat="44.72045" lon="5.23763">
        <ele>687</ele>
        <time>2022-12-01T10:57:23Z</time>
      </trkpt>
      <trkpt lat="44.72052" lon="5.23753">
        <ele>681</ele>
        <time>2022-12-01T10:57:23Z</time>
      </trkpt>
      <trkpt lat="44.72057" lon="5.23742">
        <ele>678</ele>
        <time>2022-12-01T10:57:23Z</time>
      </trkpt>
      <trkpt lat="44.72061" lon="5.2372">
        <ele>674</ele>
        <time>2022-12-01T10:57:23Z</time>
      </trkpt>
      <trkpt lat="44.7206" lon="5.23708">
        <ele>671</ele>
        <time>2022-12-01T10:57:23Z</time>
      </trkpt>
      <trkpt lat="44.72052" lon="5.23699">
        <ele>668</ele>
        <time>2022-12-01T10:57:23Z</time>
      </trkpt>
      <trkpt lat="44.72042" lon="5.237">
        <ele>666</ele>
        <time>2022-12-01T10:57:23Z</time>
      </trkpt>
      <trkpt lat="44.72016" lon="5.23743">
        <ele>663</ele>
        <time>2022-12-01T10:57:23Z</time>
      </trkpt>
      <trkpt lat="44.72003" lon="5.23751">
        <ele>660</ele>
        <time>2022-12-01T10:57:23Z</time>
      </trkpt>
      <trkpt lat="44.71967" lon="5.23753">
        <ele>656</ele>
        <time>2022-12-01T10:57:23Z</time>
      </trkpt>
      <trkpt lat="44.71948" lon="5.23763">
        <ele>653</ele>
        <time>2022-12-01T10:57:23Z</time>
      </trkpt>
      <trkpt lat="44.71889" lon="5.23772">
        <ele>646</ele>
        <time>2022-12-01T10:57:23Z</time>
      </trkpt>
      <trkpt lat="44.71783" lon="5.23833">
        <ele>635</ele>
        <time>2022-12-01T10:57:23Z</time>
      </trkpt>
      <trkpt lat="44.71739" lon="5.23882">
        <ele>626</ele>
        <time>2022-12-01T10:57:23Z</time>
      </trkpt>
      <trkpt lat="44.71737" lon="5.23871">
        <ele>620</ele>
        <time>2022-12-01T10:57:23Z</time>
      </trkpt>
      <trkpt lat="44.71793" lon="5.23758">
        <ele>611</ele>
        <time>2022-12-01T10:57:23Z</time>
      </trkpt>
      <trkpt lat="44.71785" lon="5.23757">
        <ele>606</ele>
        <time>2022-12-01T10:57:23Z</time>
      </trkpt>
      <trkpt lat="44.71739" lon="5.23815">
        <ele>599</ele>
        <time>2022-12-01T10:57:23Z</time>
      </trkpt>
      <trkpt lat="44.71702" lon="5.23833">
        <ele>591</ele>
        <time>2022-12-01T10:57:23Z</time>
      </trkpt>
      <trkpt lat="44.71669" lon="5.23863">
        <ele>582</ele>
        <time>2022-12-01T10:57:23Z</time>
      </trkpt>
      <trkpt lat="44.71655" lon="5.23922">
        <ele>575</ele>
        <time>2022-12-01T10:57:23Z</time>
      </trkpt>
      <trkpt lat="44.716" lon="5.24027">
        <ele>563</ele>
        <time>2022-12-01T10:57:23Z</time>
      </trkpt>
      <trkpt lat="44.71598" lon="5.24039">
        <ele>556</ele>
        <time>2022-12-01T10:57:23Z</time>
      </trkpt>
      <trkpt lat="44.7159" lon="5.24051">
        <ele>551</ele>
        <time>2022-12-01T10:57:23Z</time>
      </trkpt>
      <trkpt lat="44.71582" lon="5.24053">
        <ele>547</ele>
        <time>2022-12-01T10:57:23Z</time>
      </trkpt>
      <trkpt lat="44.71574" lon="5.24058">
        <ele>543</ele>
        <time>2022-12-01T10:57:23Z</time>
      </trkpt>
      <trkpt lat="44.71566" lon="5.24075">
        <ele>540</ele>
        <time>2022-12-01T10:57:23Z</time>
      </trkpt>
      <trkpt lat="44.71563" lon="5.2409">
        <ele>537</ele>
        <time>2022-12-01T10:57:23Z</time>
      </trkpt>
      <trkpt lat="44.71564" lon="5.241">
        <ele>535</ele>
        <time>2022-12-01T10:57:23Z</time>
      </trkpt>
      <trkpt lat="44.71564" lon="5.24113">
        <ele>533</ele>
        <time>2022-12-01T10:57:23Z</time>
      </trkpt>
      <trkpt lat="44.71559" lon="5.24123">
        <ele>532</ele>
        <time>2022-12-01T10:57:23Z</time>
      </trkpt>
      <trkpt lat="44.71566" lon="5.24156">
        <ele>532</ele>
        <time>2022-12-01T10:57:23Z</time>
      </trkpt>
      <trkpt lat="44.71547" lon="5.24199">
        <ele>531</ele>
        <time>2022-12-01T10:57:23Z</time>
      </trkpt>
      <trkpt lat="44.71538" lon="5.24263">
        <ele>531</ele>
        <time>2022-12-01T10:57:23Z</time>
      </trkpt>
      <trkpt lat="44.71525" lon="5.24278">
        <ele>531</ele>
        <time>2022-12-01T10:57:23Z</time>
      </trkpt>
      <trkpt lat="44.7152" lon="5.24291">
        <ele>531</ele>
        <time>2022-12-01T10:57:23Z</time>
      </trkpt>
      <trkpt lat="44.71511" lon="5.24337">
        <ele>531</ele>
        <time>2022-12-01T10:57:23Z</time>
      </trkpt>
      <trkpt lat="44.71513" lon="5.24364">
        <ele>532</ele>
        <time>2022-12-01T10:57:23Z</time>
      </trkpt>
      <trkpt lat="44.71509" lon="5.24396">
        <ele>534</ele>
        <time>2022-12-01T10:57:23Z</time>
      </trkpt>
      <trkpt lat="44.71505" lon="5.24408">
        <ele>534</ele>
        <time>2022-12-01T10:57:23Z</time>
      </trkpt>
      <trkpt lat="44.71462" lon="5.24469">
        <ele>524</ele>
        <time>2022-12-01T10:57:23Z</time>
      </trkpt>
      <trkpt lat="44.71429" lon="5.24494">
        <ele>522</ele>
        <time>2022-12-01T10:57:23Z</time>
      </trkpt>
      <trkpt lat="44.71426" lon="5.24503">
        <ele>521</ele>
        <time>2022-12-01T10:57:23Z</time>
      </trkpt>
      <trkpt lat="44.71427" lon="5.24518">
        <ele>520</ele>
        <time>2022-12-01T10:57:23Z</time>
      </trkpt>
      <trkpt lat="44.71421" lon="5.2453">
        <ele>519</ele>
        <time>2022-12-01T10:57:23Z</time>
      </trkpt>
      <trkpt lat="44.71414" lon="5.24535">
        <ele>517</ele>
        <time>2022-12-01T10:57:23Z</time>
      </trkpt>
      <trkpt lat="44.71404" lon="5.24537">
        <ele>516</ele>
        <time>2022-12-01T10:57:23Z</time>
      </trkpt>
      <trkpt lat="44.71392" lon="5.2453">
        <ele>514</ele>
        <time>2022-12-01T10:57:23Z</time>
      </trkpt>
      <trkpt lat="44.71371" lon="5.2451">
        <ele>512</ele>
        <time>2022-12-01T10:57:23Z</time>
      </trkpt>
      <trkpt lat="44.71347" lon="5.24505">
        <ele>509</ele>
        <time>2022-12-01T10:57:23Z</time>
      </trkpt>
      <trkpt lat="44.71325" lon="5.24513">
        <ele>506</ele>
        <time>2022-12-01T10:57:23Z</time>
      </trkpt>
      <trkpt lat="44.71316" lon="5.24513">
        <ele>504</ele>
        <time>2022-12-01T10:57:23Z</time>
      </trkpt>
      <trkpt lat="44.71296" lon="5.24505">
        <ele>502</ele>
        <time>2022-12-01T10:57:23Z</time>
      </trkpt>
      <trkpt lat="44.71283" lon="5.24495">
        <ele>499</ele>
        <time>2022-12-01T10:57:23Z</time>
      </trkpt>
      <trkpt lat="44.71275" lon="5.24482">
        <ele>497</ele>
        <time>2022-12-01T10:57:23Z</time>
      </trkpt>
      <trkpt lat="44.71259" lon="5.24481">
        <ele>495</ele>
        <time>2022-12-01T10:57:23Z</time>
      </trkpt>
      <trkpt lat="44.71259" lon="5.24512">
        <ele>493</ele>
        <time>2022-12-01T10:57:23Z</time>
      </trkpt>
      <trkpt lat="44.7131" lon="5.24641">
        <ele>490</ele>
        <time>2022-12-01T10:57:23Z</time>
      </trkpt>
      <trkpt lat="44.71306" lon="5.24656">
        <ele>488</ele>
        <time>2022-12-01T10:57:23Z</time>
      </trkpt>
      <trkpt lat="44.71295" lon="5.24663">
        <ele>486</ele>
        <time>2022-12-01T10:57:23Z</time>
      </trkpt>
      <trkpt lat="44.71286" lon="5.24664">
        <ele>484</ele>
        <time>2022-12-01T10:57:23Z</time>
      </trkpt>
      <trkpt lat="44.71277" lon="5.2466">
        <ele>483</ele>
        <time>2022-12-01T10:57:23Z</time>
      </trkpt>
      <trkpt lat="44.71227" lon="5.24618">
        <ele>482</ele>
        <time>2022-12-01T10:57:23Z</time>
      </trkpt>
      <trkpt lat="44.71218" lon="5.24615">
        <ele>480</ele>
        <time>2022-12-01T10:57:23Z</time>
      </trkpt>
      <trkpt lat="44.71196" lon="5.24614">
        <ele>479</ele>
        <time>2022-12-01T10:57:23Z</time>
      </trkpt>
      <trkpt lat="44.7119" lon="5.24622">
        <ele>477</ele>
        <time>2022-12-01T10:57:23Z</time>
      </trkpt>
      <trkpt lat="44.71122" lon="5.24768">
        <ele>468</ele>
        <time>2022-12-01T10:57:23Z</time>
      </trkpt>
      <trkpt lat="44.71119" lon="5.24806">
        <ele>462</ele>
        <time>2022-12-01T10:57:23Z</time>
      </trkpt>
      <trkpt lat="44.71095" lon="5.24879">
        <ele>455</ele>
        <time>2022-12-01T10:57:23Z</time>
      </trkpt>
      <trkpt lat="44.71093" lon="5.24968">
        <ele>439</ele>
        <time>2022-12-01T10:57:23Z</time>
        <extensions>
          <visugpx:TrkExtension xmlns:visugpx="https://www.visugpx.com/editgpx/">
            <visugpx:node>1</visugpx:node>
            </visugpx:TrkExtension>
        </extensions>
      </trkpt>
    </trkseg>
  </trk>
  <trk>
    <name><![CDATA[VTT N°8 noir - Balcons de la Drôme - 39 km - Déniv 950 m]]></name>
    <extensions>
      <line xmlns="http://www.topografix.com/GPX/gpx_style/0/2">
        <color>000000</color>
        <width>4</width>
      </line>
    </extensions>
    <trkseg>
      <trkpt lat="44.69691" lon="5.1997">
        <ele>268</ele>
        <time>2022-11-17T10:28:38Z</time>
        <extensions>
          <visugpx:TrkExtension xmlns:visugpx="https://www.visugpx.com/editgpx/">
            <visugpx:node>1</visugpx:node>
            </visugpx:TrkExtension>
        </extensions>
      </trkpt>
      <trkpt lat="44.69682" lon="5.20003">
        <ele>268</ele>
        <time>2022-11-17T10:28:38Z</time>
      </trkpt>
      <trkpt lat="44.69677" lon="5.20077">
        <ele>268</ele>
      </trkpt>
      <trkpt lat="44.69672" lon="5.20151">
        <ele>267</ele>
        <time>2022-11-17T10:28:38Z</time>
      </trkpt>
      <trkpt lat="44.69677" lon="5.20226">
        <ele>267</ele>
      </trkpt>
      <trkpt lat="44.69681" lon="5.203">
        <ele>269</ele>
        <time>2022-11-17T10:28:38Z</time>
      </trkpt>
      <trkpt lat="44.69677" lon="5.2032">
        <ele>271</ele>
        <time>2022-11-17T10:28:38Z</time>
      </trkpt>
      <trkpt lat="44.6967" lon="5.20338">
        <ele>272</ele>
        <time>2022-11-17T10:28:38Z</time>
      </trkpt>
      <trkpt lat="44.69633" lon="5.2039">
        <ele>273</ele>
        <time>2022-11-17T10:28:38Z</time>
      </trkpt>
      <trkpt lat="44.69609" lon="5.2041">
        <ele>273</ele>
        <time>2022-11-17T10:28:38Z</time>
      </trkpt>
      <trkpt lat="44.69512" lon="5.20463">
        <ele>272</ele>
      </trkpt>
      <trkpt lat="44.69414" lon="5.20515">
        <ele>272</ele>
        <time>2022-11-17T10:28:38Z</time>
      </trkpt>
      <trkpt lat="44.69316" lon="5.20522">
        <ele>273</ele>
        <time>2022-11-17T10:28:38Z</time>
      </trkpt>
      <trkpt lat="44.69299" lon="5.20513">
        <ele>274</ele>
        <time>2022-11-17T10:28:38Z</time>
      </trkpt>
      <trkpt lat="44.69342" lon="5.2041">
        <ele>270</ele>
      </trkpt>
      <trkpt lat="44.69384" lon="5.20308">
        <ele>271</ele>
      </trkpt>
      <trkpt lat="44.69427" lon="5.20205">
        <ele>273</ele>
      </trkpt>
      <trkpt lat="44.69469" lon="5.20102">
        <ele>274</ele>
        <time>2022-11-17T10:28:38Z</time>
      </trkpt>
      <trkpt lat="44.69485" lon="5.20101">
        <ele>275</ele>
        <time>2022-11-17T10:28:38Z</time>
      </trkpt>
      <trkpt lat="44.69496" lon="5.20092">
        <ele>275</ele>
        <time>2022-11-17T10:28:38Z</time>
      </trkpt>
      <trkpt lat="44.69509" lon="5.20065">
        <ele>275</ele>
        <time>2022-11-17T10:28:38Z</time>
      </trkpt>
      <trkpt lat="44.69511" lon="5.20049">
        <ele>276</ele>
        <time>2022-11-17T10:28:38Z</time>
      </trkpt>
      <trkpt lat="44.69509" lon="5.20035">
        <ele>276</ele>
        <time>2022-11-17T10:28:38Z</time>
      </trkpt>
      <trkpt lat="44.695" lon="5.20007">
        <ele>276</ele>
        <time>2022-11-17T10:28:38Z</time>
      </trkpt>
      <trkpt lat="44.6949" lon="5.19994">
        <ele>276</ele>
        <time>2022-11-17T10:28:38Z</time>
      </trkpt>
      <trkpt lat="44.69477" lon="5.19969">
        <ele>277</ele>
        <time>2022-11-17T10:28:38Z</time>
      </trkpt>
      <trkpt lat="44.69475" lon="5.19957">
        <ele>277</ele>
        <time>2022-11-17T10:28:38Z</time>
      </trkpt>
      <trkpt lat="44.69473" lon="5.19924">
        <ele>277</ele>
        <time>2022-11-17T10:28:38Z</time>
      </trkpt>
      <trkpt lat="44.69467" lon="5.1991">
        <ele>278</ele>
        <time>2022-11-17T10:28:38Z</time>
      </trkpt>
      <trkpt lat="44.69425" lon="5.19877">
        <ele>279</ele>
        <time>2022-11-17T10:28:38Z</time>
      </trkpt>
      <trkpt lat="44.69343" lon="5.19851">
        <ele>282</ele>
        <time>2022-11-17T10:28:38Z</time>
      </trkpt>
      <trkpt lat="44.69244" lon="5.19842">
        <ele>286</ele>
      </trkpt>
      <trkpt lat="44.69144" lon="5.19833">
        <ele>290</ele>
        <time>2022-11-17T10:28:38Z</time>
      </trkpt>
      <trkpt lat="44.69134" lon="5.19828">
        <ele>292</ele>
        <time>2022-11-17T10:28:38Z</time>
      </trkpt>
      <trkpt lat="44.6903" lon="5.19826">
        <ele>296</ele>
        <time>2022-11-17T10:28:38Z</time>
      </trkpt>
      <trkpt lat="44.69019" lon="5.19821">
        <ele>298</ele>
        <time>2022-11-17T10:28:38Z</time>
      </trkpt>
      <trkpt lat="44.69003" lon="5.19808">
        <ele>300</ele>
        <time>2022-11-17T10:28:38Z</time>
      </trkpt>
      <trkpt lat="44.68957" lon="5.19813">
        <ele>301</ele>
        <time>2022-11-17T10:28:38Z</time>
      </trkpt>
      <trkpt lat="44.68905" lon="5.19797">
        <ele>304</ele>
      </trkpt>
      <trkpt lat="44.68853" lon="5.19781">
        <ele>306</ele>
      </trkpt>
      <trkpt lat="44.68801" lon="5.19764">
        <ele>309</ele>
      </trkpt>
      <trkpt lat="44.68749" lon="5.19748">
        <ele>311</ele>
      </trkpt>
      <trkpt lat="44.68696" lon="5.19732">
        <ele>313</ele>
      </trkpt>
      <trkpt lat="44.68644" lon="5.19716">
        <ele>315</ele>
      </trkpt>
      <trkpt lat="44.68592" lon="5.197">
        <ele>317</ele>
      </trkpt>
      <trkpt lat="44.6854" lon="5.19683">
        <ele>319</ele>
      </trkpt>
      <trkpt lat="44.68488" lon="5.19667">
        <ele>321</ele>
      </trkpt>
      <trkpt lat="44.68436" lon="5.19651">
        <ele>323</ele>
      </trkpt>
      <trkpt lat="44.68384" lon="5.19635">
        <ele>325</ele>
      </trkpt>
      <trkpt lat="44.68332" lon="5.19619">
        <ele>326</ele>
      </trkpt>
      <trkpt lat="44.68279" lon="5.19603">
        <ele>328</ele>
      </trkpt>
      <trkpt lat="44.68227" lon="5.19586">
        <ele>332</ele>
      </trkpt>
      <trkpt lat="44.68175" lon="5.1957">
        <ele>334</ele>
      </trkpt>
      <trkpt lat="44.68123" lon="5.19554">
        <ele>334</ele>
        <time>2022-11-17T10:28:38Z</time>
      </trkpt>
      <trkpt lat="44.68034" lon="5.19496">
        <ele>336</ele>
      </trkpt>
      <trkpt lat="44.67945" lon="5.19439">
        <ele>338</ele>
        <time>2022-11-17T10:28:38Z</time>
      </trkpt>
      <trkpt lat="44.67926" lon="5.19437">
        <ele>339</ele>
        <time>2022-11-17T10:28:38Z</time>
      </trkpt>
      <trkpt lat="44.67862" lon="5.19458">
        <ele>340</ele>
      </trkpt>
      <trkpt lat="44.67798" lon="5.19479">
        <ele>341</ele>
      </trkpt>
      <trkpt lat="44.67734" lon="5.19499">
        <ele>342</ele>
      </trkpt>
      <trkpt lat="44.6767" lon="5.1952">
        <ele>344</ele>
        <time>2022-11-17T10:28:38Z</time>
      </trkpt>
      <trkpt lat="44.67582" lon="5.1952">
        <ele>351</ele>
        <time>2022-11-17T10:28:38Z</time>
      </trkpt>
      <trkpt lat="44.6757" lon="5.19527">
        <ele>355</ele>
        <time>2022-11-17T10:28:38Z</time>
      </trkpt>
      <trkpt lat="44.67563" lon="5.19534">
        <ele>357</ele>
        <time>2022-11-17T10:28:38Z</time>
      </trkpt>
      <trkpt lat="44.67556" lon="5.19547">
        <ele>359</ele>
        <time>2022-11-17T10:28:38Z</time>
      </trkpt>
      <trkpt lat="44.67548" lon="5.19581">
        <ele>359</ele>
        <time>2022-11-17T10:28:38Z</time>
      </trkpt>
      <trkpt lat="44.6754" lon="5.19591">
        <ele>359</ele>
        <time>2022-11-17T10:28:38Z</time>
      </trkpt>
      <trkpt lat="44.67492" lon="5.19629">
        <ele>360</ele>
        <time>2022-11-17T10:28:38Z</time>
      </trkpt>
      <trkpt lat="44.67453" lon="5.19634">
        <ele>361</ele>
        <time>2022-11-17T10:28:38Z</time>
      </trkpt>
      <trkpt lat="44.67438" lon="5.19628">
        <ele>362</ele>
        <time>2022-11-17T10:28:38Z</time>
      </trkpt>
      <trkpt lat="44.67424" lon="5.19628">
        <ele>363</ele>
        <time>2022-11-17T10:28:38Z</time>
      </trkpt>
      <trkpt lat="44.67407" lon="5.1964">
        <ele>363</ele>
        <time>2022-11-17T10:28:38Z</time>
      </trkpt>
      <trkpt lat="44.67391" lon="5.19661">
        <ele>364</ele>
        <time>2022-11-17T10:28:38Z</time>
      </trkpt>
      <trkpt lat="44.67386" lon="5.19674">
        <ele>365</ele>
        <time>2022-11-17T10:28:38Z</time>
      </trkpt>
      <trkpt lat="44.6738" lon="5.19712">
        <ele>366</ele>
        <time>2022-11-17T10:28:38Z</time>
      </trkpt>
      <trkpt lat="44.6736" lon="5.19747">
        <ele>368</ele>
        <time>2022-11-17T10:28:38Z</time>
      </trkpt>
      <trkpt lat="44.67349" lon="5.19818">
        <ele>373</ele>
        <time>2022-11-17T10:28:38Z</time>
      </trkpt>
      <trkpt lat="44.67343" lon="5.19827">
        <ele>373</ele>
        <time>2022-11-17T10:28:38Z</time>
      </trkpt>
      <trkpt lat="44.6722" lon="5.19917">
        <ele>377</ele>
        <time>2022-11-17T10:28:38Z</time>
      </trkpt>
      <trkpt lat="44.672" lon="5.19945">
        <ele>378</ele>
        <time>2022-11-17T10:28:38Z</time>
      </trkpt>
      <trkpt lat="44.67143" lon="5.19974">
        <ele>382</ele>
        <time>2022-11-17T10:28:38Z</time>
      </trkpt>
      <trkpt lat="44.67103" lon="5.20019">
        <ele>385</ele>
        <time>2022-11-17T10:28:38Z</time>
      </trkpt>
      <trkpt lat="44.6708" lon="5.20061">
        <ele>388</ele>
        <time>2022-11-17T10:28:38Z</time>
      </trkpt>
      <trkpt lat="44.6707" lon="5.20093">
        <ele>390</ele>
        <time>2022-11-17T10:28:38Z</time>
      </trkpt>
      <trkpt lat="44.67063" lon="5.20105">
        <ele>391</ele>
        <time>2022-11-17T10:28:38Z</time>
      </trkpt>
      <trkpt lat="44.67056" lon="5.20109">
        <ele>392</ele>
        <time>2022-11-17T10:28:38Z</time>
      </trkpt>
      <trkpt lat="44.6703" lon="5.20117">
        <ele>394</ele>
        <time>2022-11-17T10:28:38Z</time>
      </trkpt>
      <trkpt lat="44.6702" lon="5.20127">
        <ele>395</ele>
        <time>2022-11-17T10:28:38Z</time>
      </trkpt>
      <trkpt lat="44.6701" lon="5.20128">
        <ele>396</ele>
        <time>2022-11-17T10:28:38Z</time>
      </trkpt>
      <trkpt lat="44.67003" lon="5.20133">
        <ele>397</ele>
        <time>2022-11-17T10:28:38Z</time>
      </trkpt>
      <trkpt lat="44.66993" lon="5.20144">
        <ele>398</ele>
        <time>2022-11-17T10:28:38Z</time>
      </trkpt>
      <trkpt lat="44.66965" lon="5.20214">
        <ele>398</ele>
        <time>2022-11-17T10:28:38Z</time>
      </trkpt>
      <trkpt lat="44.668" lon="5.20418">
        <ele>405</ele>
        <time>2022-11-17T10:28:38Z</time>
      </trkpt>
      <trkpt lat="44.66629" lon="5.2053">
        <ele>414</ele>
        <time>2022-11-17T10:28:38Z</time>
      </trkpt>
      <trkpt lat="44.66619" lon="5.20549">
        <ele>418</ele>
        <time>2022-11-17T10:28:38Z</time>
      </trkpt>
      <trkpt lat="44.66598" lon="5.20614">
        <ele>421</ele>
        <time>2022-11-17T10:28:38Z</time>
      </trkpt>
      <trkpt lat="44.66591" lon="5.20616">
        <ele>422</ele>
        <time>2022-11-17T10:28:38Z</time>
      </trkpt>
      <trkpt lat="44.66585" lon="5.20603">
        <ele>424</ele>
        <time>2022-11-17T10:28:38Z</time>
      </trkpt>
      <trkpt lat="44.66585" lon="5.20593">
        <ele>425</ele>
        <time>2022-11-17T10:28:38Z</time>
      </trkpt>
      <trkpt lat="44.66597" lon="5.20539">
        <ele>426</ele>
        <time>2022-11-17T10:28:38Z</time>
      </trkpt>
      <trkpt lat="44.66598" lon="5.20521">
        <ele>427</ele>
        <time>2022-11-17T10:28:38Z</time>
      </trkpt>
      <trkpt lat="44.66588" lon="5.20492">
        <ele>429</ele>
        <time>2022-11-17T10:28:38Z</time>
      </trkpt>
      <trkpt lat="44.66578" lon="5.20425">
        <ele>433</ele>
        <time>2022-11-17T10:28:38Z</time>
      </trkpt>
      <trkpt lat="44.66579" lon="5.20413">
        <ele>435</ele>
        <time>2022-11-17T10:28:38Z</time>
      </trkpt>
      <trkpt lat="44.66582" lon="5.20401">
        <ele>437</ele>
        <time>2022-11-17T10:28:38Z</time>
      </trkpt>
      <trkpt lat="44.66583" lon="5.20369">
        <ele>439</ele>
        <time>2022-11-17T10:28:38Z</time>
      </trkpt>
      <trkpt lat="44.66551" lon="5.20297">
        <ele>444</ele>
        <time>2022-11-17T10:28:38Z</time>
      </trkpt>
      <trkpt lat="44.66552" lon="5.20231">
        <ele>449</ele>
        <time>2022-11-17T10:28:38Z</time>
      </trkpt>
      <trkpt lat="44.66547" lon="5.2022">
        <ele>453</ele>
        <time>2022-11-17T10:28:38Z</time>
      </trkpt>
      <trkpt lat="44.66545" lon="5.20164">
        <ele>459</ele>
        <time>2022-11-17T10:28:38Z</time>
      </trkpt>
      <trkpt lat="44.66486" lon="5.20069">
        <ele>468</ele>
        <time>2022-11-17T10:28:38Z</time>
      </trkpt>
      <trkpt lat="44.66476" lon="5.20025">
        <ele>476</ele>
        <time>2022-11-17T10:28:38Z</time>
      </trkpt>
      <trkpt lat="44.66452" lon="5.20009">
        <ele>483</ele>
        <time>2022-11-17T10:28:38Z</time>
      </trkpt>
      <trkpt lat="44.66305" lon="5.19756">
        <ele>511</ele>
        <time>2022-11-17T10:28:38Z</time>
      </trkpt>
      <trkpt lat="44.6629" lon="5.19673">
        <ele>529</ele>
        <time>2022-11-17T10:28:38Z</time>
      </trkpt>
      <trkpt lat="44.66289" lon="5.19601">
        <ele>540</ele>
        <time>2022-11-17T10:28:38Z</time>
      </trkpt>
      <trkpt lat="44.6625" lon="5.19402">
        <ele>558</ele>
        <time>2022-11-17T10:28:38Z</time>
      </trkpt>
      <trkpt lat="44.66216" lon="5.19313">
        <ele>573</ele>
        <time>2022-11-17T10:28:38Z</time>
      </trkpt>
      <trkpt lat="44.66266" lon="5.19271">
        <ele>583</ele>
        <time>2022-11-17T10:28:38Z</time>
      </trkpt>
      <trkpt lat="44.6628" lon="5.19272">
        <ele>589</ele>
        <time>2022-11-17T10:28:38Z</time>
      </trkpt>
      <trkpt lat="44.66289" lon="5.19276">
        <ele>593</ele>
        <time>2022-11-17T10:28:38Z</time>
      </trkpt>
      <trkpt lat="44.66354" lon="5.19384">
        <ele>599</ele>
        <time>2022-11-17T10:28:38Z</time>
      </trkpt>
      <trkpt lat="44.66372" lon="5.19437">
        <ele>604</ele>
        <time>2022-11-17T10:28:38Z</time>
      </trkpt>
      <trkpt lat="44.66378" lon="5.19443">
        <ele>607</ele>
        <time>2022-11-17T10:28:38Z</time>
      </trkpt>
      <trkpt lat="44.66381" lon="5.19432">
        <ele>610</ele>
        <time>2022-11-17T10:28:38Z</time>
      </trkpt>
      <trkpt lat="44.66375" lon="5.19413">
        <ele>612</ele>
        <time>2022-11-17T10:28:38Z</time>
      </trkpt>
      <trkpt lat="44.66373" lon="5.19354">
        <ele>632</ele>
        <time>2022-11-17T10:28:38Z</time>
      </trkpt>
      <trkpt lat="44.66378" lon="5.19328">
        <ele>633</ele>
        <time>2022-11-17T10:28:38Z</time>
      </trkpt>
      <trkpt lat="44.66355" lon="5.19165">
        <ele>636</ele>
        <time>2022-11-17T10:28:38Z</time>
      </trkpt>
      <trkpt lat="44.66327" lon="5.19095">
        <ele>638</ele>
        <time>2022-11-17T10:28:38Z</time>
      </trkpt>
      <trkpt lat="44.66312" lon="5.19081">
        <ele>639</ele>
        <time>2022-11-17T10:28:38Z</time>
      </trkpt>
      <trkpt lat="44.66304" lon="5.19065">
        <ele>640</ele>
        <time>2022-11-17T10:28:38Z</time>
      </trkpt>
      <trkpt lat="44.66302" lon="5.19049">
        <ele>641</ele>
        <time>2022-11-17T10:28:38Z</time>
      </trkpt>
      <trkpt lat="44.66309" lon="5.18892">
        <ele>640</ele>
        <time>2022-11-17T10:28:38Z</time>
      </trkpt>
      <trkpt lat="44.66314" lon="5.18878">
        <ele>639</ele>
        <time>2022-11-17T10:28:38Z</time>
      </trkpt>
      <trkpt lat="44.66345" lon="5.18836">
        <ele>638</ele>
        <time>2022-11-17T10:28:38Z</time>
      </trkpt>
      <trkpt lat="44.6635" lon="5.18825">
        <ele>636</ele>
        <time>2022-11-17T10:28:38Z</time>
      </trkpt>
      <trkpt lat="44.6634" lon="5.18755">
        <ele>638</ele>
        <time>2022-11-17T10:28:38Z</time>
      </trkpt>
      <trkpt lat="44.66341" lon="5.18745">
        <ele>639</ele>
        <time>2022-11-17T10:28:38Z</time>
      </trkpt>
      <trkpt lat="44.66345" lon="5.18735">
        <ele>639</ele>
        <time>2022-11-17T10:28:38Z</time>
      </trkpt>
      <trkpt lat="44.66344" lon="5.18719">
        <ele>639</ele>
        <time>2022-11-17T10:28:38Z</time>
      </trkpt>
      <trkpt lat="44.66323" lon="5.18648">
        <ele>641</ele>
        <time>2022-11-17T10:28:38Z</time>
      </trkpt>
      <trkpt lat="44.66318" lon="5.18639">
        <ele>643</ele>
        <time>2022-11-17T10:28:38Z</time>
      </trkpt>
      <trkpt lat="44.66298" lon="5.18631">
        <ele>645</ele>
        <time>2022-11-17T10:28:38Z</time>
      </trkpt>
      <trkpt lat="44.66292" lon="5.18626">
        <ele>647</ele>
        <time>2022-11-17T10:28:38Z</time>
      </trkpt>
      <trkpt lat="44.66288" lon="5.18607">
        <ele>648</ele>
        <time>2022-11-17T10:28:38Z</time>
      </trkpt>
      <trkpt lat="44.66289" lon="5.18592">
        <ele>650</ele>
        <time>2022-11-17T10:28:38Z</time>
      </trkpt>
      <trkpt lat="44.66306" lon="5.18542">
        <ele>652</ele>
        <time>2022-11-17T10:28:38Z</time>
      </trkpt>
      <trkpt lat="44.66316" lon="5.18531">
        <ele>654</ele>
        <time>2022-11-17T10:28:38Z</time>
      </trkpt>
      <trkpt lat="44.66325" lon="5.1851">
        <ele>656</ele>
        <time>2022-11-17T10:28:38Z</time>
      </trkpt>
      <trkpt lat="44.66321" lon="5.18501">
        <ele>658</ele>
        <time>2022-11-17T10:28:38Z</time>
      </trkpt>
      <trkpt lat="44.66253" lon="5.18531">
        <ele>662</ele>
        <time>2022-11-17T10:28:38Z</time>
      </trkpt>
      <trkpt lat="44.66249" lon="5.18521">
        <ele>665</ele>
        <time>2022-11-17T10:28:38Z</time>
      </trkpt>
      <trkpt lat="44.66256" lon="5.18513">
        <ele>667</ele>
        <time>2022-11-17T10:28:38Z</time>
      </trkpt>
      <trkpt lat="44.66266" lon="5.18505">
        <ele>668</ele>
        <time>2022-11-17T10:28:38Z</time>
      </trkpt>
      <trkpt lat="44.66276" lon="5.18493">
        <ele>670</ele>
        <time>2022-11-17T10:28:38Z</time>
      </trkpt>
      <trkpt lat="44.66284" lon="5.18458">
        <ele>672</ele>
        <time>2022-11-17T10:28:38Z</time>
      </trkpt>
      <trkpt lat="44.66293" lon="5.1844">
        <ele>674</ele>
        <time>2022-11-17T10:28:38Z</time>
      </trkpt>
      <trkpt lat="44.66353" lon="5.18379">
        <ele>678</ele>
        <time>2022-11-17T10:28:38Z</time>
      </trkpt>
      <trkpt lat="44.66385" lon="5.18368">
        <ele>682</ele>
        <time>2022-11-17T10:28:38Z</time>
      </trkpt>
      <trkpt lat="44.6639" lon="5.18355">
        <ele>684</ele>
        <time>2022-11-17T10:28:38Z</time>
      </trkpt>
      <trkpt lat="44.66389" lon="5.18321">
        <ele>686</ele>
        <time>2022-11-17T10:28:38Z</time>
      </trkpt>
      <trkpt lat="44.66385" lon="5.18308">
        <ele>688</ele>
        <time>2022-11-17T10:28:38Z</time>
      </trkpt>
      <trkpt lat="44.66374" lon="5.18293">
        <ele>690</ele>
        <time>2022-11-17T10:28:38Z</time>
      </trkpt>
      <trkpt lat="44.6631" lon="5.18242">
        <ele>693</ele>
        <time>2022-11-17T10:28:38Z</time>
      </trkpt>
      <trkpt lat="44.66302" lon="5.18228">
        <ele>696</ele>
        <time>2022-11-17T10:28:38Z</time>
      </trkpt>
      <trkpt lat="44.66298" lon="5.18218">
        <ele>698</ele>
        <time>2022-11-17T10:28:38Z</time>
      </trkpt>
      <trkpt lat="44.66284" lon="5.18166">
        <ele>698</ele>
        <time>2022-11-17T10:28:38Z</time>
      </trkpt>
      <trkpt lat="44.66271" lon="5.18145">
        <ele>698</ele>
        <time>2022-11-17T10:28:38Z</time>
      </trkpt>
      <trkpt lat="44.66256" lon="5.1813">
        <ele>698</ele>
        <time>2022-11-17T10:28:38Z</time>
      </trkpt>
      <trkpt lat="44.66229" lon="5.1812">
        <ele>700</ele>
        <time>2022-11-17T10:28:38Z</time>
      </trkpt>
      <trkpt lat="44.66198" lon="5.18065">
        <ele>702</ele>
        <time>2022-11-17T10:28:38Z</time>
      </trkpt>
      <trkpt lat="44.66184" lon="5.18054">
        <ele>704</ele>
        <time>2022-11-17T10:28:38Z</time>
      </trkpt>
      <trkpt lat="44.66181" lon="5.18042">
        <ele>706</ele>
        <time>2022-11-17T10:28:38Z</time>
      </trkpt>
      <trkpt lat="44.66185" lon="5.1803">
        <ele>707</ele>
        <time>2022-11-17T10:28:38Z</time>
      </trkpt>
      <trkpt lat="44.66183" lon="5.18012">
        <ele>708</ele>
        <time>2022-11-17T10:28:38Z</time>
      </trkpt>
      <trkpt lat="44.66178" lon="5.17999">
        <ele>716</ele>
        <time>2022-11-17T10:28:38Z</time>
      </trkpt>
      <trkpt lat="44.66201" lon="5.17948">
        <ele>715</ele>
        <time>2022-11-17T10:28:38Z</time>
      </trkpt>
      <trkpt lat="44.66211" lon="5.17935">
        <ele>715</ele>
        <time>2022-11-17T10:28:38Z</time>
      </trkpt>
      <trkpt lat="44.66268" lon="5.17903">
        <ele>715</ele>
        <time>2022-11-17T10:28:38Z</time>
      </trkpt>
      <trkpt lat="44.66272" lon="5.17893">
        <ele>716</ele>
        <time>2022-11-17T10:28:38Z</time>
      </trkpt>
      <trkpt lat="44.66287" lon="5.17833">
        <ele>718</ele>
        <time>2022-11-17T10:28:38Z</time>
      </trkpt>
      <trkpt lat="44.6633" lon="5.1776">
        <ele>719</ele>
        <time>2022-11-17T10:28:38Z</time>
      </trkpt>
      <trkpt lat="44.66328" lon="5.17746">
        <ele>721</ele>
        <time>2022-11-17T10:28:38Z</time>
      </trkpt>
      <trkpt lat="44.66321" lon="5.17724">
        <ele>723</ele>
        <time>2022-11-17T10:28:38Z</time>
      </trkpt>
      <trkpt lat="44.66302" lon="5.17695">
        <ele>726</ele>
        <time>2022-11-17T10:28:38Z</time>
      </trkpt>
      <trkpt lat="44.66307" lon="5.17681">
        <ele>728</ele>
        <time>2022-11-17T10:28:38Z</time>
      </trkpt>
      <trkpt lat="44.66357" lon="5.17657">
        <ele>728</ele>
        <time>2022-11-17T10:28:38Z</time>
      </trkpt>
      <trkpt lat="44.66373" lon="5.17636">
        <ele>728</ele>
        <time>2022-11-17T10:28:38Z</time>
      </trkpt>
      <trkpt lat="44.66381" lon="5.17611">
        <ele>728</ele>
        <time>2022-11-17T10:28:38Z</time>
      </trkpt>
      <trkpt lat="44.6638" lon="5.17589">
        <ele>728</ele>
        <time>2022-11-17T10:28:38Z</time>
      </trkpt>
      <trkpt lat="44.66378" lon="5.17577">
        <ele>728</ele>
        <time>2022-11-17T10:28:38Z</time>
      </trkpt>
      <trkpt lat="44.66366" lon="5.1756">
        <ele>729</ele>
        <time>2022-11-17T10:28:38Z</time>
      </trkpt>
      <trkpt lat="44.66363" lon="5.17545">
        <ele>729</ele>
        <time>2022-11-17T10:28:38Z</time>
      </trkpt>
      <trkpt lat="44.66364" lon="5.1753">
        <ele>730</ele>
        <time>2022-11-17T10:28:38Z</time>
      </trkpt>
      <trkpt lat="44.66379" lon="5.17475">
        <ele>731</ele>
        <time>2022-11-17T10:28:38Z</time>
      </trkpt>
      <trkpt lat="44.66389" lon="5.17461">
        <ele>731</ele>
        <time>2022-11-17T10:28:38Z</time>
      </trkpt>
      <trkpt lat="44.66394" lon="5.17446">
        <ele>731</ele>
        <time>2022-11-17T10:28:38Z</time>
      </trkpt>
      <trkpt lat="44.66388" lon="5.174">
        <ele>731</ele>
        <time>2022-11-17T10:28:38Z</time>
      </trkpt>
      <trkpt lat="44.66364" lon="5.17346">
        <ele>731</ele>
        <time>2022-11-17T10:28:38Z</time>
      </trkpt>
      <trkpt lat="44.66361" lon="5.17326">
        <ele>731</ele>
        <time>2022-11-17T10:28:38Z</time>
      </trkpt>
      <trkpt lat="44.66396" lon="5.17263">
        <ele>731</ele>
        <time>2022-11-17T10:28:38Z</time>
      </trkpt>
      <trkpt lat="44.66398" lon="5.17218">
        <ele>730</ele>
        <time>2022-11-17T10:28:38Z</time>
      </trkpt>
      <trkpt lat="44.66381" lon="5.17046">
        <ele>730</ele>
        <time>2022-11-17T10:28:38Z</time>
      </trkpt>
      <trkpt lat="44.66401" lon="5.17002">
        <ele>731</ele>
        <time>2022-11-17T10:28:38Z</time>
      </trkpt>
      <trkpt lat="44.66426" lon="5.1697">
        <ele>730</ele>
        <time>2022-11-17T10:28:38Z</time>
      </trkpt>
      <trkpt lat="44.66469" lon="5.16939">
        <ele>727</ele>
        <time>2022-11-17T10:28:38Z</time>
      </trkpt>
      <trkpt lat="44.66518" lon="5.16888">
        <ele>723</ele>
        <time>2022-11-17T10:28:38Z</time>
      </trkpt>
      <trkpt lat="44.66544" lon="5.16824">
        <ele>717</ele>
        <time>2022-11-17T10:28:38Z</time>
      </trkpt>
      <trkpt lat="44.66551" lon="5.16766">
        <ele>712</ele>
        <time>2022-11-17T10:28:38Z</time>
      </trkpt>
      <trkpt lat="44.66552" lon="5.16643">
        <ele>702</ele>
        <time>2022-11-17T10:28:38Z</time>
      </trkpt>
      <trkpt lat="44.66568" lon="5.16501">
        <ele>693</ele>
        <time>2022-11-17T10:28:38Z</time>
      </trkpt>
      <trkpt lat="44.66605" lon="5.16396">
        <ele>687</ele>
        <time>2022-11-17T10:28:38Z</time>
      </trkpt>
      <trkpt lat="44.66619" lon="5.16285">
        <ele>684</ele>
        <time>2022-11-17T10:28:38Z</time>
      </trkpt>
      <trkpt lat="44.66625" lon="5.16268">
        <ele>682</ele>
        <time>2022-11-17T10:28:38Z</time>
      </trkpt>
      <trkpt lat="44.66663" lon="5.16232">
        <ele>679</ele>
        <time>2022-11-17T10:28:38Z</time>
      </trkpt>
      <trkpt lat="44.66673" lon="5.16212">
        <ele>676</ele>
        <time>2022-11-17T10:28:38Z</time>
      </trkpt>
      <trkpt lat="44.66685" lon="5.16103">
        <ele>677</ele>
        <time>2022-11-17T10:28:38Z</time>
      </trkpt>
      <trkpt lat="44.66678" lon="5.16053">
        <ele>678</ele>
        <time>2022-11-17T10:28:38Z</time>
      </trkpt>
      <trkpt lat="44.66683" lon="5.15963">
        <ele>678</ele>
        <time>2022-11-17T10:28:38Z</time>
      </trkpt>
      <trkpt lat="44.66676" lon="5.15936">
        <ele>678</ele>
        <time>2022-11-17T10:28:38Z</time>
      </trkpt>
      <trkpt lat="44.6663" lon="5.15827">
        <ele>675</ele>
        <time>2022-11-17T10:28:38Z</time>
      </trkpt>
      <trkpt lat="44.66623" lon="5.15819">
        <ele>673</ele>
        <time>2022-11-17T10:28:38Z</time>
      </trkpt>
      <trkpt lat="44.66619" lon="5.15805">
        <ele>672</ele>
        <time>2022-11-17T10:28:38Z</time>
      </trkpt>
      <trkpt lat="44.66625" lon="5.15697">
        <ele>669</ele>
        <time>2022-11-17T10:28:38Z</time>
      </trkpt>
      <trkpt lat="44.66618" lon="5.15634">
        <ele>669</ele>
        <time>2022-11-17T10:28:38Z</time>
      </trkpt>
      <trkpt lat="44.66622" lon="5.1562">
        <ele>672</ele>
        <time>2022-11-17T10:28:38Z</time>
      </trkpt>
      <trkpt lat="44.66643" lon="5.15612">
        <ele>671</ele>
        <time>2022-11-17T10:28:38Z</time>
      </trkpt>
      <trkpt lat="44.66719" lon="5.15546">
        <ele>671</ele>
        <time>2022-11-17T10:28:38Z</time>
      </trkpt>
      <trkpt lat="44.66769" lon="5.15531">
        <ele>669</ele>
        <time>2022-11-17T10:28:38Z</time>
      </trkpt>
      <trkpt lat="44.66782" lon="5.15519">
        <ele>667</ele>
        <time>2022-11-17T10:28:38Z</time>
      </trkpt>
      <trkpt lat="44.66792" lon="5.15505">
        <ele>666</ele>
        <time>2022-11-17T10:28:38Z</time>
      </trkpt>
      <trkpt lat="44.66794" lon="5.15469">
        <ele>664</ele>
        <time>2022-11-17T10:28:38Z</time>
      </trkpt>
      <trkpt lat="44.6684" lon="5.1537">
        <ele>657</ele>
        <time>2022-11-17T10:28:38Z</time>
      </trkpt>
      <trkpt lat="44.66838" lon="5.15359">
        <ele>653</ele>
        <time>2022-11-17T10:28:38Z</time>
      </trkpt>
      <trkpt lat="44.66827" lon="5.1534">
        <ele>649</ele>
        <time>2022-11-17T10:28:38Z</time>
      </trkpt>
      <trkpt lat="44.66825" lon="5.15329">
        <ele>647</ele>
        <time>2022-11-17T10:28:38Z</time>
      </trkpt>
      <trkpt lat="44.66827" lon="5.15317">
        <ele>644</ele>
        <time>2022-11-17T10:28:38Z</time>
      </trkpt>
      <trkpt lat="44.66826" lon="5.15292">
        <ele>641</ele>
        <time>2022-11-17T10:28:38Z</time>
      </trkpt>
      <trkpt lat="44.66811" lon="5.15251">
        <ele>639</ele>
        <time>2022-11-17T10:28:38Z</time>
      </trkpt>
      <trkpt lat="44.66809" lon="5.15237">
        <ele>637</ele>
        <time>2022-11-17T10:28:38Z</time>
      </trkpt>
      <trkpt lat="44.66812" lon="5.15177">
        <ele>635</ele>
        <time>2022-11-17T10:28:38Z</time>
      </trkpt>
      <trkpt lat="44.66807" lon="5.15154">
        <ele>632</ele>
        <time>2022-11-17T10:28:38Z</time>
      </trkpt>
      <trkpt lat="44.66785" lon="5.15115">
        <ele>629</ele>
        <time>2022-11-17T10:28:38Z</time>
      </trkpt>
      <trkpt lat="44.66748" lon="5.15072">
        <ele>625</ele>
        <time>2022-11-17T10:28:38Z</time>
      </trkpt>
      <trkpt lat="44.66741" lon="5.15054">
        <ele>621</ele>
        <time>2022-11-17T10:28:38Z</time>
      </trkpt>
      <trkpt lat="44.66741" lon="5.14963">
        <ele>615</ele>
        <time>2022-11-17T10:28:38Z</time>
      </trkpt>
      <trkpt lat="44.66754" lon="5.14919">
        <ele>610</ele>
        <time>2022-11-17T10:28:38Z</time>
      </trkpt>
      <trkpt lat="44.66766" lon="5.149">
        <ele>606</ele>
        <time>2022-11-17T10:28:38Z</time>
      </trkpt>
      <trkpt lat="44.66777" lon="5.14892">
        <ele>602</ele>
        <time>2022-11-17T10:28:38Z</time>
      </trkpt>
      <trkpt lat="44.66784" lon="5.14879">
        <ele>599</ele>
        <time>2022-11-17T10:28:38Z</time>
      </trkpt>
      <trkpt lat="44.66786" lon="5.14823">
        <ele>596</ele>
        <time>2022-11-17T10:28:38Z</time>
      </trkpt>
      <trkpt lat="44.6681" lon="5.1475">
        <ele>594</ele>
        <time>2022-11-17T10:28:38Z</time>
      </trkpt>
      <trkpt lat="44.66815" lon="5.14742">
        <ele>592</ele>
        <time>2022-11-17T10:28:38Z</time>
      </trkpt>
      <trkpt lat="44.66819" lon="5.14728">
        <ele>591</ele>
        <time>2022-11-17T10:28:38Z</time>
      </trkpt>
      <trkpt lat="44.66812" lon="5.14698">
        <ele>590</ele>
        <time>2022-11-17T10:28:38Z</time>
      </trkpt>
      <trkpt lat="44.66792" lon="5.1467">
        <ele>590</ele>
        <time>2022-11-17T10:28:38Z</time>
      </trkpt>
      <trkpt lat="44.66778" lon="5.14664">
        <ele>590</ele>
        <time>2022-11-17T10:28:38Z</time>
      </trkpt>
      <trkpt lat="44.66755" lon="5.14669">
        <ele>591</ele>
        <time>2022-11-17T10:28:38Z</time>
      </trkpt>
      <trkpt lat="44.66681" lon="5.14593">
        <ele>590</ele>
        <time>2022-11-17T10:28:38Z</time>
      </trkpt>
      <trkpt lat="44.66675" lon="5.14578">
        <ele>589</ele>
        <time>2022-11-17T10:28:38Z</time>
      </trkpt>
      <trkpt lat="44.66692" lon="5.1449">
        <ele>585</ele>
        <time>2022-11-17T10:28:38Z</time>
      </trkpt>
      <trkpt lat="44.66696" lon="5.14482">
        <ele>582</ele>
        <time>2022-11-17T10:28:38Z</time>
      </trkpt>
      <trkpt lat="44.66705" lon="5.14476">
        <ele>580</ele>
        <time>2022-11-17T10:28:38Z</time>
      </trkpt>
      <trkpt lat="44.66712" lon="5.14476">
        <ele>578</ele>
        <time>2022-11-17T10:28:38Z</time>
      </trkpt>
      <trkpt lat="44.66725" lon="5.14527">
        <ele>575</ele>
        <time>2022-11-17T10:28:38Z</time>
      </trkpt>
      <trkpt lat="44.66744" lon="5.14559">
        <ele>574</ele>
        <time>2022-11-17T10:28:38Z</time>
      </trkpt>
      <trkpt lat="44.66754" lon="5.14562">
        <ele>572</ele>
        <time>2022-11-17T10:28:38Z</time>
      </trkpt>
      <trkpt lat="44.6678" lon="5.14389">
        <ele>566</ele>
        <time>2022-11-17T10:28:38Z</time>
      </trkpt>
      <trkpt lat="44.66803" lon="5.14324">
        <ele>562</ele>
        <time>2022-11-17T10:28:38Z</time>
      </trkpt>
      <trkpt lat="44.66822" lon="5.14297">
        <ele>559</ele>
        <time>2022-11-17T10:28:38Z</time>
      </trkpt>
      <trkpt lat="44.6683" lon="5.14274">
        <ele>556</ele>
        <time>2022-11-17T10:28:38Z</time>
      </trkpt>
      <trkpt lat="44.66821" lon="5.14211">
        <ele>556</ele>
        <time>2022-11-17T10:28:38Z</time>
      </trkpt>
      <trkpt lat="44.66826" lon="5.14174">
        <ele>555</ele>
        <time>2022-11-17T10:28:38Z</time>
      </trkpt>
      <trkpt lat="44.66869" lon="5.14057">
        <ele>555</ele>
        <time>2022-11-17T10:28:38Z</time>
      </trkpt>
      <trkpt lat="44.66883" lon="5.14046">
        <ele>553</ele>
        <time>2022-11-17T10:28:38Z</time>
      </trkpt>
      <trkpt lat="44.66895" lon="5.14026">
        <ele>545</ele>
        <time>2022-11-17T10:28:38Z</time>
      </trkpt>
      <trkpt lat="44.66907" lon="5.13843">
        <ele>542</ele>
        <time>2022-11-17T10:28:38Z</time>
      </trkpt>
      <trkpt lat="44.66904" lon="5.13832">
        <ele>540</ele>
        <time>2022-11-17T10:28:38Z</time>
      </trkpt>
      <trkpt lat="44.66866" lon="5.1376">
        <ele>538</ele>
        <time>2022-11-17T10:28:38Z</time>
      </trkpt>
      <trkpt lat="44.66861" lon="5.13717">
        <ele>537</ele>
        <time>2022-11-17T10:28:38Z</time>
      </trkpt>
      <trkpt lat="44.66863" lon="5.13704">
        <ele>536</ele>
        <time>2022-11-17T10:28:38Z</time>
      </trkpt>
      <trkpt lat="44.66876" lon="5.13683">
        <ele>534</ele>
        <time>2022-11-17T10:28:38Z</time>
      </trkpt>
      <trkpt lat="44.66887" lon="5.13648">
        <ele>534</ele>
        <time>2022-11-17T10:28:38Z</time>
      </trkpt>
      <trkpt lat="44.66917" lon="5.13609">
        <ele>531</ele>
        <time>2022-11-17T10:28:38Z</time>
      </trkpt>
      <trkpt lat="44.66937" lon="5.13565">
        <ele>529</ele>
        <time>2022-11-17T10:28:38Z</time>
      </trkpt>
      <trkpt lat="44.66983" lon="5.1351">
        <ele>526</ele>
        <time>2022-11-17T10:28:38Z</time>
      </trkpt>
      <trkpt lat="44.66989" lon="5.13505">
        <ele>524</ele>
        <time>2022-11-17T10:28:38Z</time>
      </trkpt>
      <trkpt lat="44.67026" lon="5.13506">
        <ele>523</ele>
        <time>2022-11-17T10:28:38Z</time>
      </trkpt>
      <trkpt lat="44.67034" lon="5.13503">
        <ele>521</ele>
        <time>2022-11-17T10:28:38Z</time>
      </trkpt>
      <trkpt lat="44.67039" lon="5.1349">
        <ele>521</ele>
        <time>2022-11-17T10:28:38Z</time>
      </trkpt>
      <trkpt lat="44.6704" lon="5.13425">
        <ele>519</ele>
        <time>2022-11-17T10:28:38Z</time>
      </trkpt>
      <trkpt lat="44.67037" lon="5.13411">
        <ele>518</ele>
        <time>2022-11-17T10:28:38Z</time>
      </trkpt>
      <trkpt lat="44.67026" lon="5.13396">
        <ele>518</ele>
        <time>2022-11-17T10:28:38Z</time>
      </trkpt>
      <trkpt lat="44.67021" lon="5.13378">
        <ele>518</ele>
        <time>2022-11-17T10:28:38Z</time>
      </trkpt>
      <trkpt lat="44.6702" lon="5.13309">
        <ele>517</ele>
        <time>2022-11-17T10:28:38Z</time>
      </trkpt>
      <trkpt lat="44.67046" lon="5.13202">
        <ele>519</ele>
        <time>2022-11-17T10:28:38Z</time>
      </trkpt>
      <trkpt lat="44.67072" lon="5.13175">
        <ele>520</ele>
        <time>2022-11-17T10:28:38Z</time>
      </trkpt>
      <trkpt lat="44.6711" lon="5.13085">
        <ele>521</ele>
        <time>2022-11-17T10:28:38Z</time>
      </trkpt>
      <trkpt lat="44.67113" lon="5.13023">
        <ele>522</ele>
        <time>2022-11-17T10:28:38Z</time>
      </trkpt>
      <trkpt lat="44.6711" lon="5.13012">
        <ele>522</ele>
        <time>2022-11-17T10:28:38Z</time>
      </trkpt>
      <trkpt lat="44.67108" lon="5.12958">
        <ele>523</ele>
        <time>2022-11-17T10:28:38Z</time>
      </trkpt>
      <trkpt lat="44.67116" lon="5.12969">
        <ele>522</ele>
        <time>2022-11-17T10:28:38Z</time>
      </trkpt>
      <trkpt lat="44.67136" lon="5.13013">
        <ele>521</ele>
        <time>2022-11-17T10:28:38Z</time>
      </trkpt>
      <trkpt lat="44.67136" lon="5.12962">
        <ele>520</ele>
        <time>2022-11-17T10:28:38Z</time>
      </trkpt>
      <trkpt lat="44.67189" lon="5.12881">
        <ele>515</ele>
        <time>2022-11-17T10:28:38Z</time>
      </trkpt>
      <trkpt lat="44.67193" lon="5.12842">
        <ele>511</ele>
        <time>2022-11-17T10:28:38Z</time>
      </trkpt>
      <trkpt lat="44.67203" lon="5.12843">
        <ele>508</ele>
        <time>2022-11-17T10:28:38Z</time>
      </trkpt>
      <trkpt lat="44.67208" lon="5.12857">
        <ele>506</ele>
        <time>2022-11-17T10:28:38Z</time>
      </trkpt>
      <trkpt lat="44.67197" lon="5.1291">
        <ele>505</ele>
        <time>2022-11-17T10:28:38Z</time>
      </trkpt>
      <trkpt lat="44.67202" lon="5.1292">
        <ele>503</ele>
        <time>2022-11-17T10:28:38Z</time>
      </trkpt>
      <trkpt lat="44.67213" lon="5.12913">
        <ele>501</ele>
        <time>2022-11-17T10:28:38Z</time>
      </trkpt>
      <trkpt lat="44.6723" lon="5.12853">
        <ele>499</ele>
        <time>2022-11-17T10:28:38Z</time>
      </trkpt>
      <trkpt lat="44.67228" lon="5.12828">
        <ele>497</ele>
        <time>2022-11-17T10:28:38Z</time>
      </trkpt>
      <trkpt lat="44.67173" lon="5.12751">
        <ele>495</ele>
        <time>2022-11-17T10:28:38Z</time>
      </trkpt>
      <trkpt lat="44.67149" lon="5.12696">
        <ele>492</ele>
        <time>2022-11-17T10:28:38Z</time>
      </trkpt>
      <trkpt lat="44.67143" lon="5.12657">
        <ele>489</ele>
        <time>2022-11-17T10:28:38Z</time>
      </trkpt>
      <trkpt lat="44.6714" lon="5.12648">
        <ele>486</ele>
        <time>2022-11-17T10:28:38Z</time>
      </trkpt>
      <trkpt lat="44.6712" lon="5.12622">
        <ele>485</ele>
        <time>2022-11-17T10:28:38Z</time>
      </trkpt>
      <trkpt lat="44.6705" lon="5.12449">
        <ele>482</ele>
        <time>2022-11-17T10:28:38Z</time>
      </trkpt>
      <trkpt lat="44.67048" lon="5.12435">
        <ele>480</ele>
        <time>2022-11-17T10:28:38Z</time>
      </trkpt>
      <trkpt lat="44.6705" lon="5.12423">
        <ele>478</ele>
        <time>2022-11-17T10:28:38Z</time>
      </trkpt>
      <trkpt lat="44.67065" lon="5.12384">
        <ele>476</ele>
        <time>2022-11-17T10:28:38Z</time>
      </trkpt>
      <trkpt lat="44.67068" lon="5.1232">
        <ele>474</ele>
        <time>2022-11-17T10:28:38Z</time>
      </trkpt>
      <trkpt lat="44.67078" lon="5.12309">
        <ele>472</ele>
        <time>2022-11-17T10:28:38Z</time>
      </trkpt>
      <trkpt lat="44.67118" lon="5.12287">
        <ele>469</ele>
        <time>2022-11-17T10:28:38Z</time>
      </trkpt>
      <trkpt lat="44.67147" lon="5.1226">
        <ele>455</ele>
        <time>2022-11-17T10:28:38Z</time>
      </trkpt>
      <trkpt lat="44.67154" lon="5.12257">
        <ele>455</ele>
        <time>2022-11-17T10:28:38Z</time>
      </trkpt>
      <trkpt lat="44.67163" lon="5.1226">
        <ele>454</ele>
        <time>2022-11-17T10:28:38Z</time>
      </trkpt>
      <trkpt lat="44.67168" lon="5.12271">
        <ele>454</ele>
        <time>2022-11-17T10:28:38Z</time>
      </trkpt>
      <trkpt lat="44.67166" lon="5.12285">
        <ele>453</ele>
        <time>2022-11-17T10:28:38Z</time>
      </trkpt>
      <trkpt lat="44.67151" lon="5.12301">
        <ele>453</ele>
        <time>2022-11-17T10:28:38Z</time>
      </trkpt>
      <trkpt lat="44.67152" lon="5.12313">
        <ele>452</ele>
        <time>2022-11-17T10:28:38Z</time>
      </trkpt>
      <trkpt lat="44.67162" lon="5.12312">
        <ele>451</ele>
        <time>2022-11-17T10:28:38Z</time>
      </trkpt>
      <trkpt lat="44.67212" lon="5.12278">
        <ele>450</ele>
        <time>2022-11-17T10:28:38Z</time>
      </trkpt>
      <trkpt lat="44.67269" lon="5.12263">
        <ele>448</ele>
        <time>2022-11-17T10:28:38Z</time>
      </trkpt>
      <trkpt lat="44.67284" lon="5.12252">
        <ele>446</ele>
        <time>2022-11-17T10:28:38Z</time>
      </trkpt>
      <trkpt lat="44.67328" lon="5.12198">
        <ele>443</ele>
        <time>2022-11-17T10:28:38Z</time>
      </trkpt>
      <trkpt lat="44.67337" lon="5.12193">
        <ele>440</ele>
        <time>2022-11-17T10:28:38Z</time>
      </trkpt>
      <trkpt lat="44.67337" lon="5.12183">
        <ele>438</ele>
        <time>2022-11-17T10:28:38Z</time>
      </trkpt>
      <trkpt lat="44.67293" lon="5.12115">
        <ele>435</ele>
        <time>2022-11-17T10:28:38Z</time>
      </trkpt>
      <trkpt lat="44.67195" lon="5.12056">
        <ele>436</ele>
        <time>2022-11-17T10:28:38Z</time>
      </trkpt>
      <trkpt lat="44.67193" lon="5.12044">
        <ele>436</ele>
        <time>2022-11-17T10:28:38Z</time>
      </trkpt>
      <trkpt lat="44.67198" lon="5.12035">
        <ele>437</ele>
        <time>2022-11-17T10:28:38Z</time>
      </trkpt>
      <trkpt lat="44.6721" lon="5.12023">
        <ele>437</ele>
        <time>2022-11-17T10:28:38Z</time>
      </trkpt>
      <trkpt lat="44.67246" lon="5.12004">
        <ele>437</ele>
        <time>2022-11-17T10:28:38Z</time>
      </trkpt>
      <trkpt lat="44.67254" lon="5.11994">
        <ele>438</ele>
        <time>2022-11-17T10:28:38Z</time>
      </trkpt>
      <trkpt lat="44.67275" lon="5.11942">
        <ele>438</ele>
        <time>2022-11-17T10:28:38Z</time>
      </trkpt>
      <trkpt lat="44.67276" lon="5.11929">
        <ele>439</ele>
        <time>2022-11-17T10:28:38Z</time>
      </trkpt>
      <trkpt lat="44.67274" lon="5.11917">
        <ele>439</ele>
        <time>2022-11-17T10:28:38Z</time>
      </trkpt>
      <trkpt lat="44.6725" lon="5.11857">
        <ele>439</ele>
        <time>2022-11-17T10:28:38Z</time>
      </trkpt>
      <trkpt lat="44.6725" lon="5.11843">
        <ele>439</ele>
        <time>2022-11-17T10:28:38Z</time>
      </trkpt>
      <trkpt lat="44.67254" lon="5.11834">
        <ele>439</ele>
        <time>2022-11-17T10:28:38Z</time>
      </trkpt>
      <trkpt lat="44.6726" lon="5.11822">
        <ele>439</ele>
        <time>2022-11-17T10:28:38Z</time>
      </trkpt>
      <trkpt lat="44.67322" lon="5.11766">
        <ele>439</ele>
        <time>2022-11-17T10:28:38Z</time>
      </trkpt>
      <trkpt lat="44.6735" lon="5.11716">
        <ele>440</ele>
        <time>2022-11-17T10:28:38Z</time>
      </trkpt>
      <trkpt lat="44.67351" lon="5.11704">
        <ele>440</ele>
        <time>2022-11-17T10:28:38Z</time>
      </trkpt>
      <trkpt lat="44.67342" lon="5.11697">
        <ele>441</ele>
        <time>2022-11-17T10:28:38Z</time>
      </trkpt>
      <trkpt lat="44.67319" lon="5.11696">
        <ele>442</ele>
        <time>2022-11-17T10:28:38Z</time>
      </trkpt>
      <trkpt lat="44.67308" lon="5.11701">
        <ele>443</ele>
        <time>2022-11-17T10:28:38Z</time>
      </trkpt>
      <trkpt lat="44.67269" lon="5.11743">
        <ele>445</ele>
        <time>2022-11-17T10:28:38Z</time>
      </trkpt>
      <trkpt lat="44.67213" lon="5.11771">
        <ele>448</ele>
        <time>2022-11-17T10:28:38Z</time>
      </trkpt>
      <trkpt lat="44.67204" lon="5.1177">
        <ele>449</ele>
        <time>2022-11-17T10:28:38Z</time>
      </trkpt>
      <trkpt lat="44.67183" lon="5.11755">
        <ele>451</ele>
        <time>2022-11-17T10:28:38Z</time>
      </trkpt>
      <trkpt lat="44.67176" lon="5.11755">
        <ele>452</ele>
        <time>2022-11-17T10:28:38Z</time>
      </trkpt>
      <trkpt lat="44.67159" lon="5.11764">
        <ele>454</ele>
        <time>2022-11-17T10:28:38Z</time>
      </trkpt>
      <trkpt lat="44.67152" lon="5.11764">
        <ele>455</ele>
        <time>2022-11-17T10:28:38Z</time>
      </trkpt>
      <trkpt lat="44.67144" lon="5.11758">
        <ele>457</ele>
        <time>2022-11-17T10:28:38Z</time>
      </trkpt>
      <trkpt lat="44.67131" lon="5.11723">
        <ele>458</ele>
        <time>2022-11-17T10:28:38Z</time>
      </trkpt>
      <trkpt lat="44.67121" lon="5.11711">
        <ele>460</ele>
        <time>2022-11-17T10:28:38Z</time>
      </trkpt>
      <trkpt lat="44.67112" lon="5.11709">
        <ele>461</ele>
        <time>2022-11-17T10:28:38Z</time>
      </trkpt>
      <trkpt lat="44.67102" lon="5.11715">
        <ele>463</ele>
        <time>2022-11-17T10:28:38Z</time>
      </trkpt>
      <trkpt lat="44.67093" lon="5.11727">
        <ele>465</ele>
        <time>2022-11-17T10:28:38Z</time>
      </trkpt>
      <trkpt lat="44.67077" lon="5.11774">
        <ele>468</ele>
        <time>2022-11-17T10:28:38Z</time>
      </trkpt>
      <trkpt lat="44.67072" lon="5.11783">
        <ele>470</ele>
        <time>2022-11-17T10:28:38Z</time>
      </trkpt>
      <trkpt lat="44.67064" lon="5.11788">
        <ele>473</ele>
        <time>2022-11-17T10:28:38Z</time>
      </trkpt>
      <trkpt lat="44.67057" lon="5.11786">
        <ele>489</ele>
        <time>2022-11-17T10:28:38Z</time>
      </trkpt>
      <trkpt lat="44.67051" lon="5.11775">
        <ele>489</ele>
        <time>2022-11-17T10:28:38Z</time>
      </trkpt>
      <trkpt lat="44.67044" lon="5.11735">
        <ele>489</ele>
        <time>2022-11-17T10:28:38Z</time>
      </trkpt>
      <trkpt lat="44.67035" lon="5.11725">
        <ele>489</ele>
        <time>2022-11-17T10:28:38Z</time>
      </trkpt>
      <trkpt lat="44.66988" lon="5.117">
        <ele>491</ele>
        <time>2022-11-17T10:28:38Z</time>
      </trkpt>
      <trkpt lat="44.66978" lon="5.1169">
        <ele>493</ele>
        <time>2022-11-17T10:28:38Z</time>
      </trkpt>
      <trkpt lat="44.66973" lon="5.11679">
        <ele>495</ele>
        <time>2022-11-17T10:28:38Z</time>
      </trkpt>
      <trkpt lat="44.6697" lon="5.11662">
        <ele>496</ele>
        <time>2022-11-17T10:28:38Z</time>
      </trkpt>
      <trkpt lat="44.6696" lon="5.11643">
        <ele>498</ele>
        <time>2022-11-17T10:28:38Z</time>
      </trkpt>
      <trkpt lat="44.6696" lon="5.11627">
        <ele>499</ele>
        <time>2022-11-17T10:28:38Z</time>
      </trkpt>
      <trkpt lat="44.6697" lon="5.11594">
        <ele>501</ele>
        <time>2022-11-17T10:28:38Z</time>
      </trkpt>
      <trkpt lat="44.66984" lon="5.11567">
        <ele>501</ele>
        <time>2022-11-17T10:28:38Z</time>
      </trkpt>
      <trkpt lat="44.66985" lon="5.11556">
        <ele>502</ele>
        <time>2022-11-17T10:28:38Z</time>
      </trkpt>
      <trkpt lat="44.66978" lon="5.11537">
        <ele>503</ele>
        <time>2022-11-17T10:28:38Z</time>
      </trkpt>
      <trkpt lat="44.66938" lon="5.1149">
        <ele>506</ele>
        <time>2022-11-17T10:28:38Z</time>
      </trkpt>
      <trkpt lat="44.66932" lon="5.11474">
        <ele>509</ele>
        <time>2022-11-17T10:28:38Z</time>
      </trkpt>
      <trkpt lat="44.66931" lon="5.11443">
        <ele>511</ele>
        <time>2022-11-17T10:28:38Z</time>
      </trkpt>
      <trkpt lat="44.66933" lon="5.11339">
        <ele>515</ele>
        <time>2022-11-17T10:28:38Z</time>
      </trkpt>
      <trkpt lat="44.66938" lon="5.11327">
        <ele>518</ele>
        <time>2022-11-17T10:28:38Z</time>
      </trkpt>
      <trkpt lat="44.66945" lon="5.11324">
        <ele>519</ele>
        <time>2022-11-17T10:28:38Z</time>
      </trkpt>
      <trkpt lat="44.66994" lon="5.11255">
        <ele>521</ele>
        <time>2022-11-17T10:28:38Z</time>
      </trkpt>
      <trkpt lat="44.6701" lon="5.1124">
        <ele>522</ele>
        <time>2022-11-17T10:28:38Z</time>
      </trkpt>
      <trkpt lat="44.67021" lon="5.11217">
        <ele>523</ele>
        <time>2022-11-17T10:28:38Z</time>
      </trkpt>
      <trkpt lat="44.6702" lon="5.11202">
        <ele>523</ele>
        <time>2022-11-17T10:28:38Z</time>
      </trkpt>
      <trkpt lat="44.67005" lon="5.11145">
        <ele>526</ele>
        <time>2022-11-17T10:28:38Z</time>
      </trkpt>
      <trkpt lat="44.67007" lon="5.11108">
        <ele>528</ele>
        <time>2022-11-17T10:28:38Z</time>
      </trkpt>
      <trkpt lat="44.67043" lon="5.11005">
        <ele>529</ele>
        <time>2022-11-17T10:28:38Z</time>
      </trkpt>
      <trkpt lat="44.67044" lon="5.10985">
        <ele>529</ele>
        <time>2022-11-17T10:28:38Z</time>
      </trkpt>
      <trkpt lat="44.6704" lon="5.10969">
        <ele>530</ele>
        <time>2022-11-17T10:28:38Z</time>
      </trkpt>
      <trkpt lat="44.67031" lon="5.10952">
        <ele>530</ele>
        <time>2022-11-17T10:28:38Z</time>
      </trkpt>
      <trkpt lat="44.6702" lon="5.10941">
        <ele>530</ele>
        <time>2022-11-17T10:28:38Z</time>
      </trkpt>
      <trkpt lat="44.67007" lon="5.10934">
        <ele>530</ele>
        <time>2022-11-17T10:28:38Z</time>
      </trkpt>
      <trkpt lat="44.66999" lon="5.10927">
        <ele>530</ele>
        <time>2022-11-17T10:28:38Z</time>
      </trkpt>
      <trkpt lat="44.66994" lon="5.10906">
        <ele>530</ele>
        <time>2022-11-17T10:28:38Z</time>
      </trkpt>
      <trkpt lat="44.66991" lon="5.1088">
        <ele>530</ele>
        <time>2022-11-17T10:28:39Z</time>
      </trkpt>
      <trkpt lat="44.66993" lon="5.1086">
        <ele>530</ele>
        <time>2022-11-17T10:28:39Z</time>
      </trkpt>
      <trkpt lat="44.67026" lon="5.10751">
        <ele>526</ele>
        <time>2022-11-17T10:28:39Z</time>
      </trkpt>
      <trkpt lat="44.67087" lon="5.10737">
        <ele>516</ele>
        <time>2022-11-17T10:28:39Z</time>
      </trkpt>
      <trkpt lat="44.67164" lon="5.10659">
        <ele>510</ele>
        <time>2022-11-17T10:28:39Z</time>
      </trkpt>
      <trkpt lat="44.67162" lon="5.10648">
        <ele>506</ele>
        <time>2022-11-17T10:28:39Z</time>
      </trkpt>
      <trkpt lat="44.67079" lon="5.10631">
        <ele>507</ele>
        <time>2022-11-17T10:28:39Z</time>
      </trkpt>
      <trkpt lat="44.67072" lon="5.10623">
        <ele>507</ele>
        <time>2022-11-17T10:28:39Z</time>
      </trkpt>
      <trkpt lat="44.67067" lon="5.10607">
        <ele>508</ele>
        <time>2022-11-17T10:28:39Z</time>
      </trkpt>
      <trkpt lat="44.67065" lon="5.10593">
        <ele>509</ele>
        <time>2022-11-17T10:28:39Z</time>
      </trkpt>
      <trkpt lat="44.6708" lon="5.10451">
        <ele>509</ele>
        <time>2022-11-17T10:28:39Z</time>
      </trkpt>
      <trkpt lat="44.671" lon="5.10394">
        <ele>509</ele>
        <time>2022-11-17T10:28:39Z</time>
      </trkpt>
      <trkpt lat="44.67103" lon="5.10371">
        <ele>507</ele>
        <time>2022-11-17T10:28:39Z</time>
      </trkpt>
      <trkpt lat="44.671" lon="5.10353">
        <ele>506</ele>
        <time>2022-11-17T10:28:39Z</time>
      </trkpt>
      <trkpt lat="44.67083" lon="5.10332">
        <ele>505</ele>
        <time>2022-11-17T10:28:39Z</time>
      </trkpt>
      <trkpt lat="44.67073" lon="5.10327">
        <ele>505</ele>
        <time>2022-11-17T10:28:39Z</time>
      </trkpt>
      <trkpt lat="44.67074" lon="5.10311">
        <ele>506</ele>
        <time>2022-11-17T10:28:39Z</time>
      </trkpt>
      <trkpt lat="44.67164" lon="5.10261">
        <ele>500</ele>
      </trkpt>
      <trkpt lat="44.67253" lon="5.1021">
        <ele>489</ele>
        <time>2022-11-17T10:28:39Z</time>
      </trkpt>
      <trkpt lat="44.67342" lon="5.10145">
        <ele>476</ele>
        <time>2022-11-17T10:28:39Z</time>
      </trkpt>
      <trkpt lat="44.67436" lon="5.10111">
        <ele>464</ele>
        <time>2022-11-17T10:28:39Z</time>
      </trkpt>
      <trkpt lat="44.67522" lon="5.10055">
        <ele>452</ele>
      </trkpt>
      <trkpt lat="44.67607" lon="5.09999">
        <ele>439</ele>
        <time>2022-11-17T10:28:39Z</time>
      </trkpt>
      <trkpt lat="44.6766" lon="5.10014">
        <ele>430</ele>
        <time>2022-11-17T10:28:39Z</time>
      </trkpt>
      <trkpt lat="44.67735" lon="5.09928">
        <ele>418</ele>
        <time>2022-11-17T10:28:39Z</time>
      </trkpt>
      <trkpt lat="44.67761" lon="5.09961">
        <ele>410</ele>
        <time>2022-11-17T10:28:39Z</time>
      </trkpt>
      <trkpt lat="44.67778" lon="5.09993">
        <ele>403</ele>
        <time>2022-11-17T10:28:39Z</time>
      </trkpt>
      <trkpt lat="44.67784" lon="5.0992">
        <ele>397</ele>
        <time>2022-11-17T10:28:39Z</time>
      </trkpt>
      <trkpt lat="44.67754" lon="5.09883">
        <ele>393</ele>
        <time>2022-11-17T10:28:39Z</time>
      </trkpt>
      <trkpt lat="44.67744" lon="5.09843">
        <ele>391</ele>
        <time>2022-11-17T10:28:39Z</time>
      </trkpt>
      <trkpt lat="44.67756" lon="5.09849">
        <ele>389</ele>
        <time>2022-11-17T10:28:39Z</time>
      </trkpt>
      <trkpt lat="44.67789" lon="5.0985">
        <ele>387</ele>
        <time>2022-11-17T10:28:39Z</time>
      </trkpt>
      <trkpt lat="44.67822" lon="5.09867">
        <ele>384</ele>
        <time>2022-11-17T10:28:39Z</time>
      </trkpt>
      <trkpt lat="44.67875" lon="5.09867">
        <ele>380</ele>
        <time>2022-11-17T10:28:39Z</time>
      </trkpt>
      <trkpt lat="44.67902" lon="5.09852">
        <ele>376</ele>
        <time>2022-11-17T10:28:39Z</time>
      </trkpt>
      <trkpt lat="44.67901" lon="5.09864">
        <ele>373</ele>
        <time>2022-11-17T10:28:39Z</time>
      </trkpt>
      <trkpt lat="44.67894" lon="5.09873">
        <ele>370</ele>
        <time>2022-11-17T10:28:39Z</time>
      </trkpt>
      <trkpt lat="44.67896" lon="5.09884">
        <ele>368</ele>
        <time>2022-11-17T10:28:39Z</time>
      </trkpt>
      <trkpt lat="44.67922" lon="5.0988">
        <ele>365</ele>
        <time>2022-11-17T10:28:39Z</time>
      </trkpt>
      <trkpt lat="44.6793" lon="5.09875">
        <ele>363</ele>
        <time>2022-11-17T10:28:39Z</time>
      </trkpt>
      <trkpt lat="44.67936" lon="5.09867">
        <ele>361</ele>
        <time>2022-11-17T10:28:39Z</time>
      </trkpt>
      <trkpt lat="44.67948" lon="5.09861">
        <ele>359</ele>
        <time>2022-11-17T10:28:39Z</time>
      </trkpt>
      <trkpt lat="44.67972" lon="5.0988">
        <ele>357</ele>
        <time>2022-11-17T10:28:39Z</time>
      </trkpt>
      <trkpt lat="44.67979" lon="5.09889">
        <ele>354</ele>
        <time>2022-11-17T10:28:39Z</time>
      </trkpt>
      <trkpt lat="44.6803" lon="5.09922">
        <ele>349</ele>
        <time>2022-11-17T10:28:39Z</time>
      </trkpt>
      <trkpt lat="44.68125" lon="5.0996">
        <ele>344</ele>
        <time>2022-11-17T10:28:39Z</time>
      </trkpt>
      <trkpt lat="44.68132" lon="5.09971">
        <ele>340</ele>
        <time>2022-11-17T10:28:39Z</time>
      </trkpt>
      <trkpt lat="44.68194" lon="5.10031">
        <ele>338</ele>
        <time>2022-11-17T10:28:39Z</time>
      </trkpt>
      <trkpt lat="44.68215" lon="5.10065">
        <ele>337</ele>
        <time>2022-11-17T10:28:39Z</time>
      </trkpt>
      <trkpt lat="44.68221" lon="5.10081">
        <ele>336</ele>
        <time>2022-11-17T10:28:39Z</time>
      </trkpt>
      <trkpt lat="44.68269" lon="5.10143">
        <ele>336</ele>
        <time>2022-11-17T10:28:39Z</time>
      </trkpt>
      <trkpt lat="44.68322" lon="5.10191">
        <ele>334</ele>
        <time>2022-11-17T10:28:39Z</time>
      </trkpt>
      <trkpt lat="44.68362" lon="5.10206">
        <ele>332</ele>
        <time>2022-11-17T10:28:39Z</time>
      </trkpt>
      <trkpt lat="44.68409" lon="5.10238">
        <ele>328</ele>
      </trkpt>
      <trkpt lat="44.68455" lon="5.1027">
        <ele>326</ele>
        <time>2022-11-17T10:28:39Z</time>
      </trkpt>
      <trkpt lat="44.68516" lon="5.10258">
        <ele>325</ele>
      </trkpt>
      <trkpt lat="44.68576" lon="5.10246">
        <ele>326</ele>
        <time>2022-11-17T10:28:39Z</time>
      </trkpt>
      <trkpt lat="44.68642" lon="5.10253">
        <ele>328</ele>
      </trkpt>
      <trkpt lat="44.68707" lon="5.1026">
        <ele>330</ele>
        <time>2022-11-17T10:28:39Z</time>
      </trkpt>
      <trkpt lat="44.6879" lon="5.10243">
        <ele>333</ele>
        <time>2022-11-17T10:28:39Z</time>
      </trkpt>
      <trkpt lat="44.68864" lon="5.10267">
        <ele>335</ele>
        <time>2022-11-17T10:28:39Z</time>
      </trkpt>
      <trkpt lat="44.68921" lon="5.10305">
        <ele>335</ele>
      </trkpt>
      <trkpt lat="44.68978" lon="5.10343">
        <ele>334</ele>
        <time>2022-11-17T10:28:39Z</time>
      </trkpt>
      <trkpt lat="44.68989" lon="5.10345">
        <ele>334</ele>
        <time>2022-11-17T10:28:39Z</time>
      </trkpt>
      <trkpt lat="44.69002" lon="5.10357">
        <ele>333</ele>
        <time>2022-11-17T10:28:39Z</time>
      </trkpt>
      <trkpt lat="44.69014" lon="5.10363">
        <ele>332</ele>
        <time>2022-11-17T10:28:39Z</time>
      </trkpt>
      <trkpt lat="44.69037" lon="5.10361">
        <ele>330</ele>
        <time>2022-11-17T10:28:39Z</time>
      </trkpt>
      <trkpt lat="44.69047" lon="5.10363">
        <ele>329</ele>
        <time>2022-11-17T10:28:39Z</time>
      </trkpt>
      <trkpt lat="44.69083" lon="5.10386">
        <ele>327</ele>
        <time>2022-11-17T10:28:39Z</time>
      </trkpt>
      <trkpt lat="44.69106" lon="5.10381">
        <ele>325</ele>
        <time>2022-11-17T10:28:39Z</time>
      </trkpt>
      <trkpt lat="44.69156" lon="5.104">
        <ele>326</ele>
        <time>2022-11-17T10:28:39Z</time>
      </trkpt>
      <trkpt lat="44.69225" lon="5.104">
        <ele>328</ele>
        <time>2022-11-17T10:28:39Z</time>
      </trkpt>
      <trkpt lat="44.69233" lon="5.10397">
        <ele>332</ele>
        <time>2022-11-17T10:28:39Z</time>
      </trkpt>
      <trkpt lat="44.69255" lon="5.10396">
        <ele>332</ele>
        <time>2022-11-17T10:28:39Z</time>
      </trkpt>
      <trkpt lat="44.69303" lon="5.10384">
        <ele>330</ele>
      </trkpt>
      <trkpt lat="44.69351" lon="5.10373">
        <ele>327</ele>
      </trkpt>
      <trkpt lat="44.69399" lon="5.10361">
        <ele>323</ele>
      </trkpt>
      <trkpt lat="44.69447" lon="5.10349">
        <ele>320</ele>
        <time>2022-11-17T10:28:39Z</time>
      </trkpt>
      <trkpt lat="44.69456" lon="5.10352">
        <ele>318</ele>
        <time>2022-11-17T10:28:39Z</time>
      </trkpt>
      <trkpt lat="44.6948" lon="5.10345">
        <ele>316</ele>
        <time>2022-11-17T10:28:39Z</time>
      </trkpt>
      <trkpt lat="44.69505" lon="5.10324">
        <ele>315</ele>
        <time>2022-11-17T10:28:39Z</time>
      </trkpt>
      <trkpt lat="44.69548" lon="5.10243">
        <ele>311</ele>
        <time>2022-11-17T10:28:39Z</time>
      </trkpt>
      <trkpt lat="44.6956" lon="5.10231">
        <ele>308</ele>
        <time>2022-11-17T10:28:39Z</time>
      </trkpt>
      <trkpt lat="44.69567" lon="5.10227">
        <ele>306</ele>
        <time>2022-11-17T10:28:39Z</time>
      </trkpt>
      <trkpt lat="44.69575" lon="5.10218">
        <ele>305</ele>
        <time>2022-11-17T10:28:39Z</time>
      </trkpt>
      <trkpt lat="44.69581" lon="5.10207">
        <ele>303</ele>
        <time>2022-11-17T10:28:39Z</time>
      </trkpt>
      <trkpt lat="44.69647" lon="5.10154">
        <ele>300</ele>
        <time>2022-11-17T10:28:39Z</time>
      </trkpt>
      <trkpt lat="44.69703" lon="5.10127">
        <ele>294</ele>
      </trkpt>
      <trkpt lat="44.69759" lon="5.10099">
        <ele>287</ele>
        <time>2022-11-17T10:28:39Z</time>
      </trkpt>
      <trkpt lat="44.6977" lon="5.10089">
        <ele>283</ele>
        <time>2022-11-17T10:28:39Z</time>
      </trkpt>
      <trkpt lat="44.6979" lon="5.10013">
        <ele>278</ele>
        <time>2022-11-17T10:28:39Z</time>
      </trkpt>
      <trkpt lat="44.69792" lon="5.09998">
        <ele>275</ele>
        <time>2022-11-17T10:28:39Z</time>
      </trkpt>
      <trkpt lat="44.69795" lon="5.09988">
        <ele>272</ele>
        <time>2022-11-17T10:28:39Z</time>
      </trkpt>
      <trkpt lat="44.69826" lon="5.09937">
        <ele>268</ele>
        <time>2022-11-17T10:28:39Z</time>
      </trkpt>
      <trkpt lat="44.699" lon="5.09869">
        <ele>261</ele>
        <time>2022-11-17T10:28:39Z</time>
      </trkpt>
      <trkpt lat="44.69908" lon="5.09867">
        <ele>256</ele>
        <time>2022-11-17T10:28:39Z</time>
      </trkpt>
      <trkpt lat="44.69916" lon="5.09862">
        <ele>252</ele>
        <time>2022-11-17T10:28:39Z</time>
      </trkpt>
      <trkpt lat="44.69922" lon="5.09855">
        <ele>250</ele>
        <time>2022-11-17T10:28:39Z</time>
      </trkpt>
      <trkpt lat="44.69947" lon="5.09856">
        <ele>247</ele>
        <time>2022-11-17T10:28:39Z</time>
      </trkpt>
      <trkpt lat="44.69952" lon="5.09937">
        <ele>245</ele>
      </trkpt>
      <trkpt lat="44.69956" lon="5.10017">
        <ele>242</ele>
        <time>2022-11-17T10:28:39Z</time>
      </trkpt>
      <trkpt lat="44.69939" lon="5.10105">
        <ele>242</ele>
      </trkpt>
      <trkpt lat="44.69921" lon="5.10192">
        <ele>242</ele>
        <time>2022-11-17T10:28:39Z</time>
      </trkpt>
      <trkpt lat="44.69892" lon="5.10282">
        <ele>242</ele>
      </trkpt>
      <trkpt lat="44.69863" lon="5.10371">
        <ele>242</ele>
        <time>2022-11-17T10:28:39Z</time>
      </trkpt>
      <trkpt lat="44.69855" lon="5.10436">
        <ele>242</ele>
        <time>2022-11-17T10:28:39Z</time>
      </trkpt>
      <trkpt lat="44.69861" lon="5.1051">
        <ele>242</ele>
        <time>2022-11-17T10:28:39Z</time>
      </trkpt>
      <trkpt lat="44.69838" lon="5.10577">
        <ele>242</ele>
      </trkpt>
      <trkpt lat="44.69815" lon="5.10643">
        <ele>242</ele>
      </trkpt>
      <trkpt lat="44.69791" lon="5.1071">
        <ele>242</ele>
      </trkpt>
      <trkpt lat="44.69768" lon="5.10776">
        <ele>242</ele>
        <time>2022-11-17T10:28:39Z</time>
      </trkpt>
      <trkpt lat="44.69748" lon="5.10805">
        <ele>242</ele>
        <time>2022-11-17T10:28:39Z</time>
      </trkpt>
      <trkpt lat="44.69741" lon="5.10821">
        <ele>242</ele>
        <time>2022-11-17T10:28:39Z</time>
      </trkpt>
      <trkpt lat="44.69743" lon="5.10918">
        <ele>241</ele>
      </trkpt>
      <trkpt lat="44.69744" lon="5.11014">
        <ele>240</ele>
        <time>2022-11-17T10:28:39Z</time>
      </trkpt>
      <trkpt lat="44.69735" lon="5.11016">
        <ele>239</ele>
        <time>2022-11-17T10:28:39Z</time>
      </trkpt>
      <trkpt lat="44.69732" lon="5.11029">
        <ele>239</ele>
        <time>2022-11-17T10:28:39Z</time>
      </trkpt>
      <trkpt lat="44.69782" lon="5.11081">
        <ele>237</ele>
        <time>2022-11-17T10:28:39Z</time>
      </trkpt>
      <trkpt lat="44.6981" lon="5.11143">
        <ele>236</ele>
        <time>2022-11-17T10:28:39Z</time>
      </trkpt>
      <trkpt lat="44.69784" lon="5.11218">
        <ele>235</ele>
        <time>2022-11-17T10:28:39Z</time>
      </trkpt>
      <trkpt lat="44.69753" lon="5.11285">
        <ele>235</ele>
      </trkpt>
      <trkpt lat="44.69721" lon="5.11351">
        <ele>235</ele>
        <time>2022-11-17T10:28:39Z</time>
      </trkpt>
      <trkpt lat="44.69708" lon="5.11396">
        <ele>235</ele>
        <time>2022-11-17T10:28:39Z</time>
      </trkpt>
      <trkpt lat="44.69685" lon="5.11458">
        <ele>234</ele>
      </trkpt>
      <trkpt lat="44.69662" lon="5.1152">
        <ele>234</ele>
      </trkpt>
      <trkpt lat="44.69638" lon="5.11581">
        <ele>235</ele>
      </trkpt>
      <trkpt lat="44.69615" lon="5.11643">
        <ele>235</ele>
        <time>2022-11-17T10:28:39Z</time>
      </trkpt>
      <trkpt lat="44.696" lon="5.11704">
        <ele>235</ele>
      </trkpt>
      <trkpt lat="44.69584" lon="5.11765">
        <ele>235</ele>
      </trkpt>
      <trkpt lat="44.69569" lon="5.11826">
        <ele>235</ele>
      </trkpt>
      <trkpt lat="44.69553" lon="5.11888">
        <ele>235</ele>
      </trkpt>
      <trkpt lat="44.69538" lon="5.11949">
        <ele>236</ele>
      </trkpt>
      <trkpt lat="44.69522" lon="5.1201">
        <ele>236</ele>
      </trkpt>
      <trkpt lat="44.69507" lon="5.12071">
        <ele>235</ele>
      </trkpt>
      <trkpt lat="44.69491" lon="5.12132">
        <ele>234</ele>
        <time>2022-11-17T10:28:39Z</time>
      </trkpt>
      <trkpt lat="44.69531" lon="5.12154">
        <ele>234</ele>
        <time>2022-11-17T10:28:39Z</time>
      </trkpt>
      <trkpt lat="44.69526" lon="5.12251">
        <ele>232</ele>
      </trkpt>
      <trkpt lat="44.69521" lon="5.12348">
        <ele>232</ele>
      </trkpt>
      <trkpt lat="44.69516" lon="5.12445">
        <ele>231</ele>
      </trkpt>
      <trkpt lat="44.69511" lon="5.12542">
        <ele>232</ele>
        <time>2022-11-17T10:28:39Z</time>
      </trkpt>
      <trkpt lat="44.69456" lon="5.12589">
        <ele>235</ele>
        <time>2022-11-17T10:28:39Z</time>
      </trkpt>
      <trkpt lat="44.69403" lon="5.12581">
        <ele>238</ele>
        <time>2022-11-17T10:28:39Z</time>
      </trkpt>
      <trkpt lat="44.6932" lon="5.12538">
        <ele>241</ele>
        <time>2022-11-17T10:28:39Z</time>
      </trkpt>
      <trkpt lat="44.69273" lon="5.12474">
        <ele>246</ele>
      </trkpt>
      <trkpt lat="44.69226" lon="5.12411">
        <ele>254</ele>
        <time>2022-11-17T10:28:39Z</time>
      </trkpt>
      <trkpt lat="44.69161" lon="5.12409">
        <ele>259</ele>
      </trkpt>
      <trkpt lat="44.69096" lon="5.12407">
        <ele>265</ele>
        <time>2022-11-17T10:28:39Z</time>
      </trkpt>
      <trkpt lat="44.69096" lon="5.12371">
        <ele>268</ele>
        <time>2022-11-17T10:28:39Z</time>
      </trkpt>
      <trkpt lat="44.69081" lon="5.12411">
        <ele>270</ele>
        <time>2022-11-17T10:28:39Z</time>
      </trkpt>
      <trkpt lat="44.69046" lon="5.12545">
        <ele>277</ele>
        <time>2022-11-17T10:28:39Z</time>
      </trkpt>
      <trkpt lat="44.69041" lon="5.12555">
        <ele>277</ele>
        <time>2022-11-17T10:28:39Z</time>
      </trkpt>
      <trkpt lat="44.69038" lon="5.12566">
        <ele>277</ele>
        <time>2022-11-17T10:28:39Z</time>
      </trkpt>
      <trkpt lat="44.69037" lon="5.126">
        <ele>277</ele>
        <time>2022-11-17T10:28:39Z</time>
      </trkpt>
      <trkpt lat="44.69026" lon="5.12643">
        <ele>276</ele>
        <time>2022-11-17T10:28:39Z</time>
      </trkpt>
      <trkpt lat="44.69012" lon="5.12671">
        <ele>276</ele>
        <time>2022-11-17T10:28:39Z</time>
      </trkpt>
      <trkpt lat="44.69013" lon="5.12682">
        <ele>276</ele>
        <time>2022-11-17T10:28:39Z</time>
      </trkpt>
      <trkpt lat="44.69028" lon="5.12715">
        <ele>277</ele>
        <time>2022-11-17T10:28:39Z</time>
      </trkpt>
      <trkpt lat="44.69076" lon="5.12898">
        <ele>277</ele>
        <time>2022-11-17T10:28:39Z</time>
      </trkpt>
      <trkpt lat="44.69089" lon="5.13019">
        <ele>278</ele>
        <time>2022-11-17T10:28:39Z</time>
      </trkpt>
      <trkpt lat="44.68862" lon="5.13032">
        <ele>285</ele>
        <time>2022-11-17T10:28:39Z</time>
      </trkpt>
      <trkpt lat="44.68852" lon="5.13027">
        <ele>289</ele>
        <time>2022-11-17T10:28:39Z</time>
      </trkpt>
      <trkpt lat="44.68834" lon="5.13009">
        <ele>292</ele>
        <time>2022-11-17T10:28:39Z</time>
      </trkpt>
      <trkpt lat="44.68727" lon="5.1302">
        <ele>300</ele>
        <time>2022-11-17T10:28:39Z</time>
      </trkpt>
      <trkpt lat="44.68639" lon="5.12974">
        <ele>306</ele>
        <time>2022-11-17T10:28:39Z</time>
      </trkpt>
      <trkpt lat="44.6862" lon="5.12975">
        <ele>310</ele>
        <time>2022-11-17T10:28:39Z</time>
      </trkpt>
      <trkpt lat="44.68603" lon="5.12987">
        <ele>312</ele>
        <time>2022-11-17T10:28:39Z</time>
      </trkpt>
      <trkpt lat="44.68596" lon="5.12997">
        <ele>314</ele>
        <time>2022-11-17T10:28:39Z</time>
      </trkpt>
      <trkpt lat="44.6859" lon="5.13016">
        <ele>314</ele>
        <time>2022-11-17T10:28:39Z</time>
      </trkpt>
      <trkpt lat="44.68573" lon="5.13034">
        <ele>315</ele>
        <time>2022-11-17T10:28:39Z</time>
      </trkpt>
      <trkpt lat="44.68553" lon="5.1304">
        <ele>315</ele>
        <time>2022-11-17T10:28:39Z</time>
      </trkpt>
      <trkpt lat="44.68545" lon="5.13049">
        <ele>315</ele>
        <time>2022-11-17T10:28:39Z</time>
      </trkpt>
      <trkpt lat="44.68501" lon="5.13062">
        <ele>315</ele>
        <time>2022-11-17T10:28:39Z</time>
      </trkpt>
      <trkpt lat="44.68495" lon="5.13069">
        <ele>316</ele>
        <time>2022-11-17T10:28:39Z</time>
      </trkpt>
      <trkpt lat="44.68481" lon="5.13127">
        <ele>316</ele>
        <time>2022-11-17T10:28:39Z</time>
      </trkpt>
      <trkpt lat="44.6846" lon="5.13157">
        <ele>315</ele>
        <time>2022-11-17T10:28:39Z</time>
      </trkpt>
      <trkpt lat="44.68452" lon="5.13163">
        <ele>315</ele>
        <time>2022-11-17T10:28:39Z</time>
      </trkpt>
      <trkpt lat="44.68389" lon="5.13191">
        <ele>313</ele>
        <time>2022-11-17T10:28:39Z</time>
      </trkpt>
      <trkpt lat="44.6838" lon="5.1319">
        <ele>311</ele>
        <time>2022-11-17T10:28:39Z</time>
      </trkpt>
      <trkpt lat="44.68354" lon="5.13177">
        <ele>311</ele>
        <time>2022-11-17T10:28:39Z</time>
      </trkpt>
      <trkpt lat="44.68351" lon="5.13189">
        <ele>310</ele>
        <time>2022-11-17T10:28:39Z</time>
      </trkpt>
      <trkpt lat="44.68352" lon="5.13202">
        <ele>309</ele>
        <time>2022-11-17T10:28:39Z</time>
      </trkpt>
      <trkpt lat="44.68347" lon="5.13214">
        <ele>308</ele>
        <time>2022-11-17T10:28:39Z</time>
      </trkpt>
      <trkpt lat="44.68313" lon="5.13238">
        <ele>307</ele>
        <time>2022-11-17T10:28:39Z</time>
      </trkpt>
      <trkpt lat="44.68298" lon="5.13238">
        <ele>306</ele>
        <time>2022-11-17T10:28:39Z</time>
      </trkpt>
      <trkpt lat="44.68273" lon="5.13222">
        <ele>307</ele>
        <time>2022-11-17T10:28:39Z</time>
      </trkpt>
      <trkpt lat="44.68244" lon="5.1322">
        <ele>307</ele>
        <time>2022-11-17T10:28:39Z</time>
      </trkpt>
      <trkpt lat="44.68237" lon="5.13229">
        <ele>308</ele>
        <time>2022-11-17T10:28:39Z</time>
      </trkpt>
      <trkpt lat="44.68234" lon="5.13238">
        <ele>308</ele>
        <time>2022-11-17T10:28:39Z</time>
      </trkpt>
      <trkpt lat="44.68268" lon="5.13314">
        <ele>307</ele>
        <time>2022-11-17T10:28:39Z</time>
      </trkpt>
      <trkpt lat="44.68239" lon="5.1336">
        <ele>309</ele>
        <time>2022-11-17T10:28:39Z</time>
      </trkpt>
      <trkpt lat="44.68321" lon="5.13484">
        <ele>314</ele>
        <time>2022-11-17T10:28:39Z</time>
      </trkpt>
      <trkpt lat="44.68316" lon="5.13591">
        <ele>318</ele>
        <time>2022-11-17T10:28:39Z</time>
      </trkpt>
      <trkpt lat="44.68324" lon="5.13649">
        <ele>322</ele>
        <time>2022-11-17T10:28:39Z</time>
      </trkpt>
      <trkpt lat="44.68345" lon="5.13673">
        <ele>325</ele>
        <time>2022-11-17T10:28:39Z</time>
      </trkpt>
      <trkpt lat="44.68361" lon="5.13722">
        <ele>327</ele>
        <time>2022-11-17T10:28:39Z</time>
      </trkpt>
      <trkpt lat="44.68332" lon="5.13786">
        <ele>326</ele>
        <time>2022-11-17T10:28:39Z</time>
      </trkpt>
      <trkpt lat="44.68309" lon="5.13789">
        <ele>325</ele>
        <time>2022-11-17T10:28:39Z</time>
      </trkpt>
      <trkpt lat="44.68298" lon="5.13798">
        <ele>325</ele>
        <time>2022-11-17T10:28:39Z</time>
      </trkpt>
      <trkpt lat="44.68278" lon="5.13845">
        <ele>323</ele>
        <time>2022-11-17T10:28:39Z</time>
      </trkpt>
      <trkpt lat="44.68239" lon="5.13895">
        <ele>310</ele>
        <time>2022-11-17T10:28:39Z</time>
      </trkpt>
      <trkpt lat="44.68211" lon="5.13917">
        <ele>310</ele>
        <time>2022-11-17T10:28:39Z</time>
      </trkpt>
      <trkpt lat="44.68216" lon="5.1393">
        <ele>309</ele>
        <time>2022-11-17T10:28:39Z</time>
      </trkpt>
      <trkpt lat="44.68223" lon="5.13938">
        <ele>308</ele>
        <time>2022-11-17T10:28:39Z</time>
      </trkpt>
      <trkpt lat="44.68233" lon="5.13941">
        <ele>307</ele>
        <time>2022-11-17T10:28:39Z</time>
      </trkpt>
      <trkpt lat="44.68247" lon="5.1393">
        <ele>307</ele>
        <time>2022-11-17T10:28:39Z</time>
      </trkpt>
      <trkpt lat="44.6826" lon="5.13926">
        <ele>306</ele>
        <time>2022-11-17T10:28:39Z</time>
      </trkpt>
      <trkpt lat="44.6827" lon="5.13929">
        <ele>306</ele>
        <time>2022-11-17T10:28:39Z</time>
      </trkpt>
      <trkpt lat="44.68287" lon="5.13953">
        <ele>305</ele>
        <time>2022-11-17T10:28:39Z</time>
      </trkpt>
      <trkpt lat="44.68292" lon="5.13973">
        <ele>304</ele>
        <time>2022-11-17T10:28:39Z</time>
      </trkpt>
      <trkpt lat="44.68297" lon="5.13983">
        <ele>303</ele>
        <time>2022-11-17T10:28:39Z</time>
      </trkpt>
      <trkpt lat="44.68307" lon="5.13988">
        <ele>302</ele>
        <time>2022-11-17T10:28:39Z</time>
      </trkpt>
      <trkpt lat="44.68345" lon="5.13985">
        <ele>302</ele>
        <time>2022-11-17T10:28:39Z</time>
      </trkpt>
      <trkpt lat="44.68363" lon="5.13991">
        <ele>301</ele>
        <time>2022-11-17T10:28:39Z</time>
      </trkpt>
      <trkpt lat="44.68449" lon="5.14029">
        <ele>301</ele>
        <time>2022-11-17T10:28:39Z</time>
      </trkpt>
      <trkpt lat="44.68503" lon="5.14036">
        <ele>303</ele>
        <time>2022-11-17T10:28:39Z</time>
      </trkpt>
      <trkpt lat="44.68567" lon="5.14027">
        <ele>303</ele>
        <time>2022-11-17T10:28:39Z</time>
      </trkpt>
      <trkpt lat="44.68806" lon="5.141">
        <ele>302</ele>
        <time>2022-11-17T10:28:39Z</time>
      </trkpt>
      <trkpt lat="44.68696" lon="5.14098">
        <ele>303</ele>
        <time>2022-11-17T10:28:39Z</time>
      </trkpt>
      <trkpt lat="44.68634" lon="5.14134">
        <ele>309</ele>
        <time>2022-11-17T10:28:39Z</time>
      </trkpt>
      <trkpt lat="44.68631" lon="5.1416">
        <ele>312</ele>
        <time>2022-11-17T10:28:39Z</time>
      </trkpt>
      <trkpt lat="44.68593" lon="5.14154">
        <ele>316</ele>
        <time>2022-11-17T10:28:39Z</time>
      </trkpt>
      <trkpt lat="44.68576" lon="5.14185">
        <ele>319</ele>
        <time>2022-11-17T10:28:39Z</time>
      </trkpt>
      <trkpt lat="44.68499" lon="5.14252">
        <ele>323</ele>
        <time>2022-11-17T10:28:39Z</time>
      </trkpt>
      <trkpt lat="44.6847" lon="5.14291">
        <ele>325</ele>
        <time>2022-11-17T10:28:39Z</time>
      </trkpt>
      <trkpt lat="44.68433" lon="5.14373">
        <ele>327</ele>
        <time>2022-11-17T10:28:39Z</time>
      </trkpt>
      <trkpt lat="44.68407" lon="5.14399">
        <ele>328</ele>
        <time>2022-11-17T10:28:39Z</time>
      </trkpt>
      <trkpt lat="44.684" lon="5.1441">
        <ele>329</ele>
        <time>2022-11-17T10:28:39Z</time>
      </trkpt>
      <trkpt lat="44.68402" lon="5.14443">
        <ele>328</ele>
        <time>2022-11-17T10:28:39Z</time>
      </trkpt>
      <trkpt lat="44.684" lon="5.14455">
        <ele>328</ele>
        <time>2022-11-17T10:28:39Z</time>
      </trkpt>
      <trkpt lat="44.68388" lon="5.14473">
        <ele>327</ele>
        <time>2022-11-17T10:28:39Z</time>
      </trkpt>
      <trkpt lat="44.68352" lon="5.14492">
        <ele>327</ele>
        <time>2022-11-17T10:28:39Z</time>
      </trkpt>
      <trkpt lat="44.68349" lon="5.14502">
        <ele>327</ele>
        <time>2022-11-17T10:28:39Z</time>
      </trkpt>
      <trkpt lat="44.68348" lon="5.14529">
        <ele>327</ele>
        <time>2022-11-17T10:28:39Z</time>
      </trkpt>
      <trkpt lat="44.68326" lon="5.14577">
        <ele>329</ele>
        <time>2022-11-17T10:28:39Z</time>
      </trkpt>
      <trkpt lat="44.6832" lon="5.14638">
        <ele>331</ele>
        <time>2022-11-17T10:28:39Z</time>
      </trkpt>
      <trkpt lat="44.68312" lon="5.14664">
        <ele>334</ele>
        <time>2022-11-17T10:28:39Z</time>
      </trkpt>
      <trkpt lat="44.68305" lon="5.14714">
        <ele>336</ele>
        <time>2022-11-17T10:28:39Z</time>
      </trkpt>
      <trkpt lat="44.683" lon="5.14721">
        <ele>337</ele>
        <time>2022-11-17T10:28:39Z</time>
      </trkpt>
      <trkpt lat="44.68275" lon="5.14734">
        <ele>339</ele>
        <time>2022-11-17T10:28:39Z</time>
      </trkpt>
      <trkpt lat="44.68265" lon="5.14748">
        <ele>341</ele>
        <time>2022-11-17T10:28:39Z</time>
      </trkpt>
      <trkpt lat="44.68262" lon="5.14776">
        <ele>342</ele>
        <time>2022-11-17T10:28:39Z</time>
      </trkpt>
      <trkpt lat="44.68266" lon="5.14877">
        <ele>343</ele>
        <time>2022-11-17T10:28:39Z</time>
      </trkpt>
      <trkpt lat="44.6829" lon="5.14941">
        <ele>345</ele>
        <time>2022-11-17T10:28:39Z</time>
      </trkpt>
      <trkpt lat="44.68292" lon="5.14978">
        <ele>346</ele>
        <time>2022-11-17T10:28:39Z</time>
      </trkpt>
      <trkpt lat="44.68289" lon="5.14989">
        <ele>346</ele>
        <time>2022-11-17T10:28:39Z</time>
      </trkpt>
      <trkpt lat="44.6826" lon="5.15026">
        <ele>348</ele>
        <time>2022-11-17T10:28:39Z</time>
      </trkpt>
      <trkpt lat="44.68244" lon="5.15065">
        <ele>348</ele>
        <time>2022-11-17T10:28:39Z</time>
      </trkpt>
      <trkpt lat="44.68237" lon="5.15072">
        <ele>348</ele>
        <time>2022-11-17T10:28:39Z</time>
      </trkpt>
      <trkpt lat="44.68203" lon="5.15089">
        <ele>348</ele>
        <time>2022-11-17T10:28:39Z</time>
      </trkpt>
      <trkpt lat="44.68194" lon="5.1509">
        <ele>346</ele>
        <time>2022-11-17T10:28:39Z</time>
      </trkpt>
      <trkpt lat="44.68157" lon="5.15067">
        <ele>347</ele>
        <time>2022-11-17T10:28:39Z</time>
      </trkpt>
      <trkpt lat="44.68097" lon="5.15093">
        <ele>346</ele>
        <time>2022-11-17T10:28:39Z</time>
      </trkpt>
      <trkpt lat="44.68091" lon="5.15103">
        <ele>345</ele>
        <time>2022-11-17T10:28:39Z</time>
      </trkpt>
      <trkpt lat="44.6809" lon="5.15117">
        <ele>345</ele>
        <time>2022-11-17T10:28:39Z</time>
      </trkpt>
      <trkpt lat="44.68088" lon="5.15127">
        <ele>344</ele>
        <time>2022-11-17T10:28:39Z</time>
      </trkpt>
      <trkpt lat="44.68035" lon="5.15157">
        <ele>345</ele>
        <time>2022-11-17T10:28:39Z</time>
      </trkpt>
      <trkpt lat="44.68027" lon="5.15168">
        <ele>345</ele>
        <time>2022-11-17T10:28:39Z</time>
      </trkpt>
      <trkpt lat="44.67965" lon="5.15166">
        <ele>347</ele>
      </trkpt>
      <trkpt lat="44.67903" lon="5.15164">
        <ele>351</ele>
        <time>2022-11-17T10:28:39Z</time>
      </trkpt>
      <trkpt lat="44.67868" lon="5.15177">
        <ele>354</ele>
        <time>2022-11-17T10:28:39Z</time>
      </trkpt>
      <trkpt lat="44.67857" lon="5.15192">
        <ele>355</ele>
        <time>2022-11-17T10:28:39Z</time>
      </trkpt>
      <trkpt lat="44.67813" lon="5.15213">
        <ele>357</ele>
        <time>2022-11-17T10:28:39Z</time>
      </trkpt>
      <trkpt lat="44.67859" lon="5.15284">
        <ele>359</ele>
        <time>2022-11-17T10:28:39Z</time>
      </trkpt>
      <trkpt lat="44.67914" lon="5.1531">
        <ele>361</ele>
        <time>2022-11-17T10:28:39Z</time>
      </trkpt>
      <trkpt lat="44.67992" lon="5.15322">
        <ele>362</ele>
        <time>2022-11-17T10:28:39Z</time>
      </trkpt>
      <trkpt lat="44.67986" lon="5.15331">
        <ele>363</ele>
        <time>2022-11-17T10:28:39Z</time>
      </trkpt>
      <trkpt lat="44.67981" lon="5.15344">
        <ele>364</ele>
        <time>2022-11-17T10:28:39Z</time>
      </trkpt>
      <trkpt lat="44.67966" lon="5.15421">
        <ele>365</ele>
        <time>2022-11-17T10:28:39Z</time>
      </trkpt>
      <trkpt lat="44.67968" lon="5.15436">
        <ele>365</ele>
        <time>2022-11-17T10:28:39Z</time>
      </trkpt>
      <trkpt lat="44.6798" lon="5.15447">
        <ele>366</ele>
        <time>2022-11-17T10:28:39Z</time>
      </trkpt>
      <trkpt lat="44.67995" lon="5.15451">
        <ele>366</ele>
        <time>2022-11-17T10:28:39Z</time>
      </trkpt>
      <trkpt lat="44.68015" lon="5.15472">
        <ele>366</ele>
        <time>2022-11-17T10:28:39Z</time>
      </trkpt>
      <trkpt lat="44.6805" lon="5.15546">
        <ele>367</ele>
      </trkpt>
      <trkpt lat="44.68085" lon="5.15619">
        <ele>369</ele>
        <time>2022-11-17T10:28:39Z</time>
      </trkpt>
      <trkpt lat="44.68084" lon="5.15636">
        <ele>371</ele>
        <time>2022-11-17T10:28:39Z</time>
      </trkpt>
      <trkpt lat="44.68078" lon="5.1565">
        <ele>372</ele>
        <time>2022-11-17T10:28:39Z</time>
      </trkpt>
      <trkpt lat="44.68078" lon="5.15665">
        <ele>373</ele>
        <time>2022-11-17T10:28:39Z</time>
      </trkpt>
      <trkpt lat="44.68082" lon="5.15673">
        <ele>373</ele>
        <time>2022-11-17T10:28:39Z</time>
      </trkpt>
      <trkpt lat="44.68092" lon="5.15676">
        <ele>373</ele>
        <time>2022-11-17T10:28:39Z</time>
      </trkpt>
      <trkpt lat="44.68017" lon="5.15673">
        <ele>377</ele>
        <time>2022-11-17T10:28:39Z</time>
      </trkpt>
      <trkpt lat="44.67976" lon="5.15698">
        <ele>381</ele>
      </trkpt>
      <trkpt lat="44.67934" lon="5.15722">
        <ele>386</ele>
      </trkpt>
      <trkpt lat="44.67851" lon="5.15771">
        <ele>387</ele>
        <time>2022-11-17T10:28:39Z</time>
      </trkpt>
      <trkpt lat="44.67786" lon="5.15793">
        <ele>388</ele>
        <time>2022-11-17T10:28:39Z</time>
      </trkpt>
      <trkpt lat="44.67759" lon="5.15885">
        <ele>389</ele>
      </trkpt>
      <trkpt lat="44.67732" lon="5.15977">
        <ele>389</ele>
        <time>2022-11-17T10:28:39Z</time>
      </trkpt>
      <trkpt lat="44.67709" lon="5.15993">
        <ele>389</ele>
        <time>2022-11-17T10:28:39Z</time>
      </trkpt>
      <trkpt lat="44.67692" lon="5.16051">
        <ele>389</ele>
        <time>2022-11-17T10:28:39Z</time>
      </trkpt>
      <trkpt lat="44.67711" lon="5.16102">
        <ele>389</ele>
        <time>2022-11-17T10:28:39Z</time>
      </trkpt>
      <trkpt lat="44.67726" lon="5.16117">
        <ele>389</ele>
        <time>2022-11-17T10:28:39Z</time>
      </trkpt>
      <trkpt lat="44.67779" lon="5.16149">
        <ele>391</ele>
        <time>2022-11-17T10:28:39Z</time>
      </trkpt>
      <trkpt lat="44.67854" lon="5.16166">
        <ele>392</ele>
        <time>2022-11-17T10:28:39Z</time>
      </trkpt>
      <trkpt lat="44.67836" lon="5.16225">
        <ele>395</ele>
      </trkpt>
      <trkpt lat="44.67818" lon="5.16284">
        <ele>397</ele>
        <time>2022-11-17T10:28:39Z</time>
      </trkpt>
      <trkpt lat="44.67871" lon="5.16336">
        <ele>399</ele>
        <time>2022-11-17T10:28:39Z</time>
      </trkpt>
      <trkpt lat="44.67798" lon="5.16385">
        <ele>405</ele>
        <time>2022-11-17T10:28:39Z</time>
      </trkpt>
      <trkpt lat="44.67742" lon="5.16412">
        <ele>408</ele>
      </trkpt>
      <trkpt lat="44.67685" lon="5.16439">
        <ele>412</ele>
        <time>2022-11-17T10:28:39Z</time>
      </trkpt>
      <trkpt lat="44.67663" lon="5.1649">
        <ele>413</ele>
        <time>2022-11-17T10:28:39Z</time>
      </trkpt>
      <trkpt lat="44.67607" lon="5.16482">
        <ele>414</ele>
        <time>2022-11-17T10:28:39Z</time>
      </trkpt>
      <trkpt lat="44.67519" lon="5.16494">
        <ele>414</ele>
        <time>2022-11-17T10:28:39Z</time>
      </trkpt>
      <trkpt lat="44.67462" lon="5.16563">
        <ele>412</ele>
        <time>2022-11-17T10:28:39Z</time>
      </trkpt>
      <trkpt lat="44.67411" lon="5.16559">
        <ele>414</ele>
      </trkpt>
      <trkpt lat="44.6736" lon="5.16555">
        <ele>416</ele>
        <time>2022-11-17T10:28:39Z</time>
      </trkpt>
      <trkpt lat="44.67313" lon="5.16621">
        <ele>417</ele>
        <time>2022-11-17T10:28:39Z</time>
      </trkpt>
      <trkpt lat="44.67322" lon="5.16688">
        <ele>417</ele>
        <time>2022-11-17T10:28:39Z</time>
      </trkpt>
      <trkpt lat="44.67393" lon="5.16729">
        <ele>415</ele>
      </trkpt>
      <trkpt lat="44.67464" lon="5.16769">
        <ele>412</ele>
        <time>2022-11-17T10:28:39Z</time>
      </trkpt>
      <trkpt lat="44.67439" lon="5.16844">
        <ele>399</ele>
        <time>2022-11-17T10:28:39Z</time>
      </trkpt>
      <trkpt lat="44.67384" lon="5.16876">
        <ele>399</ele>
        <time>2022-11-17T10:28:39Z</time>
      </trkpt>
      <trkpt lat="44.68105" lon="5.16559">
        <ele>378</ele>
        <time>2022-11-17T10:28:39Z</time>
      </trkpt>
      <trkpt lat="44.68051" lon="5.16581">
        <ele>370</ele>
        <time>2022-11-17T10:28:39Z</time>
      </trkpt>
      <trkpt lat="44.68003" lon="5.16629">
        <ele>363</ele>
        <time>2022-11-17T10:28:39Z</time>
      </trkpt>
      <trkpt lat="44.67991" lon="5.16651">
        <ele>359</ele>
        <time>2022-11-17T10:28:39Z</time>
      </trkpt>
      <trkpt lat="44.67988" lon="5.16672">
        <ele>356</ele>
        <time>2022-11-17T10:28:39Z</time>
      </trkpt>
      <trkpt lat="44.67993" lon="5.16709">
        <ele>351</ele>
        <time>2022-11-17T10:28:39Z</time>
      </trkpt>
      <trkpt lat="44.67996" lon="5.16718">
        <ele>348</ele>
        <time>2022-11-17T10:28:39Z</time>
      </trkpt>
      <trkpt lat="44.68015" lon="5.16752">
        <ele>344</ele>
        <time>2022-11-17T10:28:39Z</time>
      </trkpt>
      <trkpt lat="44.68019" lon="5.16767">
        <ele>340</ele>
        <time>2022-11-17T10:28:39Z</time>
      </trkpt>
      <trkpt lat="44.6801" lon="5.16773">
        <ele>337</ele>
        <time>2022-11-17T10:28:39Z</time>
      </trkpt>
      <trkpt lat="44.67985" lon="5.16778">
        <ele>335</ele>
        <time>2022-11-17T10:28:39Z</time>
      </trkpt>
      <trkpt lat="44.67979" lon="5.16785">
        <ele>334</ele>
        <time>2022-11-17T10:28:39Z</time>
      </trkpt>
      <trkpt lat="44.68" lon="5.168">
        <ele>332</ele>
        <time>2022-11-17T10:28:39Z</time>
      </trkpt>
      <trkpt lat="44.68011" lon="5.16818">
        <ele>332</ele>
        <time>2022-11-17T10:28:39Z</time>
      </trkpt>
      <trkpt lat="44.68013" lon="5.16834">
        <ele>332</ele>
        <time>2022-11-17T10:28:39Z</time>
      </trkpt>
      <trkpt lat="44.6801" lon="5.16848">
        <ele>332</ele>
        <time>2022-11-17T10:28:39Z</time>
      </trkpt>
      <trkpt lat="44.67989" lon="5.1687">
        <ele>334</ele>
        <time>2022-11-17T10:28:39Z</time>
      </trkpt>
      <trkpt lat="44.67981" lon="5.16883">
        <ele>335</ele>
        <time>2022-11-17T10:28:39Z</time>
      </trkpt>
      <trkpt lat="44.67978" lon="5.16894">
        <ele>337</ele>
        <time>2022-11-17T10:28:39Z</time>
      </trkpt>
      <trkpt lat="44.67972" lon="5.16905">
        <ele>338</ele>
        <time>2022-11-17T10:28:39Z</time>
      </trkpt>
      <trkpt lat="44.6795" lon="5.16918">
        <ele>340</ele>
        <time>2022-11-17T10:28:39Z</time>
      </trkpt>
      <trkpt lat="44.67772" lon="5.16942">
        <ele>347</ele>
        <time>2022-11-17T10:28:39Z</time>
      </trkpt>
      <trkpt lat="44.67731" lon="5.16929">
        <ele>352</ele>
        <time>2022-11-17T10:28:39Z</time>
      </trkpt>
      <trkpt lat="44.67686" lon="5.16892">
        <ele>356</ele>
        <time>2022-11-17T10:28:39Z</time>
      </trkpt>
      <trkpt lat="44.67613" lon="5.16899">
        <ele>360</ele>
        <time>2022-11-17T10:28:39Z</time>
      </trkpt>
      <trkpt lat="44.67559" lon="5.16948">
        <ele>366</ele>
        <time>2022-11-17T10:28:39Z</time>
      </trkpt>
      <trkpt lat="44.67482" lon="5.16975">
        <ele>372</ele>
        <time>2022-11-17T10:28:39Z</time>
      </trkpt>
      <trkpt lat="44.67495" lon="5.16984">
        <ele>376</ele>
        <time>2022-11-17T10:28:39Z</time>
      </trkpt>
      <trkpt lat="44.67505" lon="5.16984">
        <ele>379</ele>
        <time>2022-11-17T10:28:39Z</time>
      </trkpt>
      <trkpt lat="44.67512" lon="5.16981">
        <ele>381</ele>
        <time>2022-11-17T10:28:39Z</time>
      </trkpt>
      <trkpt lat="44.67576" lon="5.16972">
        <ele>383</ele>
        <time>2022-11-17T10:28:39Z</time>
      </trkpt>
      <trkpt lat="44.67593" lon="5.1696">
        <ele>384</ele>
        <time>2022-11-17T10:28:39Z</time>
      </trkpt>
      <trkpt lat="44.67614" lon="5.16954">
        <ele>385</ele>
        <time>2022-11-17T10:28:39Z</time>
      </trkpt>
      <trkpt lat="44.67624" lon="5.1696">
        <ele>386</ele>
        <time>2022-11-17T10:28:39Z</time>
      </trkpt>
      <trkpt lat="44.67675" lon="5.17062">
        <ele>390</ele>
        <time>2022-11-17T10:28:39Z</time>
      </trkpt>
      <trkpt lat="44.67711" lon="5.17171">
        <ele>395</ele>
        <time>2022-11-17T10:28:39Z</time>
      </trkpt>
      <trkpt lat="44.67715" lon="5.17179">
        <ele>398</ele>
        <time>2022-11-17T10:28:39Z</time>
      </trkpt>
      <trkpt lat="44.67717" lon="5.17211">
        <ele>399</ele>
        <time>2022-11-17T10:28:39Z</time>
      </trkpt>
      <trkpt lat="44.67712" lon="5.17224">
        <ele>399</ele>
        <time>2022-11-17T10:28:39Z</time>
      </trkpt>
      <trkpt lat="44.67706" lon="5.17229">
        <ele>399</ele>
        <time>2022-11-17T10:28:39Z</time>
      </trkpt>
      <trkpt lat="44.67673" lon="5.1723">
        <ele>401</ele>
        <time>2022-11-17T10:28:39Z</time>
      </trkpt>
      <trkpt lat="44.67651" lon="5.17243">
        <ele>402</ele>
        <time>2022-11-17T10:28:39Z</time>
      </trkpt>
      <trkpt lat="44.67638" lon="5.17245">
        <ele>403</ele>
        <time>2022-11-17T10:28:39Z</time>
      </trkpt>
      <trkpt lat="44.6763" lon="5.1725">
        <ele>405</ele>
        <time>2022-11-17T10:28:39Z</time>
      </trkpt>
      <trkpt lat="44.67622" lon="5.1726">
        <ele>406</ele>
        <time>2022-11-17T10:28:39Z</time>
      </trkpt>
      <trkpt lat="44.67617" lon="5.17273">
        <ele>406</ele>
        <time>2022-11-17T10:28:39Z</time>
      </trkpt>
      <trkpt lat="44.67609" lon="5.17283">
        <ele>406</ele>
        <time>2022-11-17T10:28:39Z</time>
      </trkpt>
      <trkpt lat="44.67583" lon="5.173">
        <ele>408</ele>
        <time>2022-11-17T10:28:39Z</time>
      </trkpt>
      <trkpt lat="44.67562" lon="5.17342">
        <ele>409</ele>
        <time>2022-11-17T10:28:39Z</time>
      </trkpt>
      <trkpt lat="44.67525" lon="5.17373">
        <ele>411</ele>
        <time>2022-11-17T10:28:39Z</time>
      </trkpt>
      <trkpt lat="44.67449" lon="5.17486">
        <ele>412</ele>
        <time>2022-11-17T10:28:39Z</time>
      </trkpt>
      <trkpt lat="44.67436" lon="5.17494">
        <ele>412</ele>
        <time>2022-11-17T10:28:39Z</time>
      </trkpt>
      <trkpt lat="44.6742" lon="5.17497">
        <ele>413</ele>
        <time>2022-11-17T10:28:39Z</time>
      </trkpt>
      <trkpt lat="44.67411" lon="5.17509">
        <ele>414</ele>
        <time>2022-11-17T10:28:39Z</time>
      </trkpt>
      <trkpt lat="44.6741" lon="5.17526">
        <ele>415</ele>
        <time>2022-11-17T10:28:39Z</time>
      </trkpt>
      <trkpt lat="44.67423" lon="5.17532">
        <ele>415</ele>
        <time>2022-11-17T10:28:39Z</time>
      </trkpt>
      <trkpt lat="44.67431" lon="5.17532">
        <ele>415</ele>
        <time>2022-11-17T10:28:39Z</time>
      </trkpt>
      <trkpt lat="44.67435" lon="5.17544">
        <ele>415</ele>
        <time>2022-11-17T10:28:39Z</time>
      </trkpt>
      <trkpt lat="44.67429" lon="5.17559">
        <ele>416</ele>
        <time>2022-11-17T10:28:39Z</time>
      </trkpt>
      <trkpt lat="44.67429" lon="5.17584">
        <ele>418</ele>
        <time>2022-11-17T10:28:39Z</time>
      </trkpt>
      <trkpt lat="44.67426" lon="5.17597">
        <ele>419</ele>
        <time>2022-11-17T10:28:39Z</time>
      </trkpt>
      <trkpt lat="44.67406" lon="5.17628">
        <ele>422</ele>
        <time>2022-11-17T10:28:39Z</time>
      </trkpt>
      <trkpt lat="44.67387" lon="5.17689">
        <ele>425</ele>
        <time>2022-11-17T10:28:39Z</time>
      </trkpt>
      <trkpt lat="44.6735" lon="5.17727">
        <ele>427</ele>
        <time>2022-11-17T10:28:39Z</time>
      </trkpt>
      <trkpt lat="44.67296" lon="5.17821">
        <ele>428</ele>
        <time>2022-11-17T10:28:39Z</time>
      </trkpt>
      <trkpt lat="44.6727" lon="5.17836">
        <ele>430</ele>
        <time>2022-11-17T10:28:39Z</time>
      </trkpt>
      <trkpt lat="44.67256" lon="5.17853">
        <ele>431</ele>
        <time>2022-11-17T10:28:39Z</time>
      </trkpt>
      <trkpt lat="44.67228" lon="5.17909">
        <ele>432</ele>
        <time>2022-11-17T10:28:39Z</time>
      </trkpt>
      <trkpt lat="44.67214" lon="5.17924">
        <ele>432</ele>
        <time>2022-11-17T10:28:39Z</time>
      </trkpt>
      <trkpt lat="44.67196" lon="5.17928">
        <ele>433</ele>
        <time>2022-11-17T10:28:39Z</time>
      </trkpt>
      <trkpt lat="44.67174" lon="5.17922">
        <ele>434</ele>
        <time>2022-11-17T10:28:39Z</time>
      </trkpt>
      <trkpt lat="44.67176" lon="5.17935">
        <ele>435</ele>
        <time>2022-11-17T10:28:39Z</time>
      </trkpt>
      <trkpt lat="44.672" lon="5.17959">
        <ele>435</ele>
        <time>2022-11-17T10:28:39Z</time>
      </trkpt>
      <trkpt lat="44.67203" lon="5.17972">
        <ele>434</ele>
        <time>2022-11-17T10:28:39Z</time>
      </trkpt>
      <trkpt lat="44.67198" lon="5.17984">
        <ele>434</ele>
        <time>2022-11-17T10:28:39Z</time>
      </trkpt>
      <trkpt lat="44.67168" lon="5.18024">
        <ele>434</ele>
        <time>2022-11-17T10:28:39Z</time>
      </trkpt>
      <trkpt lat="44.67166" lon="5.18038">
        <ele>434</ele>
        <time>2022-11-17T10:28:39Z</time>
      </trkpt>
      <trkpt lat="44.67168" lon="5.18049">
        <ele>434</ele>
        <time>2022-11-17T10:28:39Z</time>
      </trkpt>
      <trkpt lat="44.67172" lon="5.1806">
        <ele>433</ele>
        <time>2022-11-17T10:28:39Z</time>
      </trkpt>
      <trkpt lat="44.67178" lon="5.18121">
        <ele>433</ele>
        <time>2022-11-17T10:28:39Z</time>
      </trkpt>
      <trkpt lat="44.67178" lon="5.18132">
        <ele>434</ele>
        <time>2022-11-17T10:28:39Z</time>
      </trkpt>
      <trkpt lat="44.67168" lon="5.18141">
        <ele>434</ele>
        <time>2022-11-17T10:28:39Z</time>
      </trkpt>
      <trkpt lat="44.67164" lon="5.18151">
        <ele>434</ele>
        <time>2022-11-17T10:28:39Z</time>
      </trkpt>
      <trkpt lat="44.67169" lon="5.18162">
        <ele>435</ele>
        <time>2022-11-17T10:28:39Z</time>
      </trkpt>
      <trkpt lat="44.67187" lon="5.18173">
        <ele>435</ele>
        <time>2022-11-17T10:28:39Z</time>
      </trkpt>
      <trkpt lat="44.67208" lon="5.18171">
        <ele>436</ele>
        <time>2022-11-17T10:28:39Z</time>
      </trkpt>
      <trkpt lat="44.67242" lon="5.18155">
        <ele>436</ele>
        <time>2022-11-17T10:28:39Z</time>
      </trkpt>
      <trkpt lat="44.67254" lon="5.18156">
        <ele>437</ele>
        <time>2022-11-17T10:28:39Z</time>
      </trkpt>
      <trkpt lat="44.67337" lon="5.18209">
        <ele>442</ele>
        <time>2022-11-17T10:28:39Z</time>
      </trkpt>
      <trkpt lat="44.67357" lon="5.18213">
        <ele>445</ele>
        <time>2022-11-17T10:28:39Z</time>
      </trkpt>
      <trkpt lat="44.67365" lon="5.18211">
        <ele>447</ele>
        <time>2022-11-17T10:28:39Z</time>
      </trkpt>
      <trkpt lat="44.67406" lon="5.18186">
        <ele>448</ele>
        <time>2022-11-17T10:28:39Z</time>
      </trkpt>
      <trkpt lat="44.67424" lon="5.18185">
        <ele>449</ele>
        <time>2022-11-17T10:28:39Z</time>
      </trkpt>
      <trkpt lat="44.67431" lon="5.18191">
        <ele>449</ele>
        <time>2022-11-17T10:28:39Z</time>
      </trkpt>
      <trkpt lat="44.67428" lon="5.18202">
        <ele>450</ele>
        <time>2022-11-17T10:28:39Z</time>
      </trkpt>
      <trkpt lat="44.67297" lon="5.18317">
        <ele>460</ele>
        <time>2022-11-17T10:28:39Z</time>
      </trkpt>
      <trkpt lat="44.67268" lon="5.18375">
        <ele>470</ele>
        <time>2022-11-17T10:28:39Z</time>
      </trkpt>
      <trkpt lat="44.67265" lon="5.18393">
        <ele>476</ele>
        <time>2022-11-17T10:28:39Z</time>
      </trkpt>
      <trkpt lat="44.67263" lon="5.18573">
        <ele>510</ele>
        <time>2022-11-17T10:28:39Z</time>
      </trkpt>
      <trkpt lat="44.67274" lon="5.1862">
        <ele>511</ele>
        <time>2022-11-17T10:28:39Z</time>
      </trkpt>
      <trkpt lat="44.67274" lon="5.18636">
        <ele>511</ele>
        <time>2022-11-17T10:28:39Z</time>
      </trkpt>
      <trkpt lat="44.6729" lon="5.18707">
        <ele>510</ele>
        <time>2022-11-17T10:28:39Z</time>
      </trkpt>
      <trkpt lat="44.67295" lon="5.18715">
        <ele>510</ele>
        <time>2022-11-17T10:28:39Z</time>
      </trkpt>
      <trkpt lat="44.67301" lon="5.18721">
        <ele>509</ele>
        <time>2022-11-17T10:28:39Z</time>
      </trkpt>
      <trkpt lat="44.6747" lon="5.18773">
        <ele>503</ele>
        <time>2022-11-17T10:28:39Z</time>
      </trkpt>
      <trkpt lat="44.67514" lon="5.18753">
        <ele>499</ele>
        <time>2022-11-17T10:28:39Z</time>
      </trkpt>
      <trkpt lat="44.67722" lon="5.18748">
        <ele>486</ele>
        <time>2022-11-17T10:28:39Z</time>
      </trkpt>
      <trkpt lat="44.67742" lon="5.18755">
        <ele>479</ele>
        <time>2022-11-17T10:28:39Z</time>
      </trkpt>
      <trkpt lat="44.6777" lon="5.18778">
        <ele>474</ele>
        <time>2022-11-17T10:28:39Z</time>
      </trkpt>
      <trkpt lat="44.67802" lon="5.18779">
        <ele>470</ele>
        <time>2022-11-17T10:28:39Z</time>
      </trkpt>
      <trkpt lat="44.67848" lon="5.18763">
        <ele>469</ele>
        <time>2022-11-17T10:28:39Z</time>
      </trkpt>
      <trkpt lat="44.6786" lon="5.18768">
        <ele>467</ele>
        <time>2022-11-17T10:28:39Z</time>
      </trkpt>
      <trkpt lat="44.67877" lon="5.1879">
        <ele>466</ele>
        <time>2022-11-17T10:28:39Z</time>
      </trkpt>
      <trkpt lat="44.67884" lon="5.18792">
        <ele>466</ele>
        <time>2022-11-17T10:28:39Z</time>
      </trkpt>
      <trkpt lat="44.67928" lon="5.18837">
        <ele>464</ele>
        <time>2022-11-17T10:28:39Z</time>
      </trkpt>
      <trkpt lat="44.6798" lon="5.18868">
        <ele>462</ele>
        <time>2022-11-17T10:28:39Z</time>
      </trkpt>
      <trkpt lat="44.67998" lon="5.18871">
        <ele>461</ele>
        <time>2022-11-17T10:28:39Z</time>
      </trkpt>
      <trkpt lat="44.68009" lon="5.18867">
        <ele>460</ele>
        <time>2022-11-17T10:28:39Z</time>
      </trkpt>
      <trkpt lat="44.68065" lon="5.18869">
        <ele>458</ele>
        <time>2022-11-17T10:28:39Z</time>
      </trkpt>
      <trkpt lat="44.68151" lon="5.18911">
        <ele>457</ele>
        <time>2022-11-17T10:28:39Z</time>
      </trkpt>
      <trkpt lat="44.68159" lon="5.18904">
        <ele>456</ele>
        <time>2022-11-17T10:28:39Z</time>
      </trkpt>
      <trkpt lat="44.68163" lon="5.18891">
        <ele>455</ele>
        <time>2022-11-17T10:28:39Z</time>
      </trkpt>
      <trkpt lat="44.68172" lon="5.18882">
        <ele>453</ele>
        <time>2022-11-17T10:28:39Z</time>
      </trkpt>
      <trkpt lat="44.68185" lon="5.1888">
        <ele>452</ele>
        <time>2022-11-17T10:28:39Z</time>
      </trkpt>
      <trkpt lat="44.68295" lon="5.18899">
        <ele>451</ele>
        <time>2022-11-17T10:28:39Z</time>
      </trkpt>
      <trkpt lat="44.6831" lon="5.18912">
        <ele>450</ele>
        <time>2022-11-17T10:28:39Z</time>
      </trkpt>
      <trkpt lat="44.68329" lon="5.18944">
        <ele>449</ele>
        <time>2022-11-17T10:28:39Z</time>
      </trkpt>
      <trkpt lat="44.68338" lon="5.18952">
        <ele>448</ele>
        <time>2022-11-17T10:28:39Z</time>
      </trkpt>
      <trkpt lat="44.68382" lon="5.18971">
        <ele>446</ele>
        <time>2022-11-17T10:28:39Z</time>
      </trkpt>
      <trkpt lat="44.6839" lon="5.18984">
        <ele>444</ele>
        <time>2022-11-17T10:28:39Z</time>
      </trkpt>
      <trkpt lat="44.68394" lon="5.19039">
        <ele>442</ele>
        <time>2022-11-17T10:28:39Z</time>
      </trkpt>
      <trkpt lat="44.68406" lon="5.19067">
        <ele>439</ele>
        <time>2022-11-17T10:28:39Z</time>
      </trkpt>
      <trkpt lat="44.68451" lon="5.1912">
        <ele>436</ele>
        <time>2022-11-17T10:28:39Z</time>
      </trkpt>
      <trkpt lat="44.68461" lon="5.19126">
        <ele>433</ele>
        <time>2022-11-17T10:28:39Z</time>
      </trkpt>
      <trkpt lat="44.6848" lon="5.19122">
        <ele>430</ele>
        <time>2022-11-17T10:28:39Z</time>
      </trkpt>
      <trkpt lat="44.685" lon="5.19104">
        <ele>427</ele>
        <time>2022-11-17T10:28:39Z</time>
      </trkpt>
      <trkpt lat="44.68523" lon="5.19095">
        <ele>423</ele>
        <time>2022-11-17T10:28:39Z</time>
      </trkpt>
      <trkpt lat="44.68563" lon="5.19086">
        <ele>419</ele>
        <time>2022-11-17T10:28:39Z</time>
      </trkpt>
      <trkpt lat="44.68574" lon="5.19088">
        <ele>416</ele>
        <time>2022-11-17T10:28:39Z</time>
      </trkpt>
      <trkpt lat="44.68629" lon="5.19203">
        <ele>411</ele>
        <time>2022-11-17T10:28:39Z</time>
      </trkpt>
      <trkpt lat="44.687" lon="5.19252">
        <ele>403</ele>
        <time>2022-11-17T10:28:39Z</time>
      </trkpt>
      <trkpt lat="44.68725" lon="5.19248">
        <ele>397</ele>
        <time>2022-11-17T10:28:39Z</time>
      </trkpt>
      <trkpt lat="44.68736" lon="5.19251">
        <ele>393</ele>
        <time>2022-11-17T10:28:39Z</time>
      </trkpt>
      <trkpt lat="44.68806" lon="5.19317">
        <ele>386</ele>
        <time>2022-11-17T10:28:39Z</time>
      </trkpt>
      <trkpt lat="44.68883" lon="5.19358">
        <ele>378</ele>
        <time>2022-11-17T10:28:39Z</time>
      </trkpt>
      <trkpt lat="44.68921" lon="5.19397">
        <ele>371</ele>
        <time>2022-11-17T10:28:39Z</time>
      </trkpt>
      <trkpt lat="44.68918" lon="5.19406">
        <ele>367</ele>
        <time>2022-11-17T10:28:39Z</time>
      </trkpt>
      <trkpt lat="44.68939" lon="5.19431">
        <ele>363</ele>
        <time>2022-11-17T10:28:39Z</time>
      </trkpt>
      <trkpt lat="44.68953" lon="5.19466">
        <ele>345</ele>
        <time>2022-11-17T10:28:39Z</time>
      </trkpt>
      <trkpt lat="44.68984" lon="5.19501">
        <ele>343</ele>
        <time>2022-11-17T10:28:39Z</time>
      </trkpt>
      <trkpt lat="44.69001" lon="5.19507">
        <ele>342</ele>
        <time>2022-11-17T10:28:39Z</time>
      </trkpt>
      <trkpt lat="44.69003" lon="5.1953">
        <ele>340</ele>
        <time>2022-11-17T10:28:39Z</time>
      </trkpt>
      <trkpt lat="44.69011" lon="5.19545">
        <ele>339</ele>
        <time>2022-11-17T10:28:39Z</time>
      </trkpt>
      <trkpt lat="44.69033" lon="5.19564">
        <ele>337</ele>
        <time>2022-11-17T10:28:39Z</time>
      </trkpt>
      <trkpt lat="44.69054" lon="5.19565">
        <ele>334</ele>
        <time>2022-11-17T10:28:39Z</time>
      </trkpt>
      <trkpt lat="44.69061" lon="5.19578">
        <ele>332</ele>
        <time>2022-11-17T10:28:39Z</time>
      </trkpt>
      <trkpt lat="44.69146" lon="5.19639">
        <ele>328</ele>
        <time>2022-11-17T10:28:39Z</time>
      </trkpt>
      <trkpt lat="44.69153" lon="5.1965">
        <ele>324</ele>
        <time>2022-11-17T10:28:39Z</time>
      </trkpt>
      <trkpt lat="44.69161" lon="5.19678">
        <ele>322</ele>
        <time>2022-11-17T10:28:39Z</time>
      </trkpt>
      <trkpt lat="44.69181" lon="5.19639">
        <ele>319</ele>
        <time>2022-11-17T10:28:39Z</time>
      </trkpt>
      <trkpt lat="44.69212" lon="5.19625">
        <ele>315</ele>
        <time>2022-11-17T10:28:39Z</time>
      </trkpt>
      <trkpt lat="44.69411" lon="5.19624">
        <ele>306</ele>
        <time>2022-11-17T10:28:39Z</time>
      </trkpt>
      <trkpt lat="44.6945" lon="5.19702">
        <ele>298</ele>
        <time>2022-11-17T10:28:39Z</time>
      </trkpt>
      <trkpt lat="44.69478" lon="5.19856">
        <ele>292</ele>
        <time>2022-11-17T10:28:39Z</time>
      </trkpt>
      <trkpt lat="44.69479" lon="5.199">
        <ele>288</ele>
        <time>2022-11-17T10:28:39Z</time>
      </trkpt>
      <trkpt lat="44.69459" lon="5.19902">
        <ele>287</ele>
        <time>2022-11-17T10:28:39Z</time>
      </trkpt>
      <trkpt lat="44.69467" lon="5.1991">
        <ele>285</ele>
        <time>2022-11-17T10:28:39Z</time>
      </trkpt>
      <trkpt lat="44.69473" lon="5.19924">
        <ele>284</ele>
        <time>2022-11-17T10:28:39Z</time>
      </trkpt>
      <trkpt lat="44.69475" lon="5.19957">
        <ele>283</ele>
        <time>2022-11-17T10:28:39Z</time>
      </trkpt>
      <trkpt lat="44.69477" lon="5.19969">
        <ele>282</ele>
        <time>2022-11-17T10:28:39Z</time>
      </trkpt>
      <trkpt lat="44.6949" lon="5.19994">
        <ele>281</ele>
        <time>2022-11-17T10:28:39Z</time>
      </trkpt>
      <trkpt lat="44.695" lon="5.20007">
        <ele>280</ele>
        <time>2022-11-17T10:28:39Z</time>
      </trkpt>
      <trkpt lat="44.69512" lon="5.19897">
        <ele>277</ele>
        <time>2022-11-17T10:28:39Z</time>
      </trkpt>
      <trkpt lat="44.6951" lon="5.19738">
        <ele>273</ele>
        <time>2022-11-17T10:28:39Z</time>
      </trkpt>
      <trkpt lat="44.69519" lon="5.19715">
        <ele>270</ele>
        <time>2022-11-17T10:28:39Z</time>
      </trkpt>
      <trkpt lat="44.69649" lon="5.1971">
        <ele>268</ele>
        <time>2022-11-17T10:28:39Z</time>
      </trkpt>
      <trkpt lat="44.69654" lon="5.19726">
        <ele>267</ele>
        <time>2022-11-17T10:28:39Z</time>
      </trkpt>
      <trkpt lat="44.69663" lon="5.19726">
        <ele>267</ele>
        <time>2022-11-17T10:28:39Z</time>
      </trkpt>
      <trkpt lat="44.69676" lon="5.19864">
        <ele>267</ele>
        <time>2022-11-17T10:28:39Z</time>
      </trkpt>
      <trkpt lat="44.69675" lon="5.19878">
        <ele>268</ele>
        <time>2022-11-17T10:28:39Z</time>
      </trkpt>
      <trkpt lat="44.69684" lon="5.19882">
        <ele>268</ele>
        <time>2022-11-17T10:28:39Z</time>
      </trkpt>
      <trkpt lat="44.69692" lon="5.19891">
        <ele>268</ele>
        <time>2022-11-17T10:28:39Z</time>
      </trkpt>
      <trkpt lat="44.69688" lon="5.19968">
        <ele>268</ele>
        <time>2022-11-17T10:28:39Z</time>
      </trkpt>
    </trkseg>
  </trk>
  <trk>
    <name><![CDATA[VTT N°9 noir - chapelle Saint Moirans - 29 km - Déniv 910 m]]></name>
    <extensions>
      <line xmlns="http://www.topografix.com/GPX/gpx_style/0/2">
        <color>000000</color>
        <width>4</width>
      </line>
    </extensions>
    <trkseg>
      <trkpt lat="44.69684" lon="5.19997">
        <ele>267</ele>
        <time>2022-11-18T09:23:53Z</time>
        <extensions>
          <visugpx:TrkExtension xmlns:visugpx="https://www.visugpx.com/editgpx/">
            <visugpx:node>1</visugpx:node>
            </visugpx:TrkExtension>
        </extensions>
      </trkpt>
      <trkpt lat="44.69673" lon="5.20155">
        <ele>266</ele>
        <time>2022-11-18T09:23:53Z</time>
      </trkpt>
      <trkpt lat="44.69678" lon="5.20227">
        <ele>267</ele>
        <time>2022-11-18T09:23:53Z</time>
      </trkpt>
      <trkpt lat="44.69681" lon="5.20269">
        <ele>271</ele>
        <time>2022-11-18T09:23:53Z</time>
      </trkpt>
      <trkpt lat="44.69674" lon="5.203">
        <ele>270</ele>
        <time>2022-11-18T09:23:53Z</time>
      </trkpt>
      <trkpt lat="44.69657" lon="5.20349">
        <ele>276</ele>
        <time>2022-11-18T09:23:53Z</time>
      </trkpt>
      <trkpt lat="44.69631" lon="5.20398">
        <ele>279</ele>
        <time>2022-11-18T09:23:53Z</time>
      </trkpt>
      <trkpt lat="44.69601" lon="5.20428">
        <ele>281</ele>
        <time>2022-11-18T09:23:53Z</time>
      </trkpt>
      <trkpt lat="44.69553" lon="5.20445">
        <ele>280</ele>
        <time>2022-11-18T09:23:53Z</time>
      </trkpt>
      <trkpt lat="44.69505" lon="5.20465">
        <ele>277</ele>
        <time>2022-11-18T09:23:53Z</time>
      </trkpt>
      <trkpt lat="44.69455" lon="5.205">
        <ele>279</ele>
        <time>2022-11-18T09:23:53Z</time>
      </trkpt>
      <trkpt lat="44.69409" lon="5.20526">
        <ele>283</ele>
        <time>2022-11-18T09:23:53Z</time>
      </trkpt>
      <trkpt lat="44.69317" lon="5.20531">
        <ele>280</ele>
        <time>2022-11-18T09:23:53Z</time>
      </trkpt>
      <trkpt lat="44.69308" lon="5.20514">
        <ele>275</ele>
        <time>2022-11-18T09:23:53Z</time>
      </trkpt>
      <trkpt lat="44.69298" lon="5.20485">
        <ele>269</ele>
        <time>2022-11-18T09:23:53Z</time>
      </trkpt>
      <trkpt lat="44.6931" lon="5.20451">
        <ele>262</ele>
        <time>2022-11-18T09:23:53Z</time>
      </trkpt>
      <trkpt lat="44.6941" lon="5.20233">
        <ele>272</ele>
        <time>2022-11-18T09:23:53Z</time>
      </trkpt>
      <trkpt lat="44.69482" lon="5.20072">
        <ele>268</ele>
        <time>2022-11-18T09:23:53Z</time>
      </trkpt>
      <trkpt lat="44.69497" lon="5.20082">
        <ele>266</ele>
        <time>2022-11-18T09:23:53Z</time>
      </trkpt>
      <trkpt lat="44.69511" lon="5.20074">
        <ele>265</ele>
        <time>2022-11-18T09:23:53Z</time>
      </trkpt>
      <trkpt lat="44.69516" lon="5.20058">
        <ele>264</ele>
        <time>2022-11-18T09:23:53Z</time>
      </trkpt>
      <trkpt lat="44.69505" lon="5.20026">
        <ele>265</ele>
        <time>2022-11-18T09:23:53Z</time>
      </trkpt>
      <trkpt lat="44.69477" lon="5.19981">
        <ele>271</ele>
        <time>2022-11-18T09:23:53Z</time>
      </trkpt>
      <trkpt lat="44.69436" lon="5.19906">
        <ele>285</ele>
        <time>2022-11-18T09:23:53Z</time>
      </trkpt>
      <trkpt lat="44.69406" lon="5.19882">
        <ele>289</ele>
        <time>2022-11-18T09:23:53Z</time>
      </trkpt>
      <trkpt lat="44.69361" lon="5.19864">
        <ele>293</ele>
        <time>2022-11-18T09:23:53Z</time>
      </trkpt>
      <trkpt lat="44.693" lon="5.19858">
        <ele>297</ele>
        <time>2022-11-18T09:23:53Z</time>
      </trkpt>
      <trkpt lat="44.69199" lon="5.19856">
        <ele>306</ele>
        <time>2022-11-18T09:23:53Z</time>
      </trkpt>
      <trkpt lat="44.69155" lon="5.19844">
        <ele>309</ele>
        <time>2022-11-18T09:23:53Z</time>
      </trkpt>
      <trkpt lat="44.69042" lon="5.19832">
        <ele>311</ele>
        <time>2022-11-18T09:23:53Z</time>
      </trkpt>
      <trkpt lat="44.69009" lon="5.19812">
        <ele>313</ele>
        <time>2022-11-18T09:23:53Z</time>
      </trkpt>
      <trkpt lat="44.68998" lon="5.19811">
        <ele>313</ele>
        <time>2022-11-18T09:23:53Z</time>
      </trkpt>
      <trkpt lat="44.6898" lon="5.19804">
        <ele>314</ele>
        <time>2022-11-18T09:23:53Z</time>
      </trkpt>
      <trkpt lat="44.68937" lon="5.19808">
        <ele>311</ele>
        <time>2022-11-18T09:23:53Z</time>
      </trkpt>
      <trkpt lat="44.68819" lon="5.19789">
        <ele>312</ele>
        <time>2022-11-18T09:23:53Z</time>
      </trkpt>
      <trkpt lat="44.68738" lon="5.19757">
        <ele>315</ele>
        <time>2022-11-18T09:23:53Z</time>
      </trkpt>
      <trkpt lat="44.68634" lon="5.19717">
        <ele>319</ele>
        <time>2022-11-18T09:23:53Z</time>
      </trkpt>
      <trkpt lat="44.68464" lon="5.19676">
        <ele>323</ele>
        <time>2022-11-18T09:23:53Z</time>
      </trkpt>
      <trkpt lat="44.68339" lon="5.19632">
        <ele>334</ele>
        <time>2022-11-18T09:23:53Z</time>
      </trkpt>
      <trkpt lat="44.68274" lon="5.19619">
        <ele>338</ele>
        <time>2022-11-18T09:23:53Z</time>
      </trkpt>
      <trkpt lat="44.68207" lon="5.19597">
        <ele>341</ele>
        <time>2022-11-18T09:23:53Z</time>
      </trkpt>
      <trkpt lat="44.6793" lon="5.19441">
        <ele>340</ele>
        <time>2022-11-18T09:23:53Z</time>
      </trkpt>
      <trkpt lat="44.67907" lon="5.1944">
        <ele>341</ele>
        <time>2022-11-18T09:23:53Z</time>
      </trkpt>
      <trkpt lat="44.67864" lon="5.19453">
        <ele>345</ele>
        <time>2022-11-18T09:23:53Z</time>
      </trkpt>
      <trkpt lat="44.67764" lon="5.19493">
        <ele>353</ele>
        <time>2022-11-18T09:23:53Z</time>
      </trkpt>
      <trkpt lat="44.6771" lon="5.19512">
        <ele>350</ele>
        <time>2022-11-18T09:23:53Z</time>
      </trkpt>
      <trkpt lat="44.6766" lon="5.19516">
        <ele>352</ele>
        <time>2022-11-18T09:23:53Z</time>
      </trkpt>
      <trkpt lat="44.67595" lon="5.19512">
        <ele>366</ele>
        <time>2022-11-18T09:23:53Z</time>
      </trkpt>
      <trkpt lat="44.67577" lon="5.19518">
        <ele>368</ele>
        <time>2022-11-18T09:23:53Z</time>
      </trkpt>
      <trkpt lat="44.67565" lon="5.19533">
        <ele>365</ele>
        <time>2022-11-18T09:23:53Z</time>
      </trkpt>
      <trkpt lat="44.67541" lon="5.19592">
        <ele>366</ele>
        <time>2022-11-18T09:23:53Z</time>
      </trkpt>
      <trkpt lat="44.67509" lon="5.19615">
        <ele>371</ele>
        <time>2022-11-18T09:23:53Z</time>
      </trkpt>
      <trkpt lat="44.67475" lon="5.19629">
        <ele>369</ele>
        <time>2022-11-18T09:23:53Z</time>
      </trkpt>
      <trkpt lat="44.67423" lon="5.1963">
        <ele>369</ele>
        <time>2022-11-18T09:23:53Z</time>
      </trkpt>
      <trkpt lat="44.67398" lon="5.19644">
        <ele>366</ele>
        <time>2022-11-18T09:23:53Z</time>
      </trkpt>
      <trkpt lat="44.67386" lon="5.19675">
        <ele>368</ele>
        <time>2022-11-18T09:23:53Z</time>
      </trkpt>
      <trkpt lat="44.67354" lon="5.19771">
        <ele>377</ele>
        <time>2022-11-18T09:23:53Z</time>
      </trkpt>
      <trkpt lat="44.67353" lon="5.19818">
        <ele>373</ele>
        <time>2022-11-18T09:23:53Z</time>
      </trkpt>
      <trkpt lat="44.67259" lon="5.19899">
        <ele>373</ele>
        <time>2022-11-18T09:23:53Z</time>
      </trkpt>
      <trkpt lat="44.67213" lon="5.19934">
        <ele>385</ele>
        <time>2022-11-18T09:23:53Z</time>
      </trkpt>
      <trkpt lat="44.67172" lon="5.19964">
        <ele>388</ele>
        <time>2022-11-18T09:23:53Z</time>
      </trkpt>
      <trkpt lat="44.67146" lon="5.19978">
        <ele>391</ele>
        <time>2022-11-18T09:23:53Z</time>
      </trkpt>
      <trkpt lat="44.67093" lon="5.20032">
        <ele>394</ele>
        <time>2022-11-18T09:23:53Z</time>
      </trkpt>
      <trkpt lat="44.67083" lon="5.20066">
        <ele>394</ele>
        <time>2022-11-18T09:23:53Z</time>
      </trkpt>
      <trkpt lat="44.67064" lon="5.20103">
        <ele>394</ele>
        <time>2022-11-18T09:23:53Z</time>
      </trkpt>
      <trkpt lat="44.67033" lon="5.20117">
        <ele>397</ele>
        <time>2022-11-18T09:23:53Z</time>
      </trkpt>
      <trkpt lat="44.66998" lon="5.20153">
        <ele>398</ele>
        <time>2022-11-18T09:23:53Z</time>
      </trkpt>
      <trkpt lat="44.66976" lon="5.20206">
        <ele>396</ele>
        <time>2022-11-18T09:23:53Z</time>
      </trkpt>
      <trkpt lat="44.66944" lon="5.20242">
        <ele>400</ele>
        <time>2022-11-18T09:23:53Z</time>
      </trkpt>
      <trkpt lat="44.66909" lon="5.20275">
        <ele>403</ele>
        <time>2022-11-18T09:23:53Z</time>
      </trkpt>
      <trkpt lat="44.66869" lon="5.20339">
        <ele>407</ele>
        <time>2022-11-18T09:23:53Z</time>
      </trkpt>
      <trkpt lat="44.66825" lon="5.20397">
        <ele>419</ele>
        <time>2022-11-18T09:23:53Z</time>
      </trkpt>
      <trkpt lat="44.6677" lon="5.20435">
        <ele>421</ele>
        <time>2022-11-18T09:23:53Z</time>
      </trkpt>
      <trkpt lat="44.66692" lon="5.20494">
        <ele>427</ele>
        <time>2022-11-18T09:23:53Z</time>
      </trkpt>
      <trkpt lat="44.66621" lon="5.20541">
        <ele>436</ele>
        <time>2022-11-18T09:23:53Z</time>
      </trkpt>
      <trkpt lat="44.66584" lon="5.20668">
        <ele>436</ele>
        <time>2022-11-18T09:23:53Z</time>
      </trkpt>
      <trkpt lat="44.66575" lon="5.20762">
        <ele>435</ele>
        <time>2022-11-18T09:23:53Z</time>
      </trkpt>
      <trkpt lat="44.66556" lon="5.20806">
        <ele>444</ele>
        <time>2022-11-18T09:23:53Z</time>
      </trkpt>
      <trkpt lat="44.66538" lon="5.20861">
        <ele>452</ele>
        <time>2022-11-18T09:23:53Z</time>
      </trkpt>
      <trkpt lat="44.66513" lon="5.20989">
        <ele>454</ele>
        <time>2022-11-18T09:23:53Z</time>
      </trkpt>
      <trkpt lat="44.66479" lon="5.21051">
        <ele>458</ele>
        <time>2022-11-18T09:23:53Z</time>
      </trkpt>
      <trkpt lat="44.66451" lon="5.21103">
        <ele>465</ele>
        <time>2022-11-18T09:23:53Z</time>
      </trkpt>
      <trkpt lat="44.66431" lon="5.21168">
        <ele>467</ele>
        <time>2022-11-18T09:23:53Z</time>
      </trkpt>
      <trkpt lat="44.6642" lon="5.21177">
        <ele>466</ele>
        <time>2022-11-18T09:23:53Z</time>
      </trkpt>
      <trkpt lat="44.66381" lon="5.21184">
        <ele>468</ele>
        <time>2022-11-18T09:23:53Z</time>
      </trkpt>
      <trkpt lat="44.66367" lon="5.21215">
        <ele>468</ele>
        <time>2022-11-18T09:23:53Z</time>
      </trkpt>
      <trkpt lat="44.66356" lon="5.21221">
        <ele>469</ele>
        <time>2022-11-18T09:23:53Z</time>
      </trkpt>
      <trkpt lat="44.6635" lon="5.21202">
        <ele>471</ele>
        <time>2022-11-18T09:23:53Z</time>
      </trkpt>
      <trkpt lat="44.66344" lon="5.21173">
        <ele>475</ele>
        <time>2022-11-18T09:23:53Z</time>
      </trkpt>
      <trkpt lat="44.66328" lon="5.21175">
        <ele>478</ele>
        <time>2022-11-18T09:23:53Z</time>
      </trkpt>
      <trkpt lat="44.66298" lon="5.21212">
        <ele>483</ele>
        <time>2022-11-18T09:23:53Z</time>
      </trkpt>
      <trkpt lat="44.66252" lon="5.2125">
        <ele>489</ele>
        <time>2022-11-18T09:23:53Z</time>
      </trkpt>
      <trkpt lat="44.66225" lon="5.21306">
        <ele>485</ele>
        <time>2022-11-18T09:23:53Z</time>
      </trkpt>
      <trkpt lat="44.66208" lon="5.21349">
        <ele>487</ele>
        <time>2022-11-18T09:23:53Z</time>
      </trkpt>
      <trkpt lat="44.66196" lon="5.21465">
        <ele>487</ele>
        <time>2022-11-18T09:23:53Z</time>
      </trkpt>
      <trkpt lat="44.66195" lon="5.21512">
        <ele>485</ele>
        <time>2022-11-18T09:23:53Z</time>
      </trkpt>
      <trkpt lat="44.66174" lon="5.21552">
        <ele>486</ele>
        <time>2022-11-18T09:23:53Z</time>
      </trkpt>
      <trkpt lat="44.66159" lon="5.21589">
        <ele>488</ele>
        <time>2022-11-18T09:23:53Z</time>
      </trkpt>
      <trkpt lat="44.66181" lon="5.21625">
        <ele>483</ele>
        <time>2022-11-18T09:23:53Z</time>
      </trkpt>
      <trkpt lat="44.66177" lon="5.21704">
        <ele>485</ele>
        <time>2022-11-18T09:23:53Z</time>
      </trkpt>
      <trkpt lat="44.66162" lon="5.21756">
        <ele>489</ele>
        <time>2022-11-18T09:23:53Z</time>
      </trkpt>
      <trkpt lat="44.66152" lon="5.21803">
        <ele>494</ele>
        <time>2022-11-18T09:23:53Z</time>
      </trkpt>
      <trkpt lat="44.66143" lon="5.21863">
        <ele>498</ele>
        <time>2022-11-18T09:23:53Z</time>
      </trkpt>
      <trkpt lat="44.66144" lon="5.21913">
        <ele>501</ele>
        <time>2022-11-18T09:23:53Z</time>
      </trkpt>
      <trkpt lat="44.66132" lon="5.21941">
        <ele>503</ele>
        <time>2022-11-18T09:23:53Z</time>
      </trkpt>
      <trkpt lat="44.66116" lon="5.21965">
        <ele>506</ele>
        <time>2022-11-18T09:23:53Z</time>
      </trkpt>
      <trkpt lat="44.66079" lon="5.21992">
        <ele>511</ele>
        <time>2022-11-18T09:23:53Z</time>
      </trkpt>
      <trkpt lat="44.65938" lon="5.2224">
        <ele>516</ele>
        <time>2022-11-18T09:23:53Z</time>
      </trkpt>
      <trkpt lat="44.65884" lon="5.22306">
        <ele>517</ele>
        <time>2022-11-18T09:23:53Z</time>
      </trkpt>
      <trkpt lat="44.65829" lon="5.22348">
        <ele>517</ele>
        <time>2022-11-18T09:23:53Z</time>
      </trkpt>
      <trkpt lat="44.65793" lon="5.22355">
        <ele>518</ele>
        <time>2022-11-18T09:23:53Z</time>
      </trkpt>
      <trkpt lat="44.65763" lon="5.22369">
        <ele>520</ele>
        <time>2022-11-18T09:23:53Z</time>
      </trkpt>
      <trkpt lat="44.65733" lon="5.22399">
        <ele>516</ele>
        <time>2022-11-18T09:23:53Z</time>
      </trkpt>
      <trkpt lat="44.65713" lon="5.22411">
        <ele>519</ele>
        <time>2022-11-18T09:23:53Z</time>
      </trkpt>
      <trkpt lat="44.65689" lon="5.22448">
        <ele>522</ele>
        <time>2022-11-18T09:23:53Z</time>
      </trkpt>
      <trkpt lat="44.65671" lon="5.22462">
        <ele>523</ele>
        <time>2022-11-18T09:23:53Z</time>
      </trkpt>
      <trkpt lat="44.6565" lon="5.22477">
        <ele>526</ele>
        <time>2022-11-18T09:23:53Z</time>
      </trkpt>
      <trkpt lat="44.6563" lon="5.22482">
        <ele>530</ele>
        <time>2022-11-18T09:23:53Z</time>
      </trkpt>
      <trkpt lat="44.65621" lon="5.22482">
        <ele>531</ele>
        <time>2022-11-18T09:23:53Z</time>
      </trkpt>
      <trkpt lat="44.65603" lon="5.22481">
        <ele>535</ele>
        <time>2022-11-18T09:23:53Z</time>
      </trkpt>
      <trkpt lat="44.65587" lon="5.22499">
        <ele>540</ele>
        <time>2022-11-18T09:23:53Z</time>
      </trkpt>
      <trkpt lat="44.65567" lon="5.22574">
        <ele>544</ele>
        <time>2022-11-18T09:23:53Z</time>
      </trkpt>
      <trkpt lat="44.65548" lon="5.22614">
        <ele>545</ele>
        <time>2022-11-18T09:23:53Z</time>
      </trkpt>
      <trkpt lat="44.65531" lon="5.22635">
        <ele>547</ele>
        <time>2022-11-18T09:23:53Z</time>
      </trkpt>
      <trkpt lat="44.65518" lon="5.22641">
        <ele>550</ele>
        <time>2022-11-18T09:23:53Z</time>
      </trkpt>
      <trkpt lat="44.65507" lon="5.22634">
        <ele>554</ele>
        <time>2022-11-18T09:23:53Z</time>
      </trkpt>
      <trkpt lat="44.65507" lon="5.22612">
        <ele>557</ele>
        <time>2022-11-18T09:23:53Z</time>
      </trkpt>
      <trkpt lat="44.6552" lon="5.22565">
        <ele>558</ele>
        <time>2022-11-18T09:23:53Z</time>
      </trkpt>
      <trkpt lat="44.65516" lon="5.2253">
        <ele>558</ele>
        <time>2022-11-18T09:23:53Z</time>
      </trkpt>
      <trkpt lat="44.6551" lon="5.2252">
        <ele>559</ele>
        <time>2022-11-18T09:23:53Z</time>
      </trkpt>
      <trkpt lat="44.65496" lon="5.22526">
        <ele>560</ele>
        <time>2022-11-18T09:23:53Z</time>
      </trkpt>
      <trkpt lat="44.65471" lon="5.22531">
        <ele>564</ele>
        <time>2022-11-18T09:23:53Z</time>
      </trkpt>
      <trkpt lat="44.65443" lon="5.22555">
        <ele>572</ele>
        <time>2022-11-18T09:23:53Z</time>
      </trkpt>
      <trkpt lat="44.65429" lon="5.22579">
        <ele>579</ele>
        <time>2022-11-18T09:23:53Z</time>
      </trkpt>
      <trkpt lat="44.65417" lon="5.22604">
        <ele>585</ele>
        <time>2022-11-18T09:23:53Z</time>
      </trkpt>
      <trkpt lat="44.65397" lon="5.2259">
        <ele>591</ele>
        <time>2022-11-18T09:23:53Z</time>
      </trkpt>
      <trkpt lat="44.65394" lon="5.2254">
        <ele>585</ele>
        <time>2022-11-18T09:23:53Z</time>
      </trkpt>
      <trkpt lat="44.65395" lon="5.22527">
        <ele>582</ele>
        <time>2022-11-18T09:23:53Z</time>
      </trkpt>
      <trkpt lat="44.65395" lon="5.22502">
        <ele>576</ele>
        <time>2022-11-18T09:23:53Z</time>
      </trkpt>
      <trkpt lat="44.6538" lon="5.22501">
        <ele>580</ele>
        <time>2022-11-18T09:23:53Z</time>
      </trkpt>
      <trkpt lat="44.65368" lon="5.22504">
        <ele>582</ele>
        <time>2022-11-18T09:23:53Z</time>
      </trkpt>
      <trkpt lat="44.65343" lon="5.22518">
        <ele>589</ele>
        <time>2022-11-18T09:23:53Z</time>
      </trkpt>
      <trkpt lat="44.65317" lon="5.22551">
        <ele>600</ele>
        <time>2022-11-18T09:23:53Z</time>
      </trkpt>
      <trkpt lat="44.65299" lon="5.2255">
        <ele>601</ele>
        <time>2022-11-18T09:23:53Z</time>
      </trkpt>
      <trkpt lat="44.65278" lon="5.22515">
        <ele>600</ele>
        <time>2022-11-18T09:23:53Z</time>
      </trkpt>
      <trkpt lat="44.65269" lon="5.22508">
        <ele>601</ele>
        <time>2022-11-18T09:23:53Z</time>
      </trkpt>
      <trkpt lat="44.65203" lon="5.22523">
        <ele>606</ele>
        <time>2022-11-18T09:23:53Z</time>
      </trkpt>
      <trkpt lat="44.6518" lon="5.2256">
        <ele>607</ele>
        <time>2022-11-18T09:23:53Z</time>
      </trkpt>
      <trkpt lat="44.65156" lon="5.22625">
        <ele>623</ele>
        <time>2022-11-18T09:23:53Z</time>
      </trkpt>
      <trkpt lat="44.65124" lon="5.22642">
        <ele>632</ele>
        <time>2022-11-18T09:23:53Z</time>
      </trkpt>
      <trkpt lat="44.65108" lon="5.22642">
        <ele>635</ele>
        <time>2022-11-18T09:23:53Z</time>
      </trkpt>
      <trkpt lat="44.65093" lon="5.22634">
        <ele>640</ele>
        <time>2022-11-18T09:23:53Z</time>
      </trkpt>
      <trkpt lat="44.65093" lon="5.22606">
        <ele>633</ele>
        <time>2022-11-18T09:23:53Z</time>
      </trkpt>
      <trkpt lat="44.65092" lon="5.22581">
        <ele>628</ele>
        <time>2022-11-18T09:23:53Z</time>
      </trkpt>
      <trkpt lat="44.65076" lon="5.2258">
        <ele>634</ele>
        <time>2022-11-18T09:23:53Z</time>
      </trkpt>
      <trkpt lat="44.65058" lon="5.22566">
        <ele>639</ele>
        <time>2022-11-18T09:23:53Z</time>
      </trkpt>
      <trkpt lat="44.65043" lon="5.22553">
        <ele>644</ele>
        <time>2022-11-18T09:23:53Z</time>
      </trkpt>
      <trkpt lat="44.65037" lon="5.22534">
        <ele>644</ele>
        <time>2022-11-18T09:23:53Z</time>
      </trkpt>
      <trkpt lat="44.65033" lon="5.22518">
        <ele>642</ele>
        <time>2022-11-18T09:23:53Z</time>
      </trkpt>
      <trkpt lat="44.65019" lon="5.22508">
        <ele>647</ele>
        <time>2022-11-18T09:23:53Z</time>
      </trkpt>
      <trkpt lat="44.64991" lon="5.22487">
        <ele>655</ele>
        <time>2022-11-18T09:23:53Z</time>
      </trkpt>
      <trkpt lat="44.64973" lon="5.22458">
        <ele>652</ele>
        <time>2022-11-18T09:23:53Z</time>
      </trkpt>
      <trkpt lat="44.64962" lon="5.22457">
        <ele>654</ele>
        <time>2022-11-18T09:23:53Z</time>
      </trkpt>
      <trkpt lat="44.64968" lon="5.22477">
        <ele>659</ele>
        <time>2022-11-18T09:23:53Z</time>
      </trkpt>
      <trkpt lat="44.64988" lon="5.22522">
        <ele>665</ele>
        <time>2022-11-18T09:23:53Z</time>
      </trkpt>
      <trkpt lat="44.65" lon="5.22576">
        <ele>671</ele>
        <time>2022-11-18T09:23:53Z</time>
      </trkpt>
      <trkpt lat="44.65018" lon="5.22627">
        <ele>673</ele>
        <time>2022-11-18T09:23:53Z</time>
      </trkpt>
      <trkpt lat="44.65022" lon="5.22675">
        <ele>678</ele>
        <time>2022-11-18T09:23:53Z</time>
      </trkpt>
      <trkpt lat="44.65016" lon="5.22719">
        <ele>688</ele>
        <time>2022-11-18T09:23:53Z</time>
      </trkpt>
      <trkpt lat="44.65035" lon="5.22767">
        <ele>689</ele>
        <time>2022-11-18T09:23:53Z</time>
      </trkpt>
      <trkpt lat="44.65043" lon="5.22805">
        <ele>695</ele>
        <time>2022-11-18T09:23:53Z</time>
      </trkpt>
      <trkpt lat="44.65068" lon="5.22898">
        <ele>699</ele>
        <time>2022-11-18T09:23:53Z</time>
      </trkpt>
      <trkpt lat="44.65053" lon="5.22948">
        <ele>706</ele>
        <time>2022-11-18T09:23:53Z</time>
      </trkpt>
      <trkpt lat="44.65036" lon="5.22978">
        <ele>707</ele>
        <time>2022-11-18T09:23:53Z</time>
      </trkpt>
      <trkpt lat="44.65018" lon="5.23002">
        <ele>709</ele>
        <time>2022-11-18T09:23:53Z</time>
      </trkpt>
      <trkpt lat="44.64995" lon="5.2302">
        <ele>713</ele>
        <time>2022-11-18T09:23:53Z</time>
      </trkpt>
      <trkpt lat="44.64974" lon="5.23047">
        <ele>715</ele>
        <time>2022-11-18T09:23:53Z</time>
      </trkpt>
      <trkpt lat="44.6495" lon="5.23084">
        <ele>720</ele>
        <time>2022-11-18T09:23:53Z</time>
      </trkpt>
      <trkpt lat="44.64925" lon="5.23114">
        <ele>726</ele>
        <time>2022-11-18T09:23:53Z</time>
      </trkpt>
      <trkpt lat="44.64897" lon="5.23148">
        <ele>735</ele>
        <time>2022-11-18T09:23:53Z</time>
      </trkpt>
      <trkpt lat="44.64867" lon="5.23171">
        <ele>750</ele>
        <time>2022-11-18T09:23:53Z</time>
      </trkpt>
      <trkpt lat="44.64825" lon="5.23223">
        <ele>747</ele>
        <time>2022-11-18T09:23:53Z</time>
      </trkpt>
      <trkpt lat="44.64759" lon="5.23348">
        <ele>746</ele>
        <time>2022-11-18T09:23:53Z</time>
      </trkpt>
      <trkpt lat="44.64718" lon="5.23431">
        <ele>763</ele>
        <time>2022-11-18T09:23:53Z</time>
      </trkpt>
      <trkpt lat="44.64674" lon="5.23486">
        <ele>764</ele>
        <time>2022-11-18T09:23:53Z</time>
      </trkpt>
      <trkpt lat="44.64651" lon="5.23494">
        <ele>758</ele>
        <time>2022-11-18T09:23:53Z</time>
      </trkpt>
      <trkpt lat="44.64617" lon="5.23524">
        <ele>752</ele>
        <time>2022-11-18T09:23:53Z</time>
      </trkpt>
      <trkpt lat="44.64596" lon="5.23535">
        <ele>745</ele>
        <time>2022-11-18T09:23:53Z</time>
      </trkpt>
      <trkpt lat="44.64575" lon="5.23569">
        <ele>754</ele>
        <time>2022-11-18T09:23:53Z</time>
      </trkpt>
      <trkpt lat="44.64555" lon="5.23571">
        <ele>752</ele>
        <time>2022-11-18T09:23:53Z</time>
      </trkpt>
      <trkpt lat="44.6454" lon="5.23536">
        <ele>751</ele>
        <time>2022-11-18T09:23:53Z</time>
      </trkpt>
      <trkpt lat="44.6453" lon="5.23497">
        <ele>754</ele>
        <time>2022-11-18T09:23:53Z</time>
      </trkpt>
      <trkpt lat="44.64531" lon="5.23456">
        <ele>754</ele>
        <time>2022-11-18T09:23:53Z</time>
      </trkpt>
      <trkpt lat="44.64532" lon="5.23425">
        <ele>756</ele>
        <time>2022-11-18T09:23:53Z</time>
      </trkpt>
      <trkpt lat="44.64533" lon="5.23393">
        <ele>758</ele>
        <time>2022-11-18T09:23:53Z</time>
      </trkpt>
      <trkpt lat="44.64549" lon="5.23357">
        <ele>753</ele>
        <time>2022-11-18T09:23:53Z</time>
      </trkpt>
      <trkpt lat="44.6455" lon="5.23312">
        <ele>753</ele>
        <time>2022-11-18T09:23:53Z</time>
      </trkpt>
      <trkpt lat="44.64533" lon="5.23296">
        <ele>759</ele>
        <time>2022-11-18T09:23:53Z</time>
      </trkpt>
      <trkpt lat="44.64508" lon="5.23288">
        <ele>768</ele>
        <time>2022-11-18T09:23:53Z</time>
      </trkpt>
      <trkpt lat="44.64482" lon="5.23262">
        <ele>767</ele>
        <time>2022-11-18T09:23:53Z</time>
      </trkpt>
      <trkpt lat="44.64453" lon="5.23251">
        <ele>771</ele>
        <time>2022-11-18T09:23:53Z</time>
      </trkpt>
      <trkpt lat="44.64424" lon="5.2324">
        <ele>774</ele>
        <time>2022-11-18T09:23:53Z</time>
      </trkpt>
      <trkpt lat="44.64413" lon="5.23223">
        <ele>768</ele>
        <time>2022-11-18T09:23:53Z</time>
      </trkpt>
      <trkpt lat="44.64414" lon="5.23208">
        <ele>767</ele>
        <time>2022-11-18T09:23:53Z</time>
      </trkpt>
      <trkpt lat="44.64441" lon="5.23181">
        <ele>766</ele>
        <time>2022-11-18T09:23:53Z</time>
      </trkpt>
      <trkpt lat="44.64499" lon="5.23133">
        <ele>758</ele>
        <time>2022-11-18T09:23:53Z</time>
      </trkpt>
      <trkpt lat="44.64511" lon="5.23102">
        <ele>766</ele>
        <time>2022-11-18T09:23:53Z</time>
      </trkpt>
      <trkpt lat="44.64512" lon="5.23049">
        <ele>768</ele>
        <time>2022-11-18T09:23:53Z</time>
      </trkpt>
      <trkpt lat="44.64491" lon="5.23026">
        <ele>777</ele>
        <time>2022-11-18T09:23:53Z</time>
      </trkpt>
      <trkpt lat="44.64455" lon="5.22999">
        <ele>786</ele>
        <time>2022-11-18T09:23:53Z</time>
      </trkpt>
      <trkpt lat="44.64431" lon="5.22969">
        <ele>787</ele>
        <time>2022-11-18T09:23:53Z</time>
      </trkpt>
      <trkpt lat="44.64412" lon="5.22927">
        <ele>780</ele>
        <time>2022-11-18T09:23:53Z</time>
      </trkpt>
      <trkpt lat="44.64382" lon="5.22885">
        <ele>777</ele>
        <time>2022-11-18T09:23:53Z</time>
      </trkpt>
      <trkpt lat="44.64345" lon="5.22845">
        <ele>774</ele>
        <time>2022-11-18T09:23:53Z</time>
      </trkpt>
      <trkpt lat="44.64314" lon="5.22824">
        <ele>775</ele>
        <time>2022-11-18T09:23:53Z</time>
      </trkpt>
      <trkpt lat="44.64288" lon="5.22785">
        <ele>770</ele>
        <time>2022-11-18T09:23:53Z</time>
      </trkpt>
      <trkpt lat="44.64266" lon="5.22746">
        <ele>768</ele>
        <time>2022-11-18T09:23:53Z</time>
      </trkpt>
      <trkpt lat="44.6424" lon="5.22717">
        <ele>772</ele>
        <time>2022-11-18T09:23:53Z</time>
      </trkpt>
      <trkpt lat="44.64206" lon="5.22655">
        <ele>767</ele>
        <time>2022-11-18T09:23:53Z</time>
      </trkpt>
      <trkpt lat="44.64198" lon="5.22607">
        <ele>772</ele>
        <time>2022-11-18T09:23:53Z</time>
      </trkpt>
      <trkpt lat="44.64196" lon="5.22572">
        <ele>780</ele>
        <time>2022-11-18T09:23:53Z</time>
      </trkpt>
      <trkpt lat="44.64225" lon="5.2253">
        <ele>783</ele>
        <time>2022-11-18T09:23:53Z</time>
      </trkpt>
      <trkpt lat="44.64206" lon="5.22475">
        <ele>793</ele>
        <time>2022-11-18T09:23:53Z</time>
      </trkpt>
      <trkpt lat="44.64172" lon="5.22395">
        <ele>797</ele>
        <time>2022-11-18T09:23:53Z</time>
      </trkpt>
      <trkpt lat="44.64146" lon="5.22346">
        <ele>803</ele>
        <time>2022-11-18T09:23:53Z</time>
      </trkpt>
      <trkpt lat="44.6411" lon="5.22335">
        <ele>817</ele>
        <time>2022-11-18T09:23:53Z</time>
      </trkpt>
      <trkpt lat="44.64089" lon="5.22293">
        <ele>819</ele>
        <time>2022-11-18T09:23:53Z</time>
      </trkpt>
      <trkpt lat="44.64065" lon="5.22282">
        <ele>829</ele>
        <time>2022-11-18T09:23:53Z</time>
      </trkpt>
      <trkpt lat="44.64054" lon="5.22247">
        <ele>828</ele>
        <time>2022-11-18T09:23:53Z</time>
      </trkpt>
      <trkpt lat="44.64042" lon="5.22208">
        <ele>825</ele>
        <time>2022-11-18T09:23:53Z</time>
      </trkpt>
      <trkpt lat="44.64015" lon="5.22185">
        <ele>826</ele>
        <time>2022-11-18T09:23:53Z</time>
      </trkpt>
      <trkpt lat="44.63984" lon="5.22177">
        <ele>828</ele>
        <time>2022-11-18T09:23:53Z</time>
      </trkpt>
      <trkpt lat="44.63964" lon="5.22179">
        <ele>831</ele>
        <time>2022-11-18T09:23:53Z</time>
      </trkpt>
      <trkpt lat="44.63946" lon="5.22159">
        <ele>827</ele>
        <time>2022-11-18T09:23:53Z</time>
      </trkpt>
      <trkpt lat="44.63929" lon="5.22143">
        <ele>829</ele>
        <time>2022-11-18T09:23:53Z</time>
      </trkpt>
      <trkpt lat="44.63923" lon="5.22101">
        <ele>827</ele>
        <time>2022-11-18T09:23:53Z</time>
      </trkpt>
      <trkpt lat="44.63927" lon="5.22051">
        <ele>828</ele>
        <time>2022-11-18T09:23:53Z</time>
      </trkpt>
      <trkpt lat="44.63917" lon="5.21988">
        <ele>832</ele>
        <time>2022-11-18T09:23:53Z</time>
      </trkpt>
      <trkpt lat="44.63885" lon="5.21929">
        <ele>839</ele>
        <time>2022-11-18T09:23:53Z</time>
      </trkpt>
      <trkpt lat="44.63752" lon="5.21765">
        <ele>845</ele>
        <time>2022-11-18T09:23:53Z</time>
      </trkpt>
      <trkpt lat="44.63714" lon="5.21735">
        <ele>848</ele>
        <time>2022-11-18T09:23:53Z</time>
      </trkpt>
      <trkpt lat="44.63664" lon="5.21694">
        <ele>851</ele>
        <time>2022-11-18T09:23:53Z</time>
      </trkpt>
      <trkpt lat="44.63628" lon="5.21674">
        <ele>855</ele>
        <time>2022-11-18T09:23:53Z</time>
      </trkpt>
      <trkpt lat="44.63586" lon="5.21662">
        <ele>861</ele>
        <time>2022-11-18T09:23:53Z</time>
      </trkpt>
      <trkpt lat="44.63532" lon="5.2164">
        <ele>865</ele>
        <time>2022-11-18T09:23:53Z</time>
      </trkpt>
      <trkpt lat="44.63401" lon="5.21602">
        <ele>870</ele>
        <time>2022-11-18T09:23:53Z</time>
      </trkpt>
      <trkpt lat="44.63368" lon="5.21575">
        <ele>869</ele>
        <time>2022-11-18T09:23:53Z</time>
      </trkpt>
      <trkpt lat="44.63317" lon="5.21528">
        <ele>865</ele>
        <time>2022-11-18T09:23:53Z</time>
      </trkpt>
      <trkpt lat="44.63228" lon="5.2159">
        <ele>882</ele>
        <time>2022-11-18T09:23:53Z</time>
      </trkpt>
      <trkpt lat="44.6324" lon="5.21622">
        <ele>887</ele>
        <time>2022-11-18T09:23:53Z</time>
      </trkpt>
      <trkpt lat="44.63233" lon="5.21647">
        <ele>889</ele>
        <time>2022-11-18T09:23:53Z</time>
      </trkpt>
      <trkpt lat="44.63222" lon="5.21713">
        <ele>893</ele>
        <time>2022-11-18T09:23:53Z</time>
      </trkpt>
      <trkpt lat="44.63238" lon="5.21732">
        <ele>897</ele>
        <time>2022-11-18T09:23:53Z</time>
      </trkpt>
      <trkpt lat="44.63221" lon="5.21772">
        <ele>897</ele>
        <time>2022-11-18T09:23:53Z</time>
      </trkpt>
      <trkpt lat="44.63202" lon="5.218">
        <ele>895</ele>
        <time>2022-11-18T09:23:53Z</time>
      </trkpt>
      <trkpt lat="44.63186" lon="5.21824">
        <ele>890</ele>
        <time>2022-11-18T09:23:53Z</time>
      </trkpt>
      <trkpt lat="44.6319" lon="5.2184">
        <ele>893</ele>
        <time>2022-11-18T09:23:53Z</time>
      </trkpt>
      <trkpt lat="44.63244" lon="5.21833">
        <ele>911</ele>
        <time>2022-11-18T09:23:53Z</time>
      </trkpt>
      <trkpt lat="44.63291" lon="5.21826">
        <ele>916</ele>
        <time>2022-11-18T09:23:53Z</time>
      </trkpt>
      <trkpt lat="44.63344" lon="5.21864">
        <ele>922</ele>
        <time>2022-11-18T09:23:53Z</time>
      </trkpt>
      <trkpt lat="44.63357" lon="5.21883">
        <ele>924</ele>
        <time>2022-11-18T09:23:53Z</time>
      </trkpt>
      <trkpt lat="44.63378" lon="5.21941">
        <ele>933</ele>
        <time>2022-11-18T09:23:53Z</time>
      </trkpt>
      <trkpt lat="44.63411" lon="5.21977">
        <ele>935</ele>
        <time>2022-11-18T09:23:53Z</time>
      </trkpt>
      <trkpt lat="44.63462" lon="5.22005">
        <ele>932</ele>
        <time>2022-11-18T09:23:53Z</time>
      </trkpt>
      <trkpt lat="44.63488" lon="5.22038">
        <ele>934</ele>
        <time>2022-11-18T09:23:53Z</time>
      </trkpt>
      <trkpt lat="44.63529" lon="5.22113">
        <ele>947</ele>
        <time>2022-11-18T09:23:53Z</time>
      </trkpt>
      <trkpt lat="44.63567" lon="5.2214">
        <ele>946</ele>
        <time>2022-11-18T09:23:53Z</time>
      </trkpt>
      <trkpt lat="44.63608" lon="5.22208">
        <ele>952</ele>
        <time>2022-11-18T09:23:53Z</time>
      </trkpt>
      <trkpt lat="44.63645" lon="5.22235">
        <ele>948</ele>
        <time>2022-11-18T09:23:53Z</time>
      </trkpt>
      <trkpt lat="44.63663" lon="5.22239">
        <ele>944</ele>
        <time>2022-11-18T09:23:53Z</time>
      </trkpt>
      <trkpt lat="44.63681" lon="5.22306">
        <ele>945</ele>
        <time>2022-11-18T09:23:53Z</time>
      </trkpt>
      <trkpt lat="44.63684" lon="5.22363">
        <ele>952</ele>
        <time>2022-11-18T09:23:53Z</time>
      </trkpt>
      <trkpt lat="44.63713" lon="5.22377">
        <ele>950</ele>
        <time>2022-11-18T09:23:53Z</time>
      </trkpt>
      <trkpt lat="44.63767" lon="5.22399">
        <ele>944</ele>
        <time>2022-11-18T09:23:53Z</time>
      </trkpt>
      <trkpt lat="44.63782" lon="5.22406">
        <ele>942</ele>
        <time>2022-11-18T09:23:53Z</time>
      </trkpt>
      <trkpt lat="44.6379" lon="5.22448">
        <ele>950</ele>
        <time>2022-11-18T09:23:53Z</time>
      </trkpt>
      <trkpt lat="44.63825" lon="5.22512">
        <ele>954</ele>
        <time>2022-11-18T09:23:53Z</time>
      </trkpt>
      <trkpt lat="44.63871" lon="5.22534">
        <ele>947</ele>
        <time>2022-11-18T09:23:53Z</time>
      </trkpt>
      <trkpt lat="44.63911" lon="5.22555">
        <ele>942</ele>
        <time>2022-11-18T09:23:53Z</time>
      </trkpt>
      <trkpt lat="44.63924" lon="5.22565">
        <ele>938</ele>
        <time>2022-11-18T09:23:53Z</time>
      </trkpt>
      <trkpt lat="44.63922" lon="5.22584">
        <ele>939</ele>
        <time>2022-11-18T09:23:53Z</time>
      </trkpt>
      <trkpt lat="44.63904" lon="5.22646">
        <ele>952</ele>
        <time>2022-11-18T09:23:53Z</time>
      </trkpt>
      <trkpt lat="44.63911" lon="5.22731">
        <ele>946</ele>
        <time>2022-11-18T09:23:53Z</time>
      </trkpt>
      <trkpt lat="44.63905" lon="5.22772">
        <ele>948</ele>
        <time>2022-11-18T09:23:53Z</time>
      </trkpt>
      <trkpt lat="44.63888" lon="5.22834">
        <ele>955</ele>
        <time>2022-11-18T09:23:53Z</time>
      </trkpt>
      <trkpt lat="44.63882" lon="5.2289">
        <ele>957</ele>
        <time>2022-11-18T09:23:53Z</time>
      </trkpt>
      <trkpt lat="44.63881" lon="5.22925">
        <ele>960</ele>
        <time>2022-11-18T09:23:53Z</time>
      </trkpt>
      <trkpt lat="44.63921" lon="5.22965">
        <ele>951</ele>
        <time>2022-11-18T09:23:53Z</time>
      </trkpt>
      <trkpt lat="44.63944" lon="5.23029">
        <ele>965</ele>
        <time>2022-11-18T09:23:53Z</time>
      </trkpt>
      <trkpt lat="44.63979" lon="5.23056">
        <ele>965</ele>
        <time>2022-11-18T09:23:53Z</time>
      </trkpt>
      <trkpt lat="44.64033" lon="5.23075">
        <ele>961</ele>
        <time>2022-11-18T09:23:53Z</time>
      </trkpt>
      <trkpt lat="44.64055" lon="5.23088">
        <ele>956</ele>
        <time>2022-11-18T09:23:53Z</time>
      </trkpt>
      <trkpt lat="44.63991" lon="5.23211">
        <ele>960</ele>
        <time>2022-11-18T09:23:53Z</time>
      </trkpt>
      <trkpt lat="44.63958" lon="5.23263">
        <ele>966</ele>
        <time>2022-11-18T09:23:53Z</time>
      </trkpt>
      <trkpt lat="44.63955" lon="5.23294">
        <ele>968</ele>
        <time>2022-11-18T09:23:53Z</time>
      </trkpt>
      <trkpt lat="44.63969" lon="5.23336">
        <ele>964</ele>
        <time>2022-11-18T09:23:53Z</time>
      </trkpt>
      <trkpt lat="44.63993" lon="5.23372">
        <ele>965</ele>
        <time>2022-11-18T09:23:53Z</time>
      </trkpt>
      <trkpt lat="44.64006" lon="5.23414">
        <ele>971</ele>
        <time>2022-11-18T09:23:53Z</time>
      </trkpt>
      <trkpt lat="44.64034" lon="5.23446">
        <ele>968</ele>
        <time>2022-11-18T09:23:53Z</time>
      </trkpt>
      <trkpt lat="44.64026" lon="5.23478">
        <ele>970</ele>
        <time>2022-11-18T09:23:53Z</time>
      </trkpt>
      <trkpt lat="44.6399" lon="5.23495">
        <ele>981</ele>
        <time>2022-11-18T09:23:53Z</time>
      </trkpt>
      <trkpt lat="44.63909" lon="5.23572">
        <ele>986</ele>
        <time>2022-11-18T09:23:53Z</time>
      </trkpt>
      <trkpt lat="44.63886" lon="5.23609">
        <ele>992</ele>
        <time>2022-11-18T09:23:53Z</time>
      </trkpt>
      <trkpt lat="44.63878" lon="5.23656">
        <ele>997</ele>
        <time>2022-11-18T09:23:53Z</time>
      </trkpt>
      <trkpt lat="44.63885" lon="5.2371">
        <ele>1001</ele>
        <time>2022-11-18T09:23:53Z</time>
      </trkpt>
      <trkpt lat="44.63902" lon="5.23749">
        <ele>1001</ele>
        <time>2022-11-18T09:23:53Z</time>
      </trkpt>
      <trkpt lat="44.63915" lon="5.23778">
        <ele>999</ele>
        <time>2022-11-18T09:23:53Z</time>
      </trkpt>
      <trkpt lat="44.63918" lon="5.23822">
        <ele>1002</ele>
        <time>2022-11-18T09:23:53Z</time>
      </trkpt>
      <trkpt lat="44.63833" lon="5.23902">
        <ele>1002</ele>
        <time>2022-11-18T09:23:53Z</time>
      </trkpt>
      <trkpt lat="44.6376" lon="5.24031">
        <ele>998</ele>
        <time>2022-11-18T09:23:53Z</time>
      </trkpt>
      <trkpt lat="44.63718" lon="5.24064">
        <ele>999</ele>
        <time>2022-11-18T09:23:53Z</time>
      </trkpt>
      <trkpt lat="44.63709" lon="5.24063">
        <ele>1000</ele>
        <time>2022-11-18T09:23:53Z</time>
      </trkpt>
      <trkpt lat="44.6369" lon="5.24113">
        <ele>998</ele>
        <time>2022-11-18T09:23:53Z</time>
      </trkpt>
      <trkpt lat="44.63682" lon="5.2415">
        <ele>999</ele>
        <time>2022-11-18T09:23:53Z</time>
      </trkpt>
      <trkpt lat="44.63675" lon="5.24178">
        <ele>1001</ele>
        <time>2022-11-18T09:23:53Z</time>
      </trkpt>
      <trkpt lat="44.63684" lon="5.24188">
        <ele>1001</ele>
        <time>2022-11-18T09:23:53Z</time>
      </trkpt>
      <trkpt lat="44.63709" lon="5.24183">
        <ele>998</ele>
        <time>2022-11-18T09:23:53Z</time>
      </trkpt>
      <trkpt lat="44.63755" lon="5.24245">
        <ele>992</ele>
        <time>2022-11-18T09:23:53Z</time>
      </trkpt>
      <trkpt lat="44.63805" lon="5.24307">
        <ele>984</ele>
        <time>2022-11-18T09:23:53Z</time>
      </trkpt>
      <trkpt lat="44.63944" lon="5.24374">
        <ele>976</ele>
        <time>2022-11-18T09:23:53Z</time>
      </trkpt>
      <trkpt lat="44.64084" lon="5.24522">
        <ele>973</ele>
        <time>2022-11-18T09:23:53Z</time>
      </trkpt>
      <trkpt lat="44.6417" lon="5.2456">
        <ele>971</ele>
        <time>2022-11-18T09:23:53Z</time>
      </trkpt>
      <trkpt lat="44.64251" lon="5.24515">
        <ele>969</ele>
        <time>2022-11-18T09:23:53Z</time>
      </trkpt>
      <trkpt lat="44.64313" lon="5.24479">
        <ele>963</ele>
        <time>2022-11-18T09:23:53Z</time>
      </trkpt>
      <trkpt lat="44.64402" lon="5.24466">
        <ele>963</ele>
        <time>2022-11-18T09:23:53Z</time>
      </trkpt>
      <trkpt lat="44.64455" lon="5.24412">
        <ele>956</ele>
        <time>2022-11-18T09:23:53Z</time>
      </trkpt>
      <trkpt lat="44.64594" lon="5.24331">
        <ele>951</ele>
        <time>2022-11-18T09:23:53Z</time>
      </trkpt>
      <trkpt lat="44.64793" lon="5.24176">
        <ele>951</ele>
        <time>2022-11-18T09:23:53Z</time>
      </trkpt>
      <trkpt lat="44.64922" lon="5.24039">
        <ele>952</ele>
        <time>2022-11-18T09:23:53Z</time>
      </trkpt>
      <trkpt lat="44.64883" lon="5.23966">
        <ele>951</ele>
        <time>2022-11-18T09:23:53Z</time>
      </trkpt>
      <trkpt lat="44.64773" lon="5.23932">
        <ele>950</ele>
        <time>2022-11-18T09:23:53Z</time>
      </trkpt>
      <trkpt lat="44.64926" lon="5.23904">
        <ele>948</ele>
        <time>2022-11-18T09:23:53Z</time>
      </trkpt>
      <trkpt lat="44.64999" lon="5.23945">
        <ele>946</ele>
        <time>2022-11-18T09:23:53Z</time>
      </trkpt>
      <trkpt lat="44.65034" lon="5.24007">
        <ele>941</ele>
        <time>2022-11-18T09:23:53Z</time>
      </trkpt>
      <trkpt lat="44.65109" lon="5.24013">
        <ele>936</ele>
        <time>2022-11-18T09:23:53Z</time>
      </trkpt>
      <trkpt lat="44.65177" lon="5.24052">
        <ele>932</ele>
        <time>2022-11-18T09:23:53Z</time>
      </trkpt>
      <trkpt lat="44.65124" lon="5.24172">
        <ele>933</ele>
        <time>2022-11-18T09:23:53Z</time>
      </trkpt>
      <trkpt lat="44.65246" lon="5.24018">
        <ele>931</ele>
        <time>2022-11-18T09:23:53Z</time>
      </trkpt>
      <trkpt lat="44.65226" lon="5.24219">
        <ele>929</ele>
        <time>2022-11-18T09:23:53Z</time>
      </trkpt>
      <trkpt lat="44.65272" lon="5.24359">
        <ele>924</ele>
        <time>2022-11-18T09:23:53Z</time>
      </trkpt>
      <trkpt lat="44.65282" lon="5.2423">
        <ele>840</ele>
        <time>2022-11-18T09:23:53Z</time>
      </trkpt>
      <trkpt lat="44.65297" lon="5.24262">
        <ele>837</ele>
        <time>2022-11-18T09:23:53Z</time>
      </trkpt>
      <trkpt lat="44.65317" lon="5.24272">
        <ele>836</ele>
        <time>2022-11-18T09:23:53Z</time>
      </trkpt>
      <trkpt lat="44.65333" lon="5.2427">
        <ele>834</ele>
        <time>2022-11-18T09:23:53Z</time>
      </trkpt>
      <trkpt lat="44.65354" lon="5.24246">
        <ele>831</ele>
        <time>2022-11-18T09:23:53Z</time>
      </trkpt>
      <trkpt lat="44.6561" lon="5.23925">
        <ele>821</ele>
        <time>2022-11-18T09:23:53Z</time>
      </trkpt>
      <trkpt lat="44.65647" lon="5.23892">
        <ele>823</ele>
        <time>2022-11-18T09:23:53Z</time>
      </trkpt>
      <trkpt lat="44.65679" lon="5.23866">
        <ele>825</ele>
        <time>2022-11-18T09:23:53Z</time>
      </trkpt>
      <trkpt lat="44.65709" lon="5.23848">
        <ele>832</ele>
        <time>2022-11-18T09:23:53Z</time>
      </trkpt>
      <trkpt lat="44.65714" lon="5.2382">
        <ele>831</ele>
        <time>2022-11-18T09:23:53Z</time>
      </trkpt>
      <trkpt lat="44.65719" lon="5.23783">
        <ele>828</ele>
        <time>2022-11-18T09:23:53Z</time>
      </trkpt>
      <trkpt lat="44.65722" lon="5.2377">
        <ele>826</ele>
        <time>2022-11-18T09:23:53Z</time>
      </trkpt>
      <trkpt lat="44.65709" lon="5.23754">
        <ele>814</ele>
        <time>2022-11-18T09:23:53Z</time>
      </trkpt>
      <trkpt lat="44.6629" lon="5.23024">
        <ele>807</ele>
        <time>2022-11-18T09:23:53Z</time>
      </trkpt>
      <trkpt lat="44.66527" lon="5.22833">
        <ele>804</ele>
        <time>2022-11-18T09:23:53Z</time>
      </trkpt>
      <trkpt lat="44.66618" lon="5.22702">
        <ele>795</ele>
        <time>2022-11-18T09:23:53Z</time>
      </trkpt>
      <trkpt lat="44.66746" lon="5.22483">
        <ele>785</ele>
        <time>2022-11-18T09:23:53Z</time>
      </trkpt>
      <trkpt lat="44.66659" lon="5.22387">
        <ele>780</ele>
        <time>2022-11-18T09:23:53Z</time>
      </trkpt>
      <trkpt lat="44.66679" lon="5.22496">
        <ele>778</ele>
        <time>2022-11-18T09:23:53Z</time>
      </trkpt>
      <trkpt lat="44.66629" lon="5.22552">
        <ele>776</ele>
        <time>2022-11-18T09:23:53Z</time>
      </trkpt>
      <trkpt lat="44.66487" lon="5.2258">
        <ele>775</ele>
        <time>2022-11-18T09:23:53Z</time>
      </trkpt>
      <trkpt lat="44.66441" lon="5.22554">
        <ele>775</ele>
        <time>2022-11-18T09:23:53Z</time>
      </trkpt>
      <trkpt lat="44.66516" lon="5.22505">
        <ele>775</ele>
        <time>2022-11-18T09:23:53Z</time>
      </trkpt>
      <trkpt lat="44.66546" lon="5.22451">
        <ele>775</ele>
        <time>2022-11-18T09:23:53Z</time>
      </trkpt>
      <trkpt lat="44.66539" lon="5.22267">
        <ele>775</ele>
        <time>2022-11-18T09:23:53Z</time>
      </trkpt>
      <trkpt lat="44.66502" lon="5.22322">
        <ele>649</ele>
        <time>2022-11-18T09:23:53Z</time>
      </trkpt>
      <trkpt lat="44.66508" lon="5.22355">
        <ele>586</ele>
        <time>2022-11-18T09:23:53Z</time>
      </trkpt>
      <trkpt lat="44.66461" lon="5.22393">
        <ele>555</ele>
        <time>2022-11-18T09:23:53Z</time>
      </trkpt>
      <trkpt lat="44.66426" lon="5.22393">
        <ele>539</ele>
        <time>2022-11-18T09:23:53Z</time>
      </trkpt>
      <trkpt lat="44.66392" lon="5.22365">
        <ele>531</ele>
        <time>2022-11-18T09:23:53Z</time>
      </trkpt>
      <trkpt lat="44.66342" lon="5.2241">
        <ele>527</ele>
        <time>2022-11-18T09:23:53Z</time>
      </trkpt>
      <trkpt lat="44.66209" lon="5.22524">
        <ele>525</ele>
        <time>2022-11-18T09:23:53Z</time>
      </trkpt>
      <trkpt lat="44.66147" lon="5.2247">
        <ele>524</ele>
        <time>2022-11-18T09:23:53Z</time>
      </trkpt>
      <trkpt lat="44.66095" lon="5.22511">
        <ele>523</ele>
        <time>2022-11-18T09:23:53Z</time>
      </trkpt>
      <trkpt lat="44.66002" lon="5.22537">
        <ele>523</ele>
        <time>2022-11-18T09:23:53Z</time>
      </trkpt>
      <trkpt lat="44.66072" lon="5.22447">
        <ele>523</ele>
        <time>2022-11-18T09:23:53Z</time>
      </trkpt>
      <trkpt lat="44.66087" lon="5.22346">
        <ele>523</ele>
        <time>2022-11-18T09:23:53Z</time>
      </trkpt>
      <trkpt lat="44.66141" lon="5.22303">
        <ele>523</ele>
        <time>2022-11-18T09:23:53Z</time>
      </trkpt>
      <trkpt lat="44.66006" lon="5.2237">
        <ele>523</ele>
        <time>2022-11-18T09:23:53Z</time>
      </trkpt>
      <trkpt lat="44.65837" lon="5.22509">
        <ele>522</ele>
        <time>2022-11-18T09:23:53Z</time>
      </trkpt>
      <trkpt lat="44.65834" lon="5.22445">
        <ele>520</ele>
        <time>2022-11-18T09:23:53Z</time>
      </trkpt>
      <trkpt lat="44.65791" lon="5.22355">
        <ele>518</ele>
        <time>2022-11-18T09:23:53Z</time>
      </trkpt>
      <trkpt lat="44.65824" lon="5.22354">
        <ele>518</ele>
        <time>2022-11-18T09:23:53Z</time>
      </trkpt>
      <trkpt lat="44.65907" lon="5.22292">
        <ele>517</ele>
        <time>2022-11-18T09:23:53Z</time>
      </trkpt>
      <trkpt lat="44.6594" lon="5.2223">
        <ele>516</ele>
        <time>2022-11-18T09:23:53Z</time>
      </trkpt>
      <trkpt lat="44.65975" lon="5.22191">
        <ele>517</ele>
        <time>2022-11-18T09:23:53Z</time>
      </trkpt>
      <trkpt lat="44.66053" lon="5.22028">
        <ele>514</ele>
        <time>2022-11-18T09:23:53Z</time>
      </trkpt>
      <trkpt lat="44.66079" lon="5.21998">
        <ele>511</ele>
        <time>2022-11-18T09:23:53Z</time>
      </trkpt>
      <trkpt lat="44.66109" lon="5.21959">
        <ele>506</ele>
        <time>2022-11-18T09:23:53Z</time>
      </trkpt>
      <trkpt lat="44.66135" lon="5.21935">
        <ele>503</ele>
        <time>2022-11-18T09:23:53Z</time>
      </trkpt>
      <trkpt lat="44.66144" lon="5.2191">
        <ele>501</ele>
        <time>2022-11-18T09:23:53Z</time>
      </trkpt>
      <trkpt lat="44.6615" lon="5.21853">
        <ele>497</ele>
        <time>2022-11-18T09:23:53Z</time>
      </trkpt>
      <trkpt lat="44.66155" lon="5.21775">
        <ele>492</ele>
        <time>2022-11-18T09:23:53Z</time>
      </trkpt>
      <trkpt lat="44.66172" lon="5.21728">
        <ele>486</ele>
        <time>2022-11-18T09:23:53Z</time>
      </trkpt>
      <trkpt lat="44.66181" lon="5.21691">
        <ele>484</ele>
        <time>2022-11-18T09:23:53Z</time>
      </trkpt>
      <trkpt lat="44.66179" lon="5.21612">
        <ele>483</ele>
        <time>2022-11-18T09:23:53Z</time>
      </trkpt>
      <trkpt lat="44.66162" lon="5.21577">
        <ele>488</ele>
        <time>2022-11-18T09:23:53Z</time>
      </trkpt>
      <trkpt lat="44.66185" lon="5.21543">
        <ele>485</ele>
        <time>2022-11-18T09:23:53Z</time>
      </trkpt>
      <trkpt lat="44.662" lon="5.21484">
        <ele>485</ele>
        <time>2022-11-18T09:23:53Z</time>
      </trkpt>
      <trkpt lat="44.66206" lon="5.21361">
        <ele>487</ele>
        <time>2022-11-18T09:23:53Z</time>
      </trkpt>
      <trkpt lat="44.66237" lon="5.21303">
        <ele>482</ele>
        <time>2022-11-18T09:23:53Z</time>
      </trkpt>
      <trkpt lat="44.66259" lon="5.21241">
        <ele>489</ele>
        <time>2022-11-18T09:23:53Z</time>
      </trkpt>
      <trkpt lat="44.66304" lon="5.21215">
        <ele>480</ele>
        <time>2022-11-18T09:23:53Z</time>
      </trkpt>
      <trkpt lat="44.66327" lon="5.21188">
        <ele>477</ele>
        <time>2022-11-18T09:23:53Z</time>
      </trkpt>
      <trkpt lat="44.66346" lon="5.2117">
        <ele>475</ele>
        <time>2022-11-18T09:23:53Z</time>
      </trkpt>
      <trkpt lat="44.66353" lon="5.21224">
        <ele>469</ele>
        <time>2022-11-18T09:23:53Z</time>
      </trkpt>
      <trkpt lat="44.66391" lon="5.21182">
        <ele>467</ele>
        <time>2022-11-18T09:23:53Z</time>
      </trkpt>
      <trkpt lat="44.66422" lon="5.21174">
        <ele>466</ele>
        <time>2022-11-18T09:23:53Z</time>
      </trkpt>
      <trkpt lat="44.66439" lon="5.21149">
        <ele>467</ele>
        <time>2022-11-18T09:23:53Z</time>
      </trkpt>
      <trkpt lat="44.6646" lon="5.21113">
        <ele>463</ele>
        <time>2022-11-18T09:23:53Z</time>
      </trkpt>
      <trkpt lat="44.66496" lon="5.21036">
        <ele>454</ele>
        <time>2022-11-18T09:23:53Z</time>
      </trkpt>
      <trkpt lat="44.66522" lon="5.2099">
        <ele>452</ele>
        <time>2022-11-18T09:23:53Z</time>
      </trkpt>
      <trkpt lat="44.66538" lon="5.20865">
        <ele>452</ele>
        <time>2022-11-18T09:23:53Z</time>
      </trkpt>
      <trkpt lat="44.66558" lon="5.20809">
        <ele>443</ele>
        <time>2022-11-18T09:23:53Z</time>
      </trkpt>
      <trkpt lat="44.66579" lon="5.20759">
        <ele>432</ele>
        <time>2022-11-18T09:23:53Z</time>
      </trkpt>
      <trkpt lat="44.66581" lon="5.20712">
        <ele>434</ele>
        <time>2022-11-18T09:23:53Z</time>
      </trkpt>
      <trkpt lat="44.66584" lon="5.20665">
        <ele>436</ele>
        <time>2022-11-18T09:23:53Z</time>
      </trkpt>
      <trkpt lat="44.66626" lon="5.20538">
        <ele>436</ele>
        <time>2022-11-18T09:23:53Z</time>
      </trkpt>
      <trkpt lat="44.66651" lon="5.2052">
        <ele>435</ele>
        <time>2022-11-18T09:23:53Z</time>
      </trkpt>
      <trkpt lat="44.66692" lon="5.205">
        <ele>427</ele>
        <time>2022-11-18T09:23:53Z</time>
      </trkpt>
      <trkpt lat="44.66726" lon="5.20467">
        <ele>426</ele>
        <time>2022-11-18T09:23:53Z</time>
      </trkpt>
      <trkpt lat="44.66747" lon="5.20446">
        <ele>423</ele>
        <time>2022-11-18T09:23:53Z</time>
      </trkpt>
      <trkpt lat="44.66804" lon="5.20418">
        <ele>421</ele>
        <time>2022-11-18T09:23:53Z</time>
      </trkpt>
      <trkpt lat="44.66832" lon="5.20394">
        <ele>417</ele>
        <time>2022-11-18T09:23:53Z</time>
      </trkpt>
      <trkpt lat="44.6686" lon="5.20351">
        <ele>411</ele>
        <time>2022-11-18T09:23:53Z</time>
      </trkpt>
      <trkpt lat="44.66907" lon="5.20278">
        <ele>403</ele>
        <time>2022-11-18T09:23:53Z</time>
      </trkpt>
      <trkpt lat="44.66946" lon="5.20236">
        <ele>400</ele>
        <time>2022-11-18T09:23:53Z</time>
      </trkpt>
      <trkpt lat="44.66972" lon="5.20212">
        <ele>397</ele>
        <time>2022-11-18T09:23:53Z</time>
      </trkpt>
      <trkpt lat="44.66995" lon="5.20175">
        <ele>397</ele>
        <time>2022-11-18T09:23:53Z</time>
      </trkpt>
      <trkpt lat="44.67005" lon="5.20147">
        <ele>397</ele>
        <time>2022-11-18T09:23:53Z</time>
      </trkpt>
      <trkpt lat="44.67019" lon="5.20129">
        <ele>396</ele>
        <time>2022-11-18T09:23:53Z</time>
      </trkpt>
      <trkpt lat="44.67049" lon="5.20106">
        <ele>397</ele>
        <time>2022-11-18T09:23:53Z</time>
      </trkpt>
      <trkpt lat="44.67083" lon="5.20079">
        <ele>393</ele>
        <time>2022-11-18T09:23:53Z</time>
      </trkpt>
      <trkpt lat="44.67088" lon="5.20067">
        <ele>393</ele>
        <time>2022-11-18T09:23:53Z</time>
      </trkpt>
      <trkpt lat="44.67086" lon="5.20048">
        <ele>395</ele>
        <time>2022-11-18T09:23:53Z</time>
      </trkpt>
      <trkpt lat="44.67097" lon="5.20042">
        <ele>392</ele>
        <time>2022-11-18T09:23:53Z</time>
      </trkpt>
      <trkpt lat="44.67162" lon="5.19973">
        <ele>389</ele>
        <time>2022-11-18T09:23:53Z</time>
      </trkpt>
      <trkpt lat="44.67204" lon="5.1994">
        <ele>386</ele>
        <time>2022-11-18T09:23:53Z</time>
      </trkpt>
      <trkpt lat="44.67236" lon="5.1991">
        <ele>381</ele>
        <time>2022-11-18T09:23:53Z</time>
      </trkpt>
      <trkpt lat="44.67279" lon="5.19884">
        <ele>373</ele>
        <time>2022-11-18T09:23:53Z</time>
      </trkpt>
      <trkpt lat="44.67321" lon="5.19851">
        <ele>376</ele>
        <time>2022-11-18T09:23:53Z</time>
      </trkpt>
      <trkpt lat="44.67346" lon="5.19821">
        <ele>371</ele>
        <time>2022-11-18T09:23:53Z</time>
      </trkpt>
      <trkpt lat="44.67355" lon="5.19822">
        <ele>373</ele>
        <time>2022-11-18T09:23:53Z</time>
      </trkpt>
      <trkpt lat="44.67359" lon="5.19781">
        <ele>374</ele>
        <time>2022-11-18T09:23:53Z</time>
      </trkpt>
      <trkpt lat="44.67362" lon="5.19749">
        <ele>380</ele>
        <time>2022-11-18T09:23:53Z</time>
      </trkpt>
      <trkpt lat="44.6738" lon="5.19716">
        <ele>369</ele>
        <time>2022-11-18T09:23:53Z</time>
      </trkpt>
      <trkpt lat="44.67395" lon="5.19663">
        <ele>363</ele>
        <time>2022-11-18T09:23:53Z</time>
      </trkpt>
      <trkpt lat="44.67418" lon="5.19639">
        <ele>366</ele>
        <time>2022-11-18T09:23:53Z</time>
      </trkpt>
      <trkpt lat="44.67439" lon="5.1963">
        <ele>368</ele>
        <time>2022-11-18T09:23:53Z</time>
      </trkpt>
      <trkpt lat="44.67498" lon="5.19627">
        <ele>369</ele>
        <time>2022-11-18T09:23:53Z</time>
      </trkpt>
      <trkpt lat="44.67537" lon="5.19594">
        <ele>366</ele>
        <time>2022-11-18T09:23:53Z</time>
      </trkpt>
      <trkpt lat="44.67553" lon="5.1957">
        <ele>366</ele>
        <time>2022-11-18T09:23:53Z</time>
      </trkpt>
      <trkpt lat="44.6757" lon="5.19527">
        <ele>366</ele>
        <time>2022-11-18T09:23:53Z</time>
      </trkpt>
      <trkpt lat="44.67588" lon="5.19506">
        <ele>371</ele>
        <time>2022-11-18T09:23:53Z</time>
      </trkpt>
      <trkpt lat="44.67636" lon="5.19508">
        <ele>358</ele>
        <time>2022-11-18T09:23:53Z</time>
      </trkpt>
      <trkpt lat="44.67719" lon="5.19515">
        <ele>350</ele>
        <time>2022-11-18T09:23:53Z</time>
      </trkpt>
      <trkpt lat="44.67769" lon="5.19477">
        <ele>355</ele>
        <time>2022-11-18T09:23:53Z</time>
      </trkpt>
      <trkpt lat="44.67787" lon="5.19484">
        <ele>354</ele>
        <time>2022-11-18T09:23:53Z</time>
      </trkpt>
      <trkpt lat="44.67919" lon="5.1944">
        <ele>341</ele>
        <time>2022-11-18T09:23:53Z</time>
      </trkpt>
      <trkpt lat="44.67936" lon="5.19445">
        <ele>340</ele>
        <time>2022-11-18T09:23:53Z</time>
      </trkpt>
      <trkpt lat="44.68227" lon="5.19608">
        <ele>340</ele>
        <time>2022-11-18T09:23:53Z</time>
      </trkpt>
      <trkpt lat="44.68283" lon="5.19623">
        <ele>337</ele>
        <time>2022-11-18T09:23:53Z</time>
      </trkpt>
      <trkpt lat="44.68343" lon="5.19648">
        <ele>330</ele>
        <time>2022-11-18T09:23:53Z</time>
      </trkpt>
      <trkpt lat="44.68365" lon="5.19649">
        <ele>329</ele>
        <time>2022-11-18T09:23:53Z</time>
      </trkpt>
      <trkpt lat="44.68553" lon="5.1969">
        <ele>323</ele>
        <time>2022-11-18T09:23:53Z</time>
      </trkpt>
      <trkpt lat="44.68593" lon="5.19708">
        <ele>320</ele>
        <time>2022-11-18T09:23:53Z</time>
      </trkpt>
      <trkpt lat="44.68654" lon="5.19724">
        <ele>318</ele>
        <time>2022-11-18T09:23:53Z</time>
      </trkpt>
      <trkpt lat="44.68756" lon="5.19767">
        <ele>313</ele>
        <time>2022-11-18T09:23:53Z</time>
      </trkpt>
      <trkpt lat="44.68944" lon="5.19818">
        <ele>309</ele>
        <time>2022-11-18T09:23:53Z</time>
      </trkpt>
      <trkpt lat="44.68987" lon="5.19804">
        <ele>314</ele>
        <time>2022-11-18T09:23:53Z</time>
      </trkpt>
      <trkpt lat="44.69047" lon="5.19839">
        <ele>310</ele>
        <time>2022-11-18T09:23:53Z</time>
      </trkpt>
      <trkpt lat="44.69101" lon="5.19841">
        <ele>311</ele>
        <time>2022-11-18T09:23:53Z</time>
      </trkpt>
      <trkpt lat="44.69175" lon="5.19845">
        <ele>308</ele>
        <time>2022-11-18T09:23:53Z</time>
      </trkpt>
      <trkpt lat="44.69233" lon="5.19854">
        <ele>303</ele>
        <time>2022-11-18T09:23:53Z</time>
      </trkpt>
      <trkpt lat="44.69368" lon="5.19871">
        <ele>292</ele>
        <time>2022-11-18T09:23:53Z</time>
      </trkpt>
      <trkpt lat="44.69414" lon="5.19892">
        <ele>288</ele>
        <time>2022-11-18T09:23:53Z</time>
      </trkpt>
      <trkpt lat="44.69447" lon="5.19932">
        <ele>281</ele>
        <time>2022-11-18T09:23:53Z</time>
      </trkpt>
      <trkpt lat="44.69477" lon="5.1999">
        <ele>270</ele>
        <time>2022-11-18T09:23:53Z</time>
      </trkpt>
      <trkpt lat="44.69503" lon="5.20039">
        <ele>265</ele>
        <time>2022-11-18T09:23:53Z</time>
      </trkpt>
      <trkpt lat="44.69504" lon="5.20077">
        <ele>265</ele>
        <time>2022-11-18T09:23:53Z</time>
      </trkpt>
      <trkpt lat="44.69481" lon="5.20082">
        <ele>268</ele>
        <time>2022-11-18T09:23:53Z</time>
      </trkpt>
      <trkpt lat="44.69482" lon="5.20069">
        <ele>268</ele>
        <time>2022-11-18T09:23:53Z</time>
      </trkpt>
      <trkpt lat="44.69487" lon="5.20047">
        <ele>267</ele>
        <time>2022-11-18T09:23:53Z</time>
      </trkpt>
      <trkpt lat="44.69499" lon="5.20019">
        <ele>266</ele>
        <time>2022-11-18T09:23:53Z</time>
      </trkpt>
      <trkpt lat="44.6951" lon="5.19951">
        <ele>266</ele>
        <time>2022-11-18T09:23:53Z</time>
      </trkpt>
      <trkpt lat="44.69495" lon="5.19748">
        <ele>270</ele>
        <time>2022-11-18T09:23:53Z</time>
      </trkpt>
      <trkpt lat="44.69524" lon="5.19727">
        <ele>263</ele>
        <time>2022-11-18T09:23:53Z</time>
      </trkpt>
      <trkpt lat="44.6959" lon="5.19731">
        <ele>259</ele>
        <time>2022-11-18T09:23:53Z</time>
      </trkpt>
      <trkpt lat="44.69653" lon="5.19715">
        <ele>263</ele>
        <time>2022-11-18T09:23:53Z</time>
      </trkpt>
      <trkpt lat="44.69671" lon="5.19874">
        <ele>266</ele>
        <time>2022-11-18T09:23:53Z</time>
      </trkpt>
      <trkpt lat="44.69689" lon="5.19897">
        <ele>267</ele>
        <time>2022-11-18T09:23:53Z</time>
      </trkpt>
      <trkpt lat="44.69683" lon="5.20029">
        <ele>267</ele>
        <time>2022-11-18T09:23:53Z</time>
      </trkpt>
    </trkseg>
  </trk>
  <trk>
    <name><![CDATA[VTT N°10 noir - Chapelle des Sadoux - 31 km - Déniv 980 m]]></name>
    <extensions>
      <line xmlns="http://www.topografix.com/GPX/gpx_style/0/2">
        <color>000000</color>
        <width>4</width>
      </line>
    </extensions>
    <trkseg>
      <trkpt lat="44.69689" lon="5.19963">
        <ele>269</ele>
        <time>2022-11-17T10:16:54Z</time>
        <extensions>
          <visugpx:TrkExtension xmlns:visugpx="https://www.visugpx.com/editgpx/">
            <visugpx:node>1</visugpx:node>
            </visugpx:TrkExtension>
        </extensions>
      </trkpt>
      <trkpt lat="44.69681" lon="5.20046">
        <ele>269</ele>
      </trkpt>
      <trkpt lat="44.69672" lon="5.20128">
        <ele>268</ele>
        <time>2022-11-17T10:16:54Z</time>
      </trkpt>
      <trkpt lat="44.69677" lon="5.20214">
        <ele>267</ele>
      </trkpt>
      <trkpt lat="44.69681" lon="5.203">
        <ele>269</ele>
        <time>2022-11-17T10:16:54Z</time>
      </trkpt>
      <trkpt lat="44.69677" lon="5.2032">
        <ele>271</ele>
        <time>2022-11-17T10:16:54Z</time>
      </trkpt>
      <trkpt lat="44.6967" lon="5.20338">
        <ele>272</ele>
        <time>2022-11-17T10:16:54Z</time>
      </trkpt>
      <trkpt lat="44.69633" lon="5.2039">
        <ele>273</ele>
        <time>2022-11-17T10:16:54Z</time>
      </trkpt>
      <trkpt lat="44.69609" lon="5.2041">
        <ele>273</ele>
        <time>2022-11-17T10:16:54Z</time>
      </trkpt>
      <trkpt lat="44.69512" lon="5.20463">
        <ele>272</ele>
      </trkpt>
      <trkpt lat="44.69463" lon="5.20489">
        <ele>271</ele>
      </trkpt>
      <trkpt lat="44.69414" lon="5.20515">
        <ele>271</ele>
        <time>2022-11-17T10:16:54Z</time>
      </trkpt>
      <trkpt lat="44.69316" lon="5.20522">
        <ele>273</ele>
        <time>2022-11-17T10:16:54Z</time>
      </trkpt>
      <trkpt lat="44.69299" lon="5.20513">
        <ele>273</ele>
        <time>2022-11-17T10:16:54Z</time>
      </trkpt>
      <trkpt lat="44.69342" lon="5.2041">
        <ele>270</ele>
      </trkpt>
      <trkpt lat="44.69384" lon="5.20308">
        <ele>271</ele>
      </trkpt>
      <trkpt lat="44.69427" lon="5.20205">
        <ele>273</ele>
      </trkpt>
      <trkpt lat="44.69469" lon="5.20102">
        <ele>274</ele>
        <time>2022-11-17T10:16:54Z</time>
      </trkpt>
      <trkpt lat="44.69485" lon="5.20101">
        <ele>275</ele>
        <time>2022-11-17T10:16:54Z</time>
      </trkpt>
      <trkpt lat="44.69496" lon="5.20092">
        <ele>275</ele>
        <time>2022-11-17T10:16:54Z</time>
      </trkpt>
      <trkpt lat="44.69509" lon="5.20065">
        <ele>275</ele>
        <time>2022-11-17T10:16:54Z</time>
      </trkpt>
      <trkpt lat="44.69511" lon="5.20049">
        <ele>276</ele>
        <time>2022-11-17T10:16:54Z</time>
      </trkpt>
      <trkpt lat="44.69509" lon="5.20035">
        <ele>276</ele>
        <time>2022-11-17T10:16:54Z</time>
      </trkpt>
      <trkpt lat="44.695" lon="5.20007">
        <ele>276</ele>
        <time>2022-11-17T10:16:54Z</time>
      </trkpt>
      <trkpt lat="44.6949" lon="5.19994">
        <ele>276</ele>
        <time>2022-11-17T10:16:54Z</time>
      </trkpt>
      <trkpt lat="44.69477" lon="5.19969">
        <ele>277</ele>
        <time>2022-11-17T10:16:54Z</time>
      </trkpt>
      <trkpt lat="44.69475" lon="5.19957">
        <ele>277</ele>
        <time>2022-11-17T10:16:54Z</time>
      </trkpt>
      <trkpt lat="44.69473" lon="5.19924">
        <ele>277</ele>
        <time>2022-11-17T10:16:54Z</time>
      </trkpt>
      <trkpt lat="44.69467" lon="5.1991">
        <ele>278</ele>
        <time>2022-11-17T10:16:54Z</time>
      </trkpt>
      <trkpt lat="44.69425" lon="5.19877">
        <ele>279</ele>
        <time>2022-11-17T10:16:54Z</time>
      </trkpt>
      <trkpt lat="44.69343" lon="5.19851">
        <ele>282</ele>
        <time>2022-11-17T10:16:54Z</time>
      </trkpt>
      <trkpt lat="44.69244" lon="5.19842">
        <ele>286</ele>
      </trkpt>
      <trkpt lat="44.69144" lon="5.19833">
        <ele>290</ele>
        <time>2022-11-17T10:16:54Z</time>
      </trkpt>
      <trkpt lat="44.69134" lon="5.19828">
        <ele>292</ele>
        <time>2022-11-17T10:16:54Z</time>
      </trkpt>
      <trkpt lat="44.6903" lon="5.19826">
        <ele>296</ele>
        <time>2022-11-17T10:16:54Z</time>
      </trkpt>
      <trkpt lat="44.69019" lon="5.19821">
        <ele>298</ele>
        <time>2022-11-17T10:16:54Z</time>
      </trkpt>
      <trkpt lat="44.69003" lon="5.19808">
        <ele>300</ele>
        <time>2022-11-17T10:16:54Z</time>
      </trkpt>
      <trkpt lat="44.68957" lon="5.19813">
        <ele>301</ele>
        <time>2022-11-17T10:16:54Z</time>
      </trkpt>
      <trkpt lat="44.68905" lon="5.19797">
        <ele>304</ele>
      </trkpt>
      <trkpt lat="44.68853" lon="5.19781">
        <ele>306</ele>
      </trkpt>
      <trkpt lat="44.68801" lon="5.19764">
        <ele>309</ele>
      </trkpt>
      <trkpt lat="44.68749" lon="5.19748">
        <ele>311</ele>
      </trkpt>
      <trkpt lat="44.68696" lon="5.19732">
        <ele>313</ele>
      </trkpt>
      <trkpt lat="44.68644" lon="5.19716">
        <ele>315</ele>
      </trkpt>
      <trkpt lat="44.68592" lon="5.197">
        <ele>317</ele>
      </trkpt>
      <trkpt lat="44.6854" lon="5.19683">
        <ele>319</ele>
      </trkpt>
      <trkpt lat="44.68488" lon="5.19667">
        <ele>321</ele>
      </trkpt>
      <trkpt lat="44.68436" lon="5.19651">
        <ele>323</ele>
      </trkpt>
      <trkpt lat="44.68384" lon="5.19635">
        <ele>325</ele>
      </trkpt>
      <trkpt lat="44.68332" lon="5.19619">
        <ele>326</ele>
      </trkpt>
      <trkpt lat="44.68279" lon="5.19603">
        <ele>328</ele>
      </trkpt>
      <trkpt lat="44.68227" lon="5.19586">
        <ele>332</ele>
      </trkpt>
      <trkpt lat="44.68175" lon="5.1957">
        <ele>334</ele>
      </trkpt>
      <trkpt lat="44.68123" lon="5.19554">
        <ele>334</ele>
        <time>2022-11-17T10:16:54Z</time>
      </trkpt>
      <trkpt lat="44.68034" lon="5.19496">
        <ele>336</ele>
      </trkpt>
      <trkpt lat="44.67945" lon="5.19439">
        <ele>338</ele>
        <time>2022-11-17T10:16:54Z</time>
      </trkpt>
      <trkpt lat="44.67926" lon="5.19437">
        <ele>339</ele>
        <time>2022-11-17T10:16:54Z</time>
      </trkpt>
      <trkpt lat="44.67862" lon="5.19458">
        <ele>340</ele>
      </trkpt>
      <trkpt lat="44.67798" lon="5.19479">
        <ele>341</ele>
      </trkpt>
      <trkpt lat="44.67734" lon="5.19499">
        <ele>342</ele>
      </trkpt>
      <trkpt lat="44.6767" lon="5.1952">
        <ele>344</ele>
        <time>2022-11-17T10:16:54Z</time>
      </trkpt>
      <trkpt lat="44.67582" lon="5.1952">
        <ele>351</ele>
        <time>2022-11-17T10:16:54Z</time>
      </trkpt>
      <trkpt lat="44.6757" lon="5.19527">
        <ele>355</ele>
        <time>2022-11-17T10:16:54Z</time>
      </trkpt>
      <trkpt lat="44.67563" lon="5.19534">
        <ele>357</ele>
        <time>2022-11-17T10:16:54Z</time>
      </trkpt>
      <trkpt lat="44.67556" lon="5.19547">
        <ele>359</ele>
        <time>2022-11-17T10:16:54Z</time>
      </trkpt>
      <trkpt lat="44.67548" lon="5.19581">
        <ele>359</ele>
        <time>2022-11-17T10:16:54Z</time>
      </trkpt>
      <trkpt lat="44.6754" lon="5.19591">
        <ele>359</ele>
        <time>2022-11-17T10:16:54Z</time>
      </trkpt>
      <trkpt lat="44.67492" lon="5.19629">
        <ele>360</ele>
        <time>2022-11-17T10:16:54Z</time>
      </trkpt>
      <trkpt lat="44.67453" lon="5.19634">
        <ele>361</ele>
        <time>2022-11-17T10:16:54Z</time>
      </trkpt>
      <trkpt lat="44.67438" lon="5.19628">
        <ele>362</ele>
        <time>2022-11-17T10:16:54Z</time>
      </trkpt>
      <trkpt lat="44.67424" lon="5.19628">
        <ele>363</ele>
        <time>2022-11-17T10:16:54Z</time>
      </trkpt>
      <trkpt lat="44.67407" lon="5.1964">
        <ele>363</ele>
        <time>2022-11-17T10:16:54Z</time>
      </trkpt>
      <trkpt lat="44.67391" lon="5.19661">
        <ele>364</ele>
        <time>2022-11-17T10:16:54Z</time>
      </trkpt>
      <trkpt lat="44.67386" lon="5.19674">
        <ele>365</ele>
        <time>2022-11-17T10:16:54Z</time>
      </trkpt>
      <trkpt lat="44.6738" lon="5.19712">
        <ele>366</ele>
        <time>2022-11-17T10:16:54Z</time>
      </trkpt>
      <trkpt lat="44.6736" lon="5.19747">
        <ele>368</ele>
        <time>2022-11-17T10:16:54Z</time>
      </trkpt>
      <trkpt lat="44.67349" lon="5.19818">
        <ele>369</ele>
        <time>2022-11-17T10:16:54Z</time>
      </trkpt>
      <trkpt lat="44.67343" lon="5.19827">
        <ele>373</ele>
        <time>2022-11-17T10:16:54Z</time>
      </trkpt>
      <trkpt lat="44.6722" lon="5.19917">
        <ele>377</ele>
        <time>2022-11-17T10:16:54Z</time>
      </trkpt>
      <trkpt lat="44.672" lon="5.19945">
        <ele>379</ele>
        <time>2022-11-17T10:16:54Z</time>
      </trkpt>
      <trkpt lat="44.67143" lon="5.19974">
        <ele>382</ele>
        <time>2022-11-17T10:16:54Z</time>
      </trkpt>
      <trkpt lat="44.67103" lon="5.20019">
        <ele>385</ele>
        <time>2022-11-17T10:16:54Z</time>
      </trkpt>
      <trkpt lat="44.6708" lon="5.20061">
        <ele>388</ele>
        <time>2022-11-17T10:16:54Z</time>
      </trkpt>
      <trkpt lat="44.6707" lon="5.20093">
        <ele>390</ele>
        <time>2022-11-17T10:16:54Z</time>
      </trkpt>
      <trkpt lat="44.67063" lon="5.20105">
        <ele>391</ele>
        <time>2022-11-17T10:16:54Z</time>
      </trkpt>
      <trkpt lat="44.67056" lon="5.20109">
        <ele>392</ele>
        <time>2022-11-17T10:16:54Z</time>
      </trkpt>
      <trkpt lat="44.6703" lon="5.20117">
        <ele>394</ele>
        <time>2022-11-17T10:16:54Z</time>
      </trkpt>
      <trkpt lat="44.6702" lon="5.20127">
        <ele>395</ele>
        <time>2022-11-17T10:16:54Z</time>
      </trkpt>
      <trkpt lat="44.6701" lon="5.20128">
        <ele>396</ele>
        <time>2022-11-17T10:16:54Z</time>
      </trkpt>
      <trkpt lat="44.67003" lon="5.20133">
        <ele>398</ele>
        <time>2022-11-17T10:16:54Z</time>
      </trkpt>
      <trkpt lat="44.66993" lon="5.20144">
        <ele>398</ele>
        <time>2022-11-17T10:16:54Z</time>
      </trkpt>
      <trkpt lat="44.66965" lon="5.20214">
        <ele>398</ele>
        <time>2022-11-17T10:16:54Z</time>
      </trkpt>
      <trkpt lat="44.66883" lon="5.20316">
        <ele>400</ele>
      </trkpt>
      <trkpt lat="44.668" lon="5.20418">
        <ele>405</ele>
        <time>2022-11-17T10:16:54Z</time>
      </trkpt>
      <trkpt lat="44.66715" lon="5.20474">
        <ele>411</ele>
      </trkpt>
      <trkpt lat="44.66629" lon="5.2053">
        <ele>416</ele>
        <time>2022-11-17T10:16:54Z</time>
      </trkpt>
      <trkpt lat="44.66619" lon="5.20549">
        <ele>419</ele>
        <time>2022-11-17T10:16:54Z</time>
      </trkpt>
      <trkpt lat="44.66598" lon="5.20614">
        <ele>421</ele>
        <time>2022-11-17T10:16:54Z</time>
      </trkpt>
      <trkpt lat="44.66591" lon="5.20628">
        <ele>423</ele>
        <time>2022-11-17T10:16:54Z</time>
      </trkpt>
      <trkpt lat="44.66577" lon="5.20682">
        <ele>425</ele>
        <time>2022-11-17T10:16:54Z</time>
      </trkpt>
      <trkpt lat="44.66564" lon="5.20776">
        <ele>430</ele>
        <time>2022-11-17T10:16:54Z</time>
      </trkpt>
      <trkpt lat="44.66523" lon="5.209">
        <ele>436</ele>
      </trkpt>
      <trkpt lat="44.66482" lon="5.21024">
        <ele>442</ele>
        <time>2022-11-17T10:16:54Z</time>
      </trkpt>
      <trkpt lat="44.66409" lon="5.21163">
        <ele>449</ele>
        <time>2022-11-17T10:16:54Z</time>
      </trkpt>
      <trkpt lat="44.66402" lon="5.2117">
        <ele>452</ele>
        <time>2022-11-17T10:16:54Z</time>
      </trkpt>
      <trkpt lat="44.66394" lon="5.21175">
        <ele>454</ele>
        <time>2022-11-17T10:16:54Z</time>
      </trkpt>
      <trkpt lat="44.6635" lon="5.2122">
        <ele>457</ele>
        <time>2022-11-17T10:16:54Z</time>
      </trkpt>
      <trkpt lat="44.6634" lon="5.21176">
        <ele>461</ele>
        <time>2022-11-17T10:16:54Z</time>
      </trkpt>
      <trkpt lat="44.66331" lon="5.21164">
        <ele>464</ele>
        <time>2022-11-17T10:16:54Z</time>
      </trkpt>
      <trkpt lat="44.66322" lon="5.21163">
        <ele>467</ele>
        <time>2022-11-17T10:16:54Z</time>
      </trkpt>
      <trkpt lat="44.66312" lon="5.21176">
        <ele>469</ele>
        <time>2022-11-17T10:16:54Z</time>
      </trkpt>
      <trkpt lat="44.66303" lon="5.21193">
        <ele>472</ele>
        <time>2022-11-17T10:16:54Z</time>
      </trkpt>
      <trkpt lat="44.6625" lon="5.2124">
        <ele>476</ele>
        <time>2022-11-17T10:16:54Z</time>
      </trkpt>
      <trkpt lat="44.66205" lon="5.21324">
        <ele>479</ele>
        <time>2022-11-17T10:16:54Z</time>
      </trkpt>
      <trkpt lat="44.66193" lon="5.21376">
        <ele>482</ele>
        <time>2022-11-17T10:16:54Z</time>
      </trkpt>
      <trkpt lat="44.66185" lon="5.21519">
        <ele>483</ele>
        <time>2022-11-17T10:16:54Z</time>
      </trkpt>
      <trkpt lat="44.6618" lon="5.21536">
        <ele>484</ele>
        <time>2022-11-17T10:16:54Z</time>
      </trkpt>
      <trkpt lat="44.66172" lon="5.21547">
        <ele>485</ele>
        <time>2022-11-17T10:16:54Z</time>
      </trkpt>
      <trkpt lat="44.66165" lon="5.21553">
        <ele>485</ele>
        <time>2022-11-17T10:16:54Z</time>
      </trkpt>
      <trkpt lat="44.66157" lon="5.21562">
        <ele>486</ele>
        <time>2022-11-17T10:16:54Z</time>
      </trkpt>
      <trkpt lat="44.66155" lon="5.21575">
        <ele>486</ele>
        <time>2022-11-17T10:16:54Z</time>
      </trkpt>
      <trkpt lat="44.66158" lon="5.21586">
        <ele>487</ele>
        <time>2022-11-17T10:16:54Z</time>
      </trkpt>
      <trkpt lat="44.66168" lon="5.21601">
        <ele>486</ele>
        <time>2022-11-17T10:16:54Z</time>
      </trkpt>
      <trkpt lat="44.66161" lon="5.21719">
        <ele>486</ele>
        <time>2022-11-17T10:16:54Z</time>
      </trkpt>
      <trkpt lat="44.66145" lon="5.21823">
        <ele>486</ele>
      </trkpt>
      <trkpt lat="44.66129" lon="5.21927">
        <ele>488</ele>
        <time>2022-11-17T10:16:54Z</time>
      </trkpt>
      <trkpt lat="44.66122" lon="5.21944">
        <ele>489</ele>
        <time>2022-11-17T10:16:54Z</time>
      </trkpt>
      <trkpt lat="44.6606" lon="5.22008">
        <ele>490</ele>
        <time>2022-11-17T10:16:54Z</time>
      </trkpt>
      <trkpt lat="44.65976" lon="5.22166">
        <ele>494</ele>
        <time>2022-11-17T10:16:54Z</time>
      </trkpt>
      <trkpt lat="44.65938" lon="5.22212">
        <ele>497</ele>
        <time>2022-11-17T10:16:54Z</time>
      </trkpt>
      <trkpt lat="44.6593" lon="5.22227">
        <ele>499</ele>
        <time>2022-11-17T10:16:54Z</time>
      </trkpt>
      <trkpt lat="44.65913" lon="5.22277">
        <ele>508</ele>
        <time>2022-11-17T10:16:54Z</time>
      </trkpt>
      <trkpt lat="44.65867" lon="5.22321">
        <ele>508</ele>
        <time>2022-11-17T10:16:54Z</time>
      </trkpt>
      <trkpt lat="44.65723" lon="5.22398">
        <ele>511</ele>
        <time>2022-11-17T10:16:54Z</time>
      </trkpt>
      <trkpt lat="44.65717" lon="5.22406">
        <ele>512</ele>
        <time>2022-11-17T10:16:54Z</time>
      </trkpt>
      <trkpt lat="44.65713" lon="5.22418">
        <ele>513</ele>
        <time>2022-11-17T10:16:54Z</time>
      </trkpt>
      <trkpt lat="44.65654" lon="5.22474">
        <ele>515</ele>
        <time>2022-11-17T10:16:54Z</time>
      </trkpt>
      <trkpt lat="44.6563" lon="5.22485">
        <ele>518</ele>
        <time>2022-11-17T10:16:54Z</time>
      </trkpt>
      <trkpt lat="44.65591" lon="5.22481">
        <ele>520</ele>
        <time>2022-11-17T10:16:54Z</time>
      </trkpt>
      <trkpt lat="44.65567" lon="5.22465">
        <ele>524</ele>
        <time>2022-11-17T10:16:54Z</time>
      </trkpt>
      <trkpt lat="44.65574" lon="5.22479">
        <ele>526</ele>
        <time>2022-11-17T10:16:54Z</time>
      </trkpt>
      <trkpt lat="44.6558" lon="5.22487">
        <ele>527</ele>
        <time>2022-11-17T10:16:54Z</time>
      </trkpt>
      <trkpt lat="44.65582" lon="5.22498">
        <ele>529</ele>
        <time>2022-11-17T10:16:54Z</time>
      </trkpt>
      <trkpt lat="44.65563" lon="5.22568">
        <ele>532</ele>
        <time>2022-11-17T10:16:54Z</time>
      </trkpt>
      <trkpt lat="44.65523" lon="5.22649">
        <ele>536</ele>
        <time>2022-11-17T10:16:54Z</time>
      </trkpt>
      <trkpt lat="44.65516" lon="5.22649">
        <ele>539</ele>
        <time>2022-11-17T10:16:54Z</time>
      </trkpt>
      <trkpt lat="44.65515" lon="5.22633">
        <ele>541</ele>
        <time>2022-11-17T10:16:54Z</time>
      </trkpt>
      <trkpt lat="44.65524" lon="5.22567">
        <ele>545</ele>
        <time>2022-11-17T10:16:54Z</time>
      </trkpt>
      <trkpt lat="44.65515" lon="5.22527">
        <ele>548</ele>
        <time>2022-11-17T10:16:54Z</time>
      </trkpt>
      <trkpt lat="44.65509" lon="5.22521">
        <ele>551</ele>
        <time>2022-11-17T10:16:54Z</time>
      </trkpt>
      <trkpt lat="44.65428" lon="5.22556">
        <ele>556</ele>
        <time>2022-11-17T10:16:54Z</time>
      </trkpt>
      <trkpt lat="44.65414" lon="5.22595">
        <ele>561</ele>
        <time>2022-11-17T10:16:54Z</time>
      </trkpt>
      <trkpt lat="44.65405" lon="5.22596">
        <ele>565</ele>
        <time>2022-11-17T10:16:54Z</time>
      </trkpt>
      <trkpt lat="44.65395" lon="5.22547">
        <ele>568</ele>
        <time>2022-11-17T10:16:54Z</time>
      </trkpt>
      <trkpt lat="44.65395" lon="5.22508">
        <ele>570</ele>
        <time>2022-11-17T10:16:54Z</time>
      </trkpt>
      <trkpt lat="44.65391" lon="5.22495">
        <ele>570</ele>
        <time>2022-11-17T10:16:54Z</time>
      </trkpt>
      <trkpt lat="44.65377" lon="5.2249">
        <ele>571</ele>
        <time>2022-11-17T10:16:54Z</time>
      </trkpt>
      <trkpt lat="44.65365" lon="5.2249">
        <ele>572</ele>
        <time>2022-11-17T10:16:54Z</time>
      </trkpt>
      <trkpt lat="44.65305" lon="5.22548">
        <ele>577</ele>
        <time>2022-11-17T10:16:54Z</time>
      </trkpt>
      <trkpt lat="44.65295" lon="5.22546">
        <ele>581</ele>
        <time>2022-11-17T10:16:54Z</time>
      </trkpt>
      <trkpt lat="44.65289" lon="5.22535">
        <ele>584</ele>
        <time>2022-11-17T10:16:54Z</time>
      </trkpt>
      <trkpt lat="44.65286" lon="5.22518">
        <ele>586</ele>
        <time>2022-11-17T10:16:54Z</time>
      </trkpt>
      <trkpt lat="44.65281" lon="5.22507">
        <ele>587</ele>
        <time>2022-11-17T10:16:54Z</time>
      </trkpt>
      <trkpt lat="44.65212" lon="5.22505">
        <ele>590</ele>
        <time>2022-11-17T10:16:54Z</time>
      </trkpt>
      <trkpt lat="44.65199" lon="5.22511">
        <ele>592</ele>
        <time>2022-11-17T10:16:54Z</time>
      </trkpt>
      <trkpt lat="44.65145" lon="5.22609">
        <ele>598</ele>
        <time>2022-11-17T10:16:54Z</time>
      </trkpt>
      <trkpt lat="44.65121" lon="5.22623">
        <ele>603</ele>
        <time>2022-11-17T10:16:54Z</time>
      </trkpt>
      <trkpt lat="44.65113" lon="5.22624">
        <ele>607</ele>
        <time>2022-11-17T10:16:54Z</time>
      </trkpt>
      <trkpt lat="44.65105" lon="5.22619">
        <ele>611</ele>
        <time>2022-11-17T10:16:54Z</time>
      </trkpt>
      <trkpt lat="44.65102" lon="5.22561">
        <ele>612</ele>
        <time>2022-11-17T10:16:54Z</time>
      </trkpt>
      <trkpt lat="44.65095" lon="5.22551">
        <ele>614</ele>
        <time>2022-11-17T10:16:54Z</time>
      </trkpt>
      <trkpt lat="44.65084" lon="5.22546">
        <ele>616</ele>
        <time>2022-11-17T10:16:54Z</time>
      </trkpt>
      <trkpt lat="44.65055" lon="5.22542">
        <ele>620</ele>
        <time>2022-11-17T10:16:54Z</time>
      </trkpt>
      <trkpt lat="44.65049" lon="5.22536">
        <ele>624</ele>
        <time>2022-11-17T10:16:54Z</time>
      </trkpt>
      <trkpt lat="44.65039" lon="5.22507">
        <ele>626</ele>
        <time>2022-11-17T10:16:54Z</time>
      </trkpt>
      <trkpt lat="44.65033" lon="5.225">
        <ele>628</ele>
        <time>2022-11-17T10:16:54Z</time>
      </trkpt>
      <trkpt lat="44.65003" lon="5.22473">
        <ele>632</ele>
        <time>2022-11-17T10:16:54Z</time>
      </trkpt>
      <trkpt lat="44.64975" lon="5.22435">
        <ele>635</ele>
        <time>2022-11-17T10:16:54Z</time>
      </trkpt>
      <trkpt lat="44.64965" lon="5.22427">
        <ele>637</ele>
        <time>2022-11-17T10:16:54Z</time>
      </trkpt>
      <trkpt lat="44.64955" lon="5.22424">
        <ele>639</ele>
        <time>2022-11-17T10:16:54Z</time>
      </trkpt>
      <trkpt lat="44.64952" lon="5.22434">
        <ele>641</ele>
        <time>2022-11-17T10:16:54Z</time>
      </trkpt>
      <trkpt lat="44.64952" lon="5.22445">
        <ele>657</ele>
        <time>2022-11-17T10:16:54Z</time>
      </trkpt>
      <trkpt lat="44.64975" lon="5.22469">
        <ele>657</ele>
        <time>2022-11-17T10:16:54Z</time>
      </trkpt>
      <trkpt lat="44.65017" lon="5.22617">
        <ele>662</ele>
        <time>2022-11-17T10:16:54Z</time>
      </trkpt>
      <trkpt lat="44.65019" lon="5.22639">
        <ele>666</ele>
        <time>2022-11-17T10:16:54Z</time>
      </trkpt>
      <trkpt lat="44.65013" lon="5.22741">
        <ele>673</ele>
        <time>2022-11-17T10:16:54Z</time>
      </trkpt>
      <trkpt lat="44.65034" lon="5.22776">
        <ele>677</ele>
        <time>2022-11-17T10:16:54Z</time>
      </trkpt>
      <trkpt lat="44.65057" lon="5.22906">
        <ele>686</ele>
        <time>2022-11-17T10:16:54Z</time>
      </trkpt>
      <trkpt lat="44.65041" lon="5.22971">
        <ele>693</ele>
        <time>2022-11-17T10:16:54Z</time>
      </trkpt>
      <trkpt lat="44.65034" lon="5.22983">
        <ele>697</ele>
        <time>2022-11-17T10:16:54Z</time>
      </trkpt>
      <trkpt lat="44.65024" lon="5.22995">
        <ele>701</ele>
        <time>2022-11-17T10:16:54Z</time>
      </trkpt>
      <trkpt lat="44.64989" lon="5.23006">
        <ele>705</ele>
        <time>2022-11-17T10:16:54Z</time>
      </trkpt>
      <trkpt lat="44.6498" lon="5.23013">
        <ele>709</ele>
        <time>2022-11-17T10:16:54Z</time>
      </trkpt>
      <trkpt lat="44.64954" lon="5.23076">
        <ele>713</ele>
        <time>2022-11-17T10:16:54Z</time>
      </trkpt>
      <trkpt lat="44.64921" lon="5.23114">
        <ele>716</ele>
        <time>2022-11-17T10:16:54Z</time>
      </trkpt>
      <trkpt lat="44.64823" lon="5.23202">
        <ele>724</ele>
        <time>2022-11-17T10:16:54Z</time>
      </trkpt>
      <trkpt lat="44.64807" lon="5.23234">
        <ele>729</ele>
        <time>2022-11-17T10:16:54Z</time>
      </trkpt>
      <trkpt lat="44.64796" lon="5.23273">
        <ele>733</ele>
        <time>2022-11-17T10:16:54Z</time>
      </trkpt>
      <trkpt lat="44.64789" lon="5.23281">
        <ele>735</ele>
        <time>2022-11-17T10:16:54Z</time>
      </trkpt>
      <trkpt lat="44.64754" lon="5.23356">
        <ele>741</ele>
      </trkpt>
      <trkpt lat="44.64718" lon="5.2343">
        <ele>749</ele>
        <time>2022-11-17T10:16:54Z</time>
      </trkpt>
      <trkpt lat="44.64701" lon="5.23445">
        <ele>754</ele>
        <time>2022-11-17T10:16:54Z</time>
      </trkpt>
      <trkpt lat="44.64695" lon="5.23455">
        <ele>757</ele>
        <time>2022-11-17T10:16:54Z</time>
      </trkpt>
      <trkpt lat="44.64621" lon="5.23521">
        <ele>757</ele>
      </trkpt>
      <trkpt lat="44.64546" lon="5.23587">
        <ele>756</ele>
        <time>2022-11-17T10:16:54Z</time>
      </trkpt>
      <trkpt lat="44.64529" lon="5.23478">
        <ele>755</ele>
        <time>2022-11-17T10:16:54Z</time>
      </trkpt>
      <trkpt lat="44.64533" lon="5.23409">
        <ele>755</ele>
        <time>2022-11-17T10:16:54Z</time>
      </trkpt>
      <trkpt lat="44.64552" lon="5.23306">
        <ele>754</ele>
        <time>2022-11-17T10:16:54Z</time>
      </trkpt>
      <trkpt lat="44.64505" lon="5.23261">
        <ele>755</ele>
        <time>2022-11-17T10:16:54Z</time>
      </trkpt>
      <trkpt lat="44.64406" lon="5.23225">
        <ele>760</ele>
        <time>2022-11-17T10:16:54Z</time>
      </trkpt>
      <trkpt lat="44.64412" lon="5.23192">
        <ele>762</ele>
        <time>2022-11-17T10:16:54Z</time>
      </trkpt>
      <trkpt lat="44.64486" lon="5.23139">
        <ele>761</ele>
        <time>2022-11-17T10:16:54Z</time>
      </trkpt>
      <trkpt lat="44.6451" lon="5.2309">
        <ele>762</ele>
        <time>2022-11-17T10:16:54Z</time>
      </trkpt>
      <trkpt lat="44.64505" lon="5.23031">
        <ele>764</ele>
        <time>2022-11-17T10:16:54Z</time>
      </trkpt>
      <trkpt lat="44.64425" lon="5.22945">
        <ele>769</ele>
        <time>2022-11-17T10:16:54Z</time>
      </trkpt>
      <trkpt lat="44.64401" lon="5.22892">
        <ele>770</ele>
        <time>2022-11-17T10:16:54Z</time>
      </trkpt>
      <trkpt lat="44.64347" lon="5.22828">
        <ele>769</ele>
        <time>2022-11-17T10:16:54Z</time>
      </trkpt>
      <trkpt lat="44.64276" lon="5.22806">
        <ele>773</ele>
        <time>2022-11-17T10:16:54Z</time>
      </trkpt>
      <trkpt lat="44.64269" lon="5.22799">
        <ele>775</ele>
        <time>2022-11-17T10:16:54Z</time>
      </trkpt>
      <trkpt lat="44.64228" lon="5.22719">
        <ele>776</ele>
        <time>2022-11-17T10:16:54Z</time>
      </trkpt>
      <trkpt lat="44.64223" lon="5.227">
        <ele>775</ele>
        <time>2022-11-17T10:16:54Z</time>
      </trkpt>
      <trkpt lat="44.64206" lon="5.22677">
        <ele>775</ele>
        <time>2022-11-17T10:16:54Z</time>
      </trkpt>
      <trkpt lat="44.64168" lon="5.22663">
        <ele>776</ele>
        <time>2022-11-17T10:16:54Z</time>
      </trkpt>
      <trkpt lat="44.6416" lon="5.22644">
        <ele>778</ele>
        <time>2022-11-17T10:16:54Z</time>
      </trkpt>
      <trkpt lat="44.64159" lon="5.22618">
        <ele>780</ele>
        <time>2022-11-17T10:16:54Z</time>
      </trkpt>
      <trkpt lat="44.64162" lon="5.22602">
        <ele>781</ele>
        <time>2022-11-17T10:16:54Z</time>
      </trkpt>
      <trkpt lat="44.64183" lon="5.22552">
        <ele>783</ele>
        <time>2022-11-17T10:16:54Z</time>
      </trkpt>
      <trkpt lat="44.64194" lon="5.22541">
        <ele>785</ele>
        <time>2022-11-17T10:16:54Z</time>
      </trkpt>
      <trkpt lat="44.64215" lon="5.22527">
        <ele>785</ele>
        <time>2022-11-17T10:16:54Z</time>
      </trkpt>
      <trkpt lat="44.64219" lon="5.22513">
        <ele>786</ele>
        <time>2022-11-17T10:16:54Z</time>
      </trkpt>
      <trkpt lat="44.64191" lon="5.22463">
        <ele>788</ele>
        <time>2022-11-17T10:16:54Z</time>
      </trkpt>
      <trkpt lat="44.64158" lon="5.22365">
        <ele>791</ele>
        <time>2022-11-17T10:16:54Z</time>
      </trkpt>
      <trkpt lat="44.64151" lon="5.22358">
        <ele>794</ele>
        <time>2022-11-17T10:16:54Z</time>
      </trkpt>
      <trkpt lat="44.64091" lon="5.22311">
        <ele>822</ele>
        <time>2022-11-17T10:16:54Z</time>
      </trkpt>
      <trkpt lat="44.64088" lon="5.22298">
        <ele>822</ele>
        <time>2022-11-17T10:16:54Z</time>
      </trkpt>
      <trkpt lat="44.64089" lon="5.22284">
        <ele>822</ele>
        <time>2022-11-17T10:16:54Z</time>
      </trkpt>
      <trkpt lat="44.64085" lon="5.22272">
        <ele>821</ele>
        <time>2022-11-17T10:16:54Z</time>
      </trkpt>
      <trkpt lat="44.6407" lon="5.22272">
        <ele>822</ele>
        <time>2022-11-17T10:16:54Z</time>
      </trkpt>
      <trkpt lat="44.64061" lon="5.22264">
        <ele>823</ele>
        <time>2022-11-17T10:16:54Z</time>
      </trkpt>
      <trkpt lat="44.64059" lon="5.22253">
        <ele>824</ele>
        <time>2022-11-17T10:16:54Z</time>
      </trkpt>
      <trkpt lat="44.64056" lon="5.22205">
        <ele>823</ele>
        <time>2022-11-17T10:16:54Z</time>
      </trkpt>
      <trkpt lat="44.64052" lon="5.22196">
        <ele>823</ele>
        <time>2022-11-17T10:16:54Z</time>
      </trkpt>
      <trkpt lat="44.64041" lon="5.22178">
        <ele>822</ele>
        <time>2022-11-17T10:16:54Z</time>
      </trkpt>
      <trkpt lat="44.64002" lon="5.22155">
        <ele>822</ele>
        <time>2022-11-17T10:16:54Z</time>
      </trkpt>
      <trkpt lat="44.6397" lon="5.22168">
        <ele>823</ele>
        <time>2022-11-17T10:16:54Z</time>
      </trkpt>
      <trkpt lat="44.63959" lon="5.22168">
        <ele>824</ele>
        <time>2022-11-17T10:16:54Z</time>
      </trkpt>
      <trkpt lat="44.63915" lon="5.22145">
        <ele>826</ele>
        <time>2022-11-17T10:16:54Z</time>
      </trkpt>
      <trkpt lat="44.6391" lon="5.22134">
        <ele>828</ele>
        <time>2022-11-17T10:16:54Z</time>
      </trkpt>
      <trkpt lat="44.63916" lon="5.22079">
        <ele>830</ele>
        <time>2022-11-17T10:16:54Z</time>
      </trkpt>
      <trkpt lat="44.63904" lon="5.21972">
        <ele>832</ele>
        <time>2022-11-17T10:16:54Z</time>
      </trkpt>
      <trkpt lat="44.63898" lon="5.21959">
        <ele>834</ele>
        <time>2022-11-17T10:16:54Z</time>
      </trkpt>
      <trkpt lat="44.63885" lon="5.21947">
        <ele>836</ele>
        <time>2022-11-17T10:16:54Z</time>
      </trkpt>
      <trkpt lat="44.63878" lon="5.21927">
        <ele>838</ele>
        <time>2022-11-17T10:16:54Z</time>
      </trkpt>
      <trkpt lat="44.63878" lon="5.21915">
        <ele>839</ele>
        <time>2022-11-17T10:16:54Z</time>
      </trkpt>
      <trkpt lat="44.63875" lon="5.21905">
        <ele>839</ele>
        <time>2022-11-17T10:16:54Z</time>
      </trkpt>
      <trkpt lat="44.63868" lon="5.2189">
        <ele>840</ele>
        <time>2022-11-17T10:16:54Z</time>
      </trkpt>
      <trkpt lat="44.63665" lon="5.21678">
        <ele>845</ele>
        <time>2022-11-17T10:16:54Z</time>
      </trkpt>
      <trkpt lat="44.63593" lon="5.21638">
        <ele>850</ele>
        <time>2022-11-17T10:16:54Z</time>
      </trkpt>
      <trkpt lat="44.63349" lon="5.21559">
        <ele>862</ele>
        <time>2022-11-17T10:16:54Z</time>
      </trkpt>
      <trkpt lat="44.63332" lon="5.21547">
        <ele>867</ele>
        <time>2022-11-17T10:16:54Z</time>
      </trkpt>
      <trkpt lat="44.63323" lon="5.21531">
        <ele>870</ele>
        <time>2022-11-17T10:16:54Z</time>
      </trkpt>
      <trkpt lat="44.63319" lon="5.21515">
        <ele>872</ele>
        <time>2022-11-17T10:16:54Z</time>
      </trkpt>
      <trkpt lat="44.63213" lon="5.21596">
        <ele>876</ele>
        <time>2022-11-17T10:16:54Z</time>
      </trkpt>
      <trkpt lat="44.63217" lon="5.21615">
        <ele>879</ele>
        <time>2022-11-17T10:16:54Z</time>
      </trkpt>
      <trkpt lat="44.63231" lon="5.21641">
        <ele>881</ele>
        <time>2022-11-17T10:16:54Z</time>
      </trkpt>
      <trkpt lat="44.63236" lon="5.21661">
        <ele>884</ele>
        <time>2022-11-17T10:16:54Z</time>
      </trkpt>
      <trkpt lat="44.63235" lon="5.2168">
        <ele>886</ele>
        <time>2022-11-17T10:16:54Z</time>
      </trkpt>
      <trkpt lat="44.6323" lon="5.21691">
        <ele>888</ele>
        <time>2022-11-17T10:16:54Z</time>
      </trkpt>
      <trkpt lat="44.63228" lon="5.21705">
        <ele>889</ele>
        <time>2022-11-17T10:16:54Z</time>
      </trkpt>
      <trkpt lat="44.63239" lon="5.2177">
        <ele>893</ele>
        <time>2022-11-17T10:16:54Z</time>
      </trkpt>
      <trkpt lat="44.63222" lon="5.21811">
        <ele>896</ele>
        <time>2022-11-17T10:16:54Z</time>
      </trkpt>
      <trkpt lat="44.63215" lon="5.21819">
        <ele>898</ele>
        <time>2022-11-17T10:16:54Z</time>
      </trkpt>
      <trkpt lat="44.63211" lon="5.21832">
        <ele>900</ele>
        <time>2022-11-17T10:16:54Z</time>
      </trkpt>
      <trkpt lat="44.63218" lon="5.21841">
        <ele>902</ele>
        <time>2022-11-17T10:16:54Z</time>
      </trkpt>
      <trkpt lat="44.63235" lon="5.21828">
        <ele>904</ele>
        <time>2022-11-17T10:16:54Z</time>
      </trkpt>
      <trkpt lat="44.63259" lon="5.21823">
        <ele>905</ele>
        <time>2022-11-17T10:16:54Z</time>
      </trkpt>
      <trkpt lat="44.63316" lon="5.21841">
        <ele>909</ele>
        <time>2022-11-17T10:16:54Z</time>
      </trkpt>
      <trkpt lat="44.63328" lon="5.21841">
        <ele>911</ele>
        <time>2022-11-17T10:16:54Z</time>
      </trkpt>
      <trkpt lat="44.63339" lon="5.21845">
        <ele>913</ele>
        <time>2022-11-17T10:16:54Z</time>
      </trkpt>
      <trkpt lat="44.63347" lon="5.21852">
        <ele>914</ele>
        <time>2022-11-17T10:16:54Z</time>
      </trkpt>
      <trkpt lat="44.6335" lon="5.21913">
        <ele>918</ele>
        <time>2022-11-17T10:16:54Z</time>
      </trkpt>
      <trkpt lat="44.63374" lon="5.21947">
        <ele>923</ele>
        <time>2022-11-17T10:16:54Z</time>
      </trkpt>
      <trkpt lat="44.63464" lon="5.22026">
        <ele>928</ele>
        <time>2022-11-17T10:16:54Z</time>
      </trkpt>
      <trkpt lat="44.63581" lon="5.2216">
        <ele>953</ele>
        <time>2022-11-17T10:16:54Z</time>
      </trkpt>
      <trkpt lat="44.63596" lon="5.22205">
        <ele>955</ele>
        <time>2022-11-17T10:16:54Z</time>
      </trkpt>
      <trkpt lat="44.63606" lon="5.22217">
        <ele>955</ele>
        <time>2022-11-17T10:16:54Z</time>
      </trkpt>
      <trkpt lat="44.63639" lon="5.2223">
        <ele>955</ele>
        <time>2022-11-17T10:16:54Z</time>
      </trkpt>
      <trkpt lat="44.6367" lon="5.22279">
        <ele>954</ele>
        <time>2022-11-17T10:16:54Z</time>
      </trkpt>
      <trkpt lat="44.63679" lon="5.22321">
        <ele>953</ele>
        <time>2022-11-17T10:16:54Z</time>
      </trkpt>
      <trkpt lat="44.63679" lon="5.22331">
        <ele>953</ele>
        <time>2022-11-17T10:16:54Z</time>
      </trkpt>
      <trkpt lat="44.63684" lon="5.22348">
        <ele>953</ele>
        <time>2022-11-17T10:16:54Z</time>
      </trkpt>
      <trkpt lat="44.63708" lon="5.22377">
        <ele>953</ele>
        <time>2022-11-17T10:16:54Z</time>
      </trkpt>
      <trkpt lat="44.63729" lon="5.22381">
        <ele>953</ele>
        <time>2022-11-17T10:16:54Z</time>
      </trkpt>
      <trkpt lat="44.63789" lon="5.22424">
        <ele>952</ele>
        <time>2022-11-17T10:16:54Z</time>
      </trkpt>
      <trkpt lat="44.63795" lon="5.22433">
        <ele>951</ele>
        <time>2022-11-17T10:16:54Z</time>
      </trkpt>
      <trkpt lat="44.63797" lon="5.22468">
        <ele>952</ele>
        <time>2022-11-17T10:16:54Z</time>
      </trkpt>
      <trkpt lat="44.63803" lon="5.22482">
        <ele>953</ele>
        <time>2022-11-17T10:16:54Z</time>
      </trkpt>
      <trkpt lat="44.63838" lon="5.22523">
        <ele>953</ele>
        <time>2022-11-17T10:16:54Z</time>
      </trkpt>
      <trkpt lat="44.63889" lon="5.22546">
        <ele>953</ele>
        <time>2022-11-17T10:16:54Z</time>
      </trkpt>
      <trkpt lat="44.63898" lon="5.22554">
        <ele>952</ele>
        <time>2022-11-17T10:16:54Z</time>
      </trkpt>
      <trkpt lat="44.6391" lon="5.22573">
        <ele>951</ele>
        <time>2022-11-17T10:16:54Z</time>
      </trkpt>
      <trkpt lat="44.63906" lon="5.22596">
        <ele>951</ele>
        <time>2022-11-17T10:16:54Z</time>
      </trkpt>
      <trkpt lat="44.63893" lon="5.22629">
        <ele>953</ele>
        <time>2022-11-17T10:16:54Z</time>
      </trkpt>
      <trkpt lat="44.63891" lon="5.22654">
        <ele>954</ele>
        <time>2022-11-17T10:16:54Z</time>
      </trkpt>
      <trkpt lat="44.63898" lon="5.22739">
        <ele>955</ele>
        <time>2022-11-17T10:16:54Z</time>
      </trkpt>
      <trkpt lat="44.63876" lon="5.22914">
        <ele>958</ele>
        <time>2022-11-17T10:16:54Z</time>
      </trkpt>
      <trkpt lat="44.63878" lon="5.22932">
        <ele>960</ele>
        <time>2022-11-17T10:16:54Z</time>
      </trkpt>
      <trkpt lat="44.63887" lon="5.22951">
        <ele>961</ele>
        <time>2022-11-17T10:16:54Z</time>
      </trkpt>
      <trkpt lat="44.63927" lon="5.22994">
        <ele>960</ele>
        <time>2022-11-17T10:16:54Z</time>
      </trkpt>
      <trkpt lat="44.63944" lon="5.23028">
        <ele>961</ele>
        <time>2022-11-17T10:16:54Z</time>
      </trkpt>
      <trkpt lat="44.63968" lon="5.2305">
        <ele>963</ele>
        <time>2022-11-17T10:16:54Z</time>
      </trkpt>
      <trkpt lat="44.64049" lon="5.23074">
        <ele>962</ele>
        <time>2022-11-17T10:16:54Z</time>
      </trkpt>
      <trkpt lat="44.64057" lon="5.23083">
        <ele>961</ele>
        <time>2022-11-17T10:16:54Z</time>
      </trkpt>
      <trkpt lat="44.64057" lon="5.23095">
        <ele>960</ele>
        <time>2022-11-17T10:16:54Z</time>
      </trkpt>
      <trkpt lat="44.63961" lon="5.23256">
        <ele>962</ele>
        <time>2022-11-17T10:16:54Z</time>
      </trkpt>
      <trkpt lat="44.63953" lon="5.2329">
        <ele>964</ele>
        <time>2022-11-17T10:16:54Z</time>
      </trkpt>
      <trkpt lat="44.63964" lon="5.23351">
        <ele>966</ele>
        <time>2022-11-17T10:16:54Z</time>
      </trkpt>
      <trkpt lat="44.64015" lon="5.2345">
        <ele>969</ele>
        <time>2022-11-17T10:16:54Z</time>
      </trkpt>
      <trkpt lat="44.64017" lon="5.23465">
        <ele>971</ele>
        <time>2022-11-17T10:16:54Z</time>
      </trkpt>
      <trkpt lat="44.64017" lon="5.2348">
        <ele>972</ele>
        <time>2022-11-17T10:16:54Z</time>
      </trkpt>
      <trkpt lat="44.63876" lon="5.23592">
        <ele>981</ele>
        <time>2022-11-17T10:16:54Z</time>
      </trkpt>
      <trkpt lat="44.63871" lon="5.23605">
        <ele>986</ele>
        <time>2022-11-17T10:16:54Z</time>
      </trkpt>
      <trkpt lat="44.63887" lon="5.2374">
        <ele>992</ele>
        <time>2022-11-17T10:16:54Z</time>
      </trkpt>
      <trkpt lat="44.63912" lon="5.23814">
        <ele>995</ele>
        <time>2022-11-17T10:16:54Z</time>
      </trkpt>
      <trkpt lat="44.63903" lon="5.23826">
        <ele>998</ele>
        <time>2022-11-17T10:16:54Z</time>
      </trkpt>
      <trkpt lat="44.63832" lon="5.2388">
        <ele>1001</ele>
        <time>2022-11-17T10:16:54Z</time>
      </trkpt>
      <trkpt lat="44.63762" lon="5.24025">
        <ele>1000</ele>
        <time>2022-11-17T10:16:54Z</time>
      </trkpt>
      <trkpt lat="44.63742" lon="5.24047">
        <ele>999</ele>
        <time>2022-11-17T10:16:54Z</time>
      </trkpt>
      <trkpt lat="44.63734" lon="5.24051">
        <ele>998</ele>
        <time>2022-11-17T10:16:54Z</time>
      </trkpt>
      <trkpt lat="44.63725" lon="5.24052">
        <ele>998</ele>
        <time>2022-11-17T10:16:54Z</time>
      </trkpt>
      <trkpt lat="44.63714" lon="5.24049">
        <ele>999</ele>
        <time>2022-11-17T10:16:54Z</time>
      </trkpt>
      <trkpt lat="44.63701" lon="5.24055">
        <ele>999</ele>
        <time>2022-11-17T10:16:54Z</time>
      </trkpt>
      <trkpt lat="44.63693" lon="5.24066">
        <ele>999</ele>
        <time>2022-11-17T10:16:54Z</time>
      </trkpt>
      <trkpt lat="44.63688" lon="5.24093">
        <ele>997</ele>
        <time>2022-11-17T10:16:54Z</time>
      </trkpt>
      <trkpt lat="44.6367" lon="5.24126">
        <ele>997</ele>
        <time>2022-11-17T10:16:54Z</time>
      </trkpt>
      <trkpt lat="44.63663" lon="5.24164">
        <ele>997</ele>
        <time>2022-11-17T10:16:54Z</time>
      </trkpt>
      <trkpt lat="44.6363" lon="5.24137">
        <ele>997</ele>
        <time>2022-11-17T10:16:54Z</time>
      </trkpt>
      <trkpt lat="44.63589" lon="5.2412">
        <ele>997</ele>
        <time>2022-11-17T10:16:54Z</time>
      </trkpt>
      <trkpt lat="44.63487" lon="5.24094">
        <ele>992</ele>
        <time>2022-11-17T10:16:54Z</time>
      </trkpt>
      <trkpt lat="44.63418" lon="5.24104">
        <ele>986</ele>
        <time>2022-11-17T10:16:54Z</time>
      </trkpt>
      <trkpt lat="44.63343" lon="5.24066">
        <ele>977</ele>
      </trkpt>
      <trkpt lat="44.63267" lon="5.24028">
        <ele>963</ele>
        <time>2022-11-17T10:16:54Z</time>
      </trkpt>
      <trkpt lat="44.63222" lon="5.2408">
        <ele>957</ele>
        <time>2022-11-17T10:16:54Z</time>
      </trkpt>
      <trkpt lat="44.63158" lon="5.24107">
        <ele>951</ele>
      </trkpt>
      <trkpt lat="44.63095" lon="5.24134">
        <ele>946</ele>
      </trkpt>
      <trkpt lat="44.63031" lon="5.2416">
        <ele>940</ele>
      </trkpt>
      <trkpt lat="44.62967" lon="5.24187">
        <ele>929</ele>
        <time>2022-11-17T10:16:54Z</time>
      </trkpt>
      <trkpt lat="44.63002" lon="5.24246">
        <ele>921</ele>
      </trkpt>
      <trkpt lat="44.63037" lon="5.24305">
        <ele>915</ele>
        <time>2022-11-17T10:16:54Z</time>
      </trkpt>
      <trkpt lat="44.63098" lon="5.2438">
        <ele>911</ele>
        <time>2022-11-17T10:16:54Z</time>
      </trkpt>
      <trkpt lat="44.63115" lon="5.24445">
        <ele>906</ele>
        <time>2022-11-17T10:16:54Z</time>
      </trkpt>
      <trkpt lat="44.63077" lon="5.24528">
        <ele>906</ele>
        <time>2022-11-17T10:16:54Z</time>
      </trkpt>
      <trkpt lat="44.63002" lon="5.24625">
        <ele>906</ele>
        <time>2022-11-17T10:16:54Z</time>
      </trkpt>
      <trkpt lat="44.63086" lon="5.24689">
        <ele>909</ele>
      </trkpt>
      <trkpt lat="44.6317" lon="5.24754">
        <ele>912</ele>
        <time>2022-11-17T10:16:54Z</time>
      </trkpt>
      <trkpt lat="44.6322" lon="5.24822">
        <ele>915</ele>
        <time>2022-11-17T10:16:54Z</time>
      </trkpt>
      <trkpt lat="44.63214" lon="5.24865">
        <ele>915</ele>
        <time>2022-11-17T10:16:54Z</time>
      </trkpt>
      <trkpt lat="44.63255" lon="5.24899">
        <ele>916</ele>
        <time>2022-11-17T10:16:54Z</time>
      </trkpt>
      <trkpt lat="44.63235" lon="5.24928">
        <ele>915</ele>
        <time>2022-11-17T10:16:54Z</time>
      </trkpt>
      <trkpt lat="44.63226" lon="5.24951">
        <ele>914</ele>
        <time>2022-11-17T10:16:54Z</time>
      </trkpt>
      <trkpt lat="44.632" lon="5.24982">
        <ele>911</ele>
        <time>2022-11-17T10:16:54Z</time>
      </trkpt>
      <trkpt lat="44.63198" lon="5.24993">
        <ele>909</ele>
        <time>2022-11-17T10:16:54Z</time>
      </trkpt>
      <trkpt lat="44.63181" lon="5.25023">
        <ele>906</ele>
        <time>2022-11-17T10:16:54Z</time>
      </trkpt>
      <trkpt lat="44.63174" lon="5.2503">
        <ele>904</ele>
        <time>2022-11-17T10:16:54Z</time>
      </trkpt>
      <trkpt lat="44.6316" lon="5.25057">
        <ele>902</ele>
        <time>2022-11-17T10:16:54Z</time>
      </trkpt>
      <trkpt lat="44.63101" lon="5.25104">
        <ele>897</ele>
        <time>2022-11-17T10:16:54Z</time>
      </trkpt>
      <trkpt lat="44.63093" lon="5.25118">
        <ele>894</ele>
        <time>2022-11-17T10:16:54Z</time>
      </trkpt>
      <trkpt lat="44.63088" lon="5.25133">
        <ele>891</ele>
        <time>2022-11-17T10:16:54Z</time>
      </trkpt>
      <trkpt lat="44.63078" lon="5.2519">
        <ele>888</ele>
        <time>2022-11-17T10:16:54Z</time>
      </trkpt>
      <trkpt lat="44.63077" lon="5.25193">
        <ele>886</ele>
        <time>2022-11-17T10:16:54Z</time>
      </trkpt>
      <trkpt lat="44.6309" lon="5.25126">
        <ele>884</ele>
        <time>2022-11-17T10:16:54Z</time>
      </trkpt>
      <trkpt lat="44.63096" lon="5.25109">
        <ele>884</ele>
        <time>2022-11-17T10:16:54Z</time>
      </trkpt>
      <trkpt lat="44.63156" lon="5.2506">
        <ele>886</ele>
        <time>2022-11-17T10:16:54Z</time>
      </trkpt>
      <trkpt lat="44.63174" lon="5.2503">
        <ele>887</ele>
        <time>2022-11-17T10:16:54Z</time>
      </trkpt>
      <trkpt lat="44.63181" lon="5.25023">
        <ele>889</ele>
        <time>2022-11-17T10:16:54Z</time>
      </trkpt>
      <trkpt lat="44.63195" lon="5.25001">
        <ele>890</ele>
        <time>2022-11-17T10:16:54Z</time>
      </trkpt>
      <trkpt lat="44.63198" lon="5.24986">
        <ele>892</ele>
        <time>2022-11-17T10:16:54Z</time>
      </trkpt>
      <trkpt lat="44.63229" lon="5.24946">
        <ele>895</ele>
        <time>2022-11-17T10:16:54Z</time>
      </trkpt>
      <trkpt lat="44.63231" lon="5.24934">
        <ele>898</ele>
        <time>2022-11-17T10:16:54Z</time>
      </trkpt>
      <trkpt lat="44.63244" lon="5.24915">
        <ele>901</ele>
        <time>2022-11-17T10:16:54Z</time>
      </trkpt>
      <trkpt lat="44.63252" lon="5.24907">
        <ele>904</ele>
        <time>2022-11-17T10:16:54Z</time>
      </trkpt>
      <trkpt lat="44.63256" lon="5.24888">
        <ele>907</ele>
        <time>2022-11-17T10:16:54Z</time>
      </trkpt>
      <trkpt lat="44.63306" lon="5.24827">
        <ele>913</ele>
        <time>2022-11-17T10:16:54Z</time>
      </trkpt>
      <trkpt lat="44.63329" lon="5.24812">
        <ele>919</ele>
        <time>2022-11-17T10:16:54Z</time>
      </trkpt>
      <trkpt lat="44.63392" lon="5.24797">
        <ele>926</ele>
        <time>2022-11-17T10:16:54Z</time>
      </trkpt>
      <trkpt lat="44.63468" lon="5.24804">
        <ele>935</ele>
      </trkpt>
      <trkpt lat="44.63543" lon="5.2481">
        <ele>945</ele>
        <time>2022-11-17T10:16:54Z</time>
      </trkpt>
      <trkpt lat="44.63568" lon="5.24822">
        <ele>951</ele>
        <time>2022-11-17T10:16:54Z</time>
      </trkpt>
      <trkpt lat="44.63636" lon="5.24824">
        <ele>958</ele>
      </trkpt>
      <trkpt lat="44.63704" lon="5.24825">
        <ele>966</ele>
        <time>2022-11-17T10:16:54Z</time>
      </trkpt>
      <trkpt lat="44.63713" lon="5.24871">
        <ele>970</ele>
        <time>2022-11-17T10:16:54Z</time>
      </trkpt>
      <trkpt lat="44.63731" lon="5.24891">
        <ele>985</ele>
        <time>2022-11-17T10:16:54Z</time>
      </trkpt>
      <trkpt lat="44.63776" lon="5.24903">
        <ele>988</ele>
      </trkpt>
      <trkpt lat="44.63821" lon="5.24915">
        <ele>992</ele>
        <time>2022-11-17T10:16:54Z</time>
      </trkpt>
      <trkpt lat="44.63853" lon="5.2497">
        <ele>995</ele>
        <time>2022-11-17T10:16:54Z</time>
      </trkpt>
      <trkpt lat="44.63866" lon="5.25008">
        <ele>998</ele>
        <time>2022-11-17T10:16:54Z</time>
      </trkpt>
      <trkpt lat="44.63868" lon="5.24989">
        <ele>999</ele>
        <time>2022-11-17T10:16:54Z</time>
      </trkpt>
      <trkpt lat="44.63858" lon="5.24935">
        <ele>1001</ele>
        <time>2022-11-17T10:16:54Z</time>
      </trkpt>
      <trkpt lat="44.6387" lon="5.24911">
        <ele>1002</ele>
        <time>2022-11-17T10:16:54Z</time>
      </trkpt>
      <trkpt lat="44.63883" lon="5.24897">
        <ele>1004</ele>
        <time>2022-11-17T10:16:54Z</time>
      </trkpt>
      <trkpt lat="44.63888" lon="5.24887">
        <ele>1005</ele>
        <time>2022-11-17T10:16:54Z</time>
      </trkpt>
      <trkpt lat="44.6392" lon="5.24838">
        <ele>1007</ele>
      </trkpt>
      <trkpt lat="44.63952" lon="5.24789">
        <ele>1009</ele>
        <time>2022-11-17T10:16:54Z</time>
      </trkpt>
      <trkpt lat="44.63984" lon="5.24705">
        <ele>1014</ele>
        <time>2022-11-17T10:16:54Z</time>
      </trkpt>
      <trkpt lat="44.64038" lon="5.24644">
        <ele>1020</ele>
      </trkpt>
      <trkpt lat="44.64091" lon="5.24582">
        <ele>1027</ele>
        <time>2022-11-17T10:16:54Z</time>
      </trkpt>
      <trkpt lat="44.641" lon="5.24558">
        <ele>1032</ele>
        <time>2022-11-17T10:16:54Z</time>
      </trkpt>
      <trkpt lat="44.64109" lon="5.24558">
        <ele>1035</ele>
        <time>2022-11-17T10:16:54Z</time>
      </trkpt>
      <trkpt lat="44.64111" lon="5.24548">
        <ele>1037</ele>
        <time>2022-11-17T10:16:54Z</time>
      </trkpt>
      <trkpt lat="44.64184" lon="5.24527">
        <ele>1039</ele>
      </trkpt>
      <trkpt lat="44.64257" lon="5.24506">
        <ele>1037</ele>
      </trkpt>
      <trkpt lat="44.64329" lon="5.24485">
        <ele>1034</ele>
      </trkpt>
      <trkpt lat="44.64402" lon="5.24464">
        <ele>1027</ele>
        <time>2022-11-17T10:16:54Z</time>
      </trkpt>
      <trkpt lat="44.64444" lon="5.24426">
        <ele>1024</ele>
      </trkpt>
      <trkpt lat="44.64486" lon="5.24387">
        <ele>1023</ele>
        <time>2022-11-17T10:16:54Z</time>
      </trkpt>
      <trkpt lat="44.64566" lon="5.24352">
        <ele>1018</ele>
      </trkpt>
      <trkpt lat="44.64646" lon="5.24316">
        <ele>1013</ele>
        <time>2022-11-17T10:16:54Z</time>
      </trkpt>
      <trkpt lat="44.64721" lon="5.24257">
        <ele>1010</ele>
      </trkpt>
      <trkpt lat="44.64759" lon="5.24228">
        <ele>1009</ele>
      </trkpt>
      <trkpt lat="44.64796" lon="5.24198">
        <ele>1007</ele>
        <time>2022-11-17T10:16:54Z</time>
      </trkpt>
      <trkpt lat="44.64847" lon="5.24138">
        <ele>1005</ele>
        <time>2022-11-17T10:16:54Z</time>
      </trkpt>
      <trkpt lat="44.64872" lon="5.24078">
        <ele>1002</ele>
        <time>2022-11-17T10:16:54Z</time>
      </trkpt>
      <trkpt lat="44.64922" lon="5.24039">
        <ele>999</ele>
        <time>2022-11-17T10:16:54Z</time>
      </trkpt>
      <trkpt lat="44.64874" lon="5.23966">
        <ele>992</ele>
        <time>2022-11-17T10:16:54Z</time>
      </trkpt>
      <trkpt lat="44.64955" lon="5.23962">
        <ele>982</ele>
        <time>2022-11-17T10:16:54Z</time>
      </trkpt>
      <trkpt lat="44.65014" lon="5.24005">
        <ele>971</ele>
        <time>2022-11-17T10:16:54Z</time>
      </trkpt>
      <trkpt lat="44.65062" lon="5.24012">
        <ele>961</ele>
      </trkpt>
      <trkpt lat="44.6511" lon="5.24018">
        <ele>949</ele>
        <time>2022-11-17T10:16:54Z</time>
      </trkpt>
      <trkpt lat="44.65151" lon="5.24048">
        <ele>940</ele>
        <time>2022-11-17T10:16:54Z</time>
      </trkpt>
      <trkpt lat="44.65173" lon="5.24048">
        <ele>932</ele>
        <time>2022-11-17T10:16:54Z</time>
      </trkpt>
      <trkpt lat="44.65149" lon="5.24115">
        <ele>927</ele>
      </trkpt>
      <trkpt lat="44.65125" lon="5.24181">
        <ele>920</ele>
        <time>2022-11-17T10:16:54Z</time>
      </trkpt>
      <trkpt lat="44.65154" lon="5.24137">
        <ele>916</ele>
      </trkpt>
      <trkpt lat="44.65183" lon="5.24092">
        <ele>912</ele>
      </trkpt>
      <trkpt lat="44.65212" lon="5.24048">
        <ele>907</ele>
      </trkpt>
      <trkpt lat="44.65241" lon="5.24003">
        <ele>899</ele>
        <time>2022-11-17T10:16:54Z</time>
      </trkpt>
      <trkpt lat="44.65229" lon="5.24112">
        <ele>893</ele>
      </trkpt>
      <trkpt lat="44.65216" lon="5.24221">
        <ele>885</ele>
        <time>2022-11-17T10:16:54Z</time>
      </trkpt>
      <trkpt lat="44.6524" lon="5.24291">
        <ele>877</ele>
      </trkpt>
      <trkpt lat="44.65263" lon="5.24361">
        <ele>870</ele>
        <time>2022-11-17T10:16:54Z</time>
      </trkpt>
      <trkpt lat="44.65296" lon="5.2427">
        <ele>861</ele>
        <time>2022-11-17T10:16:54Z</time>
      </trkpt>
      <trkpt lat="44.65303" lon="5.24279">
        <ele>855</ele>
        <time>2022-11-17T10:16:54Z</time>
      </trkpt>
      <trkpt lat="44.6532" lon="5.24282">
        <ele>851</ele>
        <time>2022-11-17T10:16:54Z</time>
      </trkpt>
      <trkpt lat="44.65343" lon="5.24276">
        <ele>848</ele>
        <time>2022-11-17T10:16:54Z</time>
      </trkpt>
      <trkpt lat="44.65359" lon="5.24264">
        <ele>846</ele>
        <time>2022-11-17T10:16:54Z</time>
      </trkpt>
      <trkpt lat="44.65412" lon="5.24183">
        <ele>841</ele>
        <time>2022-11-17T10:16:54Z</time>
      </trkpt>
      <trkpt lat="44.65446" lon="5.24155">
        <ele>838</ele>
        <time>2022-11-17T10:16:54Z</time>
      </trkpt>
      <trkpt lat="44.65492" lon="5.2409">
        <ele>835</ele>
      </trkpt>
      <trkpt lat="44.65538" lon="5.24025">
        <ele>830</ele>
        <time>2022-11-17T10:16:54Z</time>
      </trkpt>
      <trkpt lat="44.6556" lon="5.24009">
        <ele>828</ele>
        <time>2022-11-17T10:16:54Z</time>
      </trkpt>
      <trkpt lat="44.65566" lon="5.24">
        <ele>828</ele>
        <time>2022-11-17T10:16:54Z</time>
      </trkpt>
      <trkpt lat="44.65589" lon="5.2395">
        <ele>826</ele>
        <time>2022-11-17T10:16:54Z</time>
      </trkpt>
      <trkpt lat="44.65629" lon="5.23901">
        <ele>824</ele>
        <time>2022-11-17T10:16:54Z</time>
      </trkpt>
      <trkpt lat="44.65665" lon="5.23874">
        <ele>824</ele>
        <time>2022-11-17T10:16:54Z</time>
      </trkpt>
      <trkpt lat="44.65693" lon="5.23863">
        <ele>825</ele>
        <time>2022-11-17T10:16:54Z</time>
      </trkpt>
      <trkpt lat="44.657" lon="5.23851">
        <ele>826</ele>
        <time>2022-11-17T10:16:54Z</time>
      </trkpt>
      <trkpt lat="44.65703" lon="5.2384">
        <ele>827</ele>
        <time>2022-11-17T10:16:54Z</time>
      </trkpt>
      <trkpt lat="44.657" lon="5.23815">
        <ele>826</ele>
        <time>2022-11-17T10:16:54Z</time>
      </trkpt>
      <trkpt lat="44.65704" lon="5.23794">
        <ele>825</ele>
        <time>2022-11-17T10:16:54Z</time>
      </trkpt>
      <trkpt lat="44.65729" lon="5.23739">
        <ele>826</ele>
        <time>2022-11-17T10:16:54Z</time>
      </trkpt>
      <trkpt lat="44.65768" lon="5.23711">
        <ele>829</ele>
        <time>2022-11-17T10:16:54Z</time>
      </trkpt>
      <trkpt lat="44.65811" lon="5.23591">
        <ele>830</ele>
        <time>2022-11-17T10:16:54Z</time>
      </trkpt>
      <trkpt lat="44.65833" lon="5.23569">
        <ele>832</ele>
        <time>2022-11-17T10:16:54Z</time>
      </trkpt>
      <trkpt lat="44.65898" lon="5.23466">
        <ele>832</ele>
        <time>2022-11-17T10:16:54Z</time>
      </trkpt>
      <trkpt lat="44.65927" lon="5.23441">
        <ele>833</ele>
        <time>2022-11-17T10:16:54Z</time>
      </trkpt>
      <trkpt lat="44.65978" lon="5.23417">
        <ele>838</ele>
        <time>2022-11-17T10:16:54Z</time>
      </trkpt>
      <trkpt lat="44.65997" lon="5.23395">
        <ele>840</ele>
        <time>2022-11-17T10:16:54Z</time>
      </trkpt>
      <trkpt lat="44.66035" lon="5.23315">
        <ele>841</ele>
        <time>2022-11-17T10:16:54Z</time>
      </trkpt>
      <trkpt lat="44.66113" lon="5.23233">
        <ele>848</ele>
        <time>2022-11-17T10:16:54Z</time>
      </trkpt>
      <trkpt lat="44.66165" lon="5.23133">
        <ele>849</ele>
        <time>2022-11-17T10:16:54Z</time>
      </trkpt>
      <trkpt lat="44.66304" lon="5.23">
        <ele>854</ele>
        <time>2022-11-17T10:16:54Z</time>
      </trkpt>
      <trkpt lat="44.66394" lon="5.22942">
        <ele>863</ele>
        <time>2022-11-17T10:16:54Z</time>
      </trkpt>
      <trkpt lat="44.66416" lon="5.2291">
        <ele>867</ele>
        <time>2022-11-17T10:16:54Z</time>
      </trkpt>
      <trkpt lat="44.66433" lon="5.22869">
        <ele>868</ele>
        <time>2022-11-17T10:16:54Z</time>
      </trkpt>
      <trkpt lat="44.66451" lon="5.22861">
        <ele>868</ele>
        <time>2022-11-17T10:16:54Z</time>
      </trkpt>
      <trkpt lat="44.66471" lon="5.22864">
        <ele>868</ele>
        <time>2022-11-17T10:16:54Z</time>
      </trkpt>
      <trkpt lat="44.6651" lon="5.22851">
        <ele>866</ele>
        <time>2022-11-17T10:16:54Z</time>
      </trkpt>
      <trkpt lat="44.66544" lon="5.22815">
        <ele>863</ele>
        <time>2022-11-17T10:16:54Z</time>
      </trkpt>
      <trkpt lat="44.6653" lon="5.22789">
        <ele>858</ele>
        <time>2022-11-17T10:16:54Z</time>
      </trkpt>
      <trkpt lat="44.66533" lon="5.22777">
        <ele>853</ele>
        <time>2022-11-17T10:16:54Z</time>
      </trkpt>
      <trkpt lat="44.6672" lon="5.22556">
        <ele>829</ele>
        <time>2022-11-17T10:16:54Z</time>
      </trkpt>
      <trkpt lat="44.66738" lon="5.22507">
        <ele>816</ele>
        <time>2022-11-17T10:16:54Z</time>
      </trkpt>
      <trkpt lat="44.66727" lon="5.22483">
        <ele>808</ele>
        <time>2022-11-17T10:16:54Z</time>
      </trkpt>
      <trkpt lat="44.66662" lon="5.22403">
        <ele>796</ele>
        <time>2022-11-17T10:16:54Z</time>
      </trkpt>
      <trkpt lat="44.66651" lon="5.22405">
        <ele>787</ele>
        <time>2022-11-17T10:16:54Z</time>
      </trkpt>
      <trkpt lat="44.66671" lon="5.22479">
        <ele>780</ele>
        <time>2022-11-17T10:16:54Z</time>
      </trkpt>
      <trkpt lat="44.66683" lon="5.225">
        <ele>776</ele>
        <time>2022-11-17T10:16:54Z</time>
      </trkpt>
      <trkpt lat="44.66673" lon="5.22517">
        <ele>773</ele>
        <time>2022-11-17T10:16:54Z</time>
      </trkpt>
      <trkpt lat="44.66656" lon="5.22536">
        <ele>769</ele>
        <time>2022-11-17T10:16:54Z</time>
      </trkpt>
      <trkpt lat="44.66567" lon="5.22568">
        <ele>763</ele>
        <time>2022-11-17T10:16:54Z</time>
      </trkpt>
      <trkpt lat="44.66537" lon="5.22566">
        <ele>756</ele>
        <time>2022-11-17T10:16:54Z</time>
      </trkpt>
      <trkpt lat="44.66508" lon="5.22585">
        <ele>752</ele>
        <time>2022-11-17T10:16:54Z</time>
      </trkpt>
      <trkpt lat="44.66489" lon="5.22589">
        <ele>751</ele>
        <time>2022-11-17T10:16:54Z</time>
      </trkpt>
      <trkpt lat="44.66478" lon="5.22585">
        <ele>749</ele>
        <time>2022-11-17T10:16:54Z</time>
      </trkpt>
      <trkpt lat="44.66458" lon="5.22561">
        <ele>746</ele>
        <time>2022-11-17T10:16:54Z</time>
      </trkpt>
      <trkpt lat="44.66451" lon="5.22548">
        <ele>743</ele>
        <time>2022-11-17T10:16:54Z</time>
      </trkpt>
      <trkpt lat="44.66501" lon="5.2254">
        <ele>738</ele>
        <time>2022-11-17T10:16:54Z</time>
      </trkpt>
      <trkpt lat="44.66511" lon="5.2252">
        <ele>733</ele>
        <time>2022-11-17T10:16:54Z</time>
      </trkpt>
      <trkpt lat="44.66527" lon="5.22507">
        <ele>728</ele>
        <time>2022-11-17T10:16:54Z</time>
      </trkpt>
      <trkpt lat="44.66537" lon="5.22471">
        <ele>723</ele>
        <time>2022-11-17T10:16:54Z</time>
      </trkpt>
      <trkpt lat="44.66553" lon="5.2236">
        <ele>712</ele>
        <time>2022-11-17T10:16:54Z</time>
      </trkpt>
      <trkpt lat="44.66538" lon="5.22368">
        <ele>703</ele>
        <time>2022-11-17T10:16:54Z</time>
      </trkpt>
      <trkpt lat="44.66536" lon="5.22354">
        <ele>696</ele>
        <time>2022-11-17T10:16:54Z</time>
      </trkpt>
      <trkpt lat="44.66535" lon="5.22274">
        <ele>689</ele>
        <time>2022-11-17T10:16:54Z</time>
      </trkpt>
      <trkpt lat="44.66519" lon="5.22303">
        <ele>680</ele>
        <time>2022-11-17T10:16:54Z</time>
      </trkpt>
      <trkpt lat="44.66518" lon="5.22291">
        <ele>674</ele>
        <time>2022-11-17T10:16:54Z</time>
      </trkpt>
      <trkpt lat="44.66526" lon="5.22262">
        <ele>671</ele>
        <time>2022-11-17T10:16:54Z</time>
      </trkpt>
      <trkpt lat="44.66525" lon="5.22197">
        <ele>668</ele>
        <time>2022-11-17T10:16:54Z</time>
      </trkpt>
      <trkpt lat="44.66515" lon="5.22177">
        <ele>665</ele>
        <time>2022-11-17T10:16:54Z</time>
      </trkpt>
      <trkpt lat="44.665" lon="5.22162">
        <ele>642</ele>
        <time>2022-11-17T10:16:54Z</time>
      </trkpt>
      <trkpt lat="44.665" lon="5.22149">
        <ele>642</ele>
        <time>2022-11-17T10:16:54Z</time>
      </trkpt>
      <trkpt lat="44.66513" lon="5.22102">
        <ele>644</ele>
        <time>2022-11-17T10:16:54Z</time>
      </trkpt>
      <trkpt lat="44.66511" lon="5.2208">
        <ele>647</ele>
        <time>2022-11-17T10:16:54Z</time>
      </trkpt>
      <trkpt lat="44.66503" lon="5.22058">
        <ele>648</ele>
        <time>2022-11-17T10:16:54Z</time>
      </trkpt>
      <trkpt lat="44.66468" lon="5.21997">
        <ele>647</ele>
        <time>2022-11-17T10:16:54Z</time>
      </trkpt>
      <trkpt lat="44.66466" lon="5.21971">
        <ele>646</ele>
        <time>2022-11-17T10:16:54Z</time>
      </trkpt>
      <trkpt lat="44.66483" lon="5.21819">
        <ele>646</ele>
        <time>2022-11-17T10:16:54Z</time>
      </trkpt>
      <trkpt lat="44.66508" lon="5.21737">
        <ele>646</ele>
        <time>2022-11-17T10:16:54Z</time>
      </trkpt>
      <trkpt lat="44.66541" lon="5.21675">
        <ele>649</ele>
        <time>2022-11-17T10:16:54Z</time>
      </trkpt>
      <trkpt lat="44.6658" lon="5.21627">
        <ele>652</ele>
        <time>2022-11-17T10:16:54Z</time>
      </trkpt>
      <trkpt lat="44.66588" lon="5.21571">
        <ele>653</ele>
        <time>2022-11-17T10:16:54Z</time>
      </trkpt>
      <trkpt lat="44.66588" lon="5.21535">
        <ele>653</ele>
        <time>2022-11-17T10:16:54Z</time>
      </trkpt>
      <trkpt lat="44.66585" lon="5.21503">
        <ele>652</ele>
        <time>2022-11-17T10:16:54Z</time>
      </trkpt>
      <trkpt lat="44.66588" lon="5.2149">
        <ele>651</ele>
        <time>2022-11-17T10:16:54Z</time>
      </trkpt>
      <trkpt lat="44.66618" lon="5.21438">
        <ele>651</ele>
        <time>2022-11-17T10:16:54Z</time>
      </trkpt>
      <trkpt lat="44.66661" lon="5.21403">
        <ele>655</ele>
        <time>2022-11-17T10:16:54Z</time>
      </trkpt>
      <trkpt lat="44.66703" lon="5.21321">
        <ele>659</ele>
        <time>2022-11-17T10:16:54Z</time>
      </trkpt>
      <trkpt lat="44.66725" lon="5.21309">
        <ele>661</ele>
        <time>2022-11-17T10:16:54Z</time>
      </trkpt>
      <trkpt lat="44.66768" lon="5.2131">
        <ele>666</ele>
        <time>2022-11-17T10:16:54Z</time>
      </trkpt>
      <trkpt lat="44.66788" lon="5.21275">
        <ele>670</ele>
        <time>2022-11-17T10:16:54Z</time>
      </trkpt>
      <trkpt lat="44.66794" lon="5.21207">
        <ele>672</ele>
        <time>2022-11-17T10:16:54Z</time>
      </trkpt>
      <trkpt lat="44.66807" lon="5.21156">
        <ele>674</ele>
        <time>2022-11-17T10:16:54Z</time>
      </trkpt>
      <trkpt lat="44.66833" lon="5.21137">
        <ele>678</ele>
        <time>2022-11-17T10:16:54Z</time>
      </trkpt>
      <trkpt lat="44.66843" lon="5.21114">
        <ele>681</ele>
        <time>2022-11-17T10:16:54Z</time>
      </trkpt>
      <trkpt lat="44.66848" lon="5.21089">
        <ele>682</ele>
        <time>2022-11-17T10:16:54Z</time>
      </trkpt>
      <trkpt lat="44.66928" lon="5.2104">
        <ele>687</ele>
      </trkpt>
      <trkpt lat="44.67007" lon="5.2099">
        <ele>692</ele>
        <time>2022-11-17T10:16:54Z</time>
      </trkpt>
      <trkpt lat="44.67043" lon="5.21015">
        <ele>694</ele>
        <time>2022-11-17T10:16:54Z</time>
      </trkpt>
      <trkpt lat="44.67069" lon="5.21109">
        <ele>698</ele>
        <time>2022-11-17T10:16:54Z</time>
      </trkpt>
      <trkpt lat="44.67132" lon="5.21205">
        <ele>696</ele>
      </trkpt>
      <trkpt lat="44.67195" lon="5.21301">
        <ele>693</ele>
        <time>2022-11-17T10:16:54Z</time>
      </trkpt>
      <trkpt lat="44.67249" lon="5.21403">
        <ele>691</ele>
        <time>2022-11-17T10:16:54Z</time>
      </trkpt>
      <trkpt lat="44.67254" lon="5.2129">
        <ele>681</ele>
      </trkpt>
      <trkpt lat="44.67259" lon="5.21177">
        <ele>663</ele>
      </trkpt>
      <trkpt lat="44.67263" lon="5.21064">
        <ele>640</ele>
      </trkpt>
      <trkpt lat="44.67268" lon="5.20951">
        <ele>612</ele>
        <time>2022-11-17T10:16:54Z</time>
      </trkpt>
      <trkpt lat="44.67288" lon="5.20877">
        <ele>588</ele>
      </trkpt>
      <trkpt lat="44.67307" lon="5.20802">
        <ele>567</ele>
        <time>2022-11-17T10:16:54Z</time>
      </trkpt>
      <trkpt lat="44.67288" lon="5.20721">
        <ele>546</ele>
      </trkpt>
      <trkpt lat="44.67268" lon="5.20639">
        <ele>526</ele>
      </trkpt>
      <trkpt lat="44.67249" lon="5.20558">
        <ele>509</ele>
      </trkpt>
      <trkpt lat="44.6723" lon="5.20476">
        <ele>492</ele>
      </trkpt>
      <trkpt lat="44.6721" lon="5.20395">
        <ele>475</ele>
      </trkpt>
      <trkpt lat="44.67191" lon="5.20314">
        <ele>459</ele>
      </trkpt>
      <trkpt lat="44.67171" lon="5.20232">
        <ele>444</ele>
      </trkpt>
      <trkpt lat="44.67152" lon="5.20151">
        <ele>431</ele>
        <time>2022-11-17T10:16:54Z</time>
      </trkpt>
      <trkpt lat="44.67138" lon="5.20124">
        <ele>421</ele>
        <time>2022-11-17T10:16:54Z</time>
      </trkpt>
      <trkpt lat="44.67131" lon="5.2013">
        <ele>415</ele>
        <time>2022-11-17T10:16:54Z</time>
      </trkpt>
      <trkpt lat="44.67109" lon="5.20139">
        <ele>410</ele>
        <time>2022-11-17T10:16:54Z</time>
      </trkpt>
      <trkpt lat="44.67092" lon="5.20138">
        <ele>407</ele>
        <time>2022-11-17T10:16:54Z</time>
      </trkpt>
      <trkpt lat="44.67079" lon="5.20121">
        <ele>404</ele>
        <time>2022-11-17T10:16:54Z</time>
      </trkpt>
      <trkpt lat="44.67078" lon="5.20106">
        <ele>402</ele>
        <time>2022-11-17T10:16:54Z</time>
      </trkpt>
      <trkpt lat="44.67095" lon="5.20061">
        <ele>401</ele>
        <time>2022-11-17T10:16:54Z</time>
      </trkpt>
      <trkpt lat="44.67098" lon="5.20037">
        <ele>399</ele>
        <time>2022-11-17T10:16:54Z</time>
      </trkpt>
      <trkpt lat="44.67098" lon="5.20027">
        <ele>398</ele>
        <time>2022-11-17T10:16:54Z</time>
      </trkpt>
      <trkpt lat="44.67134" lon="5.19982">
        <ele>397</ele>
        <time>2022-11-17T10:16:54Z</time>
      </trkpt>
      <trkpt lat="44.67159" lon="5.19962">
        <ele>396</ele>
        <time>2022-11-17T10:16:54Z</time>
      </trkpt>
      <trkpt lat="44.672" lon="5.19945">
        <ele>393</ele>
        <time>2022-11-17T10:16:54Z</time>
      </trkpt>
      <trkpt lat="44.67229" lon="5.19911">
        <ele>391</ele>
        <time>2022-11-17T10:16:54Z</time>
      </trkpt>
      <trkpt lat="44.67286" lon="5.19869">
        <ele>388</ele>
      </trkpt>
      <trkpt lat="44.67343" lon="5.19827">
        <ele>384</ele>
        <time>2022-11-17T10:16:54Z</time>
      </trkpt>
      <trkpt lat="44.67349" lon="5.19818">
        <ele>382</ele>
        <time>2022-11-17T10:16:54Z</time>
      </trkpt>
      <trkpt lat="44.67354" lon="5.19804">
        <ele>380</ele>
        <time>2022-11-17T10:16:54Z</time>
      </trkpt>
      <trkpt lat="44.67358" lon="5.19754">
        <ele>378</ele>
        <time>2022-11-17T10:16:54Z</time>
      </trkpt>
      <trkpt lat="44.6738" lon="5.19712">
        <ele>376</ele>
        <time>2022-11-17T10:16:54Z</time>
      </trkpt>
      <trkpt lat="44.67386" lon="5.19674">
        <ele>375</ele>
        <time>2022-11-17T10:16:54Z</time>
      </trkpt>
      <trkpt lat="44.67391" lon="5.19661">
        <ele>373</ele>
        <time>2022-11-17T10:16:54Z</time>
      </trkpt>
      <trkpt lat="44.67407" lon="5.1964">
        <ele>372</ele>
        <time>2022-11-17T10:16:54Z</time>
      </trkpt>
      <trkpt lat="44.67424" lon="5.19628">
        <ele>371</ele>
        <time>2022-11-17T10:16:54Z</time>
      </trkpt>
      <trkpt lat="44.67432" lon="5.19627">
        <ele>370</ele>
        <time>2022-11-17T10:16:54Z</time>
      </trkpt>
      <trkpt lat="44.67461" lon="5.19634">
        <ele>369</ele>
        <time>2022-11-17T10:16:54Z</time>
      </trkpt>
      <trkpt lat="44.67492" lon="5.19629">
        <ele>368</ele>
        <time>2022-11-17T10:16:54Z</time>
      </trkpt>
      <trkpt lat="44.6754" lon="5.19591">
        <ele>366</ele>
        <time>2022-11-17T10:16:54Z</time>
      </trkpt>
      <trkpt lat="44.67548" lon="5.19581">
        <ele>365</ele>
        <time>2022-11-17T10:16:54Z</time>
      </trkpt>
      <trkpt lat="44.67563" lon="5.19534">
        <ele>365</ele>
        <time>2022-11-17T10:16:54Z</time>
      </trkpt>
      <trkpt lat="44.67577" lon="5.19522">
        <ele>366</ele>
        <time>2022-11-17T10:16:54Z</time>
      </trkpt>
      <trkpt lat="44.67606" lon="5.1952">
        <ele>365</ele>
        <time>2022-11-17T10:16:54Z</time>
      </trkpt>
      <trkpt lat="44.67617" lon="5.19516">
        <ele>363</ele>
        <time>2022-11-17T10:16:54Z</time>
      </trkpt>
      <trkpt lat="44.67681" lon="5.19519">
        <ele>360</ele>
        <time>2022-11-17T10:16:54Z</time>
      </trkpt>
      <trkpt lat="44.67742" lon="5.19499">
        <ele>356</ele>
      </trkpt>
      <trkpt lat="44.67804" lon="5.19478">
        <ele>353</ele>
      </trkpt>
      <trkpt lat="44.67865" lon="5.19458">
        <ele>350</ele>
      </trkpt>
      <trkpt lat="44.67926" lon="5.19437">
        <ele>348</ele>
        <time>2022-11-17T10:16:54Z</time>
      </trkpt>
      <trkpt lat="44.67945" lon="5.19439">
        <ele>347</ele>
        <time>2022-11-17T10:16:54Z</time>
      </trkpt>
      <trkpt lat="44.67953" lon="5.19443">
        <ele>346</ele>
        <time>2022-11-17T10:16:54Z</time>
      </trkpt>
      <trkpt lat="44.6803" lon="5.19499">
        <ele>344</ele>
        <time>2022-11-17T10:16:54Z</time>
      </trkpt>
      <trkpt lat="44.68093" lon="5.19528">
        <ele>341</ele>
      </trkpt>
      <trkpt lat="44.68155" lon="5.19557">
        <ele>340</ele>
      </trkpt>
      <trkpt lat="44.68218" lon="5.19587">
        <ele>340</ele>
      </trkpt>
      <trkpt lat="44.6828" lon="5.19616">
        <ele>338</ele>
        <time>2022-11-17T10:16:54Z</time>
      </trkpt>
      <trkpt lat="44.6833" lon="5.19624">
        <ele>335</ele>
        <time>2022-11-17T10:16:54Z</time>
      </trkpt>
      <trkpt lat="44.68409" lon="5.19648">
        <ele>333</ele>
      </trkpt>
      <trkpt lat="44.68489" lon="5.19671">
        <ele>331</ele>
      </trkpt>
      <trkpt lat="44.68568" lon="5.19695">
        <ele>329</ele>
      </trkpt>
      <trkpt lat="44.68648" lon="5.19719">
        <ele>326</ele>
      </trkpt>
      <trkpt lat="44.68727" lon="5.19743">
        <ele>323</ele>
      </trkpt>
      <trkpt lat="44.68806" lon="5.19766">
        <ele>321</ele>
      </trkpt>
      <trkpt lat="44.68886" lon="5.1979">
        <ele>319</ele>
      </trkpt>
      <trkpt lat="44.68965" lon="5.19814">
        <ele>315</ele>
        <time>2022-11-17T10:16:54Z</time>
      </trkpt>
      <trkpt lat="44.69003" lon="5.19808">
        <ele>313</ele>
        <time>2022-11-17T10:16:54Z</time>
      </trkpt>
      <trkpt lat="44.6903" lon="5.19826">
        <ele>311</ele>
        <time>2022-11-17T10:16:54Z</time>
      </trkpt>
      <trkpt lat="44.69063" lon="5.19832">
        <ele>308</ele>
        <time>2022-11-17T10:16:54Z</time>
      </trkpt>
      <trkpt lat="44.69134" lon="5.19828">
        <ele>306</ele>
        <time>2022-11-17T10:16:54Z</time>
      </trkpt>
      <trkpt lat="44.69157" lon="5.19837">
        <ele>304</ele>
        <time>2022-11-17T10:16:54Z</time>
      </trkpt>
      <trkpt lat="44.69278" lon="5.19852">
        <ele>300</ele>
      </trkpt>
      <trkpt lat="44.69339" lon="5.19859">
        <ele>297</ele>
      </trkpt>
      <trkpt lat="44.69399" lon="5.19866">
        <ele>294</ele>
        <time>2022-11-17T10:16:54Z</time>
      </trkpt>
      <trkpt lat="44.69447" lon="5.1989">
        <ele>292</ele>
        <time>2022-11-17T10:16:54Z</time>
      </trkpt>
      <trkpt lat="44.69467" lon="5.1991">
        <ele>289</ele>
        <time>2022-11-17T10:16:54Z</time>
      </trkpt>
      <trkpt lat="44.69473" lon="5.19924">
        <ele>287</ele>
        <time>2022-11-17T10:16:54Z</time>
      </trkpt>
      <trkpt lat="44.69475" lon="5.19957">
        <ele>285</ele>
        <time>2022-11-17T10:16:54Z</time>
      </trkpt>
      <trkpt lat="44.69477" lon="5.19969">
        <ele>284</ele>
        <time>2022-11-17T10:16:54Z</time>
      </trkpt>
      <trkpt lat="44.6949" lon="5.19994">
        <ele>283</ele>
        <time>2022-11-17T10:16:54Z</time>
      </trkpt>
      <trkpt lat="44.695" lon="5.20007">
        <ele>281</ele>
        <time>2022-11-17T10:16:54Z</time>
      </trkpt>
      <trkpt lat="44.69512" lon="5.19897">
        <ele>278</ele>
        <time>2022-11-17T10:16:54Z</time>
      </trkpt>
      <trkpt lat="44.6951" lon="5.19738">
        <ele>274</ele>
        <time>2022-11-17T10:16:54Z</time>
      </trkpt>
      <trkpt lat="44.69519" lon="5.19715">
        <ele>271</ele>
        <time>2022-11-17T10:16:54Z</time>
      </trkpt>
      <trkpt lat="44.69584" lon="5.19713">
        <ele>267</ele>
      </trkpt>
      <trkpt lat="44.69649" lon="5.1971">
        <ele>266</ele>
        <time>2022-11-17T10:16:54Z</time>
      </trkpt>
      <trkpt lat="44.69654" lon="5.19726">
        <ele>266</ele>
        <time>2022-11-17T10:16:54Z</time>
      </trkpt>
      <trkpt lat="44.69663" lon="5.19726">
        <ele>266</ele>
        <time>2022-11-17T10:16:54Z</time>
      </trkpt>
      <trkpt lat="44.69676" lon="5.19864">
        <ele>266</ele>
        <time>2022-11-17T10:16:54Z</time>
      </trkpt>
      <trkpt lat="44.69675" lon="5.19878">
        <ele>267</ele>
        <time>2022-11-17T10:16:54Z</time>
      </trkpt>
      <trkpt lat="44.69684" lon="5.19882">
        <ele>267</ele>
        <time>2022-11-17T10:16:54Z</time>
      </trkpt>
      <trkpt lat="44.69692" lon="5.19891">
        <ele>268</ele>
        <time>2022-11-17T10:16:54Z</time>
      </trkpt>
      <trkpt lat="44.69689" lon="5.19956">
        <ele>268</ele>
        <time>2022-11-17T10:16:54Z</time>
      </trkpt>
    </trkseg>
  </trk>
  <trk>
    <name><![CDATA[VTT N°14 noir - Tour de l'Aups - 21 km - déniv 970 m]]></name>
    <extensions>
      <line xmlns="http://www.topografix.com/GPX/gpx_style/0/2">
        <color>000000</color>
        <width>4</width>
      </line>
    </extensions>
    <trkseg>
      <trkpt lat="44.68712" lon="5.23661">
        <ele>296</ele>
        <time>2022-07-28T06:33:56Z</time>
        <extensions>
          <visugpx:TrkExtension xmlns:visugpx="https://www.visugpx.com/editgpx/">
            <visugpx:node>1</visugpx:node>
            </visugpx:TrkExtension>
        </extensions>
      </trkpt>
      <trkpt lat="44.68709" lon="5.23671">
        <ele>303</ele>
        <time>2022-07-28T06:34:23Z</time>
      </trkpt>
      <trkpt lat="44.68701" lon="5.23683">
        <ele>304</ele>
        <time>2022-07-28T06:34:27Z</time>
      </trkpt>
      <trkpt lat="44.68681" lon="5.23698">
        <ele>305</ele>
        <time>2022-07-28T06:34:34Z</time>
      </trkpt>
      <trkpt lat="44.68672" lon="5.237">
        <ele>305</ele>
        <time>2022-07-28T06:34:38Z</time>
      </trkpt>
      <trkpt lat="44.68655" lon="5.23688">
        <ele>306</ele>
        <time>2022-07-28T06:34:45Z</time>
      </trkpt>
      <trkpt lat="44.68649" lon="5.23679">
        <ele>306</ele>
        <time>2022-07-28T06:34:48Z</time>
      </trkpt>
      <trkpt lat="44.68651" lon="5.23669">
        <ele>306</ele>
        <time>2022-07-28T06:34:51Z</time>
      </trkpt>
      <trkpt lat="44.68672" lon="5.23643">
        <ele>307</ele>
        <time>2022-07-28T06:35:02Z</time>
      </trkpt>
      <trkpt lat="44.68684" lon="5.2361">
        <ele>307</ele>
        <time>2022-07-28T06:35:12Z</time>
      </trkpt>
      <trkpt lat="44.68692" lon="5.23497">
        <ele>310</ele>
        <time>2022-07-28T06:35:43Z</time>
      </trkpt>
      <trkpt lat="44.68693" lon="5.23471">
        <ele>311</ele>
        <time>2022-07-28T06:35:47Z</time>
      </trkpt>
      <trkpt lat="44.68675" lon="5.23422">
        <ele>312</ele>
        <time>2022-07-28T06:35:55Z</time>
      </trkpt>
      <trkpt lat="44.68676" lon="5.23397">
        <ele>313</ele>
        <time>2022-07-28T06:35:59Z</time>
      </trkpt>
      <trkpt lat="44.6866" lon="5.23316">
        <ele>317</ele>
        <time>2022-07-28T06:36:13Z</time>
      </trkpt>
      <trkpt lat="44.68659" lon="5.23273">
        <ele>320</ele>
        <time>2022-07-28T06:36:22Z</time>
      </trkpt>
      <trkpt lat="44.68654" lon="5.23262">
        <ele>321</ele>
        <time>2022-07-28T06:36:25Z</time>
      </trkpt>
      <trkpt lat="44.68634" lon="5.23242">
        <ele>324</ele>
        <time>2022-07-28T06:36:33Z</time>
      </trkpt>
      <trkpt lat="44.68626" lon="5.23242">
        <ele>325</ele>
        <time>2022-07-28T06:36:36Z</time>
      </trkpt>
      <trkpt lat="44.68628" lon="5.23254">
        <ele>325</ele>
        <time>2022-07-28T06:36:39Z</time>
      </trkpt>
      <trkpt lat="44.68634" lon="5.23265">
        <ele>327</ele>
        <time>2022-07-28T06:36:42Z</time>
      </trkpt>
      <trkpt lat="44.68638" lon="5.23278">
        <ele>328</ele>
        <time>2022-07-28T06:36:45Z</time>
      </trkpt>
      <trkpt lat="44.68638" lon="5.23304">
        <ele>329</ele>
        <time>2022-07-28T06:36:51Z</time>
      </trkpt>
      <trkpt lat="44.6863" lon="5.23356">
        <ele>333</ele>
        <time>2022-07-28T06:37:03Z</time>
      </trkpt>
      <trkpt lat="44.68602" lon="5.23427">
        <ele>337</ele>
        <time>2022-07-28T06:37:21Z</time>
      </trkpt>
      <trkpt lat="44.68582" lon="5.23454">
        <ele>340</ele>
        <time>2022-07-28T06:37:30Z</time>
      </trkpt>
      <trkpt lat="44.68532" lon="5.23483">
        <ele>345</ele>
        <time>2022-07-28T06:37:47Z</time>
      </trkpt>
      <trkpt lat="44.68491" lon="5.23517">
        <ele>349</ele>
        <time>2022-07-28T06:38:02Z</time>
      </trkpt>
      <trkpt lat="44.68463" lon="5.23528">
        <ele>351</ele>
        <time>2022-07-28T06:38:11Z</time>
      </trkpt>
      <trkpt lat="44.68453" lon="5.23528">
        <ele>352</ele>
        <time>2022-07-28T06:38:14Z</time>
      </trkpt>
      <trkpt lat="44.68453" lon="5.23517">
        <ele>353</ele>
        <time>2022-07-28T06:38:17Z</time>
      </trkpt>
      <trkpt lat="44.68478" lon="5.23495">
        <ele>357</ele>
        <time>2022-07-28T06:38:26Z</time>
      </trkpt>
      <trkpt lat="44.68485" lon="5.23485">
        <ele>357</ele>
        <time>2022-07-28T06:38:29Z</time>
      </trkpt>
      <trkpt lat="44.6849" lon="5.23473">
        <ele>358</ele>
        <time>2022-07-28T06:38:32Z</time>
      </trkpt>
      <trkpt lat="44.68492" lon="5.23461">
        <ele>359</ele>
        <time>2022-07-28T06:38:35Z</time>
      </trkpt>
      <trkpt lat="44.68484" lon="5.23461">
        <ele>360</ele>
        <time>2022-07-28T06:38:38Z</time>
      </trkpt>
      <trkpt lat="44.68479" lon="5.23472">
        <ele>361</ele>
        <time>2022-07-28T06:38:41Z</time>
      </trkpt>
      <trkpt lat="44.68472" lon="5.23478">
        <ele>362</ele>
        <time>2022-07-28T06:38:44Z</time>
      </trkpt>
      <trkpt lat="44.68454" lon="5.23482">
        <ele>364</ele>
        <time>2022-07-28T06:38:50Z</time>
      </trkpt>
      <trkpt lat="44.68417" lon="5.23477">
        <ele>367</ele>
        <time>2022-07-28T06:39:02Z</time>
      </trkpt>
      <trkpt lat="44.68376" lon="5.23462">
        <ele>372</ele>
        <time>2022-07-28T06:39:17Z</time>
      </trkpt>
      <trkpt lat="44.68331" lon="5.23455">
        <ele>375</ele>
        <time>2022-07-28T06:39:32Z</time>
      </trkpt>
      <trkpt lat="44.68322" lon="5.23451">
        <ele>375</ele>
        <time>2022-07-28T06:39:35Z</time>
      </trkpt>
      <trkpt lat="44.68281" lon="5.23415">
        <ele>377</ele>
        <time>2022-07-28T06:39:50Z</time>
      </trkpt>
      <trkpt lat="44.68239" lon="5.23405">
        <ele>376</ele>
        <time>2022-07-28T06:40:01Z</time>
      </trkpt>
      <trkpt lat="44.68133" lon="5.23421">
        <ele>375</ele>
        <time>2022-07-28T06:40:25Z</time>
      </trkpt>
      <trkpt lat="44.68028" lon="5.23389">
        <ele>373</ele>
        <time>2022-07-28T06:40:51Z</time>
      </trkpt>
      <trkpt lat="44.68017" lon="5.23391">
        <ele>373</ele>
        <time>2022-07-28T06:40:54Z</time>
      </trkpt>
      <trkpt lat="44.68001" lon="5.23404">
        <ele>373</ele>
        <time>2022-07-28T06:40:59Z</time>
      </trkpt>
      <trkpt lat="44.67908" lon="5.23525">
        <ele>373</ele>
        <time>2022-07-28T06:41:30Z</time>
      </trkpt>
      <trkpt lat="44.67876" lon="5.23559">
        <ele>373</ele>
        <time>2022-07-28T06:41:40Z</time>
      </trkpt>
      <trkpt lat="44.67864" lon="5.23562">
        <ele>373</ele>
        <time>2022-07-28T06:41:43Z</time>
      </trkpt>
      <trkpt lat="44.67835" lon="5.23555">
        <ele>373</ele>
        <time>2022-07-28T06:41:50Z</time>
      </trkpt>
      <trkpt lat="44.67827" lon="5.2355">
        <ele>373</ele>
        <time>2022-07-28T06:41:52Z</time>
      </trkpt>
      <trkpt lat="44.67782" lon="5.23486">
        <ele>375</ele>
        <time>2022-07-28T06:42:08Z</time>
      </trkpt>
      <trkpt lat="44.67778" lon="5.23475">
        <ele>375</ele>
        <time>2022-07-28T06:42:10Z</time>
      </trkpt>
      <trkpt lat="44.67776" lon="5.23463">
        <ele>375</ele>
        <time>2022-07-28T06:42:12Z</time>
      </trkpt>
      <trkpt lat="44.67784" lon="5.23291">
        <ele>376</ele>
        <time>2022-07-28T06:42:44Z</time>
      </trkpt>
      <trkpt lat="44.67793" lon="5.23271">
        <ele>376</ele>
        <time>2022-07-28T06:42:48Z</time>
      </trkpt>
      <trkpt lat="44.6785" lon="5.23182">
        <ele>377</ele>
        <time>2022-07-28T06:43:07Z</time>
      </trkpt>
      <trkpt lat="44.67854" lon="5.2317">
        <ele>377</ele>
        <time>2022-07-28T06:43:09Z</time>
      </trkpt>
      <trkpt lat="44.67855" lon="5.23159">
        <ele>376</ele>
        <time>2022-07-28T06:43:11Z</time>
      </trkpt>
      <trkpt lat="44.67854" lon="5.23147">
        <ele>376</ele>
        <time>2022-07-28T06:43:13Z</time>
      </trkpt>
      <trkpt lat="44.67851" lon="5.23136">
        <ele>376</ele>
        <time>2022-07-28T06:43:15Z</time>
      </trkpt>
      <trkpt lat="44.6782" lon="5.23089">
        <ele>376</ele>
        <time>2022-07-28T06:43:25Z</time>
      </trkpt>
      <trkpt lat="44.67818" lon="5.23078">
        <ele>376</ele>
        <time>2022-07-28T06:43:27Z</time>
      </trkpt>
      <trkpt lat="44.67823" lon="5.23069">
        <ele>376</ele>
        <time>2022-07-28T06:43:29Z</time>
      </trkpt>
      <trkpt lat="44.67831" lon="5.23065">
        <ele>376</ele>
        <time>2022-07-28T06:43:31Z</time>
      </trkpt>
      <trkpt lat="44.67905" lon="5.23069">
        <ele>378</ele>
        <time>2022-07-28T06:43:49Z</time>
      </trkpt>
      <trkpt lat="44.67913" lon="5.23067">
        <ele>378</ele>
        <time>2022-07-28T06:43:51Z</time>
      </trkpt>
      <trkpt lat="44.67919" lon="5.2306">
        <ele>378</ele>
        <time>2022-07-28T06:43:53Z</time>
      </trkpt>
      <trkpt lat="44.67922" lon="5.2305">
        <ele>379</ele>
        <time>2022-07-28T06:43:55Z</time>
      </trkpt>
      <trkpt lat="44.6792" lon="5.2296">
        <ele>383</ele>
        <time>2022-07-28T06:44:13Z</time>
      </trkpt>
      <trkpt lat="44.67901" lon="5.22828">
        <ele>389</ele>
        <time>2022-07-28T06:44:43Z</time>
      </trkpt>
      <trkpt lat="44.67894" lon="5.22803">
        <ele>390</ele>
        <time>2022-07-28T06:44:49Z</time>
      </trkpt>
      <trkpt lat="44.67866" lon="5.22746">
        <ele>397</ele>
        <time>2022-07-28T06:45:11Z</time>
      </trkpt>
      <trkpt lat="44.6786" lon="5.2274">
        <ele>398</ele>
        <time>2022-07-28T06:45:14Z</time>
      </trkpt>
      <trkpt lat="44.67841" lon="5.22708">
        <ele>402</ele>
        <time>2022-07-28T06:45:26Z</time>
      </trkpt>
      <trkpt lat="44.67834" lon="5.22701">
        <ele>404</ele>
        <time>2022-07-28T06:45:30Z</time>
      </trkpt>
      <trkpt lat="44.6783" lon="5.2271">
        <ele>406</ele>
        <time>2022-07-28T06:45:36Z</time>
      </trkpt>
      <trkpt lat="44.67833" lon="5.22719">
        <ele>407</ele>
        <time>2022-07-28T06:45:40Z</time>
      </trkpt>
      <trkpt lat="44.67834" lon="5.22732">
        <ele>408</ele>
        <time>2022-07-28T06:45:45Z</time>
      </trkpt>
      <trkpt lat="44.67838" lon="5.22741">
        <ele>409</ele>
        <time>2022-07-28T06:45:49Z</time>
      </trkpt>
      <trkpt lat="44.67839" lon="5.22794">
        <ele>413</ele>
        <time>2022-07-28T06:46:09Z</time>
      </trkpt>
      <trkpt lat="44.67835" lon="5.22862">
        <ele>418</ele>
        <time>2022-07-28T06:46:36Z</time>
      </trkpt>
      <trkpt lat="44.67833" lon="5.22872">
        <ele>419</ele>
        <time>2022-07-28T06:46:40Z</time>
      </trkpt>
      <trkpt lat="44.67827" lon="5.22882">
        <ele>420</ele>
        <time>2022-07-28T06:46:44Z</time>
      </trkpt>
      <trkpt lat="44.6781" lon="5.22894">
        <ele>421</ele>
        <time>2022-07-28T06:46:52Z</time>
      </trkpt>
      <trkpt lat="44.67784" lon="5.22894">
        <ele>423</ele>
        <time>2022-07-28T06:47:04Z</time>
      </trkpt>
      <trkpt lat="44.67759" lon="5.22884">
        <ele>426</ele>
        <time>2022-07-28T06:47:16Z</time>
      </trkpt>
      <trkpt lat="44.67738" lon="5.22866">
        <ele>430</ele>
        <time>2022-07-28T06:47:28Z</time>
      </trkpt>
      <trkpt lat="44.6769" lon="5.22802">
        <ele>438</ele>
        <time>2022-07-28T06:48:00Z</time>
      </trkpt>
      <trkpt lat="44.67676" lon="5.22793">
        <ele>441</ele>
        <time>2022-07-28T06:48:09Z</time>
      </trkpt>
      <trkpt lat="44.6765" lon="5.22793">
        <ele>444</ele>
        <time>2022-07-28T06:48:22Z</time>
      </trkpt>
      <trkpt lat="44.67635" lon="5.22786">
        <ele>446</ele>
        <time>2022-07-28T06:48:30Z</time>
      </trkpt>
      <trkpt lat="44.67598" lon="5.22742">
        <ele>455</ele>
        <time>2022-07-28T06:48:54Z</time>
      </trkpt>
      <trkpt lat="44.67588" lon="5.22725">
        <ele>459</ele>
        <time>2022-07-28T06:49:02Z</time>
      </trkpt>
      <trkpt lat="44.67576" lon="5.22696">
        <ele>463</ele>
        <time>2022-07-28T06:49:14Z</time>
      </trkpt>
      <trkpt lat="44.67575" lon="5.22686">
        <ele>465</ele>
        <time>2022-07-28T06:49:18Z</time>
      </trkpt>
      <trkpt lat="44.67567" lon="5.22667">
        <ele>468</ele>
        <time>2022-07-28T06:49:26Z</time>
      </trkpt>
      <trkpt lat="44.67568" lon="5.22655">
        <ele>469</ele>
        <time>2022-07-28T06:49:30Z</time>
      </trkpt>
      <trkpt lat="44.67582" lon="5.22629">
        <ele>473</ele>
        <time>2022-07-28T06:49:42Z</time>
      </trkpt>
      <trkpt lat="44.67583" lon="5.22617">
        <ele>474</ele>
        <time>2022-07-28T06:49:46Z</time>
      </trkpt>
      <trkpt lat="44.67568" lon="5.22588">
        <ele>479</ele>
        <time>2022-07-28T06:49:58Z</time>
      </trkpt>
      <trkpt lat="44.67559" lon="5.22569">
        <ele>483</ele>
        <time>2022-07-28T06:50:06Z</time>
      </trkpt>
      <trkpt lat="44.67553" lon="5.22559">
        <ele>485</ele>
        <time>2022-07-28T06:50:10Z</time>
      </trkpt>
      <trkpt lat="44.6755" lon="5.22548">
        <ele>486</ele>
        <time>2022-07-28T06:50:14Z</time>
      </trkpt>
      <trkpt lat="44.67545" lon="5.22515">
        <ele>491</ele>
        <time>2022-07-28T06:50:26Z</time>
      </trkpt>
      <trkpt lat="44.67536" lon="5.22484">
        <ele>495</ele>
        <time>2022-07-28T06:50:38Z</time>
      </trkpt>
      <trkpt lat="44.6753" lon="5.22478">
        <ele>497</ele>
        <time>2022-07-28T06:50:42Z</time>
      </trkpt>
      <trkpt lat="44.67514" lon="5.22473">
        <ele>499</ele>
        <time>2022-07-28T06:50:50Z</time>
      </trkpt>
      <trkpt lat="44.67507" lon="5.22468">
        <ele>502</ele>
        <time>2022-07-28T06:50:54Z</time>
      </trkpt>
      <trkpt lat="44.67503" lon="5.22458">
        <ele>503</ele>
        <time>2022-07-28T06:50:58Z</time>
      </trkpt>
      <trkpt lat="44.67498" lon="5.22425">
        <ele>508</ele>
        <time>2022-07-28T06:51:10Z</time>
      </trkpt>
      <trkpt lat="44.67499" lon="5.22415">
        <ele>509</ele>
        <time>2022-07-28T06:51:14Z</time>
      </trkpt>
      <trkpt lat="44.67497" lon="5.22403">
        <ele>511</ele>
        <time>2022-07-28T06:51:19Z</time>
      </trkpt>
      <trkpt lat="44.6749" lon="5.22405">
        <ele>513</ele>
        <time>2022-07-28T06:51:24Z</time>
      </trkpt>
      <trkpt lat="44.67484" lon="5.22413">
        <ele>515</ele>
        <time>2022-07-28T06:51:29Z</time>
      </trkpt>
      <trkpt lat="44.67472" lon="5.22426">
        <ele>518</ele>
        <time>2022-07-28T06:51:38Z</time>
      </trkpt>
      <trkpt lat="44.67462" lon="5.22445">
        <ele>519</ele>
        <time>2022-07-28T06:51:46Z</time>
      </trkpt>
      <trkpt lat="44.67459" lon="5.22456">
        <ele>520</ele>
        <time>2022-07-28T06:51:50Z</time>
      </trkpt>
      <trkpt lat="44.67452" lon="5.22466">
        <ele>521</ele>
        <time>2022-07-28T06:51:54Z</time>
      </trkpt>
      <trkpt lat="44.67432" lon="5.22487">
        <ele>524</ele>
        <time>2022-07-28T06:52:06Z</time>
      </trkpt>
      <trkpt lat="44.67425" lon="5.2249">
        <ele>525</ele>
        <time>2022-07-28T06:52:10Z</time>
      </trkpt>
      <trkpt lat="44.67424" lon="5.2248">
        <ele>527</ele>
        <time>2022-07-28T06:52:14Z</time>
      </trkpt>
      <trkpt lat="44.67429" lon="5.22458">
        <ele>530</ele>
        <time>2022-07-28T06:52:23Z</time>
      </trkpt>
      <trkpt lat="44.67432" lon="5.22425">
        <ele>532</ele>
        <time>2022-07-28T06:52:35Z</time>
      </trkpt>
      <trkpt lat="44.67446" lon="5.22381">
        <ele>535</ele>
        <time>2022-07-28T06:52:51Z</time>
      </trkpt>
      <trkpt lat="44.67457" lon="5.22363">
        <ele>537</ele>
        <time>2022-07-28T06:52:59Z</time>
      </trkpt>
      <trkpt lat="44.67464" lon="5.22357">
        <ele>538</ele>
        <time>2022-07-28T06:53:03Z</time>
      </trkpt>
      <trkpt lat="44.67469" lon="5.22346">
        <ele>538</ele>
        <time>2022-07-28T06:53:07Z</time>
      </trkpt>
      <trkpt lat="44.67466" lon="5.2231">
        <ele>542</ele>
        <time>2022-07-28T06:53:19Z</time>
      </trkpt>
      <trkpt lat="44.6746" lon="5.22288">
        <ele>543</ele>
        <time>2022-07-28T06:53:26Z</time>
      </trkpt>
      <trkpt lat="44.67442" lon="5.22238">
        <ele>551</ele>
        <time>2022-07-28T06:53:46Z</time>
      </trkpt>
      <trkpt lat="44.6743" lon="5.22209">
        <ele>554</ele>
        <time>2022-07-28T06:53:58Z</time>
      </trkpt>
      <trkpt lat="44.67424" lon="5.222">
        <ele>555</ele>
        <time>2022-07-28T06:54:02Z</time>
      </trkpt>
      <trkpt lat="44.67415" lon="5.22178">
        <ele>557</ele>
        <time>2022-07-28T06:54:10Z</time>
      </trkpt>
      <trkpt lat="44.67411" lon="5.22154">
        <ele>558</ele>
        <time>2022-07-28T06:54:18Z</time>
      </trkpt>
      <trkpt lat="44.67412" lon="5.22141">
        <ele>560</ele>
        <time>2022-07-28T06:54:22Z</time>
      </trkpt>
      <trkpt lat="44.67405" lon="5.22096">
        <ele>565</ele>
        <time>2022-07-28T06:54:38Z</time>
      </trkpt>
      <trkpt lat="44.67385" lon="5.22042">
        <ele>570</ele>
        <time>2022-07-28T06:54:58Z</time>
      </trkpt>
      <trkpt lat="44.67366" lon="5.21977">
        <ele>577</ele>
        <time>2022-07-28T06:55:22Z</time>
      </trkpt>
      <trkpt lat="44.67352" lon="5.21966">
        <ele>579</ele>
        <time>2022-07-28T06:55:30Z</time>
      </trkpt>
      <trkpt lat="44.67312" lon="5.21941">
        <ele>583</ele>
        <time>2022-07-28T06:55:50Z</time>
      </trkpt>
      <trkpt lat="44.67277" lon="5.2191">
        <ele>588</ele>
        <time>2022-07-28T06:56:10Z</time>
      </trkpt>
      <trkpt lat="44.6727" lon="5.21906">
        <ele>589</ele>
        <time>2022-07-28T06:56:16Z</time>
      </trkpt>
      <trkpt lat="44.67262" lon="5.21905">
        <ele>591</ele>
        <time>2022-07-28T06:56:21Z</time>
      </trkpt>
      <trkpt lat="44.67254" lon="5.21901">
        <ele>592</ele>
        <time>2022-07-28T06:56:25Z</time>
      </trkpt>
      <trkpt lat="44.67247" lon="5.21892">
        <ele>600</ele>
        <time>2022-07-28T06:57:50Z</time>
      </trkpt>
      <trkpt lat="44.67246" lon="5.21881">
        <ele>601</ele>
        <time>2022-07-28T06:57:53Z</time>
      </trkpt>
      <trkpt lat="44.67248" lon="5.21868">
        <ele>602</ele>
        <time>2022-07-28T06:57:57Z</time>
      </trkpt>
      <trkpt lat="44.67252" lon="5.21855">
        <ele>607</ele>
        <time>2022-07-28T06:58:11Z</time>
      </trkpt>
      <trkpt lat="44.67259" lon="5.21849">
        <ele>609</ele>
        <time>2022-07-28T06:58:43Z</time>
      </trkpt>
      <trkpt lat="44.67281" lon="5.21835">
        <ele>611</ele>
        <time>2022-07-28T06:58:54Z</time>
      </trkpt>
      <trkpt lat="44.67281" lon="5.21825">
        <ele>612</ele>
        <time>2022-07-28T06:58:59Z</time>
      </trkpt>
      <trkpt lat="44.67278" lon="5.21815">
        <ele>613</ele>
        <time>2022-07-28T06:59:03Z</time>
      </trkpt>
      <trkpt lat="44.67272" lon="5.21805">
        <ele>615</ele>
        <time>2022-07-28T06:59:07Z</time>
      </trkpt>
      <trkpt lat="44.6726" lon="5.21791">
        <ele>619</ele>
        <time>2022-07-28T06:59:18Z</time>
      </trkpt>
      <trkpt lat="44.67255" lon="5.21783">
        <ele>622</ele>
        <time>2022-07-28T06:59:47Z</time>
      </trkpt>
      <trkpt lat="44.67247" lon="5.21777">
        <ele>623</ele>
        <time>2022-07-28T06:59:52Z</time>
      </trkpt>
      <trkpt lat="44.67241" lon="5.21771">
        <ele>625</ele>
        <time>2022-07-28T06:59:57Z</time>
      </trkpt>
      <trkpt lat="44.6724" lon="5.2176">
        <ele>626</ele>
        <time>2022-07-28T07:00:01Z</time>
      </trkpt>
      <trkpt lat="44.67243" lon="5.21748">
        <ele>628</ele>
        <time>2022-07-28T07:00:06Z</time>
      </trkpt>
      <trkpt lat="44.67239" lon="5.21736">
        <ele>628</ele>
        <time>2022-07-28T07:00:11Z</time>
      </trkpt>
      <trkpt lat="44.67231" lon="5.21719">
        <ele>630</ele>
        <time>2022-07-28T07:00:19Z</time>
      </trkpt>
      <trkpt lat="44.67229" lon="5.2171">
        <ele>630</ele>
        <time>2022-07-28T07:00:23Z</time>
      </trkpt>
      <trkpt lat="44.67229" lon="5.21686">
        <ele>632</ele>
        <time>2022-07-28T07:00:33Z</time>
      </trkpt>
      <trkpt lat="44.67227" lon="5.21676">
        <ele>633</ele>
        <time>2022-07-28T07:00:37Z</time>
      </trkpt>
      <trkpt lat="44.67232" lon="5.21652">
        <ele>636</ele>
        <time>2022-07-28T07:00:46Z</time>
      </trkpt>
      <trkpt lat="44.67236" lon="5.21643">
        <ele>636</ele>
        <time>2022-07-28T07:00:49Z</time>
      </trkpt>
      <trkpt lat="44.6724" lon="5.21632">
        <ele>638</ele>
        <time>2022-07-28T07:00:53Z</time>
      </trkpt>
      <trkpt lat="44.67246" lon="5.21624">
        <ele>642</ele>
        <time>2022-07-28T07:01:27Z</time>
      </trkpt>
      <trkpt lat="44.67253" lon="5.21613">
        <ele>646</ele>
        <time>2022-07-28T07:02:11Z</time>
      </trkpt>
      <trkpt lat="44.67254" lon="5.21589">
        <ele>650</ele>
        <time>2022-07-28T07:02:42Z</time>
      </trkpt>
      <trkpt lat="44.67254" lon="5.21579">
        <ele>652</ele>
        <time>2022-07-28T07:03:05Z</time>
      </trkpt>
      <trkpt lat="44.67254" lon="5.21565">
        <ele>655</ele>
        <time>2022-07-28T07:03:56Z</time>
      </trkpt>
      <trkpt lat="44.67253" lon="5.21554">
        <ele>656</ele>
        <time>2022-07-28T07:04:02Z</time>
      </trkpt>
      <trkpt lat="44.67253" lon="5.21542">
        <ele>658</ele>
        <time>2022-07-28T07:04:14Z</time>
      </trkpt>
      <trkpt lat="44.6725" lon="5.21531">
        <ele>665</ele>
        <time>2022-07-28T07:05:09Z</time>
      </trkpt>
      <trkpt lat="44.67246" lon="5.21509">
        <ele>669</ele>
        <time>2022-07-28T07:05:42Z</time>
      </trkpt>
      <trkpt lat="44.67245" lon="5.21499">
        <ele>672</ele>
        <time>2022-07-28T07:06:17Z</time>
      </trkpt>
      <trkpt lat="44.67244" lon="5.21488">
        <ele>675</ele>
        <time>2022-07-28T07:07:59Z</time>
      </trkpt>
      <trkpt lat="44.67246" lon="5.21477">
        <ele>675</ele>
        <time>2022-07-28T07:08:04Z</time>
      </trkpt>
      <trkpt lat="44.67247" lon="5.21466">
        <ele>678</ele>
        <time>2022-07-28T07:08:13Z</time>
      </trkpt>
      <trkpt lat="44.67251" lon="5.21448">
        <ele>681</ele>
        <time>2022-07-28T07:08:52Z</time>
      </trkpt>
      <trkpt lat="44.67254" lon="5.21438">
        <ele>682</ele>
        <time>2022-07-28T07:08:55Z</time>
      </trkpt>
      <trkpt lat="44.67254" lon="5.21427">
        <ele>683</ele>
        <time>2022-07-28T07:08:59Z</time>
      </trkpt>
      <trkpt lat="44.67247" lon="5.21403">
        <ele>685</ele>
        <time>2022-07-28T07:09:09Z</time>
      </trkpt>
      <trkpt lat="44.67217" lon="5.21353">
        <ele>685</ele>
        <time>2022-07-28T07:09:40Z</time>
      </trkpt>
      <trkpt lat="44.67199" lon="5.21323">
        <ele>687</ele>
        <time>2022-07-28T07:10:40Z</time>
      </trkpt>
      <trkpt lat="44.67184" lon="5.21299">
        <ele>690</ele>
        <time>2022-07-28T07:10:54Z</time>
      </trkpt>
      <trkpt lat="44.67181" lon="5.21289">
        <ele>691</ele>
        <time>2022-07-28T07:10:59Z</time>
      </trkpt>
      <trkpt lat="44.67162" lon="5.21264">
        <ele>693</ele>
        <time>2022-07-28T07:11:10Z</time>
      </trkpt>
      <trkpt lat="44.67149" lon="5.21238">
        <ele>696</ele>
        <time>2022-07-28T07:11:37Z</time>
      </trkpt>
      <trkpt lat="44.6712" lon="5.212">
        <ele>699</ele>
        <time>2022-07-28T07:11:58Z</time>
      </trkpt>
      <trkpt lat="44.67115" lon="5.2119">
        <ele>700</ele>
        <time>2022-07-28T07:12:02Z</time>
      </trkpt>
      <trkpt lat="44.67102" lon="5.21174">
        <ele>701</ele>
        <time>2022-07-28T07:12:10Z</time>
      </trkpt>
      <trkpt lat="44.67095" lon="5.21168">
        <ele>703</ele>
        <time>2022-07-28T07:12:16Z</time>
      </trkpt>
      <trkpt lat="44.67089" lon="5.21159">
        <ele>704</ele>
        <time>2022-07-28T07:12:22Z</time>
      </trkpt>
      <trkpt lat="44.67082" lon="5.21154">
        <ele>705</ele>
        <time>2022-07-28T07:12:27Z</time>
      </trkpt>
      <trkpt lat="44.67076" lon="5.21146">
        <ele>707</ele>
        <time>2022-07-28T07:12:32Z</time>
      </trkpt>
      <trkpt lat="44.67072" lon="5.21135">
        <ele>708</ele>
        <time>2022-07-28T07:12:37Z</time>
      </trkpt>
      <trkpt lat="44.67044" lon="5.2109">
        <ele>713</ele>
        <time>2022-07-28T07:13:01Z</time>
      </trkpt>
      <trkpt lat="44.67041" lon="5.2108">
        <ele>715</ele>
        <time>2022-07-28T07:13:07Z</time>
      </trkpt>
      <trkpt lat="44.67041" lon="5.21068">
        <ele>716</ele>
        <time>2022-07-28T07:13:12Z</time>
      </trkpt>
      <trkpt lat="44.6704" lon="5.21057">
        <ele>717</ele>
        <time>2022-07-28T07:13:20Z</time>
      </trkpt>
      <trkpt lat="44.67019" lon="5.21021">
        <ele>720</ele>
        <time>2022-07-28T07:13:35Z</time>
      </trkpt>
      <trkpt lat="44.67013" lon="5.21015">
        <ele>720</ele>
        <time>2022-07-28T07:13:38Z</time>
      </trkpt>
      <trkpt lat="44.66998" lon="5.21009">
        <ele>719</ele>
        <time>2022-07-28T07:13:47Z</time>
      </trkpt>
      <trkpt lat="44.66967" lon="5.21018">
        <ele>715</ele>
        <time>2022-07-28T07:13:57Z</time>
      </trkpt>
      <trkpt lat="44.66945" lon="5.21033">
        <ele>713</ele>
        <time>2022-07-28T07:14:04Z</time>
      </trkpt>
      <trkpt lat="44.66927" lon="5.21051">
        <ele>710</ele>
        <time>2022-07-28T07:14:13Z</time>
      </trkpt>
      <trkpt lat="44.66908" lon="5.21057">
        <ele>705</ele>
        <time>2022-07-28T07:14:22Z</time>
      </trkpt>
      <trkpt lat="44.66895" lon="5.21061">
        <ele>703</ele>
        <time>2022-07-28T07:14:29Z</time>
      </trkpt>
      <trkpt lat="44.66887" lon="5.21065">
        <ele>703</ele>
        <time>2022-07-28T07:14:33Z</time>
      </trkpt>
      <trkpt lat="44.66867" lon="5.21086">
        <ele>701</ele>
        <time>2022-07-28T07:14:42Z</time>
      </trkpt>
      <trkpt lat="44.66857" lon="5.21093">
        <ele>701</ele>
        <time>2022-07-28T07:14:46Z</time>
      </trkpt>
      <trkpt lat="44.66851" lon="5.21104">
        <ele>700</ele>
        <time>2022-07-28T07:14:49Z</time>
      </trkpt>
      <trkpt lat="44.66844" lon="5.21111">
        <ele>700</ele>
        <time>2022-07-28T07:14:52Z</time>
      </trkpt>
      <trkpt lat="44.66836" lon="5.21131">
        <ele>697</ele>
        <time>2022-07-28T07:15:00Z</time>
      </trkpt>
      <trkpt lat="44.66829" lon="5.21135">
        <ele>697</ele>
        <time>2022-07-28T07:15:04Z</time>
      </trkpt>
      <trkpt lat="44.66807" lon="5.21161">
        <ele>695</ele>
        <time>2022-07-28T07:15:15Z</time>
      </trkpt>
      <trkpt lat="44.66797" lon="5.21194">
        <ele>691</ele>
        <time>2022-07-28T07:15:26Z</time>
      </trkpt>
      <trkpt lat="44.66791" lon="5.21208">
        <ele>689</ele>
        <time>2022-07-28T07:15:30Z</time>
      </trkpt>
      <trkpt lat="44.66793" lon="5.21219">
        <ele>687</ele>
        <time>2022-07-28T07:15:32Z</time>
      </trkpt>
      <trkpt lat="44.66788" lon="5.21249">
        <ele>684</ele>
        <time>2022-07-28T07:15:38Z</time>
      </trkpt>
      <trkpt lat="44.66787" lon="5.21259">
        <ele>681</ele>
        <time>2022-07-28T07:15:53Z</time>
      </trkpt>
      <trkpt lat="44.66771" lon="5.21303">
        <ele>680</ele>
        <time>2022-07-28T07:16:03Z</time>
      </trkpt>
      <trkpt lat="44.6677" lon="5.21315">
        <ele>680</ele>
        <time>2022-07-28T07:16:08Z</time>
      </trkpt>
      <trkpt lat="44.66763" lon="5.21319">
        <ele>680</ele>
        <time>2022-07-28T07:16:14Z</time>
      </trkpt>
      <trkpt lat="44.66754" lon="5.2132">
        <ele>679</ele>
        <time>2022-07-28T07:16:23Z</time>
      </trkpt>
      <trkpt lat="44.66743" lon="5.21326">
        <ele>679</ele>
        <time>2022-07-28T07:16:29Z</time>
      </trkpt>
      <trkpt lat="44.66724" lon="5.21326">
        <ele>678</ele>
        <time>2022-07-28T07:16:35Z</time>
      </trkpt>
      <trkpt lat="44.66713" lon="5.21329">
        <ele>677</ele>
        <time>2022-07-28T07:16:37Z</time>
      </trkpt>
      <trkpt lat="44.66696" lon="5.21339">
        <ele>675</ele>
        <time>2022-07-28T07:16:46Z</time>
      </trkpt>
      <trkpt lat="44.66688" lon="5.21355">
        <ele>674</ele>
        <time>2022-07-28T07:16:50Z</time>
      </trkpt>
      <trkpt lat="44.6668" lon="5.21365">
        <ele>674</ele>
        <time>2022-07-28T07:16:52Z</time>
      </trkpt>
      <trkpt lat="44.66677" lon="5.21375">
        <ele>672</ele>
        <time>2022-07-28T07:16:55Z</time>
      </trkpt>
      <trkpt lat="44.66665" lon="5.21389">
        <ele>668</ele>
        <time>2022-07-28T07:17:03Z</time>
      </trkpt>
      <trkpt lat="44.66662" lon="5.21399">
        <ele>667</ele>
        <time>2022-07-28T07:17:06Z</time>
      </trkpt>
      <trkpt lat="44.6666" lon="5.21409">
        <ele>664</ele>
        <time>2022-07-28T07:17:11Z</time>
      </trkpt>
      <trkpt lat="44.66649" lon="5.21418">
        <ele>662</ele>
        <time>2022-07-28T07:17:42Z</time>
      </trkpt>
      <trkpt lat="44.66641" lon="5.21423">
        <ele>662</ele>
        <time>2022-07-28T07:17:45Z</time>
      </trkpt>
      <trkpt lat="44.6663" lon="5.21434">
        <ele>662</ele>
        <time>2022-07-28T07:17:49Z</time>
      </trkpt>
      <trkpt lat="44.66625" lon="5.21446">
        <ele>661</ele>
        <time>2022-07-28T07:17:53Z</time>
      </trkpt>
      <trkpt lat="44.66595" lon="5.21481">
        <ele>661</ele>
        <time>2022-07-28T07:18:05Z</time>
      </trkpt>
      <trkpt lat="44.6659" lon="5.21492">
        <ele>661</ele>
        <time>2022-07-28T07:18:08Z</time>
      </trkpt>
      <trkpt lat="44.66587" lon="5.21502">
        <ele>661</ele>
        <time>2022-07-28T07:18:11Z</time>
      </trkpt>
      <trkpt lat="44.66591" lon="5.21534">
        <ele>664</ele>
        <time>2022-07-28T07:18:25Z</time>
      </trkpt>
      <trkpt lat="44.66589" lon="5.21547">
        <ele>664</ele>
        <time>2022-07-28T07:18:28Z</time>
      </trkpt>
      <trkpt lat="44.6659" lon="5.21582">
        <ele>661</ele>
        <time>2022-07-28T07:18:34Z</time>
      </trkpt>
      <trkpt lat="44.66587" lon="5.21604">
        <ele>660</ele>
        <time>2022-07-28T07:18:38Z</time>
      </trkpt>
      <trkpt lat="44.6657" lon="5.21636">
        <ele>659</ele>
        <time>2022-07-28T07:18:44Z</time>
      </trkpt>
      <trkpt lat="44.66544" lon="5.21665">
        <ele>656</ele>
        <time>2022-07-28T07:18:53Z</time>
      </trkpt>
      <trkpt lat="44.66506" lon="5.21753">
        <ele>653</ele>
        <time>2022-07-28T07:19:11Z</time>
      </trkpt>
      <trkpt lat="44.66479" lon="5.21844">
        <ele>651</ele>
        <time>2022-07-28T07:19:28Z</time>
      </trkpt>
      <trkpt lat="44.66466" lon="5.21945">
        <ele>653</ele>
        <time>2022-07-28T07:19:58Z</time>
      </trkpt>
      <trkpt lat="44.66464" lon="5.21978">
        <ele>655</ele>
        <time>2022-07-28T07:20:08Z</time>
      </trkpt>
      <trkpt lat="44.66471" lon="5.2201">
        <ele>655</ele>
        <time>2022-07-28T07:20:17Z</time>
      </trkpt>
      <trkpt lat="44.66508" lon="5.22076">
        <ele>656</ele>
        <time>2022-07-28T07:20:37Z</time>
      </trkpt>
      <trkpt lat="44.66513" lon="5.22098">
        <ele>656</ele>
        <time>2022-07-28T07:20:43Z</time>
      </trkpt>
      <trkpt lat="44.66512" lon="5.22109">
        <ele>656</ele>
        <time>2022-07-28T07:20:46Z</time>
      </trkpt>
      <trkpt lat="44.665" lon="5.22146">
        <ele>659</ele>
        <time>2022-07-28T07:20:56Z</time>
      </trkpt>
      <trkpt lat="44.66499" lon="5.22157">
        <ele>660</ele>
        <time>2022-07-28T07:20:59Z</time>
      </trkpt>
      <trkpt lat="44.66503" lon="5.22166">
        <ele>660</ele>
        <time>2022-07-28T07:21:02Z</time>
      </trkpt>
      <trkpt lat="44.66509" lon="5.22172">
        <ele>661</ele>
        <time>2022-07-28T07:21:05Z</time>
      </trkpt>
      <trkpt lat="44.66526" lon="5.222">
        <ele>661</ele>
        <time>2022-07-28T07:21:15Z</time>
      </trkpt>
      <trkpt lat="44.66527" lon="5.22261">
        <ele>660</ele>
        <time>2022-07-28T07:21:27Z</time>
      </trkpt>
      <trkpt lat="44.66516" lon="5.22317">
        <ele>656</ele>
        <time>2022-07-28T07:21:37Z</time>
      </trkpt>
      <trkpt lat="44.66516" lon="5.22358">
        <ele>654</ele>
        <time>2022-07-28T07:21:43Z</time>
      </trkpt>
      <trkpt lat="44.66511" lon="5.22371">
        <ele>654</ele>
        <time>2022-07-28T07:21:45Z</time>
      </trkpt>
      <trkpt lat="44.66454" lon="5.22404">
        <ele>653</ele>
        <time>2022-07-28T07:22:00Z</time>
      </trkpt>
      <trkpt lat="44.66444" lon="5.22404">
        <ele>653</ele>
        <time>2022-07-28T07:22:02Z</time>
      </trkpt>
      <trkpt lat="44.66436" lon="5.224">
        <ele>653</ele>
        <time>2022-07-28T07:22:04Z</time>
      </trkpt>
      <trkpt lat="44.66404" lon="5.22365">
        <ele>652</ele>
        <time>2022-07-28T07:22:14Z</time>
      </trkpt>
      <trkpt lat="44.66396" lon="5.22364">
        <ele>652</ele>
        <time>2022-07-28T07:22:16Z</time>
      </trkpt>
      <trkpt lat="44.66373" lon="5.22373">
        <ele>652</ele>
        <time>2022-07-28T07:22:22Z</time>
      </trkpt>
      <trkpt lat="44.66362" lon="5.22383">
        <ele>651</ele>
        <time>2022-07-28T07:22:25Z</time>
      </trkpt>
      <trkpt lat="44.66345" lon="5.2242">
        <ele>649</ele>
        <time>2022-07-28T07:22:32Z</time>
      </trkpt>
      <trkpt lat="44.66309" lon="5.22447">
        <ele>645</ele>
        <time>2022-07-28T07:22:41Z</time>
      </trkpt>
      <trkpt lat="44.6629" lon="5.2245">
        <ele>644</ele>
        <time>2022-07-28T07:22:45Z</time>
      </trkpt>
      <trkpt lat="44.66271" lon="5.22462">
        <ele>642</ele>
        <time>2022-07-28T07:22:49Z</time>
      </trkpt>
      <trkpt lat="44.6622" lon="5.22512">
        <ele>636</ele>
        <time>2022-07-28T07:22:59Z</time>
      </trkpt>
      <trkpt lat="44.66209" lon="5.22518">
        <ele>635</ele>
        <time>2022-07-28T07:23:01Z</time>
      </trkpt>
      <trkpt lat="44.66199" lon="5.22518">
        <ele>634</ele>
        <time>2022-07-28T07:23:03Z</time>
      </trkpt>
      <trkpt lat="44.66191" lon="5.22509">
        <ele>633</ele>
        <time>2022-07-28T07:23:05Z</time>
      </trkpt>
      <trkpt lat="44.66181" lon="5.22484">
        <ele>632</ele>
        <time>2022-07-28T07:23:09Z</time>
      </trkpt>
      <trkpt lat="44.66169" lon="5.22468">
        <ele>631</ele>
        <time>2022-07-28T07:23:13Z</time>
      </trkpt>
      <trkpt lat="44.66161" lon="5.22461">
        <ele>629</ele>
        <time>2022-07-28T07:23:16Z</time>
      </trkpt>
      <trkpt lat="44.66154" lon="5.22457">
        <ele>629</ele>
        <time>2022-07-28T07:23:18Z</time>
      </trkpt>
      <trkpt lat="44.66146" lon="5.22455">
        <ele>628</ele>
        <time>2022-07-28T07:23:20Z</time>
      </trkpt>
      <trkpt lat="44.66138" lon="5.22457">
        <ele>627</ele>
        <time>2022-07-28T07:23:22Z</time>
      </trkpt>
      <trkpt lat="44.66131" lon="5.22463">
        <ele>626</ele>
        <time>2022-07-28T07:23:24Z</time>
      </trkpt>
      <trkpt lat="44.66112" lon="5.22511">
        <ele>621</ele>
        <time>2022-07-28T07:23:34Z</time>
      </trkpt>
      <trkpt lat="44.66105" lon="5.22517">
        <ele>620</ele>
        <time>2022-07-28T07:23:36Z</time>
      </trkpt>
      <trkpt lat="44.66071" lon="5.22531">
        <ele>616</ele>
        <time>2022-07-28T07:23:44Z</time>
      </trkpt>
      <trkpt lat="44.66055" lon="5.22532">
        <ele>614</ele>
        <time>2022-07-28T07:23:48Z</time>
      </trkpt>
      <trkpt lat="44.6603" lon="5.22523">
        <ele>612</ele>
        <time>2022-07-28T07:23:54Z</time>
      </trkpt>
      <trkpt lat="44.66022" lon="5.22526">
        <ele>611</ele>
        <time>2022-07-28T07:23:56Z</time>
      </trkpt>
      <trkpt lat="44.66009" lon="5.22539">
        <ele>609</ele>
        <time>2022-07-28T07:24:00Z</time>
      </trkpt>
      <trkpt lat="44.66" lon="5.22537">
        <ele>608</ele>
        <time>2022-07-28T07:24:03Z</time>
      </trkpt>
      <trkpt lat="44.66003" lon="5.22521">
        <ele>606</ele>
        <time>2022-07-28T07:24:07Z</time>
      </trkpt>
      <trkpt lat="44.66015" lon="5.22509">
        <ele>604</ele>
        <time>2022-07-28T07:24:11Z</time>
      </trkpt>
      <trkpt lat="44.66037" lon="5.22479">
        <ele>601</ele>
        <time>2022-07-28T07:24:19Z</time>
      </trkpt>
      <trkpt lat="44.66054" lon="5.22475">
        <ele>599</ele>
        <time>2022-07-28T07:24:23Z</time>
      </trkpt>
      <trkpt lat="44.66065" lon="5.22466">
        <ele>597</ele>
        <time>2022-07-28T07:24:26Z</time>
      </trkpt>
      <trkpt lat="44.6607" lon="5.22458">
        <ele>597</ele>
        <time>2022-07-28T07:24:28Z</time>
      </trkpt>
      <trkpt lat="44.66075" lon="5.22448">
        <ele>596</ele>
        <time>2022-07-28T07:24:30Z</time>
      </trkpt>
      <trkpt lat="44.66096" lon="5.22339">
        <ele>587</ele>
        <time>2022-07-28T07:24:48Z</time>
      </trkpt>
      <trkpt lat="44.66105" lon="5.22329">
        <ele>586</ele>
        <time>2022-07-28T07:24:51Z</time>
      </trkpt>
      <trkpt lat="44.6613" lon="5.22323">
        <ele>582</ele>
        <time>2022-07-28T07:24:57Z</time>
      </trkpt>
      <trkpt lat="44.66137" lon="5.22314">
        <ele>581</ele>
        <time>2022-07-28T07:25:00Z</time>
      </trkpt>
      <trkpt lat="44.66131" lon="5.22303">
        <ele>579</ele>
        <time>2022-07-28T07:25:03Z</time>
      </trkpt>
      <trkpt lat="44.66122" lon="5.22307">
        <ele>578</ele>
        <time>2022-07-28T07:25:06Z</time>
      </trkpt>
      <trkpt lat="44.66077" lon="5.22319">
        <ele>575</ele>
        <time>2022-07-28T07:25:16Z</time>
      </trkpt>
      <trkpt lat="44.66068" lon="5.22323">
        <ele>573</ele>
        <time>2022-07-28T07:25:18Z</time>
      </trkpt>
      <trkpt lat="44.66062" lon="5.22328">
        <ele>571</ele>
        <time>2022-07-28T07:25:20Z</time>
      </trkpt>
      <trkpt lat="44.66039" lon="5.22358">
        <ele>567</ele>
        <time>2022-07-28T07:25:28Z</time>
      </trkpt>
      <trkpt lat="44.66029" lon="5.22369">
        <ele>565</ele>
        <time>2022-07-28T07:25:32Z</time>
      </trkpt>
      <trkpt lat="44.66022" lon="5.22373">
        <ele>564</ele>
        <time>2022-07-28T07:25:33Z</time>
      </trkpt>
      <trkpt lat="44.66015" lon="5.22374">
        <ele>562</ele>
        <time>2022-07-28T07:25:36Z</time>
      </trkpt>
      <trkpt lat="44.66001" lon="5.2237">
        <ele>562</ele>
        <time>2022-07-28T07:25:38Z</time>
      </trkpt>
      <trkpt lat="44.65989" lon="5.2237">
        <ele>559</ele>
        <time>2022-07-28T07:25:41Z</time>
      </trkpt>
      <trkpt lat="44.65935" lon="5.2242">
        <ele>553</ele>
        <time>2022-07-28T07:25:54Z</time>
      </trkpt>
      <trkpt lat="44.65899" lon="5.2244">
        <ele>550</ele>
        <time>2022-07-28T07:26:00Z</time>
      </trkpt>
      <trkpt lat="44.65891" lon="5.22449">
        <ele>549</ele>
        <time>2022-07-28T07:26:02Z</time>
      </trkpt>
      <trkpt lat="44.65882" lon="5.22464">
        <ele>547</ele>
        <time>2022-07-28T07:26:05Z</time>
      </trkpt>
      <trkpt lat="44.65866" lon="5.22479">
        <ele>546</ele>
        <time>2022-07-28T07:26:09Z</time>
      </trkpt>
      <trkpt lat="44.65858" lon="5.22488">
        <ele>543</ele>
        <time>2022-07-28T07:26:12Z</time>
      </trkpt>
      <trkpt lat="44.65849" lon="5.22494">
        <ele>542</ele>
        <time>2022-07-28T07:26:14Z</time>
      </trkpt>
      <trkpt lat="44.65837" lon="5.22499">
        <ele>538</ele>
        <time>2022-07-28T07:26:30Z</time>
      </trkpt>
      <trkpt lat="44.65825" lon="5.22498">
        <ele>537</ele>
        <time>2022-07-28T07:26:34Z</time>
      </trkpt>
      <trkpt lat="44.65825" lon="5.22484">
        <ele>537</ele>
        <time>2022-07-28T07:26:37Z</time>
      </trkpt>
      <trkpt lat="44.6583" lon="5.22477">
        <ele>537</ele>
        <time>2022-07-28T07:26:39Z</time>
      </trkpt>
      <trkpt lat="44.65838" lon="5.2247">
        <ele>536</ele>
        <time>2022-07-28T07:26:41Z</time>
      </trkpt>
      <trkpt lat="44.65842" lon="5.22462">
        <ele>536</ele>
        <time>2022-07-28T07:26:43Z</time>
      </trkpt>
      <trkpt lat="44.65842" lon="5.22449">
        <ele>534</ele>
        <time>2022-07-28T07:26:46Z</time>
      </trkpt>
      <trkpt lat="44.65836" lon="5.22443">
        <ele>534</ele>
        <time>2022-07-28T07:26:48Z</time>
      </trkpt>
      <trkpt lat="44.65819" lon="5.22444">
        <ele>531</ele>
        <time>2022-07-28T07:26:55Z</time>
      </trkpt>
      <trkpt lat="44.65809" lon="5.2243">
        <ele>530</ele>
        <time>2022-07-28T07:26:59Z</time>
      </trkpt>
      <trkpt lat="44.65802" lon="5.22404">
        <ele>529</ele>
        <time>2022-07-28T07:27:03Z</time>
      </trkpt>
      <trkpt lat="44.65798" lon="5.22366">
        <ele>526</ele>
        <time>2022-07-28T07:27:10Z</time>
      </trkpt>
      <trkpt lat="44.65794" lon="5.22357">
        <ele>523</ele>
        <time>2022-07-28T07:27:17Z</time>
      </trkpt>
      <trkpt lat="44.65735" lon="5.22389">
        <ele>524</ele>
        <time>2022-07-28T07:27:39Z</time>
      </trkpt>
      <trkpt lat="44.65729" lon="5.22395">
        <ele>524</ele>
        <time>2022-07-28T07:27:42Z</time>
      </trkpt>
      <trkpt lat="44.65716" lon="5.22417">
        <ele>526</ele>
        <time>2022-07-28T07:27:51Z</time>
      </trkpt>
      <trkpt lat="44.65693" lon="5.22429">
        <ele>528</ele>
        <time>2022-07-28T07:28:00Z</time>
      </trkpt>
      <trkpt lat="44.65649" lon="5.22479">
        <ele>532</ele>
        <time>2022-07-28T07:28:22Z</time>
      </trkpt>
      <trkpt lat="44.65634" lon="5.22487">
        <ele>532</ele>
        <time>2022-07-28T07:28:28Z</time>
      </trkpt>
      <trkpt lat="44.65615" lon="5.22489">
        <ele>532</ele>
        <time>2022-07-28T07:28:35Z</time>
      </trkpt>
      <trkpt lat="44.65596" lon="5.22484">
        <ele>534</ele>
        <time>2022-07-28T07:28:44Z</time>
      </trkpt>
      <trkpt lat="44.65588" lon="5.22486">
        <ele>534</ele>
        <time>2022-07-28T07:28:49Z</time>
      </trkpt>
      <trkpt lat="44.65588" lon="5.22497">
        <ele>535</ele>
        <time>2022-07-28T07:28:53Z</time>
      </trkpt>
      <trkpt lat="44.6557" lon="5.22557">
        <ele>540</ele>
        <time>2022-07-28T07:29:16Z</time>
      </trkpt>
      <trkpt lat="44.65535" lon="5.22631">
        <ele>551</ele>
        <time>2022-07-28T07:29:49Z</time>
      </trkpt>
      <trkpt lat="44.65532" lon="5.22642">
        <ele>552</ele>
        <time>2022-07-28T07:29:53Z</time>
      </trkpt>
      <trkpt lat="44.65527" lon="5.22651">
        <ele>553</ele>
        <time>2022-07-28T07:29:57Z</time>
      </trkpt>
      <trkpt lat="44.6552" lon="5.22655">
        <ele>554</ele>
        <time>2022-07-28T07:30:01Z</time>
      </trkpt>
      <trkpt lat="44.65513" lon="5.22649">
        <ele>555</ele>
        <time>2022-07-28T07:30:05Z</time>
      </trkpt>
      <trkpt lat="44.6551" lon="5.2264">
        <ele>556</ele>
        <time>2022-07-28T07:30:09Z</time>
      </trkpt>
      <trkpt lat="44.65519" lon="5.22606">
        <ele>558</ele>
        <time>2022-07-28T07:30:22Z</time>
      </trkpt>
      <trkpt lat="44.65524" lon="5.22562">
        <ele>563</ele>
        <time>2022-07-28T07:30:39Z</time>
      </trkpt>
      <trkpt lat="44.65521" lon="5.2255">
        <ele>565</ele>
        <time>2022-07-28T07:30:46Z</time>
      </trkpt>
      <trkpt lat="44.65515" lon="5.22537">
        <ele>566</ele>
        <time>2022-07-28T07:30:51Z</time>
      </trkpt>
      <trkpt lat="44.65507" lon="5.22529">
        <ele>567</ele>
        <time>2022-07-28T07:30:55Z</time>
      </trkpt>
      <trkpt lat="44.65499" lon="5.22529">
        <ele>568</ele>
        <time>2022-07-28T07:30:59Z</time>
      </trkpt>
      <trkpt lat="44.65448" lon="5.22542">
        <ele>575</ele>
        <time>2022-07-28T07:31:21Z</time>
      </trkpt>
      <trkpt lat="44.65433" lon="5.22556">
        <ele>576</ele>
        <time>2022-07-28T07:31:28Z</time>
      </trkpt>
      <trkpt lat="44.65428" lon="5.22564">
        <ele>577</ele>
        <time>2022-07-28T07:31:32Z</time>
      </trkpt>
      <trkpt lat="44.65416" lon="5.22598">
        <ele>580</ele>
        <time>2022-07-28T07:31:43Z</time>
      </trkpt>
      <trkpt lat="44.65408" lon="5.22604">
        <ele>581</ele>
        <time>2022-07-28T07:31:47Z</time>
      </trkpt>
      <trkpt lat="44.654" lon="5.22598">
        <ele>582</ele>
        <time>2022-07-28T07:31:52Z</time>
      </trkpt>
      <trkpt lat="44.65392" lon="5.22511">
        <ele>588</ele>
        <time>2022-07-28T07:32:23Z</time>
      </trkpt>
      <trkpt lat="44.6539" lon="5.225">
        <ele>589</ele>
        <time>2022-07-28T07:32:27Z</time>
      </trkpt>
      <trkpt lat="44.6538" lon="5.22494">
        <ele>589</ele>
        <time>2022-07-28T07:32:33Z</time>
      </trkpt>
      <trkpt lat="44.65371" lon="5.22494">
        <ele>590</ele>
        <time>2022-07-28T07:32:37Z</time>
      </trkpt>
      <trkpt lat="44.65356" lon="5.22501">
        <ele>592</ele>
        <time>2022-07-28T07:32:45Z</time>
      </trkpt>
      <trkpt lat="44.65312" lon="5.22545">
        <ele>600</ele>
        <time>2022-07-28T07:33:18Z</time>
      </trkpt>
      <trkpt lat="44.65305" lon="5.22551">
        <ele>601</ele>
        <time>2022-07-28T07:33:22Z</time>
      </trkpt>
      <trkpt lat="44.65297" lon="5.22549">
        <ele>602</ele>
        <time>2022-07-28T07:33:26Z</time>
      </trkpt>
      <trkpt lat="44.65289" lon="5.22543">
        <ele>603</ele>
        <time>2022-07-28T07:33:31Z</time>
      </trkpt>
      <trkpt lat="44.65287" lon="5.22532">
        <ele>604</ele>
        <time>2022-07-28T07:33:35Z</time>
      </trkpt>
      <trkpt lat="44.65284" lon="5.2252">
        <ele>606</ele>
        <time>2022-07-28T07:33:40Z</time>
      </trkpt>
      <trkpt lat="44.65278" lon="5.22511">
        <ele>607</ele>
        <time>2022-07-28T07:33:44Z</time>
      </trkpt>
      <trkpt lat="44.65271" lon="5.22508">
        <ele>608</ele>
        <time>2022-07-28T07:33:48Z</time>
      </trkpt>
      <trkpt lat="44.65217" lon="5.2251">
        <ele>616</ele>
        <time>2022-07-28T07:34:21Z</time>
      </trkpt>
      <trkpt lat="44.6521" lon="5.22512">
        <ele>616</ele>
        <time>2022-07-28T07:34:25Z</time>
      </trkpt>
      <trkpt lat="44.65202" lon="5.22517">
        <ele>617</ele>
        <time>2022-07-28T07:34:30Z</time>
      </trkpt>
      <trkpt lat="44.6518" lon="5.22552">
        <ele>621</ele>
        <time>2022-07-28T07:34:46Z</time>
      </trkpt>
      <trkpt lat="44.65157" lon="5.22603">
        <ele>624</ele>
        <time>2022-07-28T07:35:06Z</time>
      </trkpt>
      <trkpt lat="44.65143" lon="5.22617">
        <ele>625</ele>
        <time>2022-07-28T07:35:14Z</time>
      </trkpt>
      <trkpt lat="44.6512" lon="5.22627">
        <ele>628</ele>
        <time>2022-07-28T07:35:26Z</time>
      </trkpt>
      <trkpt lat="44.6511" lon="5.22625">
        <ele>629</ele>
        <time>2022-07-28T07:35:30Z</time>
      </trkpt>
      <trkpt lat="44.65103" lon="5.2262">
        <ele>631</ele>
        <time>2022-07-28T07:35:34Z</time>
      </trkpt>
      <trkpt lat="44.65101" lon="5.22608">
        <ele>632</ele>
        <time>2022-07-28T07:35:38Z</time>
      </trkpt>
      <trkpt lat="44.65104" lon="5.22572">
        <ele>634</ele>
        <time>2022-07-28T07:35:50Z</time>
      </trkpt>
      <trkpt lat="44.65101" lon="5.2256">
        <ele>635</ele>
        <time>2022-07-28T07:35:54Z</time>
      </trkpt>
      <trkpt lat="44.65095" lon="5.22553">
        <ele>635</ele>
        <time>2022-07-28T07:35:58Z</time>
      </trkpt>
      <trkpt lat="44.65087" lon="5.2255">
        <ele>636</ele>
        <time>2022-07-28T07:36:02Z</time>
      </trkpt>
      <trkpt lat="44.65062" lon="5.22547">
        <ele>639</ele>
        <time>2022-07-28T07:36:14Z</time>
      </trkpt>
      <trkpt lat="44.65054" lon="5.22543">
        <ele>640</ele>
        <time>2022-07-28T07:36:18Z</time>
      </trkpt>
      <trkpt lat="44.65047" lon="5.22537">
        <ele>641</ele>
        <time>2022-07-28T07:36:22Z</time>
      </trkpt>
      <trkpt lat="44.65041" lon="5.22515">
        <ele>643</ele>
        <time>2022-07-28T07:36:31Z</time>
      </trkpt>
      <trkpt lat="44.65035" lon="5.22506">
        <ele>644</ele>
        <time>2022-07-28T07:36:35Z</time>
      </trkpt>
      <trkpt lat="44.64989" lon="5.22458">
        <ele>651</ele>
        <time>2022-07-28T07:37:03Z</time>
      </trkpt>
      <trkpt lat="44.64985" lon="5.22449">
        <ele>652</ele>
        <time>2022-07-28T07:37:07Z</time>
      </trkpt>
      <trkpt lat="44.64965" lon="5.22429">
        <ele>655</ele>
        <time>2022-07-28T07:37:19Z</time>
      </trkpt>
      <trkpt lat="44.64957" lon="5.22429">
        <ele>656</ele>
        <time>2022-07-28T07:37:23Z</time>
      </trkpt>
      <trkpt lat="44.64954" lon="5.22441">
        <ele>657</ele>
        <time>2022-07-28T07:37:28Z</time>
      </trkpt>
      <trkpt lat="44.6496" lon="5.22449">
        <ele>658</ele>
        <time>2022-07-28T07:37:32Z</time>
      </trkpt>
      <trkpt lat="44.64967" lon="5.22454">
        <ele>660</ele>
        <time>2022-07-28T07:37:36Z</time>
      </trkpt>
      <trkpt lat="44.64979" lon="5.22469">
        <ele>661</ele>
        <time>2022-07-28T07:37:45Z</time>
      </trkpt>
      <trkpt lat="44.65001" lon="5.22556">
        <ele>668</ele>
        <time>2022-07-28T07:38:15Z</time>
      </trkpt>
      <trkpt lat="44.65015" lon="5.22608">
        <ele>674</ele>
        <time>2022-07-28T07:38:35Z</time>
      </trkpt>
      <trkpt lat="44.65019" lon="5.22617">
        <ele>675</ele>
        <time>2022-07-28T07:38:39Z</time>
      </trkpt>
      <trkpt lat="44.65022" lon="5.22628">
        <ele>677</ele>
        <time>2022-07-28T07:38:43Z</time>
      </trkpt>
      <trkpt lat="44.6502" lon="5.22686">
        <ele>683</ele>
        <time>2022-07-28T07:39:04Z</time>
      </trkpt>
      <trkpt lat="44.65015" lon="5.22729">
        <ele>686</ele>
        <time>2022-07-28T07:39:20Z</time>
      </trkpt>
      <trkpt lat="44.65017" lon="5.2274">
        <ele>687</ele>
        <time>2022-07-28T07:39:24Z</time>
      </trkpt>
      <trkpt lat="44.65026" lon="5.2276">
        <ele>690</ele>
        <time>2022-07-28T07:39:32Z</time>
      </trkpt>
      <trkpt lat="44.65032" lon="5.22766">
        <ele>690</ele>
        <time>2022-07-28T07:39:36Z</time>
      </trkpt>
      <trkpt lat="44.65036" lon="5.22776">
        <ele>691</ele>
        <time>2022-07-28T07:39:40Z</time>
      </trkpt>
      <trkpt lat="44.65043" lon="5.22811">
        <ele>695</ele>
        <time>2022-07-28T07:39:52Z</time>
      </trkpt>
      <trkpt lat="44.65046" lon="5.22838">
        <ele>698</ele>
        <time>2022-07-28T07:40:01Z</time>
      </trkpt>
      <trkpt lat="44.6506" lon="5.22903">
        <ele>705</ele>
        <time>2022-07-28T07:40:23Z</time>
      </trkpt>
      <trkpt lat="44.6506" lon="5.22916">
        <ele>706</ele>
        <time>2022-07-28T07:40:27Z</time>
      </trkpt>
      <trkpt lat="44.65042" lon="5.2297">
        <ele>712</ele>
        <time>2022-07-28T07:40:48Z</time>
      </trkpt>
      <trkpt lat="44.65032" lon="5.22988">
        <ele>714</ele>
        <time>2022-07-28T07:40:57Z</time>
      </trkpt>
      <trkpt lat="44.65026" lon="5.22995">
        <ele>715</ele>
        <time>2022-07-28T07:41:01Z</time>
      </trkpt>
      <trkpt lat="44.65011" lon="5.23003">
        <ele>718</ele>
        <time>2022-07-28T07:41:09Z</time>
      </trkpt>
      <trkpt lat="44.64992" lon="5.23006">
        <ele>719</ele>
        <time>2022-07-28T07:41:17Z</time>
      </trkpt>
      <trkpt lat="44.64984" lon="5.23013">
        <ele>719</ele>
        <time>2022-07-28T07:41:21Z</time>
      </trkpt>
      <trkpt lat="44.64978" lon="5.23023">
        <ele>719</ele>
        <time>2022-07-28T07:41:25Z</time>
      </trkpt>
      <trkpt lat="44.6497" lon="5.23047">
        <ele>720</ele>
        <time>2022-07-28T07:41:33Z</time>
      </trkpt>
      <trkpt lat="44.64962" lon="5.23068">
        <ele>723</ele>
        <time>2022-07-28T07:41:41Z</time>
      </trkpt>
      <trkpt lat="44.64955" lon="5.23081">
        <ele>725</ele>
        <time>2022-07-28T07:41:46Z</time>
      </trkpt>
      <trkpt lat="44.64902" lon="5.23138">
        <ele>732</ele>
        <time>2022-07-28T07:42:19Z</time>
      </trkpt>
      <trkpt lat="44.64838" lon="5.23192">
        <ele>737</ele>
        <time>2022-07-28T07:42:43Z</time>
      </trkpt>
      <trkpt lat="44.64817" lon="5.23219">
        <ele>739</ele>
        <time>2022-07-28T07:42:52Z</time>
      </trkpt>
      <trkpt lat="44.648" lon="5.2326">
        <ele>743</ele>
        <time>2022-07-28T07:43:04Z</time>
      </trkpt>
      <trkpt lat="44.64798" lon="5.23272">
        <ele>745</ele>
        <time>2022-07-28T07:43:08Z</time>
      </trkpt>
      <trkpt lat="44.6482" lon="5.23363">
        <ele>752</ele>
        <time>2022-07-28T07:43:41Z</time>
      </trkpt>
      <trkpt lat="44.64821" lon="5.23375">
        <ele>753</ele>
        <time>2022-07-28T07:43:45Z</time>
      </trkpt>
      <trkpt lat="44.64833" lon="5.23408">
        <ele>756</ele>
        <time>2022-07-28T07:43:57Z</time>
      </trkpt>
      <trkpt lat="44.64877" lon="5.23482">
        <ele>764</ele>
        <time>2022-07-28T07:44:28Z</time>
      </trkpt>
      <trkpt lat="44.64908" lon="5.23521">
        <ele>771</ele>
        <time>2022-07-28T07:44:45Z</time>
      </trkpt>
      <trkpt lat="44.64974" lon="5.23539">
        <ele>778</ele>
        <time>2022-07-28T07:45:12Z</time>
      </trkpt>
      <trkpt lat="44.64988" lon="5.23554">
        <ele>780</ele>
        <time>2022-07-28T07:45:20Z</time>
      </trkpt>
      <trkpt lat="44.65008" lon="5.23593">
        <ele>784</ele>
        <time>2022-07-28T07:45:35Z</time>
      </trkpt>
      <trkpt lat="44.65036" lon="5.23627">
        <ele>788</ele>
        <time>2022-07-28T07:45:51Z</time>
      </trkpt>
      <trkpt lat="44.65055" lon="5.23652">
        <ele>791</ele>
        <time>2022-07-28T07:46:03Z</time>
      </trkpt>
      <trkpt lat="44.65113" lon="5.23706">
        <ele>799</ele>
        <time>2022-07-28T07:46:34Z</time>
      </trkpt>
      <trkpt lat="44.65138" lon="5.23718">
        <ele>802</ele>
        <time>2022-07-28T07:46:46Z</time>
      </trkpt>
      <trkpt lat="44.6515" lon="5.23736">
        <ele>803</ele>
        <time>2022-07-28T07:46:54Z</time>
      </trkpt>
      <trkpt lat="44.65172" lon="5.2379">
        <ele>806</ele>
        <time>2022-07-28T07:47:14Z</time>
      </trkpt>
      <trkpt lat="44.65178" lon="5.23799">
        <ele>807</ele>
        <time>2022-07-28T07:47:18Z</time>
      </trkpt>
      <trkpt lat="44.65195" lon="5.23808">
        <ele>808</ele>
        <time>2022-07-28T07:47:24Z</time>
      </trkpt>
      <trkpt lat="44.65259" lon="5.23823">
        <ele>813</ele>
        <time>2022-07-28T07:47:45Z</time>
      </trkpt>
      <trkpt lat="44.65291" lon="5.23846">
        <ele>814</ele>
        <time>2022-07-28T07:47:56Z</time>
      </trkpt>
      <trkpt lat="44.65329" lon="5.23886">
        <ele>818</ele>
        <time>2022-07-28T07:48:11Z</time>
      </trkpt>
      <trkpt lat="44.65332" lon="5.23897">
        <ele>819</ele>
        <time>2022-07-28T07:48:14Z</time>
      </trkpt>
      <trkpt lat="44.65346" lon="5.24009">
        <ele>823</ele>
        <time>2022-07-28T07:48:44Z</time>
      </trkpt>
      <trkpt lat="44.65346" lon="5.2402">
        <ele>824</ele>
        <time>2022-07-28T07:48:47Z</time>
      </trkpt>
      <trkpt lat="44.65343" lon="5.24031">
        <ele>825</ele>
        <time>2022-07-28T07:48:50Z</time>
      </trkpt>
      <trkpt lat="44.65334" lon="5.2405">
        <ele>825</ele>
        <time>2022-07-28T07:48:56Z</time>
      </trkpt>
      <trkpt lat="44.65313" lon="5.24114">
        <ele>829</ele>
        <time>2022-07-28T07:49:14Z</time>
      </trkpt>
      <trkpt lat="44.65299" lon="5.24152">
        <ele>831</ele>
        <time>2022-07-28T07:49:26Z</time>
      </trkpt>
      <trkpt lat="44.65286" lon="5.24203">
        <ele>833</ele>
        <time>2022-07-28T07:49:41Z</time>
      </trkpt>
      <trkpt lat="44.65294" lon="5.24271">
        <ele>834</ele>
        <time>2022-07-28T07:50:02Z</time>
      </trkpt>
      <trkpt lat="44.65285" lon="5.24301">
        <ele>837</ele>
        <time>2022-07-28T07:50:16Z</time>
      </trkpt>
      <trkpt lat="44.65279" lon="5.24334">
        <ele>843</ele>
        <time>2022-07-28T07:50:30Z</time>
      </trkpt>
      <trkpt lat="44.65276" lon="5.24345">
        <ele>845</ele>
        <time>2022-07-28T07:50:36Z</time>
      </trkpt>
      <trkpt lat="44.65273" lon="5.24363">
        <ele>848</ele>
        <time>2022-07-28T07:51:27Z</time>
      </trkpt>
      <trkpt lat="44.65272" lon="5.24378">
        <ele>848</ele>
        <time>2022-07-28T07:51:41Z</time>
      </trkpt>
      <trkpt lat="44.65269" lon="5.24389">
        <ele>848</ele>
        <time>2022-07-28T07:51:45Z</time>
      </trkpt>
      <trkpt lat="44.65255" lon="5.24401">
        <ele>846</ele>
        <time>2022-07-28T07:51:53Z</time>
      </trkpt>
      <trkpt lat="44.65239" lon="5.24406">
        <ele>844</ele>
        <time>2022-07-28T07:51:58Z</time>
      </trkpt>
      <trkpt lat="44.65209" lon="5.24421">
        <ele>839</ele>
        <time>2022-07-28T07:52:08Z</time>
      </trkpt>
      <trkpt lat="44.65149" lon="5.24427">
        <ele>836</ele>
        <time>2022-07-28T07:52:33Z</time>
      </trkpt>
      <trkpt lat="44.65135" lon="5.2444">
        <ele>834</ele>
        <time>2022-07-28T07:52:40Z</time>
      </trkpt>
      <trkpt lat="44.65121" lon="5.24509">
        <ele>828</ele>
        <time>2022-07-28T07:52:58Z</time>
      </trkpt>
      <trkpt lat="44.65117" lon="5.24526">
        <ele>826</ele>
        <time>2022-07-28T07:53:03Z</time>
      </trkpt>
      <trkpt lat="44.65117" lon="5.2454">
        <ele>825</ele>
        <time>2022-07-28T07:53:07Z</time>
      </trkpt>
      <trkpt lat="44.65104" lon="5.24575">
        <ele>820</ele>
        <time>2022-07-28T07:53:16Z</time>
      </trkpt>
      <trkpt lat="44.651" lon="5.24584">
        <ele>817</ele>
        <time>2022-07-28T07:53:20Z</time>
      </trkpt>
      <trkpt lat="44.65094" lon="5.24591">
        <ele>815</ele>
        <time>2022-07-28T07:53:24Z</time>
      </trkpt>
      <trkpt lat="44.65085" lon="5.24594">
        <ele>813</ele>
        <time>2022-07-28T07:53:27Z</time>
      </trkpt>
      <trkpt lat="44.65076" lon="5.24592">
        <ele>812</ele>
        <time>2022-07-28T07:53:30Z</time>
      </trkpt>
      <trkpt lat="44.65064" lon="5.24587">
        <ele>810</ele>
        <time>2022-07-28T07:53:34Z</time>
      </trkpt>
      <trkpt lat="44.65055" lon="5.24587">
        <ele>809</ele>
        <time>2022-07-28T07:53:37Z</time>
      </trkpt>
      <trkpt lat="44.65046" lon="5.24591">
        <ele>808</ele>
        <time>2022-07-28T07:53:40Z</time>
      </trkpt>
      <trkpt lat="44.6504" lon="5.24598">
        <ele>806</ele>
        <time>2022-07-28T07:53:44Z</time>
      </trkpt>
      <trkpt lat="44.65036" lon="5.2461">
        <ele>806</ele>
        <time>2022-07-28T07:53:48Z</time>
      </trkpt>
      <trkpt lat="44.65035" lon="5.24643">
        <ele>803</ele>
        <time>2022-07-28T07:53:57Z</time>
      </trkpt>
      <trkpt lat="44.6504" lon="5.24661">
        <ele>801</ele>
        <time>2022-07-28T07:54:02Z</time>
      </trkpt>
      <trkpt lat="44.65043" lon="5.24673">
        <ele>799</ele>
        <time>2022-07-28T07:54:05Z</time>
      </trkpt>
      <trkpt lat="44.65044" lon="5.24686">
        <ele>797</ele>
        <time>2022-07-28T07:54:08Z</time>
      </trkpt>
      <trkpt lat="44.65042" lon="5.24697">
        <ele>796</ele>
        <time>2022-07-28T07:54:11Z</time>
      </trkpt>
      <trkpt lat="44.65038" lon="5.24706">
        <ele>795</ele>
        <time>2022-07-28T07:54:13Z</time>
      </trkpt>
      <trkpt lat="44.65015" lon="5.24735">
        <ele>789</ele>
        <time>2022-07-28T07:54:24Z</time>
      </trkpt>
      <trkpt lat="44.64997" lon="5.24786">
        <ele>783</ele>
        <time>2022-07-28T07:54:38Z</time>
      </trkpt>
      <trkpt lat="44.6499" lon="5.24799">
        <ele>781</ele>
        <time>2022-07-28T07:54:42Z</time>
      </trkpt>
      <trkpt lat="44.6498" lon="5.24809">
        <ele>779</ele>
        <time>2022-07-28T07:54:46Z</time>
      </trkpt>
      <trkpt lat="44.64971" lon="5.24811">
        <ele>777</ele>
        <time>2022-07-28T07:54:50Z</time>
      </trkpt>
      <trkpt lat="44.64963" lon="5.24816">
        <ele>775</ele>
        <time>2022-07-28T07:54:53Z</time>
      </trkpt>
      <trkpt lat="44.64956" lon="5.24821">
        <ele>773</ele>
        <time>2022-07-28T07:54:56Z</time>
      </trkpt>
      <trkpt lat="44.64948" lon="5.24824">
        <ele>772</ele>
        <time>2022-07-28T07:54:59Z</time>
      </trkpt>
      <trkpt lat="44.64943" lon="5.24833">
        <ele>770</ele>
        <time>2022-07-28T07:55:03Z</time>
      </trkpt>
      <trkpt lat="44.64943" lon="5.24844">
        <ele>768</ele>
        <time>2022-07-28T07:55:07Z</time>
      </trkpt>
      <trkpt lat="44.6494" lon="5.24856">
        <ele>768</ele>
        <time>2022-07-28T07:55:10Z</time>
      </trkpt>
      <trkpt lat="44.64939" lon="5.24872">
        <ele>765</ele>
        <time>2022-07-28T07:55:15Z</time>
      </trkpt>
      <trkpt lat="44.64953" lon="5.24864">
        <ele>760</ele>
        <time>2022-07-28T07:55:38Z</time>
      </trkpt>
      <trkpt lat="44.65043" lon="5.24842">
        <ele>757</ele>
        <time>2022-07-28T07:56:01Z</time>
      </trkpt>
      <trkpt lat="44.65059" lon="5.24829">
        <ele>756</ele>
        <time>2022-07-28T07:56:05Z</time>
      </trkpt>
      <trkpt lat="44.65067" lon="5.24831">
        <ele>756</ele>
        <time>2022-07-28T07:56:07Z</time>
      </trkpt>
      <trkpt lat="44.65096" lon="5.24896">
        <ele>758</ele>
        <time>2022-07-28T07:56:38Z</time>
      </trkpt>
      <trkpt lat="44.65126" lon="5.24959">
        <ele>764</ele>
        <time>2022-07-28T07:57:08Z</time>
      </trkpt>
      <trkpt lat="44.65128" lon="5.24982">
        <ele>766</ele>
        <time>2022-07-28T07:57:17Z</time>
      </trkpt>
      <trkpt lat="44.65137" lon="5.25001">
        <ele>768</ele>
        <time>2022-07-28T07:57:26Z</time>
      </trkpt>
      <trkpt lat="44.6515" lon="5.25012">
        <ele>769</ele>
        <time>2022-07-28T07:57:34Z</time>
      </trkpt>
      <trkpt lat="44.65156" lon="5.25022">
        <ele>770</ele>
        <time>2022-07-28T07:57:38Z</time>
      </trkpt>
      <trkpt lat="44.65166" lon="5.25044">
        <ele>770</ele>
        <time>2022-07-28T07:57:42Z</time>
      </trkpt>
      <trkpt lat="44.65171" lon="5.25069">
        <ele>769</ele>
        <time>2022-07-28T07:57:46Z</time>
      </trkpt>
      <trkpt lat="44.65177" lon="5.25076">
        <ele>768</ele>
        <time>2022-07-28T07:57:48Z</time>
      </trkpt>
      <trkpt lat="44.65237" lon="5.25095">
        <ele>772</ele>
        <time>2022-07-28T07:58:18Z</time>
      </trkpt>
      <trkpt lat="44.65253" lon="5.251">
        <ele>776</ele>
        <time>2022-07-28T07:58:28Z</time>
      </trkpt>
      <trkpt lat="44.6526" lon="5.25103">
        <ele>778</ele>
        <time>2022-07-28T07:58:33Z</time>
      </trkpt>
      <trkpt lat="44.65267" lon="5.2511">
        <ele>780</ele>
        <time>2022-07-28T07:58:38Z</time>
      </trkpt>
      <trkpt lat="44.65275" lon="5.25128">
        <ele>783</ele>
        <time>2022-07-28T07:58:46Z</time>
      </trkpt>
      <trkpt lat="44.65282" lon="5.25132">
        <ele>784</ele>
        <time>2022-07-28T07:58:50Z</time>
      </trkpt>
      <trkpt lat="44.65298" lon="5.25136">
        <ele>787</ele>
        <time>2022-07-28T07:59:00Z</time>
      </trkpt>
      <trkpt lat="44.65337" lon="5.25154">
        <ele>793</ele>
        <time>2022-07-28T07:59:25Z</time>
      </trkpt>
      <trkpt lat="44.65351" lon="5.25165">
        <ele>795</ele>
        <time>2022-07-28T07:59:37Z</time>
      </trkpt>
      <trkpt lat="44.65373" lon="5.25177">
        <ele>800</ele>
        <time>2022-07-28T08:00:10Z</time>
      </trkpt>
      <trkpt lat="44.65378" lon="5.25186">
        <ele>802</ele>
        <time>2022-07-28T08:00:17Z</time>
      </trkpt>
      <trkpt lat="44.65376" lon="5.25209">
        <ele>802</ele>
        <time>2022-07-28T08:00:28Z</time>
      </trkpt>
      <trkpt lat="44.6538" lon="5.25219">
        <ele>802</ele>
        <time>2022-07-28T08:00:34Z</time>
      </trkpt>
      <trkpt lat="44.65392" lon="5.25232">
        <ele>804</ele>
        <time>2022-07-28T08:00:45Z</time>
      </trkpt>
      <trkpt lat="44.65401" lon="5.25236">
        <ele>805</ele>
        <time>2022-07-28T08:00:51Z</time>
      </trkpt>
      <trkpt lat="44.65409" lon="5.25236">
        <ele>806</ele>
        <time>2022-07-28T08:00:56Z</time>
      </trkpt>
      <trkpt lat="44.65417" lon="5.2524">
        <ele>807</ele>
        <time>2022-07-28T08:01:01Z</time>
      </trkpt>
      <trkpt lat="44.65423" lon="5.25247">
        <ele>808</ele>
        <time>2022-07-28T08:01:06Z</time>
      </trkpt>
      <trkpt lat="44.65428" lon="5.25256">
        <ele>810</ele>
        <time>2022-07-28T08:01:11Z</time>
      </trkpt>
      <trkpt lat="44.6544" lon="5.2527">
        <ele>812</ele>
        <time>2022-07-28T08:01:19Z</time>
      </trkpt>
      <trkpt lat="44.65444" lon="5.2528">
        <ele>813</ele>
        <time>2022-07-28T08:01:24Z</time>
      </trkpt>
      <trkpt lat="44.65445" lon="5.25302">
        <ele>816</ele>
        <time>2022-07-28T08:01:33Z</time>
      </trkpt>
      <trkpt lat="44.65452" lon="5.25304">
        <ele>817</ele>
        <time>2022-07-28T08:01:38Z</time>
      </trkpt>
      <trkpt lat="44.65458" lon="5.25296">
        <ele>819</ele>
        <time>2022-07-28T08:01:43Z</time>
      </trkpt>
      <trkpt lat="44.65464" lon="5.2529">
        <ele>820</ele>
        <time>2022-07-28T08:01:47Z</time>
      </trkpt>
      <trkpt lat="44.65489" lon="5.25282">
        <ele>824</ele>
        <time>2022-07-28T08:02:01Z</time>
      </trkpt>
      <trkpt lat="44.65495" lon="5.25275">
        <ele>824</ele>
        <time>2022-07-28T08:02:04Z</time>
      </trkpt>
      <trkpt lat="44.65516" lon="5.25243">
        <ele>822</ele>
        <time>2022-07-28T08:02:11Z</time>
      </trkpt>
      <trkpt lat="44.65586" lon="5.25168">
        <ele>821</ele>
        <time>2022-07-28T08:02:42Z</time>
      </trkpt>
      <trkpt lat="44.65625" lon="5.25109">
        <ele>828</ele>
        <time>2022-07-28T08:03:13Z</time>
      </trkpt>
      <trkpt lat="44.65646" lon="5.2509">
        <ele>831</ele>
        <time>2022-07-28T08:03:25Z</time>
      </trkpt>
      <trkpt lat="44.65675" lon="5.2508">
        <ele>833</ele>
        <time>2022-07-28T08:03:37Z</time>
      </trkpt>
      <trkpt lat="44.65725" lon="5.25039">
        <ele>836</ele>
        <time>2022-07-28T08:04:04Z</time>
      </trkpt>
      <trkpt lat="44.65733" lon="5.25038">
        <ele>836</ele>
        <time>2022-07-28T08:04:07Z</time>
      </trkpt>
      <trkpt lat="44.65777" lon="5.25014">
        <ele>840</ele>
        <time>2022-07-28T08:04:28Z</time>
      </trkpt>
      <trkpt lat="44.65823" lon="5.25003">
        <ele>846</ele>
        <time>2022-07-28T08:04:55Z</time>
      </trkpt>
      <trkpt lat="44.65856" lon="5.25003">
        <ele>849</ele>
        <time>2022-07-28T08:05:12Z</time>
      </trkpt>
      <trkpt lat="44.65897" lon="5.24992">
        <ele>854</ele>
        <time>2022-07-28T08:05:33Z</time>
      </trkpt>
      <trkpt lat="44.65925" lon="5.24974">
        <ele>858</ele>
        <time>2022-07-28T08:05:49Z</time>
      </trkpt>
      <trkpt lat="44.65977" lon="5.2492">
        <ele>866</ele>
        <time>2022-07-28T08:06:22Z</time>
      </trkpt>
      <trkpt lat="44.66007" lon="5.24897">
        <ele>870</ele>
        <time>2022-07-28T08:06:41Z</time>
      </trkpt>
      <trkpt lat="44.66022" lon="5.24891">
        <ele>872</ele>
        <time>2022-07-28T08:06:51Z</time>
      </trkpt>
      <trkpt lat="44.66029" lon="5.24886">
        <ele>873</ele>
        <time>2022-07-28T08:06:55Z</time>
      </trkpt>
      <trkpt lat="44.66046" lon="5.24861">
        <ele>878</ele>
        <time>2022-07-28T08:07:11Z</time>
      </trkpt>
      <trkpt lat="44.66061" lon="5.24853">
        <ele>880</ele>
        <time>2022-07-28T08:07:20Z</time>
      </trkpt>
      <trkpt lat="44.66079" lon="5.24853">
        <ele>882</ele>
        <time>2022-07-28T08:07:29Z</time>
      </trkpt>
      <trkpt lat="44.66087" lon="5.24855">
        <ele>883</ele>
        <time>2022-07-28T08:07:32Z</time>
      </trkpt>
      <trkpt lat="44.66102" lon="5.24852">
        <ele>884</ele>
        <time>2022-07-28T08:07:40Z</time>
      </trkpt>
      <trkpt lat="44.66147" lon="5.24833">
        <ele>889</ele>
        <time>2022-07-28T08:08:06Z</time>
      </trkpt>
      <trkpt lat="44.66163" lon="5.24835">
        <ele>892</ele>
        <time>2022-07-28T08:08:14Z</time>
      </trkpt>
      <trkpt lat="44.66197" lon="5.24828">
        <ele>897</ele>
        <time>2022-07-28T08:08:34Z</time>
      </trkpt>
      <trkpt lat="44.66223" lon="5.24829">
        <ele>899</ele>
        <time>2022-07-28T08:08:47Z</time>
      </trkpt>
      <trkpt lat="44.66238" lon="5.24838">
        <ele>901</ele>
        <time>2022-07-28T08:08:54Z</time>
      </trkpt>
      <trkpt lat="44.66259" lon="5.24856">
        <ele>904</ele>
        <time>2022-07-28T08:09:07Z</time>
      </trkpt>
      <trkpt lat="44.66278" lon="5.24882">
        <ele>907</ele>
        <time>2022-07-28T08:09:19Z</time>
      </trkpt>
      <trkpt lat="44.66293" lon="5.24889">
        <ele>908</ele>
        <time>2022-07-28T08:09:27Z</time>
      </trkpt>
      <trkpt lat="44.66298" lon="5.24896">
        <ele>908</ele>
        <time>2022-07-28T08:09:31Z</time>
      </trkpt>
      <trkpt lat="44.66304" lon="5.24902">
        <ele>909</ele>
        <time>2022-07-28T08:09:35Z</time>
      </trkpt>
      <trkpt lat="44.66309" lon="5.2491">
        <ele>912</ele>
        <time>2022-07-28T08:09:39Z</time>
      </trkpt>
      <trkpt lat="44.66316" lon="5.24932">
        <ele>914</ele>
        <time>2022-07-28T08:09:48Z</time>
      </trkpt>
      <trkpt lat="44.66326" lon="5.24949">
        <ele>917</ele>
        <time>2022-07-28T08:09:57Z</time>
      </trkpt>
      <trkpt lat="44.66332" lon="5.24957">
        <ele>919</ele>
        <time>2022-07-28T08:10:03Z</time>
      </trkpt>
      <trkpt lat="44.66337" lon="5.24965">
        <ele>921</ele>
        <time>2022-07-28T08:10:07Z</time>
      </trkpt>
      <trkpt lat="44.66339" lon="5.24919">
        <ele>932</ele>
        <time>2022-07-28T08:10:53Z</time>
      </trkpt>
      <trkpt lat="44.6634" lon="5.24908">
        <ele>933</ele>
        <time>2022-07-28T08:10:57Z</time>
      </trkpt>
      <trkpt lat="44.66339" lon="5.24852">
        <ele>941</ele>
        <time>2022-07-28T08:11:22Z</time>
      </trkpt>
      <trkpt lat="44.66335" lon="5.24831">
        <ele>944</ele>
        <time>2022-07-28T08:11:30Z</time>
      </trkpt>
      <trkpt lat="44.66331" lon="5.2482">
        <ele>946</ele>
        <time>2022-07-28T08:11:35Z</time>
      </trkpt>
      <trkpt lat="44.66339" lon="5.24816">
        <ele>949</ele>
        <time>2022-07-28T08:11:45Z</time>
      </trkpt>
      <trkpt lat="44.66354" lon="5.24819">
        <ele>951</ele>
        <time>2022-07-28T08:11:55Z</time>
      </trkpt>
      <trkpt lat="44.66363" lon="5.24815">
        <ele>954</ele>
        <time>2022-07-28T08:21:32Z</time>
      </trkpt>
      <trkpt lat="44.66439" lon="5.2487">
        <ele>949</ele>
        <time>2022-07-28T08:21:57Z</time>
      </trkpt>
      <trkpt lat="44.66522" lon="5.24938">
        <ele>940</ele>
        <time>2022-07-28T08:22:27Z</time>
      </trkpt>
      <trkpt lat="44.66575" lon="5.24973">
        <ele>933</ele>
        <time>2022-07-28T08:22:46Z</time>
      </trkpt>
      <trkpt lat="44.66567" lon="5.24964">
        <ele>930</ele>
        <time>2022-07-28T08:23:22Z</time>
      </trkpt>
      <trkpt lat="44.665" lon="5.24875">
        <ele>923</ele>
        <time>2022-07-28T08:23:53Z</time>
      </trkpt>
      <trkpt lat="44.66465" lon="5.24812">
        <ele>917</ele>
        <time>2022-07-28T08:24:12Z</time>
      </trkpt>
      <trkpt lat="44.66474" lon="5.24813">
        <ele>913</ele>
        <time>2022-07-28T08:24:27Z</time>
      </trkpt>
      <trkpt lat="44.66523" lon="5.24864">
        <ele>908</ele>
        <time>2022-07-28T08:24:53Z</time>
      </trkpt>
      <trkpt lat="44.66608" lon="5.24914">
        <ele>899</ele>
        <time>2022-07-28T08:25:24Z</time>
      </trkpt>
      <trkpt lat="44.66691" lon="5.24946">
        <ele>890</ele>
        <time>2022-07-28T08:25:55Z</time>
      </trkpt>
      <trkpt lat="44.667" lon="5.24949">
        <ele>890</ele>
        <time>2022-07-28T08:25:58Z</time>
      </trkpt>
      <trkpt lat="44.66778" lon="5.24953">
        <ele>881</ele>
        <time>2022-07-28T08:26:26Z</time>
      </trkpt>
      <trkpt lat="44.66865" lon="5.24923">
        <ele>872</ele>
        <time>2022-07-28T08:26:58Z</time>
      </trkpt>
      <trkpt lat="44.66872" lon="5.2492">
        <ele>871</ele>
        <time>2022-07-28T08:27:01Z</time>
      </trkpt>
      <trkpt lat="44.66905" lon="5.24913">
        <ele>867</ele>
        <time>2022-07-28T08:27:21Z</time>
      </trkpt>
      <trkpt lat="44.66981" lon="5.24944">
        <ele>860</ele>
        <time>2022-07-28T08:27:53Z</time>
      </trkpt>
      <trkpt lat="44.66996" lon="5.24955">
        <ele>857</ele>
        <time>2022-07-28T08:28:00Z</time>
      </trkpt>
      <trkpt lat="44.67003" lon="5.24964">
        <ele>856</ele>
        <time>2022-07-28T08:28:11Z</time>
      </trkpt>
      <trkpt lat="44.66971" lon="5.24899">
        <ele>846</ele>
        <time>2022-07-28T08:29:20Z</time>
      </trkpt>
      <trkpt lat="44.66957" lon="5.24883">
        <ele>844</ele>
        <time>2022-07-28T08:29:27Z</time>
      </trkpt>
      <trkpt lat="44.669" lon="5.24847">
        <ele>838</ele>
        <time>2022-07-28T08:29:53Z</time>
      </trkpt>
      <trkpt lat="44.66826" lon="5.24835">
        <ele>830</ele>
        <time>2022-07-28T08:30:19Z</time>
      </trkpt>
      <trkpt lat="44.66902" lon="5.24806">
        <ele>819</ele>
        <time>2022-07-28T08:33:22Z</time>
      </trkpt>
      <trkpt lat="44.66935" lon="5.24809">
        <ele>815</ele>
        <time>2022-07-28T08:33:33Z</time>
      </trkpt>
      <trkpt lat="44.66943" lon="5.24813">
        <ele>814</ele>
        <time>2022-07-28T08:33:36Z</time>
      </trkpt>
      <trkpt lat="44.66995" lon="5.2483">
        <ele>808</ele>
        <time>2022-07-28T08:33:54Z</time>
      </trkpt>
      <trkpt lat="44.67003" lon="5.24836">
        <ele>808</ele>
        <time>2022-07-28T08:33:57Z</time>
      </trkpt>
      <trkpt lat="44.67063" lon="5.24897">
        <ele>799</ele>
        <time>2022-07-28T08:34:28Z</time>
      </trkpt>
      <trkpt lat="44.67081" lon="5.24909">
        <ele>797</ele>
        <time>2022-07-28T08:34:33Z</time>
      </trkpt>
      <trkpt lat="44.67122" lon="5.24939">
        <ele>793</ele>
        <time>2022-07-28T08:34:54Z</time>
      </trkpt>
      <trkpt lat="44.67153" lon="5.24946">
        <ele>790</ele>
        <time>2022-07-28T08:35:02Z</time>
      </trkpt>
      <trkpt lat="44.67175" lon="5.24937">
        <ele>789</ele>
        <time>2022-07-28T08:35:09Z</time>
      </trkpt>
      <trkpt lat="44.67222" lon="5.24906">
        <ele>783</ele>
        <time>2022-07-28T08:35:26Z</time>
      </trkpt>
      <trkpt lat="44.67237" lon="5.24904">
        <ele>779</ele>
        <time>2022-07-28T08:36:35Z</time>
      </trkpt>
      <trkpt lat="44.67229" lon="5.24903">
        <ele>777</ele>
        <time>2022-07-28T08:38:19Z</time>
      </trkpt>
      <trkpt lat="44.67195" lon="5.24902">
        <ele>774</ele>
        <time>2022-07-28T08:38:33Z</time>
      </trkpt>
      <trkpt lat="44.67166" lon="5.24906">
        <ele>772</ele>
        <time>2022-07-28T08:38:42Z</time>
      </trkpt>
      <trkpt lat="44.67139" lon="5.24895">
        <ele>768</ele>
        <time>2022-07-28T08:38:54Z</time>
      </trkpt>
      <trkpt lat="44.67103" lon="5.24854">
        <ele>763</ele>
        <time>2022-07-28T08:39:16Z</time>
      </trkpt>
      <trkpt lat="44.67077" lon="5.24819">
        <ele>758</ele>
        <time>2022-07-28T08:39:36Z</time>
      </trkpt>
      <trkpt lat="44.67063" lon="5.24776">
        <ele>754</ele>
        <time>2022-07-28T08:40:08Z</time>
      </trkpt>
      <trkpt lat="44.67073" lon="5.24778">
        <ele>748</ele>
        <time>2022-07-28T08:40:51Z</time>
      </trkpt>
      <trkpt lat="44.67077" lon="5.24789">
        <ele>747</ele>
        <time>2022-07-28T08:40:55Z</time>
      </trkpt>
      <trkpt lat="44.6709" lon="5.24805">
        <ele>745</ele>
        <time>2022-07-28T08:41:02Z</time>
      </trkpt>
      <trkpt lat="44.67117" lon="5.24818">
        <ele>740</ele>
        <time>2022-07-28T08:41:16Z</time>
      </trkpt>
      <trkpt lat="44.67126" lon="5.24822">
        <ele>738</ele>
        <time>2022-07-28T08:41:20Z</time>
      </trkpt>
      <trkpt lat="44.67133" lon="5.24828">
        <ele>737</ele>
        <time>2022-07-28T08:41:23Z</time>
      </trkpt>
      <trkpt lat="44.67139" lon="5.24835">
        <ele>735</ele>
        <time>2022-07-28T08:41:27Z</time>
      </trkpt>
      <trkpt lat="44.67146" lon="5.2484">
        <ele>734</ele>
        <time>2022-07-28T08:41:30Z</time>
      </trkpt>
      <trkpt lat="44.67154" lon="5.24841">
        <ele>729</ele>
        <time>2022-07-28T08:41:58Z</time>
      </trkpt>
      <trkpt lat="44.67179" lon="5.24828">
        <ele>727</ele>
        <time>2022-07-28T08:42:13Z</time>
      </trkpt>
      <trkpt lat="44.67205" lon="5.24803">
        <ele>722</ele>
        <time>2022-07-28T08:42:26Z</time>
      </trkpt>
      <trkpt lat="44.67213" lon="5.24801">
        <ele>721</ele>
        <time>2022-07-28T08:42:30Z</time>
      </trkpt>
      <trkpt lat="44.67221" lon="5.24789">
        <ele>719</ele>
        <time>2022-07-28T08:42:41Z</time>
      </trkpt>
      <trkpt lat="44.67229" lon="5.24793">
        <ele>718</ele>
        <time>2022-07-28T08:42:46Z</time>
      </trkpt>
      <trkpt lat="44.67251" lon="5.24773">
        <ele>714</ele>
        <time>2022-07-28T08:42:58Z</time>
      </trkpt>
      <trkpt lat="44.67258" lon="5.24777">
        <ele>712</ele>
        <time>2022-07-28T08:43:08Z</time>
      </trkpt>
      <trkpt lat="44.67276" lon="5.24749">
        <ele>710</ele>
        <time>2022-07-28T08:43:28Z</time>
      </trkpt>
      <trkpt lat="44.67285" lon="5.24743">
        <ele>709</ele>
        <time>2022-07-28T08:43:31Z</time>
      </trkpt>
      <trkpt lat="44.67308" lon="5.24716">
        <ele>703</ele>
        <time>2022-07-28T08:43:41Z</time>
      </trkpt>
      <trkpt lat="44.67315" lon="5.24713">
        <ele>702</ele>
        <time>2022-07-28T08:43:43Z</time>
      </trkpt>
      <trkpt lat="44.67334" lon="5.24714">
        <ele>699</ele>
        <time>2022-07-28T08:43:50Z</time>
      </trkpt>
      <trkpt lat="44.67354" lon="5.24731">
        <ele>698</ele>
        <time>2022-07-28T08:43:58Z</time>
      </trkpt>
      <trkpt lat="44.67361" lon="5.24733">
        <ele>697</ele>
        <time>2022-07-28T08:44:01Z</time>
      </trkpt>
      <trkpt lat="44.67383" lon="5.24745">
        <ele>693</ele>
        <time>2022-07-28T08:44:08Z</time>
      </trkpt>
      <trkpt lat="44.67454" lon="5.24796">
        <ele>683</ele>
        <time>2022-07-28T08:44:29Z</time>
      </trkpt>
      <trkpt lat="44.67461" lon="5.24805">
        <ele>681</ele>
        <time>2022-07-28T08:44:32Z</time>
      </trkpt>
      <trkpt lat="44.6747" lon="5.2481">
        <ele>678</ele>
        <time>2022-07-28T08:44:36Z</time>
      </trkpt>
      <trkpt lat="44.67464" lon="5.24793">
        <ele>671</ele>
        <time>2022-07-28T08:45:20Z</time>
      </trkpt>
      <trkpt lat="44.6744" lon="5.24752">
        <ele>670</ele>
        <time>2022-07-28T08:45:32Z</time>
      </trkpt>
      <trkpt lat="44.67429" lon="5.24736">
        <ele>668</ele>
        <time>2022-07-28T08:45:37Z</time>
      </trkpt>
      <trkpt lat="44.67372" lon="5.24668">
        <ele>664</ele>
        <time>2022-07-28T08:46:04Z</time>
      </trkpt>
      <trkpt lat="44.67367" lon="5.24653">
        <ele>665</ele>
        <time>2022-07-28T08:46:12Z</time>
      </trkpt>
      <trkpt lat="44.67363" lon="5.24631">
        <ele>665</ele>
        <time>2022-07-28T08:46:21Z</time>
      </trkpt>
      <trkpt lat="44.67363" lon="5.24616">
        <ele>664</ele>
        <time>2022-07-28T08:46:26Z</time>
      </trkpt>
      <trkpt lat="44.67369" lon="5.24609">
        <ele>663</ele>
        <time>2022-07-28T08:46:29Z</time>
      </trkpt>
      <trkpt lat="44.67377" lon="5.24614">
        <ele>657</ele>
        <time>2022-07-28T08:46:35Z</time>
      </trkpt>
      <trkpt lat="44.67377" lon="5.2463">
        <ele>655</ele>
        <time>2022-07-28T08:46:40Z</time>
      </trkpt>
      <trkpt lat="44.67379" lon="5.24643">
        <ele>654</ele>
        <time>2022-07-28T08:46:43Z</time>
      </trkpt>
      <trkpt lat="44.67383" lon="5.24653">
        <ele>653</ele>
        <time>2022-07-28T08:46:45Z</time>
      </trkpt>
      <trkpt lat="44.67393" lon="5.24664">
        <ele>653</ele>
        <time>2022-07-28T08:46:48Z</time>
      </trkpt>
      <trkpt lat="44.67429" lon="5.24691">
        <ele>649</ele>
        <time>2022-07-28T08:46:56Z</time>
      </trkpt>
      <trkpt lat="44.6747" lon="5.2472">
        <ele>643</ele>
        <time>2022-07-28T08:47:05Z</time>
      </trkpt>
      <trkpt lat="44.67551" lon="5.2478">
        <ele>630</ele>
        <time>2022-07-28T08:47:23Z</time>
      </trkpt>
      <trkpt lat="44.67575" lon="5.24812">
        <ele>627</ele>
        <time>2022-07-28T08:47:29Z</time>
      </trkpt>
      <trkpt lat="44.67578" lon="5.24827">
        <ele>625</ele>
        <time>2022-07-28T08:47:31Z</time>
      </trkpt>
      <trkpt lat="44.67579" lon="5.24877">
        <ele>621</ele>
        <time>2022-07-28T08:47:38Z</time>
      </trkpt>
      <trkpt lat="44.67575" lon="5.24926">
        <ele>618</ele>
        <time>2022-07-28T08:47:44Z</time>
      </trkpt>
      <trkpt lat="44.6758" lon="5.25031">
        <ele>611</ele>
        <time>2022-07-28T08:47:58Z</time>
      </trkpt>
      <trkpt lat="44.67586" lon="5.25048">
        <ele>610</ele>
        <time>2022-07-28T08:48:01Z</time>
      </trkpt>
      <trkpt lat="44.67601" lon="5.25076">
        <ele>607</ele>
        <time>2022-07-28T08:48:06Z</time>
      </trkpt>
      <trkpt lat="44.67604" lon="5.25088">
        <ele>606</ele>
        <time>2022-07-28T08:48:08Z</time>
      </trkpt>
      <trkpt lat="44.67606" lon="5.25099">
        <ele>605</ele>
        <time>2022-07-28T08:48:10Z</time>
      </trkpt>
      <trkpt lat="44.67611" lon="5.25107">
        <ele>605</ele>
        <time>2022-07-28T08:48:12Z</time>
      </trkpt>
      <trkpt lat="44.67636" lon="5.25119">
        <ele>601</ele>
        <time>2022-07-28T08:48:18Z</time>
      </trkpt>
      <trkpt lat="44.67649" lon="5.2513">
        <ele>599</ele>
        <time>2022-07-28T08:48:21Z</time>
      </trkpt>
      <trkpt lat="44.67659" lon="5.25134">
        <ele>597</ele>
        <time>2022-07-28T08:48:23Z</time>
      </trkpt>
      <trkpt lat="44.67692" lon="5.25139">
        <ele>595</ele>
        <time>2022-07-28T08:48:30Z</time>
      </trkpt>
      <trkpt lat="44.67743" lon="5.25162">
        <ele>589</ele>
        <time>2022-07-28T08:48:40Z</time>
      </trkpt>
      <trkpt lat="44.67785" lon="5.25157">
        <ele>585</ele>
        <time>2022-07-28T08:48:47Z</time>
      </trkpt>
      <trkpt lat="44.6781" lon="5.25142">
        <ele>583</ele>
        <time>2022-07-28T08:48:51Z</time>
      </trkpt>
      <trkpt lat="44.67863" lon="5.25095">
        <ele>578</ele>
        <time>2022-07-28T08:49:02Z</time>
      </trkpt>
      <trkpt lat="44.67889" lon="5.2509">
        <ele>576</ele>
        <time>2022-07-28T08:49:07Z</time>
      </trkpt>
      <trkpt lat="44.67898" lon="5.25092">
        <ele>575</ele>
        <time>2022-07-28T08:49:09Z</time>
      </trkpt>
      <trkpt lat="44.67905" lon="5.25098">
        <ele>574</ele>
        <time>2022-07-28T08:49:11Z</time>
      </trkpt>
      <trkpt lat="44.67909" lon="5.25117">
        <ele>573</ele>
        <time>2022-07-28T08:49:14Z</time>
      </trkpt>
      <trkpt lat="44.67909" lon="5.25141">
        <ele>572</ele>
        <time>2022-07-28T08:49:17Z</time>
      </trkpt>
      <trkpt lat="44.67914" lon="5.25156">
        <ele>571</ele>
        <time>2022-07-28T08:49:19Z</time>
      </trkpt>
      <trkpt lat="44.67954" lon="5.25229">
        <ele>566</ele>
        <time>2022-07-28T08:49:30Z</time>
      </trkpt>
      <trkpt lat="44.67964" lon="5.25239">
        <ele>566</ele>
        <time>2022-07-28T08:49:32Z</time>
      </trkpt>
      <trkpt lat="44.67991" lon="5.25243">
        <ele>564</ele>
        <time>2022-07-28T08:49:36Z</time>
      </trkpt>
      <trkpt lat="44.68011" lon="5.25233">
        <ele>562</ele>
        <time>2022-07-28T08:49:40Z</time>
      </trkpt>
      <trkpt lat="44.68023" lon="5.25234">
        <ele>561</ele>
        <time>2022-07-28T08:49:42Z</time>
      </trkpt>
      <trkpt lat="44.68119" lon="5.25294">
        <ele>556</ele>
        <time>2022-07-28T08:49:57Z</time>
      </trkpt>
      <trkpt lat="44.68138" lon="5.25318">
        <ele>553</ele>
        <time>2022-07-28T08:50:01Z</time>
      </trkpt>
      <trkpt lat="44.6815" lon="5.25351">
        <ele>552</ele>
        <time>2022-07-28T08:50:06Z</time>
      </trkpt>
      <trkpt lat="44.68153" lon="5.25402">
        <ele>546</ele>
        <time>2022-07-28T08:50:17Z</time>
      </trkpt>
      <trkpt lat="44.68165" lon="5.25349">
        <ele>545</ele>
        <time>2022-07-28T08:50:32Z</time>
      </trkpt>
      <trkpt lat="44.68179" lon="5.25322">
        <ele>544</ele>
        <time>2022-07-28T08:50:36Z</time>
      </trkpt>
      <trkpt lat="44.68228" lon="5.25269">
        <ele>540</ele>
        <time>2022-07-28T08:50:47Z</time>
      </trkpt>
      <trkpt lat="44.68244" lon="5.2526">
        <ele>539</ele>
        <time>2022-07-28T08:50:54Z</time>
      </trkpt>
      <trkpt lat="44.68317" lon="5.25265">
        <ele>544</ele>
        <time>2022-07-28T08:51:25Z</time>
      </trkpt>
      <trkpt lat="44.68326" lon="5.25265">
        <ele>545</ele>
        <time>2022-07-28T08:51:30Z</time>
      </trkpt>
      <trkpt lat="44.68366" lon="5.25259">
        <ele>548</ele>
        <time>2022-07-28T08:51:52Z</time>
      </trkpt>
      <trkpt lat="44.68374" lon="5.25262">
        <ele>549</ele>
        <time>2022-07-28T08:51:56Z</time>
      </trkpt>
      <trkpt lat="44.68379" lon="5.25271">
        <ele>550</ele>
        <time>2022-07-28T08:52:00Z</time>
      </trkpt>
      <trkpt lat="44.6838" lon="5.25282">
        <ele>550</ele>
        <time>2022-07-28T08:52:04Z</time>
      </trkpt>
      <trkpt lat="44.68376" lon="5.25304">
        <ele>552</ele>
        <time>2022-07-28T08:52:12Z</time>
      </trkpt>
      <trkpt lat="44.68375" lon="5.25314">
        <ele>553</ele>
        <time>2022-07-28T08:52:16Z</time>
      </trkpt>
      <trkpt lat="44.68382" lon="5.25322">
        <ele>554</ele>
        <time>2022-07-28T08:52:21Z</time>
      </trkpt>
      <trkpt lat="44.68388" lon="5.25316">
        <ele>556</ele>
        <time>2022-07-28T08:52:26Z</time>
      </trkpt>
      <trkpt lat="44.68392" lon="5.25307">
        <ele>557</ele>
        <time>2022-07-28T08:52:30Z</time>
      </trkpt>
      <trkpt lat="44.68443" lon="5.2526">
        <ele>565</ele>
        <time>2022-07-28T08:53:02Z</time>
      </trkpt>
      <trkpt lat="44.68446" lon="5.25249">
        <ele>565</ele>
        <time>2022-07-28T08:53:06Z</time>
      </trkpt>
      <trkpt lat="44.68436" lon="5.2523">
        <ele>566</ele>
        <time>2022-07-28T08:53:15Z</time>
      </trkpt>
      <trkpt lat="44.68416" lon="5.25207">
        <ele>568</ele>
        <time>2022-07-28T08:53:27Z</time>
      </trkpt>
      <trkpt lat="44.68402" lon="5.25196">
        <ele>569</ele>
        <time>2022-07-28T08:53:35Z</time>
      </trkpt>
      <trkpt lat="44.68373" lon="5.25184">
        <ele>572</ele>
        <time>2022-07-28T08:53:51Z</time>
      </trkpt>
      <trkpt lat="44.68369" lon="5.25174">
        <ele>573</ele>
        <time>2022-07-28T08:53:56Z</time>
      </trkpt>
      <trkpt lat="44.68381" lon="5.25159">
        <ele>575</ele>
        <time>2022-07-28T08:54:04Z</time>
      </trkpt>
      <trkpt lat="44.68457" lon="5.25102">
        <ele>578</ele>
        <time>2022-07-28T08:54:35Z</time>
      </trkpt>
      <trkpt lat="44.68509" lon="5.25067">
        <ele>577</ele>
        <time>2022-07-28T08:54:49Z</time>
      </trkpt>
      <trkpt lat="44.68547" lon="5.25017">
        <ele>574</ele>
        <time>2022-07-28T08:55:01Z</time>
      </trkpt>
      <trkpt lat="44.68555" lon="5.25">
        <ele>573</ele>
        <time>2022-07-28T08:55:05Z</time>
      </trkpt>
      <trkpt lat="44.68562" lon="5.24991">
        <ele>572</ele>
        <time>2022-07-28T08:55:08Z</time>
      </trkpt>
      <trkpt lat="44.68566" lon="5.24979">
        <ele>570</ele>
        <time>2022-07-28T08:55:11Z</time>
      </trkpt>
      <trkpt lat="44.68567" lon="5.24968">
        <ele>570</ele>
        <time>2022-07-28T08:55:13Z</time>
      </trkpt>
      <trkpt lat="44.6857" lon="5.24942">
        <ele>566</ele>
        <time>2022-07-28T08:55:18Z</time>
      </trkpt>
      <trkpt lat="44.68572" lon="5.24928">
        <ele>564</ele>
        <time>2022-07-28T08:55:20Z</time>
      </trkpt>
      <trkpt lat="44.68574" lon="5.24916">
        <ele>561</ele>
        <time>2022-07-28T08:55:22Z</time>
      </trkpt>
      <trkpt lat="44.68576" lon="5.24903">
        <ele>559</ele>
        <time>2022-07-28T08:55:24Z</time>
      </trkpt>
      <trkpt lat="44.68585" lon="5.24866">
        <ele>553</ele>
        <time>2022-07-28T08:55:31Z</time>
      </trkpt>
      <trkpt lat="44.68588" lon="5.24849">
        <ele>550</ele>
        <time>2022-07-28T08:55:34Z</time>
      </trkpt>
      <trkpt lat="44.68592" lon="5.24831">
        <ele>547</ele>
        <time>2022-07-28T08:55:38Z</time>
      </trkpt>
      <trkpt lat="44.68602" lon="5.24816">
        <ele>543</ele>
        <time>2022-07-28T08:55:43Z</time>
      </trkpt>
      <trkpt lat="44.68614" lon="5.24791">
        <ele>539</ele>
        <time>2022-07-28T08:55:49Z</time>
      </trkpt>
      <trkpt lat="44.6862" lon="5.24764">
        <ele>536</ele>
        <time>2022-07-28T08:55:53Z</time>
      </trkpt>
      <trkpt lat="44.6863" lon="5.2474">
        <ele>532</ele>
        <time>2022-07-28T08:55:57Z</time>
      </trkpt>
      <trkpt lat="44.68677" lon="5.2455">
        <ele>517</ele>
        <time>2022-07-28T08:56:27Z</time>
      </trkpt>
      <trkpt lat="44.68685" lon="5.24509">
        <ele>514</ele>
        <time>2022-07-28T08:56:34Z</time>
      </trkpt>
      <trkpt lat="44.68686" lon="5.24499">
        <ele>512</ele>
        <time>2022-07-28T08:56:36Z</time>
      </trkpt>
      <trkpt lat="44.68691" lon="5.24467">
        <ele>508</ele>
        <time>2022-07-28T08:56:41Z</time>
      </trkpt>
      <trkpt lat="44.68695" lon="5.24437">
        <ele>505</ele>
        <time>2022-07-28T08:56:46Z</time>
      </trkpt>
      <trkpt lat="44.68708" lon="5.24402">
        <ele>501</ele>
        <time>2022-07-28T08:56:52Z</time>
      </trkpt>
      <trkpt lat="44.68711" lon="5.2439">
        <ele>499</ele>
        <time>2022-07-28T08:56:54Z</time>
      </trkpt>
      <trkpt lat="44.68718" lon="5.24364">
        <ele>495</ele>
        <time>2022-07-28T08:56:59Z</time>
      </trkpt>
      <trkpt lat="44.68718" lon="5.2435">
        <ele>494</ele>
        <time>2022-07-28T08:57:02Z</time>
      </trkpt>
      <trkpt lat="44.68714" lon="5.24341">
        <ele>493</ele>
        <time>2022-07-28T08:57:04Z</time>
      </trkpt>
      <trkpt lat="44.68705" lon="5.24338">
        <ele>492</ele>
        <time>2022-07-28T08:57:07Z</time>
      </trkpt>
      <trkpt lat="44.68696" lon="5.24343">
        <ele>490</ele>
        <time>2022-07-28T08:57:10Z</time>
      </trkpt>
      <trkpt lat="44.68683" lon="5.24348">
        <ele>488</ele>
        <time>2022-07-28T08:57:14Z</time>
      </trkpt>
      <trkpt lat="44.68591" lon="5.24403">
        <ele>477</ele>
        <time>2022-07-28T08:57:39Z</time>
      </trkpt>
      <trkpt lat="44.68586" lon="5.24392">
        <ele>477</ele>
        <time>2022-07-28T08:57:46Z</time>
      </trkpt>
      <trkpt lat="44.68592" lon="5.2438">
        <ele>476</ele>
        <time>2022-07-28T08:57:53Z</time>
      </trkpt>
      <trkpt lat="44.686" lon="5.24334">
        <ele>473</ele>
        <time>2022-07-28T08:58:05Z</time>
      </trkpt>
      <trkpt lat="44.68597" lon="5.24321">
        <ele>471</ele>
        <time>2022-07-28T08:58:08Z</time>
      </trkpt>
      <trkpt lat="44.68593" lon="5.24309">
        <ele>469</ele>
        <time>2022-07-28T08:58:11Z</time>
      </trkpt>
      <trkpt lat="44.68596" lon="5.24297">
        <ele>469</ele>
        <time>2022-07-28T08:58:13Z</time>
      </trkpt>
      <trkpt lat="44.68608" lon="5.24294">
        <ele>465</ele>
        <time>2022-07-28T08:58:18Z</time>
      </trkpt>
      <trkpt lat="44.68617" lon="5.24296">
        <ele>463</ele>
        <time>2022-07-28T08:58:21Z</time>
      </trkpt>
      <trkpt lat="44.68624" lon="5.24294">
        <ele>462</ele>
        <time>2022-07-28T08:58:24Z</time>
      </trkpt>
      <trkpt lat="44.68665" lon="5.2419">
        <ele>455</ele>
        <time>2022-07-28T08:58:45Z</time>
      </trkpt>
      <trkpt lat="44.68675" lon="5.2413">
        <ele>450</ele>
        <time>2022-07-28T08:58:54Z</time>
      </trkpt>
      <trkpt lat="44.68677" lon="5.24119">
        <ele>448</ele>
        <time>2022-07-28T08:58:56Z</time>
      </trkpt>
      <trkpt lat="44.6868" lon="5.24082">
        <ele>445</ele>
        <time>2022-07-28T08:59:04Z</time>
      </trkpt>
      <trkpt lat="44.68685" lon="5.24074">
        <ele>443</ele>
        <time>2022-07-28T08:59:06Z</time>
      </trkpt>
      <trkpt lat="44.68692" lon="5.24068">
        <ele>441</ele>
        <time>2022-07-28T08:59:09Z</time>
      </trkpt>
      <trkpt lat="44.68703" lon="5.24064">
        <ele>438</ele>
        <time>2022-07-28T08:59:13Z</time>
      </trkpt>
      <trkpt lat="44.68722" lon="5.24074">
        <ele>436</ele>
        <time>2022-07-28T08:59:18Z</time>
      </trkpt>
      <trkpt lat="44.68736" lon="5.24087">
        <ele>435</ele>
        <time>2022-07-28T08:59:22Z</time>
      </trkpt>
      <trkpt lat="44.68746" lon="5.24105">
        <ele>434</ele>
        <time>2022-07-28T08:59:26Z</time>
      </trkpt>
      <trkpt lat="44.68771" lon="5.24165">
        <ele>429</ele>
        <time>2022-07-28T08:59:36Z</time>
      </trkpt>
      <trkpt lat="44.688" lon="5.24216">
        <ele>426</ele>
        <time>2022-07-28T08:59:46Z</time>
      </trkpt>
      <trkpt lat="44.68806" lon="5.24224">
        <ele>425</ele>
        <time>2022-07-28T08:59:48Z</time>
      </trkpt>
      <trkpt lat="44.68814" lon="5.2423">
        <ele>424</ele>
        <time>2022-07-28T08:59:50Z</time>
      </trkpt>
      <trkpt lat="44.68841" lon="5.24235">
        <ele>423</ele>
        <time>2022-07-28T08:59:58Z</time>
      </trkpt>
      <trkpt lat="44.68864" lon="5.24248">
        <ele>421</ele>
        <time>2022-07-28T09:00:06Z</time>
      </trkpt>
      <trkpt lat="44.68855" lon="5.24227">
        <ele>417</ele>
        <time>2022-07-28T09:00:13Z</time>
      </trkpt>
      <trkpt lat="44.6884" lon="5.24205">
        <ele>414</ele>
        <time>2022-07-28T09:00:19Z</time>
      </trkpt>
      <trkpt lat="44.68828" lon="5.24194">
        <ele>411</ele>
        <time>2022-07-28T09:00:23Z</time>
      </trkpt>
      <trkpt lat="44.6882" lon="5.24174">
        <ele>409</ele>
        <time>2022-07-28T09:00:27Z</time>
      </trkpt>
      <trkpt lat="44.68814" lon="5.24151">
        <ele>406</ele>
        <time>2022-07-28T09:00:32Z</time>
      </trkpt>
      <trkpt lat="44.68801" lon="5.24107">
        <ele>402</ele>
        <time>2022-07-28T09:00:40Z</time>
      </trkpt>
      <trkpt lat="44.688" lon="5.24097">
        <ele>400</ele>
        <time>2022-07-28T09:00:42Z</time>
      </trkpt>
      <trkpt lat="44.68783" lon="5.24034">
        <ele>395</ele>
        <time>2022-07-28T09:00:54Z</time>
      </trkpt>
      <trkpt lat="44.68788" lon="5.23977">
        <ele>391</ele>
        <time>2022-07-28T09:01:05Z</time>
      </trkpt>
      <trkpt lat="44.68786" lon="5.23964">
        <ele>390</ele>
        <time>2022-07-28T09:01:08Z</time>
      </trkpt>
      <trkpt lat="44.6878" lon="5.23956">
        <ele>389</ele>
        <time>2022-07-28T09:01:11Z</time>
      </trkpt>
      <trkpt lat="44.68765" lon="5.23947">
        <ele>387</ele>
        <time>2022-07-28T09:01:17Z</time>
      </trkpt>
      <trkpt lat="44.68775" lon="5.23943">
        <ele>385</ele>
        <time>2022-07-28T09:01:23Z</time>
      </trkpt>
      <trkpt lat="44.68803" lon="5.2394">
        <ele>381</ele>
        <time>2022-07-28T09:01:32Z</time>
      </trkpt>
      <trkpt lat="44.68795" lon="5.23927">
        <ele>377</ele>
        <time>2022-07-28T09:01:39Z</time>
      </trkpt>
      <trkpt lat="44.68787" lon="5.23917">
        <ele>374</ele>
        <time>2022-07-28T09:01:42Z</time>
      </trkpt>
      <trkpt lat="44.68771" lon="5.23904">
        <ele>371</ele>
        <time>2022-07-28T09:01:47Z</time>
      </trkpt>
      <trkpt lat="44.68759" lon="5.23887">
        <ele>369</ele>
        <time>2022-07-28T09:01:51Z</time>
      </trkpt>
      <trkpt lat="44.68756" lon="5.23878">
        <ele>367</ele>
        <time>2022-07-28T09:01:53Z</time>
      </trkpt>
      <trkpt lat="44.68762" lon="5.23851">
        <ele>365</ele>
        <time>2022-07-28T09:01:59Z</time>
      </trkpt>
      <trkpt lat="44.68764" lon="5.23841">
        <ele>362</ele>
        <time>2022-07-28T09:02:01Z</time>
      </trkpt>
      <trkpt lat="44.68764" lon="5.23828">
        <ele>360</ele>
        <time>2022-07-28T09:02:04Z</time>
      </trkpt>
      <trkpt lat="44.68763" lon="5.23811">
        <ele>358</ele>
        <time>2022-07-28T09:02:07Z</time>
      </trkpt>
      <trkpt lat="44.68762" lon="5.23797">
        <ele>355</ele>
        <time>2022-07-28T09:02:10Z</time>
      </trkpt>
      <trkpt lat="44.68758" lon="5.23786">
        <ele>354</ele>
        <time>2022-07-28T09:02:13Z</time>
      </trkpt>
      <trkpt lat="44.68753" lon="5.23778">
        <ele>351</ele>
        <time>2022-07-28T09:02:16Z</time>
      </trkpt>
      <trkpt lat="44.68747" lon="5.23772">
        <ele>350</ele>
        <time>2022-07-28T09:02:20Z</time>
      </trkpt>
      <trkpt lat="44.6874" lon="5.2377">
        <ele>350</ele>
        <time>2022-07-28T09:02:23Z</time>
      </trkpt>
      <trkpt lat="44.68672" lon="5.23774">
        <ele>346</ele>
        <time>2022-07-28T09:02:44Z</time>
      </trkpt>
      <trkpt lat="44.68649" lon="5.23771">
        <ele>342</ele>
        <time>2022-07-28T09:02:50Z</time>
      </trkpt>
      <trkpt lat="44.68633" lon="5.23773">
        <ele>339</ele>
        <time>2022-07-28T09:02:55Z</time>
      </trkpt>
      <trkpt lat="44.68625" lon="5.23777">
        <ele>337</ele>
        <time>2022-07-28T09:02:58Z</time>
      </trkpt>
      <trkpt lat="44.68613" lon="5.23791">
        <ele>335</ele>
        <time>2022-07-28T09:03:03Z</time>
      </trkpt>
      <trkpt lat="44.6861" lon="5.23775">
        <ele>329</ele>
        <time>2022-07-28T09:03:16Z</time>
      </trkpt>
      <trkpt lat="44.68618" lon="5.23765">
        <ele>328</ele>
        <time>2022-07-28T09:03:20Z</time>
      </trkpt>
      <trkpt lat="44.68625" lon="5.2376">
        <ele>327</ele>
        <time>2022-07-28T09:03:23Z</time>
      </trkpt>
      <trkpt lat="44.68647" lon="5.23734">
        <ele>324</ele>
        <time>2022-07-28T09:03:35Z</time>
      </trkpt>
      <trkpt lat="44.68672" lon="5.23719">
        <ele>320</ele>
        <time>2022-07-28T09:03:43Z</time>
      </trkpt>
      <trkpt lat="44.68676" lon="5.2371">
        <ele>318</ele>
        <time>2022-07-28T09:03:49Z</time>
      </trkpt>
      <trkpt lat="44.68668" lon="5.23706">
        <ele>317</ele>
        <time>2022-07-28T09:03:52Z</time>
      </trkpt>
      <trkpt lat="44.6867" lon="5.23696">
        <ele>315</ele>
        <time>2022-07-28T09:03:58Z</time>
      </trkpt>
      <trkpt lat="44.68678" lon="5.23699">
        <ele>313</ele>
        <time>2022-07-28T09:04:02Z</time>
      </trkpt>
      <trkpt lat="44.68685" lon="5.23697">
        <ele>313</ele>
        <time>2022-07-28T09:04:05Z</time>
      </trkpt>
      <trkpt lat="44.68722" lon="5.23654">
        <ele>312</ele>
        <time>2022-07-28T09:04:18Z</time>
      </trkpt>
      <trkpt lat="44.6873" lon="5.2365">
        <ele>311</ele>
        <time>2022-07-28T09:04:21Z</time>
      </trkpt>
    </trkseg>
  </trk>
</gpx>